<?xml version="1.0" encoding="UTF-8" standalone="no" ?>
<gpx xmlns="http://www.topografix.com/GPX/1/1" xmlns:xsi="http://www.w3.org/2001/XMLSchema-instance" xsi:schemaLocation="http://www.topografix.com/GPX/1/1 http://www.topografix.com/GPX/1/1/gpx.xsd" version="1.1" creator="VisuGPX - https://www.visugpx.com">
  <metadata>
    <name>2017-12-05 Bike ride-Ambérieux-Rancé O 36km</name>
    <desc><![CDATA[2017-12-05 Bike ride-Ambérieux-Rancé O 36km]]></desc>
  </metadata>
  <wpt lat="45.92448" lon="4.73727">
    <ele>174</ele>
    <name><![CDATA[2017-12-05 10:25 (Start)]]></name>
  </wpt>
  <wpt lat="45.9246" lon="4.73711">
    <ele>174</ele>
    <name><![CDATA[2017-12-05 10:25 (End)]]></name>
    <desc><![CDATA[Created by Google My Tracks on Android  Name: 2017-12-05 10:25 Activity type: biking Description: - Total distance: 35.92 km (22.3 mi) Total time: 2:01:10 Moving time: 2:00:03 Average speed: 17.79 km/h (11.1 mi/h) Average moving speed: 17.95 km/h (11.2 mi/h) Max speed: 53.53 km/h (33.3 mi/h) Average pace: 3:22 min/km (5:26 min/mi) Average moving pace: 3:21 min/km (5:23 min/mi) Fastest pace: 1:07 min/km (1:48 min/mi) Max elevation: 348 m (1143 ft) Min elevation: 215 m (705 ft) Elevation gain: 437 m (1434 ft) Max grade: 17 % Min grade: -23 % Recorded: 05/12/2017 10:25]]></desc>
  </wpt>
  <trk>
    <name><![CDATA[2017-12-05 10:25]]></name>
    <trkseg>
      <trkpt lat="45.92448" lon="4.73727">
        <ele>174</ele>
        <time>2017-12-05T09:25:28.094Z</time>
      </trkpt>
      <trkpt lat="45.92447" lon="4.73728">
        <ele>174</ele>
        <time>2017-12-05T09:25:29.116Z</time>
      </trkpt>
      <trkpt lat="45.9245" lon="4.73724">
        <ele>174</ele>
        <time>2017-12-05T09:25:30.116Z</time>
      </trkpt>
      <trkpt lat="45.92453" lon="4.73725">
        <ele>174</ele>
        <time>2017-12-05T09:25:31.116Z</time>
      </trkpt>
      <trkpt lat="45.92463" lon="4.73727">
        <ele>174</ele>
        <time>2017-12-05T09:25:32Z</time>
      </trkpt>
      <trkpt lat="45.92464" lon="4.73716">
        <ele>174</ele>
        <time>2017-12-05T09:25:33Z</time>
      </trkpt>
      <trkpt lat="45.92464" lon="4.73714">
        <ele>174</ele>
        <time>2017-12-05T09:25:34Z</time>
      </trkpt>
      <trkpt lat="45.92463" lon="4.73714">
        <ele>174</ele>
        <time>2017-12-05T09:25:37Z</time>
      </trkpt>
      <trkpt lat="45.92464" lon="4.73714">
        <ele>174</ele>
        <time>2017-12-05T09:25:38Z</time>
      </trkpt>
      <trkpt lat="45.92464" lon="4.73714">
        <ele>174</ele>
        <time>2017-12-05T09:25:39Z</time>
      </trkpt>
      <trkpt lat="45.92464" lon="4.73714">
        <ele>174</ele>
        <time>2017-12-05T09:25:41Z</time>
      </trkpt>
      <trkpt lat="45.92464" lon="4.73714">
        <ele>174</ele>
        <time>2017-12-05T09:25:42Z</time>
      </trkpt>
      <trkpt lat="45.92464" lon="4.73714">
        <ele>174</ele>
        <time>2017-12-05T09:25:43Z</time>
      </trkpt>
      <trkpt lat="45.92463" lon="4.73714">
        <ele>174</ele>
        <time>2017-12-05T09:25:44Z</time>
      </trkpt>
      <trkpt lat="45.92462" lon="4.73713">
        <ele>174</ele>
        <time>2017-12-05T09:25:45Z</time>
      </trkpt>
      <trkpt lat="45.92462" lon="4.73713">
        <ele>174</ele>
        <time>2017-12-05T09:25:46Z</time>
      </trkpt>
      <trkpt lat="45.92466" lon="4.73704">
        <ele>174</ele>
        <time>2017-12-05T09:25:51Z</time>
      </trkpt>
      <trkpt lat="45.92466" lon="4.73701">
        <ele>174</ele>
        <time>2017-12-05T09:25:52Z</time>
      </trkpt>
      <trkpt lat="45.92466" lon="4.73691">
        <ele>174</ele>
        <time>2017-12-05T09:25:55Z</time>
      </trkpt>
      <trkpt lat="45.92466" lon="4.73688">
        <ele>174</ele>
        <time>2017-12-05T09:25:56Z</time>
      </trkpt>
      <trkpt lat="45.92468" lon="4.73676">
        <ele>174</ele>
        <time>2017-12-05T09:25:59Z</time>
      </trkpt>
      <trkpt lat="45.92468" lon="4.73673">
        <ele>174</ele>
        <time>2017-12-05T09:26:00Z</time>
      </trkpt>
      <trkpt lat="45.92469" lon="4.73664">
        <ele>174</ele>
        <time>2017-12-05T09:26:02Z</time>
      </trkpt>
      <trkpt lat="45.9247" lon="4.73659">
        <ele>174</ele>
        <time>2017-12-05T09:26:03Z</time>
      </trkpt>
      <trkpt lat="45.92471" lon="4.7365">
        <ele>174</ele>
        <time>2017-12-05T09:26:05Z</time>
      </trkpt>
      <trkpt lat="45.92474" lon="4.73646">
        <ele>174</ele>
        <time>2017-12-05T09:26:06Z</time>
      </trkpt>
      <trkpt lat="45.92479" lon="4.73643">
        <ele>174</ele>
        <time>2017-12-05T09:26:08Z</time>
      </trkpt>
      <trkpt lat="45.92483" lon="4.73643">
        <ele>174</ele>
        <time>2017-12-05T09:26:09Z</time>
      </trkpt>
      <trkpt lat="45.9249" lon="4.73644">
        <ele>174</ele>
        <time>2017-12-05T09:26:11Z</time>
      </trkpt>
      <trkpt lat="45.92493" lon="4.73644">
        <ele>174</ele>
        <time>2017-12-05T09:26:12Z</time>
      </trkpt>
      <trkpt lat="45.92502" lon="4.73645">
        <ele>174</ele>
        <time>2017-12-05T09:26:15Z</time>
      </trkpt>
      <trkpt lat="45.92505" lon="4.73645">
        <ele>174</ele>
        <time>2017-12-05T09:26:16Z</time>
      </trkpt>
      <trkpt lat="45.92514" lon="4.73645">
        <ele>174</ele>
        <time>2017-12-05T09:26:19Z</time>
      </trkpt>
      <trkpt lat="45.92517" lon="4.73645">
        <ele>174</ele>
        <time>2017-12-05T09:26:20Z</time>
      </trkpt>
      <trkpt lat="45.92524" lon="4.73644">
        <ele>173</ele>
        <time>2017-12-05T09:26:22Z</time>
      </trkpt>
      <trkpt lat="45.92528" lon="4.73643">
        <ele>173</ele>
        <time>2017-12-05T09:26:23Z</time>
      </trkpt>
      <trkpt lat="45.92535" lon="4.73641">
        <ele>173</ele>
        <time>2017-12-05T09:26:25Z</time>
      </trkpt>
      <trkpt lat="45.92538" lon="4.73641">
        <ele>173</ele>
        <time>2017-12-05T09:26:26Z</time>
      </trkpt>
      <trkpt lat="45.92546" lon="4.73639">
        <ele>173</ele>
        <time>2017-12-05T09:26:28Z</time>
      </trkpt>
      <trkpt lat="45.9255" lon="4.73639">
        <ele>173</ele>
        <time>2017-12-05T09:26:29Z</time>
      </trkpt>
      <trkpt lat="45.92559" lon="4.73636">
        <ele>173</ele>
        <time>2017-12-05T09:26:31Z</time>
      </trkpt>
      <trkpt lat="45.92563" lon="4.73635">
        <ele>173</ele>
        <time>2017-12-05T09:26:32Z</time>
      </trkpt>
      <trkpt lat="45.92572" lon="4.73633">
        <ele>173</ele>
        <time>2017-12-05T09:26:34Z</time>
      </trkpt>
      <trkpt lat="45.92577" lon="4.73632">
        <ele>173</ele>
        <time>2017-12-05T09:26:35Z</time>
      </trkpt>
      <trkpt lat="45.92582" lon="4.73632">
        <ele>173</ele>
        <time>2017-12-05T09:26:36Z</time>
      </trkpt>
      <trkpt lat="45.92586" lon="4.73631">
        <ele>172</ele>
        <time>2017-12-05T09:26:37Z</time>
      </trkpt>
      <trkpt lat="45.92594" lon="4.7363">
        <ele>172</ele>
        <time>2017-12-05T09:26:39Z</time>
      </trkpt>
      <trkpt lat="45.92598" lon="4.7363">
        <ele>172</ele>
        <time>2017-12-05T09:26:40Z</time>
      </trkpt>
      <trkpt lat="45.92607" lon="4.73632">
        <ele>173</ele>
        <time>2017-12-05T09:26:42Z</time>
      </trkpt>
      <trkpt lat="45.92611" lon="4.73635">
        <ele>173</ele>
        <time>2017-12-05T09:26:43Z</time>
      </trkpt>
      <trkpt lat="45.92615" lon="4.73639">
        <ele>173</ele>
        <time>2017-12-05T09:26:44Z</time>
      </trkpt>
      <trkpt lat="45.92618" lon="4.73643">
        <ele>173</ele>
        <time>2017-12-05T09:26:45Z</time>
      </trkpt>
      <trkpt lat="45.92622" lon="4.73648">
        <ele>173</ele>
        <time>2017-12-05T09:26:46Z</time>
      </trkpt>
      <trkpt lat="45.92624" lon="4.73654">
        <ele>173</ele>
        <time>2017-12-05T09:26:47Z</time>
      </trkpt>
      <trkpt lat="45.92627" lon="4.7366">
        <ele>173</ele>
        <time>2017-12-05T09:26:48Z</time>
      </trkpt>
      <trkpt lat="45.9263" lon="4.73666">
        <ele>173</ele>
        <time>2017-12-05T09:26:49Z</time>
      </trkpt>
      <trkpt lat="45.92635" lon="4.73676">
        <ele>173</ele>
        <time>2017-12-05T09:26:51Z</time>
      </trkpt>
      <trkpt lat="45.92639" lon="4.73681">
        <ele>173</ele>
        <time>2017-12-05T09:26:52Z</time>
      </trkpt>
      <trkpt lat="45.92642" lon="4.73686">
        <ele>173</ele>
        <time>2017-12-05T09:26:53Z</time>
      </trkpt>
      <trkpt lat="45.92646" lon="4.73691">
        <ele>173</ele>
        <time>2017-12-05T09:26:54Z</time>
      </trkpt>
      <trkpt lat="45.9265" lon="4.73695">
        <ele>173</ele>
        <time>2017-12-05T09:26:55Z</time>
      </trkpt>
      <trkpt lat="45.92654" lon="4.73699">
        <ele>173</ele>
        <time>2017-12-05T09:26:56Z</time>
      </trkpt>
      <trkpt lat="45.92658" lon="4.73702">
        <ele>173</ele>
        <time>2017-12-05T09:26:57Z</time>
      </trkpt>
      <trkpt lat="45.92663" lon="4.73705">
        <ele>173</ele>
        <time>2017-12-05T09:26:58Z</time>
      </trkpt>
      <trkpt lat="45.92667" lon="4.73708">
        <ele>174</ele>
        <time>2017-12-05T09:26:59Z</time>
      </trkpt>
      <trkpt lat="45.92672" lon="4.73711">
        <ele>174</ele>
        <time>2017-12-05T09:27:00Z</time>
      </trkpt>
      <trkpt lat="45.9268" lon="4.73713">
        <ele>173</ele>
        <time>2017-12-05T09:27:02Z</time>
      </trkpt>
      <trkpt lat="45.92684" lon="4.73714">
        <ele>173</ele>
        <time>2017-12-05T09:27:03Z</time>
      </trkpt>
      <trkpt lat="45.92688" lon="4.73715">
        <ele>173</ele>
        <time>2017-12-05T09:27:04Z</time>
      </trkpt>
      <trkpt lat="45.92694" lon="4.73716">
        <ele>173</ele>
        <time>2017-12-05T09:27:05Z</time>
      </trkpt>
      <trkpt lat="45.92699" lon="4.73716">
        <ele>173</ele>
        <time>2017-12-05T09:27:06Z</time>
      </trkpt>
      <trkpt lat="45.92704" lon="4.73717">
        <ele>173</ele>
        <time>2017-12-05T09:27:07Z</time>
      </trkpt>
      <trkpt lat="45.92708" lon="4.73718">
        <ele>173</ele>
        <time>2017-12-05T09:27:08Z</time>
      </trkpt>
      <trkpt lat="45.92714" lon="4.73719">
        <ele>173</ele>
        <time>2017-12-05T09:27:09Z</time>
      </trkpt>
      <trkpt lat="45.92719" lon="4.73721">
        <ele>173</ele>
        <time>2017-12-05T09:27:10Z</time>
      </trkpt>
      <trkpt lat="45.92723" lon="4.73722">
        <ele>173</ele>
        <time>2017-12-05T09:27:11Z</time>
      </trkpt>
      <trkpt lat="45.92728" lon="4.73724">
        <ele>173</ele>
        <time>2017-12-05T09:27:12Z</time>
      </trkpt>
      <trkpt lat="45.92733" lon="4.73725">
        <ele>173</ele>
        <time>2017-12-05T09:27:13Z</time>
      </trkpt>
      <trkpt lat="45.92737" lon="4.73726">
        <ele>173</ele>
        <time>2017-12-05T09:27:14Z</time>
      </trkpt>
      <trkpt lat="45.92742" lon="4.73727">
        <ele>173</ele>
        <time>2017-12-05T09:27:15Z</time>
      </trkpt>
      <trkpt lat="45.92747" lon="4.73728">
        <ele>173</ele>
        <time>2017-12-05T09:27:16Z</time>
      </trkpt>
      <trkpt lat="45.92752" lon="4.7373">
        <ele>172</ele>
        <time>2017-12-05T09:27:17Z</time>
      </trkpt>
      <trkpt lat="45.9276" lon="4.73734">
        <ele>172</ele>
        <time>2017-12-05T09:27:19Z</time>
      </trkpt>
      <trkpt lat="45.92764" lon="4.73736">
        <ele>172</ele>
        <time>2017-12-05T09:27:20Z</time>
      </trkpt>
      <trkpt lat="45.92772" lon="4.73737">
        <ele>172</ele>
        <time>2017-12-05T09:27:22Z</time>
      </trkpt>
      <trkpt lat="45.92776" lon="4.73736">
        <ele>172</ele>
        <time>2017-12-05T09:27:23Z</time>
      </trkpt>
      <trkpt lat="45.92781" lon="4.73729">
        <ele>172</ele>
        <time>2017-12-05T09:27:25Z</time>
      </trkpt>
      <trkpt lat="45.92783" lon="4.73723">
        <ele>172</ele>
        <time>2017-12-05T09:27:26Z</time>
      </trkpt>
      <trkpt lat="45.92784" lon="4.73717">
        <ele>172</ele>
        <time>2017-12-05T09:27:27Z</time>
      </trkpt>
      <trkpt lat="45.92786" lon="4.7371">
        <ele>172</ele>
        <time>2017-12-05T09:27:28Z</time>
      </trkpt>
      <trkpt lat="45.92787" lon="4.73704">
        <ele>172</ele>
        <time>2017-12-05T09:27:29Z</time>
      </trkpt>
      <trkpt lat="45.92788" lon="4.73697">
        <ele>172</ele>
        <time>2017-12-05T09:27:30Z</time>
      </trkpt>
      <trkpt lat="45.92791" lon="4.73685">
        <ele>172</ele>
        <time>2017-12-05T09:27:32Z</time>
      </trkpt>
      <trkpt lat="45.92793" lon="4.73679">
        <ele>172</ele>
        <time>2017-12-05T09:27:33Z</time>
      </trkpt>
      <trkpt lat="45.92794" lon="4.73672">
        <ele>172</ele>
        <time>2017-12-05T09:27:34Z</time>
      </trkpt>
      <trkpt lat="45.92795" lon="4.73666">
        <ele>172</ele>
        <time>2017-12-05T09:27:35Z</time>
      </trkpt>
      <trkpt lat="45.92796" lon="4.7366">
        <ele>172</ele>
        <time>2017-12-05T09:27:36Z</time>
      </trkpt>
      <trkpt lat="45.92798" lon="4.73654">
        <ele>172</ele>
        <time>2017-12-05T09:27:37Z</time>
      </trkpt>
      <trkpt lat="45.92802" lon="4.73642">
        <ele>172</ele>
        <time>2017-12-05T09:27:39Z</time>
      </trkpt>
      <trkpt lat="45.92803" lon="4.73637">
        <ele>172</ele>
        <time>2017-12-05T09:27:40Z</time>
      </trkpt>
      <trkpt lat="45.92811" lon="4.73632">
        <ele>172</ele>
        <time>2017-12-05T09:27:43Z</time>
      </trkpt>
      <trkpt lat="45.92814" lon="4.73628">
        <ele>172</ele>
        <time>2017-12-05T09:27:44Z</time>
      </trkpt>
      <trkpt lat="45.92814" lon="4.73616">
        <ele>172</ele>
        <time>2017-12-05T09:27:46Z</time>
      </trkpt>
      <trkpt lat="45.92814" lon="4.73609">
        <ele>172</ele>
        <time>2017-12-05T09:27:47Z</time>
      </trkpt>
      <trkpt lat="45.92814" lon="4.73602">
        <ele>172</ele>
        <time>2017-12-05T09:27:48Z</time>
      </trkpt>
      <trkpt lat="45.92814" lon="4.73594">
        <ele>171</ele>
        <time>2017-12-05T09:27:49Z</time>
      </trkpt>
      <trkpt lat="45.92814" lon="4.73586">
        <ele>171</ele>
        <time>2017-12-05T09:27:50Z</time>
      </trkpt>
      <trkpt lat="45.92814" lon="4.73579">
        <ele>171</ele>
        <time>2017-12-05T09:27:51Z</time>
      </trkpt>
      <trkpt lat="45.92815" lon="4.73571">
        <ele>171</ele>
        <time>2017-12-05T09:27:52Z</time>
      </trkpt>
      <trkpt lat="45.92816" lon="4.73564">
        <ele>171</ele>
        <time>2017-12-05T09:27:53Z</time>
      </trkpt>
      <trkpt lat="45.92816" lon="4.73555">
        <ele>171</ele>
        <time>2017-12-05T09:27:54Z</time>
      </trkpt>
      <trkpt lat="45.92817" lon="4.73547">
        <ele>171</ele>
        <time>2017-12-05T09:27:55Z</time>
      </trkpt>
      <trkpt lat="45.92818" lon="4.7354">
        <ele>172</ele>
        <time>2017-12-05T09:27:56Z</time>
      </trkpt>
      <trkpt lat="45.9282" lon="4.73533">
        <ele>172</ele>
        <time>2017-12-05T09:27:57Z</time>
      </trkpt>
      <trkpt lat="45.92821" lon="4.73524">
        <ele>172</ele>
        <time>2017-12-05T09:27:58Z</time>
      </trkpt>
      <trkpt lat="45.92822" lon="4.73517">
        <ele>172</ele>
        <time>2017-12-05T09:27:59Z</time>
      </trkpt>
      <trkpt lat="45.92822" lon="4.73509">
        <ele>172</ele>
        <time>2017-12-05T09:28:00Z</time>
      </trkpt>
      <trkpt lat="45.92823" lon="4.73502">
        <ele>172</ele>
        <time>2017-12-05T09:28:01Z</time>
      </trkpt>
      <trkpt lat="45.92823" lon="4.73494">
        <ele>172</ele>
        <time>2017-12-05T09:28:02Z</time>
      </trkpt>
      <trkpt lat="45.92824" lon="4.73487">
        <ele>172</ele>
        <time>2017-12-05T09:28:03Z</time>
      </trkpt>
      <trkpt lat="45.92824" lon="4.73478">
        <ele>172</ele>
        <time>2017-12-05T09:28:04Z</time>
      </trkpt>
      <trkpt lat="45.92825" lon="4.73471">
        <ele>172</ele>
        <time>2017-12-05T09:28:05Z</time>
      </trkpt>
      <trkpt lat="45.92826" lon="4.73463">
        <ele>172</ele>
        <time>2017-12-05T09:28:06Z</time>
      </trkpt>
      <trkpt lat="45.92826" lon="4.73455">
        <ele>172</ele>
        <time>2017-12-05T09:28:07Z</time>
      </trkpt>
      <trkpt lat="45.92827" lon="4.73447">
        <ele>172</ele>
        <time>2017-12-05T09:28:08Z</time>
      </trkpt>
      <trkpt lat="45.92828" lon="4.73439">
        <ele>172</ele>
        <time>2017-12-05T09:28:09Z</time>
      </trkpt>
      <trkpt lat="45.92829" lon="4.73432">
        <ele>172</ele>
        <time>2017-12-05T09:28:10Z</time>
      </trkpt>
      <trkpt lat="45.9283" lon="4.73424">
        <ele>172</ele>
        <time>2017-12-05T09:28:11Z</time>
      </trkpt>
      <trkpt lat="45.92832" lon="4.73417">
        <ele>172</ele>
        <time>2017-12-05T09:28:12Z</time>
      </trkpt>
      <trkpt lat="45.92834" lon="4.7341">
        <ele>172</ele>
        <time>2017-12-05T09:28:13Z</time>
      </trkpt>
      <trkpt lat="45.92834" lon="4.73402">
        <ele>172</ele>
        <time>2017-12-05T09:28:14Z</time>
      </trkpt>
      <trkpt lat="45.92837" lon="4.73392">
        <ele>172</ele>
        <time>2017-12-05T09:28:15Z</time>
      </trkpt>
      <trkpt lat="45.92837" lon="4.73384">
        <ele>172</ele>
        <time>2017-12-05T09:28:16Z</time>
      </trkpt>
      <trkpt lat="45.92838" lon="4.73377">
        <ele>172</ele>
        <time>2017-12-05T09:28:17Z</time>
      </trkpt>
      <trkpt lat="45.92839" lon="4.7337">
        <ele>171</ele>
        <time>2017-12-05T09:28:18Z</time>
      </trkpt>
      <trkpt lat="45.92839" lon="4.73363">
        <ele>171</ele>
        <time>2017-12-05T09:28:19Z</time>
      </trkpt>
      <trkpt lat="45.9284" lon="4.73355">
        <ele>171</ele>
        <time>2017-12-05T09:28:20Z</time>
      </trkpt>
      <trkpt lat="45.92842" lon="4.73347">
        <ele>171</ele>
        <time>2017-12-05T09:28:21Z</time>
      </trkpt>
      <trkpt lat="45.92843" lon="4.73338">
        <ele>171</ele>
        <time>2017-12-05T09:28:22Z</time>
      </trkpt>
      <trkpt lat="45.92843" lon="4.7333">
        <ele>171</ele>
        <time>2017-12-05T09:28:23Z</time>
      </trkpt>
      <trkpt lat="45.92844" lon="4.73322">
        <ele>171</ele>
        <time>2017-12-05T09:28:24Z</time>
      </trkpt>
      <trkpt lat="45.92845" lon="4.73314">
        <ele>171</ele>
        <time>2017-12-05T09:28:25Z</time>
      </trkpt>
      <trkpt lat="45.92846" lon="4.73306">
        <ele>171</ele>
        <time>2017-12-05T09:28:26Z</time>
      </trkpt>
      <trkpt lat="45.92847" lon="4.73297">
        <ele>171</ele>
        <time>2017-12-05T09:28:27Z</time>
      </trkpt>
      <trkpt lat="45.92847" lon="4.73289">
        <ele>171</ele>
        <time>2017-12-05T09:28:28Z</time>
      </trkpt>
      <trkpt lat="45.92848" lon="4.7328">
        <ele>171</ele>
        <time>2017-12-05T09:28:29Z</time>
      </trkpt>
      <trkpt lat="45.9285" lon="4.73272">
        <ele>171</ele>
        <time>2017-12-05T09:28:30Z</time>
      </trkpt>
      <trkpt lat="45.92852" lon="4.73264">
        <ele>171</ele>
        <time>2017-12-05T09:28:31Z</time>
      </trkpt>
      <trkpt lat="45.92853" lon="4.73256">
        <ele>171</ele>
        <time>2017-12-05T09:28:32Z</time>
      </trkpt>
      <trkpt lat="45.92854" lon="4.73248">
        <ele>171</ele>
        <time>2017-12-05T09:28:33Z</time>
      </trkpt>
      <trkpt lat="45.92854" lon="4.7324">
        <ele>171</ele>
        <time>2017-12-05T09:28:34Z</time>
      </trkpt>
      <trkpt lat="45.92856" lon="4.73232">
        <ele>171</ele>
        <time>2017-12-05T09:28:35Z</time>
      </trkpt>
      <trkpt lat="45.92857" lon="4.73224">
        <ele>171</ele>
        <time>2017-12-05T09:28:36Z</time>
      </trkpt>
      <trkpt lat="45.92858" lon="4.73217">
        <ele>171</ele>
        <time>2017-12-05T09:28:37Z</time>
      </trkpt>
      <trkpt lat="45.92859" lon="4.7321">
        <ele>171</ele>
        <time>2017-12-05T09:28:38Z</time>
      </trkpt>
      <trkpt lat="45.9286" lon="4.73202">
        <ele>171</ele>
        <time>2017-12-05T09:28:39Z</time>
      </trkpt>
      <trkpt lat="45.9286" lon="4.73193">
        <ele>171</ele>
        <time>2017-12-05T09:28:40Z</time>
      </trkpt>
      <trkpt lat="45.92862" lon="4.73184">
        <ele>171</ele>
        <time>2017-12-05T09:28:41Z</time>
      </trkpt>
      <trkpt lat="45.92862" lon="4.73176">
        <ele>171</ele>
        <time>2017-12-05T09:28:42Z</time>
      </trkpt>
      <trkpt lat="45.92863" lon="4.73168">
        <ele>171</ele>
        <time>2017-12-05T09:28:43Z</time>
      </trkpt>
      <trkpt lat="45.92864" lon="4.7316">
        <ele>171</ele>
        <time>2017-12-05T09:28:44Z</time>
      </trkpt>
      <trkpt lat="45.92865" lon="4.73153">
        <ele>171</ele>
        <time>2017-12-05T09:28:45Z</time>
      </trkpt>
      <trkpt lat="45.92866" lon="4.73145">
        <ele>171</ele>
        <time>2017-12-05T09:28:46Z</time>
      </trkpt>
      <trkpt lat="45.92867" lon="4.73139">
        <ele>171</ele>
        <time>2017-12-05T09:28:47Z</time>
      </trkpt>
      <trkpt lat="45.92868" lon="4.73131">
        <ele>171</ele>
        <time>2017-12-05T09:28:48Z</time>
      </trkpt>
      <trkpt lat="45.9287" lon="4.73124">
        <ele>171</ele>
        <time>2017-12-05T09:28:49Z</time>
      </trkpt>
      <trkpt lat="45.92872" lon="4.73118">
        <ele>172</ele>
        <time>2017-12-05T09:28:50Z</time>
      </trkpt>
      <trkpt lat="45.92874" lon="4.73111">
        <ele>172</ele>
        <time>2017-12-05T09:28:51Z</time>
      </trkpt>
      <trkpt lat="45.92876" lon="4.73104">
        <ele>172</ele>
        <time>2017-12-05T09:28:52Z</time>
      </trkpt>
      <trkpt lat="45.92879" lon="4.73097">
        <ele>172</ele>
        <time>2017-12-05T09:28:53Z</time>
      </trkpt>
      <trkpt lat="45.92882" lon="4.73089">
        <ele>172</ele>
        <time>2017-12-05T09:28:54Z</time>
      </trkpt>
      <trkpt lat="45.92884" lon="4.73084">
        <ele>172</ele>
        <time>2017-12-05T09:28:55Z</time>
      </trkpt>
      <trkpt lat="45.92887" lon="4.73078">
        <ele>172</ele>
        <time>2017-12-05T09:28:56Z</time>
      </trkpt>
      <trkpt lat="45.92891" lon="4.73072">
        <ele>172</ele>
        <time>2017-12-05T09:28:57Z</time>
      </trkpt>
      <trkpt lat="45.92894" lon="4.73066">
        <ele>172</ele>
        <time>2017-12-05T09:28:58Z</time>
      </trkpt>
      <trkpt lat="45.92897" lon="4.7306">
        <ele>172</ele>
        <time>2017-12-05T09:28:59Z</time>
      </trkpt>
      <trkpt lat="45.929" lon="4.73054">
        <ele>172</ele>
        <time>2017-12-05T09:29:00Z</time>
      </trkpt>
      <trkpt lat="45.92904" lon="4.73048">
        <ele>172</ele>
        <time>2017-12-05T09:29:01Z</time>
      </trkpt>
      <trkpt lat="45.92908" lon="4.73042">
        <ele>172</ele>
        <time>2017-12-05T09:29:02Z</time>
      </trkpt>
      <trkpt lat="45.92913" lon="4.73036">
        <ele>172</ele>
        <time>2017-12-05T09:29:03Z</time>
      </trkpt>
      <trkpt lat="45.92916" lon="4.73031">
        <ele>172</ele>
        <time>2017-12-05T09:29:04Z</time>
      </trkpt>
      <trkpt lat="45.92919" lon="4.73026">
        <ele>172</ele>
        <time>2017-12-05T09:29:05Z</time>
      </trkpt>
      <trkpt lat="45.92924" lon="4.7302">
        <ele>172</ele>
        <time>2017-12-05T09:29:06Z</time>
      </trkpt>
      <trkpt lat="45.92928" lon="4.73014">
        <ele>171</ele>
        <time>2017-12-05T09:29:07Z</time>
      </trkpt>
      <trkpt lat="45.92933" lon="4.73008">
        <ele>171</ele>
        <time>2017-12-05T09:29:08Z</time>
      </trkpt>
      <trkpt lat="45.92939" lon="4.73004">
        <ele>171</ele>
        <time>2017-12-05T09:29:09Z</time>
      </trkpt>
      <trkpt lat="45.92943" lon="4.72999">
        <ele>171</ele>
        <time>2017-12-05T09:29:10Z</time>
      </trkpt>
      <trkpt lat="45.92947" lon="4.72993">
        <ele>171</ele>
        <time>2017-12-05T09:29:11Z</time>
      </trkpt>
      <trkpt lat="45.92951" lon="4.72988">
        <ele>171</ele>
        <time>2017-12-05T09:29:12Z</time>
      </trkpt>
      <trkpt lat="45.92955" lon="4.72982">
        <ele>171</ele>
        <time>2017-12-05T09:29:13Z</time>
      </trkpt>
      <trkpt lat="45.92959" lon="4.72977">
        <ele>171</ele>
        <time>2017-12-05T09:29:14Z</time>
      </trkpt>
      <trkpt lat="45.92962" lon="4.72972">
        <ele>171</ele>
        <time>2017-12-05T09:29:15Z</time>
      </trkpt>
      <trkpt lat="45.92966" lon="4.72968">
        <ele>171</ele>
        <time>2017-12-05T09:29:16Z</time>
      </trkpt>
      <trkpt lat="45.9297" lon="4.72963">
        <ele>171</ele>
        <time>2017-12-05T09:29:17Z</time>
      </trkpt>
      <trkpt lat="45.92974" lon="4.72957">
        <ele>171</ele>
        <time>2017-12-05T09:29:18Z</time>
      </trkpt>
      <trkpt lat="45.92979" lon="4.72952">
        <ele>171</ele>
        <time>2017-12-05T09:29:19Z</time>
      </trkpt>
      <trkpt lat="45.92982" lon="4.72947">
        <ele>171</ele>
        <time>2017-12-05T09:29:20Z</time>
      </trkpt>
      <trkpt lat="45.92986" lon="4.72943">
        <ele>171</ele>
        <time>2017-12-05T09:29:21Z</time>
      </trkpt>
      <trkpt lat="45.9299" lon="4.72938">
        <ele>171</ele>
        <time>2017-12-05T09:29:22Z</time>
      </trkpt>
      <trkpt lat="45.92994" lon="4.72933">
        <ele>171</ele>
        <time>2017-12-05T09:29:23Z</time>
      </trkpt>
      <trkpt lat="45.92999" lon="4.72928">
        <ele>171</ele>
        <time>2017-12-05T09:29:24Z</time>
      </trkpt>
      <trkpt lat="45.93003" lon="4.72923">
        <ele>171</ele>
        <time>2017-12-05T09:29:25Z</time>
      </trkpt>
      <trkpt lat="45.93009" lon="4.72918">
        <ele>170</ele>
        <time>2017-12-05T09:29:26Z</time>
      </trkpt>
      <trkpt lat="45.93013" lon="4.72914">
        <ele>171</ele>
        <time>2017-12-05T09:29:27Z</time>
      </trkpt>
      <trkpt lat="45.93019" lon="4.72908">
        <ele>172</ele>
        <time>2017-12-05T09:29:28Z</time>
      </trkpt>
      <trkpt lat="45.93023" lon="4.72902">
        <ele>172</ele>
        <time>2017-12-05T09:29:29Z</time>
      </trkpt>
      <trkpt lat="45.93028" lon="4.72897">
        <ele>172</ele>
        <time>2017-12-05T09:29:30Z</time>
      </trkpt>
      <trkpt lat="45.93032" lon="4.72892">
        <ele>172</ele>
        <time>2017-12-05T09:29:31Z</time>
      </trkpt>
      <trkpt lat="45.93036" lon="4.72887">
        <ele>172</ele>
        <time>2017-12-05T09:29:32Z</time>
      </trkpt>
      <trkpt lat="45.9304" lon="4.72882">
        <ele>172</ele>
        <time>2017-12-05T09:29:33Z</time>
      </trkpt>
      <trkpt lat="45.93045" lon="4.72876">
        <ele>172</ele>
        <time>2017-12-05T09:29:34Z</time>
      </trkpt>
      <trkpt lat="45.93049" lon="4.7287">
        <ele>172</ele>
        <time>2017-12-05T09:29:35Z</time>
      </trkpt>
      <trkpt lat="45.93052" lon="4.72864">
        <ele>172</ele>
        <time>2017-12-05T09:29:36Z</time>
      </trkpt>
      <trkpt lat="45.93058" lon="4.72859">
        <ele>172</ele>
        <time>2017-12-05T09:29:37Z</time>
      </trkpt>
      <trkpt lat="45.93063" lon="4.72854">
        <ele>172</ele>
        <time>2017-12-05T09:29:38Z</time>
      </trkpt>
      <trkpt lat="45.93076" lon="4.72838">
        <ele>173</ele>
        <time>2017-12-05T09:29:41Z</time>
      </trkpt>
      <trkpt lat="45.93081" lon="4.72833">
        <ele>173</ele>
        <time>2017-12-05T09:29:42Z</time>
      </trkpt>
      <trkpt lat="45.93082" lon="4.72823">
        <ele>173</ele>
        <time>2017-12-05T09:29:43Z</time>
      </trkpt>
      <trkpt lat="45.93084" lon="4.72814">
        <ele>172</ele>
        <time>2017-12-05T09:29:44Z</time>
      </trkpt>
      <trkpt lat="45.93093" lon="4.72811">
        <ele>172</ele>
        <time>2017-12-05T09:29:45Z</time>
      </trkpt>
      <trkpt lat="45.931" lon="4.72805">
        <ele>171</ele>
        <time>2017-12-05T09:29:47Z</time>
      </trkpt>
      <trkpt lat="45.93104" lon="4.72801">
        <ele>171</ele>
        <time>2017-12-05T09:29:48Z</time>
      </trkpt>
      <trkpt lat="45.93108" lon="4.72797">
        <ele>171</ele>
        <time>2017-12-05T09:29:49Z</time>
      </trkpt>
      <trkpt lat="45.93112" lon="4.72793">
        <ele>171</ele>
        <time>2017-12-05T09:29:50Z</time>
      </trkpt>
      <trkpt lat="45.93118" lon="4.72789">
        <ele>171</ele>
        <time>2017-12-05T09:29:52Z</time>
      </trkpt>
      <trkpt lat="45.93122" lon="4.72784">
        <ele>171</ele>
        <time>2017-12-05T09:29:53Z</time>
      </trkpt>
      <trkpt lat="45.93126" lon="4.72778">
        <ele>171</ele>
        <time>2017-12-05T09:29:54Z</time>
      </trkpt>
      <trkpt lat="45.93131" lon="4.72772">
        <ele>171</ele>
        <time>2017-12-05T09:29:55Z</time>
      </trkpt>
      <trkpt lat="45.93135" lon="4.72767">
        <ele>171</ele>
        <time>2017-12-05T09:29:56Z</time>
      </trkpt>
      <trkpt lat="45.9314" lon="4.72763">
        <ele>171</ele>
        <time>2017-12-05T09:29:57Z</time>
      </trkpt>
      <trkpt lat="45.93148" lon="4.72754">
        <ele>170</ele>
        <time>2017-12-05T09:29:58Z</time>
      </trkpt>
      <trkpt lat="45.93152" lon="4.7275">
        <ele>170</ele>
        <time>2017-12-05T09:29:59Z</time>
      </trkpt>
      <trkpt lat="45.93156" lon="4.72744">
        <ele>170</ele>
        <time>2017-12-05T09:30:00Z</time>
      </trkpt>
      <trkpt lat="45.93161" lon="4.72739">
        <ele>170</ele>
        <time>2017-12-05T09:30:01Z</time>
      </trkpt>
      <trkpt lat="45.93165" lon="4.72733">
        <ele>170</ele>
        <time>2017-12-05T09:30:02Z</time>
      </trkpt>
      <trkpt lat="45.93169" lon="4.72728">
        <ele>170</ele>
        <time>2017-12-05T09:30:03Z</time>
      </trkpt>
      <trkpt lat="45.93174" lon="4.72722">
        <ele>170</ele>
        <time>2017-12-05T09:30:04Z</time>
      </trkpt>
      <trkpt lat="45.93178" lon="4.72717">
        <ele>169</ele>
        <time>2017-12-05T09:30:05Z</time>
      </trkpt>
      <trkpt lat="45.93182" lon="4.72712">
        <ele>169</ele>
        <time>2017-12-05T09:30:06Z</time>
      </trkpt>
      <trkpt lat="45.93186" lon="4.72707">
        <ele>169</ele>
        <time>2017-12-05T09:30:07Z</time>
      </trkpt>
      <trkpt lat="45.9319" lon="4.72702">
        <ele>169</ele>
        <time>2017-12-05T09:30:08Z</time>
      </trkpt>
      <trkpt lat="45.93195" lon="4.72697">
        <ele>169</ele>
        <time>2017-12-05T09:30:09Z</time>
      </trkpt>
      <trkpt lat="45.93199" lon="4.72692">
        <ele>169</ele>
        <time>2017-12-05T09:30:10Z</time>
      </trkpt>
      <trkpt lat="45.93204" lon="4.72687">
        <ele>169</ele>
        <time>2017-12-05T09:30:11Z</time>
      </trkpt>
      <trkpt lat="45.93208" lon="4.72682">
        <ele>169</ele>
        <time>2017-12-05T09:30:12Z</time>
      </trkpt>
      <trkpt lat="45.93213" lon="4.72677">
        <ele>169</ele>
        <time>2017-12-05T09:30:13Z</time>
      </trkpt>
      <trkpt lat="45.93217" lon="4.72672">
        <ele>169</ele>
        <time>2017-12-05T09:30:14Z</time>
      </trkpt>
      <trkpt lat="45.93223" lon="4.72663">
        <ele>170</ele>
        <time>2017-12-05T09:30:16Z</time>
      </trkpt>
      <trkpt lat="45.93227" lon="4.72659">
        <ele>170</ele>
        <time>2017-12-05T09:30:17Z</time>
      </trkpt>
      <trkpt lat="45.93231" lon="4.72654">
        <ele>170</ele>
        <time>2017-12-05T09:30:18Z</time>
      </trkpt>
      <trkpt lat="45.93235" lon="4.72649">
        <ele>170</ele>
        <time>2017-12-05T09:30:19Z</time>
      </trkpt>
      <trkpt lat="45.93239" lon="4.72644">
        <ele>170</ele>
        <time>2017-12-05T09:30:20Z</time>
      </trkpt>
      <trkpt lat="45.93244" lon="4.7264">
        <ele>170</ele>
        <time>2017-12-05T09:30:21Z</time>
      </trkpt>
      <trkpt lat="45.93248" lon="4.72635">
        <ele>170</ele>
        <time>2017-12-05T09:30:22Z</time>
      </trkpt>
      <trkpt lat="45.93252" lon="4.72629">
        <ele>170</ele>
        <time>2017-12-05T09:30:23Z</time>
      </trkpt>
      <trkpt lat="45.93257" lon="4.72624">
        <ele>170</ele>
        <time>2017-12-05T09:30:24Z</time>
      </trkpt>
      <trkpt lat="45.93261" lon="4.72619">
        <ele>170</ele>
        <time>2017-12-05T09:30:25Z</time>
      </trkpt>
      <trkpt lat="45.93265" lon="4.72614">
        <ele>170</ele>
        <time>2017-12-05T09:30:26Z</time>
      </trkpt>
      <trkpt lat="45.9327" lon="4.72609">
        <ele>170</ele>
        <time>2017-12-05T09:30:27Z</time>
      </trkpt>
      <trkpt lat="45.93275" lon="4.72604">
        <ele>170</ele>
        <time>2017-12-05T09:30:28Z</time>
      </trkpt>
      <trkpt lat="45.9328" lon="4.72599">
        <ele>170</ele>
        <time>2017-12-05T09:30:29Z</time>
      </trkpt>
      <trkpt lat="45.93285" lon="4.72592">
        <ele>170</ele>
        <time>2017-12-05T09:30:30Z</time>
      </trkpt>
      <trkpt lat="45.93289" lon="4.72586">
        <ele>170</ele>
        <time>2017-12-05T09:30:31Z</time>
      </trkpt>
      <trkpt lat="45.93294" lon="4.7258">
        <ele>171</ele>
        <time>2017-12-05T09:30:32Z</time>
      </trkpt>
      <trkpt lat="45.93297" lon="4.72576">
        <ele>171</ele>
        <time>2017-12-05T09:30:33Z</time>
      </trkpt>
      <trkpt lat="45.933" lon="4.72571">
        <ele>171</ele>
        <time>2017-12-05T09:30:34Z</time>
      </trkpt>
      <trkpt lat="45.93305" lon="4.72567">
        <ele>171</ele>
        <time>2017-12-05T09:30:35Z</time>
      </trkpt>
      <trkpt lat="45.93309" lon="4.72564">
        <ele>171</ele>
        <time>2017-12-05T09:30:36Z</time>
      </trkpt>
      <trkpt lat="45.93313" lon="4.72558">
        <ele>171</ele>
        <time>2017-12-05T09:30:37Z</time>
      </trkpt>
      <trkpt lat="45.93317" lon="4.72553">
        <ele>172</ele>
        <time>2017-12-05T09:30:38Z</time>
      </trkpt>
      <trkpt lat="45.93321" lon="4.72548">
        <ele>172</ele>
        <time>2017-12-05T09:30:39Z</time>
      </trkpt>
      <trkpt lat="45.93326" lon="4.72543">
        <ele>172</ele>
        <time>2017-12-05T09:30:40Z</time>
      </trkpt>
      <trkpt lat="45.9333" lon="4.72538">
        <ele>172</ele>
        <time>2017-12-05T09:30:41Z</time>
      </trkpt>
      <trkpt lat="45.93334" lon="4.72534">
        <ele>172</ele>
        <time>2017-12-05T09:30:42Z</time>
      </trkpt>
      <trkpt lat="45.93338" lon="4.7253">
        <ele>172</ele>
        <time>2017-12-05T09:30:43Z</time>
      </trkpt>
      <trkpt lat="45.93342" lon="4.72524">
        <ele>172</ele>
        <time>2017-12-05T09:30:44Z</time>
      </trkpt>
      <trkpt lat="45.93347" lon="4.72519">
        <ele>172</ele>
        <time>2017-12-05T09:30:45Z</time>
      </trkpt>
      <trkpt lat="45.93351" lon="4.72513">
        <ele>172</ele>
        <time>2017-12-05T09:30:46Z</time>
      </trkpt>
      <trkpt lat="45.93355" lon="4.72508">
        <ele>172</ele>
        <time>2017-12-05T09:30:47Z</time>
      </trkpt>
      <trkpt lat="45.93359" lon="4.72503">
        <ele>172</ele>
        <time>2017-12-05T09:30:48Z</time>
      </trkpt>
      <trkpt lat="45.93364" lon="4.72498">
        <ele>173</ele>
        <time>2017-12-05T09:30:49Z</time>
      </trkpt>
      <trkpt lat="45.93367" lon="4.72493">
        <ele>173</ele>
        <time>2017-12-05T09:30:50Z</time>
      </trkpt>
      <trkpt lat="45.93371" lon="4.72488">
        <ele>173</ele>
        <time>2017-12-05T09:30:51Z</time>
      </trkpt>
      <trkpt lat="45.93376" lon="4.72484">
        <ele>173</ele>
        <time>2017-12-05T09:30:52Z</time>
      </trkpt>
      <trkpt lat="45.9338" lon="4.72478">
        <ele>173</ele>
        <time>2017-12-05T09:30:53Z</time>
      </trkpt>
      <trkpt lat="45.93384" lon="4.72473">
        <ele>173</ele>
        <time>2017-12-05T09:30:54Z</time>
      </trkpt>
      <trkpt lat="45.93389" lon="4.72469">
        <ele>173</ele>
        <time>2017-12-05T09:30:55Z</time>
      </trkpt>
      <trkpt lat="45.93391" lon="4.72463">
        <ele>173</ele>
        <time>2017-12-05T09:30:56Z</time>
      </trkpt>
      <trkpt lat="45.93393" lon="4.72456">
        <ele>173</ele>
        <time>2017-12-05T09:30:57Z</time>
      </trkpt>
      <trkpt lat="45.93394" lon="4.7245">
        <ele>173</ele>
        <time>2017-12-05T09:30:58Z</time>
      </trkpt>
      <trkpt lat="45.93396" lon="4.72442">
        <ele>173</ele>
        <time>2017-12-05T09:30:59Z</time>
      </trkpt>
      <trkpt lat="45.93399" lon="4.72436">
        <ele>173</ele>
        <time>2017-12-05T09:31:00Z</time>
      </trkpt>
      <trkpt lat="45.93403" lon="4.7243">
        <ele>173</ele>
        <time>2017-12-05T09:31:01Z</time>
      </trkpt>
      <trkpt lat="45.93407" lon="4.72425">
        <ele>174</ele>
        <time>2017-12-05T09:31:02Z</time>
      </trkpt>
      <trkpt lat="45.93412" lon="4.72421">
        <ele>174</ele>
        <time>2017-12-05T09:31:03Z</time>
      </trkpt>
      <trkpt lat="45.93418" lon="4.72418">
        <ele>174</ele>
        <time>2017-12-05T09:31:04Z</time>
      </trkpt>
      <trkpt lat="45.93423" lon="4.72415">
        <ele>174</ele>
        <time>2017-12-05T09:31:05Z</time>
      </trkpt>
      <trkpt lat="45.93428" lon="4.72413">
        <ele>174</ele>
        <time>2017-12-05T09:31:06Z</time>
      </trkpt>
      <trkpt lat="45.93433" lon="4.7241">
        <ele>174</ele>
        <time>2017-12-05T09:31:07Z</time>
      </trkpt>
      <trkpt lat="45.93438" lon="4.72406">
        <ele>174</ele>
        <time>2017-12-05T09:31:08Z</time>
      </trkpt>
      <trkpt lat="45.93442" lon="4.72402">
        <ele>173</ele>
        <time>2017-12-05T09:31:09Z</time>
      </trkpt>
      <trkpt lat="45.93446" lon="4.72397">
        <ele>173</ele>
        <time>2017-12-05T09:31:10Z</time>
      </trkpt>
      <trkpt lat="45.9345" lon="4.72393">
        <ele>173</ele>
        <time>2017-12-05T09:31:11Z</time>
      </trkpt>
      <trkpt lat="45.93455" lon="4.72388">
        <ele>173</ele>
        <time>2017-12-05T09:31:12Z</time>
      </trkpt>
      <trkpt lat="45.9346" lon="4.72382">
        <ele>173</ele>
        <time>2017-12-05T09:31:13Z</time>
      </trkpt>
      <trkpt lat="45.93464" lon="4.72376">
        <ele>173</ele>
        <time>2017-12-05T09:31:14Z</time>
      </trkpt>
      <trkpt lat="45.93468" lon="4.72371">
        <ele>173</ele>
        <time>2017-12-05T09:31:15Z</time>
      </trkpt>
      <trkpt lat="45.93472" lon="4.72366">
        <ele>173</ele>
        <time>2017-12-05T09:31:16Z</time>
      </trkpt>
      <trkpt lat="45.93476" lon="4.72361">
        <ele>173</ele>
        <time>2017-12-05T09:31:17Z</time>
      </trkpt>
      <trkpt lat="45.93479" lon="4.72355">
        <ele>173</ele>
        <time>2017-12-05T09:31:18Z</time>
      </trkpt>
      <trkpt lat="45.93483" lon="4.72349">
        <ele>173</ele>
        <time>2017-12-05T09:31:19Z</time>
      </trkpt>
      <trkpt lat="45.93487" lon="4.72343">
        <ele>173</ele>
        <time>2017-12-05T09:31:20Z</time>
      </trkpt>
      <trkpt lat="45.93491" lon="4.72338">
        <ele>173</ele>
        <time>2017-12-05T09:31:21Z</time>
      </trkpt>
      <trkpt lat="45.93495" lon="4.7233">
        <ele>173</ele>
        <time>2017-12-05T09:31:22Z</time>
      </trkpt>
      <trkpt lat="45.93499" lon="4.72326">
        <ele>173</ele>
        <time>2017-12-05T09:31:23Z</time>
      </trkpt>
      <trkpt lat="45.93505" lon="4.7232">
        <ele>173</ele>
        <time>2017-12-05T09:31:24Z</time>
      </trkpt>
      <trkpt lat="45.93508" lon="4.72314">
        <ele>173</ele>
        <time>2017-12-05T09:31:25Z</time>
      </trkpt>
      <trkpt lat="45.93512" lon="4.72307">
        <ele>173</ele>
        <time>2017-12-05T09:31:26Z</time>
      </trkpt>
      <trkpt lat="45.93515" lon="4.72302">
        <ele>172</ele>
        <time>2017-12-05T09:31:27Z</time>
      </trkpt>
      <trkpt lat="45.9352" lon="4.72292">
        <ele>172</ele>
        <time>2017-12-05T09:31:29Z</time>
      </trkpt>
      <trkpt lat="45.93522" lon="4.72285">
        <ele>172</ele>
        <time>2017-12-05T09:31:30Z</time>
      </trkpt>
      <trkpt lat="45.93524" lon="4.72279">
        <ele>172</ele>
        <time>2017-12-05T09:31:31Z</time>
      </trkpt>
      <trkpt lat="45.93527" lon="4.72273">
        <ele>172</ele>
        <time>2017-12-05T09:31:32Z</time>
      </trkpt>
      <trkpt lat="45.93532" lon="4.72262">
        <ele>172</ele>
        <time>2017-12-05T09:31:34Z</time>
      </trkpt>
      <trkpt lat="45.93534" lon="4.72257">
        <ele>172</ele>
        <time>2017-12-05T09:31:35Z</time>
      </trkpt>
      <trkpt lat="45.93539" lon="4.72246">
        <ele>172</ele>
        <time>2017-12-05T09:31:37Z</time>
      </trkpt>
      <trkpt lat="45.93541" lon="4.72238">
        <ele>172</ele>
        <time>2017-12-05T09:31:38Z</time>
      </trkpt>
      <trkpt lat="45.93546" lon="4.72229">
        <ele>172</ele>
        <time>2017-12-05T09:31:40Z</time>
      </trkpt>
      <trkpt lat="45.93548" lon="4.72227">
        <ele>172</ele>
        <time>2017-12-05T09:31:41Z</time>
      </trkpt>
      <trkpt lat="45.93556" lon="4.72231">
        <ele>173</ele>
        <time>2017-12-05T09:31:49Z</time>
      </trkpt>
      <trkpt lat="45.93557" lon="4.72232">
        <ele>173</ele>
        <time>2017-12-05T09:31:50Z</time>
      </trkpt>
      <trkpt lat="45.93564" lon="4.72232">
        <ele>173</ele>
        <time>2017-12-05T09:31:55Z</time>
      </trkpt>
      <trkpt lat="45.93566" lon="4.72231">
        <ele>173</ele>
        <time>2017-12-05T09:31:56Z</time>
      </trkpt>
      <trkpt lat="45.93574" lon="4.72231">
        <ele>173</ele>
        <time>2017-12-05T09:32:00Z</time>
      </trkpt>
      <trkpt lat="45.93576" lon="4.72234">
        <ele>173</ele>
        <time>2017-12-05T09:32:01Z</time>
      </trkpt>
      <trkpt lat="45.9358" lon="4.72243">
        <ele>173</ele>
        <time>2017-12-05T09:32:04Z</time>
      </trkpt>
      <trkpt lat="45.93581" lon="4.72245">
        <ele>173</ele>
        <time>2017-12-05T09:32:05Z</time>
      </trkpt>
      <trkpt lat="45.93588" lon="4.72251">
        <ele>173</ele>
        <time>2017-12-05T09:32:08Z</time>
      </trkpt>
      <trkpt lat="45.93591" lon="4.72254">
        <ele>173</ele>
        <time>2017-12-05T09:32:09Z</time>
      </trkpt>
      <trkpt lat="45.93596" lon="4.72259">
        <ele>173</ele>
        <time>2017-12-05T09:32:11Z</time>
      </trkpt>
      <trkpt lat="45.93598" lon="4.72261">
        <ele>173</ele>
        <time>2017-12-05T09:32:12Z</time>
      </trkpt>
      <trkpt lat="45.93605" lon="4.72267">
        <ele>173</ele>
        <time>2017-12-05T09:32:14Z</time>
      </trkpt>
      <trkpt lat="45.93609" lon="4.72271">
        <ele>172</ele>
        <time>2017-12-05T09:32:15Z</time>
      </trkpt>
      <trkpt lat="45.93614" lon="4.72276">
        <ele>172</ele>
        <time>2017-12-05T09:32:16Z</time>
      </trkpt>
      <trkpt lat="45.9362" lon="4.7228">
        <ele>172</ele>
        <time>2017-12-05T09:32:17Z</time>
      </trkpt>
      <trkpt lat="45.93625" lon="4.72284">
        <ele>172</ele>
        <time>2017-12-05T09:32:18Z</time>
      </trkpt>
      <trkpt lat="45.93629" lon="4.72288">
        <ele>172</ele>
        <time>2017-12-05T09:32:19Z</time>
      </trkpt>
      <trkpt lat="45.93634" lon="4.72293">
        <ele>172</ele>
        <time>2017-12-05T09:32:20Z</time>
      </trkpt>
      <trkpt lat="45.93639" lon="4.72297">
        <ele>172</ele>
        <time>2017-12-05T09:32:21Z</time>
      </trkpt>
      <trkpt lat="45.93643" lon="4.72303">
        <ele>172</ele>
        <time>2017-12-05T09:32:22Z</time>
      </trkpt>
      <trkpt lat="45.93647" lon="4.72307">
        <ele>172</ele>
        <time>2017-12-05T09:32:23Z</time>
      </trkpt>
      <trkpt lat="45.93652" lon="4.72311">
        <ele>172</ele>
        <time>2017-12-05T09:32:24Z</time>
      </trkpt>
      <trkpt lat="45.93656" lon="4.72315">
        <ele>172</ele>
        <time>2017-12-05T09:32:25Z</time>
      </trkpt>
      <trkpt lat="45.93661" lon="4.7232">
        <ele>172</ele>
        <time>2017-12-05T09:32:26Z</time>
      </trkpt>
      <trkpt lat="45.93663" lon="4.72325">
        <ele>171</ele>
        <time>2017-12-05T09:32:27Z</time>
      </trkpt>
      <trkpt lat="45.93668" lon="4.72331">
        <ele>171</ele>
        <time>2017-12-05T09:32:28Z</time>
      </trkpt>
      <trkpt lat="45.93672" lon="4.72335">
        <ele>171</ele>
        <time>2017-12-05T09:32:29Z</time>
      </trkpt>
      <trkpt lat="45.93677" lon="4.72339">
        <ele>171</ele>
        <time>2017-12-05T09:32:30Z</time>
      </trkpt>
      <trkpt lat="45.93682" lon="4.72345">
        <ele>171</ele>
        <time>2017-12-05T09:32:31Z</time>
      </trkpt>
      <trkpt lat="45.93687" lon="4.72349">
        <ele>171</ele>
        <time>2017-12-05T09:32:32Z</time>
      </trkpt>
      <trkpt lat="45.93692" lon="4.72351">
        <ele>171</ele>
        <time>2017-12-05T09:32:33Z</time>
      </trkpt>
      <trkpt lat="45.937" lon="4.7236">
        <ele>171</ele>
        <time>2017-12-05T09:32:35Z</time>
      </trkpt>
      <trkpt lat="45.93704" lon="4.72365">
        <ele>171</ele>
        <time>2017-12-05T09:32:36Z</time>
      </trkpt>
      <trkpt lat="45.93708" lon="4.72366">
        <ele>171</ele>
        <time>2017-12-05T09:32:37Z</time>
      </trkpt>
      <trkpt lat="45.93712" lon="4.72371">
        <ele>172</ele>
        <time>2017-12-05T09:32:38Z</time>
      </trkpt>
      <trkpt lat="45.93716" lon="4.72375">
        <ele>172</ele>
        <time>2017-12-05T09:32:39Z</time>
      </trkpt>
      <trkpt lat="45.93722" lon="4.72382">
        <ele>171</ele>
        <time>2017-12-05T09:32:41Z</time>
      </trkpt>
      <trkpt lat="45.93726" lon="4.72386">
        <ele>171</ele>
        <time>2017-12-05T09:32:42Z</time>
      </trkpt>
      <trkpt lat="45.9373" lon="4.7239">
        <ele>171</ele>
        <time>2017-12-05T09:32:43Z</time>
      </trkpt>
      <trkpt lat="45.93734" lon="4.72393">
        <ele>171</ele>
        <time>2017-12-05T09:32:44Z</time>
      </trkpt>
      <trkpt lat="45.93738" lon="4.72398">
        <ele>171</ele>
        <time>2017-12-05T09:32:45Z</time>
      </trkpt>
      <trkpt lat="45.93743" lon="4.72403">
        <ele>171</ele>
        <time>2017-12-05T09:32:46Z</time>
      </trkpt>
      <trkpt lat="45.93748" lon="4.72409">
        <ele>171</ele>
        <time>2017-12-05T09:32:47Z</time>
      </trkpt>
      <trkpt lat="45.93752" lon="4.72413">
        <ele>171</ele>
        <time>2017-12-05T09:32:48Z</time>
      </trkpt>
      <trkpt lat="45.93757" lon="4.72418">
        <ele>171</ele>
        <time>2017-12-05T09:32:49Z</time>
      </trkpt>
      <trkpt lat="45.93761" lon="4.72421">
        <ele>171</ele>
        <time>2017-12-05T09:32:50Z</time>
      </trkpt>
      <trkpt lat="45.93765" lon="4.72426">
        <ele>171</ele>
        <time>2017-12-05T09:32:51Z</time>
      </trkpt>
      <trkpt lat="45.93771" lon="4.72432">
        <ele>171</ele>
        <time>2017-12-05T09:32:52Z</time>
      </trkpt>
      <trkpt lat="45.93776" lon="4.72437">
        <ele>172</ele>
        <time>2017-12-05T09:32:53Z</time>
      </trkpt>
      <trkpt lat="45.93781" lon="4.72441">
        <ele>172</ele>
        <time>2017-12-05T09:32:54Z</time>
      </trkpt>
      <trkpt lat="45.93786" lon="4.72445">
        <ele>172</ele>
        <time>2017-12-05T09:32:55Z</time>
      </trkpt>
      <trkpt lat="45.93792" lon="4.72449">
        <ele>172</ele>
        <time>2017-12-05T09:32:56Z</time>
      </trkpt>
      <trkpt lat="45.93797" lon="4.72453">
        <ele>172</ele>
        <time>2017-12-05T09:32:57Z</time>
      </trkpt>
      <trkpt lat="45.93801" lon="4.72457">
        <ele>172</ele>
        <time>2017-12-05T09:32:58Z</time>
      </trkpt>
      <trkpt lat="45.93805" lon="4.72464">
        <ele>172</ele>
        <time>2017-12-05T09:32:59Z</time>
      </trkpt>
      <trkpt lat="45.93808" lon="4.7247">
        <ele>172</ele>
        <time>2017-12-05T09:33:00Z</time>
      </trkpt>
      <trkpt lat="45.93811" lon="4.72471">
        <ele>172</ele>
        <time>2017-12-05T09:33:01Z</time>
      </trkpt>
      <trkpt lat="45.93817" lon="4.72472">
        <ele>172</ele>
        <time>2017-12-05T09:33:02Z</time>
      </trkpt>
      <trkpt lat="45.93823" lon="4.72469">
        <ele>172</ele>
        <time>2017-12-05T09:33:06Z</time>
      </trkpt>
      <trkpt lat="45.93826" lon="4.72464">
        <ele>172</ele>
        <time>2017-12-05T09:33:07Z</time>
      </trkpt>
      <trkpt lat="45.93833" lon="4.72469">
        <ele>172</ele>
        <time>2017-12-05T09:33:09Z</time>
      </trkpt>
      <trkpt lat="45.93838" lon="4.72478">
        <ele>173</ele>
        <time>2017-12-05T09:33:10Z</time>
      </trkpt>
      <trkpt lat="45.93844" lon="4.72484">
        <ele>173</ele>
        <time>2017-12-05T09:33:11Z</time>
      </trkpt>
      <trkpt lat="45.93852" lon="4.72495">
        <ele>173</ele>
        <time>2017-12-05T09:33:12Z</time>
      </trkpt>
      <trkpt lat="45.93859" lon="4.72497">
        <ele>173</ele>
        <time>2017-12-05T09:33:13Z</time>
      </trkpt>
      <trkpt lat="45.93868" lon="4.72499">
        <ele>173</ele>
        <time>2017-12-05T09:33:14Z</time>
      </trkpt>
      <trkpt lat="45.93874" lon="4.72497">
        <ele>172</ele>
        <time>2017-12-05T09:33:15Z</time>
      </trkpt>
      <trkpt lat="45.93878" lon="4.72496">
        <ele>172</ele>
        <time>2017-12-05T09:33:16Z</time>
      </trkpt>
      <trkpt lat="45.93885" lon="4.72491">
        <ele>172</ele>
        <time>2017-12-05T09:33:18Z</time>
      </trkpt>
      <trkpt lat="45.93889" lon="4.72488">
        <ele>172</ele>
        <time>2017-12-05T09:33:19Z</time>
      </trkpt>
      <trkpt lat="45.93894" lon="4.72484">
        <ele>172</ele>
        <time>2017-12-05T09:33:20Z</time>
      </trkpt>
      <trkpt lat="45.93898" lon="4.72479">
        <ele>172</ele>
        <time>2017-12-05T09:33:21Z</time>
      </trkpt>
      <trkpt lat="45.93902" lon="4.72475">
        <ele>172</ele>
        <time>2017-12-05T09:33:22Z</time>
      </trkpt>
      <trkpt lat="45.93907" lon="4.72469">
        <ele>172</ele>
        <time>2017-12-05T09:33:23Z</time>
      </trkpt>
      <trkpt lat="45.93912" lon="4.72464">
        <ele>172</ele>
        <time>2017-12-05T09:33:24Z</time>
      </trkpt>
      <trkpt lat="45.93917" lon="4.72459">
        <ele>172</ele>
        <time>2017-12-05T09:33:25Z</time>
      </trkpt>
      <trkpt lat="45.9392" lon="4.72453">
        <ele>171</ele>
        <time>2017-12-05T09:33:26Z</time>
      </trkpt>
      <trkpt lat="45.93925" lon="4.72447">
        <ele>171</ele>
        <time>2017-12-05T09:33:27Z</time>
      </trkpt>
      <trkpt lat="45.93929" lon="4.72442">
        <ele>171</ele>
        <time>2017-12-05T09:33:28Z</time>
      </trkpt>
      <trkpt lat="45.93934" lon="4.72437">
        <ele>171</ele>
        <time>2017-12-05T09:33:29Z</time>
      </trkpt>
      <trkpt lat="45.93938" lon="4.72432">
        <ele>171</ele>
        <time>2017-12-05T09:33:30Z</time>
      </trkpt>
      <trkpt lat="45.93943" lon="4.72428">
        <ele>171</ele>
        <time>2017-12-05T09:33:31Z</time>
      </trkpt>
      <trkpt lat="45.93947" lon="4.72423">
        <ele>171</ele>
        <time>2017-12-05T09:33:32Z</time>
      </trkpt>
      <trkpt lat="45.93952" lon="4.72418">
        <ele>171</ele>
        <time>2017-12-05T09:33:33Z</time>
      </trkpt>
      <trkpt lat="45.93957" lon="4.72413">
        <ele>171</ele>
        <time>2017-12-05T09:33:34Z</time>
      </trkpt>
      <trkpt lat="45.93961" lon="4.72408">
        <ele>171</ele>
        <time>2017-12-05T09:33:35Z</time>
      </trkpt>
      <trkpt lat="45.93965" lon="4.72403">
        <ele>171</ele>
        <time>2017-12-05T09:33:36Z</time>
      </trkpt>
      <trkpt lat="45.93969" lon="4.72398">
        <ele>171</ele>
        <time>2017-12-05T09:33:37Z</time>
      </trkpt>
      <trkpt lat="45.93974" lon="4.72393">
        <ele>171</ele>
        <time>2017-12-05T09:33:38Z</time>
      </trkpt>
      <trkpt lat="45.93978" lon="4.72388">
        <ele>171</ele>
        <time>2017-12-05T09:33:39Z</time>
      </trkpt>
      <trkpt lat="45.93982" lon="4.72383">
        <ele>171</ele>
        <time>2017-12-05T09:33:40Z</time>
      </trkpt>
      <trkpt lat="45.93987" lon="4.72379">
        <ele>171</ele>
        <time>2017-12-05T09:33:41Z</time>
      </trkpt>
      <trkpt lat="45.93992" lon="4.72373">
        <ele>171</ele>
        <time>2017-12-05T09:33:42Z</time>
      </trkpt>
      <trkpt lat="45.93996" lon="4.72367">
        <ele>171</ele>
        <time>2017-12-05T09:33:43Z</time>
      </trkpt>
      <trkpt lat="45.94002" lon="4.72362">
        <ele>171</ele>
        <time>2017-12-05T09:33:44Z</time>
      </trkpt>
      <trkpt lat="45.94006" lon="4.72356">
        <ele>171</ele>
        <time>2017-12-05T09:33:45Z</time>
      </trkpt>
      <trkpt lat="45.94011" lon="4.7235">
        <ele>171</ele>
        <time>2017-12-05T09:33:46Z</time>
      </trkpt>
      <trkpt lat="45.94016" lon="4.72344">
        <ele>171</ele>
        <time>2017-12-05T09:33:47Z</time>
      </trkpt>
      <trkpt lat="45.94021" lon="4.72337">
        <ele>171</ele>
        <time>2017-12-05T09:33:48Z</time>
      </trkpt>
      <trkpt lat="45.94026" lon="4.72332">
        <ele>171</ele>
        <time>2017-12-05T09:33:49Z</time>
      </trkpt>
      <trkpt lat="45.94031" lon="4.72326">
        <ele>171</ele>
        <time>2017-12-05T09:33:50Z</time>
      </trkpt>
      <trkpt lat="45.94035" lon="4.72319">
        <ele>171</ele>
        <time>2017-12-05T09:33:51Z</time>
      </trkpt>
      <trkpt lat="45.94039" lon="4.72315">
        <ele>171</ele>
        <time>2017-12-05T09:33:52Z</time>
      </trkpt>
      <trkpt lat="45.94043" lon="4.72309">
        <ele>171</ele>
        <time>2017-12-05T09:33:53Z</time>
      </trkpt>
      <trkpt lat="45.94047" lon="4.72305">
        <ele>171</ele>
        <time>2017-12-05T09:33:54Z</time>
      </trkpt>
      <trkpt lat="45.94051" lon="4.723">
        <ele>171</ele>
        <time>2017-12-05T09:33:55Z</time>
      </trkpt>
      <trkpt lat="45.94055" lon="4.72295">
        <ele>171</ele>
        <time>2017-12-05T09:33:56Z</time>
      </trkpt>
      <trkpt lat="45.94059" lon="4.72289">
        <ele>171</ele>
        <time>2017-12-05T09:33:57Z</time>
      </trkpt>
      <trkpt lat="45.94063" lon="4.72284">
        <ele>171</ele>
        <time>2017-12-05T09:33:58Z</time>
      </trkpt>
      <trkpt lat="45.94067" lon="4.7228">
        <ele>171</ele>
        <time>2017-12-05T09:33:59Z</time>
      </trkpt>
      <trkpt lat="45.94072" lon="4.72276">
        <ele>171</ele>
        <time>2017-12-05T09:34:00Z</time>
      </trkpt>
      <trkpt lat="45.94076" lon="4.72273">
        <ele>171</ele>
        <time>2017-12-05T09:34:01Z</time>
      </trkpt>
      <trkpt lat="45.94084" lon="4.72269">
        <ele>171</ele>
        <time>2017-12-05T09:34:03Z</time>
      </trkpt>
      <trkpt lat="45.94089" lon="4.72268">
        <ele>171</ele>
        <time>2017-12-05T09:34:04Z</time>
      </trkpt>
      <trkpt lat="45.94098" lon="4.72269">
        <ele>171</ele>
        <time>2017-12-05T09:34:06Z</time>
      </trkpt>
      <trkpt lat="45.94103" lon="4.72271">
        <ele>171</ele>
        <time>2017-12-05T09:34:07Z</time>
      </trkpt>
      <trkpt lat="45.94107" lon="4.72273">
        <ele>171</ele>
        <time>2017-12-05T09:34:08Z</time>
      </trkpt>
      <trkpt lat="45.94113" lon="4.72276">
        <ele>171</ele>
        <time>2017-12-05T09:34:09Z</time>
      </trkpt>
      <trkpt lat="45.94118" lon="4.72277">
        <ele>171</ele>
        <time>2017-12-05T09:34:10Z</time>
      </trkpt>
      <trkpt lat="45.94123" lon="4.7228">
        <ele>171</ele>
        <time>2017-12-05T09:34:11Z</time>
      </trkpt>
      <trkpt lat="45.94128" lon="4.72282">
        <ele>171</ele>
        <time>2017-12-05T09:34:12Z</time>
      </trkpt>
      <trkpt lat="45.94132" lon="4.72286">
        <ele>171</ele>
        <time>2017-12-05T09:34:13Z</time>
      </trkpt>
      <trkpt lat="45.94136" lon="4.72288">
        <ele>171</ele>
        <time>2017-12-05T09:34:14Z</time>
      </trkpt>
      <trkpt lat="45.94141" lon="4.7229">
        <ele>171</ele>
        <time>2017-12-05T09:34:15Z</time>
      </trkpt>
      <trkpt lat="45.94145" lon="4.72291">
        <ele>171</ele>
        <time>2017-12-05T09:34:16Z</time>
      </trkpt>
      <trkpt lat="45.9415" lon="4.72293">
        <ele>171</ele>
        <time>2017-12-05T09:34:17Z</time>
      </trkpt>
      <trkpt lat="45.94155" lon="4.72295">
        <ele>171</ele>
        <time>2017-12-05T09:34:18Z</time>
      </trkpt>
      <trkpt lat="45.94161" lon="4.72296">
        <ele>171</ele>
        <time>2017-12-05T09:34:19Z</time>
      </trkpt>
      <trkpt lat="45.94165" lon="4.72296">
        <ele>171</ele>
        <time>2017-12-05T09:34:20Z</time>
      </trkpt>
      <trkpt lat="45.9417" lon="4.72298">
        <ele>171</ele>
        <time>2017-12-05T09:34:21Z</time>
      </trkpt>
      <trkpt lat="45.94175" lon="4.72298">
        <ele>171</ele>
        <time>2017-12-05T09:34:22Z</time>
      </trkpt>
      <trkpt lat="45.9418" lon="4.72297">
        <ele>171</ele>
        <time>2017-12-05T09:34:23Z</time>
      </trkpt>
      <trkpt lat="45.94185" lon="4.72298">
        <ele>171</ele>
        <time>2017-12-05T09:34:24Z</time>
      </trkpt>
      <trkpt lat="45.9419" lon="4.72297">
        <ele>171</ele>
        <time>2017-12-05T09:34:25Z</time>
      </trkpt>
      <trkpt lat="45.94196" lon="4.72297">
        <ele>171</ele>
        <time>2017-12-05T09:34:26Z</time>
      </trkpt>
      <trkpt lat="45.94201" lon="4.72297">
        <ele>171</ele>
        <time>2017-12-05T09:34:27Z</time>
      </trkpt>
      <trkpt lat="45.94206" lon="4.72297">
        <ele>171</ele>
        <time>2017-12-05T09:34:28Z</time>
      </trkpt>
      <trkpt lat="45.94211" lon="4.72297">
        <ele>171</ele>
        <time>2017-12-05T09:34:29Z</time>
      </trkpt>
      <trkpt lat="45.94215" lon="4.72296">
        <ele>171</ele>
        <time>2017-12-05T09:34:30Z</time>
      </trkpt>
      <trkpt lat="45.9422" lon="4.72295">
        <ele>171</ele>
        <time>2017-12-05T09:34:31Z</time>
      </trkpt>
      <trkpt lat="45.94228" lon="4.72291">
        <ele>171</ele>
        <time>2017-12-05T09:34:33Z</time>
      </trkpt>
      <trkpt lat="45.94232" lon="4.7229">
        <ele>171</ele>
        <time>2017-12-05T09:34:34Z</time>
      </trkpt>
      <trkpt lat="45.94239" lon="4.72292">
        <ele>171</ele>
        <time>2017-12-05T09:34:35Z</time>
      </trkpt>
      <trkpt lat="45.94242" lon="4.72289">
        <ele>171</ele>
        <time>2017-12-05T09:34:36Z</time>
      </trkpt>
      <trkpt lat="45.94249" lon="4.72286">
        <ele>171</ele>
        <time>2017-12-05T09:34:38Z</time>
      </trkpt>
      <trkpt lat="45.94252" lon="4.72284">
        <ele>171</ele>
        <time>2017-12-05T09:34:39Z</time>
      </trkpt>
      <trkpt lat="45.9426" lon="4.7228">
        <ele>171</ele>
        <time>2017-12-05T09:34:41Z</time>
      </trkpt>
      <trkpt lat="45.94264" lon="4.72281">
        <ele>171</ele>
        <time>2017-12-05T09:34:42Z</time>
      </trkpt>
      <trkpt lat="45.94271" lon="4.72284">
        <ele>171</ele>
        <time>2017-12-05T09:34:44Z</time>
      </trkpt>
      <trkpt lat="45.94274" lon="4.7229">
        <ele>171</ele>
        <time>2017-12-05T09:34:45Z</time>
      </trkpt>
      <trkpt lat="45.94278" lon="4.72294">
        <ele>171</ele>
        <time>2017-12-05T09:34:46Z</time>
      </trkpt>
      <trkpt lat="45.94281" lon="4.723">
        <ele>171</ele>
        <time>2017-12-05T09:34:47Z</time>
      </trkpt>
      <trkpt lat="45.94284" lon="4.72305">
        <ele>171</ele>
        <time>2017-12-05T09:34:48Z</time>
      </trkpt>
      <trkpt lat="45.94287" lon="4.72311">
        <ele>171</ele>
        <time>2017-12-05T09:34:49Z</time>
      </trkpt>
      <trkpt lat="45.94289" lon="4.72317">
        <ele>171</ele>
        <time>2017-12-05T09:34:50Z</time>
      </trkpt>
      <trkpt lat="45.94293" lon="4.72322">
        <ele>171</ele>
        <time>2017-12-05T09:34:51Z</time>
      </trkpt>
      <trkpt lat="45.94297" lon="4.72328">
        <ele>171</ele>
        <time>2017-12-05T09:34:52Z</time>
      </trkpt>
      <trkpt lat="45.943" lon="4.72335">
        <ele>172</ele>
        <time>2017-12-05T09:34:53Z</time>
      </trkpt>
      <trkpt lat="45.94304" lon="4.72341">
        <ele>172</ele>
        <time>2017-12-05T09:34:54Z</time>
      </trkpt>
      <trkpt lat="45.94307" lon="4.72348">
        <ele>172</ele>
        <time>2017-12-05T09:34:55Z</time>
      </trkpt>
      <trkpt lat="45.9431" lon="4.72354">
        <ele>172</ele>
        <time>2017-12-05T09:34:56Z</time>
      </trkpt>
      <trkpt lat="45.94314" lon="4.72359">
        <ele>172</ele>
        <time>2017-12-05T09:34:57Z</time>
      </trkpt>
      <trkpt lat="45.94317" lon="4.72365">
        <ele>172</ele>
        <time>2017-12-05T09:34:58Z</time>
      </trkpt>
      <trkpt lat="45.94319" lon="4.72371">
        <ele>172</ele>
        <time>2017-12-05T09:34:59Z</time>
      </trkpt>
      <trkpt lat="45.94321" lon="4.72377">
        <ele>172</ele>
        <time>2017-12-05T09:35:00Z</time>
      </trkpt>
      <trkpt lat="45.94326" lon="4.72385">
        <ele>172</ele>
        <time>2017-12-05T09:35:01Z</time>
      </trkpt>
      <trkpt lat="45.94329" lon="4.72392">
        <ele>172</ele>
        <time>2017-12-05T09:35:02Z</time>
      </trkpt>
      <trkpt lat="45.94332" lon="4.72398">
        <ele>172</ele>
        <time>2017-12-05T09:35:03Z</time>
      </trkpt>
      <trkpt lat="45.94335" lon="4.72404">
        <ele>173</ele>
        <time>2017-12-05T09:35:04Z</time>
      </trkpt>
      <trkpt lat="45.94339" lon="4.7241">
        <ele>173</ele>
        <time>2017-12-05T09:35:05Z</time>
      </trkpt>
      <trkpt lat="45.94342" lon="4.72417">
        <ele>173</ele>
        <time>2017-12-05T09:35:06Z</time>
      </trkpt>
      <trkpt lat="45.94344" lon="4.72423">
        <ele>173</ele>
        <time>2017-12-05T09:35:07Z</time>
      </trkpt>
      <trkpt lat="45.94348" lon="4.7243">
        <ele>173</ele>
        <time>2017-12-05T09:35:08Z</time>
      </trkpt>
      <trkpt lat="45.94351" lon="4.72437">
        <ele>173</ele>
        <time>2017-12-05T09:35:09Z</time>
      </trkpt>
      <trkpt lat="45.94354" lon="4.72444">
        <ele>173</ele>
        <time>2017-12-05T09:35:10Z</time>
      </trkpt>
      <trkpt lat="45.94358" lon="4.7245">
        <ele>173</ele>
        <time>2017-12-05T09:35:11Z</time>
      </trkpt>
      <trkpt lat="45.94359" lon="4.72456">
        <ele>173</ele>
        <time>2017-12-05T09:35:12Z</time>
      </trkpt>
      <trkpt lat="45.94361" lon="4.72461">
        <ele>173</ele>
        <time>2017-12-05T09:35:13Z</time>
      </trkpt>
      <trkpt lat="45.94364" lon="4.72468">
        <ele>173</ele>
        <time>2017-12-05T09:35:14Z</time>
      </trkpt>
      <trkpt lat="45.94369" lon="4.72475">
        <ele>173</ele>
        <time>2017-12-05T09:35:15Z</time>
      </trkpt>
      <trkpt lat="45.94371" lon="4.72481">
        <ele>173</ele>
        <time>2017-12-05T09:35:16Z</time>
      </trkpt>
      <trkpt lat="45.94374" lon="4.72489">
        <ele>173</ele>
        <time>2017-12-05T09:35:17Z</time>
      </trkpt>
      <trkpt lat="45.94377" lon="4.72496">
        <ele>173</ele>
        <time>2017-12-05T09:35:18Z</time>
      </trkpt>
      <trkpt lat="45.94379" lon="4.72504">
        <ele>174</ele>
        <time>2017-12-05T09:35:19Z</time>
      </trkpt>
      <trkpt lat="45.94381" lon="4.72512">
        <ele>174</ele>
        <time>2017-12-05T09:35:20Z</time>
      </trkpt>
      <trkpt lat="45.94384" lon="4.7252">
        <ele>174</ele>
        <time>2017-12-05T09:35:21Z</time>
      </trkpt>
      <trkpt lat="45.94385" lon="4.72527">
        <ele>174</ele>
        <time>2017-12-05T09:35:22Z</time>
      </trkpt>
      <trkpt lat="45.94388" lon="4.72535">
        <ele>174</ele>
        <time>2017-12-05T09:35:23Z</time>
      </trkpt>
      <trkpt lat="45.94389" lon="4.72542">
        <ele>173</ele>
        <time>2017-12-05T09:35:24Z</time>
      </trkpt>
      <trkpt lat="45.9439" lon="4.72549">
        <ele>173</ele>
        <time>2017-12-05T09:35:25Z</time>
      </trkpt>
      <trkpt lat="45.94392" lon="4.72555">
        <ele>173</ele>
        <time>2017-12-05T09:35:26Z</time>
      </trkpt>
      <trkpt lat="45.94393" lon="4.72562">
        <ele>173</ele>
        <time>2017-12-05T09:35:27Z</time>
      </trkpt>
      <trkpt lat="45.94394" lon="4.72569">
        <ele>173</ele>
        <time>2017-12-05T09:35:28Z</time>
      </trkpt>
      <trkpt lat="45.94397" lon="4.72576">
        <ele>173</ele>
        <time>2017-12-05T09:35:29Z</time>
      </trkpt>
      <trkpt lat="45.94398" lon="4.72583">
        <ele>173</ele>
        <time>2017-12-05T09:35:30Z</time>
      </trkpt>
      <trkpt lat="45.94399" lon="4.72591">
        <ele>173</ele>
        <time>2017-12-05T09:35:31Z</time>
      </trkpt>
      <trkpt lat="45.94401" lon="4.72599">
        <ele>173</ele>
        <time>2017-12-05T09:35:32Z</time>
      </trkpt>
      <trkpt lat="45.94401" lon="4.72606">
        <ele>173</ele>
        <time>2017-12-05T09:35:33Z</time>
      </trkpt>
      <trkpt lat="45.94399" lon="4.72614">
        <ele>173</ele>
        <time>2017-12-05T09:35:34Z</time>
      </trkpt>
      <trkpt lat="45.944" lon="4.72622">
        <ele>173</ele>
        <time>2017-12-05T09:35:35Z</time>
      </trkpt>
      <trkpt lat="45.94401" lon="4.72631">
        <ele>174</ele>
        <time>2017-12-05T09:35:36Z</time>
      </trkpt>
      <trkpt lat="45.94401" lon="4.72639">
        <ele>174</ele>
        <time>2017-12-05T09:35:37Z</time>
      </trkpt>
      <trkpt lat="45.94403" lon="4.72647">
        <ele>174</ele>
        <time>2017-12-05T09:35:38Z</time>
      </trkpt>
      <trkpt lat="45.94404" lon="4.72655">
        <ele>174</ele>
        <time>2017-12-05T09:35:39Z</time>
      </trkpt>
      <trkpt lat="45.94405" lon="4.72662">
        <ele>174</ele>
        <time>2017-12-05T09:35:40Z</time>
      </trkpt>
      <trkpt lat="45.94405" lon="4.72671">
        <ele>173</ele>
        <time>2017-12-05T09:35:41Z</time>
      </trkpt>
      <trkpt lat="45.94406" lon="4.72678">
        <ele>173</ele>
        <time>2017-12-05T09:35:42Z</time>
      </trkpt>
      <trkpt lat="45.94408" lon="4.72686">
        <ele>173</ele>
        <time>2017-12-05T09:35:43Z</time>
      </trkpt>
      <trkpt lat="45.94409" lon="4.72698">
        <ele>172</ele>
        <time>2017-12-05T09:35:45Z</time>
      </trkpt>
      <trkpt lat="45.94411" lon="4.72704">
        <ele>172</ele>
        <time>2017-12-05T09:35:46Z</time>
      </trkpt>
      <trkpt lat="45.94413" lon="4.72712">
        <ele>172</ele>
        <time>2017-12-05T09:35:47Z</time>
      </trkpt>
      <trkpt lat="45.94415" lon="4.7272">
        <ele>172</ele>
        <time>2017-12-05T09:35:48Z</time>
      </trkpt>
      <trkpt lat="45.94416" lon="4.72727">
        <ele>172</ele>
        <time>2017-12-05T09:35:49Z</time>
      </trkpt>
      <trkpt lat="45.94417" lon="4.72734">
        <ele>171</ele>
        <time>2017-12-05T09:35:50Z</time>
      </trkpt>
      <trkpt lat="45.94416" lon="4.72741">
        <ele>171</ele>
        <time>2017-12-05T09:35:51Z</time>
      </trkpt>
      <trkpt lat="45.94417" lon="4.72748">
        <ele>171</ele>
        <time>2017-12-05T09:35:52Z</time>
      </trkpt>
      <trkpt lat="45.94417" lon="4.72754">
        <ele>170</ele>
        <time>2017-12-05T09:35:53Z</time>
      </trkpt>
      <trkpt lat="45.94419" lon="4.72761">
        <ele>170</ele>
        <time>2017-12-05T09:35:54Z</time>
      </trkpt>
      <trkpt lat="45.94421" lon="4.72767">
        <ele>169</ele>
        <time>2017-12-05T09:35:55Z</time>
      </trkpt>
      <trkpt lat="45.94421" lon="4.72774">
        <ele>169</ele>
        <time>2017-12-05T09:35:56Z</time>
      </trkpt>
      <trkpt lat="45.94422" lon="4.72781">
        <ele>168</ele>
        <time>2017-12-05T09:35:57Z</time>
      </trkpt>
      <trkpt lat="45.94424" lon="4.72788">
        <ele>168</ele>
        <time>2017-12-05T09:35:58Z</time>
      </trkpt>
      <trkpt lat="45.94425" lon="4.728">
        <ele>167</ele>
        <time>2017-12-05T09:36:00Z</time>
      </trkpt>
      <trkpt lat="45.94425" lon="4.72807">
        <ele>167</ele>
        <time>2017-12-05T09:36:01Z</time>
      </trkpt>
      <trkpt lat="45.94426" lon="4.72814">
        <ele>167</ele>
        <time>2017-12-05T09:36:02Z</time>
      </trkpt>
      <trkpt lat="45.94426" lon="4.72821">
        <ele>167</ele>
        <time>2017-12-05T09:36:03Z</time>
      </trkpt>
      <trkpt lat="45.94427" lon="4.72834">
        <ele>166</ele>
        <time>2017-12-05T09:36:05Z</time>
      </trkpt>
      <trkpt lat="45.94428" lon="4.7284">
        <ele>166</ele>
        <time>2017-12-05T09:36:06Z</time>
      </trkpt>
      <trkpt lat="45.94427" lon="4.72847">
        <ele>166</ele>
        <time>2017-12-05T09:36:07Z</time>
      </trkpt>
      <trkpt lat="45.94428" lon="4.72853">
        <ele>166</ele>
        <time>2017-12-05T09:36:08Z</time>
      </trkpt>
      <trkpt lat="45.9443" lon="4.72859">
        <ele>166</ele>
        <time>2017-12-05T09:36:09Z</time>
      </trkpt>
      <trkpt lat="45.94431" lon="4.72866">
        <ele>166</ele>
        <time>2017-12-05T09:36:10Z</time>
      </trkpt>
      <trkpt lat="45.94433" lon="4.72878">
        <ele>166</ele>
        <time>2017-12-05T09:36:12Z</time>
      </trkpt>
      <trkpt lat="45.94433" lon="4.72884">
        <ele>166</ele>
        <time>2017-12-05T09:36:13Z</time>
      </trkpt>
      <trkpt lat="45.94434" lon="4.72891">
        <ele>166</ele>
        <time>2017-12-05T09:36:14Z</time>
      </trkpt>
      <trkpt lat="45.94435" lon="4.72897">
        <ele>166</ele>
        <time>2017-12-05T09:36:15Z</time>
      </trkpt>
      <trkpt lat="45.94436" lon="4.72903">
        <ele>166</ele>
        <time>2017-12-05T09:36:16Z</time>
      </trkpt>
      <trkpt lat="45.94437" lon="4.7291">
        <ele>166</ele>
        <time>2017-12-05T09:36:17Z</time>
      </trkpt>
      <trkpt lat="45.94439" lon="4.72922">
        <ele>167</ele>
        <time>2017-12-05T09:36:19Z</time>
      </trkpt>
      <trkpt lat="45.94439" lon="4.72928">
        <ele>167</ele>
        <time>2017-12-05T09:36:20Z</time>
      </trkpt>
      <trkpt lat="45.94441" lon="4.72935">
        <ele>167</ele>
        <time>2017-12-05T09:36:21Z</time>
      </trkpt>
      <trkpt lat="45.94442" lon="4.72942">
        <ele>167</ele>
        <time>2017-12-05T09:36:22Z</time>
      </trkpt>
      <trkpt lat="45.94443" lon="4.72949">
        <ele>167</ele>
        <time>2017-12-05T09:36:23Z</time>
      </trkpt>
      <trkpt lat="45.94444" lon="4.72956">
        <ele>167</ele>
        <time>2017-12-05T09:36:24Z</time>
      </trkpt>
      <trkpt lat="45.94444" lon="4.72964">
        <ele>167</ele>
        <time>2017-12-05T09:36:25Z</time>
      </trkpt>
      <trkpt lat="45.94445" lon="4.72972">
        <ele>167</ele>
        <time>2017-12-05T09:36:26Z</time>
      </trkpt>
      <trkpt lat="45.94446" lon="4.7298">
        <ele>167</ele>
        <time>2017-12-05T09:36:27Z</time>
      </trkpt>
      <trkpt lat="45.94447" lon="4.72989">
        <ele>167</ele>
        <time>2017-12-05T09:36:28Z</time>
      </trkpt>
      <trkpt lat="45.94449" lon="4.72998">
        <ele>167</ele>
        <time>2017-12-05T09:36:29Z</time>
      </trkpt>
      <trkpt lat="45.9445" lon="4.73007">
        <ele>169</ele>
        <time>2017-12-05T09:36:30Z</time>
      </trkpt>
      <trkpt lat="45.94452" lon="4.73015">
        <ele>169</ele>
        <time>2017-12-05T09:36:31Z</time>
      </trkpt>
      <trkpt lat="45.94453" lon="4.73023">
        <ele>169</ele>
        <time>2017-12-05T09:36:32Z</time>
      </trkpt>
      <trkpt lat="45.94454" lon="4.73033">
        <ele>169</ele>
        <time>2017-12-05T09:36:33Z</time>
      </trkpt>
      <trkpt lat="45.94455" lon="4.73042">
        <ele>169</ele>
        <time>2017-12-05T09:36:34Z</time>
      </trkpt>
      <trkpt lat="45.94456" lon="4.73052">
        <ele>170</ele>
        <time>2017-12-05T09:36:35Z</time>
      </trkpt>
      <trkpt lat="45.94457" lon="4.73061">
        <ele>170</ele>
        <time>2017-12-05T09:36:36Z</time>
      </trkpt>
      <trkpt lat="45.94458" lon="4.7307">
        <ele>170</ele>
        <time>2017-12-05T09:36:37Z</time>
      </trkpt>
      <trkpt lat="45.94459" lon="4.73079">
        <ele>170</ele>
        <time>2017-12-05T09:36:38Z</time>
      </trkpt>
      <trkpt lat="45.9446" lon="4.73088">
        <ele>171</ele>
        <time>2017-12-05T09:36:39Z</time>
      </trkpt>
      <trkpt lat="45.94461" lon="4.73098">
        <ele>171</ele>
        <time>2017-12-05T09:36:40Z</time>
      </trkpt>
      <trkpt lat="45.94462" lon="4.73106">
        <ele>172</ele>
        <time>2017-12-05T09:36:41Z</time>
      </trkpt>
      <trkpt lat="45.94463" lon="4.73114">
        <ele>172</ele>
        <time>2017-12-05T09:36:42Z</time>
      </trkpt>
      <trkpt lat="45.94464" lon="4.73122">
        <ele>172</ele>
        <time>2017-12-05T09:36:43Z</time>
      </trkpt>
      <trkpt lat="45.94465" lon="4.73129">
        <ele>172</ele>
        <time>2017-12-05T09:36:44Z</time>
      </trkpt>
      <trkpt lat="45.94466" lon="4.73137">
        <ele>172</ele>
        <time>2017-12-05T09:36:45Z</time>
      </trkpt>
      <trkpt lat="45.94468" lon="4.73145">
        <ele>172</ele>
        <time>2017-12-05T09:36:46Z</time>
      </trkpt>
      <trkpt lat="45.94469" lon="4.73151">
        <ele>172</ele>
        <time>2017-12-05T09:36:47Z</time>
      </trkpt>
      <trkpt lat="45.9447" lon="4.73158">
        <ele>172</ele>
        <time>2017-12-05T09:36:48Z</time>
      </trkpt>
      <trkpt lat="45.9447" lon="4.73165">
        <ele>172</ele>
        <time>2017-12-05T09:36:49Z</time>
      </trkpt>
      <trkpt lat="45.94471" lon="4.73172">
        <ele>174</ele>
        <time>2017-12-05T09:36:50Z</time>
      </trkpt>
      <trkpt lat="45.94472" lon="4.73179">
        <ele>174</ele>
        <time>2017-12-05T09:36:51Z</time>
      </trkpt>
      <trkpt lat="45.94473" lon="4.73186">
        <ele>174</ele>
        <time>2017-12-05T09:36:52Z</time>
      </trkpt>
      <trkpt lat="45.94473" lon="4.73194">
        <ele>174</ele>
        <time>2017-12-05T09:36:53Z</time>
      </trkpt>
      <trkpt lat="45.94475" lon="4.73202">
        <ele>174</ele>
        <time>2017-12-05T09:36:54Z</time>
      </trkpt>
      <trkpt lat="45.94476" lon="4.73209">
        <ele>175</ele>
        <time>2017-12-05T09:36:55Z</time>
      </trkpt>
      <trkpt lat="45.94477" lon="4.73216">
        <ele>175</ele>
        <time>2017-12-05T09:36:56Z</time>
      </trkpt>
      <trkpt lat="45.94478" lon="4.73224">
        <ele>175</ele>
        <time>2017-12-05T09:36:57Z</time>
      </trkpt>
      <trkpt lat="45.94479" lon="4.73231">
        <ele>175</ele>
        <time>2017-12-05T09:36:58Z</time>
      </trkpt>
      <trkpt lat="45.9448" lon="4.73243">
        <ele>175</ele>
        <time>2017-12-05T09:37:00Z</time>
      </trkpt>
      <trkpt lat="45.94481" lon="4.73248">
        <ele>175</ele>
        <time>2017-12-05T09:37:01Z</time>
      </trkpt>
      <trkpt lat="45.94483" lon="4.7326">
        <ele>176</ele>
        <time>2017-12-05T09:37:03Z</time>
      </trkpt>
      <trkpt lat="45.94484" lon="4.73265">
        <ele>177</ele>
        <time>2017-12-05T09:37:04Z</time>
      </trkpt>
      <trkpt lat="45.94485" lon="4.73272">
        <ele>177</ele>
        <time>2017-12-05T09:37:05Z</time>
      </trkpt>
      <trkpt lat="45.94486" lon="4.73278">
        <ele>177</ele>
        <time>2017-12-05T09:37:06Z</time>
      </trkpt>
      <trkpt lat="45.94489" lon="4.73289">
        <ele>177</ele>
        <time>2017-12-05T09:37:08Z</time>
      </trkpt>
      <trkpt lat="45.9449" lon="4.73295">
        <ele>177</ele>
        <time>2017-12-05T09:37:09Z</time>
      </trkpt>
      <trkpt lat="45.94492" lon="4.73306">
        <ele>177</ele>
        <time>2017-12-05T09:37:11Z</time>
      </trkpt>
      <trkpt lat="45.94493" lon="4.73312">
        <ele>177</ele>
        <time>2017-12-05T09:37:12Z</time>
      </trkpt>
      <trkpt lat="45.94494" lon="4.73323">
        <ele>177</ele>
        <time>2017-12-05T09:37:14Z</time>
      </trkpt>
      <trkpt lat="45.94494" lon="4.73329">
        <ele>177</ele>
        <time>2017-12-05T09:37:15Z</time>
      </trkpt>
      <trkpt lat="45.94495" lon="4.7334">
        <ele>178</ele>
        <time>2017-12-05T09:37:17Z</time>
      </trkpt>
      <trkpt lat="45.94495" lon="4.73346">
        <ele>178</ele>
        <time>2017-12-05T09:37:18Z</time>
      </trkpt>
      <trkpt lat="45.94495" lon="4.73358">
        <ele>178</ele>
        <time>2017-12-05T09:37:20Z</time>
      </trkpt>
      <trkpt lat="45.94496" lon="4.73364">
        <ele>179</ele>
        <time>2017-12-05T09:37:21Z</time>
      </trkpt>
      <trkpt lat="45.94497" lon="4.73376">
        <ele>179</ele>
        <time>2017-12-05T09:37:23Z</time>
      </trkpt>
      <trkpt lat="45.94498" lon="4.73382">
        <ele>179</ele>
        <time>2017-12-05T09:37:24Z</time>
      </trkpt>
      <trkpt lat="45.94499" lon="4.73394">
        <ele>179</ele>
        <time>2017-12-05T09:37:26Z</time>
      </trkpt>
      <trkpt lat="45.94499" lon="4.73399">
        <ele>180</ele>
        <time>2017-12-05T09:37:27Z</time>
      </trkpt>
      <trkpt lat="45.945" lon="4.73411">
        <ele>180</ele>
        <time>2017-12-05T09:37:29Z</time>
      </trkpt>
      <trkpt lat="45.945" lon="4.73417">
        <ele>180</ele>
        <time>2017-12-05T09:37:30Z</time>
      </trkpt>
      <trkpt lat="45.94501" lon="4.73429">
        <ele>180</ele>
        <time>2017-12-05T09:37:32Z</time>
      </trkpt>
      <trkpt lat="45.945" lon="4.73435">
        <ele>181</ele>
        <time>2017-12-05T09:37:33Z</time>
      </trkpt>
      <trkpt lat="45.945" lon="4.73447">
        <ele>181</ele>
        <time>2017-12-05T09:37:35Z</time>
      </trkpt>
      <trkpt lat="45.945" lon="4.73453">
        <ele>181</ele>
        <time>2017-12-05T09:37:36Z</time>
      </trkpt>
      <trkpt lat="45.94502" lon="4.73465">
        <ele>181</ele>
        <time>2017-12-05T09:37:38Z</time>
      </trkpt>
      <trkpt lat="45.94502" lon="4.7347">
        <ele>182</ele>
        <time>2017-12-05T09:37:39Z</time>
      </trkpt>
      <trkpt lat="45.94501" lon="4.7348">
        <ele>182</ele>
        <time>2017-12-05T09:37:41Z</time>
      </trkpt>
      <trkpt lat="45.94501" lon="4.73486">
        <ele>182</ele>
        <time>2017-12-05T09:37:42Z</time>
      </trkpt>
      <trkpt lat="45.94501" lon="4.73497">
        <ele>183</ele>
        <time>2017-12-05T09:37:44Z</time>
      </trkpt>
      <trkpt lat="45.94501" lon="4.73502">
        <ele>183</ele>
        <time>2017-12-05T09:37:45Z</time>
      </trkpt>
      <trkpt lat="45.945" lon="4.73512">
        <ele>183</ele>
        <time>2017-12-05T09:37:47Z</time>
      </trkpt>
      <trkpt lat="45.945" lon="4.73517">
        <ele>184</ele>
        <time>2017-12-05T09:37:48Z</time>
      </trkpt>
      <trkpt lat="45.945" lon="4.73527">
        <ele>184</ele>
        <time>2017-12-05T09:37:50Z</time>
      </trkpt>
      <trkpt lat="45.945" lon="4.73532">
        <ele>184</ele>
        <time>2017-12-05T09:37:51Z</time>
      </trkpt>
      <trkpt lat="45.94499" lon="4.73542">
        <ele>184</ele>
        <time>2017-12-05T09:37:53Z</time>
      </trkpt>
      <trkpt lat="45.94499" lon="4.73547">
        <ele>185</ele>
        <time>2017-12-05T09:37:54Z</time>
      </trkpt>
      <trkpt lat="45.94498" lon="4.73558">
        <ele>185</ele>
        <time>2017-12-05T09:37:56Z</time>
      </trkpt>
      <trkpt lat="45.94498" lon="4.73565">
        <ele>185</ele>
        <time>2017-12-05T09:37:57Z</time>
      </trkpt>
      <trkpt lat="45.94499" lon="4.73576">
        <ele>185</ele>
        <time>2017-12-05T09:37:59Z</time>
      </trkpt>
      <trkpt lat="45.945" lon="4.73581">
        <ele>185</ele>
        <time>2017-12-05T09:38:00Z</time>
      </trkpt>
      <trkpt lat="45.94501" lon="4.73592">
        <ele>185</ele>
        <time>2017-12-05T09:38:02Z</time>
      </trkpt>
      <trkpt lat="45.94501" lon="4.73598">
        <ele>184</ele>
        <time>2017-12-05T09:38:03Z</time>
      </trkpt>
      <trkpt lat="45.94499" lon="4.73609">
        <ele>186</ele>
        <time>2017-12-05T09:38:05Z</time>
      </trkpt>
      <trkpt lat="45.94498" lon="4.73614">
        <ele>186</ele>
        <time>2017-12-05T09:38:06Z</time>
      </trkpt>
      <trkpt lat="45.94496" lon="4.73626">
        <ele>186</ele>
        <time>2017-12-05T09:38:08Z</time>
      </trkpt>
      <trkpt lat="45.94496" lon="4.73632">
        <ele>186</ele>
        <time>2017-12-05T09:38:09Z</time>
      </trkpt>
      <trkpt lat="45.94493" lon="4.73643">
        <ele>186</ele>
        <time>2017-12-05T09:38:11Z</time>
      </trkpt>
      <trkpt lat="45.94492" lon="4.73648">
        <ele>186</ele>
        <time>2017-12-05T09:38:12Z</time>
      </trkpt>
      <trkpt lat="45.94489" lon="4.7366">
        <ele>185</ele>
        <time>2017-12-05T09:38:14Z</time>
      </trkpt>
      <trkpt lat="45.94489" lon="4.73665">
        <ele>185</ele>
        <time>2017-12-05T09:38:15Z</time>
      </trkpt>
      <trkpt lat="45.94487" lon="4.73676">
        <ele>186</ele>
        <time>2017-12-05T09:38:17Z</time>
      </trkpt>
      <trkpt lat="45.94487" lon="4.73682">
        <ele>186</ele>
        <time>2017-12-05T09:38:18Z</time>
      </trkpt>
      <trkpt lat="45.94485" lon="4.73694">
        <ele>186</ele>
        <time>2017-12-05T09:38:20Z</time>
      </trkpt>
      <trkpt lat="45.94484" lon="4.737">
        <ele>186</ele>
        <time>2017-12-05T09:38:21Z</time>
      </trkpt>
      <trkpt lat="45.94484" lon="4.73706">
        <ele>186</ele>
        <time>2017-12-05T09:38:22Z</time>
      </trkpt>
      <trkpt lat="45.94484" lon="4.73712">
        <ele>186</ele>
        <time>2017-12-05T09:38:23Z</time>
      </trkpt>
      <trkpt lat="45.94482" lon="4.73725">
        <ele>186</ele>
        <time>2017-12-05T09:38:25Z</time>
      </trkpt>
      <trkpt lat="45.94481" lon="4.73731">
        <ele>186</ele>
        <time>2017-12-05T09:38:26Z</time>
      </trkpt>
      <trkpt lat="45.94479" lon="4.73743">
        <ele>186</ele>
        <time>2017-12-05T09:38:28Z</time>
      </trkpt>
      <trkpt lat="45.94479" lon="4.73748">
        <ele>186</ele>
        <time>2017-12-05T09:38:29Z</time>
      </trkpt>
      <trkpt lat="45.94476" lon="4.7376">
        <ele>186</ele>
        <time>2017-12-05T09:38:31Z</time>
      </trkpt>
      <trkpt lat="45.94476" lon="4.73766">
        <ele>186</ele>
        <time>2017-12-05T09:38:32Z</time>
      </trkpt>
      <trkpt lat="45.9448" lon="4.73776">
        <ele>186</ele>
        <time>2017-12-05T09:38:34Z</time>
      </trkpt>
      <trkpt lat="45.94484" lon="4.73779">
        <ele>186</ele>
        <time>2017-12-05T09:38:35Z</time>
      </trkpt>
      <trkpt lat="45.94491" lon="4.73785">
        <ele>186</ele>
        <time>2017-12-05T09:38:37Z</time>
      </trkpt>
      <trkpt lat="45.94495" lon="4.73789">
        <ele>186</ele>
        <time>2017-12-05T09:38:38Z</time>
      </trkpt>
      <trkpt lat="45.94499" lon="4.73793">
        <ele>185</ele>
        <time>2017-12-05T09:38:39Z</time>
      </trkpt>
      <trkpt lat="45.94502" lon="4.73796">
        <ele>186</ele>
        <time>2017-12-05T09:38:40Z</time>
      </trkpt>
      <trkpt lat="45.9451" lon="4.73803">
        <ele>186</ele>
        <time>2017-12-05T09:38:42Z</time>
      </trkpt>
      <trkpt lat="45.94513" lon="4.73807">
        <ele>186</ele>
        <time>2017-12-05T09:38:43Z</time>
      </trkpt>
      <trkpt lat="45.9452" lon="4.73814">
        <ele>186</ele>
        <time>2017-12-05T09:38:45Z</time>
      </trkpt>
      <trkpt lat="45.94524" lon="4.73818">
        <ele>186</ele>
        <time>2017-12-05T09:38:46Z</time>
      </trkpt>
      <trkpt lat="45.9453" lon="4.73824">
        <ele>186</ele>
        <time>2017-12-05T09:38:48Z</time>
      </trkpt>
      <trkpt lat="45.94533" lon="4.73828">
        <ele>186</ele>
        <time>2017-12-05T09:38:49Z</time>
      </trkpt>
      <trkpt lat="45.94538" lon="4.7383">
        <ele>186</ele>
        <time>2017-12-05T09:38:50Z</time>
      </trkpt>
      <trkpt lat="45.94542" lon="4.73834">
        <ele>186</ele>
        <time>2017-12-05T09:38:51Z</time>
      </trkpt>
      <trkpt lat="45.94546" lon="4.73838">
        <ele>186</ele>
        <time>2017-12-05T09:38:52Z</time>
      </trkpt>
      <trkpt lat="45.9455" lon="4.73841">
        <ele>186</ele>
        <time>2017-12-05T09:38:53Z</time>
      </trkpt>
      <trkpt lat="45.94554" lon="4.73845">
        <ele>186</ele>
        <time>2017-12-05T09:38:54Z</time>
      </trkpt>
      <trkpt lat="45.94557" lon="4.73849">
        <ele>186</ele>
        <time>2017-12-05T09:38:55Z</time>
      </trkpt>
      <trkpt lat="45.94563" lon="4.73855">
        <ele>186</ele>
        <time>2017-12-05T09:38:57Z</time>
      </trkpt>
      <trkpt lat="45.94566" lon="4.73859">
        <ele>186</ele>
        <time>2017-12-05T09:38:58Z</time>
      </trkpt>
      <trkpt lat="45.94572" lon="4.73865">
        <ele>186</ele>
        <time>2017-12-05T09:39:00Z</time>
      </trkpt>
      <trkpt lat="45.94576" lon="4.73869">
        <ele>186</ele>
        <time>2017-12-05T09:39:01Z</time>
      </trkpt>
      <trkpt lat="45.94579" lon="4.73873">
        <ele>186</ele>
        <time>2017-12-05T09:39:02Z</time>
      </trkpt>
      <trkpt lat="45.94583" lon="4.73877">
        <ele>186</ele>
        <time>2017-12-05T09:39:03Z</time>
      </trkpt>
      <trkpt lat="45.94589" lon="4.73886">
        <ele>187</ele>
        <time>2017-12-05T09:39:05Z</time>
      </trkpt>
      <trkpt lat="45.94593" lon="4.7389">
        <ele>187</ele>
        <time>2017-12-05T09:39:06Z</time>
      </trkpt>
      <trkpt lat="45.94596" lon="4.73894">
        <ele>187</ele>
        <time>2017-12-05T09:39:07Z</time>
      </trkpt>
      <trkpt lat="45.94601" lon="4.73898">
        <ele>187</ele>
        <time>2017-12-05T09:39:08Z</time>
      </trkpt>
      <trkpt lat="45.94604" lon="4.73902">
        <ele>187</ele>
        <time>2017-12-05T09:39:09Z</time>
      </trkpt>
      <trkpt lat="45.94608" lon="4.73906">
        <ele>187</ele>
        <time>2017-12-05T09:39:10Z</time>
      </trkpt>
      <trkpt lat="45.94615" lon="4.73913">
        <ele>187</ele>
        <time>2017-12-05T09:39:12Z</time>
      </trkpt>
      <trkpt lat="45.94618" lon="4.73917">
        <ele>187</ele>
        <time>2017-12-05T09:39:13Z</time>
      </trkpt>
      <trkpt lat="45.94624" lon="4.73925">
        <ele>187</ele>
        <time>2017-12-05T09:39:15Z</time>
      </trkpt>
      <trkpt lat="45.94627" lon="4.73928">
        <ele>187</ele>
        <time>2017-12-05T09:39:16Z</time>
      </trkpt>
      <trkpt lat="45.94634" lon="4.73937">
        <ele>187</ele>
        <time>2017-12-05T09:39:18Z</time>
      </trkpt>
      <trkpt lat="45.94637" lon="4.73941">
        <ele>187</ele>
        <time>2017-12-05T09:39:19Z</time>
      </trkpt>
      <trkpt lat="45.94643" lon="4.73949">
        <ele>187</ele>
        <time>2017-12-05T09:39:21Z</time>
      </trkpt>
      <trkpt lat="45.94646" lon="4.73954">
        <ele>187</ele>
        <time>2017-12-05T09:39:22Z</time>
      </trkpt>
      <trkpt lat="45.94649" lon="4.73958">
        <ele>187</ele>
        <time>2017-12-05T09:39:23Z</time>
      </trkpt>
      <trkpt lat="45.94652" lon="4.73963">
        <ele>187</ele>
        <time>2017-12-05T09:39:24Z</time>
      </trkpt>
      <trkpt lat="45.94658" lon="4.7397">
        <ele>187</ele>
        <time>2017-12-05T09:39:26Z</time>
      </trkpt>
      <trkpt lat="45.94661" lon="4.73974">
        <ele>187</ele>
        <time>2017-12-05T09:39:27Z</time>
      </trkpt>
      <trkpt lat="45.94664" lon="4.73979">
        <ele>187</ele>
        <time>2017-12-05T09:39:28Z</time>
      </trkpt>
      <trkpt lat="45.94668" lon="4.73983">
        <ele>187</ele>
        <time>2017-12-05T09:39:29Z</time>
      </trkpt>
      <trkpt lat="45.94672" lon="4.73987">
        <ele>187</ele>
        <time>2017-12-05T09:39:30Z</time>
      </trkpt>
      <trkpt lat="45.94675" lon="4.73991">
        <ele>187</ele>
        <time>2017-12-05T09:39:31Z</time>
      </trkpt>
      <trkpt lat="45.94679" lon="4.73996">
        <ele>187</ele>
        <time>2017-12-05T09:39:32Z</time>
      </trkpt>
      <trkpt lat="45.94681" lon="4.74001">
        <ele>187</ele>
        <time>2017-12-05T09:39:33Z</time>
      </trkpt>
      <trkpt lat="45.94685" lon="4.74006">
        <ele>187</ele>
        <time>2017-12-05T09:39:34Z</time>
      </trkpt>
      <trkpt lat="45.94689" lon="4.7401">
        <ele>187</ele>
        <time>2017-12-05T09:39:35Z</time>
      </trkpt>
      <trkpt lat="45.94693" lon="4.74014">
        <ele>187</ele>
        <time>2017-12-05T09:39:36Z</time>
      </trkpt>
      <trkpt lat="45.94696" lon="4.74019">
        <ele>187</ele>
        <time>2017-12-05T09:39:37Z</time>
      </trkpt>
      <trkpt lat="45.94701" lon="4.74028">
        <ele>187</ele>
        <time>2017-12-05T09:39:39Z</time>
      </trkpt>
      <trkpt lat="45.94704" lon="4.74032">
        <ele>187</ele>
        <time>2017-12-05T09:39:40Z</time>
      </trkpt>
      <trkpt lat="45.9471" lon="4.74039">
        <ele>187</ele>
        <time>2017-12-05T09:39:42Z</time>
      </trkpt>
      <trkpt lat="45.94713" lon="4.74044">
        <ele>187</ele>
        <time>2017-12-05T09:39:43Z</time>
      </trkpt>
      <trkpt lat="45.94716" lon="4.74048">
        <ele>187</ele>
        <time>2017-12-05T09:39:44Z</time>
      </trkpt>
      <trkpt lat="45.9472" lon="4.74052">
        <ele>187</ele>
        <time>2017-12-05T09:39:45Z</time>
      </trkpt>
      <trkpt lat="45.94726" lon="4.7406">
        <ele>188</ele>
        <time>2017-12-05T09:39:47Z</time>
      </trkpt>
      <trkpt lat="45.9473" lon="4.74064">
        <ele>188</ele>
        <time>2017-12-05T09:39:48Z</time>
      </trkpt>
      <trkpt lat="45.94733" lon="4.7407">
        <ele>188</ele>
        <time>2017-12-05T09:39:49Z</time>
      </trkpt>
      <trkpt lat="45.94736" lon="4.74075">
        <ele>188</ele>
        <time>2017-12-05T09:39:50Z</time>
      </trkpt>
      <trkpt lat="45.9474" lon="4.7408">
        <ele>188</ele>
        <time>2017-12-05T09:39:51Z</time>
      </trkpt>
      <trkpt lat="45.94743" lon="4.74085">
        <ele>188</ele>
        <time>2017-12-05T09:39:52Z</time>
      </trkpt>
      <trkpt lat="45.94746" lon="4.7409">
        <ele>188</ele>
        <time>2017-12-05T09:39:53Z</time>
      </trkpt>
      <trkpt lat="45.94751" lon="4.74095">
        <ele>189</ele>
        <time>2017-12-05T09:39:54Z</time>
      </trkpt>
      <trkpt lat="45.94754" lon="4.741">
        <ele>189</ele>
        <time>2017-12-05T09:39:55Z</time>
      </trkpt>
      <trkpt lat="45.94757" lon="4.74104">
        <ele>189</ele>
        <time>2017-12-05T09:39:56Z</time>
      </trkpt>
      <trkpt lat="45.94764" lon="4.74112">
        <ele>189</ele>
        <time>2017-12-05T09:39:58Z</time>
      </trkpt>
      <trkpt lat="45.94767" lon="4.74115">
        <ele>189</ele>
        <time>2017-12-05T09:39:59Z</time>
      </trkpt>
      <trkpt lat="45.94771" lon="4.74123">
        <ele>189</ele>
        <time>2017-12-05T09:40:01Z</time>
      </trkpt>
      <trkpt lat="45.94775" lon="4.74129">
        <ele>189</ele>
        <time>2017-12-05T09:40:02Z</time>
      </trkpt>
      <trkpt lat="45.94781" lon="4.74138">
        <ele>189</ele>
        <time>2017-12-05T09:40:04Z</time>
      </trkpt>
      <trkpt lat="45.94783" lon="4.74142">
        <ele>189</ele>
        <time>2017-12-05T09:40:05Z</time>
      </trkpt>
      <trkpt lat="45.94786" lon="4.74147">
        <ele>189</ele>
        <time>2017-12-05T09:40:06Z</time>
      </trkpt>
      <trkpt lat="45.9479" lon="4.74152">
        <ele>189</ele>
        <time>2017-12-05T09:40:07Z</time>
      </trkpt>
      <trkpt lat="45.94793" lon="4.74157">
        <ele>189</ele>
        <time>2017-12-05T09:40:08Z</time>
      </trkpt>
      <trkpt lat="45.94797" lon="4.74163">
        <ele>189</ele>
        <time>2017-12-05T09:40:09Z</time>
      </trkpt>
      <trkpt lat="45.948" lon="4.74168">
        <ele>189</ele>
        <time>2017-12-05T09:40:10Z</time>
      </trkpt>
      <trkpt lat="45.94804" lon="4.74173">
        <ele>189</ele>
        <time>2017-12-05T09:40:11Z</time>
      </trkpt>
      <trkpt lat="45.94808" lon="4.74179">
        <ele>189</ele>
        <time>2017-12-05T09:40:12Z</time>
      </trkpt>
      <trkpt lat="45.94811" lon="4.74185">
        <ele>189</ele>
        <time>2017-12-05T09:40:13Z</time>
      </trkpt>
      <trkpt lat="45.94814" lon="4.7419">
        <ele>189</ele>
        <time>2017-12-05T09:40:14Z</time>
      </trkpt>
      <trkpt lat="45.94817" lon="4.74196">
        <ele>189</ele>
        <time>2017-12-05T09:40:15Z</time>
      </trkpt>
      <trkpt lat="45.9482" lon="4.74201">
        <ele>189</ele>
        <time>2017-12-05T09:40:16Z</time>
      </trkpt>
      <trkpt lat="45.94823" lon="4.74206">
        <ele>189</ele>
        <time>2017-12-05T09:40:17Z</time>
      </trkpt>
      <trkpt lat="45.94826" lon="4.74212">
        <ele>188</ele>
        <time>2017-12-05T09:40:18Z</time>
      </trkpt>
      <trkpt lat="45.94829" lon="4.74218">
        <ele>188</ele>
        <time>2017-12-05T09:40:19Z</time>
      </trkpt>
      <trkpt lat="45.94831" lon="4.74224">
        <ele>188</ele>
        <time>2017-12-05T09:40:20Z</time>
      </trkpt>
      <trkpt lat="45.94833" lon="4.7423">
        <ele>189</ele>
        <time>2017-12-05T09:40:21Z</time>
      </trkpt>
      <trkpt lat="45.94836" lon="4.74236">
        <ele>190</ele>
        <time>2017-12-05T09:40:22Z</time>
      </trkpt>
      <trkpt lat="45.94839" lon="4.74242">
        <ele>189</ele>
        <time>2017-12-05T09:40:23Z</time>
      </trkpt>
      <trkpt lat="45.94842" lon="4.74248">
        <ele>189</ele>
        <time>2017-12-05T09:40:24Z</time>
      </trkpt>
      <trkpt lat="45.94847" lon="4.74255">
        <ele>190</ele>
        <time>2017-12-05T09:40:25Z</time>
      </trkpt>
      <trkpt lat="45.9485" lon="4.7426">
        <ele>190</ele>
        <time>2017-12-05T09:40:26Z</time>
      </trkpt>
      <trkpt lat="45.94853" lon="4.74265">
        <ele>190</ele>
        <time>2017-12-05T09:40:27Z</time>
      </trkpt>
      <trkpt lat="45.94856" lon="4.7427">
        <ele>190</ele>
        <time>2017-12-05T09:40:28Z</time>
      </trkpt>
      <trkpt lat="45.94858" lon="4.74276">
        <ele>190</ele>
        <time>2017-12-05T09:40:29Z</time>
      </trkpt>
      <trkpt lat="45.94861" lon="4.74281">
        <ele>190</ele>
        <time>2017-12-05T09:40:30Z</time>
      </trkpt>
      <trkpt lat="45.94864" lon="4.74286">
        <ele>191</ele>
        <time>2017-12-05T09:40:31Z</time>
      </trkpt>
      <trkpt lat="45.94867" lon="4.74292">
        <ele>191</ele>
        <time>2017-12-05T09:40:32Z</time>
      </trkpt>
      <trkpt lat="45.94869" lon="4.74298">
        <ele>191</ele>
        <time>2017-12-05T09:40:33Z</time>
      </trkpt>
      <trkpt lat="45.94872" lon="4.74303">
        <ele>191</ele>
        <time>2017-12-05T09:40:34Z</time>
      </trkpt>
      <trkpt lat="45.94875" lon="4.74309">
        <ele>191</ele>
        <time>2017-12-05T09:40:35Z</time>
      </trkpt>
      <trkpt lat="45.94878" lon="4.74316">
        <ele>191</ele>
        <time>2017-12-05T09:40:36Z</time>
      </trkpt>
      <trkpt lat="45.94881" lon="4.74321">
        <ele>191</ele>
        <time>2017-12-05T09:40:37Z</time>
      </trkpt>
      <trkpt lat="45.94883" lon="4.74327">
        <ele>191</ele>
        <time>2017-12-05T09:40:38Z</time>
      </trkpt>
      <trkpt lat="45.94886" lon="4.74332">
        <ele>191</ele>
        <time>2017-12-05T09:40:39Z</time>
      </trkpt>
      <trkpt lat="45.94891" lon="4.74343">
        <ele>191</ele>
        <time>2017-12-05T09:40:41Z</time>
      </trkpt>
      <trkpt lat="45.94894" lon="4.74348">
        <ele>191</ele>
        <time>2017-12-05T09:40:42Z</time>
      </trkpt>
      <trkpt lat="45.94896" lon="4.74354">
        <ele>191</ele>
        <time>2017-12-05T09:40:43Z</time>
      </trkpt>
      <trkpt lat="45.949" lon="4.7436">
        <ele>191</ele>
        <time>2017-12-05T09:40:44Z</time>
      </trkpt>
      <trkpt lat="45.94903" lon="4.74365">
        <ele>191</ele>
        <time>2017-12-05T09:40:45Z</time>
      </trkpt>
      <trkpt lat="45.94906" lon="4.74371">
        <ele>191</ele>
        <time>2017-12-05T09:40:46Z</time>
      </trkpt>
      <trkpt lat="45.94909" lon="4.74376">
        <ele>191</ele>
        <time>2017-12-05T09:40:47Z</time>
      </trkpt>
      <trkpt lat="45.94912" lon="4.74382">
        <ele>191</ele>
        <time>2017-12-05T09:40:48Z</time>
      </trkpt>
      <trkpt lat="45.94917" lon="4.74392">
        <ele>192</ele>
        <time>2017-12-05T09:40:50Z</time>
      </trkpt>
      <trkpt lat="45.9492" lon="4.74396">
        <ele>192</ele>
        <time>2017-12-05T09:40:51Z</time>
      </trkpt>
      <trkpt lat="45.94923" lon="4.74401">
        <ele>192</ele>
        <time>2017-12-05T09:40:52Z</time>
      </trkpt>
      <trkpt lat="45.94925" lon="4.74406">
        <ele>192</ele>
        <time>2017-12-05T09:40:53Z</time>
      </trkpt>
      <trkpt lat="45.9493" lon="4.74417">
        <ele>192</ele>
        <time>2017-12-05T09:40:55Z</time>
      </trkpt>
      <trkpt lat="45.94932" lon="4.74421">
        <ele>192</ele>
        <time>2017-12-05T09:40:56Z</time>
      </trkpt>
      <trkpt lat="45.94935" lon="4.74427">
        <ele>192</ele>
        <time>2017-12-05T09:40:57Z</time>
      </trkpt>
      <trkpt lat="45.94938" lon="4.74432">
        <ele>192</ele>
        <time>2017-12-05T09:40:58Z</time>
      </trkpt>
      <trkpt lat="45.94941" lon="4.74437">
        <ele>192</ele>
        <time>2017-12-05T09:40:59Z</time>
      </trkpt>
      <trkpt lat="45.94944" lon="4.74442">
        <ele>192</ele>
        <time>2017-12-05T09:41:00Z</time>
      </trkpt>
      <trkpt lat="45.94947" lon="4.74447">
        <ele>192</ele>
        <time>2017-12-05T09:41:01Z</time>
      </trkpt>
      <trkpt lat="45.9495" lon="4.74453">
        <ele>192</ele>
        <time>2017-12-05T09:41:02Z</time>
      </trkpt>
      <trkpt lat="45.94952" lon="4.74458">
        <ele>192</ele>
        <time>2017-12-05T09:41:03Z</time>
      </trkpt>
      <trkpt lat="45.94955" lon="4.74464">
        <ele>193</ele>
        <time>2017-12-05T09:41:04Z</time>
      </trkpt>
      <trkpt lat="45.94958" lon="4.74469">
        <ele>193</ele>
        <time>2017-12-05T09:41:05Z</time>
      </trkpt>
      <trkpt lat="45.94961" lon="4.74474">
        <ele>193</ele>
        <time>2017-12-05T09:41:06Z</time>
      </trkpt>
      <trkpt lat="45.94966" lon="4.74484">
        <ele>193</ele>
        <time>2017-12-05T09:41:08Z</time>
      </trkpt>
      <trkpt lat="45.94969" lon="4.74489">
        <ele>193</ele>
        <time>2017-12-05T09:41:09Z</time>
      </trkpt>
      <trkpt lat="45.94971" lon="4.74494">
        <ele>193</ele>
        <time>2017-12-05T09:41:10Z</time>
      </trkpt>
      <trkpt lat="45.94974" lon="4.74499">
        <ele>193</ele>
        <time>2017-12-05T09:41:11Z</time>
      </trkpt>
      <trkpt lat="45.94977" lon="4.74505">
        <ele>193</ele>
        <time>2017-12-05T09:41:12Z</time>
      </trkpt>
      <trkpt lat="45.9498" lon="4.74511">
        <ele>193</ele>
        <time>2017-12-05T09:41:13Z</time>
      </trkpt>
      <trkpt lat="45.94982" lon="4.74515">
        <ele>193</ele>
        <time>2017-12-05T09:41:14Z</time>
      </trkpt>
      <trkpt lat="45.94986" lon="4.74521">
        <ele>193</ele>
        <time>2017-12-05T09:41:15Z</time>
      </trkpt>
      <trkpt lat="45.94991" lon="4.7453">
        <ele>193</ele>
        <time>2017-12-05T09:41:17Z</time>
      </trkpt>
      <trkpt lat="45.94995" lon="4.74536">
        <ele>193</ele>
        <time>2017-12-05T09:41:18Z</time>
      </trkpt>
      <trkpt lat="45.95" lon="4.74545">
        <ele>193</ele>
        <time>2017-12-05T09:41:20Z</time>
      </trkpt>
      <trkpt lat="45.95002" lon="4.74551">
        <ele>194</ele>
        <time>2017-12-05T09:41:21Z</time>
      </trkpt>
      <trkpt lat="45.95008" lon="4.7456">
        <ele>194</ele>
        <time>2017-12-05T09:41:23Z</time>
      </trkpt>
      <trkpt lat="45.9501" lon="4.74566">
        <ele>194</ele>
        <time>2017-12-05T09:41:24Z</time>
      </trkpt>
      <trkpt lat="45.95015" lon="4.74576">
        <ele>194</ele>
        <time>2017-12-05T09:41:26Z</time>
      </trkpt>
      <trkpt lat="45.95017" lon="4.74582">
        <ele>194</ele>
        <time>2017-12-05T09:41:27Z</time>
      </trkpt>
      <trkpt lat="45.95022" lon="4.74591">
        <ele>194</ele>
        <time>2017-12-05T09:41:29Z</time>
      </trkpt>
      <trkpt lat="45.95025" lon="4.74596">
        <ele>194</ele>
        <time>2017-12-05T09:41:30Z</time>
      </trkpt>
      <trkpt lat="45.95029" lon="4.74602">
        <ele>194</ele>
        <time>2017-12-05T09:41:31Z</time>
      </trkpt>
      <trkpt lat="45.95032" lon="4.74608">
        <ele>194</ele>
        <time>2017-12-05T09:41:32Z</time>
      </trkpt>
      <trkpt lat="45.95035" lon="4.74613">
        <ele>194</ele>
        <time>2017-12-05T09:41:33Z</time>
      </trkpt>
      <trkpt lat="45.95039" lon="4.7462">
        <ele>194</ele>
        <time>2017-12-05T09:41:34Z</time>
      </trkpt>
      <trkpt lat="45.95042" lon="4.74627">
        <ele>194</ele>
        <time>2017-12-05T09:41:35Z</time>
      </trkpt>
      <trkpt lat="45.95046" lon="4.74633">
        <ele>194</ele>
        <time>2017-12-05T09:41:36Z</time>
      </trkpt>
      <trkpt lat="45.9505" lon="4.74639">
        <ele>194</ele>
        <time>2017-12-05T09:41:37Z</time>
      </trkpt>
      <trkpt lat="45.95054" lon="4.74646">
        <ele>194</ele>
        <time>2017-12-05T09:41:38Z</time>
      </trkpt>
      <trkpt lat="45.95057" lon="4.74652">
        <ele>194</ele>
        <time>2017-12-05T09:41:39Z</time>
      </trkpt>
      <trkpt lat="45.9506" lon="4.74658">
        <ele>194</ele>
        <time>2017-12-05T09:41:40Z</time>
      </trkpt>
      <trkpt lat="45.95063" lon="4.74664">
        <ele>195</ele>
        <time>2017-12-05T09:41:41Z</time>
      </trkpt>
      <trkpt lat="45.95065" lon="4.7467">
        <ele>194</ele>
        <time>2017-12-05T09:41:42Z</time>
      </trkpt>
      <trkpt lat="45.95069" lon="4.74676">
        <ele>194</ele>
        <time>2017-12-05T09:41:43Z</time>
      </trkpt>
      <trkpt lat="45.95072" lon="4.74682">
        <ele>194</ele>
        <time>2017-12-05T09:41:44Z</time>
      </trkpt>
      <trkpt lat="45.95075" lon="4.74687">
        <ele>194</ele>
        <time>2017-12-05T09:41:45Z</time>
      </trkpt>
      <trkpt lat="45.95078" lon="4.74693">
        <ele>194</ele>
        <time>2017-12-05T09:41:46Z</time>
      </trkpt>
      <trkpt lat="45.95081" lon="4.74699">
        <ele>194</ele>
        <time>2017-12-05T09:41:47Z</time>
      </trkpt>
      <trkpt lat="45.95085" lon="4.74704">
        <ele>194</ele>
        <time>2017-12-05T09:41:48Z</time>
      </trkpt>
      <trkpt lat="45.95088" lon="4.7471">
        <ele>194</ele>
        <time>2017-12-05T09:41:49Z</time>
      </trkpt>
      <trkpt lat="45.95091" lon="4.74715">
        <ele>194</ele>
        <time>2017-12-05T09:41:50Z</time>
      </trkpt>
      <trkpt lat="45.95094" lon="4.74721">
        <ele>194</ele>
        <time>2017-12-05T09:41:51Z</time>
      </trkpt>
      <trkpt lat="45.95097" lon="4.74725">
        <ele>194</ele>
        <time>2017-12-05T09:41:52Z</time>
      </trkpt>
      <trkpt lat="45.95102" lon="4.74735">
        <ele>194</ele>
        <time>2017-12-05T09:41:54Z</time>
      </trkpt>
      <trkpt lat="45.95106" lon="4.7474">
        <ele>194</ele>
        <time>2017-12-05T09:41:55Z</time>
      </trkpt>
      <trkpt lat="45.95108" lon="4.74745">
        <ele>194</ele>
        <time>2017-12-05T09:41:56Z</time>
      </trkpt>
      <trkpt lat="45.95111" lon="4.74751">
        <ele>194</ele>
        <time>2017-12-05T09:41:57Z</time>
      </trkpt>
      <trkpt lat="45.95114" lon="4.74756">
        <ele>194</ele>
        <time>2017-12-05T09:41:58Z</time>
      </trkpt>
      <trkpt lat="45.95117" lon="4.74762">
        <ele>194</ele>
        <time>2017-12-05T09:41:59Z</time>
      </trkpt>
      <trkpt lat="45.9512" lon="4.74767">
        <ele>194</ele>
        <time>2017-12-05T09:42:00Z</time>
      </trkpt>
      <trkpt lat="45.95124" lon="4.74772">
        <ele>194</ele>
        <time>2017-12-05T09:42:01Z</time>
      </trkpt>
      <trkpt lat="45.95127" lon="4.74777">
        <ele>194</ele>
        <time>2017-12-05T09:42:02Z</time>
      </trkpt>
      <trkpt lat="45.9513" lon="4.74783">
        <ele>194</ele>
        <time>2017-12-05T09:42:03Z</time>
      </trkpt>
      <trkpt lat="45.95134" lon="4.74788">
        <ele>194</ele>
        <time>2017-12-05T09:42:04Z</time>
      </trkpt>
      <trkpt lat="45.95137" lon="4.74793">
        <ele>194</ele>
        <time>2017-12-05T09:42:05Z</time>
      </trkpt>
      <trkpt lat="45.95143" lon="4.74802">
        <ele>194</ele>
        <time>2017-12-05T09:42:07Z</time>
      </trkpt>
      <trkpt lat="45.95147" lon="4.74809">
        <ele>194</ele>
        <time>2017-12-05T09:42:08Z</time>
      </trkpt>
      <trkpt lat="45.9515" lon="4.74815">
        <ele>194</ele>
        <time>2017-12-05T09:42:09Z</time>
      </trkpt>
      <trkpt lat="45.95154" lon="4.74819">
        <ele>194</ele>
        <time>2017-12-05T09:42:10Z</time>
      </trkpt>
      <trkpt lat="45.95157" lon="4.74826">
        <ele>194</ele>
        <time>2017-12-05T09:42:11Z</time>
      </trkpt>
      <trkpt lat="45.95161" lon="4.74831">
        <ele>194</ele>
        <time>2017-12-05T09:42:12Z</time>
      </trkpt>
      <trkpt lat="45.95164" lon="4.74837">
        <ele>194</ele>
        <time>2017-12-05T09:42:13Z</time>
      </trkpt>
      <trkpt lat="45.95167" lon="4.74842">
        <ele>194</ele>
        <time>2017-12-05T09:42:14Z</time>
      </trkpt>
      <trkpt lat="45.95171" lon="4.74846">
        <ele>194</ele>
        <time>2017-12-05T09:42:15Z</time>
      </trkpt>
      <trkpt lat="45.95173" lon="4.74851">
        <ele>194</ele>
        <time>2017-12-05T09:42:16Z</time>
      </trkpt>
      <trkpt lat="45.95177" lon="4.74855">
        <ele>194</ele>
        <time>2017-12-05T09:42:17Z</time>
      </trkpt>
      <trkpt lat="45.95179" lon="4.7486">
        <ele>194</ele>
        <time>2017-12-05T09:42:18Z</time>
      </trkpt>
      <trkpt lat="45.95183" lon="4.74865">
        <ele>194</ele>
        <time>2017-12-05T09:42:19Z</time>
      </trkpt>
      <trkpt lat="45.95186" lon="4.74871">
        <ele>194</ele>
        <time>2017-12-05T09:42:20Z</time>
      </trkpt>
      <trkpt lat="45.95189" lon="4.74875">
        <ele>194</ele>
        <time>2017-12-05T09:42:21Z</time>
      </trkpt>
      <trkpt lat="45.95193" lon="4.7488">
        <ele>194</ele>
        <time>2017-12-05T09:42:22Z</time>
      </trkpt>
      <trkpt lat="45.95196" lon="4.74885">
        <ele>194</ele>
        <time>2017-12-05T09:42:23Z</time>
      </trkpt>
      <trkpt lat="45.95199" lon="4.74891">
        <ele>194</ele>
        <time>2017-12-05T09:42:24Z</time>
      </trkpt>
      <trkpt lat="45.95202" lon="4.74897">
        <ele>194</ele>
        <time>2017-12-05T09:42:25Z</time>
      </trkpt>
      <trkpt lat="45.95206" lon="4.74901">
        <ele>194</ele>
        <time>2017-12-05T09:42:26Z</time>
      </trkpt>
      <trkpt lat="45.95212" lon="4.7491">
        <ele>193</ele>
        <time>2017-12-05T09:42:28Z</time>
      </trkpt>
      <trkpt lat="45.95216" lon="4.74916">
        <ele>193</ele>
        <time>2017-12-05T09:42:29Z</time>
      </trkpt>
      <trkpt lat="45.95219" lon="4.74921">
        <ele>192</ele>
        <time>2017-12-05T09:42:30Z</time>
      </trkpt>
      <trkpt lat="45.95222" lon="4.74926">
        <ele>192</ele>
        <time>2017-12-05T09:42:31Z</time>
      </trkpt>
      <trkpt lat="45.95225" lon="4.74932">
        <ele>192</ele>
        <time>2017-12-05T09:42:32Z</time>
      </trkpt>
      <trkpt lat="45.95229" lon="4.74937">
        <ele>192</ele>
        <time>2017-12-05T09:42:33Z</time>
      </trkpt>
      <trkpt lat="45.95233" lon="4.74942">
        <ele>192</ele>
        <time>2017-12-05T09:42:34Z</time>
      </trkpt>
      <trkpt lat="45.95236" lon="4.74947">
        <ele>192</ele>
        <time>2017-12-05T09:42:35Z</time>
      </trkpt>
      <trkpt lat="45.9524" lon="4.74953">
        <ele>192</ele>
        <time>2017-12-05T09:42:36Z</time>
      </trkpt>
      <trkpt lat="45.95243" lon="4.74958">
        <ele>192</ele>
        <time>2017-12-05T09:42:37Z</time>
      </trkpt>
      <trkpt lat="45.95249" lon="4.74968">
        <ele>191</ele>
        <time>2017-12-05T09:42:39Z</time>
      </trkpt>
      <trkpt lat="45.95252" lon="4.74973">
        <ele>192</ele>
        <time>2017-12-05T09:42:40Z</time>
      </trkpt>
      <trkpt lat="45.95255" lon="4.74978">
        <ele>192</ele>
        <time>2017-12-05T09:42:41Z</time>
      </trkpt>
      <trkpt lat="45.95258" lon="4.74983">
        <ele>192</ele>
        <time>2017-12-05T09:42:42Z</time>
      </trkpt>
      <trkpt lat="45.95261" lon="4.74987">
        <ele>192</ele>
        <time>2017-12-05T09:42:43Z</time>
      </trkpt>
      <trkpt lat="45.95265" lon="4.74993">
        <ele>192</ele>
        <time>2017-12-05T09:42:44Z</time>
      </trkpt>
      <trkpt lat="45.95268" lon="4.75">
        <ele>192</ele>
        <time>2017-12-05T09:42:45Z</time>
      </trkpt>
      <trkpt lat="45.95273" lon="4.75007">
        <ele>191</ele>
        <time>2017-12-05T09:42:46Z</time>
      </trkpt>
      <trkpt lat="45.95277" lon="4.75012">
        <ele>191</ele>
        <time>2017-12-05T09:42:47Z</time>
      </trkpt>
      <trkpt lat="45.9528" lon="4.75019">
        <ele>191</ele>
        <time>2017-12-05T09:42:48Z</time>
      </trkpt>
      <trkpt lat="45.95285" lon="4.75027">
        <ele>191</ele>
        <time>2017-12-05T09:42:49Z</time>
      </trkpt>
      <trkpt lat="45.95289" lon="4.75033">
        <ele>191</ele>
        <time>2017-12-05T09:42:50Z</time>
      </trkpt>
      <trkpt lat="45.95292" lon="4.75039">
        <ele>191</ele>
        <time>2017-12-05T09:42:51Z</time>
      </trkpt>
      <trkpt lat="45.95297" lon="4.75046">
        <ele>191</ele>
        <time>2017-12-05T09:42:52Z</time>
      </trkpt>
      <trkpt lat="45.95301" lon="4.75052">
        <ele>191</ele>
        <time>2017-12-05T09:42:53Z</time>
      </trkpt>
      <trkpt lat="45.95305" lon="4.75059">
        <ele>191</ele>
        <time>2017-12-05T09:42:54Z</time>
      </trkpt>
      <trkpt lat="45.95309" lon="4.75064">
        <ele>192</ele>
        <time>2017-12-05T09:42:55Z</time>
      </trkpt>
      <trkpt lat="45.95312" lon="4.75071">
        <ele>192</ele>
        <time>2017-12-05T09:42:56Z</time>
      </trkpt>
      <trkpt lat="45.95317" lon="4.75077">
        <ele>192</ele>
        <time>2017-12-05T09:42:57Z</time>
      </trkpt>
      <trkpt lat="45.9532" lon="4.75082">
        <ele>192</ele>
        <time>2017-12-05T09:42:58Z</time>
      </trkpt>
      <trkpt lat="45.95324" lon="4.75088">
        <ele>191</ele>
        <time>2017-12-05T09:42:59Z</time>
      </trkpt>
      <trkpt lat="45.95328" lon="4.75093">
        <ele>191</ele>
        <time>2017-12-05T09:43:00Z</time>
      </trkpt>
      <trkpt lat="45.95331" lon="4.75098">
        <ele>191</ele>
        <time>2017-12-05T09:43:01Z</time>
      </trkpt>
      <trkpt lat="45.95335" lon="4.75104">
        <ele>192</ele>
        <time>2017-12-05T09:43:02Z</time>
      </trkpt>
      <trkpt lat="45.95338" lon="4.75109">
        <ele>192</ele>
        <time>2017-12-05T09:43:03Z</time>
      </trkpt>
      <trkpt lat="45.95342" lon="4.75114">
        <ele>192</ele>
        <time>2017-12-05T09:43:04Z</time>
      </trkpt>
      <trkpt lat="45.95345" lon="4.7512">
        <ele>191</ele>
        <time>2017-12-05T09:43:05Z</time>
      </trkpt>
      <trkpt lat="45.95348" lon="4.75126">
        <ele>191</ele>
        <time>2017-12-05T09:43:06Z</time>
      </trkpt>
      <trkpt lat="45.95353" lon="4.75131">
        <ele>191</ele>
        <time>2017-12-05T09:43:07Z</time>
      </trkpt>
      <trkpt lat="45.95357" lon="4.75137">
        <ele>191</ele>
        <time>2017-12-05T09:43:08Z</time>
      </trkpt>
      <trkpt lat="45.95361" lon="4.75143">
        <ele>191</ele>
        <time>2017-12-05T09:43:09Z</time>
      </trkpt>
      <trkpt lat="45.95364" lon="4.75149">
        <ele>191</ele>
        <time>2017-12-05T09:43:10Z</time>
      </trkpt>
      <trkpt lat="45.95368" lon="4.75155">
        <ele>191</ele>
        <time>2017-12-05T09:43:11Z</time>
      </trkpt>
      <trkpt lat="45.95373" lon="4.75161">
        <ele>191</ele>
        <time>2017-12-05T09:43:12Z</time>
      </trkpt>
      <trkpt lat="45.95376" lon="4.75167">
        <ele>189</ele>
        <time>2017-12-05T09:43:13Z</time>
      </trkpt>
      <trkpt lat="45.9538" lon="4.75172">
        <ele>189</ele>
        <time>2017-12-05T09:43:14Z</time>
      </trkpt>
      <trkpt lat="45.95384" lon="4.75178">
        <ele>189</ele>
        <time>2017-12-05T09:43:15Z</time>
      </trkpt>
      <trkpt lat="45.95388" lon="4.75183">
        <ele>189</ele>
        <time>2017-12-05T09:43:16Z</time>
      </trkpt>
      <trkpt lat="45.95391" lon="4.75188">
        <ele>189</ele>
        <time>2017-12-05T09:43:17Z</time>
      </trkpt>
      <trkpt lat="45.95394" lon="4.75194">
        <ele>189</ele>
        <time>2017-12-05T09:43:18Z</time>
      </trkpt>
      <trkpt lat="45.95397" lon="4.752">
        <ele>189</ele>
        <time>2017-12-05T09:43:19Z</time>
      </trkpt>
      <trkpt lat="45.954" lon="4.75205">
        <ele>189</ele>
        <time>2017-12-05T09:43:20Z</time>
      </trkpt>
      <trkpt lat="45.95403" lon="4.7521">
        <ele>189</ele>
        <time>2017-12-05T09:43:21Z</time>
      </trkpt>
      <trkpt lat="45.95406" lon="4.75216">
        <ele>189</ele>
        <time>2017-12-05T09:43:22Z</time>
      </trkpt>
      <trkpt lat="45.95409" lon="4.75221">
        <ele>189</ele>
        <time>2017-12-05T09:43:23Z</time>
      </trkpt>
      <trkpt lat="45.95412" lon="4.75227">
        <ele>189</ele>
        <time>2017-12-05T09:43:24Z</time>
      </trkpt>
      <trkpt lat="45.95415" lon="4.75233">
        <ele>189</ele>
        <time>2017-12-05T09:43:25Z</time>
      </trkpt>
      <trkpt lat="45.95418" lon="4.75238">
        <ele>190</ele>
        <time>2017-12-05T09:43:26Z</time>
      </trkpt>
      <trkpt lat="45.95421" lon="4.75244">
        <ele>190</ele>
        <time>2017-12-05T09:43:27Z</time>
      </trkpt>
      <trkpt lat="45.95425" lon="4.7525">
        <ele>189</ele>
        <time>2017-12-05T09:43:28Z</time>
      </trkpt>
      <trkpt lat="45.95428" lon="4.75257">
        <ele>189</ele>
        <time>2017-12-05T09:43:29Z</time>
      </trkpt>
      <trkpt lat="45.95431" lon="4.75264">
        <ele>189</ele>
        <time>2017-12-05T09:43:30Z</time>
      </trkpt>
      <trkpt lat="45.95434" lon="4.7527">
        <ele>189</ele>
        <time>2017-12-05T09:43:31Z</time>
      </trkpt>
      <trkpt lat="45.95438" lon="4.75277">
        <ele>188</ele>
        <time>2017-12-05T09:43:32Z</time>
      </trkpt>
      <trkpt lat="45.95441" lon="4.75285">
        <ele>188</ele>
        <time>2017-12-05T09:43:33Z</time>
      </trkpt>
      <trkpt lat="45.95445" lon="4.75291">
        <ele>188</ele>
        <time>2017-12-05T09:43:34Z</time>
      </trkpt>
      <trkpt lat="45.95448" lon="4.75298">
        <ele>188</ele>
        <time>2017-12-05T09:43:35Z</time>
      </trkpt>
      <trkpt lat="45.95452" lon="4.75304">
        <ele>188</ele>
        <time>2017-12-05T09:43:36Z</time>
      </trkpt>
      <trkpt lat="45.95455" lon="4.7531">
        <ele>188</ele>
        <time>2017-12-05T09:43:37Z</time>
      </trkpt>
      <trkpt lat="45.95459" lon="4.75316">
        <ele>188</ele>
        <time>2017-12-05T09:43:38Z</time>
      </trkpt>
      <trkpt lat="45.95462" lon="4.75322">
        <ele>188</ele>
        <time>2017-12-05T09:43:39Z</time>
      </trkpt>
      <trkpt lat="45.95466" lon="4.75329">
        <ele>188</ele>
        <time>2017-12-05T09:43:40Z</time>
      </trkpt>
      <trkpt lat="45.95469" lon="4.75335">
        <ele>186</ele>
        <time>2017-12-05T09:43:41Z</time>
      </trkpt>
      <trkpt lat="45.95473" lon="4.75342">
        <ele>186</ele>
        <time>2017-12-05T09:43:42Z</time>
      </trkpt>
      <trkpt lat="45.95476" lon="4.75347">
        <ele>186</ele>
        <time>2017-12-05T09:43:43Z</time>
      </trkpt>
      <trkpt lat="45.95479" lon="4.75354">
        <ele>186</ele>
        <time>2017-12-05T09:43:44Z</time>
      </trkpt>
      <trkpt lat="45.95482" lon="4.7536">
        <ele>186</ele>
        <time>2017-12-05T09:43:45Z</time>
      </trkpt>
      <trkpt lat="45.95486" lon="4.75367">
        <ele>186</ele>
        <time>2017-12-05T09:43:46Z</time>
      </trkpt>
      <trkpt lat="45.95489" lon="4.75373">
        <ele>185</ele>
        <time>2017-12-05T09:43:47Z</time>
      </trkpt>
      <trkpt lat="45.95493" lon="4.7538">
        <ele>185</ele>
        <time>2017-12-05T09:43:48Z</time>
      </trkpt>
      <trkpt lat="45.95495" lon="4.75387">
        <ele>185</ele>
        <time>2017-12-05T09:43:49Z</time>
      </trkpt>
      <trkpt lat="45.95498" lon="4.75394">
        <ele>185</ele>
        <time>2017-12-05T09:43:50Z</time>
      </trkpt>
      <trkpt lat="45.955" lon="4.75402">
        <ele>185</ele>
        <time>2017-12-05T09:43:51Z</time>
      </trkpt>
      <trkpt lat="45.95502" lon="4.7541">
        <ele>186</ele>
        <time>2017-12-05T09:43:52Z</time>
      </trkpt>
      <trkpt lat="45.95504" lon="4.75417">
        <ele>185</ele>
        <time>2017-12-05T09:43:53Z</time>
      </trkpt>
      <trkpt lat="45.95507" lon="4.75425">
        <ele>186</ele>
        <time>2017-12-05T09:43:54Z</time>
      </trkpt>
      <trkpt lat="45.95508" lon="4.75434">
        <ele>186</ele>
        <time>2017-12-05T09:43:55Z</time>
      </trkpt>
      <trkpt lat="45.95509" lon="4.75442">
        <ele>186</ele>
        <time>2017-12-05T09:43:56Z</time>
      </trkpt>
      <trkpt lat="45.95509" lon="4.75451">
        <ele>187</ele>
        <time>2017-12-05T09:43:57Z</time>
      </trkpt>
      <trkpt lat="45.95509" lon="4.75459">
        <ele>186</ele>
        <time>2017-12-05T09:43:58Z</time>
      </trkpt>
      <trkpt lat="45.95508" lon="4.75469">
        <ele>186</ele>
        <time>2017-12-05T09:43:59Z</time>
      </trkpt>
      <trkpt lat="45.95508" lon="4.75478">
        <ele>186</ele>
        <time>2017-12-05T09:44:00Z</time>
      </trkpt>
      <trkpt lat="45.95509" lon="4.75485">
        <ele>186</ele>
        <time>2017-12-05T09:44:01Z</time>
      </trkpt>
      <trkpt lat="45.95512" lon="4.75492">
        <ele>185</ele>
        <time>2017-12-05T09:44:02Z</time>
      </trkpt>
      <trkpt lat="45.95515" lon="4.75498">
        <ele>186</ele>
        <time>2017-12-05T09:44:03Z</time>
      </trkpt>
      <trkpt lat="45.95519" lon="4.75501">
        <ele>185</ele>
        <time>2017-12-05T09:44:04Z</time>
      </trkpt>
      <trkpt lat="45.95523" lon="4.75504">
        <ele>185</ele>
        <time>2017-12-05T09:44:05Z</time>
      </trkpt>
      <trkpt lat="45.95527" lon="4.75508">
        <ele>185</ele>
        <time>2017-12-05T09:44:06Z</time>
      </trkpt>
      <trkpt lat="45.95532" lon="4.75513">
        <ele>185</ele>
        <time>2017-12-05T09:44:07Z</time>
      </trkpt>
      <trkpt lat="45.95536" lon="4.75517">
        <ele>186</ele>
        <time>2017-12-05T09:44:08Z</time>
      </trkpt>
      <trkpt lat="45.95541" lon="4.75521">
        <ele>186</ele>
        <time>2017-12-05T09:44:09Z</time>
      </trkpt>
      <trkpt lat="45.95546" lon="4.75526">
        <ele>186</ele>
        <time>2017-12-05T09:44:10Z</time>
      </trkpt>
      <trkpt lat="45.9555" lon="4.75531">
        <ele>186</ele>
        <time>2017-12-05T09:44:11Z</time>
      </trkpt>
      <trkpt lat="45.95555" lon="4.75535">
        <ele>186</ele>
        <time>2017-12-05T09:44:12Z</time>
      </trkpt>
      <trkpt lat="45.95559" lon="4.7554">
        <ele>186</ele>
        <time>2017-12-05T09:44:13Z</time>
      </trkpt>
      <trkpt lat="45.95563" lon="4.75545">
        <ele>186</ele>
        <time>2017-12-05T09:44:14Z</time>
      </trkpt>
      <trkpt lat="45.95568" lon="4.75548">
        <ele>186</ele>
        <time>2017-12-05T09:44:15Z</time>
      </trkpt>
      <trkpt lat="45.95572" lon="4.75553">
        <ele>186</ele>
        <time>2017-12-05T09:44:16Z</time>
      </trkpt>
      <trkpt lat="45.95576" lon="4.75557">
        <ele>186</ele>
        <time>2017-12-05T09:44:17Z</time>
      </trkpt>
      <trkpt lat="45.9558" lon="4.75563">
        <ele>186</ele>
        <time>2017-12-05T09:44:18Z</time>
      </trkpt>
      <trkpt lat="45.95584" lon="4.75568">
        <ele>188</ele>
        <time>2017-12-05T09:44:19Z</time>
      </trkpt>
      <trkpt lat="45.95588" lon="4.75574">
        <ele>187</ele>
        <time>2017-12-05T09:44:20Z</time>
      </trkpt>
      <trkpt lat="45.95591" lon="4.7558">
        <ele>187</ele>
        <time>2017-12-05T09:44:21Z</time>
      </trkpt>
      <trkpt lat="45.95594" lon="4.75586">
        <ele>187</ele>
        <time>2017-12-05T09:44:22Z</time>
      </trkpt>
      <trkpt lat="45.95596" lon="4.75592">
        <ele>187</ele>
        <time>2017-12-05T09:44:23Z</time>
      </trkpt>
      <trkpt lat="45.95599" lon="4.75598">
        <ele>187</ele>
        <time>2017-12-05T09:44:24Z</time>
      </trkpt>
      <trkpt lat="45.95601" lon="4.75603">
        <ele>187</ele>
        <time>2017-12-05T09:44:25Z</time>
      </trkpt>
      <trkpt lat="45.95604" lon="4.7561">
        <ele>187</ele>
        <time>2017-12-05T09:44:26Z</time>
      </trkpt>
      <trkpt lat="45.95606" lon="4.75616">
        <ele>188</ele>
        <time>2017-12-05T09:44:27Z</time>
      </trkpt>
      <trkpt lat="45.95607" lon="4.75622">
        <ele>188</ele>
        <time>2017-12-05T09:44:28Z</time>
      </trkpt>
      <trkpt lat="45.9561" lon="4.75629">
        <ele>188</ele>
        <time>2017-12-05T09:44:29Z</time>
      </trkpt>
      <trkpt lat="45.95611" lon="4.75636">
        <ele>188</ele>
        <time>2017-12-05T09:44:30Z</time>
      </trkpt>
      <trkpt lat="45.95614" lon="4.75642">
        <ele>188</ele>
        <time>2017-12-05T09:44:31Z</time>
      </trkpt>
      <trkpt lat="45.95615" lon="4.75648">
        <ele>188</ele>
        <time>2017-12-05T09:44:32Z</time>
      </trkpt>
      <trkpt lat="45.95618" lon="4.7566">
        <ele>188</ele>
        <time>2017-12-05T09:44:34Z</time>
      </trkpt>
      <trkpt lat="45.95619" lon="4.75667">
        <ele>188</ele>
        <time>2017-12-05T09:44:35Z</time>
      </trkpt>
      <trkpt lat="45.9562" lon="4.75679">
        <ele>187</ele>
        <time>2017-12-05T09:44:37Z</time>
      </trkpt>
      <trkpt lat="45.95621" lon="4.75687">
        <ele>187</ele>
        <time>2017-12-05T09:44:38Z</time>
      </trkpt>
      <trkpt lat="45.95622" lon="4.75694">
        <ele>187</ele>
        <time>2017-12-05T09:44:39Z</time>
      </trkpt>
      <trkpt lat="45.95622" lon="4.75701">
        <ele>187</ele>
        <time>2017-12-05T09:44:40Z</time>
      </trkpt>
      <trkpt lat="45.95623" lon="4.75709">
        <ele>187</ele>
        <time>2017-12-05T09:44:41Z</time>
      </trkpt>
      <trkpt lat="45.95625" lon="4.75716">
        <ele>187</ele>
        <time>2017-12-05T09:44:42Z</time>
      </trkpt>
      <trkpt lat="45.95626" lon="4.75724">
        <ele>187</ele>
        <time>2017-12-05T09:44:43Z</time>
      </trkpt>
      <trkpt lat="45.95627" lon="4.75732">
        <ele>187</ele>
        <time>2017-12-05T09:44:44Z</time>
      </trkpt>
      <trkpt lat="45.95628" lon="4.75739">
        <ele>187</ele>
        <time>2017-12-05T09:44:45Z</time>
      </trkpt>
      <trkpt lat="45.9563" lon="4.75746">
        <ele>187</ele>
        <time>2017-12-05T09:44:46Z</time>
      </trkpt>
      <trkpt lat="45.95631" lon="4.75753">
        <ele>186</ele>
        <time>2017-12-05T09:44:47Z</time>
      </trkpt>
      <trkpt lat="45.95632" lon="4.7576">
        <ele>186</ele>
        <time>2017-12-05T09:44:48Z</time>
      </trkpt>
      <trkpt lat="45.95635" lon="4.75769">
        <ele>186</ele>
        <time>2017-12-05T09:44:49Z</time>
      </trkpt>
      <trkpt lat="45.95635" lon="4.75776">
        <ele>185</ele>
        <time>2017-12-05T09:44:50Z</time>
      </trkpt>
      <trkpt lat="45.95637" lon="4.75788">
        <ele>185</ele>
        <time>2017-12-05T09:44:52Z</time>
      </trkpt>
      <trkpt lat="45.95638" lon="4.75795">
        <ele>185</ele>
        <time>2017-12-05T09:44:53Z</time>
      </trkpt>
      <trkpt lat="45.95639" lon="4.75803">
        <ele>185</ele>
        <time>2017-12-05T09:44:54Z</time>
      </trkpt>
      <trkpt lat="45.95641" lon="4.7581">
        <ele>185</ele>
        <time>2017-12-05T09:44:55Z</time>
      </trkpt>
      <trkpt lat="45.95642" lon="4.75818">
        <ele>185</ele>
        <time>2017-12-05T09:44:56Z</time>
      </trkpt>
      <trkpt lat="45.95643" lon="4.75825">
        <ele>185</ele>
        <time>2017-12-05T09:44:57Z</time>
      </trkpt>
      <trkpt lat="45.95646" lon="4.75833">
        <ele>185</ele>
        <time>2017-12-05T09:44:58Z</time>
      </trkpt>
      <trkpt lat="45.95647" lon="4.7584">
        <ele>185</ele>
        <time>2017-12-05T09:44:59Z</time>
      </trkpt>
      <trkpt lat="45.9565" lon="4.75849">
        <ele>184</ele>
        <time>2017-12-05T09:45:00Z</time>
      </trkpt>
      <trkpt lat="45.95652" lon="4.75856">
        <ele>184</ele>
        <time>2017-12-05T09:45:01Z</time>
      </trkpt>
      <trkpt lat="45.95654" lon="4.75863">
        <ele>184</ele>
        <time>2017-12-05T09:45:02Z</time>
      </trkpt>
      <trkpt lat="45.95656" lon="4.75869">
        <ele>184</ele>
        <time>2017-12-05T09:45:03Z</time>
      </trkpt>
      <trkpt lat="45.95657" lon="4.75876">
        <ele>184</ele>
        <time>2017-12-05T09:45:04Z</time>
      </trkpt>
      <trkpt lat="45.95659" lon="4.75882">
        <ele>184</ele>
        <time>2017-12-05T09:45:05Z</time>
      </trkpt>
      <trkpt lat="45.95661" lon="4.75888">
        <ele>184</ele>
        <time>2017-12-05T09:45:06Z</time>
      </trkpt>
      <trkpt lat="45.95663" lon="4.75894">
        <ele>184</ele>
        <time>2017-12-05T09:45:07Z</time>
      </trkpt>
      <trkpt lat="45.95665" lon="4.759">
        <ele>184</ele>
        <time>2017-12-05T09:45:08Z</time>
      </trkpt>
      <trkpt lat="45.95667" lon="4.75906">
        <ele>185</ele>
        <time>2017-12-05T09:45:09Z</time>
      </trkpt>
      <trkpt lat="45.9567" lon="4.75913">
        <ele>184</ele>
        <time>2017-12-05T09:45:10Z</time>
      </trkpt>
      <trkpt lat="45.95672" lon="4.75922">
        <ele>184</ele>
        <time>2017-12-05T09:45:11Z</time>
      </trkpt>
      <trkpt lat="45.95675" lon="4.75929">
        <ele>185</ele>
        <time>2017-12-05T09:45:12Z</time>
      </trkpt>
      <trkpt lat="45.95678" lon="4.75937">
        <ele>185</ele>
        <time>2017-12-05T09:45:13Z</time>
      </trkpt>
      <trkpt lat="45.95682" lon="4.75944">
        <ele>185</ele>
        <time>2017-12-05T09:45:14Z</time>
      </trkpt>
      <trkpt lat="45.95685" lon="4.75951">
        <ele>185</ele>
        <time>2017-12-05T09:45:15Z</time>
      </trkpt>
      <trkpt lat="45.95688" lon="4.75958">
        <ele>185</ele>
        <time>2017-12-05T09:45:16Z</time>
      </trkpt>
      <trkpt lat="45.95691" lon="4.75964">
        <ele>185</ele>
        <time>2017-12-05T09:45:17Z</time>
      </trkpt>
      <trkpt lat="45.95694" lon="4.75971">
        <ele>185</ele>
        <time>2017-12-05T09:45:18Z</time>
      </trkpt>
      <trkpt lat="45.95696" lon="4.75977">
        <ele>185</ele>
        <time>2017-12-05T09:45:19Z</time>
      </trkpt>
      <trkpt lat="45.957" lon="4.75984">
        <ele>185</ele>
        <time>2017-12-05T09:45:20Z</time>
      </trkpt>
      <trkpt lat="45.95703" lon="4.75989">
        <ele>185</ele>
        <time>2017-12-05T09:45:21Z</time>
      </trkpt>
      <trkpt lat="45.95706" lon="4.75996">
        <ele>185</ele>
        <time>2017-12-05T09:45:22Z</time>
      </trkpt>
      <trkpt lat="45.9571" lon="4.76002">
        <ele>184</ele>
        <time>2017-12-05T09:45:23Z</time>
      </trkpt>
      <trkpt lat="45.95713" lon="4.76007">
        <ele>184</ele>
        <time>2017-12-05T09:45:24Z</time>
      </trkpt>
      <trkpt lat="45.95715" lon="4.76013">
        <ele>184</ele>
        <time>2017-12-05T09:45:25Z</time>
      </trkpt>
      <trkpt lat="45.9572" lon="4.76023">
        <ele>184</ele>
        <time>2017-12-05T09:45:27Z</time>
      </trkpt>
      <trkpt lat="45.95723" lon="4.76029">
        <ele>184</ele>
        <time>2017-12-05T09:45:28Z</time>
      </trkpt>
      <trkpt lat="45.95725" lon="4.76035">
        <ele>184</ele>
        <time>2017-12-05T09:45:29Z</time>
      </trkpt>
      <trkpt lat="45.95727" lon="4.76041">
        <ele>184</ele>
        <time>2017-12-05T09:45:30Z</time>
      </trkpt>
      <trkpt lat="45.95729" lon="4.76047">
        <ele>184</ele>
        <time>2017-12-05T09:45:31Z</time>
      </trkpt>
      <trkpt lat="45.95732" lon="4.76052">
        <ele>184</ele>
        <time>2017-12-05T09:45:32Z</time>
      </trkpt>
      <trkpt lat="45.95734" lon="4.76059">
        <ele>184</ele>
        <time>2017-12-05T09:45:33Z</time>
      </trkpt>
      <trkpt lat="45.95736" lon="4.76063">
        <ele>184</ele>
        <time>2017-12-05T09:45:34Z</time>
      </trkpt>
      <trkpt lat="45.95739" lon="4.76069">
        <ele>184</ele>
        <time>2017-12-05T09:45:35Z</time>
      </trkpt>
      <trkpt lat="45.95742" lon="4.76074">
        <ele>185</ele>
        <time>2017-12-05T09:45:36Z</time>
      </trkpt>
      <trkpt lat="45.95745" lon="4.76079">
        <ele>185</ele>
        <time>2017-12-05T09:45:37Z</time>
      </trkpt>
      <trkpt lat="45.95747" lon="4.76085">
        <ele>185</ele>
        <time>2017-12-05T09:45:38Z</time>
      </trkpt>
      <trkpt lat="45.9575" lon="4.7609">
        <ele>185</ele>
        <time>2017-12-05T09:45:39Z</time>
      </trkpt>
      <trkpt lat="45.95752" lon="4.76097">
        <ele>186</ele>
        <time>2017-12-05T09:45:40Z</time>
      </trkpt>
      <trkpt lat="45.95755" lon="4.76109">
        <ele>186</ele>
        <time>2017-12-05T09:45:42Z</time>
      </trkpt>
      <trkpt lat="45.95756" lon="4.76115">
        <ele>186</ele>
        <time>2017-12-05T09:45:43Z</time>
      </trkpt>
      <trkpt lat="45.95757" lon="4.76121">
        <ele>186</ele>
        <time>2017-12-05T09:45:44Z</time>
      </trkpt>
      <trkpt lat="45.95759" lon="4.76129">
        <ele>186</ele>
        <time>2017-12-05T09:45:45Z</time>
      </trkpt>
      <trkpt lat="45.95759" lon="4.76136">
        <ele>186</ele>
        <time>2017-12-05T09:45:46Z</time>
      </trkpt>
      <trkpt lat="45.9576" lon="4.76144">
        <ele>186</ele>
        <time>2017-12-05T09:45:47Z</time>
      </trkpt>
      <trkpt lat="45.95761" lon="4.7615">
        <ele>186</ele>
        <time>2017-12-05T09:45:48Z</time>
      </trkpt>
      <trkpt lat="45.95762" lon="4.76158">
        <ele>186</ele>
        <time>2017-12-05T09:45:49Z</time>
      </trkpt>
      <trkpt lat="45.95762" lon="4.76166">
        <ele>186</ele>
        <time>2017-12-05T09:45:50Z</time>
      </trkpt>
      <trkpt lat="45.95763" lon="4.76173">
        <ele>185</ele>
        <time>2017-12-05T09:45:51Z</time>
      </trkpt>
      <trkpt lat="45.95764" lon="4.76181">
        <ele>186</ele>
        <time>2017-12-05T09:45:52Z</time>
      </trkpt>
      <trkpt lat="45.95763" lon="4.76187">
        <ele>186</ele>
        <time>2017-12-05T09:45:53Z</time>
      </trkpt>
      <trkpt lat="45.95763" lon="4.76199">
        <ele>186</ele>
        <time>2017-12-05T09:45:55Z</time>
      </trkpt>
      <trkpt lat="45.95763" lon="4.76205">
        <ele>186</ele>
        <time>2017-12-05T09:45:56Z</time>
      </trkpt>
      <trkpt lat="45.95764" lon="4.76216">
        <ele>186</ele>
        <time>2017-12-05T09:45:58Z</time>
      </trkpt>
      <trkpt lat="45.95764" lon="4.76222">
        <ele>186</ele>
        <time>2017-12-05T09:45:59Z</time>
      </trkpt>
      <trkpt lat="45.95765" lon="4.76234">
        <ele>186</ele>
        <time>2017-12-05T09:46:01Z</time>
      </trkpt>
      <trkpt lat="45.95765" lon="4.7624">
        <ele>186</ele>
        <time>2017-12-05T09:46:02Z</time>
      </trkpt>
      <trkpt lat="45.95766" lon="4.76247">
        <ele>186</ele>
        <time>2017-12-05T09:46:03Z</time>
      </trkpt>
      <trkpt lat="45.95767" lon="4.76254">
        <ele>185</ele>
        <time>2017-12-05T09:46:04Z</time>
      </trkpt>
      <trkpt lat="45.95768" lon="4.7626">
        <ele>185</ele>
        <time>2017-12-05T09:46:05Z</time>
      </trkpt>
      <trkpt lat="45.95768" lon="4.76269">
        <ele>186</ele>
        <time>2017-12-05T09:46:06Z</time>
      </trkpt>
      <trkpt lat="45.95768" lon="4.76277">
        <ele>186</ele>
        <time>2017-12-05T09:46:07Z</time>
      </trkpt>
      <trkpt lat="45.95769" lon="4.76284">
        <ele>186</ele>
        <time>2017-12-05T09:46:08Z</time>
      </trkpt>
      <trkpt lat="45.95769" lon="4.76291">
        <ele>186</ele>
        <time>2017-12-05T09:46:09Z</time>
      </trkpt>
      <trkpt lat="45.95769" lon="4.76298">
        <ele>186</ele>
        <time>2017-12-05T09:46:10Z</time>
      </trkpt>
      <trkpt lat="45.9577" lon="4.76311">
        <ele>185</ele>
        <time>2017-12-05T09:46:12Z</time>
      </trkpt>
      <trkpt lat="45.9577" lon="4.76317">
        <ele>185</ele>
        <time>2017-12-05T09:46:13Z</time>
      </trkpt>
      <trkpt lat="45.9577" lon="4.76324">
        <ele>185</ele>
        <time>2017-12-05T09:46:14Z</time>
      </trkpt>
      <trkpt lat="45.9577" lon="4.76332">
        <ele>185</ele>
        <time>2017-12-05T09:46:15Z</time>
      </trkpt>
      <trkpt lat="45.95772" lon="4.76338">
        <ele>186</ele>
        <time>2017-12-05T09:46:16Z</time>
      </trkpt>
      <trkpt lat="45.95773" lon="4.76345">
        <ele>186</ele>
        <time>2017-12-05T09:46:17Z</time>
      </trkpt>
      <trkpt lat="45.95774" lon="4.76353">
        <ele>186</ele>
        <time>2017-12-05T09:46:18Z</time>
      </trkpt>
      <trkpt lat="45.95774" lon="4.76359">
        <ele>186</ele>
        <time>2017-12-05T09:46:19Z</time>
      </trkpt>
      <trkpt lat="45.95774" lon="4.76371">
        <ele>186</ele>
        <time>2017-12-05T09:46:21Z</time>
      </trkpt>
      <trkpt lat="45.95775" lon="4.76378">
        <ele>186</ele>
        <time>2017-12-05T09:46:22Z</time>
      </trkpt>
      <trkpt lat="45.95775" lon="4.76385">
        <ele>186</ele>
        <time>2017-12-05T09:46:23Z</time>
      </trkpt>
      <trkpt lat="45.95775" lon="4.76391">
        <ele>186</ele>
        <time>2017-12-05T09:46:24Z</time>
      </trkpt>
      <trkpt lat="45.95774" lon="4.76404">
        <ele>186</ele>
        <time>2017-12-05T09:46:26Z</time>
      </trkpt>
      <trkpt lat="45.95775" lon="4.7641">
        <ele>186</ele>
        <time>2017-12-05T09:46:27Z</time>
      </trkpt>
      <trkpt lat="45.95775" lon="4.76423">
        <ele>186</ele>
        <time>2017-12-05T09:46:29Z</time>
      </trkpt>
      <trkpt lat="45.95776" lon="4.76429">
        <ele>186</ele>
        <time>2017-12-05T09:46:30Z</time>
      </trkpt>
      <trkpt lat="45.95777" lon="4.76441">
        <ele>186</ele>
        <time>2017-12-05T09:46:32Z</time>
      </trkpt>
      <trkpt lat="45.95778" lon="4.76447">
        <ele>186</ele>
        <time>2017-12-05T09:46:33Z</time>
      </trkpt>
      <trkpt lat="45.95779" lon="4.76454">
        <ele>186</ele>
        <time>2017-12-05T09:46:34Z</time>
      </trkpt>
      <trkpt lat="45.95779" lon="4.76461">
        <ele>186</ele>
        <time>2017-12-05T09:46:35Z</time>
      </trkpt>
      <trkpt lat="45.95781" lon="4.76469">
        <ele>186</ele>
        <time>2017-12-05T09:46:36Z</time>
      </trkpt>
      <trkpt lat="45.95782" lon="4.76476">
        <ele>186</ele>
        <time>2017-12-05T09:46:37Z</time>
      </trkpt>
      <trkpt lat="45.95783" lon="4.76483">
        <ele>186</ele>
        <time>2017-12-05T09:46:38Z</time>
      </trkpt>
      <trkpt lat="45.95784" lon="4.76489">
        <ele>186</ele>
        <time>2017-12-05T09:46:39Z</time>
      </trkpt>
      <trkpt lat="45.95786" lon="4.76501">
        <ele>187</ele>
        <time>2017-12-05T09:46:41Z</time>
      </trkpt>
      <trkpt lat="45.95788" lon="4.76506">
        <ele>187</ele>
        <time>2017-12-05T09:46:42Z</time>
      </trkpt>
      <trkpt lat="45.9579" lon="4.76518">
        <ele>187</ele>
        <time>2017-12-05T09:46:44Z</time>
      </trkpt>
      <trkpt lat="45.9579" lon="4.76524">
        <ele>187</ele>
        <time>2017-12-05T09:46:45Z</time>
      </trkpt>
      <trkpt lat="45.95791" lon="4.76531">
        <ele>187</ele>
        <time>2017-12-05T09:46:46Z</time>
      </trkpt>
      <trkpt lat="45.95792" lon="4.76538">
        <ele>187</ele>
        <time>2017-12-05T09:46:47Z</time>
      </trkpt>
      <trkpt lat="45.95794" lon="4.76545">
        <ele>187</ele>
        <time>2017-12-05T09:46:48Z</time>
      </trkpt>
      <trkpt lat="45.95795" lon="4.76552">
        <ele>187</ele>
        <time>2017-12-05T09:46:49Z</time>
      </trkpt>
      <trkpt lat="45.95795" lon="4.76559">
        <ele>187</ele>
        <time>2017-12-05T09:46:50Z</time>
      </trkpt>
      <trkpt lat="45.95796" lon="4.76566">
        <ele>187</ele>
        <time>2017-12-05T09:46:51Z</time>
      </trkpt>
      <trkpt lat="45.95798" lon="4.76574">
        <ele>187</ele>
        <time>2017-12-05T09:46:52Z</time>
      </trkpt>
      <trkpt lat="45.95798" lon="4.76582">
        <ele>187</ele>
        <time>2017-12-05T09:46:53Z</time>
      </trkpt>
      <trkpt lat="45.95799" lon="4.76588">
        <ele>187</ele>
        <time>2017-12-05T09:46:54Z</time>
      </trkpt>
      <trkpt lat="45.958" lon="4.76594">
        <ele>187</ele>
        <time>2017-12-05T09:46:55Z</time>
      </trkpt>
      <trkpt lat="45.95801" lon="4.76602">
        <ele>187</ele>
        <time>2017-12-05T09:46:56Z</time>
      </trkpt>
      <trkpt lat="45.95801" lon="4.76609">
        <ele>188</ele>
        <time>2017-12-05T09:46:57Z</time>
      </trkpt>
      <trkpt lat="45.95802" lon="4.76615">
        <ele>188</ele>
        <time>2017-12-05T09:46:58Z</time>
      </trkpt>
      <trkpt lat="45.95803" lon="4.76622">
        <ele>188</ele>
        <time>2017-12-05T09:46:59Z</time>
      </trkpt>
      <trkpt lat="45.95805" lon="4.76628">
        <ele>188</ele>
        <time>2017-12-05T09:47:00Z</time>
      </trkpt>
      <trkpt lat="45.95806" lon="4.76635">
        <ele>188</ele>
        <time>2017-12-05T09:47:01Z</time>
      </trkpt>
      <trkpt lat="45.95806" lon="4.76642">
        <ele>188</ele>
        <time>2017-12-05T09:47:02Z</time>
      </trkpt>
      <trkpt lat="45.95807" lon="4.76648">
        <ele>188</ele>
        <time>2017-12-05T09:47:03Z</time>
      </trkpt>
      <trkpt lat="45.95808" lon="4.7666">
        <ele>188</ele>
        <time>2017-12-05T09:47:05Z</time>
      </trkpt>
      <trkpt lat="45.95809" lon="4.76667">
        <ele>189</ele>
        <time>2017-12-05T09:47:06Z</time>
      </trkpt>
      <trkpt lat="45.9581" lon="4.76673">
        <ele>189</ele>
        <time>2017-12-05T09:47:07Z</time>
      </trkpt>
      <trkpt lat="45.95812" lon="4.7668">
        <ele>189</ele>
        <time>2017-12-05T09:47:08Z</time>
      </trkpt>
      <trkpt lat="45.95813" lon="4.76687">
        <ele>189</ele>
        <time>2017-12-05T09:47:09Z</time>
      </trkpt>
      <trkpt lat="45.95814" lon="4.76693">
        <ele>189</ele>
        <time>2017-12-05T09:47:10Z</time>
      </trkpt>
      <trkpt lat="45.95814" lon="4.76699">
        <ele>189</ele>
        <time>2017-12-05T09:47:11Z</time>
      </trkpt>
      <trkpt lat="45.95815" lon="4.76706">
        <ele>189</ele>
        <time>2017-12-05T09:47:12Z</time>
      </trkpt>
      <trkpt lat="45.95817" lon="4.76713">
        <ele>189</ele>
        <time>2017-12-05T09:47:13Z</time>
      </trkpt>
      <trkpt lat="45.95817" lon="4.7672">
        <ele>189</ele>
        <time>2017-12-05T09:47:14Z</time>
      </trkpt>
      <trkpt lat="45.95818" lon="4.76727">
        <ele>190</ele>
        <time>2017-12-05T09:47:15Z</time>
      </trkpt>
      <trkpt lat="45.95819" lon="4.76733">
        <ele>190</ele>
        <time>2017-12-05T09:47:16Z</time>
      </trkpt>
      <trkpt lat="45.95819" lon="4.7674">
        <ele>190</ele>
        <time>2017-12-05T09:47:17Z</time>
      </trkpt>
      <trkpt lat="45.9582" lon="4.76747">
        <ele>190</ele>
        <time>2017-12-05T09:47:18Z</time>
      </trkpt>
      <trkpt lat="45.95821" lon="4.76753">
        <ele>190</ele>
        <time>2017-12-05T09:47:19Z</time>
      </trkpt>
      <trkpt lat="45.95823" lon="4.76761">
        <ele>190</ele>
        <time>2017-12-05T09:47:20Z</time>
      </trkpt>
      <trkpt lat="45.95824" lon="4.76767">
        <ele>190</ele>
        <time>2017-12-05T09:47:21Z</time>
      </trkpt>
      <trkpt lat="45.95826" lon="4.76774">
        <ele>190</ele>
        <time>2017-12-05T09:47:22Z</time>
      </trkpt>
      <trkpt lat="45.9583" lon="4.7678">
        <ele>190</ele>
        <time>2017-12-05T09:47:23Z</time>
      </trkpt>
      <trkpt lat="45.95833" lon="4.76786">
        <ele>190</ele>
        <time>2017-12-05T09:47:24Z</time>
      </trkpt>
      <trkpt lat="45.95836" lon="4.76791">
        <ele>191</ele>
        <time>2017-12-05T09:47:25Z</time>
      </trkpt>
      <trkpt lat="45.9584" lon="4.76795">
        <ele>191</ele>
        <time>2017-12-05T09:47:26Z</time>
      </trkpt>
      <trkpt lat="45.95844" lon="4.768">
        <ele>191</ele>
        <time>2017-12-05T09:47:27Z</time>
      </trkpt>
      <trkpt lat="45.95848" lon="4.76804">
        <ele>191</ele>
        <time>2017-12-05T09:47:28Z</time>
      </trkpt>
      <trkpt lat="45.95854" lon="4.76812">
        <ele>191</ele>
        <time>2017-12-05T09:47:30Z</time>
      </trkpt>
      <trkpt lat="45.95858" lon="4.76816">
        <ele>191</ele>
        <time>2017-12-05T09:47:31Z</time>
      </trkpt>
      <trkpt lat="45.95862" lon="4.7682">
        <ele>191</ele>
        <time>2017-12-05T09:47:32Z</time>
      </trkpt>
      <trkpt lat="45.95866" lon="4.76824">
        <ele>191</ele>
        <time>2017-12-05T09:47:33Z</time>
      </trkpt>
      <trkpt lat="45.95872" lon="4.76832">
        <ele>191</ele>
        <time>2017-12-05T09:47:35Z</time>
      </trkpt>
      <trkpt lat="45.95876" lon="4.76835">
        <ele>191</ele>
        <time>2017-12-05T09:47:36Z</time>
      </trkpt>
      <trkpt lat="45.95883" lon="4.76842">
        <ele>191</ele>
        <time>2017-12-05T09:47:38Z</time>
      </trkpt>
      <trkpt lat="45.95886" lon="4.76846">
        <ele>191</ele>
        <time>2017-12-05T09:47:39Z</time>
      </trkpt>
      <trkpt lat="45.95893" lon="4.76854">
        <ele>191</ele>
        <time>2017-12-05T09:47:41Z</time>
      </trkpt>
      <trkpt lat="45.95897" lon="4.76858">
        <ele>191</ele>
        <time>2017-12-05T09:47:42Z</time>
      </trkpt>
      <trkpt lat="45.95903" lon="4.76865">
        <ele>191</ele>
        <time>2017-12-05T09:47:44Z</time>
      </trkpt>
      <trkpt lat="45.95907" lon="4.76869">
        <ele>191</ele>
        <time>2017-12-05T09:47:45Z</time>
      </trkpt>
      <trkpt lat="45.95913" lon="4.76876">
        <ele>191</ele>
        <time>2017-12-05T09:47:47Z</time>
      </trkpt>
      <trkpt lat="45.95917" lon="4.7688">
        <ele>192</ele>
        <time>2017-12-05T09:47:48Z</time>
      </trkpt>
      <trkpt lat="45.95924" lon="4.76887">
        <ele>192</ele>
        <time>2017-12-05T09:47:50Z</time>
      </trkpt>
      <trkpt lat="45.95927" lon="4.76891">
        <ele>192</ele>
        <time>2017-12-05T09:47:51Z</time>
      </trkpt>
      <trkpt lat="45.95934" lon="4.76898">
        <ele>192</ele>
        <time>2017-12-05T09:47:53Z</time>
      </trkpt>
      <trkpt lat="45.95937" lon="4.76902">
        <ele>192</ele>
        <time>2017-12-05T09:47:54Z</time>
      </trkpt>
      <trkpt lat="45.95943" lon="4.76909">
        <ele>192</ele>
        <time>2017-12-05T09:47:56Z</time>
      </trkpt>
      <trkpt lat="45.95945" lon="4.76913">
        <ele>192</ele>
        <time>2017-12-05T09:47:57Z</time>
      </trkpt>
      <trkpt lat="45.95951" lon="4.76919">
        <ele>194</ele>
        <time>2017-12-05T09:47:59Z</time>
      </trkpt>
      <trkpt lat="45.95954" lon="4.76922">
        <ele>195</ele>
        <time>2017-12-05T09:48:00Z</time>
      </trkpt>
      <trkpt lat="45.95959" lon="4.76929">
        <ele>195</ele>
        <time>2017-12-05T09:48:02Z</time>
      </trkpt>
      <trkpt lat="45.95962" lon="4.76932">
        <ele>195</ele>
        <time>2017-12-05T09:48:03Z</time>
      </trkpt>
      <trkpt lat="45.95967" lon="4.76938">
        <ele>195</ele>
        <time>2017-12-05T09:48:05Z</time>
      </trkpt>
      <trkpt lat="45.9597" lon="4.76942">
        <ele>196</ele>
        <time>2017-12-05T09:48:06Z</time>
      </trkpt>
      <trkpt lat="45.95975" lon="4.76948">
        <ele>196</ele>
        <time>2017-12-05T09:48:08Z</time>
      </trkpt>
      <trkpt lat="45.95977" lon="4.76952">
        <ele>196</ele>
        <time>2017-12-05T09:48:09Z</time>
      </trkpt>
      <trkpt lat="45.95981" lon="4.76961">
        <ele>196</ele>
        <time>2017-12-05T09:48:11Z</time>
      </trkpt>
      <trkpt lat="45.95982" lon="4.76966">
        <ele>197</ele>
        <time>2017-12-05T09:48:12Z</time>
      </trkpt>
      <trkpt lat="45.95983" lon="4.76977">
        <ele>197</ele>
        <time>2017-12-05T09:48:14Z</time>
      </trkpt>
      <trkpt lat="45.95983" lon="4.76981">
        <ele>197</ele>
        <time>2017-12-05T09:48:15Z</time>
      </trkpt>
      <trkpt lat="45.95982" lon="4.76991">
        <ele>198</ele>
        <time>2017-12-05T09:48:17Z</time>
      </trkpt>
      <trkpt lat="45.9598" lon="4.76995">
        <ele>198</ele>
        <time>2017-12-05T09:48:18Z</time>
      </trkpt>
      <trkpt lat="45.95978" lon="4.77004">
        <ele>200</ele>
        <time>2017-12-05T09:48:20Z</time>
      </trkpt>
      <trkpt lat="45.95977" lon="4.77008">
        <ele>200</ele>
        <time>2017-12-05T09:48:21Z</time>
      </trkpt>
      <trkpt lat="45.95975" lon="4.77016">
        <ele>200</ele>
        <time>2017-12-05T09:48:23Z</time>
      </trkpt>
      <trkpt lat="45.95973" lon="4.77021">
        <ele>200</ele>
        <time>2017-12-05T09:48:24Z</time>
      </trkpt>
      <trkpt lat="45.95971" lon="4.77029">
        <ele>200</ele>
        <time>2017-12-05T09:48:26Z</time>
      </trkpt>
      <trkpt lat="45.95969" lon="4.77034">
        <ele>200</ele>
        <time>2017-12-05T09:48:27Z</time>
      </trkpt>
      <trkpt lat="45.95966" lon="4.77042">
        <ele>200</ele>
        <time>2017-12-05T09:48:29Z</time>
      </trkpt>
      <trkpt lat="45.95964" lon="4.77045">
        <ele>200</ele>
        <time>2017-12-05T09:48:30Z</time>
      </trkpt>
      <trkpt lat="45.95959" lon="4.77055">
        <ele>200</ele>
        <time>2017-12-05T09:48:33Z</time>
      </trkpt>
      <trkpt lat="45.95957" lon="4.77059">
        <ele>200</ele>
        <time>2017-12-05T09:48:34Z</time>
      </trkpt>
      <trkpt lat="45.95953" lon="4.77066">
        <ele>200</ele>
        <time>2017-12-05T09:48:36Z</time>
      </trkpt>
      <trkpt lat="45.95952" lon="4.7707">
        <ele>200</ele>
        <time>2017-12-05T09:48:37Z</time>
      </trkpt>
      <trkpt lat="45.95949" lon="4.77079">
        <ele>200</ele>
        <time>2017-12-05T09:48:39Z</time>
      </trkpt>
      <trkpt lat="45.95948" lon="4.77084">
        <ele>201</ele>
        <time>2017-12-05T09:48:40Z</time>
      </trkpt>
      <trkpt lat="45.95947" lon="4.77095">
        <ele>201</ele>
        <time>2017-12-05T09:48:42Z</time>
      </trkpt>
      <trkpt lat="45.95946" lon="4.771">
        <ele>201</ele>
        <time>2017-12-05T09:48:43Z</time>
      </trkpt>
      <trkpt lat="45.95944" lon="4.77109">
        <ele>201</ele>
        <time>2017-12-05T09:48:45Z</time>
      </trkpt>
      <trkpt lat="45.95944" lon="4.77114">
        <ele>201</ele>
        <time>2017-12-05T09:48:46Z</time>
      </trkpt>
      <trkpt lat="45.95943" lon="4.77124">
        <ele>201</ele>
        <time>2017-12-05T09:48:48Z</time>
      </trkpt>
      <trkpt lat="45.95943" lon="4.77129">
        <ele>201</ele>
        <time>2017-12-05T09:48:49Z</time>
      </trkpt>
      <trkpt lat="45.95943" lon="4.77139">
        <ele>201</ele>
        <time>2017-12-05T09:48:51Z</time>
      </trkpt>
      <trkpt lat="45.95943" lon="4.77144">
        <ele>201</ele>
        <time>2017-12-05T09:48:52Z</time>
      </trkpt>
      <trkpt lat="45.95944" lon="4.77155">
        <ele>201</ele>
        <time>2017-12-05T09:48:54Z</time>
      </trkpt>
      <trkpt lat="45.95945" lon="4.7716">
        <ele>201</ele>
        <time>2017-12-05T09:48:55Z</time>
      </trkpt>
      <trkpt lat="45.95946" lon="4.77171">
        <ele>200</ele>
        <time>2017-12-05T09:48:57Z</time>
      </trkpt>
      <trkpt lat="45.95947" lon="4.77176">
        <ele>200</ele>
        <time>2017-12-05T09:48:58Z</time>
      </trkpt>
      <trkpt lat="45.95949" lon="4.77187">
        <ele>201</ele>
        <time>2017-12-05T09:49:00Z</time>
      </trkpt>
      <trkpt lat="45.9595" lon="4.77192">
        <ele>201</ele>
        <time>2017-12-05T09:49:01Z</time>
      </trkpt>
      <trkpt lat="45.95953" lon="4.77201">
        <ele>201</ele>
        <time>2017-12-05T09:49:03Z</time>
      </trkpt>
      <trkpt lat="45.95955" lon="4.77206">
        <ele>201</ele>
        <time>2017-12-05T09:49:04Z</time>
      </trkpt>
      <trkpt lat="45.95958" lon="4.77214">
        <ele>201</ele>
        <time>2017-12-05T09:49:06Z</time>
      </trkpt>
      <trkpt lat="45.95961" lon="4.77218">
        <ele>201</ele>
        <time>2017-12-05T09:49:07Z</time>
      </trkpt>
      <trkpt lat="45.95965" lon="4.77225">
        <ele>201</ele>
        <time>2017-12-05T09:49:09Z</time>
      </trkpt>
      <trkpt lat="45.95968" lon="4.77228">
        <ele>201</ele>
        <time>2017-12-05T09:49:10Z</time>
      </trkpt>
      <trkpt lat="45.95974" lon="4.77235">
        <ele>202</ele>
        <time>2017-12-05T09:49:12Z</time>
      </trkpt>
      <trkpt lat="45.95977" lon="4.77237">
        <ele>202</ele>
        <time>2017-12-05T09:49:13Z</time>
      </trkpt>
      <trkpt lat="45.95984" lon="4.77242">
        <ele>202</ele>
        <time>2017-12-05T09:49:15Z</time>
      </trkpt>
      <trkpt lat="45.95988" lon="4.77244">
        <ele>202</ele>
        <time>2017-12-05T09:49:16Z</time>
      </trkpt>
      <trkpt lat="45.95995" lon="4.77248">
        <ele>203</ele>
        <time>2017-12-05T09:49:18Z</time>
      </trkpt>
      <trkpt lat="45.95999" lon="4.77249">
        <ele>203</ele>
        <time>2017-12-05T09:49:19Z</time>
      </trkpt>
      <trkpt lat="45.96005" lon="4.77252">
        <ele>203</ele>
        <time>2017-12-05T09:49:21Z</time>
      </trkpt>
      <trkpt lat="45.96009" lon="4.77253">
        <ele>204</ele>
        <time>2017-12-05T09:49:22Z</time>
      </trkpt>
      <trkpt lat="45.96015" lon="4.77254">
        <ele>204</ele>
        <time>2017-12-05T09:49:24Z</time>
      </trkpt>
      <trkpt lat="45.96018" lon="4.77255">
        <ele>204</ele>
        <time>2017-12-05T09:49:25Z</time>
      </trkpt>
      <trkpt lat="45.96025" lon="4.77255">
        <ele>204</ele>
        <time>2017-12-05T09:49:27Z</time>
      </trkpt>
      <trkpt lat="45.96028" lon="4.77255">
        <ele>205</ele>
        <time>2017-12-05T09:49:28Z</time>
      </trkpt>
      <trkpt lat="45.96034" lon="4.77255">
        <ele>205</ele>
        <time>2017-12-05T09:49:30Z</time>
      </trkpt>
      <trkpt lat="45.96037" lon="4.77255">
        <ele>205</ele>
        <time>2017-12-05T09:49:31Z</time>
      </trkpt>
      <trkpt lat="45.96044" lon="4.77254">
        <ele>206</ele>
        <time>2017-12-05T09:49:33Z</time>
      </trkpt>
      <trkpt lat="45.96048" lon="4.77254">
        <ele>206</ele>
        <time>2017-12-05T09:49:34Z</time>
      </trkpt>
      <trkpt lat="45.96055" lon="4.77252">
        <ele>206</ele>
        <time>2017-12-05T09:49:36Z</time>
      </trkpt>
      <trkpt lat="45.96058" lon="4.77252">
        <ele>207</ele>
        <time>2017-12-05T09:49:37Z</time>
      </trkpt>
      <trkpt lat="45.96065" lon="4.77252">
        <ele>207</ele>
        <time>2017-12-05T09:49:39Z</time>
      </trkpt>
      <trkpt lat="45.96068" lon="4.77251">
        <ele>208</ele>
        <time>2017-12-05T09:49:40Z</time>
      </trkpt>
      <trkpt lat="45.96075" lon="4.7725">
        <ele>209</ele>
        <time>2017-12-05T09:49:42Z</time>
      </trkpt>
      <trkpt lat="45.96078" lon="4.77249">
        <ele>210</ele>
        <time>2017-12-05T09:49:43Z</time>
      </trkpt>
      <trkpt lat="45.96085" lon="4.77248">
        <ele>211</ele>
        <time>2017-12-05T09:49:45Z</time>
      </trkpt>
      <trkpt lat="45.96088" lon="4.77248">
        <ele>211</ele>
        <time>2017-12-05T09:49:46Z</time>
      </trkpt>
      <trkpt lat="45.96095" lon="4.77249">
        <ele>212</ele>
        <time>2017-12-05T09:49:48Z</time>
      </trkpt>
      <trkpt lat="45.96099" lon="4.77249">
        <ele>212</ele>
        <time>2017-12-05T09:49:49Z</time>
      </trkpt>
      <trkpt lat="45.96106" lon="4.77249">
        <ele>213</ele>
        <time>2017-12-05T09:49:51Z</time>
      </trkpt>
      <trkpt lat="45.96109" lon="4.77249">
        <ele>213</ele>
        <time>2017-12-05T09:49:52Z</time>
      </trkpt>
      <trkpt lat="45.96115" lon="4.7725">
        <ele>214</ele>
        <time>2017-12-05T09:49:54Z</time>
      </trkpt>
      <trkpt lat="45.96119" lon="4.7725">
        <ele>214</ele>
        <time>2017-12-05T09:49:55Z</time>
      </trkpt>
      <trkpt lat="45.96125" lon="4.77251">
        <ele>212</ele>
        <time>2017-12-05T09:49:57Z</time>
      </trkpt>
      <trkpt lat="45.96129" lon="4.77252">
        <ele>212</ele>
        <time>2017-12-05T09:49:58Z</time>
      </trkpt>
      <trkpt lat="45.96135" lon="4.77254">
        <ele>212</ele>
        <time>2017-12-05T09:50:00Z</time>
      </trkpt>
      <trkpt lat="45.96138" lon="4.77255">
        <ele>213</ele>
        <time>2017-12-05T09:50:01Z</time>
      </trkpt>
      <trkpt lat="45.96144" lon="4.77258">
        <ele>213</ele>
        <time>2017-12-05T09:50:03Z</time>
      </trkpt>
      <trkpt lat="45.96147" lon="4.77259">
        <ele>213</ele>
        <time>2017-12-05T09:50:04Z</time>
      </trkpt>
      <trkpt lat="45.96154" lon="4.77261">
        <ele>213</ele>
        <time>2017-12-05T09:50:06Z</time>
      </trkpt>
      <trkpt lat="45.96157" lon="4.77263">
        <ele>214</ele>
        <time>2017-12-05T09:50:07Z</time>
      </trkpt>
      <trkpt lat="45.96163" lon="4.77266">
        <ele>214</ele>
        <time>2017-12-05T09:50:09Z</time>
      </trkpt>
      <trkpt lat="45.96167" lon="4.77268">
        <ele>214</ele>
        <time>2017-12-05T09:50:10Z</time>
      </trkpt>
      <trkpt lat="45.96173" lon="4.77272">
        <ele>216</ele>
        <time>2017-12-05T09:50:12Z</time>
      </trkpt>
      <trkpt lat="45.96176" lon="4.77274">
        <ele>216</ele>
        <time>2017-12-05T09:50:13Z</time>
      </trkpt>
      <trkpt lat="45.96183" lon="4.77277">
        <ele>216</ele>
        <time>2017-12-05T09:50:15Z</time>
      </trkpt>
      <trkpt lat="45.96186" lon="4.77278">
        <ele>216</ele>
        <time>2017-12-05T09:50:16Z</time>
      </trkpt>
      <trkpt lat="45.96193" lon="4.77282">
        <ele>216</ele>
        <time>2017-12-05T09:50:18Z</time>
      </trkpt>
      <trkpt lat="45.96197" lon="4.77285">
        <ele>216</ele>
        <time>2017-12-05T09:50:19Z</time>
      </trkpt>
      <trkpt lat="45.96204" lon="4.77289">
        <ele>216</ele>
        <time>2017-12-05T09:50:21Z</time>
      </trkpt>
      <trkpt lat="45.96208" lon="4.7729">
        <ele>216</ele>
        <time>2017-12-05T09:50:22Z</time>
      </trkpt>
      <trkpt lat="45.96215" lon="4.77295">
        <ele>216</ele>
        <time>2017-12-05T09:50:24Z</time>
      </trkpt>
      <trkpt lat="45.96217" lon="4.77296">
        <ele>216</ele>
        <time>2017-12-05T09:50:25Z</time>
      </trkpt>
      <trkpt lat="45.96223" lon="4.77298">
        <ele>216</ele>
        <time>2017-12-05T09:50:27Z</time>
      </trkpt>
      <trkpt lat="45.96226" lon="4.773">
        <ele>216</ele>
        <time>2017-12-05T09:50:28Z</time>
      </trkpt>
      <trkpt lat="45.96233" lon="4.77304">
        <ele>216</ele>
        <time>2017-12-05T09:50:30Z</time>
      </trkpt>
      <trkpt lat="45.96236" lon="4.77305">
        <ele>216</ele>
        <time>2017-12-05T09:50:31Z</time>
      </trkpt>
      <trkpt lat="45.96242" lon="4.77309">
        <ele>216</ele>
        <time>2017-12-05T09:50:33Z</time>
      </trkpt>
      <trkpt lat="45.96245" lon="4.77311">
        <ele>216</ele>
        <time>2017-12-05T09:50:34Z</time>
      </trkpt>
      <trkpt lat="45.96252" lon="4.77315">
        <ele>218</ele>
        <time>2017-12-05T09:50:36Z</time>
      </trkpt>
      <trkpt lat="45.96255" lon="4.77317">
        <ele>218</ele>
        <time>2017-12-05T09:50:37Z</time>
      </trkpt>
      <trkpt lat="45.96262" lon="4.77322">
        <ele>218</ele>
        <time>2017-12-05T09:50:39Z</time>
      </trkpt>
      <trkpt lat="45.96266" lon="4.77324">
        <ele>218</ele>
        <time>2017-12-05T09:50:40Z</time>
      </trkpt>
      <trkpt lat="45.96272" lon="4.77327">
        <ele>218</ele>
        <time>2017-12-05T09:50:42Z</time>
      </trkpt>
      <trkpt lat="45.96276" lon="4.77329">
        <ele>218</ele>
        <time>2017-12-05T09:50:43Z</time>
      </trkpt>
      <trkpt lat="45.96283" lon="4.77334">
        <ele>216</ele>
        <time>2017-12-05T09:50:45Z</time>
      </trkpt>
      <trkpt lat="45.96286" lon="4.77336">
        <ele>216</ele>
        <time>2017-12-05T09:50:46Z</time>
      </trkpt>
      <trkpt lat="45.96293" lon="4.77339">
        <ele>217</ele>
        <time>2017-12-05T09:50:48Z</time>
      </trkpt>
      <trkpt lat="45.96296" lon="4.77341">
        <ele>217</ele>
        <time>2017-12-05T09:50:49Z</time>
      </trkpt>
      <trkpt lat="45.96303" lon="4.77345">
        <ele>217</ele>
        <time>2017-12-05T09:50:51Z</time>
      </trkpt>
      <trkpt lat="45.96306" lon="4.77346">
        <ele>217</ele>
        <time>2017-12-05T09:50:52Z</time>
      </trkpt>
      <trkpt lat="45.96312" lon="4.7735">
        <ele>217</ele>
        <time>2017-12-05T09:50:54Z</time>
      </trkpt>
      <trkpt lat="45.96315" lon="4.77352">
        <ele>217</ele>
        <time>2017-12-05T09:50:55Z</time>
      </trkpt>
      <trkpt lat="45.96322" lon="4.77355">
        <ele>217</ele>
        <time>2017-12-05T09:50:57Z</time>
      </trkpt>
      <trkpt lat="45.96325" lon="4.77357">
        <ele>217</ele>
        <time>2017-12-05T09:50:58Z</time>
      </trkpt>
      <trkpt lat="45.96331" lon="4.7736">
        <ele>217</ele>
        <time>2017-12-05T09:51:00Z</time>
      </trkpt>
      <trkpt lat="45.96334" lon="4.77362">
        <ele>219</ele>
        <time>2017-12-05T09:51:01Z</time>
      </trkpt>
      <trkpt lat="45.96341" lon="4.77365">
        <ele>219</ele>
        <time>2017-12-05T09:51:03Z</time>
      </trkpt>
      <trkpt lat="45.96345" lon="4.77366">
        <ele>219</ele>
        <time>2017-12-05T09:51:04Z</time>
      </trkpt>
      <trkpt lat="45.96352" lon="4.7737">
        <ele>219</ele>
        <time>2017-12-05T09:51:06Z</time>
      </trkpt>
      <trkpt lat="45.96356" lon="4.77372">
        <ele>219</ele>
        <time>2017-12-05T09:51:07Z</time>
      </trkpt>
      <trkpt lat="45.96364" lon="4.77375">
        <ele>219</ele>
        <time>2017-12-05T09:51:10Z</time>
      </trkpt>
      <trkpt lat="45.96367" lon="4.77376">
        <ele>219</ele>
        <time>2017-12-05T09:51:11Z</time>
      </trkpt>
      <trkpt lat="45.96375" lon="4.7738">
        <ele>219</ele>
        <time>2017-12-05T09:51:13Z</time>
      </trkpt>
      <trkpt lat="45.96378" lon="4.77382">
        <ele>219</ele>
        <time>2017-12-05T09:51:14Z</time>
      </trkpt>
      <trkpt lat="45.96386" lon="4.77385">
        <ele>220</ele>
        <time>2017-12-05T09:51:16Z</time>
      </trkpt>
      <trkpt lat="45.96389" lon="4.77386">
        <ele>220</ele>
        <time>2017-12-05T09:51:17Z</time>
      </trkpt>
      <trkpt lat="45.96396" lon="4.7739">
        <ele>220</ele>
        <time>2017-12-05T09:51:19Z</time>
      </trkpt>
      <trkpt lat="45.96399" lon="4.77392">
        <ele>220</ele>
        <time>2017-12-05T09:51:20Z</time>
      </trkpt>
      <trkpt lat="45.96406" lon="4.77397">
        <ele>220</ele>
        <time>2017-12-05T09:51:22Z</time>
      </trkpt>
      <trkpt lat="45.9641" lon="4.77399">
        <ele>220</ele>
        <time>2017-12-05T09:51:23Z</time>
      </trkpt>
      <trkpt lat="45.96417" lon="4.77404">
        <ele>222</ele>
        <time>2017-12-05T09:51:25Z</time>
      </trkpt>
      <trkpt lat="45.96421" lon="4.77406">
        <ele>222</ele>
        <time>2017-12-05T09:51:26Z</time>
      </trkpt>
      <trkpt lat="45.96428" lon="4.77411">
        <ele>222</ele>
        <time>2017-12-05T09:51:28Z</time>
      </trkpt>
      <trkpt lat="45.96431" lon="4.77413">
        <ele>222</ele>
        <time>2017-12-05T09:51:29Z</time>
      </trkpt>
      <trkpt lat="45.96438" lon="4.77418">
        <ele>221</ele>
        <time>2017-12-05T09:51:31Z</time>
      </trkpt>
      <trkpt lat="45.96441" lon="4.7742">
        <ele>221</ele>
        <time>2017-12-05T09:51:32Z</time>
      </trkpt>
      <trkpt lat="45.96448" lon="4.77425">
        <ele>221</ele>
        <time>2017-12-05T09:51:34Z</time>
      </trkpt>
      <trkpt lat="45.96451" lon="4.77427">
        <ele>221</ele>
        <time>2017-12-05T09:51:35Z</time>
      </trkpt>
      <trkpt lat="45.96458" lon="4.77432">
        <ele>221</ele>
        <time>2017-12-05T09:51:37Z</time>
      </trkpt>
      <trkpt lat="45.96462" lon="4.77434">
        <ele>221</ele>
        <time>2017-12-05T09:51:38Z</time>
      </trkpt>
      <trkpt lat="45.96469" lon="4.77439">
        <ele>221</ele>
        <time>2017-12-05T09:51:40Z</time>
      </trkpt>
      <trkpt lat="45.96472" lon="4.77442">
        <ele>221</ele>
        <time>2017-12-05T09:51:41Z</time>
      </trkpt>
      <trkpt lat="45.96479" lon="4.77448">
        <ele>221</ele>
        <time>2017-12-05T09:51:43Z</time>
      </trkpt>
      <trkpt lat="45.96483" lon="4.7745">
        <ele>221</ele>
        <time>2017-12-05T09:51:44Z</time>
      </trkpt>
      <trkpt lat="45.96491" lon="4.77455">
        <ele>221</ele>
        <time>2017-12-05T09:51:46Z</time>
      </trkpt>
      <trkpt lat="45.96495" lon="4.77458">
        <ele>221</ele>
        <time>2017-12-05T09:51:47Z</time>
      </trkpt>
      <trkpt lat="45.96501" lon="4.77463">
        <ele>223</ele>
        <time>2017-12-05T09:51:49Z</time>
      </trkpt>
      <trkpt lat="45.96505" lon="4.77466">
        <ele>223</ele>
        <time>2017-12-05T09:51:50Z</time>
      </trkpt>
      <trkpt lat="45.96512" lon="4.77472">
        <ele>223</ele>
        <time>2017-12-05T09:51:52Z</time>
      </trkpt>
      <trkpt lat="45.96515" lon="4.77474">
        <ele>223</ele>
        <time>2017-12-05T09:51:53Z</time>
      </trkpt>
      <trkpt lat="45.96522" lon="4.77479">
        <ele>223</ele>
        <time>2017-12-05T09:51:55Z</time>
      </trkpt>
      <trkpt lat="45.96525" lon="4.77481">
        <ele>223</ele>
        <time>2017-12-05T09:51:56Z</time>
      </trkpt>
      <trkpt lat="45.96532" lon="4.77486">
        <ele>223</ele>
        <time>2017-12-05T09:51:58Z</time>
      </trkpt>
      <trkpt lat="45.96536" lon="4.77488">
        <ele>223</ele>
        <time>2017-12-05T09:51:59Z</time>
      </trkpt>
      <trkpt lat="45.96543" lon="4.77493">
        <ele>223</ele>
        <time>2017-12-05T09:52:01Z</time>
      </trkpt>
      <trkpt lat="45.96546" lon="4.77495">
        <ele>223</ele>
        <time>2017-12-05T09:52:02Z</time>
      </trkpt>
      <trkpt lat="45.96554" lon="4.775">
        <ele>223</ele>
        <time>2017-12-05T09:52:04Z</time>
      </trkpt>
      <trkpt lat="45.96557" lon="4.77502">
        <ele>223</ele>
        <time>2017-12-05T09:52:05Z</time>
      </trkpt>
      <trkpt lat="45.96564" lon="4.77507">
        <ele>223</ele>
        <time>2017-12-05T09:52:07Z</time>
      </trkpt>
      <trkpt lat="45.96568" lon="4.77509">
        <ele>223</ele>
        <time>2017-12-05T09:52:08Z</time>
      </trkpt>
      <trkpt lat="45.96575" lon="4.77514">
        <ele>224</ele>
        <time>2017-12-05T09:52:10Z</time>
      </trkpt>
      <trkpt lat="45.96579" lon="4.77516">
        <ele>224</ele>
        <time>2017-12-05T09:52:11Z</time>
      </trkpt>
      <trkpt lat="45.96587" lon="4.7752">
        <ele>224</ele>
        <time>2017-12-05T09:52:13Z</time>
      </trkpt>
      <trkpt lat="45.9659" lon="4.77522">
        <ele>224</ele>
        <time>2017-12-05T09:52:14Z</time>
      </trkpt>
      <trkpt lat="45.96597" lon="4.77526">
        <ele>224</ele>
        <time>2017-12-05T09:52:16Z</time>
      </trkpt>
      <trkpt lat="45.96601" lon="4.77529">
        <ele>224</ele>
        <time>2017-12-05T09:52:17Z</time>
      </trkpt>
      <trkpt lat="45.96608" lon="4.77534">
        <ele>224</ele>
        <time>2017-12-05T09:52:19Z</time>
      </trkpt>
      <trkpt lat="45.96612" lon="4.77536">
        <ele>224</ele>
        <time>2017-12-05T09:52:20Z</time>
      </trkpt>
      <trkpt lat="45.96618" lon="4.77539">
        <ele>224</ele>
        <time>2017-12-05T09:52:22Z</time>
      </trkpt>
      <trkpt lat="45.96621" lon="4.77541">
        <ele>224</ele>
        <time>2017-12-05T09:52:23Z</time>
      </trkpt>
      <trkpt lat="45.96628" lon="4.77545">
        <ele>224</ele>
        <time>2017-12-05T09:52:25Z</time>
      </trkpt>
      <trkpt lat="45.96631" lon="4.77547">
        <ele>224</ele>
        <time>2017-12-05T09:52:26Z</time>
      </trkpt>
      <trkpt lat="45.96638" lon="4.77552">
        <ele>224</ele>
        <time>2017-12-05T09:52:28Z</time>
      </trkpt>
      <trkpt lat="45.96641" lon="4.77554">
        <ele>224</ele>
        <time>2017-12-05T09:52:29Z</time>
      </trkpt>
      <trkpt lat="45.96648" lon="4.7756">
        <ele>224</ele>
        <time>2017-12-05T09:52:31Z</time>
      </trkpt>
      <trkpt lat="45.96651" lon="4.77562">
        <ele>224</ele>
        <time>2017-12-05T09:52:32Z</time>
      </trkpt>
      <trkpt lat="45.96657" lon="4.77568">
        <ele>225</ele>
        <time>2017-12-05T09:52:34Z</time>
      </trkpt>
      <trkpt lat="45.96661" lon="4.77571">
        <ele>225</ele>
        <time>2017-12-05T09:52:35Z</time>
      </trkpt>
      <trkpt lat="45.96669" lon="4.77577">
        <ele>225</ele>
        <time>2017-12-05T09:52:37Z</time>
      </trkpt>
      <trkpt lat="45.96672" lon="4.7758">
        <ele>225</ele>
        <time>2017-12-05T09:52:38Z</time>
      </trkpt>
      <trkpt lat="45.96678" lon="4.77585">
        <ele>225</ele>
        <time>2017-12-05T09:52:40Z</time>
      </trkpt>
      <trkpt lat="45.96682" lon="4.77588">
        <ele>226</ele>
        <time>2017-12-05T09:52:41Z</time>
      </trkpt>
      <trkpt lat="45.96688" lon="4.77593">
        <ele>226</ele>
        <time>2017-12-05T09:52:43Z</time>
      </trkpt>
      <trkpt lat="45.96691" lon="4.77597">
        <ele>226</ele>
        <time>2017-12-05T09:52:44Z</time>
      </trkpt>
      <trkpt lat="45.96698" lon="4.77603">
        <ele>226</ele>
        <time>2017-12-05T09:52:46Z</time>
      </trkpt>
      <trkpt lat="45.96701" lon="4.77607">
        <ele>226</ele>
        <time>2017-12-05T09:52:47Z</time>
      </trkpt>
      <trkpt lat="45.96708" lon="4.77613">
        <ele>226</ele>
        <time>2017-12-05T09:52:49Z</time>
      </trkpt>
      <trkpt lat="45.96711" lon="4.77616">
        <ele>226</ele>
        <time>2017-12-05T09:52:50Z</time>
      </trkpt>
      <trkpt lat="45.96717" lon="4.77622">
        <ele>226</ele>
        <time>2017-12-05T09:52:52Z</time>
      </trkpt>
      <trkpt lat="45.9672" lon="4.77626">
        <ele>226</ele>
        <time>2017-12-05T09:52:53Z</time>
      </trkpt>
      <trkpt lat="45.96726" lon="4.77633">
        <ele>226</ele>
        <time>2017-12-05T09:52:55Z</time>
      </trkpt>
      <trkpt lat="45.96729" lon="4.77637">
        <ele>226</ele>
        <time>2017-12-05T09:52:56Z</time>
      </trkpt>
      <trkpt lat="45.96735" lon="4.77644">
        <ele>227</ele>
        <time>2017-12-05T09:52:58Z</time>
      </trkpt>
      <trkpt lat="45.96738" lon="4.77648">
        <ele>227</ele>
        <time>2017-12-05T09:52:59Z</time>
      </trkpt>
      <trkpt lat="45.96745" lon="4.77655">
        <ele>227</ele>
        <time>2017-12-05T09:53:01Z</time>
      </trkpt>
      <trkpt lat="45.96748" lon="4.77659">
        <ele>227</ele>
        <time>2017-12-05T09:53:02Z</time>
      </trkpt>
      <trkpt lat="45.96753" lon="4.77666">
        <ele>227</ele>
        <time>2017-12-05T09:53:04Z</time>
      </trkpt>
      <trkpt lat="45.96757" lon="4.7767">
        <ele>227</ele>
        <time>2017-12-05T09:53:05Z</time>
      </trkpt>
      <trkpt lat="45.96763" lon="4.77678">
        <ele>227</ele>
        <time>2017-12-05T09:53:07Z</time>
      </trkpt>
      <trkpt lat="45.96767" lon="4.77682">
        <ele>227</ele>
        <time>2017-12-05T09:53:08Z</time>
      </trkpt>
      <trkpt lat="45.96774" lon="4.77688">
        <ele>227</ele>
        <time>2017-12-05T09:53:10Z</time>
      </trkpt>
      <trkpt lat="45.96778" lon="4.77692">
        <ele>227</ele>
        <time>2017-12-05T09:53:11Z</time>
      </trkpt>
      <trkpt lat="45.96784" lon="4.77699">
        <ele>227</ele>
        <time>2017-12-05T09:53:13Z</time>
      </trkpt>
      <trkpt lat="45.96787" lon="4.77702">
        <ele>227</ele>
        <time>2017-12-05T09:53:14Z</time>
      </trkpt>
      <trkpt lat="45.96793" lon="4.77711">
        <ele>228</ele>
        <time>2017-12-05T09:53:16Z</time>
      </trkpt>
      <trkpt lat="45.96796" lon="4.77715">
        <ele>228</ele>
        <time>2017-12-05T09:53:17Z</time>
      </trkpt>
      <trkpt lat="45.968" lon="4.77719">
        <ele>228</ele>
        <time>2017-12-05T09:53:18Z</time>
      </trkpt>
      <trkpt lat="45.96804" lon="4.77723">
        <ele>228</ele>
        <time>2017-12-05T09:53:19Z</time>
      </trkpt>
      <trkpt lat="45.9681" lon="4.7773">
        <ele>228</ele>
        <time>2017-12-05T09:53:21Z</time>
      </trkpt>
      <trkpt lat="45.96814" lon="4.77734">
        <ele>228</ele>
        <time>2017-12-05T09:53:22Z</time>
      </trkpt>
      <trkpt lat="45.9682" lon="4.7774">
        <ele>228</ele>
        <time>2017-12-05T09:53:24Z</time>
      </trkpt>
      <trkpt lat="45.96823" lon="4.77743">
        <ele>228</ele>
        <time>2017-12-05T09:53:25Z</time>
      </trkpt>
      <trkpt lat="45.96828" lon="4.77748">
        <ele>228</ele>
        <time>2017-12-05T09:53:27Z</time>
      </trkpt>
      <trkpt lat="45.96831" lon="4.77751">
        <ele>228</ele>
        <time>2017-12-05T09:53:28Z</time>
      </trkpt>
      <trkpt lat="45.96837" lon="4.77757">
        <ele>228</ele>
        <time>2017-12-05T09:53:30Z</time>
      </trkpt>
      <trkpt lat="45.96841" lon="4.7776">
        <ele>228</ele>
        <time>2017-12-05T09:53:31Z</time>
      </trkpt>
      <trkpt lat="45.96847" lon="4.77768">
        <ele>228</ele>
        <time>2017-12-05T09:53:33Z</time>
      </trkpt>
      <trkpt lat="45.96851" lon="4.77771">
        <ele>228</ele>
        <time>2017-12-05T09:53:34Z</time>
      </trkpt>
      <trkpt lat="45.96856" lon="4.77776">
        <ele>228</ele>
        <time>2017-12-05T09:53:35Z</time>
      </trkpt>
      <trkpt lat="45.96859" lon="4.7778">
        <ele>228</ele>
        <time>2017-12-05T09:53:36Z</time>
      </trkpt>
      <trkpt lat="45.96863" lon="4.77784">
        <ele>228</ele>
        <time>2017-12-05T09:53:37Z</time>
      </trkpt>
      <trkpt lat="45.96867" lon="4.77788">
        <ele>228</ele>
        <time>2017-12-05T09:53:38Z</time>
      </trkpt>
      <trkpt lat="45.96874" lon="4.77795">
        <ele>228</ele>
        <time>2017-12-05T09:53:40Z</time>
      </trkpt>
      <trkpt lat="45.96877" lon="4.77799">
        <ele>228</ele>
        <time>2017-12-05T09:53:41Z</time>
      </trkpt>
      <trkpt lat="45.96884" lon="4.77807">
        <ele>228</ele>
        <time>2017-12-05T09:53:43Z</time>
      </trkpt>
      <trkpt lat="45.96888" lon="4.77811">
        <ele>228</ele>
        <time>2017-12-05T09:53:44Z</time>
      </trkpt>
      <trkpt lat="45.96891" lon="4.77815">
        <ele>228</ele>
        <time>2017-12-05T09:53:45Z</time>
      </trkpt>
      <trkpt lat="45.96896" lon="4.7782">
        <ele>228</ele>
        <time>2017-12-05T09:53:46Z</time>
      </trkpt>
      <trkpt lat="45.969" lon="4.77824">
        <ele>228</ele>
        <time>2017-12-05T09:53:47Z</time>
      </trkpt>
      <trkpt lat="45.96904" lon="4.77829">
        <ele>228</ele>
        <time>2017-12-05T09:53:48Z</time>
      </trkpt>
      <trkpt lat="45.96908" lon="4.77833">
        <ele>228</ele>
        <time>2017-12-05T09:53:49Z</time>
      </trkpt>
      <trkpt lat="45.96912" lon="4.77837">
        <ele>228</ele>
        <time>2017-12-05T09:53:50Z</time>
      </trkpt>
      <trkpt lat="45.96916" lon="4.7784">
        <ele>228</ele>
        <time>2017-12-05T09:53:51Z</time>
      </trkpt>
      <trkpt lat="45.96921" lon="4.77843">
        <ele>228</ele>
        <time>2017-12-05T09:53:52Z</time>
      </trkpt>
      <trkpt lat="45.96927" lon="4.7785">
        <ele>228</ele>
        <time>2017-12-05T09:53:54Z</time>
      </trkpt>
      <trkpt lat="45.9693" lon="4.77853">
        <ele>228</ele>
        <time>2017-12-05T09:53:55Z</time>
      </trkpt>
      <trkpt lat="45.96935" lon="4.77859">
        <ele>228</ele>
        <time>2017-12-05T09:53:57Z</time>
      </trkpt>
      <trkpt lat="45.96938" lon="4.77863">
        <ele>228</ele>
        <time>2017-12-05T09:53:58Z</time>
      </trkpt>
      <trkpt lat="45.96944" lon="4.7787">
        <ele>228</ele>
        <time>2017-12-05T09:54:00Z</time>
      </trkpt>
      <trkpt lat="45.96947" lon="4.77874">
        <ele>228</ele>
        <time>2017-12-05T09:54:01Z</time>
      </trkpt>
      <trkpt lat="45.96953" lon="4.77883">
        <ele>228</ele>
        <time>2017-12-05T09:54:03Z</time>
      </trkpt>
      <trkpt lat="45.96957" lon="4.77887">
        <ele>228</ele>
        <time>2017-12-05T09:54:04Z</time>
      </trkpt>
      <trkpt lat="45.96964" lon="4.77895">
        <ele>228</ele>
        <time>2017-12-05T09:54:06Z</time>
      </trkpt>
      <trkpt lat="45.96967" lon="4.77898">
        <ele>228</ele>
        <time>2017-12-05T09:54:07Z</time>
      </trkpt>
      <trkpt lat="45.96971" lon="4.77902">
        <ele>228</ele>
        <time>2017-12-05T09:54:08Z</time>
      </trkpt>
      <trkpt lat="45.96975" lon="4.77906">
        <ele>227</ele>
        <time>2017-12-05T09:54:09Z</time>
      </trkpt>
      <trkpt lat="45.96979" lon="4.7791">
        <ele>227</ele>
        <time>2017-12-05T09:54:10Z</time>
      </trkpt>
      <trkpt lat="45.96982" lon="4.77915">
        <ele>227</ele>
        <time>2017-12-05T09:54:11Z</time>
      </trkpt>
      <trkpt lat="45.96985" lon="4.77919">
        <ele>227</ele>
        <time>2017-12-05T09:54:12Z</time>
      </trkpt>
      <trkpt lat="45.96989" lon="4.77922">
        <ele>227</ele>
        <time>2017-12-05T09:54:13Z</time>
      </trkpt>
      <trkpt lat="45.96992" lon="4.77928">
        <ele>227</ele>
        <time>2017-12-05T09:54:14Z</time>
      </trkpt>
      <trkpt lat="45.96996" lon="4.77933">
        <ele>228</ele>
        <time>2017-12-05T09:54:15Z</time>
      </trkpt>
      <trkpt lat="45.96999" lon="4.77938">
        <ele>228</ele>
        <time>2017-12-05T09:54:16Z</time>
      </trkpt>
      <trkpt lat="45.97003" lon="4.77943">
        <ele>228</ele>
        <time>2017-12-05T09:54:17Z</time>
      </trkpt>
      <trkpt lat="45.9701" lon="4.77951">
        <ele>228</ele>
        <time>2017-12-05T09:54:19Z</time>
      </trkpt>
      <trkpt lat="45.97013" lon="4.77955">
        <ele>228</ele>
        <time>2017-12-05T09:54:20Z</time>
      </trkpt>
      <trkpt lat="45.97019" lon="4.77963">
        <ele>228</ele>
        <time>2017-12-05T09:54:22Z</time>
      </trkpt>
      <trkpt lat="45.97023" lon="4.77968">
        <ele>228</ele>
        <time>2017-12-05T09:54:23Z</time>
      </trkpt>
      <trkpt lat="45.97029" lon="4.77974">
        <ele>229</ele>
        <time>2017-12-05T09:54:25Z</time>
      </trkpt>
      <trkpt lat="45.97032" lon="4.77978">
        <ele>229</ele>
        <time>2017-12-05T09:54:26Z</time>
      </trkpt>
      <trkpt lat="45.97039" lon="4.77985">
        <ele>229</ele>
        <time>2017-12-05T09:54:28Z</time>
      </trkpt>
      <trkpt lat="45.97042" lon="4.7799">
        <ele>229</ele>
        <time>2017-12-05T09:54:29Z</time>
      </trkpt>
      <trkpt lat="45.97049" lon="4.77997">
        <ele>229</ele>
        <time>2017-12-05T09:54:31Z</time>
      </trkpt>
      <trkpt lat="45.97053" lon="4.78001">
        <ele>229</ele>
        <time>2017-12-05T09:54:32Z</time>
      </trkpt>
      <trkpt lat="45.97059" lon="4.78008">
        <ele>229</ele>
        <time>2017-12-05T09:54:34Z</time>
      </trkpt>
      <trkpt lat="45.97063" lon="4.78011">
        <ele>229</ele>
        <time>2017-12-05T09:54:35Z</time>
      </trkpt>
      <trkpt lat="45.9707" lon="4.78018">
        <ele>229</ele>
        <time>2017-12-05T09:54:37Z</time>
      </trkpt>
      <trkpt lat="45.97073" lon="4.78022">
        <ele>229</ele>
        <time>2017-12-05T09:54:38Z</time>
      </trkpt>
      <trkpt lat="45.97077" lon="4.78027">
        <ele>229</ele>
        <time>2017-12-05T09:54:39Z</time>
      </trkpt>
      <trkpt lat="45.97081" lon="4.7803">
        <ele>229</ele>
        <time>2017-12-05T09:54:40Z</time>
      </trkpt>
      <trkpt lat="45.97085" lon="4.78035">
        <ele>229</ele>
        <time>2017-12-05T09:54:41Z</time>
      </trkpt>
      <trkpt lat="45.97089" lon="4.78038">
        <ele>229</ele>
        <time>2017-12-05T09:54:42Z</time>
      </trkpt>
      <trkpt lat="45.97096" lon="4.78045">
        <ele>229</ele>
        <time>2017-12-05T09:54:44Z</time>
      </trkpt>
      <trkpt lat="45.97099" lon="4.78049">
        <ele>229</ele>
        <time>2017-12-05T09:54:45Z</time>
      </trkpt>
      <trkpt lat="45.97104" lon="4.78052">
        <ele>229</ele>
        <time>2017-12-05T09:54:46Z</time>
      </trkpt>
      <trkpt lat="45.97108" lon="4.78055">
        <ele>229</ele>
        <time>2017-12-05T09:54:47Z</time>
      </trkpt>
      <trkpt lat="45.97112" lon="4.78059">
        <ele>229</ele>
        <time>2017-12-05T09:54:48Z</time>
      </trkpt>
      <trkpt lat="45.97115" lon="4.78063">
        <ele>229</ele>
        <time>2017-12-05T09:54:49Z</time>
      </trkpt>
      <trkpt lat="45.97119" lon="4.78067">
        <ele>229</ele>
        <time>2017-12-05T09:54:50Z</time>
      </trkpt>
      <trkpt lat="45.97123" lon="4.78071">
        <ele>229</ele>
        <time>2017-12-05T09:54:51Z</time>
      </trkpt>
      <trkpt lat="45.97129" lon="4.7808">
        <ele>230</ele>
        <time>2017-12-05T09:54:53Z</time>
      </trkpt>
      <trkpt lat="45.97133" lon="4.78084">
        <ele>230</ele>
        <time>2017-12-05T09:54:54Z</time>
      </trkpt>
      <trkpt lat="45.97139" lon="4.78094">
        <ele>230</ele>
        <time>2017-12-05T09:54:56Z</time>
      </trkpt>
      <trkpt lat="45.97142" lon="4.78099">
        <ele>230</ele>
        <time>2017-12-05T09:54:57Z</time>
      </trkpt>
      <trkpt lat="45.97145" lon="4.78104">
        <ele>230</ele>
        <time>2017-12-05T09:54:58Z</time>
      </trkpt>
      <trkpt lat="45.97147" lon="4.78109">
        <ele>230</ele>
        <time>2017-12-05T09:54:59Z</time>
      </trkpt>
      <trkpt lat="45.97151" lon="4.78114">
        <ele>230</ele>
        <time>2017-12-05T09:55:00Z</time>
      </trkpt>
      <trkpt lat="45.97154" lon="4.78119">
        <ele>230</ele>
        <time>2017-12-05T09:55:01Z</time>
      </trkpt>
      <trkpt lat="45.97157" lon="4.78124">
        <ele>230</ele>
        <time>2017-12-05T09:55:02Z</time>
      </trkpt>
      <trkpt lat="45.97161" lon="4.78129">
        <ele>230</ele>
        <time>2017-12-05T09:55:03Z</time>
      </trkpt>
      <trkpt lat="45.97166" lon="4.78138">
        <ele>230</ele>
        <time>2017-12-05T09:55:05Z</time>
      </trkpt>
      <trkpt lat="45.97169" lon="4.78144">
        <ele>231</ele>
        <time>2017-12-05T09:55:06Z</time>
      </trkpt>
      <trkpt lat="45.97173" lon="4.78149">
        <ele>231</ele>
        <time>2017-12-05T09:55:07Z</time>
      </trkpt>
      <trkpt lat="45.97177" lon="4.78155">
        <ele>231</ele>
        <time>2017-12-05T09:55:08Z</time>
      </trkpt>
      <trkpt lat="45.9718" lon="4.78161">
        <ele>231</ele>
        <time>2017-12-05T09:55:09Z</time>
      </trkpt>
      <trkpt lat="45.97182" lon="4.78167">
        <ele>231</ele>
        <time>2017-12-05T09:55:10Z</time>
      </trkpt>
      <trkpt lat="45.97185" lon="4.78173">
        <ele>231</ele>
        <time>2017-12-05T09:55:11Z</time>
      </trkpt>
      <trkpt lat="45.97188" lon="4.78177">
        <ele>231</ele>
        <time>2017-12-05T09:55:12Z</time>
      </trkpt>
      <trkpt lat="45.97193" lon="4.78185">
        <ele>231</ele>
        <time>2017-12-05T09:55:14Z</time>
      </trkpt>
      <trkpt lat="45.97196" lon="4.7819">
        <ele>231</ele>
        <time>2017-12-05T09:55:15Z</time>
      </trkpt>
      <trkpt lat="45.97201" lon="4.78199">
        <ele>231</ele>
        <time>2017-12-05T09:55:17Z</time>
      </trkpt>
      <trkpt lat="45.97204" lon="4.78205">
        <ele>231</ele>
        <time>2017-12-05T09:55:18Z</time>
      </trkpt>
      <trkpt lat="45.9721" lon="4.78214">
        <ele>231</ele>
        <time>2017-12-05T09:55:20Z</time>
      </trkpt>
      <trkpt lat="45.97213" lon="4.78219">
        <ele>231</ele>
        <time>2017-12-05T09:55:21Z</time>
      </trkpt>
      <trkpt lat="45.97217" lon="4.78228">
        <ele>231</ele>
        <time>2017-12-05T09:55:23Z</time>
      </trkpt>
      <trkpt lat="45.9722" lon="4.78232">
        <ele>231</ele>
        <time>2017-12-05T09:55:24Z</time>
      </trkpt>
      <trkpt lat="45.97224" lon="4.78242">
        <ele>231</ele>
        <time>2017-12-05T09:55:26Z</time>
      </trkpt>
      <trkpt lat="45.97227" lon="4.78247">
        <ele>231</ele>
        <time>2017-12-05T09:55:27Z</time>
      </trkpt>
      <trkpt lat="45.97231" lon="4.78252">
        <ele>231</ele>
        <time>2017-12-05T09:55:28Z</time>
      </trkpt>
      <trkpt lat="45.97234" lon="4.78257">
        <ele>231</ele>
        <time>2017-12-05T09:55:29Z</time>
      </trkpt>
      <trkpt lat="45.97236" lon="4.78262">
        <ele>231</ele>
        <time>2017-12-05T09:55:30Z</time>
      </trkpt>
      <trkpt lat="45.97241" lon="4.78267">
        <ele>231</ele>
        <time>2017-12-05T09:55:31Z</time>
      </trkpt>
      <trkpt lat="45.97247" lon="4.78276">
        <ele>231</ele>
        <time>2017-12-05T09:55:33Z</time>
      </trkpt>
      <trkpt lat="45.97249" lon="4.78279">
        <ele>231</ele>
        <time>2017-12-05T09:55:34Z</time>
      </trkpt>
      <trkpt lat="45.97255" lon="4.78288">
        <ele>232</ele>
        <time>2017-12-05T09:55:36Z</time>
      </trkpt>
      <trkpt lat="45.97258" lon="4.78293">
        <ele>232</ele>
        <time>2017-12-05T09:55:37Z</time>
      </trkpt>
      <trkpt lat="45.97264" lon="4.78301">
        <ele>232</ele>
        <time>2017-12-05T09:55:39Z</time>
      </trkpt>
      <trkpt lat="45.97267" lon="4.78306">
        <ele>232</ele>
        <time>2017-12-05T09:55:40Z</time>
      </trkpt>
      <trkpt lat="45.97274" lon="4.78314">
        <ele>232</ele>
        <time>2017-12-05T09:55:42Z</time>
      </trkpt>
      <trkpt lat="45.97276" lon="4.78318">
        <ele>232</ele>
        <time>2017-12-05T09:55:43Z</time>
      </trkpt>
      <trkpt lat="45.97282" lon="4.78327">
        <ele>232</ele>
        <time>2017-12-05T09:55:45Z</time>
      </trkpt>
      <trkpt lat="45.97286" lon="4.78331">
        <ele>232</ele>
        <time>2017-12-05T09:55:46Z</time>
      </trkpt>
      <trkpt lat="45.97289" lon="4.78335">
        <ele>232</ele>
        <time>2017-12-05T09:55:47Z</time>
      </trkpt>
      <trkpt lat="45.97292" lon="4.7834">
        <ele>232</ele>
        <time>2017-12-05T09:55:48Z</time>
      </trkpt>
      <trkpt lat="45.97296" lon="4.78346">
        <ele>232</ele>
        <time>2017-12-05T09:55:49Z</time>
      </trkpt>
      <trkpt lat="45.97299" lon="4.78351">
        <ele>232</ele>
        <time>2017-12-05T09:55:50Z</time>
      </trkpt>
      <trkpt lat="45.97303" lon="4.78355">
        <ele>232</ele>
        <time>2017-12-05T09:55:51Z</time>
      </trkpt>
      <trkpt lat="45.97307" lon="4.78362">
        <ele>232</ele>
        <time>2017-12-05T09:55:52Z</time>
      </trkpt>
      <trkpt lat="45.97311" lon="4.78366">
        <ele>232</ele>
        <time>2017-12-05T09:55:53Z</time>
      </trkpt>
      <trkpt lat="45.97314" lon="4.78371">
        <ele>232</ele>
        <time>2017-12-05T09:55:54Z</time>
      </trkpt>
      <trkpt lat="45.97318" lon="4.78375">
        <ele>232</ele>
        <time>2017-12-05T09:55:55Z</time>
      </trkpt>
      <trkpt lat="45.97321" lon="4.7838">
        <ele>232</ele>
        <time>2017-12-05T09:55:56Z</time>
      </trkpt>
      <trkpt lat="45.97325" lon="4.78384">
        <ele>232</ele>
        <time>2017-12-05T09:55:57Z</time>
      </trkpt>
      <trkpt lat="45.97328" lon="4.78388">
        <ele>232</ele>
        <time>2017-12-05T09:55:58Z</time>
      </trkpt>
      <trkpt lat="45.97331" lon="4.78393">
        <ele>232</ele>
        <time>2017-12-05T09:55:59Z</time>
      </trkpt>
      <trkpt lat="45.97335" lon="4.78397">
        <ele>232</ele>
        <time>2017-12-05T09:56:00Z</time>
      </trkpt>
      <trkpt lat="45.97341" lon="4.78404">
        <ele>232</ele>
        <time>2017-12-05T09:56:02Z</time>
      </trkpt>
      <trkpt lat="45.97345" lon="4.78409">
        <ele>232</ele>
        <time>2017-12-05T09:56:03Z</time>
      </trkpt>
      <trkpt lat="45.97349" lon="4.78414">
        <ele>232</ele>
        <time>2017-12-05T09:56:04Z</time>
      </trkpt>
      <trkpt lat="45.97352" lon="4.78418">
        <ele>233</ele>
        <time>2017-12-05T09:56:05Z</time>
      </trkpt>
      <trkpt lat="45.97359" lon="4.78427">
        <ele>233</ele>
        <time>2017-12-05T09:56:07Z</time>
      </trkpt>
      <trkpt lat="45.97362" lon="4.78431">
        <ele>233</ele>
        <time>2017-12-05T09:56:08Z</time>
      </trkpt>
      <trkpt lat="45.97369" lon="4.78437">
        <ele>233</ele>
        <time>2017-12-05T09:56:10Z</time>
      </trkpt>
      <trkpt lat="45.97372" lon="4.7844">
        <ele>233</ele>
        <time>2017-12-05T09:56:11Z</time>
      </trkpt>
      <trkpt lat="45.97379" lon="4.78448">
        <ele>233</ele>
        <time>2017-12-05T09:56:13Z</time>
      </trkpt>
      <trkpt lat="45.97383" lon="4.7845">
        <ele>233</ele>
        <time>2017-12-05T09:56:14Z</time>
      </trkpt>
      <trkpt lat="45.97389" lon="4.78458">
        <ele>233</ele>
        <time>2017-12-05T09:56:16Z</time>
      </trkpt>
      <trkpt lat="45.97393" lon="4.7846">
        <ele>233</ele>
        <time>2017-12-05T09:56:17Z</time>
      </trkpt>
      <trkpt lat="45.974" lon="4.78465">
        <ele>233</ele>
        <time>2017-12-05T09:56:19Z</time>
      </trkpt>
      <trkpt lat="45.97402" lon="4.78468">
        <ele>233</ele>
        <time>2017-12-05T09:56:20Z</time>
      </trkpt>
      <trkpt lat="45.97407" lon="4.78472">
        <ele>233</ele>
        <time>2017-12-05T09:56:22Z</time>
      </trkpt>
      <trkpt lat="45.9741" lon="4.78475">
        <ele>233</ele>
        <time>2017-12-05T09:56:23Z</time>
      </trkpt>
      <trkpt lat="45.97416" lon="4.7848">
        <ele>233</ele>
        <time>2017-12-05T09:56:25Z</time>
      </trkpt>
      <trkpt lat="45.97419" lon="4.78483">
        <ele>234</ele>
        <time>2017-12-05T09:56:26Z</time>
      </trkpt>
      <trkpt lat="45.97425" lon="4.7849">
        <ele>234</ele>
        <time>2017-12-05T09:56:28Z</time>
      </trkpt>
      <trkpt lat="45.97429" lon="4.78494">
        <ele>234</ele>
        <time>2017-12-05T09:56:29Z</time>
      </trkpt>
      <trkpt lat="45.97432" lon="4.78497">
        <ele>234</ele>
        <time>2017-12-05T09:56:30Z</time>
      </trkpt>
      <trkpt lat="45.97437" lon="4.78499">
        <ele>234</ele>
        <time>2017-12-05T09:56:31Z</time>
      </trkpt>
      <trkpt lat="45.97441" lon="4.78503">
        <ele>234</ele>
        <time>2017-12-05T09:56:32Z</time>
      </trkpt>
      <trkpt lat="45.97445" lon="4.78506">
        <ele>234</ele>
        <time>2017-12-05T09:56:33Z</time>
      </trkpt>
      <trkpt lat="45.97449" lon="4.7851">
        <ele>234</ele>
        <time>2017-12-05T09:56:34Z</time>
      </trkpt>
      <trkpt lat="45.97453" lon="4.78514">
        <ele>233</ele>
        <time>2017-12-05T09:56:35Z</time>
      </trkpt>
      <trkpt lat="45.97457" lon="4.78517">
        <ele>233</ele>
        <time>2017-12-05T09:56:36Z</time>
      </trkpt>
      <trkpt lat="45.97462" lon="4.7852">
        <ele>233</ele>
        <time>2017-12-05T09:56:37Z</time>
      </trkpt>
      <trkpt lat="45.97469" lon="4.78527">
        <ele>233</ele>
        <time>2017-12-05T09:56:39Z</time>
      </trkpt>
      <trkpt lat="45.97473" lon="4.78531">
        <ele>233</ele>
        <time>2017-12-05T09:56:40Z</time>
      </trkpt>
      <trkpt lat="45.97477" lon="4.78535">
        <ele>233</ele>
        <time>2017-12-05T09:56:41Z</time>
      </trkpt>
      <trkpt lat="45.97481" lon="4.78538">
        <ele>233</ele>
        <time>2017-12-05T09:56:42Z</time>
      </trkpt>
      <trkpt lat="45.97486" lon="4.78541">
        <ele>233</ele>
        <time>2017-12-05T09:56:43Z</time>
      </trkpt>
      <trkpt lat="45.9749" lon="4.78544">
        <ele>233</ele>
        <time>2017-12-05T09:56:44Z</time>
      </trkpt>
      <trkpt lat="45.97494" lon="4.78548">
        <ele>233</ele>
        <time>2017-12-05T09:56:45Z</time>
      </trkpt>
      <trkpt lat="45.97499" lon="4.78551">
        <ele>233</ele>
        <time>2017-12-05T09:56:46Z</time>
      </trkpt>
      <trkpt lat="45.97503" lon="4.78555">
        <ele>234</ele>
        <time>2017-12-05T09:56:47Z</time>
      </trkpt>
      <trkpt lat="45.97508" lon="4.78558">
        <ele>233</ele>
        <time>2017-12-05T09:56:48Z</time>
      </trkpt>
      <trkpt lat="45.97513" lon="4.78561">
        <ele>233</ele>
        <time>2017-12-05T09:56:49Z</time>
      </trkpt>
      <trkpt lat="45.97517" lon="4.78564">
        <ele>233</ele>
        <time>2017-12-05T09:56:50Z</time>
      </trkpt>
      <trkpt lat="45.97522" lon="4.78566">
        <ele>233</ele>
        <time>2017-12-05T09:56:51Z</time>
      </trkpt>
      <trkpt lat="45.97527" lon="4.78569">
        <ele>233</ele>
        <time>2017-12-05T09:56:52Z</time>
      </trkpt>
      <trkpt lat="45.97531" lon="4.78571">
        <ele>233</ele>
        <time>2017-12-05T09:56:53Z</time>
      </trkpt>
      <trkpt lat="45.97535" lon="4.78574">
        <ele>233</ele>
        <time>2017-12-05T09:56:54Z</time>
      </trkpt>
      <trkpt lat="45.97543" lon="4.78577">
        <ele>233</ele>
        <time>2017-12-05T09:56:56Z</time>
      </trkpt>
      <trkpt lat="45.97547" lon="4.78579">
        <ele>233</ele>
        <time>2017-12-05T09:56:57Z</time>
      </trkpt>
      <trkpt lat="45.97552" lon="4.7858">
        <ele>233</ele>
        <time>2017-12-05T09:56:58Z</time>
      </trkpt>
      <trkpt lat="45.97556" lon="4.78581">
        <ele>233</ele>
        <time>2017-12-05T09:56:59Z</time>
      </trkpt>
      <trkpt lat="45.9756" lon="4.78583">
        <ele>233</ele>
        <time>2017-12-05T09:57:00Z</time>
      </trkpt>
      <trkpt lat="45.97565" lon="4.78585">
        <ele>233</ele>
        <time>2017-12-05T09:57:01Z</time>
      </trkpt>
      <trkpt lat="45.9757" lon="4.78587">
        <ele>233</ele>
        <time>2017-12-05T09:57:02Z</time>
      </trkpt>
      <trkpt lat="45.97574" lon="4.7859">
        <ele>233</ele>
        <time>2017-12-05T09:57:03Z</time>
      </trkpt>
      <trkpt lat="45.97579" lon="4.78592">
        <ele>233</ele>
        <time>2017-12-05T09:57:04Z</time>
      </trkpt>
      <trkpt lat="45.97584" lon="4.78594">
        <ele>233</ele>
        <time>2017-12-05T09:57:05Z</time>
      </trkpt>
      <trkpt lat="45.97588" lon="4.78596">
        <ele>233</ele>
        <time>2017-12-05T09:57:06Z</time>
      </trkpt>
      <trkpt lat="45.97593" lon="4.78597">
        <ele>233</ele>
        <time>2017-12-05T09:57:07Z</time>
      </trkpt>
      <trkpt lat="45.97601" lon="4.786">
        <ele>233</ele>
        <time>2017-12-05T09:57:09Z</time>
      </trkpt>
      <trkpt lat="45.97605" lon="4.786">
        <ele>233</ele>
        <time>2017-12-05T09:57:10Z</time>
      </trkpt>
      <trkpt lat="45.97613" lon="4.78603">
        <ele>233</ele>
        <time>2017-12-05T09:57:12Z</time>
      </trkpt>
      <trkpt lat="45.97617" lon="4.78605">
        <ele>233</ele>
        <time>2017-12-05T09:57:13Z</time>
      </trkpt>
      <trkpt lat="45.97621" lon="4.78607">
        <ele>233</ele>
        <time>2017-12-05T09:57:14Z</time>
      </trkpt>
      <trkpt lat="45.97626" lon="4.78609">
        <ele>233</ele>
        <time>2017-12-05T09:57:15Z</time>
      </trkpt>
      <trkpt lat="45.9763" lon="4.78612">
        <ele>233</ele>
        <time>2017-12-05T09:57:16Z</time>
      </trkpt>
      <trkpt lat="45.97635" lon="4.78614">
        <ele>233</ele>
        <time>2017-12-05T09:57:17Z</time>
      </trkpt>
      <trkpt lat="45.97639" lon="4.78616">
        <ele>233</ele>
        <time>2017-12-05T09:57:18Z</time>
      </trkpt>
      <trkpt lat="45.97643" lon="4.78618">
        <ele>233</ele>
        <time>2017-12-05T09:57:19Z</time>
      </trkpt>
      <trkpt lat="45.97648" lon="4.7862">
        <ele>233</ele>
        <time>2017-12-05T09:57:20Z</time>
      </trkpt>
      <trkpt lat="45.97653" lon="4.78621">
        <ele>233</ele>
        <time>2017-12-05T09:57:21Z</time>
      </trkpt>
      <trkpt lat="45.97661" lon="4.78625">
        <ele>233</ele>
        <time>2017-12-05T09:57:23Z</time>
      </trkpt>
      <trkpt lat="45.97666" lon="4.78626">
        <ele>233</ele>
        <time>2017-12-05T09:57:24Z</time>
      </trkpt>
      <trkpt lat="45.9767" lon="4.78628">
        <ele>234</ele>
        <time>2017-12-05T09:57:25Z</time>
      </trkpt>
      <trkpt lat="45.97674" lon="4.78631">
        <ele>234</ele>
        <time>2017-12-05T09:57:26Z</time>
      </trkpt>
      <trkpt lat="45.97679" lon="4.78632">
        <ele>234</ele>
        <time>2017-12-05T09:57:27Z</time>
      </trkpt>
      <trkpt lat="45.97684" lon="4.78634">
        <ele>234</ele>
        <time>2017-12-05T09:57:28Z</time>
      </trkpt>
      <trkpt lat="45.97688" lon="4.78636">
        <ele>234</ele>
        <time>2017-12-05T09:57:29Z</time>
      </trkpt>
      <trkpt lat="45.97694" lon="4.78638">
        <ele>234</ele>
        <time>2017-12-05T09:57:30Z</time>
      </trkpt>
      <trkpt lat="45.97698" lon="4.78639">
        <ele>234</ele>
        <time>2017-12-05T09:57:31Z</time>
      </trkpt>
      <trkpt lat="45.97703" lon="4.78642">
        <ele>234</ele>
        <time>2017-12-05T09:57:32Z</time>
      </trkpt>
      <trkpt lat="45.97708" lon="4.78644">
        <ele>234</ele>
        <time>2017-12-05T09:57:33Z</time>
      </trkpt>
      <trkpt lat="45.97713" lon="4.78646">
        <ele>234</ele>
        <time>2017-12-05T09:57:34Z</time>
      </trkpt>
      <trkpt lat="45.97721" lon="4.78649">
        <ele>234</ele>
        <time>2017-12-05T09:57:36Z</time>
      </trkpt>
      <trkpt lat="45.97725" lon="4.7865">
        <ele>234</ele>
        <time>2017-12-05T09:57:37Z</time>
      </trkpt>
      <trkpt lat="45.97732" lon="4.78656">
        <ele>234</ele>
        <time>2017-12-05T09:57:39Z</time>
      </trkpt>
      <trkpt lat="45.97737" lon="4.78659">
        <ele>234</ele>
        <time>2017-12-05T09:57:40Z</time>
      </trkpt>
      <trkpt lat="45.97741" lon="4.7866">
        <ele>234</ele>
        <time>2017-12-05T09:57:41Z</time>
      </trkpt>
      <trkpt lat="45.97747" lon="4.7866">
        <ele>234</ele>
        <time>2017-12-05T09:57:42Z</time>
      </trkpt>
      <trkpt lat="45.97752" lon="4.78662">
        <ele>234</ele>
        <time>2017-12-05T09:57:43Z</time>
      </trkpt>
      <trkpt lat="45.97757" lon="4.78664">
        <ele>234</ele>
        <time>2017-12-05T09:57:44Z</time>
      </trkpt>
      <trkpt lat="45.97761" lon="4.78665">
        <ele>235</ele>
        <time>2017-12-05T09:57:45Z</time>
      </trkpt>
      <trkpt lat="45.97766" lon="4.78667">
        <ele>234</ele>
        <time>2017-12-05T09:57:46Z</time>
      </trkpt>
      <trkpt lat="45.97774" lon="4.78671">
        <ele>235</ele>
        <time>2017-12-05T09:57:48Z</time>
      </trkpt>
      <trkpt lat="45.97778" lon="4.78674">
        <ele>235</ele>
        <time>2017-12-05T09:57:49Z</time>
      </trkpt>
      <trkpt lat="45.97782" lon="4.78676">
        <ele>235</ele>
        <time>2017-12-05T09:57:50Z</time>
      </trkpt>
      <trkpt lat="45.97787" lon="4.78678">
        <ele>235</ele>
        <time>2017-12-05T09:57:51Z</time>
      </trkpt>
      <trkpt lat="45.97792" lon="4.78681">
        <ele>235</ele>
        <time>2017-12-05T09:57:52Z</time>
      </trkpt>
      <trkpt lat="45.97796" lon="4.78682">
        <ele>235</ele>
        <time>2017-12-05T09:57:53Z</time>
      </trkpt>
      <trkpt lat="45.97801" lon="4.78685">
        <ele>235</ele>
        <time>2017-12-05T09:57:54Z</time>
      </trkpt>
      <trkpt lat="45.97806" lon="4.78687">
        <ele>235</ele>
        <time>2017-12-05T09:57:55Z</time>
      </trkpt>
      <trkpt lat="45.9781" lon="4.7869">
        <ele>235</ele>
        <time>2017-12-05T09:57:56Z</time>
      </trkpt>
      <trkpt lat="45.97815" lon="4.78692">
        <ele>235</ele>
        <time>2017-12-05T09:57:57Z</time>
      </trkpt>
      <trkpt lat="45.9782" lon="4.78694">
        <ele>235</ele>
        <time>2017-12-05T09:57:58Z</time>
      </trkpt>
      <trkpt lat="45.97824" lon="4.78696">
        <ele>235</ele>
        <time>2017-12-05T09:57:59Z</time>
      </trkpt>
      <trkpt lat="45.97829" lon="4.78698">
        <ele>235</ele>
        <time>2017-12-05T09:58:00Z</time>
      </trkpt>
      <trkpt lat="45.97833" lon="4.78701">
        <ele>235</ele>
        <time>2017-12-05T09:58:01Z</time>
      </trkpt>
      <trkpt lat="45.97841" lon="4.78705">
        <ele>236</ele>
        <time>2017-12-05T09:58:03Z</time>
      </trkpt>
      <trkpt lat="45.97845" lon="4.78707">
        <ele>236</ele>
        <time>2017-12-05T09:58:04Z</time>
      </trkpt>
      <trkpt lat="45.97851" lon="4.78712">
        <ele>236</ele>
        <time>2017-12-05T09:58:06Z</time>
      </trkpt>
      <trkpt lat="45.97855" lon="4.78714">
        <ele>236</ele>
        <time>2017-12-05T09:58:07Z</time>
      </trkpt>
      <trkpt lat="45.97863" lon="4.78719">
        <ele>236</ele>
        <time>2017-12-05T09:58:09Z</time>
      </trkpt>
      <trkpt lat="45.97867" lon="4.78722">
        <ele>236</ele>
        <time>2017-12-05T09:58:10Z</time>
      </trkpt>
      <trkpt lat="45.97871" lon="4.78725">
        <ele>236</ele>
        <time>2017-12-05T09:58:11Z</time>
      </trkpt>
      <trkpt lat="45.97876" lon="4.78727">
        <ele>236</ele>
        <time>2017-12-05T09:58:12Z</time>
      </trkpt>
      <trkpt lat="45.97879" lon="4.7873">
        <ele>236</ele>
        <time>2017-12-05T09:58:13Z</time>
      </trkpt>
      <trkpt lat="45.97884" lon="4.78732">
        <ele>236</ele>
        <time>2017-12-05T09:58:14Z</time>
      </trkpt>
      <trkpt lat="45.97892" lon="4.78736">
        <ele>236</ele>
        <time>2017-12-05T09:58:16Z</time>
      </trkpt>
      <trkpt lat="45.97896" lon="4.78739">
        <ele>237</ele>
        <time>2017-12-05T09:58:17Z</time>
      </trkpt>
      <trkpt lat="45.97903" lon="4.78745">
        <ele>237</ele>
        <time>2017-12-05T09:58:19Z</time>
      </trkpt>
      <trkpt lat="45.97908" lon="4.78747">
        <ele>237</ele>
        <time>2017-12-05T09:58:20Z</time>
      </trkpt>
      <trkpt lat="45.97915" lon="4.78753">
        <ele>237</ele>
        <time>2017-12-05T09:58:22Z</time>
      </trkpt>
      <trkpt lat="45.97919" lon="4.78755">
        <ele>237</ele>
        <time>2017-12-05T09:58:23Z</time>
      </trkpt>
      <trkpt lat="45.97924" lon="4.78758">
        <ele>237</ele>
        <time>2017-12-05T09:58:24Z</time>
      </trkpt>
      <trkpt lat="45.97928" lon="4.78761">
        <ele>238</ele>
        <time>2017-12-05T09:58:25Z</time>
      </trkpt>
      <trkpt lat="45.97932" lon="4.78764">
        <ele>238</ele>
        <time>2017-12-05T09:58:26Z</time>
      </trkpt>
      <trkpt lat="45.97936" lon="4.78768">
        <ele>238</ele>
        <time>2017-12-05T09:58:27Z</time>
      </trkpt>
      <trkpt lat="45.9794" lon="4.78771">
        <ele>238</ele>
        <time>2017-12-05T09:58:28Z</time>
      </trkpt>
      <trkpt lat="45.97944" lon="4.78774">
        <ele>238</ele>
        <time>2017-12-05T09:58:29Z</time>
      </trkpt>
      <trkpt lat="45.97949" lon="4.78777">
        <ele>238</ele>
        <time>2017-12-05T09:58:30Z</time>
      </trkpt>
      <trkpt lat="45.97954" lon="4.7878">
        <ele>238</ele>
        <time>2017-12-05T09:58:31Z</time>
      </trkpt>
      <trkpt lat="45.97958" lon="4.78784">
        <ele>238</ele>
        <time>2017-12-05T09:58:32Z</time>
      </trkpt>
      <trkpt lat="45.97962" lon="4.78787">
        <ele>238</ele>
        <time>2017-12-05T09:58:33Z</time>
      </trkpt>
      <trkpt lat="45.97966" lon="4.78789">
        <ele>238</ele>
        <time>2017-12-05T09:58:34Z</time>
      </trkpt>
      <trkpt lat="45.9797" lon="4.78793">
        <ele>238</ele>
        <time>2017-12-05T09:58:35Z</time>
      </trkpt>
      <trkpt lat="45.97978" lon="4.78798">
        <ele>238</ele>
        <time>2017-12-05T09:58:37Z</time>
      </trkpt>
      <trkpt lat="45.97981" lon="4.78801">
        <ele>238</ele>
        <time>2017-12-05T09:58:38Z</time>
      </trkpt>
      <trkpt lat="45.97988" lon="4.78806">
        <ele>238</ele>
        <time>2017-12-05T09:58:40Z</time>
      </trkpt>
      <trkpt lat="45.97993" lon="4.78809">
        <ele>238</ele>
        <time>2017-12-05T09:58:41Z</time>
      </trkpt>
      <trkpt lat="45.98001" lon="4.78813">
        <ele>238</ele>
        <time>2017-12-05T09:58:43Z</time>
      </trkpt>
      <trkpt lat="45.98004" lon="4.78815">
        <ele>238</ele>
        <time>2017-12-05T09:58:44Z</time>
      </trkpt>
      <trkpt lat="45.98011" lon="4.78821">
        <ele>238</ele>
        <time>2017-12-05T09:58:46Z</time>
      </trkpt>
      <trkpt lat="45.98014" lon="4.78825">
        <ele>238</ele>
        <time>2017-12-05T09:58:47Z</time>
      </trkpt>
      <trkpt lat="45.98018" lon="4.78828">
        <ele>238</ele>
        <time>2017-12-05T09:58:48Z</time>
      </trkpt>
      <trkpt lat="45.98022" lon="4.78831">
        <ele>238</ele>
        <time>2017-12-05T09:58:49Z</time>
      </trkpt>
      <trkpt lat="45.9803" lon="4.78837">
        <ele>238</ele>
        <time>2017-12-05T09:58:51Z</time>
      </trkpt>
      <trkpt lat="45.98034" lon="4.7884">
        <ele>238</ele>
        <time>2017-12-05T09:58:52Z</time>
      </trkpt>
      <trkpt lat="45.98038" lon="4.78843">
        <ele>238</ele>
        <time>2017-12-05T09:58:53Z</time>
      </trkpt>
      <trkpt lat="45.98043" lon="4.78846">
        <ele>239</ele>
        <time>2017-12-05T09:58:54Z</time>
      </trkpt>
      <trkpt lat="45.98048" lon="4.7885">
        <ele>239</ele>
        <time>2017-12-05T09:58:55Z</time>
      </trkpt>
      <trkpt lat="45.98053" lon="4.78854">
        <ele>239</ele>
        <time>2017-12-05T09:58:56Z</time>
      </trkpt>
      <trkpt lat="45.98057" lon="4.78856">
        <ele>239</ele>
        <time>2017-12-05T09:58:57Z</time>
      </trkpt>
      <trkpt lat="45.98061" lon="4.7886">
        <ele>239</ele>
        <time>2017-12-05T09:58:58Z</time>
      </trkpt>
      <trkpt lat="45.98065" lon="4.78862">
        <ele>239</ele>
        <time>2017-12-05T09:58:59Z</time>
      </trkpt>
      <trkpt lat="45.9807" lon="4.78865">
        <ele>239</ele>
        <time>2017-12-05T09:59:00Z</time>
      </trkpt>
      <trkpt lat="45.98077" lon="4.78871">
        <ele>239</ele>
        <time>2017-12-05T09:59:02Z</time>
      </trkpt>
      <trkpt lat="45.98081" lon="4.78874">
        <ele>239</ele>
        <time>2017-12-05T09:59:03Z</time>
      </trkpt>
      <trkpt lat="45.98089" lon="4.78878">
        <ele>240</ele>
        <time>2017-12-05T09:59:05Z</time>
      </trkpt>
      <trkpt lat="45.98093" lon="4.78882">
        <ele>240</ele>
        <time>2017-12-05T09:59:06Z</time>
      </trkpt>
      <trkpt lat="45.981" lon="4.78888">
        <ele>240</ele>
        <time>2017-12-05T09:59:08Z</time>
      </trkpt>
      <trkpt lat="45.98104" lon="4.7889">
        <ele>240</ele>
        <time>2017-12-05T09:59:09Z</time>
      </trkpt>
      <trkpt lat="45.98109" lon="4.78893">
        <ele>240</ele>
        <time>2017-12-05T09:59:10Z</time>
      </trkpt>
      <trkpt lat="45.98113" lon="4.78896">
        <ele>240</ele>
        <time>2017-12-05T09:59:11Z</time>
      </trkpt>
      <trkpt lat="45.98119" lon="4.78899">
        <ele>240</ele>
        <time>2017-12-05T09:59:13Z</time>
      </trkpt>
      <trkpt lat="45.98122" lon="4.78902">
        <ele>240</ele>
        <time>2017-12-05T09:59:14Z</time>
      </trkpt>
      <trkpt lat="45.98128" lon="4.78906">
        <ele>240</ele>
        <time>2017-12-05T09:59:16Z</time>
      </trkpt>
      <trkpt lat="45.98133" lon="4.78908">
        <ele>240</ele>
        <time>2017-12-05T09:59:17Z</time>
      </trkpt>
      <trkpt lat="45.98137" lon="4.7891">
        <ele>240</ele>
        <time>2017-12-05T09:59:18Z</time>
      </trkpt>
      <trkpt lat="45.98141" lon="4.78913">
        <ele>240</ele>
        <time>2017-12-05T09:59:19Z</time>
      </trkpt>
      <trkpt lat="45.98148" lon="4.78917">
        <ele>241</ele>
        <time>2017-12-05T09:59:21Z</time>
      </trkpt>
      <trkpt lat="45.98152" lon="4.78919">
        <ele>241</ele>
        <time>2017-12-05T09:59:22Z</time>
      </trkpt>
      <trkpt lat="45.98158" lon="4.78922">
        <ele>240</ele>
        <time>2017-12-05T09:59:24Z</time>
      </trkpt>
      <trkpt lat="45.98162" lon="4.78923">
        <ele>240</ele>
        <time>2017-12-05T09:59:25Z</time>
      </trkpt>
      <trkpt lat="45.98166" lon="4.78925">
        <ele>240</ele>
        <time>2017-12-05T09:59:26Z</time>
      </trkpt>
      <trkpt lat="45.98171" lon="4.78928">
        <ele>240</ele>
        <time>2017-12-05T09:59:27Z</time>
      </trkpt>
      <trkpt lat="45.98178" lon="4.78932">
        <ele>241</ele>
        <time>2017-12-05T09:59:29Z</time>
      </trkpt>
      <trkpt lat="45.98184" lon="4.78935">
        <ele>241</ele>
        <time>2017-12-05T09:59:30Z</time>
      </trkpt>
      <trkpt lat="45.98188" lon="4.78937">
        <ele>241</ele>
        <time>2017-12-05T09:59:31Z</time>
      </trkpt>
      <trkpt lat="45.98192" lon="4.7894">
        <ele>241</ele>
        <time>2017-12-05T09:59:32Z</time>
      </trkpt>
      <trkpt lat="45.98197" lon="4.78943">
        <ele>241</ele>
        <time>2017-12-05T09:59:33Z</time>
      </trkpt>
      <trkpt lat="45.98201" lon="4.78947">
        <ele>241</ele>
        <time>2017-12-05T09:59:34Z</time>
      </trkpt>
      <trkpt lat="45.98205" lon="4.7895">
        <ele>241</ele>
        <time>2017-12-05T09:59:35Z</time>
      </trkpt>
      <trkpt lat="45.9821" lon="4.78951">
        <ele>241</ele>
        <time>2017-12-05T09:59:36Z</time>
      </trkpt>
      <trkpt lat="45.98217" lon="4.78954">
        <ele>241</ele>
        <time>2017-12-05T09:59:38Z</time>
      </trkpt>
      <trkpt lat="45.9822" lon="4.78956">
        <ele>241</ele>
        <time>2017-12-05T09:59:39Z</time>
      </trkpt>
      <trkpt lat="45.98228" lon="4.78959">
        <ele>241</ele>
        <time>2017-12-05T09:59:41Z</time>
      </trkpt>
      <trkpt lat="45.98232" lon="4.78963">
        <ele>241</ele>
        <time>2017-12-05T09:59:42Z</time>
      </trkpt>
      <trkpt lat="45.9824" lon="4.78968">
        <ele>241</ele>
        <time>2017-12-05T09:59:44Z</time>
      </trkpt>
      <trkpt lat="45.98245" lon="4.78971">
        <ele>241</ele>
        <time>2017-12-05T09:59:45Z</time>
      </trkpt>
      <trkpt lat="45.98253" lon="4.78977">
        <ele>241</ele>
        <time>2017-12-05T09:59:47Z</time>
      </trkpt>
      <trkpt lat="45.98257" lon="4.7898">
        <ele>241</ele>
        <time>2017-12-05T09:59:48Z</time>
      </trkpt>
      <trkpt lat="45.98261" lon="4.78983">
        <ele>241</ele>
        <time>2017-12-05T09:59:49Z</time>
      </trkpt>
      <trkpt lat="45.98266" lon="4.78985">
        <ele>241</ele>
        <time>2017-12-05T09:59:50Z</time>
      </trkpt>
      <trkpt lat="45.98272" lon="4.78987">
        <ele>241</ele>
        <time>2017-12-05T09:59:51Z</time>
      </trkpt>
      <trkpt lat="45.98276" lon="4.7899">
        <ele>241</ele>
        <time>2017-12-05T09:59:52Z</time>
      </trkpt>
      <trkpt lat="45.98284" lon="4.78995">
        <ele>241</ele>
        <time>2017-12-05T09:59:54Z</time>
      </trkpt>
      <trkpt lat="45.98288" lon="4.78998">
        <ele>241</ele>
        <time>2017-12-05T09:59:55Z</time>
      </trkpt>
      <trkpt lat="45.98292" lon="4.79001">
        <ele>242</ele>
        <time>2017-12-05T09:59:56Z</time>
      </trkpt>
      <trkpt lat="45.98296" lon="4.79004">
        <ele>242</ele>
        <time>2017-12-05T09:59:57Z</time>
      </trkpt>
      <trkpt lat="45.983" lon="4.79007">
        <ele>242</ele>
        <time>2017-12-05T09:59:58Z</time>
      </trkpt>
      <trkpt lat="45.98305" lon="4.79009">
        <ele>242</ele>
        <time>2017-12-05T09:59:59Z</time>
      </trkpt>
      <trkpt lat="45.98309" lon="4.79012">
        <ele>242</ele>
        <time>2017-12-05T10:00:00Z</time>
      </trkpt>
      <trkpt lat="45.98313" lon="4.79015">
        <ele>242</ele>
        <time>2017-12-05T10:00:01Z</time>
      </trkpt>
      <trkpt lat="45.9832" lon="4.79021">
        <ele>242</ele>
        <time>2017-12-05T10:00:03Z</time>
      </trkpt>
      <trkpt lat="45.98324" lon="4.79023">
        <ele>242</ele>
        <time>2017-12-05T10:00:04Z</time>
      </trkpt>
      <trkpt lat="45.98331" lon="4.7903">
        <ele>242</ele>
        <time>2017-12-05T10:00:06Z</time>
      </trkpt>
      <trkpt lat="45.98335" lon="4.79033">
        <ele>242</ele>
        <time>2017-12-05T10:00:07Z</time>
      </trkpt>
      <trkpt lat="45.98342" lon="4.79038">
        <ele>242</ele>
        <time>2017-12-05T10:00:09Z</time>
      </trkpt>
      <trkpt lat="45.98344" lon="4.79041">
        <ele>242</ele>
        <time>2017-12-05T10:00:10Z</time>
      </trkpt>
      <trkpt lat="45.98349" lon="4.79047">
        <ele>242</ele>
        <time>2017-12-05T10:00:12Z</time>
      </trkpt>
      <trkpt lat="45.98352" lon="4.79051">
        <ele>242</ele>
        <time>2017-12-05T10:00:13Z</time>
      </trkpt>
      <trkpt lat="45.98358" lon="4.79059">
        <ele>242</ele>
        <time>2017-12-05T10:00:15Z</time>
      </trkpt>
      <trkpt lat="45.9836" lon="4.79064">
        <ele>242</ele>
        <time>2017-12-05T10:00:16Z</time>
      </trkpt>
      <trkpt lat="45.98366" lon="4.79073">
        <ele>242</ele>
        <time>2017-12-05T10:00:18Z</time>
      </trkpt>
      <trkpt lat="45.98369" lon="4.79078">
        <ele>242</ele>
        <time>2017-12-05T10:00:19Z</time>
      </trkpt>
      <trkpt lat="45.98372" lon="4.79082">
        <ele>242</ele>
        <time>2017-12-05T10:00:20Z</time>
      </trkpt>
      <trkpt lat="45.98376" lon="4.79087">
        <ele>242</ele>
        <time>2017-12-05T10:00:21Z</time>
      </trkpt>
      <trkpt lat="45.98379" lon="4.79092">
        <ele>242</ele>
        <time>2017-12-05T10:00:22Z</time>
      </trkpt>
      <trkpt lat="45.98382" lon="4.79097">
        <ele>242</ele>
        <time>2017-12-05T10:00:23Z</time>
      </trkpt>
      <trkpt lat="45.98385" lon="4.79102">
        <ele>242</ele>
        <time>2017-12-05T10:00:24Z</time>
      </trkpt>
      <trkpt lat="45.98388" lon="4.79108">
        <ele>242</ele>
        <time>2017-12-05T10:00:25Z</time>
      </trkpt>
      <trkpt lat="45.98392" lon="4.79113">
        <ele>242</ele>
        <time>2017-12-05T10:00:26Z</time>
      </trkpt>
      <trkpt lat="45.98395" lon="4.79118">
        <ele>242</ele>
        <time>2017-12-05T10:00:27Z</time>
      </trkpt>
      <trkpt lat="45.98399" lon="4.79123">
        <ele>242</ele>
        <time>2017-12-05T10:00:28Z</time>
      </trkpt>
      <trkpt lat="45.98402" lon="4.79127">
        <ele>242</ele>
        <time>2017-12-05T10:00:29Z</time>
      </trkpt>
      <trkpt lat="45.98404" lon="4.79133">
        <ele>242</ele>
        <time>2017-12-05T10:00:30Z</time>
      </trkpt>
      <trkpt lat="45.98407" lon="4.79139">
        <ele>242</ele>
        <time>2017-12-05T10:00:31Z</time>
      </trkpt>
      <trkpt lat="45.9841" lon="4.79144">
        <ele>242</ele>
        <time>2017-12-05T10:00:32Z</time>
      </trkpt>
      <trkpt lat="45.98413" lon="4.79149">
        <ele>242</ele>
        <time>2017-12-05T10:00:33Z</time>
      </trkpt>
      <trkpt lat="45.98415" lon="4.79154">
        <ele>242</ele>
        <time>2017-12-05T10:00:34Z</time>
      </trkpt>
      <trkpt lat="45.98418" lon="4.7916">
        <ele>242</ele>
        <time>2017-12-05T10:00:35Z</time>
      </trkpt>
      <trkpt lat="45.98421" lon="4.79165">
        <ele>242</ele>
        <time>2017-12-05T10:00:36Z</time>
      </trkpt>
      <trkpt lat="45.98425" lon="4.79171">
        <ele>242</ele>
        <time>2017-12-05T10:00:37Z</time>
      </trkpt>
      <trkpt lat="45.98428" lon="4.79177">
        <ele>242</ele>
        <time>2017-12-05T10:00:38Z</time>
      </trkpt>
      <trkpt lat="45.98432" lon="4.79183">
        <ele>242</ele>
        <time>2017-12-05T10:00:39Z</time>
      </trkpt>
      <trkpt lat="45.98435" lon="4.79188">
        <ele>242</ele>
        <time>2017-12-05T10:00:40Z</time>
      </trkpt>
      <trkpt lat="45.98439" lon="4.79194">
        <ele>242</ele>
        <time>2017-12-05T10:00:41Z</time>
      </trkpt>
      <trkpt lat="45.98443" lon="4.792">
        <ele>242</ele>
        <time>2017-12-05T10:00:42Z</time>
      </trkpt>
      <trkpt lat="45.98446" lon="4.79205">
        <ele>242</ele>
        <time>2017-12-05T10:00:43Z</time>
      </trkpt>
      <trkpt lat="45.98449" lon="4.79211">
        <ele>242</ele>
        <time>2017-12-05T10:00:44Z</time>
      </trkpt>
      <trkpt lat="45.98451" lon="4.79216">
        <ele>242</ele>
        <time>2017-12-05T10:00:45Z</time>
      </trkpt>
      <trkpt lat="45.98456" lon="4.79227">
        <ele>243</ele>
        <time>2017-12-05T10:00:47Z</time>
      </trkpt>
      <trkpt lat="45.98458" lon="4.79232">
        <ele>243</ele>
        <time>2017-12-05T10:00:48Z</time>
      </trkpt>
      <trkpt lat="45.9846" lon="4.79237">
        <ele>243</ele>
        <time>2017-12-05T10:00:49Z</time>
      </trkpt>
      <trkpt lat="45.98463" lon="4.79242">
        <ele>243</ele>
        <time>2017-12-05T10:00:50Z</time>
      </trkpt>
      <trkpt lat="45.98467" lon="4.79248">
        <ele>243</ele>
        <time>2017-12-05T10:00:51Z</time>
      </trkpt>
      <trkpt lat="45.9847" lon="4.79254">
        <ele>243</ele>
        <time>2017-12-05T10:00:52Z</time>
      </trkpt>
      <trkpt lat="45.98473" lon="4.7926">
        <ele>243</ele>
        <time>2017-12-05T10:00:53Z</time>
      </trkpt>
      <trkpt lat="45.98476" lon="4.79265">
        <ele>243</ele>
        <time>2017-12-05T10:00:54Z</time>
      </trkpt>
      <trkpt lat="45.98478" lon="4.79272">
        <ele>243</ele>
        <time>2017-12-05T10:00:55Z</time>
      </trkpt>
      <trkpt lat="45.9848" lon="4.79278">
        <ele>243</ele>
        <time>2017-12-05T10:00:56Z</time>
      </trkpt>
      <trkpt lat="45.98483" lon="4.79283">
        <ele>243</ele>
        <time>2017-12-05T10:00:57Z</time>
      </trkpt>
      <trkpt lat="45.98486" lon="4.7929">
        <ele>243</ele>
        <time>2017-12-05T10:00:58Z</time>
      </trkpt>
      <trkpt lat="45.98489" lon="4.79297">
        <ele>243</ele>
        <time>2017-12-05T10:00:59Z</time>
      </trkpt>
      <trkpt lat="45.98491" lon="4.79302">
        <ele>243</ele>
        <time>2017-12-05T10:01:00Z</time>
      </trkpt>
      <trkpt lat="45.98493" lon="4.79308">
        <ele>243</ele>
        <time>2017-12-05T10:01:01Z</time>
      </trkpt>
      <trkpt lat="45.98496" lon="4.79315">
        <ele>243</ele>
        <time>2017-12-05T10:01:02Z</time>
      </trkpt>
      <trkpt lat="45.98498" lon="4.79322">
        <ele>243</ele>
        <time>2017-12-05T10:01:03Z</time>
      </trkpt>
      <trkpt lat="45.985" lon="4.79329">
        <ele>243</ele>
        <time>2017-12-05T10:01:04Z</time>
      </trkpt>
      <trkpt lat="45.98502" lon="4.79336">
        <ele>243</ele>
        <time>2017-12-05T10:01:05Z</time>
      </trkpt>
      <trkpt lat="45.98504" lon="4.79343">
        <ele>243</ele>
        <time>2017-12-05T10:01:06Z</time>
      </trkpt>
      <trkpt lat="45.98506" lon="4.7935">
        <ele>243</ele>
        <time>2017-12-05T10:01:07Z</time>
      </trkpt>
      <trkpt lat="45.98508" lon="4.79356">
        <ele>243</ele>
        <time>2017-12-05T10:01:08Z</time>
      </trkpt>
      <trkpt lat="45.98509" lon="4.79363">
        <ele>243</ele>
        <time>2017-12-05T10:01:09Z</time>
      </trkpt>
      <trkpt lat="45.98511" lon="4.79369">
        <ele>243</ele>
        <time>2017-12-05T10:01:10Z</time>
      </trkpt>
      <trkpt lat="45.98514" lon="4.7938">
        <ele>244</ele>
        <time>2017-12-05T10:01:12Z</time>
      </trkpt>
      <trkpt lat="45.98515" lon="4.79387">
        <ele>244</ele>
        <time>2017-12-05T10:01:13Z</time>
      </trkpt>
      <trkpt lat="45.98517" lon="4.79399">
        <ele>244</ele>
        <time>2017-12-05T10:01:15Z</time>
      </trkpt>
      <trkpt lat="45.98518" lon="4.79405">
        <ele>244</ele>
        <time>2017-12-05T10:01:16Z</time>
      </trkpt>
      <trkpt lat="45.9852" lon="4.79417">
        <ele>244</ele>
        <time>2017-12-05T10:01:18Z</time>
      </trkpt>
      <trkpt lat="45.9852" lon="4.79424">
        <ele>244</ele>
        <time>2017-12-05T10:01:19Z</time>
      </trkpt>
      <trkpt lat="45.98521" lon="4.79435">
        <ele>244</ele>
        <time>2017-12-05T10:01:21Z</time>
      </trkpt>
      <trkpt lat="45.98521" lon="4.79441">
        <ele>244</ele>
        <time>2017-12-05T10:01:22Z</time>
      </trkpt>
      <trkpt lat="45.98521" lon="4.79448">
        <ele>244</ele>
        <time>2017-12-05T10:01:23Z</time>
      </trkpt>
      <trkpt lat="45.98522" lon="4.79454">
        <ele>244</ele>
        <time>2017-12-05T10:01:24Z</time>
      </trkpt>
      <trkpt lat="45.98522" lon="4.79467">
        <ele>244</ele>
        <time>2017-12-05T10:01:26Z</time>
      </trkpt>
      <trkpt lat="45.98522" lon="4.79472">
        <ele>244</ele>
        <time>2017-12-05T10:01:27Z</time>
      </trkpt>
      <trkpt lat="45.98522" lon="4.79484">
        <ele>244</ele>
        <time>2017-12-05T10:01:29Z</time>
      </trkpt>
      <trkpt lat="45.98522" lon="4.7949">
        <ele>243</ele>
        <time>2017-12-05T10:01:30Z</time>
      </trkpt>
      <trkpt lat="45.98524" lon="4.79503">
        <ele>244</ele>
        <time>2017-12-05T10:01:32Z</time>
      </trkpt>
      <trkpt lat="45.98525" lon="4.79509">
        <ele>244</ele>
        <time>2017-12-05T10:01:33Z</time>
      </trkpt>
      <trkpt lat="45.98526" lon="4.79515">
        <ele>244</ele>
        <time>2017-12-05T10:01:34Z</time>
      </trkpt>
      <trkpt lat="45.98529" lon="4.79522">
        <ele>244</ele>
        <time>2017-12-05T10:01:35Z</time>
      </trkpt>
      <trkpt lat="45.9853" lon="4.79529">
        <ele>244</ele>
        <time>2017-12-05T10:01:36Z</time>
      </trkpt>
      <trkpt lat="45.98532" lon="4.79535">
        <ele>244</ele>
        <time>2017-12-05T10:01:37Z</time>
      </trkpt>
      <trkpt lat="45.98534" lon="4.7954">
        <ele>244</ele>
        <time>2017-12-05T10:01:38Z</time>
      </trkpt>
      <trkpt lat="45.98537" lon="4.79546">
        <ele>244</ele>
        <time>2017-12-05T10:01:39Z</time>
      </trkpt>
      <trkpt lat="45.9854" lon="4.79551">
        <ele>244</ele>
        <time>2017-12-05T10:01:40Z</time>
      </trkpt>
      <trkpt lat="45.98543" lon="4.79557">
        <ele>244</ele>
        <time>2017-12-05T10:01:41Z</time>
      </trkpt>
      <trkpt lat="45.98548" lon="4.79566">
        <ele>244</ele>
        <time>2017-12-05T10:01:43Z</time>
      </trkpt>
      <trkpt lat="45.98551" lon="4.79571">
        <ele>244</ele>
        <time>2017-12-05T10:01:44Z</time>
      </trkpt>
      <trkpt lat="45.98554" lon="4.79575">
        <ele>244</ele>
        <time>2017-12-05T10:01:45Z</time>
      </trkpt>
      <trkpt lat="45.98558" lon="4.7958">
        <ele>244</ele>
        <time>2017-12-05T10:01:46Z</time>
      </trkpt>
      <trkpt lat="45.98562" lon="4.79584">
        <ele>245</ele>
        <time>2017-12-05T10:01:47Z</time>
      </trkpt>
      <trkpt lat="45.98566" lon="4.79588">
        <ele>245</ele>
        <time>2017-12-05T10:01:48Z</time>
      </trkpt>
      <trkpt lat="45.98569" lon="4.79592">
        <ele>245</ele>
        <time>2017-12-05T10:01:49Z</time>
      </trkpt>
      <trkpt lat="45.98573" lon="4.79595">
        <ele>245</ele>
        <time>2017-12-05T10:01:50Z</time>
      </trkpt>
      <trkpt lat="45.9858" lon="4.796">
        <ele>245</ele>
        <time>2017-12-05T10:01:52Z</time>
      </trkpt>
      <trkpt lat="45.98583" lon="4.79604">
        <ele>245</ele>
        <time>2017-12-05T10:01:53Z</time>
      </trkpt>
      <trkpt lat="45.98588" lon="4.79612">
        <ele>245</ele>
        <time>2017-12-05T10:01:55Z</time>
      </trkpt>
      <trkpt lat="45.9859" lon="4.79616">
        <ele>245</ele>
        <time>2017-12-05T10:01:56Z</time>
      </trkpt>
      <trkpt lat="45.98591" lon="4.79627">
        <ele>245</ele>
        <time>2017-12-05T10:01:58Z</time>
      </trkpt>
      <trkpt lat="45.98589" lon="4.79632">
        <ele>245</ele>
        <time>2017-12-05T10:01:59Z</time>
      </trkpt>
      <trkpt lat="45.98586" lon="4.79644">
        <ele>245</ele>
        <time>2017-12-05T10:02:01Z</time>
      </trkpt>
      <trkpt lat="45.98585" lon="4.7965">
        <ele>245</ele>
        <time>2017-12-05T10:02:02Z</time>
      </trkpt>
      <trkpt lat="45.98579" lon="4.7966">
        <ele>245</ele>
        <time>2017-12-05T10:02:04Z</time>
      </trkpt>
      <trkpt lat="45.98576" lon="4.79664">
        <ele>245</ele>
        <time>2017-12-05T10:02:05Z</time>
      </trkpt>
      <trkpt lat="45.98573" lon="4.79669">
        <ele>245</ele>
        <time>2017-12-05T10:02:06Z</time>
      </trkpt>
      <trkpt lat="45.9857" lon="4.79675">
        <ele>245</ele>
        <time>2017-12-05T10:02:07Z</time>
      </trkpt>
      <trkpt lat="45.98566" lon="4.79681">
        <ele>244</ele>
        <time>2017-12-05T10:02:08Z</time>
      </trkpt>
      <trkpt lat="45.98562" lon="4.79686">
        <ele>244</ele>
        <time>2017-12-05T10:02:09Z</time>
      </trkpt>
      <trkpt lat="45.98558" lon="4.79692">
        <ele>244</ele>
        <time>2017-12-05T10:02:10Z</time>
      </trkpt>
      <trkpt lat="45.98553" lon="4.79697">
        <ele>244</ele>
        <time>2017-12-05T10:02:11Z</time>
      </trkpt>
      <trkpt lat="45.98548" lon="4.79701">
        <ele>244</ele>
        <time>2017-12-05T10:02:12Z</time>
      </trkpt>
      <trkpt lat="45.98543" lon="4.79706">
        <ele>244</ele>
        <time>2017-12-05T10:02:13Z</time>
      </trkpt>
      <trkpt lat="45.98538" lon="4.7971">
        <ele>244</ele>
        <time>2017-12-05T10:02:14Z</time>
      </trkpt>
      <trkpt lat="45.98531" lon="4.79713">
        <ele>244</ele>
        <time>2017-12-05T10:02:15Z</time>
      </trkpt>
      <trkpt lat="45.98525" lon="4.79716">
        <ele>244</ele>
        <time>2017-12-05T10:02:16Z</time>
      </trkpt>
      <trkpt lat="45.98518" lon="4.79717">
        <ele>244</ele>
        <time>2017-12-05T10:02:17Z</time>
      </trkpt>
      <trkpt lat="45.98511" lon="4.79719">
        <ele>244</ele>
        <time>2017-12-05T10:02:18Z</time>
      </trkpt>
      <trkpt lat="45.98504" lon="4.7972">
        <ele>244</ele>
        <time>2017-12-05T10:02:19Z</time>
      </trkpt>
      <trkpt lat="45.98498" lon="4.79721">
        <ele>243</ele>
        <time>2017-12-05T10:02:20Z</time>
      </trkpt>
      <trkpt lat="45.98491" lon="4.7972">
        <ele>243</ele>
        <time>2017-12-05T10:02:21Z</time>
      </trkpt>
      <trkpt lat="45.98484" lon="4.7972">
        <ele>243</ele>
        <time>2017-12-05T10:02:22Z</time>
      </trkpt>
      <trkpt lat="45.98477" lon="4.79719">
        <ele>243</ele>
        <time>2017-12-05T10:02:23Z</time>
      </trkpt>
      <trkpt lat="45.9847" lon="4.79719">
        <ele>243</ele>
        <time>2017-12-05T10:02:24Z</time>
      </trkpt>
      <trkpt lat="45.98464" lon="4.79718">
        <ele>243</ele>
        <time>2017-12-05T10:02:25Z</time>
      </trkpt>
      <trkpt lat="45.98456" lon="4.79718">
        <ele>243</ele>
        <time>2017-12-05T10:02:26Z</time>
      </trkpt>
      <trkpt lat="45.9845" lon="4.79718">
        <ele>243</ele>
        <time>2017-12-05T10:02:27Z</time>
      </trkpt>
      <trkpt lat="45.98443" lon="4.79716">
        <ele>243</ele>
        <time>2017-12-05T10:02:28Z</time>
      </trkpt>
      <trkpt lat="45.98437" lon="4.79717">
        <ele>242</ele>
        <time>2017-12-05T10:02:29Z</time>
      </trkpt>
      <trkpt lat="45.98428" lon="4.79717">
        <ele>242</ele>
        <time>2017-12-05T10:02:30Z</time>
      </trkpt>
      <trkpt lat="45.98421" lon="4.79717">
        <ele>242</ele>
        <time>2017-12-05T10:02:31Z</time>
      </trkpt>
      <trkpt lat="45.98414" lon="4.79718">
        <ele>241</ele>
        <time>2017-12-05T10:02:32Z</time>
      </trkpt>
      <trkpt lat="45.98406" lon="4.79718">
        <ele>241</ele>
        <time>2017-12-05T10:02:33Z</time>
      </trkpt>
      <trkpt lat="45.98399" lon="4.79719">
        <ele>241</ele>
        <time>2017-12-05T10:02:34Z</time>
      </trkpt>
      <trkpt lat="45.98391" lon="4.79719">
        <ele>241</ele>
        <time>2017-12-05T10:02:35Z</time>
      </trkpt>
      <trkpt lat="45.98384" lon="4.79721">
        <ele>241</ele>
        <time>2017-12-05T10:02:36Z</time>
      </trkpt>
      <trkpt lat="45.98377" lon="4.79722">
        <ele>241</ele>
        <time>2017-12-05T10:02:37Z</time>
      </trkpt>
      <trkpt lat="45.9837" lon="4.79723">
        <ele>241</ele>
        <time>2017-12-05T10:02:38Z</time>
      </trkpt>
      <trkpt lat="45.98362" lon="4.79724">
        <ele>240</ele>
        <time>2017-12-05T10:02:39Z</time>
      </trkpt>
      <trkpt lat="45.98354" lon="4.79724">
        <ele>240</ele>
        <time>2017-12-05T10:02:40Z</time>
      </trkpt>
      <trkpt lat="45.98345" lon="4.79724">
        <ele>240</ele>
        <time>2017-12-05T10:02:41Z</time>
      </trkpt>
      <trkpt lat="45.98337" lon="4.79726">
        <ele>240</ele>
        <time>2017-12-05T10:02:42Z</time>
      </trkpt>
      <trkpt lat="45.98329" lon="4.79726">
        <ele>236</ele>
        <time>2017-12-05T10:02:43Z</time>
      </trkpt>
      <trkpt lat="45.9832" lon="4.79727">
        <ele>236</ele>
        <time>2017-12-05T10:02:44Z</time>
      </trkpt>
      <trkpt lat="45.98312" lon="4.79729">
        <ele>236</ele>
        <time>2017-12-05T10:02:45Z</time>
      </trkpt>
      <trkpt lat="45.98304" lon="4.79731">
        <ele>235</ele>
        <time>2017-12-05T10:02:46Z</time>
      </trkpt>
      <trkpt lat="45.98295" lon="4.79733">
        <ele>235</ele>
        <time>2017-12-05T10:02:47Z</time>
      </trkpt>
      <trkpt lat="45.98287" lon="4.79735">
        <ele>234</ele>
        <time>2017-12-05T10:02:48Z</time>
      </trkpt>
      <trkpt lat="45.98279" lon="4.79737">
        <ele>233</ele>
        <time>2017-12-05T10:02:49Z</time>
      </trkpt>
      <trkpt lat="45.9827" lon="4.79737">
        <ele>232</ele>
        <time>2017-12-05T10:02:50Z</time>
      </trkpt>
      <trkpt lat="45.98262" lon="4.79738">
        <ele>231</ele>
        <time>2017-12-05T10:02:51Z</time>
      </trkpt>
      <trkpt lat="45.98253" lon="4.79739">
        <ele>231</ele>
        <time>2017-12-05T10:02:52Z</time>
      </trkpt>
      <trkpt lat="45.98245" lon="4.79742">
        <ele>228</ele>
        <time>2017-12-05T10:02:53Z</time>
      </trkpt>
      <trkpt lat="45.98236" lon="4.79743">
        <ele>228</ele>
        <time>2017-12-05T10:02:54Z</time>
      </trkpt>
      <trkpt lat="45.98229" lon="4.79744">
        <ele>228</ele>
        <time>2017-12-05T10:02:55Z</time>
      </trkpt>
      <trkpt lat="45.98222" lon="4.79746">
        <ele>228</ele>
        <time>2017-12-05T10:02:56Z</time>
      </trkpt>
      <trkpt lat="45.98214" lon="4.79747">
        <ele>228</ele>
        <time>2017-12-05T10:02:57Z</time>
      </trkpt>
      <trkpt lat="45.98208" lon="4.79748">
        <ele>228</ele>
        <time>2017-12-05T10:02:58Z</time>
      </trkpt>
      <trkpt lat="45.98201" lon="4.79748">
        <ele>228</ele>
        <time>2017-12-05T10:02:59Z</time>
      </trkpt>
      <trkpt lat="45.98194" lon="4.79748">
        <ele>228</ele>
        <time>2017-12-05T10:03:00Z</time>
      </trkpt>
      <trkpt lat="45.98188" lon="4.79747">
        <ele>227</ele>
        <time>2017-12-05T10:03:01Z</time>
      </trkpt>
      <trkpt lat="45.98183" lon="4.79745">
        <ele>227</ele>
        <time>2017-12-05T10:03:02Z</time>
      </trkpt>
      <trkpt lat="45.98178" lon="4.79743">
        <ele>227</ele>
        <time>2017-12-05T10:03:03Z</time>
      </trkpt>
      <trkpt lat="45.98174" lon="4.79743">
        <ele>227</ele>
        <time>2017-12-05T10:03:04Z</time>
      </trkpt>
      <trkpt lat="45.98169" lon="4.79746">
        <ele>226</ele>
        <time>2017-12-05T10:03:05Z</time>
      </trkpt>
      <trkpt lat="45.98165" lon="4.79751">
        <ele>226</ele>
        <time>2017-12-05T10:03:06Z</time>
      </trkpt>
      <trkpt lat="45.98164" lon="4.79758">
        <ele>225</ele>
        <time>2017-12-05T10:03:07Z</time>
      </trkpt>
      <trkpt lat="45.98164" lon="4.79767">
        <ele>225</ele>
        <time>2017-12-05T10:03:08Z</time>
      </trkpt>
      <trkpt lat="45.98166" lon="4.79774">
        <ele>225</ele>
        <time>2017-12-05T10:03:09Z</time>
      </trkpt>
      <trkpt lat="45.98169" lon="4.79779">
        <ele>226</ele>
        <time>2017-12-05T10:03:10Z</time>
      </trkpt>
      <trkpt lat="45.98173" lon="4.79784">
        <ele>226</ele>
        <time>2017-12-05T10:03:11Z</time>
      </trkpt>
      <trkpt lat="45.98176" lon="4.79789">
        <ele>226</ele>
        <time>2017-12-05T10:03:12Z</time>
      </trkpt>
      <trkpt lat="45.98178" lon="4.79795">
        <ele>226</ele>
        <time>2017-12-05T10:03:13Z</time>
      </trkpt>
      <trkpt lat="45.98181" lon="4.79801">
        <ele>226</ele>
        <time>2017-12-05T10:03:14Z</time>
      </trkpt>
      <trkpt lat="45.98183" lon="4.79807">
        <ele>225</ele>
        <time>2017-12-05T10:03:15Z</time>
      </trkpt>
      <trkpt lat="45.98185" lon="4.79814">
        <ele>225</ele>
        <time>2017-12-05T10:03:16Z</time>
      </trkpt>
      <trkpt lat="45.98187" lon="4.79821">
        <ele>225</ele>
        <time>2017-12-05T10:03:17Z</time>
      </trkpt>
      <trkpt lat="45.9819" lon="4.79828">
        <ele>225</ele>
        <time>2017-12-05T10:03:18Z</time>
      </trkpt>
      <trkpt lat="45.98192" lon="4.79836">
        <ele>225</ele>
        <time>2017-12-05T10:03:19Z</time>
      </trkpt>
      <trkpt lat="45.98195" lon="4.79843">
        <ele>225</ele>
        <time>2017-12-05T10:03:20Z</time>
      </trkpt>
      <trkpt lat="45.98198" lon="4.79851">
        <ele>225</ele>
        <time>2017-12-05T10:03:21Z</time>
      </trkpt>
      <trkpt lat="45.98201" lon="4.79858">
        <ele>225</ele>
        <time>2017-12-05T10:03:22Z</time>
      </trkpt>
      <trkpt lat="45.98204" lon="4.79866">
        <ele>225</ele>
        <time>2017-12-05T10:03:23Z</time>
      </trkpt>
      <trkpt lat="45.98206" lon="4.79873">
        <ele>225</ele>
        <time>2017-12-05T10:03:24Z</time>
      </trkpt>
      <trkpt lat="45.98209" lon="4.79881">
        <ele>225</ele>
        <time>2017-12-05T10:03:25Z</time>
      </trkpt>
      <trkpt lat="45.98212" lon="4.79889">
        <ele>225</ele>
        <time>2017-12-05T10:03:26Z</time>
      </trkpt>
      <trkpt lat="45.98215" lon="4.79896">
        <ele>225</ele>
        <time>2017-12-05T10:03:27Z</time>
      </trkpt>
      <trkpt lat="45.98218" lon="4.79902">
        <ele>225</ele>
        <time>2017-12-05T10:03:28Z</time>
      </trkpt>
      <trkpt lat="45.9822" lon="4.7991">
        <ele>225</ele>
        <time>2017-12-05T10:03:29Z</time>
      </trkpt>
      <trkpt lat="45.98223" lon="4.79918">
        <ele>225</ele>
        <time>2017-12-05T10:03:30Z</time>
      </trkpt>
      <trkpt lat="45.98226" lon="4.79926">
        <ele>225</ele>
        <time>2017-12-05T10:03:31Z</time>
      </trkpt>
      <trkpt lat="45.98229" lon="4.79934">
        <ele>225</ele>
        <time>2017-12-05T10:03:32Z</time>
      </trkpt>
      <trkpt lat="45.98232" lon="4.79942">
        <ele>225</ele>
        <time>2017-12-05T10:03:33Z</time>
      </trkpt>
      <trkpt lat="45.98234" lon="4.79948">
        <ele>225</ele>
        <time>2017-12-05T10:03:34Z</time>
      </trkpt>
      <trkpt lat="45.98237" lon="4.79955">
        <ele>225</ele>
        <time>2017-12-05T10:03:35Z</time>
      </trkpt>
      <trkpt lat="45.98239" lon="4.79961">
        <ele>225</ele>
        <time>2017-12-05T10:03:36Z</time>
      </trkpt>
      <trkpt lat="45.98242" lon="4.79968">
        <ele>225</ele>
        <time>2017-12-05T10:03:37Z</time>
      </trkpt>
      <trkpt lat="45.98244" lon="4.79974">
        <ele>225</ele>
        <time>2017-12-05T10:03:38Z</time>
      </trkpt>
      <trkpt lat="45.98246" lon="4.7998">
        <ele>225</ele>
        <time>2017-12-05T10:03:39Z</time>
      </trkpt>
      <trkpt lat="45.98249" lon="4.79992">
        <ele>226</ele>
        <time>2017-12-05T10:03:41Z</time>
      </trkpt>
      <trkpt lat="45.98251" lon="4.79997">
        <ele>227</ele>
        <time>2017-12-05T10:03:42Z</time>
      </trkpt>
      <trkpt lat="45.98253" lon="4.80003">
        <ele>227</ele>
        <time>2017-12-05T10:03:43Z</time>
      </trkpt>
      <trkpt lat="45.98256" lon="4.80011">
        <ele>227</ele>
        <time>2017-12-05T10:03:44Z</time>
      </trkpt>
      <trkpt lat="45.98259" lon="4.80017">
        <ele>228</ele>
        <time>2017-12-05T10:03:45Z</time>
      </trkpt>
      <trkpt lat="45.98261" lon="4.80023">
        <ele>228</ele>
        <time>2017-12-05T10:03:46Z</time>
      </trkpt>
      <trkpt lat="45.98264" lon="4.80031">
        <ele>228</ele>
        <time>2017-12-05T10:03:47Z</time>
      </trkpt>
      <trkpt lat="45.98266" lon="4.80038">
        <ele>229</ele>
        <time>2017-12-05T10:03:48Z</time>
      </trkpt>
      <trkpt lat="45.98268" lon="4.80044">
        <ele>229</ele>
        <time>2017-12-05T10:03:49Z</time>
      </trkpt>
      <trkpt lat="45.98271" lon="4.8005">
        <ele>229</ele>
        <time>2017-12-05T10:03:50Z</time>
      </trkpt>
      <trkpt lat="45.98273" lon="4.80056">
        <ele>229</ele>
        <time>2017-12-05T10:03:51Z</time>
      </trkpt>
      <trkpt lat="45.98275" lon="4.80061">
        <ele>229</ele>
        <time>2017-12-05T10:03:52Z</time>
      </trkpt>
      <trkpt lat="45.9828" lon="4.80071">
        <ele>229</ele>
        <time>2017-12-05T10:03:54Z</time>
      </trkpt>
      <trkpt lat="45.98281" lon="4.80077">
        <ele>229</ele>
        <time>2017-12-05T10:03:55Z</time>
      </trkpt>
      <trkpt lat="45.98284" lon="4.80088">
        <ele>228</ele>
        <time>2017-12-05T10:03:57Z</time>
      </trkpt>
      <trkpt lat="45.98286" lon="4.80094">
        <ele>228</ele>
        <time>2017-12-05T10:03:58Z</time>
      </trkpt>
      <trkpt lat="45.98289" lon="4.80105">
        <ele>228</ele>
        <time>2017-12-05T10:04:00Z</time>
      </trkpt>
      <trkpt lat="45.98292" lon="4.80112">
        <ele>228</ele>
        <time>2017-12-05T10:04:01Z</time>
      </trkpt>
      <trkpt lat="45.98294" lon="4.80119">
        <ele>228</ele>
        <time>2017-12-05T10:04:02Z</time>
      </trkpt>
      <trkpt lat="45.98296" lon="4.80126">
        <ele>228</ele>
        <time>2017-12-05T10:04:03Z</time>
      </trkpt>
      <trkpt lat="45.98298" lon="4.80134">
        <ele>228</ele>
        <time>2017-12-05T10:04:04Z</time>
      </trkpt>
      <trkpt lat="45.98302" lon="4.8014">
        <ele>228</ele>
        <time>2017-12-05T10:04:05Z</time>
      </trkpt>
      <trkpt lat="45.98306" lon="4.80147">
        <ele>228</ele>
        <time>2017-12-05T10:04:06Z</time>
      </trkpt>
      <trkpt lat="45.98308" lon="4.80154">
        <ele>228</ele>
        <time>2017-12-05T10:04:07Z</time>
      </trkpt>
      <trkpt lat="45.9831" lon="4.8016">
        <ele>228</ele>
        <time>2017-12-05T10:04:08Z</time>
      </trkpt>
      <trkpt lat="45.98311" lon="4.80169">
        <ele>227</ele>
        <time>2017-12-05T10:04:09Z</time>
      </trkpt>
      <trkpt lat="45.98314" lon="4.80175">
        <ele>227</ele>
        <time>2017-12-05T10:04:10Z</time>
      </trkpt>
      <trkpt lat="45.98316" lon="4.80182">
        <ele>227</ele>
        <time>2017-12-05T10:04:11Z</time>
      </trkpt>
      <trkpt lat="45.98318" lon="4.80189">
        <ele>227</ele>
        <time>2017-12-05T10:04:12Z</time>
      </trkpt>
      <trkpt lat="45.98321" lon="4.80195">
        <ele>227</ele>
        <time>2017-12-05T10:04:13Z</time>
      </trkpt>
      <trkpt lat="45.98323" lon="4.80201">
        <ele>227</ele>
        <time>2017-12-05T10:04:14Z</time>
      </trkpt>
      <trkpt lat="45.98326" lon="4.80207">
        <ele>227</ele>
        <time>2017-12-05T10:04:15Z</time>
      </trkpt>
      <trkpt lat="45.9833" lon="4.80218">
        <ele>227</ele>
        <time>2017-12-05T10:04:17Z</time>
      </trkpt>
      <trkpt lat="45.98331" lon="4.80224">
        <ele>228</ele>
        <time>2017-12-05T10:04:18Z</time>
      </trkpt>
      <trkpt lat="45.98331" lon="4.80236">
        <ele>228</ele>
        <time>2017-12-05T10:04:20Z</time>
      </trkpt>
      <trkpt lat="45.9833" lon="4.80242">
        <ele>229</ele>
        <time>2017-12-05T10:04:21Z</time>
      </trkpt>
      <trkpt lat="45.98328" lon="4.80248">
        <ele>229</ele>
        <time>2017-12-05T10:04:22Z</time>
      </trkpt>
      <trkpt lat="45.98325" lon="4.80254">
        <ele>228</ele>
        <time>2017-12-05T10:04:23Z</time>
      </trkpt>
      <trkpt lat="45.98324" lon="4.80262">
        <ele>228</ele>
        <time>2017-12-05T10:04:24Z</time>
      </trkpt>
      <trkpt lat="45.98324" lon="4.8027">
        <ele>227</ele>
        <time>2017-12-05T10:04:25Z</time>
      </trkpt>
      <trkpt lat="45.98322" lon="4.80278">
        <ele>227</ele>
        <time>2017-12-05T10:04:26Z</time>
      </trkpt>
      <trkpt lat="45.98321" lon="4.80285">
        <ele>227</ele>
        <time>2017-12-05T10:04:27Z</time>
      </trkpt>
      <trkpt lat="45.98321" lon="4.80294">
        <ele>227</ele>
        <time>2017-12-05T10:04:28Z</time>
      </trkpt>
      <trkpt lat="45.98319" lon="4.80302">
        <ele>227</ele>
        <time>2017-12-05T10:04:29Z</time>
      </trkpt>
      <trkpt lat="45.98318" lon="4.8031">
        <ele>227</ele>
        <time>2017-12-05T10:04:30Z</time>
      </trkpt>
      <trkpt lat="45.98316" lon="4.80318">
        <ele>227</ele>
        <time>2017-12-05T10:04:31Z</time>
      </trkpt>
      <trkpt lat="45.98314" lon="4.80325">
        <ele>227</ele>
        <time>2017-12-05T10:04:32Z</time>
      </trkpt>
      <trkpt lat="45.98313" lon="4.80334">
        <ele>227</ele>
        <time>2017-12-05T10:04:33Z</time>
      </trkpt>
      <trkpt lat="45.9831" lon="4.80342">
        <ele>226</ele>
        <time>2017-12-05T10:04:34Z</time>
      </trkpt>
      <trkpt lat="45.98308" lon="4.8035">
        <ele>226</ele>
        <time>2017-12-05T10:04:35Z</time>
      </trkpt>
      <trkpt lat="45.98306" lon="4.8036">
        <ele>225</ele>
        <time>2017-12-05T10:04:36Z</time>
      </trkpt>
      <trkpt lat="45.98304" lon="4.80368">
        <ele>225</ele>
        <time>2017-12-05T10:04:37Z</time>
      </trkpt>
      <trkpt lat="45.98302" lon="4.80377">
        <ele>225</ele>
        <time>2017-12-05T10:04:38Z</time>
      </trkpt>
      <trkpt lat="45.98301" lon="4.80386">
        <ele>225</ele>
        <time>2017-12-05T10:04:39Z</time>
      </trkpt>
      <trkpt lat="45.98299" lon="4.80395">
        <ele>225</ele>
        <time>2017-12-05T10:04:40Z</time>
      </trkpt>
      <trkpt lat="45.98297" lon="4.80405">
        <ele>225</ele>
        <time>2017-12-05T10:04:41Z</time>
      </trkpt>
      <trkpt lat="45.98294" lon="4.80413">
        <ele>224</ele>
        <time>2017-12-05T10:04:42Z</time>
      </trkpt>
      <trkpt lat="45.98292" lon="4.80423">
        <ele>224</ele>
        <time>2017-12-05T10:04:43Z</time>
      </trkpt>
      <trkpt lat="45.9829" lon="4.80431">
        <ele>224</ele>
        <time>2017-12-05T10:04:44Z</time>
      </trkpt>
      <trkpt lat="45.98287" lon="4.8044">
        <ele>224</ele>
        <time>2017-12-05T10:04:45Z</time>
      </trkpt>
      <trkpt lat="45.98284" lon="4.80448">
        <ele>223</ele>
        <time>2017-12-05T10:04:46Z</time>
      </trkpt>
      <trkpt lat="45.98283" lon="4.80456">
        <ele>223</ele>
        <time>2017-12-05T10:04:47Z</time>
      </trkpt>
      <trkpt lat="45.9828" lon="4.80466">
        <ele>223</ele>
        <time>2017-12-05T10:04:48Z</time>
      </trkpt>
      <trkpt lat="45.98279" lon="4.80474">
        <ele>223</ele>
        <time>2017-12-05T10:04:49Z</time>
      </trkpt>
      <trkpt lat="45.98277" lon="4.80483">
        <ele>223</ele>
        <time>2017-12-05T10:04:50Z</time>
      </trkpt>
      <trkpt lat="45.98275" lon="4.8049">
        <ele>223</ele>
        <time>2017-12-05T10:04:51Z</time>
      </trkpt>
      <trkpt lat="45.98272" lon="4.80496">
        <ele>223</ele>
        <time>2017-12-05T10:04:52Z</time>
      </trkpt>
      <trkpt lat="45.9827" lon="4.80503">
        <ele>223</ele>
        <time>2017-12-05T10:04:53Z</time>
      </trkpt>
      <trkpt lat="45.98268" lon="4.80513">
        <ele>223</ele>
        <time>2017-12-05T10:04:54Z</time>
      </trkpt>
      <trkpt lat="45.98267" lon="4.80522">
        <ele>224</ele>
        <time>2017-12-05T10:04:55Z</time>
      </trkpt>
      <trkpt lat="45.98265" lon="4.80529">
        <ele>224</ele>
        <time>2017-12-05T10:04:56Z</time>
      </trkpt>
      <trkpt lat="45.98262" lon="4.80535">
        <ele>224</ele>
        <time>2017-12-05T10:04:57Z</time>
      </trkpt>
      <trkpt lat="45.98261" lon="4.80541">
        <ele>224</ele>
        <time>2017-12-05T10:04:58Z</time>
      </trkpt>
      <trkpt lat="45.98261" lon="4.80548">
        <ele>224</ele>
        <time>2017-12-05T10:04:59Z</time>
      </trkpt>
      <trkpt lat="45.98259" lon="4.8056">
        <ele>224</ele>
        <time>2017-12-05T10:05:01Z</time>
      </trkpt>
      <trkpt lat="45.98257" lon="4.80566">
        <ele>224</ele>
        <time>2017-12-05T10:05:02Z</time>
      </trkpt>
      <trkpt lat="45.98254" lon="4.80572">
        <ele>224</ele>
        <time>2017-12-05T10:05:03Z</time>
      </trkpt>
      <trkpt lat="45.98254" lon="4.80581">
        <ele>224</ele>
        <time>2017-12-05T10:05:04Z</time>
      </trkpt>
      <trkpt lat="45.98252" lon="4.80588">
        <ele>224</ele>
        <time>2017-12-05T10:05:05Z</time>
      </trkpt>
      <trkpt lat="45.98249" lon="4.80594">
        <ele>224</ele>
        <time>2017-12-05T10:05:06Z</time>
      </trkpt>
      <trkpt lat="45.98247" lon="4.80602">
        <ele>224</ele>
        <time>2017-12-05T10:05:07Z</time>
      </trkpt>
      <trkpt lat="45.98245" lon="4.80609">
        <ele>224</ele>
        <time>2017-12-05T10:05:08Z</time>
      </trkpt>
      <trkpt lat="45.98242" lon="4.80621">
        <ele>224</ele>
        <time>2017-12-05T10:05:10Z</time>
      </trkpt>
      <trkpt lat="45.9824" lon="4.80627">
        <ele>224</ele>
        <time>2017-12-05T10:05:11Z</time>
      </trkpt>
      <trkpt lat="45.98238" lon="4.80633">
        <ele>224</ele>
        <time>2017-12-05T10:05:12Z</time>
      </trkpt>
      <trkpt lat="45.98236" lon="4.80639">
        <ele>223</ele>
        <time>2017-12-05T10:05:13Z</time>
      </trkpt>
      <trkpt lat="45.98234" lon="4.80645">
        <ele>223</ele>
        <time>2017-12-05T10:05:14Z</time>
      </trkpt>
      <trkpt lat="45.98232" lon="4.80652">
        <ele>223</ele>
        <time>2017-12-05T10:05:15Z</time>
      </trkpt>
      <trkpt lat="45.98227" lon="4.80662">
        <ele>223</ele>
        <time>2017-12-05T10:05:17Z</time>
      </trkpt>
      <trkpt lat="45.98224" lon="4.80666">
        <ele>223</ele>
        <time>2017-12-05T10:05:18Z</time>
      </trkpt>
      <trkpt lat="45.98217" lon="4.80671">
        <ele>224</ele>
        <time>2017-12-05T10:05:20Z</time>
      </trkpt>
      <trkpt lat="45.98211" lon="4.80672">
        <ele>224</ele>
        <time>2017-12-05T10:05:21Z</time>
      </trkpt>
      <trkpt lat="45.98204" lon="4.80673">
        <ele>225</ele>
        <time>2017-12-05T10:05:22Z</time>
      </trkpt>
      <trkpt lat="45.98199" lon="4.80675">
        <ele>225</ele>
        <time>2017-12-05T10:05:23Z</time>
      </trkpt>
      <trkpt lat="45.98194" lon="4.80676">
        <ele>225</ele>
        <time>2017-12-05T10:05:24Z</time>
      </trkpt>
      <trkpt lat="45.9819" lon="4.80678">
        <ele>225</ele>
        <time>2017-12-05T10:05:25Z</time>
      </trkpt>
      <trkpt lat="45.98183" lon="4.80683">
        <ele>225</ele>
        <time>2017-12-05T10:05:27Z</time>
      </trkpt>
      <trkpt lat="45.98178" lon="4.80685">
        <ele>225</ele>
        <time>2017-12-05T10:05:28Z</time>
      </trkpt>
      <trkpt lat="45.98174" lon="4.80687">
        <ele>225</ele>
        <time>2017-12-05T10:05:29Z</time>
      </trkpt>
      <trkpt lat="45.98168" lon="4.80687">
        <ele>225</ele>
        <time>2017-12-05T10:05:30Z</time>
      </trkpt>
      <trkpt lat="45.98162" lon="4.80688">
        <ele>227</ele>
        <time>2017-12-05T10:05:31Z</time>
      </trkpt>
      <trkpt lat="45.98157" lon="4.80689">
        <ele>227</ele>
        <time>2017-12-05T10:05:32Z</time>
      </trkpt>
      <trkpt lat="45.98153" lon="4.80689">
        <ele>227</ele>
        <time>2017-12-05T10:05:33Z</time>
      </trkpt>
      <trkpt lat="45.98147" lon="4.80691">
        <ele>228</ele>
        <time>2017-12-05T10:05:34Z</time>
      </trkpt>
      <trkpt lat="45.98142" lon="4.80692">
        <ele>228</ele>
        <time>2017-12-05T10:05:35Z</time>
      </trkpt>
      <trkpt lat="45.98136" lon="4.80692">
        <ele>228</ele>
        <time>2017-12-05T10:05:36Z</time>
      </trkpt>
      <trkpt lat="45.98131" lon="4.80693">
        <ele>228</ele>
        <time>2017-12-05T10:05:37Z</time>
      </trkpt>
      <trkpt lat="45.98126" lon="4.80692">
        <ele>228</ele>
        <time>2017-12-05T10:05:38Z</time>
      </trkpt>
      <trkpt lat="45.98118" lon="4.80692">
        <ele>228</ele>
        <time>2017-12-05T10:05:40Z</time>
      </trkpt>
      <trkpt lat="45.98113" lon="4.8069">
        <ele>228</ele>
        <time>2017-12-05T10:05:41Z</time>
      </trkpt>
      <trkpt lat="45.98105" lon="4.80688">
        <ele>228</ele>
        <time>2017-12-05T10:05:43Z</time>
      </trkpt>
      <trkpt lat="45.981" lon="4.80689">
        <ele>228</ele>
        <time>2017-12-05T10:05:44Z</time>
      </trkpt>
      <trkpt lat="45.98094" lon="4.8069">
        <ele>228</ele>
        <time>2017-12-05T10:05:45Z</time>
      </trkpt>
      <trkpt lat="45.9809" lon="4.80691">
        <ele>228</ele>
        <time>2017-12-05T10:05:46Z</time>
      </trkpt>
      <trkpt lat="45.98083" lon="4.80689">
        <ele>229</ele>
        <time>2017-12-05T10:05:48Z</time>
      </trkpt>
      <trkpt lat="45.98078" lon="4.8069">
        <ele>230</ele>
        <time>2017-12-05T10:05:49Z</time>
      </trkpt>
      <trkpt lat="45.98069" lon="4.80691">
        <ele>230</ele>
        <time>2017-12-05T10:05:51Z</time>
      </trkpt>
      <trkpt lat="45.98064" lon="4.80691">
        <ele>230</ele>
        <time>2017-12-05T10:05:52Z</time>
      </trkpt>
      <trkpt lat="45.98059" lon="4.80691">
        <ele>230</ele>
        <time>2017-12-05T10:05:53Z</time>
      </trkpt>
      <trkpt lat="45.98054" lon="4.80692">
        <ele>230</ele>
        <time>2017-12-05T10:05:54Z</time>
      </trkpt>
      <trkpt lat="45.98046" lon="4.80693">
        <ele>230</ele>
        <time>2017-12-05T10:05:56Z</time>
      </trkpt>
      <trkpt lat="45.98041" lon="4.80694">
        <ele>230</ele>
        <time>2017-12-05T10:05:57Z</time>
      </trkpt>
      <trkpt lat="45.98035" lon="4.80699">
        <ele>230</ele>
        <time>2017-12-05T10:05:59Z</time>
      </trkpt>
      <trkpt lat="45.98031" lon="4.80701">
        <ele>230</ele>
        <time>2017-12-05T10:06:00Z</time>
      </trkpt>
      <trkpt lat="45.98027" lon="4.80713">
        <ele>231</ele>
        <time>2017-12-05T10:06:03Z</time>
      </trkpt>
      <trkpt lat="45.98028" lon="4.80717">
        <ele>231</ele>
        <time>2017-12-05T10:06:04Z</time>
      </trkpt>
      <trkpt lat="45.98032" lon="4.80727">
        <ele>231</ele>
        <time>2017-12-05T10:06:07Z</time>
      </trkpt>
      <trkpt lat="45.98033" lon="4.8073">
        <ele>231</ele>
        <time>2017-12-05T10:06:08Z</time>
      </trkpt>
      <trkpt lat="45.98037" lon="4.80741">
        <ele>231</ele>
        <time>2017-12-05T10:06:12Z</time>
      </trkpt>
      <trkpt lat="45.98038" lon="4.80744">
        <ele>231</ele>
        <time>2017-12-05T10:06:13Z</time>
      </trkpt>
      <trkpt lat="45.98041" lon="4.80754">
        <ele>233</ele>
        <time>2017-12-05T10:06:17Z</time>
      </trkpt>
      <trkpt lat="45.98042" lon="4.80757">
        <ele>233</ele>
        <time>2017-12-05T10:06:18Z</time>
      </trkpt>
      <trkpt lat="45.98045" lon="4.80768">
        <ele>233</ele>
        <time>2017-12-05T10:06:21Z</time>
      </trkpt>
      <trkpt lat="45.98046" lon="4.80772">
        <ele>233</ele>
        <time>2017-12-05T10:06:22Z</time>
      </trkpt>
      <trkpt lat="45.98047" lon="4.80783">
        <ele>233</ele>
        <time>2017-12-05T10:06:25Z</time>
      </trkpt>
      <trkpt lat="45.98047" lon="4.80787">
        <ele>233</ele>
        <time>2017-12-05T10:06:26Z</time>
      </trkpt>
      <trkpt lat="45.98047" lon="4.80796">
        <ele>234</ele>
        <time>2017-12-05T10:06:28Z</time>
      </trkpt>
      <trkpt lat="45.98048" lon="4.808">
        <ele>234</ele>
        <time>2017-12-05T10:06:29Z</time>
      </trkpt>
      <trkpt lat="45.9805" lon="4.80808">
        <ele>234</ele>
        <time>2017-12-05T10:06:31Z</time>
      </trkpt>
      <trkpt lat="45.98051" lon="4.80812">
        <ele>234</ele>
        <time>2017-12-05T10:06:32Z</time>
      </trkpt>
      <trkpt lat="45.98053" lon="4.80821">
        <ele>234</ele>
        <time>2017-12-05T10:06:34Z</time>
      </trkpt>
      <trkpt lat="45.98054" lon="4.80825">
        <ele>234</ele>
        <time>2017-12-05T10:06:35Z</time>
      </trkpt>
      <trkpt lat="45.98056" lon="4.80833">
        <ele>234</ele>
        <time>2017-12-05T10:06:37Z</time>
      </trkpt>
      <trkpt lat="45.98057" lon="4.80837">
        <ele>236</ele>
        <time>2017-12-05T10:06:38Z</time>
      </trkpt>
      <trkpt lat="45.9806" lon="4.80849">
        <ele>236</ele>
        <time>2017-12-05T10:06:41Z</time>
      </trkpt>
      <trkpt lat="45.98061" lon="4.80853">
        <ele>236</ele>
        <time>2017-12-05T10:06:42Z</time>
      </trkpt>
      <trkpt lat="45.98064" lon="4.80863">
        <ele>237</ele>
        <time>2017-12-05T10:06:45Z</time>
      </trkpt>
      <trkpt lat="45.98066" lon="4.80867">
        <ele>237</ele>
        <time>2017-12-05T10:06:46Z</time>
      </trkpt>
      <trkpt lat="45.98068" lon="4.80879">
        <ele>237</ele>
        <time>2017-12-05T10:06:49Z</time>
      </trkpt>
      <trkpt lat="45.98069" lon="4.80882">
        <ele>237</ele>
        <time>2017-12-05T10:06:50Z</time>
      </trkpt>
      <trkpt lat="45.98072" lon="4.80893">
        <ele>238</ele>
        <time>2017-12-05T10:06:53Z</time>
      </trkpt>
      <trkpt lat="45.98073" lon="4.80896">
        <ele>238</ele>
        <time>2017-12-05T10:06:54Z</time>
      </trkpt>
      <trkpt lat="45.98075" lon="4.80906">
        <ele>238</ele>
        <time>2017-12-05T10:06:57Z</time>
      </trkpt>
      <trkpt lat="45.98075" lon="4.8091">
        <ele>238</ele>
        <time>2017-12-05T10:06:58Z</time>
      </trkpt>
      <trkpt lat="45.98078" lon="4.8092">
        <ele>239</ele>
        <time>2017-12-05T10:07:01Z</time>
      </trkpt>
      <trkpt lat="45.9808" lon="4.80923">
        <ele>240</ele>
        <time>2017-12-05T10:07:02Z</time>
      </trkpt>
      <trkpt lat="45.98082" lon="4.80934">
        <ele>240</ele>
        <time>2017-12-05T10:07:05Z</time>
      </trkpt>
      <trkpt lat="45.98083" lon="4.80938">
        <ele>240</ele>
        <time>2017-12-05T10:07:06Z</time>
      </trkpt>
      <trkpt lat="45.98086" lon="4.8095">
        <ele>238</ele>
        <time>2017-12-05T10:07:09Z</time>
      </trkpt>
      <trkpt lat="45.98087" lon="4.80953">
        <ele>238</ele>
        <time>2017-12-05T10:07:10Z</time>
      </trkpt>
      <trkpt lat="45.98091" lon="4.80964">
        <ele>239</ele>
        <time>2017-12-05T10:07:13Z</time>
      </trkpt>
      <trkpt lat="45.98091" lon="4.80967">
        <ele>239</ele>
        <time>2017-12-05T10:07:14Z</time>
      </trkpt>
      <trkpt lat="45.98094" lon="4.80978">
        <ele>239</ele>
        <time>2017-12-05T10:07:17Z</time>
      </trkpt>
      <trkpt lat="45.98095" lon="4.80982">
        <ele>239</ele>
        <time>2017-12-05T10:07:18Z</time>
      </trkpt>
      <trkpt lat="45.981" lon="4.80992">
        <ele>240</ele>
        <time>2017-12-05T10:07:21Z</time>
      </trkpt>
      <trkpt lat="45.98102" lon="4.80996">
        <ele>240</ele>
        <time>2017-12-05T10:07:22Z</time>
      </trkpt>
      <trkpt lat="45.98106" lon="4.81005">
        <ele>242</ele>
        <time>2017-12-05T10:07:24Z</time>
      </trkpt>
      <trkpt lat="45.98108" lon="4.8101">
        <ele>242</ele>
        <time>2017-12-05T10:07:25Z</time>
      </trkpt>
      <trkpt lat="45.9811" lon="4.8102">
        <ele>242</ele>
        <time>2017-12-05T10:07:27Z</time>
      </trkpt>
      <trkpt lat="45.98111" lon="4.81025">
        <ele>242</ele>
        <time>2017-12-05T10:07:28Z</time>
      </trkpt>
      <trkpt lat="45.98115" lon="4.81036">
        <ele>242</ele>
        <time>2017-12-05T10:07:30Z</time>
      </trkpt>
      <trkpt lat="45.98117" lon="4.81041">
        <ele>242</ele>
        <time>2017-12-05T10:07:31Z</time>
      </trkpt>
      <trkpt lat="45.9812" lon="4.81053">
        <ele>243</ele>
        <time>2017-12-05T10:07:33Z</time>
      </trkpt>
      <trkpt lat="45.98121" lon="4.81058">
        <ele>243</ele>
        <time>2017-12-05T10:07:34Z</time>
      </trkpt>
      <trkpt lat="45.98124" lon="4.81067">
        <ele>243</ele>
        <time>2017-12-05T10:07:36Z</time>
      </trkpt>
      <trkpt lat="45.98125" lon="4.81071">
        <ele>243</ele>
        <time>2017-12-05T10:07:37Z</time>
      </trkpt>
      <trkpt lat="45.98128" lon="4.8108">
        <ele>243</ele>
        <time>2017-12-05T10:07:39Z</time>
      </trkpt>
      <trkpt lat="45.9813" lon="4.81084">
        <ele>245</ele>
        <time>2017-12-05T10:07:40Z</time>
      </trkpt>
      <trkpt lat="45.98134" lon="4.81093">
        <ele>245</ele>
        <time>2017-12-05T10:07:42Z</time>
      </trkpt>
      <trkpt lat="45.98137" lon="4.81098">
        <ele>245</ele>
        <time>2017-12-05T10:07:43Z</time>
      </trkpt>
      <trkpt lat="45.98141" lon="4.81109">
        <ele>245</ele>
        <time>2017-12-05T10:07:45Z</time>
      </trkpt>
      <trkpt lat="45.98142" lon="4.81115">
        <ele>245</ele>
        <time>2017-12-05T10:07:46Z</time>
      </trkpt>
      <trkpt lat="45.98146" lon="4.81125">
        <ele>245</ele>
        <time>2017-12-05T10:07:48Z</time>
      </trkpt>
      <trkpt lat="45.98147" lon="4.8113">
        <ele>245</ele>
        <time>2017-12-05T10:07:49Z</time>
      </trkpt>
      <trkpt lat="45.98151" lon="4.81141">
        <ele>245</ele>
        <time>2017-12-05T10:07:51Z</time>
      </trkpt>
      <trkpt lat="45.98154" lon="4.81146">
        <ele>245</ele>
        <time>2017-12-05T10:07:52Z</time>
      </trkpt>
      <trkpt lat="45.98158" lon="4.81156">
        <ele>245</ele>
        <time>2017-12-05T10:07:54Z</time>
      </trkpt>
      <trkpt lat="45.98161" lon="4.81161">
        <ele>245</ele>
        <time>2017-12-05T10:07:55Z</time>
      </trkpt>
      <trkpt lat="45.98165" lon="4.81171">
        <ele>245</ele>
        <time>2017-12-05T10:07:57Z</time>
      </trkpt>
      <trkpt lat="45.98166" lon="4.81176">
        <ele>246</ele>
        <time>2017-12-05T10:07:58Z</time>
      </trkpt>
      <trkpt lat="45.98167" lon="4.81186">
        <ele>245</ele>
        <time>2017-12-05T10:08:00Z</time>
      </trkpt>
      <trkpt lat="45.98167" lon="4.81191">
        <ele>245</ele>
        <time>2017-12-05T10:08:01Z</time>
      </trkpt>
      <trkpt lat="45.98169" lon="4.81202">
        <ele>245</ele>
        <time>2017-12-05T10:08:03Z</time>
      </trkpt>
      <trkpt lat="45.9817" lon="4.81207">
        <ele>246</ele>
        <time>2017-12-05T10:08:04Z</time>
      </trkpt>
      <trkpt lat="45.98172" lon="4.81219">
        <ele>246</ele>
        <time>2017-12-05T10:08:06Z</time>
      </trkpt>
      <trkpt lat="45.98173" lon="4.81225">
        <ele>246</ele>
        <time>2017-12-05T10:08:07Z</time>
      </trkpt>
      <trkpt lat="45.98175" lon="4.81235">
        <ele>247</ele>
        <time>2017-12-05T10:08:09Z</time>
      </trkpt>
      <trkpt lat="45.98176" lon="4.81241">
        <ele>247</ele>
        <time>2017-12-05T10:08:10Z</time>
      </trkpt>
      <trkpt lat="45.98179" lon="4.81252">
        <ele>247</ele>
        <time>2017-12-05T10:08:12Z</time>
      </trkpt>
      <trkpt lat="45.9818" lon="4.81258">
        <ele>247</ele>
        <time>2017-12-05T10:08:13Z</time>
      </trkpt>
      <trkpt lat="45.98181" lon="4.8127">
        <ele>247</ele>
        <time>2017-12-05T10:08:15Z</time>
      </trkpt>
      <trkpt lat="45.98181" lon="4.81276">
        <ele>247</ele>
        <time>2017-12-05T10:08:16Z</time>
      </trkpt>
      <trkpt lat="45.98183" lon="4.81286">
        <ele>247</ele>
        <time>2017-12-05T10:08:18Z</time>
      </trkpt>
      <trkpt lat="45.98184" lon="4.81292">
        <ele>247</ele>
        <time>2017-12-05T10:08:19Z</time>
      </trkpt>
      <trkpt lat="45.98187" lon="4.81303">
        <ele>247</ele>
        <time>2017-12-05T10:08:21Z</time>
      </trkpt>
      <trkpt lat="45.98188" lon="4.81309">
        <ele>247</ele>
        <time>2017-12-05T10:08:22Z</time>
      </trkpt>
      <trkpt lat="45.9819" lon="4.8132">
        <ele>247</ele>
        <time>2017-12-05T10:08:24Z</time>
      </trkpt>
      <trkpt lat="45.98191" lon="4.81327">
        <ele>247</ele>
        <time>2017-12-05T10:08:25Z</time>
      </trkpt>
      <trkpt lat="45.98193" lon="4.81338">
        <ele>248</ele>
        <time>2017-12-05T10:08:27Z</time>
      </trkpt>
      <trkpt lat="45.98195" lon="4.81344">
        <ele>248</ele>
        <time>2017-12-05T10:08:28Z</time>
      </trkpt>
      <trkpt lat="45.98197" lon="4.81355">
        <ele>248</ele>
        <time>2017-12-05T10:08:30Z</time>
      </trkpt>
      <trkpt lat="45.98198" lon="4.81361">
        <ele>248</ele>
        <time>2017-12-05T10:08:31Z</time>
      </trkpt>
      <trkpt lat="45.98201" lon="4.81372">
        <ele>248</ele>
        <time>2017-12-05T10:08:33Z</time>
      </trkpt>
      <trkpt lat="45.98203" lon="4.81377">
        <ele>248</ele>
        <time>2017-12-05T10:08:34Z</time>
      </trkpt>
      <trkpt lat="45.98206" lon="4.81385">
        <ele>248</ele>
        <time>2017-12-05T10:08:36Z</time>
      </trkpt>
      <trkpt lat="45.98207" lon="4.8139">
        <ele>248</ele>
        <time>2017-12-05T10:08:37Z</time>
      </trkpt>
      <trkpt lat="45.98209" lon="4.814">
        <ele>248</ele>
        <time>2017-12-05T10:08:39Z</time>
      </trkpt>
      <trkpt lat="45.98211" lon="4.81405">
        <ele>248</ele>
        <time>2017-12-05T10:08:40Z</time>
      </trkpt>
      <trkpt lat="45.98214" lon="4.81415">
        <ele>248</ele>
        <time>2017-12-05T10:08:42Z</time>
      </trkpt>
      <trkpt lat="45.98216" lon="4.8142">
        <ele>249</ele>
        <time>2017-12-05T10:08:43Z</time>
      </trkpt>
      <trkpt lat="45.98219" lon="4.8143">
        <ele>249</ele>
        <time>2017-12-05T10:08:45Z</time>
      </trkpt>
      <trkpt lat="45.98221" lon="4.81435">
        <ele>249</ele>
        <time>2017-12-05T10:08:46Z</time>
      </trkpt>
      <trkpt lat="45.98224" lon="4.81444">
        <ele>249</ele>
        <time>2017-12-05T10:08:48Z</time>
      </trkpt>
      <trkpt lat="45.98225" lon="4.81449">
        <ele>249</ele>
        <time>2017-12-05T10:08:49Z</time>
      </trkpt>
      <trkpt lat="45.98228" lon="4.81458">
        <ele>249</ele>
        <time>2017-12-05T10:08:51Z</time>
      </trkpt>
      <trkpt lat="45.98229" lon="4.81463">
        <ele>249</ele>
        <time>2017-12-05T10:08:52Z</time>
      </trkpt>
      <trkpt lat="45.98232" lon="4.81473">
        <ele>249</ele>
        <time>2017-12-05T10:08:54Z</time>
      </trkpt>
      <trkpt lat="45.98234" lon="4.81478">
        <ele>249</ele>
        <time>2017-12-05T10:08:55Z</time>
      </trkpt>
      <trkpt lat="45.98238" lon="4.81488">
        <ele>249</ele>
        <time>2017-12-05T10:08:57Z</time>
      </trkpt>
      <trkpt lat="45.98239" lon="4.81494">
        <ele>249</ele>
        <time>2017-12-05T10:08:58Z</time>
      </trkpt>
      <trkpt lat="45.98242" lon="4.815">
        <ele>249</ele>
        <time>2017-12-05T10:08:59Z</time>
      </trkpt>
      <trkpt lat="45.98243" lon="4.81506">
        <ele>249</ele>
        <time>2017-12-05T10:09:00Z</time>
      </trkpt>
      <trkpt lat="45.98245" lon="4.81512">
        <ele>249</ele>
        <time>2017-12-05T10:09:01Z</time>
      </trkpt>
      <trkpt lat="45.98247" lon="4.81518">
        <ele>249</ele>
        <time>2017-12-05T10:09:02Z</time>
      </trkpt>
      <trkpt lat="45.98251" lon="4.81528">
        <ele>247</ele>
        <time>2017-12-05T10:09:04Z</time>
      </trkpt>
      <trkpt lat="45.98253" lon="4.81533">
        <ele>247</ele>
        <time>2017-12-05T10:09:05Z</time>
      </trkpt>
      <trkpt lat="45.98256" lon="4.81544">
        <ele>247</ele>
        <time>2017-12-05T10:09:07Z</time>
      </trkpt>
      <trkpt lat="45.98258" lon="4.81551">
        <ele>247</ele>
        <time>2017-12-05T10:09:08Z</time>
      </trkpt>
      <trkpt lat="45.9826" lon="4.81557">
        <ele>247</ele>
        <time>2017-12-05T10:09:09Z</time>
      </trkpt>
      <trkpt lat="45.98262" lon="4.81564">
        <ele>247</ele>
        <time>2017-12-05T10:09:10Z</time>
      </trkpt>
      <trkpt lat="45.98265" lon="4.81575">
        <ele>247</ele>
        <time>2017-12-05T10:09:12Z</time>
      </trkpt>
      <trkpt lat="45.98267" lon="4.8158">
        <ele>247</ele>
        <time>2017-12-05T10:09:13Z</time>
      </trkpt>
      <trkpt lat="45.98271" lon="4.8159">
        <ele>247</ele>
        <time>2017-12-05T10:09:15Z</time>
      </trkpt>
      <trkpt lat="45.98273" lon="4.81595">
        <ele>247</ele>
        <time>2017-12-05T10:09:16Z</time>
      </trkpt>
      <trkpt lat="45.98276" lon="4.81605">
        <ele>247</ele>
        <time>2017-12-05T10:09:18Z</time>
      </trkpt>
      <trkpt lat="45.98278" lon="4.8161">
        <ele>247</ele>
        <time>2017-12-05T10:09:19Z</time>
      </trkpt>
      <trkpt lat="45.98281" lon="4.81617">
        <ele>247</ele>
        <time>2017-12-05T10:09:20Z</time>
      </trkpt>
      <trkpt lat="45.98285" lon="4.81622">
        <ele>247</ele>
        <time>2017-12-05T10:09:21Z</time>
      </trkpt>
      <trkpt lat="45.98288" lon="4.81626">
        <ele>247</ele>
        <time>2017-12-05T10:09:22Z</time>
      </trkpt>
      <trkpt lat="45.98291" lon="4.81631">
        <ele>247</ele>
        <time>2017-12-05T10:09:23Z</time>
      </trkpt>
      <trkpt lat="45.98295" lon="4.81636">
        <ele>247</ele>
        <time>2017-12-05T10:09:24Z</time>
      </trkpt>
      <trkpt lat="45.98298" lon="4.81642">
        <ele>247</ele>
        <time>2017-12-05T10:09:25Z</time>
      </trkpt>
      <trkpt lat="45.98302" lon="4.81646">
        <ele>247</ele>
        <time>2017-12-05T10:09:26Z</time>
      </trkpt>
      <trkpt lat="45.98306" lon="4.81649">
        <ele>246</ele>
        <time>2017-12-05T10:09:27Z</time>
      </trkpt>
      <trkpt lat="45.9831" lon="4.81653">
        <ele>246</ele>
        <time>2017-12-05T10:09:28Z</time>
      </trkpt>
      <trkpt lat="45.98314" lon="4.81657">
        <ele>246</ele>
        <time>2017-12-05T10:09:29Z</time>
      </trkpt>
      <trkpt lat="45.98318" lon="4.8166">
        <ele>246</ele>
        <time>2017-12-05T10:09:30Z</time>
      </trkpt>
      <trkpt lat="45.98322" lon="4.81664">
        <ele>246</ele>
        <time>2017-12-05T10:09:31Z</time>
      </trkpt>
      <trkpt lat="45.98325" lon="4.81668">
        <ele>246</ele>
        <time>2017-12-05T10:09:32Z</time>
      </trkpt>
      <trkpt lat="45.98329" lon="4.81671">
        <ele>246</ele>
        <time>2017-12-05T10:09:33Z</time>
      </trkpt>
      <trkpt lat="45.98334" lon="4.81673">
        <ele>246</ele>
        <time>2017-12-05T10:09:34Z</time>
      </trkpt>
      <trkpt lat="45.98338" lon="4.81675">
        <ele>245</ele>
        <time>2017-12-05T10:09:35Z</time>
      </trkpt>
      <trkpt lat="45.98343" lon="4.81677">
        <ele>245</ele>
        <time>2017-12-05T10:09:36Z</time>
      </trkpt>
      <trkpt lat="45.98347" lon="4.81679">
        <ele>245</ele>
        <time>2017-12-05T10:09:37Z</time>
      </trkpt>
      <trkpt lat="45.98356" lon="4.8168">
        <ele>245</ele>
        <time>2017-12-05T10:09:39Z</time>
      </trkpt>
      <trkpt lat="45.9836" lon="4.8168">
        <ele>244</ele>
        <time>2017-12-05T10:09:40Z</time>
      </trkpt>
      <trkpt lat="45.98369" lon="4.81678">
        <ele>244</ele>
        <time>2017-12-05T10:09:42Z</time>
      </trkpt>
      <trkpt lat="45.98373" lon="4.81678">
        <ele>244</ele>
        <time>2017-12-05T10:09:43Z</time>
      </trkpt>
      <trkpt lat="45.98378" lon="4.81678">
        <ele>244</ele>
        <time>2017-12-05T10:09:44Z</time>
      </trkpt>
      <trkpt lat="45.98383" lon="4.81677">
        <ele>243</ele>
        <time>2017-12-05T10:09:45Z</time>
      </trkpt>
      <trkpt lat="45.98388" lon="4.81675">
        <ele>243</ele>
        <time>2017-12-05T10:09:46Z</time>
      </trkpt>
      <trkpt lat="45.98394" lon="4.81674">
        <ele>243</ele>
        <time>2017-12-05T10:09:47Z</time>
      </trkpt>
      <trkpt lat="45.984" lon="4.81673">
        <ele>243</ele>
        <time>2017-12-05T10:09:48Z</time>
      </trkpt>
      <trkpt lat="45.98405" lon="4.81672">
        <ele>242</ele>
        <time>2017-12-05T10:09:49Z</time>
      </trkpt>
      <trkpt lat="45.9841" lon="4.81671">
        <ele>242</ele>
        <time>2017-12-05T10:09:50Z</time>
      </trkpt>
      <trkpt lat="45.98415" lon="4.81672">
        <ele>242</ele>
        <time>2017-12-05T10:09:51Z</time>
      </trkpt>
      <trkpt lat="45.98424" lon="4.81674">
        <ele>240</ele>
        <time>2017-12-05T10:09:53Z</time>
      </trkpt>
      <trkpt lat="45.98429" lon="4.81676">
        <ele>240</ele>
        <time>2017-12-05T10:09:54Z</time>
      </trkpt>
      <trkpt lat="45.98437" lon="4.8168">
        <ele>240</ele>
        <time>2017-12-05T10:09:56Z</time>
      </trkpt>
      <trkpt lat="45.98441" lon="4.81682">
        <ele>239</ele>
        <time>2017-12-05T10:09:57Z</time>
      </trkpt>
      <trkpt lat="45.98447" lon="4.81691">
        <ele>239</ele>
        <time>2017-12-05T10:09:59Z</time>
      </trkpt>
      <trkpt lat="45.9845" lon="4.81695">
        <ele>239</ele>
        <time>2017-12-05T10:10:00Z</time>
      </trkpt>
      <trkpt lat="45.98455" lon="4.81704">
        <ele>239</ele>
        <time>2017-12-05T10:10:02Z</time>
      </trkpt>
      <trkpt lat="45.98459" lon="4.81711">
        <ele>239</ele>
        <time>2017-12-05T10:10:03Z</time>
      </trkpt>
      <trkpt lat="45.98463" lon="4.81716">
        <ele>239</ele>
        <time>2017-12-05T10:10:04Z</time>
      </trkpt>
      <trkpt lat="45.98466" lon="4.81722">
        <ele>239</ele>
        <time>2017-12-05T10:10:05Z</time>
      </trkpt>
      <trkpt lat="45.98471" lon="4.81729">
        <ele>239</ele>
        <time>2017-12-05T10:10:06Z</time>
      </trkpt>
      <trkpt lat="45.98476" lon="4.81734">
        <ele>238</ele>
        <time>2017-12-05T10:10:07Z</time>
      </trkpt>
      <trkpt lat="45.98482" lon="4.81739">
        <ele>238</ele>
        <time>2017-12-05T10:10:08Z</time>
      </trkpt>
      <trkpt lat="45.98488" lon="4.81744">
        <ele>238</ele>
        <time>2017-12-05T10:10:09Z</time>
      </trkpt>
      <trkpt lat="45.98493" lon="4.8175">
        <ele>238</ele>
        <time>2017-12-05T10:10:10Z</time>
      </trkpt>
      <trkpt lat="45.98499" lon="4.81756">
        <ele>238</ele>
        <time>2017-12-05T10:10:11Z</time>
      </trkpt>
      <trkpt lat="45.98504" lon="4.81763">
        <ele>237</ele>
        <time>2017-12-05T10:10:12Z</time>
      </trkpt>
      <trkpt lat="45.9851" lon="4.81771">
        <ele>238</ele>
        <time>2017-12-05T10:10:13Z</time>
      </trkpt>
      <trkpt lat="45.98515" lon="4.81778">
        <ele>238</ele>
        <time>2017-12-05T10:10:14Z</time>
      </trkpt>
      <trkpt lat="45.9852" lon="4.81785">
        <ele>238</ele>
        <time>2017-12-05T10:10:15Z</time>
      </trkpt>
      <trkpt lat="45.98525" lon="4.81793">
        <ele>238</ele>
        <time>2017-12-05T10:10:16Z</time>
      </trkpt>
      <trkpt lat="45.98531" lon="4.81799">
        <ele>238</ele>
        <time>2017-12-05T10:10:17Z</time>
      </trkpt>
      <trkpt lat="45.98538" lon="4.81805">
        <ele>238</ele>
        <time>2017-12-05T10:10:18Z</time>
      </trkpt>
      <trkpt lat="45.98544" lon="4.81809">
        <ele>238</ele>
        <time>2017-12-05T10:10:19Z</time>
      </trkpt>
      <trkpt lat="45.9855" lon="4.81811">
        <ele>238</ele>
        <time>2017-12-05T10:10:20Z</time>
      </trkpt>
      <trkpt lat="45.98555" lon="4.81809">
        <ele>238</ele>
        <time>2017-12-05T10:10:21Z</time>
      </trkpt>
      <trkpt lat="45.9856" lon="4.81807">
        <ele>238</ele>
        <time>2017-12-05T10:10:22Z</time>
      </trkpt>
      <trkpt lat="45.98564" lon="4.81801">
        <ele>238</ele>
        <time>2017-12-05T10:10:23Z</time>
      </trkpt>
      <trkpt lat="45.98567" lon="4.81796">
        <ele>238</ele>
        <time>2017-12-05T10:10:24Z</time>
      </trkpt>
      <trkpt lat="45.98571" lon="4.81792">
        <ele>238</ele>
        <time>2017-12-05T10:10:25Z</time>
      </trkpt>
      <trkpt lat="45.98574" lon="4.81788">
        <ele>238</ele>
        <time>2017-12-05T10:10:26Z</time>
      </trkpt>
      <trkpt lat="45.98578" lon="4.81783">
        <ele>238</ele>
        <time>2017-12-05T10:10:27Z</time>
      </trkpt>
      <trkpt lat="45.98582" lon="4.8178">
        <ele>238</ele>
        <time>2017-12-05T10:10:28Z</time>
      </trkpt>
      <trkpt lat="45.98586" lon="4.81777">
        <ele>238</ele>
        <time>2017-12-05T10:10:29Z</time>
      </trkpt>
      <trkpt lat="45.9859" lon="4.81773">
        <ele>238</ele>
        <time>2017-12-05T10:10:30Z</time>
      </trkpt>
      <trkpt lat="45.98594" lon="4.81769">
        <ele>238</ele>
        <time>2017-12-05T10:10:31Z</time>
      </trkpt>
      <trkpt lat="45.98602" lon="4.81766">
        <ele>238</ele>
        <time>2017-12-05T10:10:33Z</time>
      </trkpt>
      <trkpt lat="45.98606" lon="4.81762">
        <ele>238</ele>
        <time>2017-12-05T10:10:34Z</time>
      </trkpt>
      <trkpt lat="45.9861" lon="4.8176">
        <ele>238</ele>
        <time>2017-12-05T10:10:35Z</time>
      </trkpt>
      <trkpt lat="45.98615" lon="4.8176">
        <ele>238</ele>
        <time>2017-12-05T10:10:36Z</time>
      </trkpt>
      <trkpt lat="45.98619" lon="4.81759">
        <ele>238</ele>
        <time>2017-12-05T10:10:37Z</time>
      </trkpt>
      <trkpt lat="45.98624" lon="4.81758">
        <ele>238</ele>
        <time>2017-12-05T10:10:38Z</time>
      </trkpt>
      <trkpt lat="45.98632" lon="4.81754">
        <ele>238</ele>
        <time>2017-12-05T10:10:40Z</time>
      </trkpt>
      <trkpt lat="45.98636" lon="4.81752">
        <ele>238</ele>
        <time>2017-12-05T10:10:41Z</time>
      </trkpt>
      <trkpt lat="45.98641" lon="4.81751">
        <ele>238</ele>
        <time>2017-12-05T10:10:42Z</time>
      </trkpt>
      <trkpt lat="45.98646" lon="4.81749">
        <ele>237</ele>
        <time>2017-12-05T10:10:43Z</time>
      </trkpt>
      <trkpt lat="45.98653" lon="4.81743">
        <ele>237</ele>
        <time>2017-12-05T10:10:45Z</time>
      </trkpt>
      <trkpt lat="45.98658" lon="4.81743">
        <ele>237</ele>
        <time>2017-12-05T10:10:46Z</time>
      </trkpt>
      <trkpt lat="45.98665" lon="4.81742">
        <ele>238</ele>
        <time>2017-12-05T10:10:48Z</time>
      </trkpt>
      <trkpt lat="45.9867" lon="4.81741">
        <ele>238</ele>
        <time>2017-12-05T10:10:49Z</time>
      </trkpt>
      <trkpt lat="45.98674" lon="4.81742">
        <ele>238</ele>
        <time>2017-12-05T10:10:50Z</time>
      </trkpt>
      <trkpt lat="45.98679" lon="4.81743">
        <ele>238</ele>
        <time>2017-12-05T10:10:51Z</time>
      </trkpt>
      <trkpt lat="45.98688" lon="4.81744">
        <ele>238</ele>
        <time>2017-12-05T10:10:53Z</time>
      </trkpt>
      <trkpt lat="45.98694" lon="4.81742">
        <ele>239</ele>
        <time>2017-12-05T10:10:54Z</time>
      </trkpt>
      <trkpt lat="45.987" lon="4.8174">
        <ele>239</ele>
        <time>2017-12-05T10:10:55Z</time>
      </trkpt>
      <trkpt lat="45.98706" lon="4.81738">
        <ele>239</ele>
        <time>2017-12-05T10:10:56Z</time>
      </trkpt>
      <trkpt lat="45.98715" lon="4.81738">
        <ele>239</ele>
        <time>2017-12-05T10:10:58Z</time>
      </trkpt>
      <trkpt lat="45.98719" lon="4.81743">
        <ele>239</ele>
        <time>2017-12-05T10:10:59Z</time>
      </trkpt>
      <trkpt lat="45.98726" lon="4.81744">
        <ele>239</ele>
        <time>2017-12-05T10:11:00Z</time>
      </trkpt>
      <trkpt lat="45.98729" lon="4.81748">
        <ele>240</ele>
        <time>2017-12-05T10:11:01Z</time>
      </trkpt>
      <trkpt lat="45.98734" lon="4.81752">
        <ele>240</ele>
        <time>2017-12-05T10:11:02Z</time>
      </trkpt>
      <trkpt lat="45.98737" lon="4.81757">
        <ele>240</ele>
        <time>2017-12-05T10:11:03Z</time>
      </trkpt>
      <trkpt lat="45.9874" lon="4.81763">
        <ele>240</ele>
        <time>2017-12-05T10:11:04Z</time>
      </trkpt>
      <trkpt lat="45.98744" lon="4.8177">
        <ele>240</ele>
        <time>2017-12-05T10:11:05Z</time>
      </trkpt>
      <trkpt lat="45.98748" lon="4.81776">
        <ele>240</ele>
        <time>2017-12-05T10:11:06Z</time>
      </trkpt>
      <trkpt lat="45.98751" lon="4.81782">
        <ele>241</ele>
        <time>2017-12-05T10:11:07Z</time>
      </trkpt>
      <trkpt lat="45.98756" lon="4.81792">
        <ele>240</ele>
        <time>2017-12-05T10:11:09Z</time>
      </trkpt>
      <trkpt lat="45.98759" lon="4.81796">
        <ele>240</ele>
        <time>2017-12-05T10:11:10Z</time>
      </trkpt>
      <trkpt lat="45.98762" lon="4.81801">
        <ele>240</ele>
        <time>2017-12-05T10:11:11Z</time>
      </trkpt>
      <trkpt lat="45.98765" lon="4.81805">
        <ele>240</ele>
        <time>2017-12-05T10:11:12Z</time>
      </trkpt>
      <trkpt lat="45.98769" lon="4.8181">
        <ele>240</ele>
        <time>2017-12-05T10:11:13Z</time>
      </trkpt>
      <trkpt lat="45.98772" lon="4.81816">
        <ele>240</ele>
        <time>2017-12-05T10:11:14Z</time>
      </trkpt>
      <trkpt lat="45.98773" lon="4.81824">
        <ele>240</ele>
        <time>2017-12-05T10:11:15Z</time>
      </trkpt>
      <trkpt lat="45.98777" lon="4.8183">
        <ele>240</ele>
        <time>2017-12-05T10:11:16Z</time>
      </trkpt>
      <trkpt lat="45.9878" lon="4.81837">
        <ele>239</ele>
        <time>2017-12-05T10:11:17Z</time>
      </trkpt>
      <trkpt lat="45.98783" lon="4.81844">
        <ele>239</ele>
        <time>2017-12-05T10:11:18Z</time>
      </trkpt>
      <trkpt lat="45.98786" lon="4.81851">
        <ele>239</ele>
        <time>2017-12-05T10:11:19Z</time>
      </trkpt>
      <trkpt lat="45.98788" lon="4.81858">
        <ele>239</ele>
        <time>2017-12-05T10:11:20Z</time>
      </trkpt>
      <trkpt lat="45.98791" lon="4.81865">
        <ele>239</ele>
        <time>2017-12-05T10:11:21Z</time>
      </trkpt>
      <trkpt lat="45.98794" lon="4.81871">
        <ele>239</ele>
        <time>2017-12-05T10:11:22Z</time>
      </trkpt>
      <trkpt lat="45.98796" lon="4.81878">
        <ele>239</ele>
        <time>2017-12-05T10:11:23Z</time>
      </trkpt>
      <trkpt lat="45.98799" lon="4.81885">
        <ele>239</ele>
        <time>2017-12-05T10:11:24Z</time>
      </trkpt>
      <trkpt lat="45.98801" lon="4.81891">
        <ele>239</ele>
        <time>2017-12-05T10:11:25Z</time>
      </trkpt>
      <trkpt lat="45.98803" lon="4.81899">
        <ele>239</ele>
        <time>2017-12-05T10:11:26Z</time>
      </trkpt>
      <trkpt lat="45.98805" lon="4.81906">
        <ele>239</ele>
        <time>2017-12-05T10:11:27Z</time>
      </trkpt>
      <trkpt lat="45.98806" lon="4.81914">
        <ele>239</ele>
        <time>2017-12-05T10:11:28Z</time>
      </trkpt>
      <trkpt lat="45.98808" lon="4.81923">
        <ele>239</ele>
        <time>2017-12-05T10:11:29Z</time>
      </trkpt>
      <trkpt lat="45.9881" lon="4.81931">
        <ele>239</ele>
        <time>2017-12-05T10:11:30Z</time>
      </trkpt>
      <trkpt lat="45.98811" lon="4.81939">
        <ele>239</ele>
        <time>2017-12-05T10:11:31Z</time>
      </trkpt>
      <trkpt lat="45.98812" lon="4.81947">
        <ele>239</ele>
        <time>2017-12-05T10:11:32Z</time>
      </trkpt>
      <trkpt lat="45.98814" lon="4.81956">
        <ele>239</ele>
        <time>2017-12-05T10:11:33Z</time>
      </trkpt>
      <trkpt lat="45.98815" lon="4.81964">
        <ele>239</ele>
        <time>2017-12-05T10:11:34Z</time>
      </trkpt>
      <trkpt lat="45.98816" lon="4.81971">
        <ele>239</ele>
        <time>2017-12-05T10:11:35Z</time>
      </trkpt>
      <trkpt lat="45.98817" lon="4.81979">
        <ele>239</ele>
        <time>2017-12-05T10:11:36Z</time>
      </trkpt>
      <trkpt lat="45.98818" lon="4.81985">
        <ele>238</ele>
        <time>2017-12-05T10:11:37Z</time>
      </trkpt>
      <trkpt lat="45.98819" lon="4.81991">
        <ele>238</ele>
        <time>2017-12-05T10:11:38Z</time>
      </trkpt>
      <trkpt lat="45.9882" lon="4.81998">
        <ele>238</ele>
        <time>2017-12-05T10:11:39Z</time>
      </trkpt>
      <trkpt lat="45.98822" lon="4.82006">
        <ele>238</ele>
        <time>2017-12-05T10:11:40Z</time>
      </trkpt>
      <trkpt lat="45.98823" lon="4.82013">
        <ele>238</ele>
        <time>2017-12-05T10:11:41Z</time>
      </trkpt>
      <trkpt lat="45.98823" lon="4.8202">
        <ele>238</ele>
        <time>2017-12-05T10:11:42Z</time>
      </trkpt>
      <trkpt lat="45.98824" lon="4.82027">
        <ele>238</ele>
        <time>2017-12-05T10:11:43Z</time>
      </trkpt>
      <trkpt lat="45.98826" lon="4.82036">
        <ele>238</ele>
        <time>2017-12-05T10:11:44Z</time>
      </trkpt>
      <trkpt lat="45.98827" lon="4.82045">
        <ele>238</ele>
        <time>2017-12-05T10:11:45Z</time>
      </trkpt>
      <trkpt lat="45.98829" lon="4.82052">
        <ele>237</ele>
        <time>2017-12-05T10:11:46Z</time>
      </trkpt>
      <trkpt lat="45.9883" lon="4.82059">
        <ele>237</ele>
        <time>2017-12-05T10:11:47Z</time>
      </trkpt>
      <trkpt lat="45.98831" lon="4.82066">
        <ele>237</ele>
        <time>2017-12-05T10:11:48Z</time>
      </trkpt>
      <trkpt lat="45.98832" lon="4.82074">
        <ele>237</ele>
        <time>2017-12-05T10:11:49Z</time>
      </trkpt>
      <trkpt lat="45.98833" lon="4.82081">
        <ele>236</ele>
        <time>2017-12-05T10:11:50Z</time>
      </trkpt>
      <trkpt lat="45.98834" lon="4.82093">
        <ele>236</ele>
        <time>2017-12-05T10:11:52Z</time>
      </trkpt>
      <trkpt lat="45.98835" lon="4.82099">
        <ele>236</ele>
        <time>2017-12-05T10:11:53Z</time>
      </trkpt>
      <trkpt lat="45.98836" lon="4.82108">
        <ele>236</ele>
        <time>2017-12-05T10:11:54Z</time>
      </trkpt>
      <trkpt lat="45.98838" lon="4.82114">
        <ele>235</ele>
        <time>2017-12-05T10:11:55Z</time>
      </trkpt>
      <trkpt lat="45.98839" lon="4.82121">
        <ele>236</ele>
        <time>2017-12-05T10:11:56Z</time>
      </trkpt>
      <trkpt lat="45.9884" lon="4.82129">
        <ele>236</ele>
        <time>2017-12-05T10:11:57Z</time>
      </trkpt>
      <trkpt lat="45.98841" lon="4.82137">
        <ele>236</ele>
        <time>2017-12-05T10:11:58Z</time>
      </trkpt>
      <trkpt lat="45.98843" lon="4.82146">
        <ele>236</ele>
        <time>2017-12-05T10:11:59Z</time>
      </trkpt>
      <trkpt lat="45.98844" lon="4.82155">
        <ele>236</ele>
        <time>2017-12-05T10:12:00Z</time>
      </trkpt>
      <trkpt lat="45.98846" lon="4.82164">
        <ele>236</ele>
        <time>2017-12-05T10:12:01Z</time>
      </trkpt>
      <trkpt lat="45.98848" lon="4.8217">
        <ele>236</ele>
        <time>2017-12-05T10:12:02Z</time>
      </trkpt>
      <trkpt lat="45.9885" lon="4.82177">
        <ele>236</ele>
        <time>2017-12-05T10:12:03Z</time>
      </trkpt>
      <trkpt lat="45.98852" lon="4.82183">
        <ele>236</ele>
        <time>2017-12-05T10:12:04Z</time>
      </trkpt>
      <trkpt lat="45.98855" lon="4.82189">
        <ele>236</ele>
        <time>2017-12-05T10:12:05Z</time>
      </trkpt>
      <trkpt lat="45.98859" lon="4.822">
        <ele>236</ele>
        <time>2017-12-05T10:12:07Z</time>
      </trkpt>
      <trkpt lat="45.98862" lon="4.82206">
        <ele>236</ele>
        <time>2017-12-05T10:12:08Z</time>
      </trkpt>
      <trkpt lat="45.98864" lon="4.82212">
        <ele>236</ele>
        <time>2017-12-05T10:12:09Z</time>
      </trkpt>
      <trkpt lat="45.98867" lon="4.82218">
        <ele>236</ele>
        <time>2017-12-05T10:12:10Z</time>
      </trkpt>
      <trkpt lat="45.9887" lon="4.82224">
        <ele>236</ele>
        <time>2017-12-05T10:12:11Z</time>
      </trkpt>
      <trkpt lat="45.98872" lon="4.82229">
        <ele>236</ele>
        <time>2017-12-05T10:12:12Z</time>
      </trkpt>
      <trkpt lat="45.98877" lon="4.82239">
        <ele>236</ele>
        <time>2017-12-05T10:12:14Z</time>
      </trkpt>
      <trkpt lat="45.9888" lon="4.82244">
        <ele>236</ele>
        <time>2017-12-05T10:12:15Z</time>
      </trkpt>
      <trkpt lat="45.98883" lon="4.82249">
        <ele>236</ele>
        <time>2017-12-05T10:12:16Z</time>
      </trkpt>
      <trkpt lat="45.98885" lon="4.82255">
        <ele>236</ele>
        <time>2017-12-05T10:12:17Z</time>
      </trkpt>
      <trkpt lat="45.98888" lon="4.82261">
        <ele>236</ele>
        <time>2017-12-05T10:12:18Z</time>
      </trkpt>
      <trkpt lat="45.98891" lon="4.82268">
        <ele>236</ele>
        <time>2017-12-05T10:12:19Z</time>
      </trkpt>
      <trkpt lat="45.98894" lon="4.82274">
        <ele>236</ele>
        <time>2017-12-05T10:12:20Z</time>
      </trkpt>
      <trkpt lat="45.98897" lon="4.8228">
        <ele>236</ele>
        <time>2017-12-05T10:12:21Z</time>
      </trkpt>
      <trkpt lat="45.98901" lon="4.82287">
        <ele>237</ele>
        <time>2017-12-05T10:12:22Z</time>
      </trkpt>
      <trkpt lat="45.98905" lon="4.82291">
        <ele>237</ele>
        <time>2017-12-05T10:12:23Z</time>
      </trkpt>
      <trkpt lat="45.98908" lon="4.82296">
        <ele>237</ele>
        <time>2017-12-05T10:12:24Z</time>
      </trkpt>
      <trkpt lat="45.98913" lon="4.82299">
        <ele>237</ele>
        <time>2017-12-05T10:12:25Z</time>
      </trkpt>
      <trkpt lat="45.98916" lon="4.82303">
        <ele>237</ele>
        <time>2017-12-05T10:12:26Z</time>
      </trkpt>
      <trkpt lat="45.9892" lon="4.82307">
        <ele>235</ele>
        <time>2017-12-05T10:12:27Z</time>
      </trkpt>
      <trkpt lat="45.98924" lon="4.82311">
        <ele>235</ele>
        <time>2017-12-05T10:12:28Z</time>
      </trkpt>
      <trkpt lat="45.98927" lon="4.82316">
        <ele>235</ele>
        <time>2017-12-05T10:12:29Z</time>
      </trkpt>
      <trkpt lat="45.98931" lon="4.8232">
        <ele>235</ele>
        <time>2017-12-05T10:12:30Z</time>
      </trkpt>
      <trkpt lat="45.98935" lon="4.82325">
        <ele>235</ele>
        <time>2017-12-05T10:12:31Z</time>
      </trkpt>
      <trkpt lat="45.98939" lon="4.8233">
        <ele>235</ele>
        <time>2017-12-05T10:12:32Z</time>
      </trkpt>
      <trkpt lat="45.98943" lon="4.82335">
        <ele>235</ele>
        <time>2017-12-05T10:12:33Z</time>
      </trkpt>
      <trkpt lat="45.98947" lon="4.8234">
        <ele>235</ele>
        <time>2017-12-05T10:12:34Z</time>
      </trkpt>
      <trkpt lat="45.98951" lon="4.82345">
        <ele>235</ele>
        <time>2017-12-05T10:12:35Z</time>
      </trkpt>
      <trkpt lat="45.98954" lon="4.82351">
        <ele>235</ele>
        <time>2017-12-05T10:12:36Z</time>
      </trkpt>
      <trkpt lat="45.98956" lon="4.82356">
        <ele>235</ele>
        <time>2017-12-05T10:12:37Z</time>
      </trkpt>
      <trkpt lat="45.98957" lon="4.82362">
        <ele>235</ele>
        <time>2017-12-05T10:12:38Z</time>
      </trkpt>
      <trkpt lat="45.98959" lon="4.82369">
        <ele>235</ele>
        <time>2017-12-05T10:12:39Z</time>
      </trkpt>
      <trkpt lat="45.98963" lon="4.8238">
        <ele>235</ele>
        <time>2017-12-05T10:12:41Z</time>
      </trkpt>
      <trkpt lat="45.98965" lon="4.82387">
        <ele>235</ele>
        <time>2017-12-05T10:12:42Z</time>
      </trkpt>
      <trkpt lat="45.98967" lon="4.82393">
        <ele>235</ele>
        <time>2017-12-05T10:12:43Z</time>
      </trkpt>
      <trkpt lat="45.98969" lon="4.824">
        <ele>235</ele>
        <time>2017-12-05T10:12:44Z</time>
      </trkpt>
      <trkpt lat="45.98971" lon="4.82407">
        <ele>235</ele>
        <time>2017-12-05T10:12:45Z</time>
      </trkpt>
      <trkpt lat="45.98973" lon="4.82415">
        <ele>235</ele>
        <time>2017-12-05T10:12:46Z</time>
      </trkpt>
      <trkpt lat="45.98974" lon="4.82422">
        <ele>236</ele>
        <time>2017-12-05T10:12:47Z</time>
      </trkpt>
      <trkpt lat="45.98976" lon="4.8243">
        <ele>236</ele>
        <time>2017-12-05T10:12:48Z</time>
      </trkpt>
      <trkpt lat="45.98978" lon="4.82438">
        <ele>236</ele>
        <time>2017-12-05T10:12:49Z</time>
      </trkpt>
      <trkpt lat="45.9898" lon="4.82444">
        <ele>236</ele>
        <time>2017-12-05T10:12:50Z</time>
      </trkpt>
      <trkpt lat="45.98982" lon="4.82451">
        <ele>236</ele>
        <time>2017-12-05T10:12:51Z</time>
      </trkpt>
      <trkpt lat="45.98983" lon="4.82458">
        <ele>236</ele>
        <time>2017-12-05T10:12:52Z</time>
      </trkpt>
      <trkpt lat="45.98986" lon="4.8247">
        <ele>236</ele>
        <time>2017-12-05T10:12:54Z</time>
      </trkpt>
      <trkpt lat="45.98988" lon="4.82476">
        <ele>236</ele>
        <time>2017-12-05T10:12:55Z</time>
      </trkpt>
      <trkpt lat="45.98993" lon="4.82487">
        <ele>236</ele>
        <time>2017-12-05T10:12:57Z</time>
      </trkpt>
      <trkpt lat="45.98994" lon="4.82493">
        <ele>236</ele>
        <time>2017-12-05T10:12:58Z</time>
      </trkpt>
      <trkpt lat="45.98997" lon="4.825">
        <ele>235</ele>
        <time>2017-12-05T10:12:59Z</time>
      </trkpt>
      <trkpt lat="45.98999" lon="4.82508">
        <ele>236</ele>
        <time>2017-12-05T10:13:00Z</time>
      </trkpt>
      <trkpt lat="45.99003" lon="4.82516">
        <ele>235</ele>
        <time>2017-12-05T10:13:01Z</time>
      </trkpt>
      <trkpt lat="45.99006" lon="4.82522">
        <ele>235</ele>
        <time>2017-12-05T10:13:02Z</time>
      </trkpt>
      <trkpt lat="45.99009" lon="4.82527">
        <ele>235</ele>
        <time>2017-12-05T10:13:03Z</time>
      </trkpt>
      <trkpt lat="45.99012" lon="4.82532">
        <ele>235</ele>
        <time>2017-12-05T10:13:04Z</time>
      </trkpt>
      <trkpt lat="45.99018" lon="4.82541">
        <ele>235</ele>
        <time>2017-12-05T10:13:06Z</time>
      </trkpt>
      <trkpt lat="45.99021" lon="4.82545">
        <ele>235</ele>
        <time>2017-12-05T10:13:07Z</time>
      </trkpt>
      <trkpt lat="45.99024" lon="4.8255">
        <ele>235</ele>
        <time>2017-12-05T10:13:08Z</time>
      </trkpt>
      <trkpt lat="45.99028" lon="4.82554">
        <ele>235</ele>
        <time>2017-12-05T10:13:09Z</time>
      </trkpt>
      <trkpt lat="45.99032" lon="4.82558">
        <ele>235</ele>
        <time>2017-12-05T10:13:10Z</time>
      </trkpt>
      <trkpt lat="45.99036" lon="4.82563">
        <ele>235</ele>
        <time>2017-12-05T10:13:11Z</time>
      </trkpt>
      <trkpt lat="45.9904" lon="4.82567">
        <ele>235</ele>
        <time>2017-12-05T10:13:12Z</time>
      </trkpt>
      <trkpt lat="45.99044" lon="4.8257">
        <ele>235</ele>
        <time>2017-12-05T10:13:13Z</time>
      </trkpt>
      <trkpt lat="45.99049" lon="4.82572">
        <ele>235</ele>
        <time>2017-12-05T10:13:14Z</time>
      </trkpt>
      <trkpt lat="45.99053" lon="4.82574">
        <ele>235</ele>
        <time>2017-12-05T10:13:15Z</time>
      </trkpt>
      <trkpt lat="45.99061" lon="4.82577">
        <ele>235</ele>
        <time>2017-12-05T10:13:17Z</time>
      </trkpt>
      <trkpt lat="45.99066" lon="4.82577">
        <ele>235</ele>
        <time>2017-12-05T10:13:18Z</time>
      </trkpt>
      <trkpt lat="45.99072" lon="4.82582">
        <ele>235</ele>
        <time>2017-12-05T10:13:20Z</time>
      </trkpt>
      <trkpt lat="45.99073" lon="4.82585">
        <ele>235</ele>
        <time>2017-12-05T10:13:21Z</time>
      </trkpt>
      <trkpt lat="45.9907" lon="4.82596">
        <ele>235</ele>
        <time>2017-12-05T10:13:24Z</time>
      </trkpt>
      <trkpt lat="45.99069" lon="4.826">
        <ele>235</ele>
        <time>2017-12-05T10:13:25Z</time>
      </trkpt>
      <trkpt lat="45.99067" lon="4.82608">
        <ele>236</ele>
        <time>2017-12-05T10:13:27Z</time>
      </trkpt>
      <trkpt lat="45.99065" lon="4.82612">
        <ele>236</ele>
        <time>2017-12-05T10:13:28Z</time>
      </trkpt>
      <trkpt lat="45.99061" lon="4.8262">
        <ele>236</ele>
        <time>2017-12-05T10:13:30Z</time>
      </trkpt>
      <trkpt lat="45.99059" lon="4.82624">
        <ele>236</ele>
        <time>2017-12-05T10:13:31Z</time>
      </trkpt>
      <trkpt lat="45.99055" lon="4.82632">
        <ele>236</ele>
        <time>2017-12-05T10:13:33Z</time>
      </trkpt>
      <trkpt lat="45.99053" lon="4.82636">
        <ele>236</ele>
        <time>2017-12-05T10:13:34Z</time>
      </trkpt>
      <trkpt lat="45.99049" lon="4.82644">
        <ele>236</ele>
        <time>2017-12-05T10:13:36Z</time>
      </trkpt>
      <trkpt lat="45.99047" lon="4.82648">
        <ele>236</ele>
        <time>2017-12-05T10:13:37Z</time>
      </trkpt>
      <trkpt lat="45.99043" lon="4.82655">
        <ele>236</ele>
        <time>2017-12-05T10:13:39Z</time>
      </trkpt>
      <trkpt lat="45.99041" lon="4.82659">
        <ele>236</ele>
        <time>2017-12-05T10:13:40Z</time>
      </trkpt>
      <trkpt lat="45.99037" lon="4.82667">
        <ele>238</ele>
        <time>2017-12-05T10:13:42Z</time>
      </trkpt>
      <trkpt lat="45.99035" lon="4.82671">
        <ele>238</ele>
        <time>2017-12-05T10:13:43Z</time>
      </trkpt>
      <trkpt lat="45.99032" lon="4.82678">
        <ele>238</ele>
        <time>2017-12-05T10:13:45Z</time>
      </trkpt>
      <trkpt lat="45.9903" lon="4.82682">
        <ele>238</ele>
        <time>2017-12-05T10:13:46Z</time>
      </trkpt>
      <trkpt lat="45.99027" lon="4.8269">
        <ele>238</ele>
        <time>2017-12-05T10:13:48Z</time>
      </trkpt>
      <trkpt lat="45.99025" lon="4.82693">
        <ele>238</ele>
        <time>2017-12-05T10:13:49Z</time>
      </trkpt>
      <trkpt lat="45.99022" lon="4.827">
        <ele>238</ele>
        <time>2017-12-05T10:13:51Z</time>
      </trkpt>
      <trkpt lat="45.99021" lon="4.82704">
        <ele>238</ele>
        <time>2017-12-05T10:13:52Z</time>
      </trkpt>
      <trkpt lat="45.99018" lon="4.82712">
        <ele>239</ele>
        <time>2017-12-05T10:13:54Z</time>
      </trkpt>
      <trkpt lat="45.99016" lon="4.82716">
        <ele>239</ele>
        <time>2017-12-05T10:13:55Z</time>
      </trkpt>
      <trkpt lat="45.99013" lon="4.82724">
        <ele>239</ele>
        <time>2017-12-05T10:13:57Z</time>
      </trkpt>
      <trkpt lat="45.99012" lon="4.82728">
        <ele>239</ele>
        <time>2017-12-05T10:13:58Z</time>
      </trkpt>
      <trkpt lat="45.99008" lon="4.82736">
        <ele>240</ele>
        <time>2017-12-05T10:14:00Z</time>
      </trkpt>
      <trkpt lat="45.99007" lon="4.82739">
        <ele>240</ele>
        <time>2017-12-05T10:14:01Z</time>
      </trkpt>
      <trkpt lat="45.99002" lon="4.8275">
        <ele>241</ele>
        <time>2017-12-05T10:14:04Z</time>
      </trkpt>
      <trkpt lat="45.99" lon="4.82754">
        <ele>241</ele>
        <time>2017-12-05T10:14:05Z</time>
      </trkpt>
      <trkpt lat="45.98996" lon="4.82765">
        <ele>244</ele>
        <time>2017-12-05T10:14:08Z</time>
      </trkpt>
      <trkpt lat="45.98994" lon="4.82768">
        <ele>245</ele>
        <time>2017-12-05T10:14:09Z</time>
      </trkpt>
      <trkpt lat="45.98991" lon="4.82775">
        <ele>246</ele>
        <time>2017-12-05T10:14:11Z</time>
      </trkpt>
      <trkpt lat="45.98989" lon="4.82779">
        <ele>246</ele>
        <time>2017-12-05T10:14:12Z</time>
      </trkpt>
      <trkpt lat="45.98986" lon="4.82786">
        <ele>247</ele>
        <time>2017-12-05T10:14:14Z</time>
      </trkpt>
      <trkpt lat="45.98984" lon="4.8279">
        <ele>247</ele>
        <time>2017-12-05T10:14:15Z</time>
      </trkpt>
      <trkpt lat="45.98982" lon="4.82798">
        <ele>248</ele>
        <time>2017-12-05T10:14:17Z</time>
      </trkpt>
      <trkpt lat="45.9898" lon="4.82802">
        <ele>248</ele>
        <time>2017-12-05T10:14:18Z</time>
      </trkpt>
      <trkpt lat="45.98977" lon="4.82809">
        <ele>248</ele>
        <time>2017-12-05T10:14:20Z</time>
      </trkpt>
      <trkpt lat="45.98975" lon="4.82813">
        <ele>248</ele>
        <time>2017-12-05T10:14:21Z</time>
      </trkpt>
      <trkpt lat="45.98971" lon="4.8282">
        <ele>249</ele>
        <time>2017-12-05T10:14:23Z</time>
      </trkpt>
      <trkpt lat="45.98969" lon="4.82823">
        <ele>249</ele>
        <time>2017-12-05T10:14:24Z</time>
      </trkpt>
      <trkpt lat="45.98965" lon="4.82834">
        <ele>252</ele>
        <time>2017-12-05T10:14:27Z</time>
      </trkpt>
      <trkpt lat="45.98963" lon="4.82838">
        <ele>252</ele>
        <time>2017-12-05T10:14:28Z</time>
      </trkpt>
      <trkpt lat="45.98959" lon="4.82849">
        <ele>252</ele>
        <time>2017-12-05T10:14:31Z</time>
      </trkpt>
      <trkpt lat="45.98957" lon="4.82852">
        <ele>252</ele>
        <time>2017-12-05T10:14:32Z</time>
      </trkpt>
      <trkpt lat="45.98952" lon="4.82861">
        <ele>252</ele>
        <time>2017-12-05T10:14:35Z</time>
      </trkpt>
      <trkpt lat="45.9895" lon="4.82865">
        <ele>253</ele>
        <time>2017-12-05T10:14:36Z</time>
      </trkpt>
      <trkpt lat="45.98946" lon="4.82875">
        <ele>253</ele>
        <time>2017-12-05T10:14:39Z</time>
      </trkpt>
      <trkpt lat="45.98944" lon="4.82878">
        <ele>253</ele>
        <time>2017-12-05T10:14:40Z</time>
      </trkpt>
      <trkpt lat="45.9894" lon="4.82889">
        <ele>253</ele>
        <time>2017-12-05T10:14:43Z</time>
      </trkpt>
      <trkpt lat="45.98938" lon="4.82893">
        <ele>253</ele>
        <time>2017-12-05T10:14:44Z</time>
      </trkpt>
      <trkpt lat="45.98934" lon="4.82902">
        <ele>254</ele>
        <time>2017-12-05T10:14:47Z</time>
      </trkpt>
      <trkpt lat="45.98932" lon="4.82905">
        <ele>254</ele>
        <time>2017-12-05T10:14:48Z</time>
      </trkpt>
      <trkpt lat="45.98927" lon="4.82915">
        <ele>254</ele>
        <time>2017-12-05T10:14:51Z</time>
      </trkpt>
      <trkpt lat="45.98926" lon="4.82918">
        <ele>255</ele>
        <time>2017-12-05T10:14:52Z</time>
      </trkpt>
      <trkpt lat="45.98923" lon="4.82928">
        <ele>255</ele>
        <time>2017-12-05T10:14:55Z</time>
      </trkpt>
      <trkpt lat="45.98921" lon="4.82931">
        <ele>255</ele>
        <time>2017-12-05T10:14:56Z</time>
      </trkpt>
      <trkpt lat="45.98918" lon="4.82941">
        <ele>255</ele>
        <time>2017-12-05T10:14:59Z</time>
      </trkpt>
      <trkpt lat="45.98917" lon="4.82944">
        <ele>258</ele>
        <time>2017-12-05T10:15:00Z</time>
      </trkpt>
      <trkpt lat="45.98911" lon="4.82953">
        <ele>258</ele>
        <time>2017-12-05T10:15:03Z</time>
      </trkpt>
      <trkpt lat="45.9891" lon="4.82956">
        <ele>258</ele>
        <time>2017-12-05T10:15:04Z</time>
      </trkpt>
      <trkpt lat="45.98904" lon="4.82964">
        <ele>259</ele>
        <time>2017-12-05T10:15:07Z</time>
      </trkpt>
      <trkpt lat="45.98902" lon="4.82967">
        <ele>259</ele>
        <time>2017-12-05T10:15:08Z</time>
      </trkpt>
      <trkpt lat="45.98896" lon="4.82974">
        <ele>259</ele>
        <time>2017-12-05T10:15:11Z</time>
      </trkpt>
      <trkpt lat="45.98894" lon="4.82977">
        <ele>259</ele>
        <time>2017-12-05T10:15:12Z</time>
      </trkpt>
      <trkpt lat="45.98887" lon="4.82984">
        <ele>259</ele>
        <time>2017-12-05T10:15:15Z</time>
      </trkpt>
      <trkpt lat="45.98885" lon="4.82986">
        <ele>259</ele>
        <time>2017-12-05T10:15:16Z</time>
      </trkpt>
      <trkpt lat="45.98877" lon="4.82991">
        <ele>260</ele>
        <time>2017-12-05T10:15:19Z</time>
      </trkpt>
      <trkpt lat="45.98875" lon="4.82992">
        <ele>260</ele>
        <time>2017-12-05T10:15:20Z</time>
      </trkpt>
      <trkpt lat="45.98867" lon="4.82998">
        <ele>260</ele>
        <time>2017-12-05T10:15:23Z</time>
      </trkpt>
      <trkpt lat="45.98865" lon="4.83">
        <ele>260</ele>
        <time>2017-12-05T10:15:24Z</time>
      </trkpt>
      <trkpt lat="45.98858" lon="4.83004">
        <ele>261</ele>
        <time>2017-12-05T10:15:27Z</time>
      </trkpt>
      <trkpt lat="45.98856" lon="4.83006">
        <ele>261</ele>
        <time>2017-12-05T10:15:28Z</time>
      </trkpt>
      <trkpt lat="45.9885" lon="4.83012">
        <ele>261</ele>
        <time>2017-12-05T10:15:31Z</time>
      </trkpt>
      <trkpt lat="45.98848" lon="4.83014">
        <ele>261</ele>
        <time>2017-12-05T10:15:32Z</time>
      </trkpt>
      <trkpt lat="45.98841" lon="4.83019">
        <ele>261</ele>
        <time>2017-12-05T10:15:35Z</time>
      </trkpt>
      <trkpt lat="45.98838" lon="4.83021">
        <ele>261</ele>
        <time>2017-12-05T10:15:36Z</time>
      </trkpt>
      <trkpt lat="45.98832" lon="4.83025">
        <ele>264</ele>
        <time>2017-12-05T10:15:39Z</time>
      </trkpt>
      <trkpt lat="45.98829" lon="4.83027">
        <ele>264</ele>
        <time>2017-12-05T10:15:40Z</time>
      </trkpt>
      <trkpt lat="45.98824" lon="4.83031">
        <ele>264</ele>
        <time>2017-12-05T10:15:42Z</time>
      </trkpt>
      <trkpt lat="45.98821" lon="4.83033">
        <ele>264</ele>
        <time>2017-12-05T10:15:43Z</time>
      </trkpt>
      <trkpt lat="45.98816" lon="4.83038">
        <ele>264</ele>
        <time>2017-12-05T10:15:45Z</time>
      </trkpt>
      <trkpt lat="45.98813" lon="4.8304">
        <ele>264</ele>
        <time>2017-12-05T10:15:46Z</time>
      </trkpt>
      <trkpt lat="45.98807" lon="4.83044">
        <ele>264</ele>
        <time>2017-12-05T10:15:48Z</time>
      </trkpt>
      <trkpt lat="45.98805" lon="4.83046">
        <ele>264</ele>
        <time>2017-12-05T10:15:49Z</time>
      </trkpt>
      <trkpt lat="45.98799" lon="4.83049">
        <ele>264</ele>
        <time>2017-12-05T10:15:51Z</time>
      </trkpt>
      <trkpt lat="45.98796" lon="4.83051">
        <ele>265</ele>
        <time>2017-12-05T10:15:52Z</time>
      </trkpt>
      <trkpt lat="45.9879" lon="4.83055">
        <ele>265</ele>
        <time>2017-12-05T10:15:54Z</time>
      </trkpt>
      <trkpt lat="45.98787" lon="4.83057">
        <ele>265</ele>
        <time>2017-12-05T10:15:55Z</time>
      </trkpt>
      <trkpt lat="45.98782" lon="4.83064">
        <ele>265</ele>
        <time>2017-12-05T10:15:57Z</time>
      </trkpt>
      <trkpt lat="45.98779" lon="4.83067">
        <ele>265</ele>
        <time>2017-12-05T10:15:58Z</time>
      </trkpt>
      <trkpt lat="45.98773" lon="4.83073">
        <ele>265</ele>
        <time>2017-12-05T10:16:00Z</time>
      </trkpt>
      <trkpt lat="45.9877" lon="4.83076">
        <ele>266</ele>
        <time>2017-12-05T10:16:01Z</time>
      </trkpt>
      <trkpt lat="45.98764" lon="4.8308">
        <ele>266</ele>
        <time>2017-12-05T10:16:03Z</time>
      </trkpt>
      <trkpt lat="45.98761" lon="4.83083">
        <ele>266</ele>
        <time>2017-12-05T10:16:04Z</time>
      </trkpt>
      <trkpt lat="45.98755" lon="4.83087">
        <ele>266</ele>
        <time>2017-12-05T10:16:06Z</time>
      </trkpt>
      <trkpt lat="45.98752" lon="4.8309">
        <ele>266</ele>
        <time>2017-12-05T10:16:07Z</time>
      </trkpt>
      <trkpt lat="45.98746" lon="4.83095">
        <ele>267</ele>
        <time>2017-12-05T10:16:09Z</time>
      </trkpt>
      <trkpt lat="45.98743" lon="4.83098">
        <ele>267</ele>
        <time>2017-12-05T10:16:10Z</time>
      </trkpt>
      <trkpt lat="45.98737" lon="4.83104">
        <ele>267</ele>
        <time>2017-12-05T10:16:12Z</time>
      </trkpt>
      <trkpt lat="45.98734" lon="4.83106">
        <ele>267</ele>
        <time>2017-12-05T10:16:13Z</time>
      </trkpt>
      <trkpt lat="45.98728" lon="4.83112">
        <ele>267</ele>
        <time>2017-12-05T10:16:15Z</time>
      </trkpt>
      <trkpt lat="45.98725" lon="4.83115">
        <ele>267</ele>
        <time>2017-12-05T10:16:16Z</time>
      </trkpt>
      <trkpt lat="45.98717" lon="4.8312">
        <ele>267</ele>
        <time>2017-12-05T10:16:18Z</time>
      </trkpt>
      <trkpt lat="45.98714" lon="4.83123">
        <ele>266</ele>
        <time>2017-12-05T10:16:19Z</time>
      </trkpt>
      <trkpt lat="45.98707" lon="4.8313">
        <ele>266</ele>
        <time>2017-12-05T10:16:21Z</time>
      </trkpt>
      <trkpt lat="45.98703" lon="4.83133">
        <ele>266</ele>
        <time>2017-12-05T10:16:22Z</time>
      </trkpt>
      <trkpt lat="45.98696" lon="4.83138">
        <ele>266</ele>
        <time>2017-12-05T10:16:24Z</time>
      </trkpt>
      <trkpt lat="45.98692" lon="4.83141">
        <ele>266</ele>
        <time>2017-12-05T10:16:25Z</time>
      </trkpt>
      <trkpt lat="45.98685" lon="4.83146">
        <ele>266</ele>
        <time>2017-12-05T10:16:27Z</time>
      </trkpt>
      <trkpt lat="45.98681" lon="4.83149">
        <ele>266</ele>
        <time>2017-12-05T10:16:28Z</time>
      </trkpt>
      <trkpt lat="45.98673" lon="4.83155">
        <ele>266</ele>
        <time>2017-12-05T10:16:30Z</time>
      </trkpt>
      <trkpt lat="45.9867" lon="4.83157">
        <ele>266</ele>
        <time>2017-12-05T10:16:31Z</time>
      </trkpt>
      <trkpt lat="45.98662" lon="4.83161">
        <ele>266</ele>
        <time>2017-12-05T10:16:33Z</time>
      </trkpt>
      <trkpt lat="45.98658" lon="4.83164">
        <ele>267</ele>
        <time>2017-12-05T10:16:34Z</time>
      </trkpt>
      <trkpt lat="45.98651" lon="4.83169">
        <ele>267</ele>
        <time>2017-12-05T10:16:36Z</time>
      </trkpt>
      <trkpt lat="45.98648" lon="4.83173">
        <ele>267</ele>
        <time>2017-12-05T10:16:37Z</time>
      </trkpt>
      <trkpt lat="45.98641" lon="4.8318">
        <ele>267</ele>
        <time>2017-12-05T10:16:39Z</time>
      </trkpt>
      <trkpt lat="45.98639" lon="4.83182">
        <ele>267</ele>
        <time>2017-12-05T10:16:40Z</time>
      </trkpt>
      <trkpt lat="45.98633" lon="4.83188">
        <ele>267</ele>
        <time>2017-12-05T10:16:42Z</time>
      </trkpt>
      <trkpt lat="45.9863" lon="4.8319">
        <ele>267</ele>
        <time>2017-12-05T10:16:43Z</time>
      </trkpt>
      <trkpt lat="45.98623" lon="4.83197">
        <ele>267</ele>
        <time>2017-12-05T10:16:45Z</time>
      </trkpt>
      <trkpt lat="45.9862" lon="4.83201">
        <ele>267</ele>
        <time>2017-12-05T10:16:46Z</time>
      </trkpt>
      <trkpt lat="45.98615" lon="4.83209">
        <ele>267</ele>
        <time>2017-12-05T10:16:48Z</time>
      </trkpt>
      <trkpt lat="45.98613" lon="4.83213">
        <ele>267</ele>
        <time>2017-12-05T10:16:49Z</time>
      </trkpt>
      <trkpt lat="45.98606" lon="4.83222">
        <ele>267</ele>
        <time>2017-12-05T10:16:51Z</time>
      </trkpt>
      <trkpt lat="45.98603" lon="4.83226">
        <ele>267</ele>
        <time>2017-12-05T10:16:52Z</time>
      </trkpt>
      <trkpt lat="45.98597" lon="4.83233">
        <ele>268</ele>
        <time>2017-12-05T10:16:54Z</time>
      </trkpt>
      <trkpt lat="45.98593" lon="4.83237">
        <ele>268</ele>
        <time>2017-12-05T10:16:55Z</time>
      </trkpt>
      <trkpt lat="45.9859" lon="4.83242">
        <ele>268</ele>
        <time>2017-12-05T10:16:56Z</time>
      </trkpt>
      <trkpt lat="45.98587" lon="4.83246">
        <ele>268</ele>
        <time>2017-12-05T10:16:57Z</time>
      </trkpt>
      <trkpt lat="45.98581" lon="4.83254">
        <ele>268</ele>
        <time>2017-12-05T10:16:59Z</time>
      </trkpt>
      <trkpt lat="45.98578" lon="4.83258">
        <ele>268</ele>
        <time>2017-12-05T10:17:00Z</time>
      </trkpt>
      <trkpt lat="45.98574" lon="4.83263">
        <ele>269</ele>
        <time>2017-12-05T10:17:01Z</time>
      </trkpt>
      <trkpt lat="45.98571" lon="4.83268">
        <ele>269</ele>
        <time>2017-12-05T10:17:02Z</time>
      </trkpt>
      <trkpt lat="45.98568" lon="4.83272">
        <ele>269</ele>
        <time>2017-12-05T10:17:03Z</time>
      </trkpt>
      <trkpt lat="45.98564" lon="4.83277">
        <ele>269</ele>
        <time>2017-12-05T10:17:04Z</time>
      </trkpt>
      <trkpt lat="45.98561" lon="4.83282">
        <ele>269</ele>
        <time>2017-12-05T10:17:05Z</time>
      </trkpt>
      <trkpt lat="45.98556" lon="4.83288">
        <ele>269</ele>
        <time>2017-12-05T10:17:06Z</time>
      </trkpt>
      <trkpt lat="45.98552" lon="4.83292">
        <ele>269</ele>
        <time>2017-12-05T10:17:07Z</time>
      </trkpt>
      <trkpt lat="45.98548" lon="4.83298">
        <ele>269</ele>
        <time>2017-12-05T10:17:08Z</time>
      </trkpt>
      <trkpt lat="45.98545" lon="4.83303">
        <ele>269</ele>
        <time>2017-12-05T10:17:09Z</time>
      </trkpt>
      <trkpt lat="45.98542" lon="4.83308">
        <ele>269</ele>
        <time>2017-12-05T10:17:10Z</time>
      </trkpt>
      <trkpt lat="45.98538" lon="4.83313">
        <ele>269</ele>
        <time>2017-12-05T10:17:11Z</time>
      </trkpt>
      <trkpt lat="45.98535" lon="4.83317">
        <ele>269</ele>
        <time>2017-12-05T10:17:12Z</time>
      </trkpt>
      <trkpt lat="45.98529" lon="4.83326">
        <ele>269</ele>
        <time>2017-12-05T10:17:14Z</time>
      </trkpt>
      <trkpt lat="45.98525" lon="4.83331">
        <ele>270</ele>
        <time>2017-12-05T10:17:15Z</time>
      </trkpt>
      <trkpt lat="45.98521" lon="4.83335">
        <ele>270</ele>
        <time>2017-12-05T10:17:16Z</time>
      </trkpt>
      <trkpt lat="45.98519" lon="4.8334">
        <ele>270</ele>
        <time>2017-12-05T10:17:17Z</time>
      </trkpt>
      <trkpt lat="45.98514" lon="4.83345">
        <ele>270</ele>
        <time>2017-12-05T10:17:18Z</time>
      </trkpt>
      <trkpt lat="45.98511" lon="4.8335">
        <ele>270</ele>
        <time>2017-12-05T10:17:19Z</time>
      </trkpt>
      <trkpt lat="45.98505" lon="4.83356">
        <ele>270</ele>
        <time>2017-12-05T10:17:20Z</time>
      </trkpt>
      <trkpt lat="45.98501" lon="4.83361">
        <ele>269</ele>
        <time>2017-12-05T10:17:21Z</time>
      </trkpt>
      <trkpt lat="45.98496" lon="4.83366">
        <ele>270</ele>
        <time>2017-12-05T10:17:22Z</time>
      </trkpt>
      <trkpt lat="45.98492" lon="4.83371">
        <ele>270</ele>
        <time>2017-12-05T10:17:23Z</time>
      </trkpt>
      <trkpt lat="45.98488" lon="4.83377">
        <ele>269</ele>
        <time>2017-12-05T10:17:24Z</time>
      </trkpt>
      <trkpt lat="45.98484" lon="4.83383">
        <ele>269</ele>
        <time>2017-12-05T10:17:25Z</time>
      </trkpt>
      <trkpt lat="45.98479" lon="4.83389">
        <ele>269</ele>
        <time>2017-12-05T10:17:26Z</time>
      </trkpt>
      <trkpt lat="45.98475" lon="4.83395">
        <ele>269</ele>
        <time>2017-12-05T10:17:27Z</time>
      </trkpt>
      <trkpt lat="45.98471" lon="4.83402">
        <ele>269</ele>
        <time>2017-12-05T10:17:28Z</time>
      </trkpt>
      <trkpt lat="45.98467" lon="4.83407">
        <ele>269</ele>
        <time>2017-12-05T10:17:29Z</time>
      </trkpt>
      <trkpt lat="45.98463" lon="4.83412">
        <ele>269</ele>
        <time>2017-12-05T10:17:30Z</time>
      </trkpt>
      <trkpt lat="45.98459" lon="4.83417">
        <ele>269</ele>
        <time>2017-12-05T10:17:31Z</time>
      </trkpt>
      <trkpt lat="45.98455" lon="4.83422">
        <ele>269</ele>
        <time>2017-12-05T10:17:32Z</time>
      </trkpt>
      <trkpt lat="45.98451" lon="4.83427">
        <ele>269</ele>
        <time>2017-12-05T10:17:33Z</time>
      </trkpt>
      <trkpt lat="45.98447" lon="4.83432">
        <ele>268</ele>
        <time>2017-12-05T10:17:34Z</time>
      </trkpt>
      <trkpt lat="45.98442" lon="4.83438">
        <ele>268</ele>
        <time>2017-12-05T10:17:35Z</time>
      </trkpt>
      <trkpt lat="45.98438" lon="4.83444">
        <ele>268</ele>
        <time>2017-12-05T10:17:36Z</time>
      </trkpt>
      <trkpt lat="45.98434" lon="4.83451">
        <ele>268</ele>
        <time>2017-12-05T10:17:37Z</time>
      </trkpt>
      <trkpt lat="45.9843" lon="4.83457">
        <ele>268</ele>
        <time>2017-12-05T10:17:38Z</time>
      </trkpt>
      <trkpt lat="45.98426" lon="4.83462">
        <ele>268</ele>
        <time>2017-12-05T10:17:39Z</time>
      </trkpt>
      <trkpt lat="45.98422" lon="4.83468">
        <ele>268</ele>
        <time>2017-12-05T10:17:40Z</time>
      </trkpt>
      <trkpt lat="45.98418" lon="4.83473">
        <ele>268</ele>
        <time>2017-12-05T10:17:41Z</time>
      </trkpt>
      <trkpt lat="45.98415" lon="4.83478">
        <ele>269</ele>
        <time>2017-12-05T10:17:42Z</time>
      </trkpt>
      <trkpt lat="45.98411" lon="4.83483">
        <ele>269</ele>
        <time>2017-12-05T10:17:43Z</time>
      </trkpt>
      <trkpt lat="45.98407" lon="4.83489">
        <ele>269</ele>
        <time>2017-12-05T10:17:44Z</time>
      </trkpt>
      <trkpt lat="45.98403" lon="4.83495">
        <ele>269</ele>
        <time>2017-12-05T10:17:45Z</time>
      </trkpt>
      <trkpt lat="45.98399" lon="4.835">
        <ele>269</ele>
        <time>2017-12-05T10:17:46Z</time>
      </trkpt>
      <trkpt lat="45.98394" lon="4.83505">
        <ele>269</ele>
        <time>2017-12-05T10:17:47Z</time>
      </trkpt>
      <trkpt lat="45.98389" lon="4.8351">
        <ele>269</ele>
        <time>2017-12-05T10:17:48Z</time>
      </trkpt>
      <trkpt lat="45.98385" lon="4.83516">
        <ele>269</ele>
        <time>2017-12-05T10:17:49Z</time>
      </trkpt>
      <trkpt lat="45.98381" lon="4.83522">
        <ele>269</ele>
        <time>2017-12-05T10:17:50Z</time>
      </trkpt>
      <trkpt lat="45.98377" lon="4.83527">
        <ele>269</ele>
        <time>2017-12-05T10:17:51Z</time>
      </trkpt>
      <trkpt lat="45.98373" lon="4.83533">
        <ele>269</ele>
        <time>2017-12-05T10:17:52Z</time>
      </trkpt>
      <trkpt lat="45.98369" lon="4.83538">
        <ele>269</ele>
        <time>2017-12-05T10:17:53Z</time>
      </trkpt>
      <trkpt lat="45.98364" lon="4.83544">
        <ele>269</ele>
        <time>2017-12-05T10:17:54Z</time>
      </trkpt>
      <trkpt lat="45.98361" lon="4.83549">
        <ele>269</ele>
        <time>2017-12-05T10:17:55Z</time>
      </trkpt>
      <trkpt lat="45.98357" lon="4.83555">
        <ele>269</ele>
        <time>2017-12-05T10:17:56Z</time>
      </trkpt>
      <trkpt lat="45.98352" lon="4.8356">
        <ele>269</ele>
        <time>2017-12-05T10:17:57Z</time>
      </trkpt>
      <trkpt lat="45.98348" lon="4.83566">
        <ele>269</ele>
        <time>2017-12-05T10:17:58Z</time>
      </trkpt>
      <trkpt lat="45.98344" lon="4.83571">
        <ele>270</ele>
        <time>2017-12-05T10:17:59Z</time>
      </trkpt>
      <trkpt lat="45.9834" lon="4.83576">
        <ele>270</ele>
        <time>2017-12-05T10:18:00Z</time>
      </trkpt>
      <trkpt lat="45.98337" lon="4.83582">
        <ele>270</ele>
        <time>2017-12-05T10:18:01Z</time>
      </trkpt>
      <trkpt lat="45.98334" lon="4.83588">
        <ele>270</ele>
        <time>2017-12-05T10:18:02Z</time>
      </trkpt>
      <trkpt lat="45.9833" lon="4.83592">
        <ele>270</ele>
        <time>2017-12-05T10:18:03Z</time>
      </trkpt>
      <trkpt lat="45.98327" lon="4.83597">
        <ele>271</ele>
        <time>2017-12-05T10:18:04Z</time>
      </trkpt>
      <trkpt lat="45.98324" lon="4.83602">
        <ele>271</ele>
        <time>2017-12-05T10:18:05Z</time>
      </trkpt>
      <trkpt lat="45.9832" lon="4.83607">
        <ele>271</ele>
        <time>2017-12-05T10:18:06Z</time>
      </trkpt>
      <trkpt lat="45.98317" lon="4.83611">
        <ele>271</ele>
        <time>2017-12-05T10:18:07Z</time>
      </trkpt>
      <trkpt lat="45.98314" lon="4.83617">
        <ele>271</ele>
        <time>2017-12-05T10:18:08Z</time>
      </trkpt>
      <trkpt lat="45.98311" lon="4.83622">
        <ele>271</ele>
        <time>2017-12-05T10:18:09Z</time>
      </trkpt>
      <trkpt lat="45.98308" lon="4.83628">
        <ele>271</ele>
        <time>2017-12-05T10:18:10Z</time>
      </trkpt>
      <trkpt lat="45.98305" lon="4.83633">
        <ele>271</ele>
        <time>2017-12-05T10:18:11Z</time>
      </trkpt>
      <trkpt lat="45.98302" lon="4.8364">
        <ele>271</ele>
        <time>2017-12-05T10:18:12Z</time>
      </trkpt>
      <trkpt lat="45.98299" lon="4.83647">
        <ele>271</ele>
        <time>2017-12-05T10:18:13Z</time>
      </trkpt>
      <trkpt lat="45.98296" lon="4.83655">
        <ele>271</ele>
        <time>2017-12-05T10:18:14Z</time>
      </trkpt>
      <trkpt lat="45.98293" lon="4.83662">
        <ele>271</ele>
        <time>2017-12-05T10:18:15Z</time>
      </trkpt>
      <trkpt lat="45.9829" lon="4.83668">
        <ele>272</ele>
        <time>2017-12-05T10:18:16Z</time>
      </trkpt>
      <trkpt lat="45.98286" lon="4.83677">
        <ele>272</ele>
        <time>2017-12-05T10:18:17Z</time>
      </trkpt>
      <trkpt lat="45.98284" lon="4.83684">
        <ele>272</ele>
        <time>2017-12-05T10:18:18Z</time>
      </trkpt>
      <trkpt lat="45.98282" lon="4.83691">
        <ele>272</ele>
        <time>2017-12-05T10:18:19Z</time>
      </trkpt>
      <trkpt lat="45.98279" lon="4.83697">
        <ele>272</ele>
        <time>2017-12-05T10:18:20Z</time>
      </trkpt>
      <trkpt lat="45.98277" lon="4.83705">
        <ele>272</ele>
        <time>2017-12-05T10:18:21Z</time>
      </trkpt>
      <trkpt lat="45.98274" lon="4.8371">
        <ele>272</ele>
        <time>2017-12-05T10:18:22Z</time>
      </trkpt>
      <trkpt lat="45.98272" lon="4.83717">
        <ele>272</ele>
        <time>2017-12-05T10:18:23Z</time>
      </trkpt>
      <trkpt lat="45.9827" lon="4.83724">
        <ele>272</ele>
        <time>2017-12-05T10:18:24Z</time>
      </trkpt>
      <trkpt lat="45.98267" lon="4.83731">
        <ele>272</ele>
        <time>2017-12-05T10:18:25Z</time>
      </trkpt>
      <trkpt lat="45.98263" lon="4.83738">
        <ele>272</ele>
        <time>2017-12-05T10:18:26Z</time>
      </trkpt>
      <trkpt lat="45.98261" lon="4.83747">
        <ele>272</ele>
        <time>2017-12-05T10:18:27Z</time>
      </trkpt>
      <trkpt lat="45.98259" lon="4.83754">
        <ele>272</ele>
        <time>2017-12-05T10:18:28Z</time>
      </trkpt>
      <trkpt lat="45.98257" lon="4.8376">
        <ele>272</ele>
        <time>2017-12-05T10:18:29Z</time>
      </trkpt>
      <trkpt lat="45.98255" lon="4.83767">
        <ele>272</ele>
        <time>2017-12-05T10:18:30Z</time>
      </trkpt>
      <trkpt lat="45.98253" lon="4.83774">
        <ele>272</ele>
        <time>2017-12-05T10:18:31Z</time>
      </trkpt>
      <trkpt lat="45.98252" lon="4.83781">
        <ele>272</ele>
        <time>2017-12-05T10:18:32Z</time>
      </trkpt>
      <trkpt lat="45.98249" lon="4.83787">
        <ele>272</ele>
        <time>2017-12-05T10:18:33Z</time>
      </trkpt>
      <trkpt lat="45.98247" lon="4.83795">
        <ele>272</ele>
        <time>2017-12-05T10:18:34Z</time>
      </trkpt>
      <trkpt lat="45.98244" lon="4.83801">
        <ele>272</ele>
        <time>2017-12-05T10:18:35Z</time>
      </trkpt>
      <trkpt lat="45.98242" lon="4.83809">
        <ele>272</ele>
        <time>2017-12-05T10:18:36Z</time>
      </trkpt>
      <trkpt lat="45.9824" lon="4.83816">
        <ele>272</ele>
        <time>2017-12-05T10:18:37Z</time>
      </trkpt>
      <trkpt lat="45.98237" lon="4.83822">
        <ele>272</ele>
        <time>2017-12-05T10:18:38Z</time>
      </trkpt>
      <trkpt lat="45.98235" lon="4.83829">
        <ele>272</ele>
        <time>2017-12-05T10:18:39Z</time>
      </trkpt>
      <trkpt lat="45.98234" lon="4.83835">
        <ele>272</ele>
        <time>2017-12-05T10:18:40Z</time>
      </trkpt>
      <trkpt lat="45.98231" lon="4.83841">
        <ele>272</ele>
        <time>2017-12-05T10:18:41Z</time>
      </trkpt>
      <trkpt lat="45.98227" lon="4.83852">
        <ele>272</ele>
        <time>2017-12-05T10:18:43Z</time>
      </trkpt>
      <trkpt lat="45.98224" lon="4.83858">
        <ele>272</ele>
        <time>2017-12-05T10:18:44Z</time>
      </trkpt>
      <trkpt lat="45.98221" lon="4.83865">
        <ele>272</ele>
        <time>2017-12-05T10:18:45Z</time>
      </trkpt>
      <trkpt lat="45.98219" lon="4.83871">
        <ele>272</ele>
        <time>2017-12-05T10:18:46Z</time>
      </trkpt>
      <trkpt lat="45.98219" lon="4.83879">
        <ele>272</ele>
        <time>2017-12-05T10:18:47Z</time>
      </trkpt>
      <trkpt lat="45.98217" lon="4.83886">
        <ele>272</ele>
        <time>2017-12-05T10:18:48Z</time>
      </trkpt>
      <trkpt lat="45.98215" lon="4.83891">
        <ele>273</ele>
        <time>2017-12-05T10:18:49Z</time>
      </trkpt>
      <trkpt lat="45.98213" lon="4.83898">
        <ele>273</ele>
        <time>2017-12-05T10:18:50Z</time>
      </trkpt>
      <trkpt lat="45.98211" lon="4.83904">
        <ele>273</ele>
        <time>2017-12-05T10:18:51Z</time>
      </trkpt>
      <trkpt lat="45.98209" lon="4.8391">
        <ele>273</ele>
        <time>2017-12-05T10:18:52Z</time>
      </trkpt>
      <trkpt lat="45.98206" lon="4.83916">
        <ele>273</ele>
        <time>2017-12-05T10:18:53Z</time>
      </trkpt>
      <trkpt lat="45.98204" lon="4.83921">
        <ele>273</ele>
        <time>2017-12-05T10:18:54Z</time>
      </trkpt>
      <trkpt lat="45.98201" lon="4.83928">
        <ele>273</ele>
        <time>2017-12-05T10:18:55Z</time>
      </trkpt>
      <trkpt lat="45.98199" lon="4.83934">
        <ele>273</ele>
        <time>2017-12-05T10:18:56Z</time>
      </trkpt>
      <trkpt lat="45.98195" lon="4.8394">
        <ele>273</ele>
        <time>2017-12-05T10:18:57Z</time>
      </trkpt>
      <trkpt lat="45.98193" lon="4.83947">
        <ele>273</ele>
        <time>2017-12-05T10:18:58Z</time>
      </trkpt>
      <trkpt lat="45.9819" lon="4.83955">
        <ele>273</ele>
        <time>2017-12-05T10:18:59Z</time>
      </trkpt>
      <trkpt lat="45.98188" lon="4.83962">
        <ele>273</ele>
        <time>2017-12-05T10:19:00Z</time>
      </trkpt>
      <trkpt lat="45.98185" lon="4.83968">
        <ele>273</ele>
        <time>2017-12-05T10:19:01Z</time>
      </trkpt>
      <trkpt lat="45.98184" lon="4.83974">
        <ele>273</ele>
        <time>2017-12-05T10:19:02Z</time>
      </trkpt>
      <trkpt lat="45.98182" lon="4.83981">
        <ele>273</ele>
        <time>2017-12-05T10:19:03Z</time>
      </trkpt>
      <trkpt lat="45.9818" lon="4.83986">
        <ele>273</ele>
        <time>2017-12-05T10:19:04Z</time>
      </trkpt>
      <trkpt lat="45.98173" lon="4.83995">
        <ele>273</ele>
        <time>2017-12-05T10:19:06Z</time>
      </trkpt>
      <trkpt lat="45.98171" lon="4.84001">
        <ele>273</ele>
        <time>2017-12-05T10:19:07Z</time>
      </trkpt>
      <trkpt lat="45.98168" lon="4.84007">
        <ele>273</ele>
        <time>2017-12-05T10:19:08Z</time>
      </trkpt>
      <trkpt lat="45.98166" lon="4.84012">
        <ele>273</ele>
        <time>2017-12-05T10:19:09Z</time>
      </trkpt>
      <trkpt lat="45.98163" lon="4.84018">
        <ele>273</ele>
        <time>2017-12-05T10:19:10Z</time>
      </trkpt>
      <trkpt lat="45.98159" lon="4.84022">
        <ele>273</ele>
        <time>2017-12-05T10:19:11Z</time>
      </trkpt>
      <trkpt lat="45.98157" lon="4.84029">
        <ele>273</ele>
        <time>2017-12-05T10:19:12Z</time>
      </trkpt>
      <trkpt lat="45.98154" lon="4.84035">
        <ele>273</ele>
        <time>2017-12-05T10:19:13Z</time>
      </trkpt>
      <trkpt lat="45.98151" lon="4.8404">
        <ele>273</ele>
        <time>2017-12-05T10:19:14Z</time>
      </trkpt>
      <trkpt lat="45.98146" lon="4.84046">
        <ele>273</ele>
        <time>2017-12-05T10:19:15Z</time>
      </trkpt>
      <trkpt lat="45.98143" lon="4.84052">
        <ele>273</ele>
        <time>2017-12-05T10:19:16Z</time>
      </trkpt>
      <trkpt lat="45.98139" lon="4.84057">
        <ele>273</ele>
        <time>2017-12-05T10:19:17Z</time>
      </trkpt>
      <trkpt lat="45.98134" lon="4.84062">
        <ele>273</ele>
        <time>2017-12-05T10:19:18Z</time>
      </trkpt>
      <trkpt lat="45.9813" lon="4.84066">
        <ele>273</ele>
        <time>2017-12-05T10:19:19Z</time>
      </trkpt>
      <trkpt lat="45.98126" lon="4.84071">
        <ele>273</ele>
        <time>2017-12-05T10:19:20Z</time>
      </trkpt>
      <trkpt lat="45.98123" lon="4.84075">
        <ele>273</ele>
        <time>2017-12-05T10:19:21Z</time>
      </trkpt>
      <trkpt lat="45.9812" lon="4.84079">
        <ele>273</ele>
        <time>2017-12-05T10:19:22Z</time>
      </trkpt>
      <trkpt lat="45.98115" lon="4.84084">
        <ele>273</ele>
        <time>2017-12-05T10:19:23Z</time>
      </trkpt>
      <trkpt lat="45.98112" lon="4.84088">
        <ele>273</ele>
        <time>2017-12-05T10:19:24Z</time>
      </trkpt>
      <trkpt lat="45.98108" lon="4.84092">
        <ele>273</ele>
        <time>2017-12-05T10:19:25Z</time>
      </trkpt>
      <trkpt lat="45.98104" lon="4.84096">
        <ele>273</ele>
        <time>2017-12-05T10:19:26Z</time>
      </trkpt>
      <trkpt lat="45.98101" lon="4.84101">
        <ele>273</ele>
        <time>2017-12-05T10:19:27Z</time>
      </trkpt>
      <trkpt lat="45.98094" lon="4.84107">
        <ele>273</ele>
        <time>2017-12-05T10:19:29Z</time>
      </trkpt>
      <trkpt lat="45.98089" lon="4.84111">
        <ele>273</ele>
        <time>2017-12-05T10:19:30Z</time>
      </trkpt>
      <trkpt lat="45.98084" lon="4.84115">
        <ele>273</ele>
        <time>2017-12-05T10:19:31Z</time>
      </trkpt>
      <trkpt lat="45.9808" lon="4.84119">
        <ele>273</ele>
        <time>2017-12-05T10:19:32Z</time>
      </trkpt>
      <trkpt lat="45.98075" lon="4.84123">
        <ele>273</ele>
        <time>2017-12-05T10:19:33Z</time>
      </trkpt>
      <trkpt lat="45.9807" lon="4.84128">
        <ele>273</ele>
        <time>2017-12-05T10:19:34Z</time>
      </trkpt>
      <trkpt lat="45.98065" lon="4.84132">
        <ele>273</ele>
        <time>2017-12-05T10:19:35Z</time>
      </trkpt>
      <trkpt lat="45.98061" lon="4.84137">
        <ele>273</ele>
        <time>2017-12-05T10:19:36Z</time>
      </trkpt>
      <trkpt lat="45.98057" lon="4.84141">
        <ele>273</ele>
        <time>2017-12-05T10:19:37Z</time>
      </trkpt>
      <trkpt lat="45.98052" lon="4.84145">
        <ele>273</ele>
        <time>2017-12-05T10:19:38Z</time>
      </trkpt>
      <trkpt lat="45.98048" lon="4.84149">
        <ele>273</ele>
        <time>2017-12-05T10:19:39Z</time>
      </trkpt>
      <trkpt lat="45.98044" lon="4.84154">
        <ele>273</ele>
        <time>2017-12-05T10:19:40Z</time>
      </trkpt>
      <trkpt lat="45.98039" lon="4.84159">
        <ele>273</ele>
        <time>2017-12-05T10:19:41Z</time>
      </trkpt>
      <trkpt lat="45.98035" lon="4.84165">
        <ele>273</ele>
        <time>2017-12-05T10:19:42Z</time>
      </trkpt>
      <trkpt lat="45.98031" lon="4.84168">
        <ele>273</ele>
        <time>2017-12-05T10:19:43Z</time>
      </trkpt>
      <trkpt lat="45.98027" lon="4.84173">
        <ele>274</ele>
        <time>2017-12-05T10:19:44Z</time>
      </trkpt>
      <trkpt lat="45.98023" lon="4.84177">
        <ele>274</ele>
        <time>2017-12-05T10:19:45Z</time>
      </trkpt>
      <trkpt lat="45.98018" lon="4.8418">
        <ele>274</ele>
        <time>2017-12-05T10:19:46Z</time>
      </trkpt>
      <trkpt lat="45.98014" lon="4.84183">
        <ele>274</ele>
        <time>2017-12-05T10:19:47Z</time>
      </trkpt>
      <trkpt lat="45.98009" lon="4.84187">
        <ele>274</ele>
        <time>2017-12-05T10:19:48Z</time>
      </trkpt>
      <trkpt lat="45.98004" lon="4.84191">
        <ele>274</ele>
        <time>2017-12-05T10:19:49Z</time>
      </trkpt>
      <trkpt lat="45.98" lon="4.84194">
        <ele>274</ele>
        <time>2017-12-05T10:19:50Z</time>
      </trkpt>
      <trkpt lat="45.97995" lon="4.84198">
        <ele>274</ele>
        <time>2017-12-05T10:19:51Z</time>
      </trkpt>
      <trkpt lat="45.97991" lon="4.84202">
        <ele>274</ele>
        <time>2017-12-05T10:19:52Z</time>
      </trkpt>
      <trkpt lat="45.97984" lon="4.84209">
        <ele>274</ele>
        <time>2017-12-05T10:19:54Z</time>
      </trkpt>
      <trkpt lat="45.9798" lon="4.84213">
        <ele>274</ele>
        <time>2017-12-05T10:19:55Z</time>
      </trkpt>
      <trkpt lat="45.97976" lon="4.84217">
        <ele>274</ele>
        <time>2017-12-05T10:19:56Z</time>
      </trkpt>
      <trkpt lat="45.97972" lon="4.8422">
        <ele>274</ele>
        <time>2017-12-05T10:19:57Z</time>
      </trkpt>
      <trkpt lat="45.97965" lon="4.84226">
        <ele>274</ele>
        <time>2017-12-05T10:19:59Z</time>
      </trkpt>
      <trkpt lat="45.97961" lon="4.8423">
        <ele>274</ele>
        <time>2017-12-05T10:20:00Z</time>
      </trkpt>
      <trkpt lat="45.97957" lon="4.84233">
        <ele>275</ele>
        <time>2017-12-05T10:20:01Z</time>
      </trkpt>
      <trkpt lat="45.97953" lon="4.84238">
        <ele>275</ele>
        <time>2017-12-05T10:20:02Z</time>
      </trkpt>
      <trkpt lat="45.97949" lon="4.84242">
        <ele>275</ele>
        <time>2017-12-05T10:20:03Z</time>
      </trkpt>
      <trkpt lat="45.97944" lon="4.84247">
        <ele>275</ele>
        <time>2017-12-05T10:20:04Z</time>
      </trkpt>
      <trkpt lat="45.97936" lon="4.84254">
        <ele>275</ele>
        <time>2017-12-05T10:20:06Z</time>
      </trkpt>
      <trkpt lat="45.97933" lon="4.84257">
        <ele>275</ele>
        <time>2017-12-05T10:20:07Z</time>
      </trkpt>
      <trkpt lat="45.97929" lon="4.84262">
        <ele>275</ele>
        <time>2017-12-05T10:20:08Z</time>
      </trkpt>
      <trkpt lat="45.97924" lon="4.84267">
        <ele>275</ele>
        <time>2017-12-05T10:20:09Z</time>
      </trkpt>
      <trkpt lat="45.97921" lon="4.84272">
        <ele>275</ele>
        <time>2017-12-05T10:20:10Z</time>
      </trkpt>
      <trkpt lat="45.97916" lon="4.84276">
        <ele>275</ele>
        <time>2017-12-05T10:20:11Z</time>
      </trkpt>
      <trkpt lat="45.97912" lon="4.84282">
        <ele>275</ele>
        <time>2017-12-05T10:20:12Z</time>
      </trkpt>
      <trkpt lat="45.97908" lon="4.84289">
        <ele>275</ele>
        <time>2017-12-05T10:20:13Z</time>
      </trkpt>
      <trkpt lat="45.97904" lon="4.84295">
        <ele>275</ele>
        <time>2017-12-05T10:20:14Z</time>
      </trkpt>
      <trkpt lat="45.979" lon="4.84301">
        <ele>275</ele>
        <time>2017-12-05T10:20:15Z</time>
      </trkpt>
      <trkpt lat="45.97896" lon="4.84306">
        <ele>275</ele>
        <time>2017-12-05T10:20:16Z</time>
      </trkpt>
      <trkpt lat="45.97893" lon="4.84312">
        <ele>275</ele>
        <time>2017-12-05T10:20:17Z</time>
      </trkpt>
      <trkpt lat="45.97887" lon="4.84322">
        <ele>275</ele>
        <time>2017-12-05T10:20:19Z</time>
      </trkpt>
      <trkpt lat="45.97885" lon="4.84326">
        <ele>275</ele>
        <time>2017-12-05T10:20:20Z</time>
      </trkpt>
      <trkpt lat="45.97881" lon="4.84331">
        <ele>275</ele>
        <time>2017-12-05T10:20:21Z</time>
      </trkpt>
      <trkpt lat="45.97878" lon="4.84336">
        <ele>275</ele>
        <time>2017-12-05T10:20:22Z</time>
      </trkpt>
      <trkpt lat="45.97875" lon="4.84341">
        <ele>276</ele>
        <time>2017-12-05T10:20:23Z</time>
      </trkpt>
      <trkpt lat="45.97872" lon="4.84347">
        <ele>276</ele>
        <time>2017-12-05T10:20:24Z</time>
      </trkpt>
      <trkpt lat="45.97868" lon="4.84351">
        <ele>276</ele>
        <time>2017-12-05T10:20:25Z</time>
      </trkpt>
      <trkpt lat="45.97865" lon="4.84355">
        <ele>276</ele>
        <time>2017-12-05T10:20:26Z</time>
      </trkpt>
      <trkpt lat="45.97861" lon="4.84359">
        <ele>276</ele>
        <time>2017-12-05T10:20:27Z</time>
      </trkpt>
      <trkpt lat="45.97856" lon="4.84365">
        <ele>276</ele>
        <time>2017-12-05T10:20:28Z</time>
      </trkpt>
      <trkpt lat="45.97852" lon="4.8437">
        <ele>276</ele>
        <time>2017-12-05T10:20:29Z</time>
      </trkpt>
      <trkpt lat="45.97848" lon="4.84375">
        <ele>276</ele>
        <time>2017-12-05T10:20:30Z</time>
      </trkpt>
      <trkpt lat="45.97845" lon="4.8438">
        <ele>276</ele>
        <time>2017-12-05T10:20:31Z</time>
      </trkpt>
      <trkpt lat="45.97841" lon="4.84385">
        <ele>276</ele>
        <time>2017-12-05T10:20:32Z</time>
      </trkpt>
      <trkpt lat="45.97836" lon="4.84388">
        <ele>276</ele>
        <time>2017-12-05T10:20:33Z</time>
      </trkpt>
      <trkpt lat="45.97832" lon="4.84393">
        <ele>276</ele>
        <time>2017-12-05T10:20:34Z</time>
      </trkpt>
      <trkpt lat="45.97828" lon="4.84399">
        <ele>276</ele>
        <time>2017-12-05T10:20:35Z</time>
      </trkpt>
      <trkpt lat="45.97823" lon="4.84403">
        <ele>276</ele>
        <time>2017-12-05T10:20:36Z</time>
      </trkpt>
      <trkpt lat="45.97817" lon="4.84408">
        <ele>276</ele>
        <time>2017-12-05T10:20:37Z</time>
      </trkpt>
      <trkpt lat="45.97812" lon="4.84412">
        <ele>277</ele>
        <time>2017-12-05T10:20:38Z</time>
      </trkpt>
      <trkpt lat="45.97804" lon="4.84416">
        <ele>277</ele>
        <time>2017-12-05T10:20:39Z</time>
      </trkpt>
      <trkpt lat="45.97798" lon="4.8442">
        <ele>277</ele>
        <time>2017-12-05T10:20:40Z</time>
      </trkpt>
      <trkpt lat="45.97792" lon="4.84423">
        <ele>277</ele>
        <time>2017-12-05T10:20:41Z</time>
      </trkpt>
      <trkpt lat="45.97787" lon="4.84424">
        <ele>277</ele>
        <time>2017-12-05T10:20:42Z</time>
      </trkpt>
      <trkpt lat="45.97782" lon="4.84426">
        <ele>277</ele>
        <time>2017-12-05T10:20:43Z</time>
      </trkpt>
      <trkpt lat="45.97777" lon="4.84427">
        <ele>277</ele>
        <time>2017-12-05T10:20:44Z</time>
      </trkpt>
      <trkpt lat="45.97771" lon="4.8443">
        <ele>277</ele>
        <time>2017-12-05T10:20:45Z</time>
      </trkpt>
      <trkpt lat="45.97766" lon="4.84433">
        <ele>277</ele>
        <time>2017-12-05T10:20:46Z</time>
      </trkpt>
      <trkpt lat="45.97761" lon="4.84435">
        <ele>277</ele>
        <time>2017-12-05T10:20:47Z</time>
      </trkpt>
      <trkpt lat="45.97756" lon="4.84435">
        <ele>277</ele>
        <time>2017-12-05T10:20:48Z</time>
      </trkpt>
      <trkpt lat="45.9775" lon="4.84438">
        <ele>277</ele>
        <time>2017-12-05T10:20:49Z</time>
      </trkpt>
      <trkpt lat="45.97743" lon="4.84439">
        <ele>277</ele>
        <time>2017-12-05T10:20:50Z</time>
      </trkpt>
      <trkpt lat="45.97737" lon="4.84442">
        <ele>277</ele>
        <time>2017-12-05T10:20:51Z</time>
      </trkpt>
      <trkpt lat="45.97731" lon="4.84444">
        <ele>277</ele>
        <time>2017-12-05T10:20:52Z</time>
      </trkpt>
      <trkpt lat="45.97724" lon="4.84447">
        <ele>277</ele>
        <time>2017-12-05T10:20:53Z</time>
      </trkpt>
      <trkpt lat="45.97718" lon="4.84449">
        <ele>277</ele>
        <time>2017-12-05T10:20:54Z</time>
      </trkpt>
      <trkpt lat="45.97712" lon="4.84451">
        <ele>277</ele>
        <time>2017-12-05T10:20:55Z</time>
      </trkpt>
      <trkpt lat="45.97705" lon="4.84453">
        <ele>277</ele>
        <time>2017-12-05T10:20:56Z</time>
      </trkpt>
      <trkpt lat="45.97699" lon="4.84456">
        <ele>277</ele>
        <time>2017-12-05T10:20:57Z</time>
      </trkpt>
      <trkpt lat="45.97694" lon="4.8446">
        <ele>277</ele>
        <time>2017-12-05T10:20:58Z</time>
      </trkpt>
      <trkpt lat="45.97689" lon="4.84462">
        <ele>277</ele>
        <time>2017-12-05T10:20:59Z</time>
      </trkpt>
      <trkpt lat="45.97684" lon="4.84465">
        <ele>277</ele>
        <time>2017-12-05T10:21:00Z</time>
      </trkpt>
      <trkpt lat="45.9768" lon="4.84468">
        <ele>277</ele>
        <time>2017-12-05T10:21:01Z</time>
      </trkpt>
      <trkpt lat="45.97676" lon="4.84471">
        <ele>277</ele>
        <time>2017-12-05T10:21:02Z</time>
      </trkpt>
      <trkpt lat="45.97672" lon="4.84475">
        <ele>276</ele>
        <time>2017-12-05T10:21:03Z</time>
      </trkpt>
      <trkpt lat="45.97667" lon="4.84479">
        <ele>276</ele>
        <time>2017-12-05T10:21:04Z</time>
      </trkpt>
      <trkpt lat="45.97662" lon="4.84482">
        <ele>276</ele>
        <time>2017-12-05T10:21:05Z</time>
      </trkpt>
      <trkpt lat="45.97657" lon="4.84487">
        <ele>275</ele>
        <time>2017-12-05T10:21:06Z</time>
      </trkpt>
      <trkpt lat="45.97653" lon="4.84491">
        <ele>275</ele>
        <time>2017-12-05T10:21:07Z</time>
      </trkpt>
      <trkpt lat="45.97648" lon="4.84495">
        <ele>275</ele>
        <time>2017-12-05T10:21:08Z</time>
      </trkpt>
      <trkpt lat="45.97643" lon="4.84499">
        <ele>275</ele>
        <time>2017-12-05T10:21:09Z</time>
      </trkpt>
      <trkpt lat="45.97639" lon="4.84503">
        <ele>275</ele>
        <time>2017-12-05T10:21:10Z</time>
      </trkpt>
      <trkpt lat="45.97634" lon="4.84508">
        <ele>275</ele>
        <time>2017-12-05T10:21:11Z</time>
      </trkpt>
      <trkpt lat="45.9763" lon="4.84514">
        <ele>275</ele>
        <time>2017-12-05T10:21:12Z</time>
      </trkpt>
      <trkpt lat="45.97626" lon="4.84519">
        <ele>275</ele>
        <time>2017-12-05T10:21:13Z</time>
      </trkpt>
      <trkpt lat="45.97621" lon="4.84523">
        <ele>275</ele>
        <time>2017-12-05T10:21:14Z</time>
      </trkpt>
      <trkpt lat="45.97617" lon="4.84527">
        <ele>275</ele>
        <time>2017-12-05T10:21:15Z</time>
      </trkpt>
      <trkpt lat="45.97613" lon="4.84532">
        <ele>275</ele>
        <time>2017-12-05T10:21:16Z</time>
      </trkpt>
      <trkpt lat="45.97609" lon="4.84537">
        <ele>275</ele>
        <time>2017-12-05T10:21:17Z</time>
      </trkpt>
      <trkpt lat="45.97604" lon="4.84544">
        <ele>275</ele>
        <time>2017-12-05T10:21:18Z</time>
      </trkpt>
      <trkpt lat="45.97601" lon="4.84549">
        <ele>275</ele>
        <time>2017-12-05T10:21:19Z</time>
      </trkpt>
      <trkpt lat="45.97596" lon="4.84555">
        <ele>275</ele>
        <time>2017-12-05T10:21:20Z</time>
      </trkpt>
      <trkpt lat="45.97591" lon="4.8456">
        <ele>274</ele>
        <time>2017-12-05T10:21:21Z</time>
      </trkpt>
      <trkpt lat="45.97587" lon="4.84566">
        <ele>274</ele>
        <time>2017-12-05T10:21:22Z</time>
      </trkpt>
      <trkpt lat="45.97583" lon="4.84571">
        <ele>274</ele>
        <time>2017-12-05T10:21:23Z</time>
      </trkpt>
      <trkpt lat="45.97577" lon="4.84577">
        <ele>274</ele>
        <time>2017-12-05T10:21:24Z</time>
      </trkpt>
      <trkpt lat="45.97574" lon="4.84582">
        <ele>274</ele>
        <time>2017-12-05T10:21:25Z</time>
      </trkpt>
      <trkpt lat="45.97571" lon="4.84587">
        <ele>274</ele>
        <time>2017-12-05T10:21:26Z</time>
      </trkpt>
      <trkpt lat="45.97566" lon="4.84592">
        <ele>274</ele>
        <time>2017-12-05T10:21:27Z</time>
      </trkpt>
      <trkpt lat="45.97563" lon="4.84595">
        <ele>274</ele>
        <time>2017-12-05T10:21:28Z</time>
      </trkpt>
      <trkpt lat="45.97558" lon="4.846">
        <ele>274</ele>
        <time>2017-12-05T10:21:29Z</time>
      </trkpt>
      <trkpt lat="45.97553" lon="4.84605">
        <ele>274</ele>
        <time>2017-12-05T10:21:30Z</time>
      </trkpt>
      <trkpt lat="45.97548" lon="4.84608">
        <ele>274</ele>
        <time>2017-12-05T10:21:31Z</time>
      </trkpt>
      <trkpt lat="45.97543" lon="4.84614">
        <ele>274</ele>
        <time>2017-12-05T10:21:32Z</time>
      </trkpt>
      <trkpt lat="45.97539" lon="4.84617">
        <ele>275</ele>
        <time>2017-12-05T10:21:33Z</time>
      </trkpt>
      <trkpt lat="45.97534" lon="4.84622">
        <ele>275</ele>
        <time>2017-12-05T10:21:34Z</time>
      </trkpt>
      <trkpt lat="45.9753" lon="4.84626">
        <ele>275</ele>
        <time>2017-12-05T10:21:35Z</time>
      </trkpt>
      <trkpt lat="45.97524" lon="4.8463">
        <ele>275</ele>
        <time>2017-12-05T10:21:36Z</time>
      </trkpt>
      <trkpt lat="45.97519" lon="4.84633">
        <ele>275</ele>
        <time>2017-12-05T10:21:37Z</time>
      </trkpt>
      <trkpt lat="45.97516" lon="4.84636">
        <ele>275</ele>
        <time>2017-12-05T10:21:38Z</time>
      </trkpt>
      <trkpt lat="45.97511" lon="4.84639">
        <ele>275</ele>
        <time>2017-12-05T10:21:39Z</time>
      </trkpt>
      <trkpt lat="45.97507" lon="4.84642">
        <ele>275</ele>
        <time>2017-12-05T10:21:40Z</time>
      </trkpt>
      <trkpt lat="45.97503" lon="4.84646">
        <ele>275</ele>
        <time>2017-12-05T10:21:41Z</time>
      </trkpt>
      <trkpt lat="45.97499" lon="4.84649">
        <ele>275</ele>
        <time>2017-12-05T10:21:42Z</time>
      </trkpt>
      <trkpt lat="45.97495" lon="4.84652">
        <ele>275</ele>
        <time>2017-12-05T10:21:43Z</time>
      </trkpt>
      <trkpt lat="45.97491" lon="4.84657">
        <ele>275</ele>
        <time>2017-12-05T10:21:44Z</time>
      </trkpt>
      <trkpt lat="45.97486" lon="4.84659">
        <ele>275</ele>
        <time>2017-12-05T10:21:45Z</time>
      </trkpt>
      <trkpt lat="45.9748" lon="4.84662">
        <ele>276</ele>
        <time>2017-12-05T10:21:46Z</time>
      </trkpt>
      <trkpt lat="45.97475" lon="4.84666">
        <ele>276</ele>
        <time>2017-12-05T10:21:47Z</time>
      </trkpt>
      <trkpt lat="45.97469" lon="4.8467">
        <ele>276</ele>
        <time>2017-12-05T10:21:48Z</time>
      </trkpt>
      <trkpt lat="45.97465" lon="4.84673">
        <ele>276</ele>
        <time>2017-12-05T10:21:49Z</time>
      </trkpt>
      <trkpt lat="45.97458" lon="4.84676">
        <ele>276</ele>
        <time>2017-12-05T10:21:50Z</time>
      </trkpt>
      <trkpt lat="45.97454" lon="4.8468">
        <ele>276</ele>
        <time>2017-12-05T10:21:51Z</time>
      </trkpt>
      <trkpt lat="45.97449" lon="4.84684">
        <ele>276</ele>
        <time>2017-12-05T10:21:52Z</time>
      </trkpt>
      <trkpt lat="45.97445" lon="4.84688">
        <ele>276</ele>
        <time>2017-12-05T10:21:53Z</time>
      </trkpt>
      <trkpt lat="45.97439" lon="4.84691">
        <ele>276</ele>
        <time>2017-12-05T10:21:54Z</time>
      </trkpt>
      <trkpt lat="45.97435" lon="4.84695">
        <ele>276</ele>
        <time>2017-12-05T10:21:55Z</time>
      </trkpt>
      <trkpt lat="45.97431" lon="4.84699">
        <ele>276</ele>
        <time>2017-12-05T10:21:56Z</time>
      </trkpt>
      <trkpt lat="45.97423" lon="4.84705">
        <ele>276</ele>
        <time>2017-12-05T10:21:58Z</time>
      </trkpt>
      <trkpt lat="45.9742" lon="4.84709">
        <ele>276</ele>
        <time>2017-12-05T10:21:59Z</time>
      </trkpt>
      <trkpt lat="45.97413" lon="4.84712">
        <ele>278</ele>
        <time>2017-12-05T10:22:01Z</time>
      </trkpt>
      <trkpt lat="45.97409" lon="4.84714">
        <ele>278</ele>
        <time>2017-12-05T10:22:02Z</time>
      </trkpt>
      <trkpt lat="45.97404" lon="4.84716">
        <ele>278</ele>
        <time>2017-12-05T10:22:03Z</time>
      </trkpt>
      <trkpt lat="45.974" lon="4.84721">
        <ele>278</ele>
        <time>2017-12-05T10:22:04Z</time>
      </trkpt>
      <trkpt lat="45.97395" lon="4.84724">
        <ele>278</ele>
        <time>2017-12-05T10:22:05Z</time>
      </trkpt>
      <trkpt lat="45.97391" lon="4.84728">
        <ele>278</ele>
        <time>2017-12-05T10:22:06Z</time>
      </trkpt>
      <trkpt lat="45.97387" lon="4.84732">
        <ele>278</ele>
        <time>2017-12-05T10:22:07Z</time>
      </trkpt>
      <trkpt lat="45.97384" lon="4.84739">
        <ele>278</ele>
        <time>2017-12-05T10:22:08Z</time>
      </trkpt>
      <trkpt lat="45.97381" lon="4.84745">
        <ele>278</ele>
        <time>2017-12-05T10:22:09Z</time>
      </trkpt>
      <trkpt lat="45.97379" lon="4.84751">
        <ele>278</ele>
        <time>2017-12-05T10:22:10Z</time>
      </trkpt>
      <trkpt lat="45.97376" lon="4.84757">
        <ele>278</ele>
        <time>2017-12-05T10:22:11Z</time>
      </trkpt>
      <trkpt lat="45.97373" lon="4.84764">
        <ele>278</ele>
        <time>2017-12-05T10:22:12Z</time>
      </trkpt>
      <trkpt lat="45.97369" lon="4.84775">
        <ele>278</ele>
        <time>2017-12-05T10:22:14Z</time>
      </trkpt>
      <trkpt lat="45.97367" lon="4.84783">
        <ele>278</ele>
        <time>2017-12-05T10:22:15Z</time>
      </trkpt>
      <trkpt lat="45.97366" lon="4.84788">
        <ele>278</ele>
        <time>2017-12-05T10:22:16Z</time>
      </trkpt>
      <trkpt lat="45.97364" lon="4.84794">
        <ele>278</ele>
        <time>2017-12-05T10:22:17Z</time>
      </trkpt>
      <trkpt lat="45.97361" lon="4.848">
        <ele>278</ele>
        <time>2017-12-05T10:22:18Z</time>
      </trkpt>
      <trkpt lat="45.97358" lon="4.84806">
        <ele>278</ele>
        <time>2017-12-05T10:22:19Z</time>
      </trkpt>
      <trkpt lat="45.97355" lon="4.84814">
        <ele>278</ele>
        <time>2017-12-05T10:22:20Z</time>
      </trkpt>
      <trkpt lat="45.97352" lon="4.84821">
        <ele>278</ele>
        <time>2017-12-05T10:22:21Z</time>
      </trkpt>
      <trkpt lat="45.97349" lon="4.84827">
        <ele>278</ele>
        <time>2017-12-05T10:22:22Z</time>
      </trkpt>
      <trkpt lat="45.97347" lon="4.84833">
        <ele>278</ele>
        <time>2017-12-05T10:22:23Z</time>
      </trkpt>
      <trkpt lat="45.97344" lon="4.84839">
        <ele>277</ele>
        <time>2017-12-05T10:22:24Z</time>
      </trkpt>
      <trkpt lat="45.97341" lon="4.84846">
        <ele>277</ele>
        <time>2017-12-05T10:22:25Z</time>
      </trkpt>
      <trkpt lat="45.97337" lon="4.84856">
        <ele>277</ele>
        <time>2017-12-05T10:22:27Z</time>
      </trkpt>
      <trkpt lat="45.97334" lon="4.84861">
        <ele>277</ele>
        <time>2017-12-05T10:22:28Z</time>
      </trkpt>
      <trkpt lat="45.97328" lon="4.8487">
        <ele>278</ele>
        <time>2017-12-05T10:22:30Z</time>
      </trkpt>
      <trkpt lat="45.97325" lon="4.84876">
        <ele>278</ele>
        <time>2017-12-05T10:22:31Z</time>
      </trkpt>
      <trkpt lat="45.97323" lon="4.8488">
        <ele>278</ele>
        <time>2017-12-05T10:22:32Z</time>
      </trkpt>
      <trkpt lat="45.97319" lon="4.84885">
        <ele>278</ele>
        <time>2017-12-05T10:22:33Z</time>
      </trkpt>
      <trkpt lat="45.97315" lon="4.8489">
        <ele>278</ele>
        <time>2017-12-05T10:22:34Z</time>
      </trkpt>
      <trkpt lat="45.97311" lon="4.84896">
        <ele>278</ele>
        <time>2017-12-05T10:22:35Z</time>
      </trkpt>
      <trkpt lat="45.97308" lon="4.84902">
        <ele>278</ele>
        <time>2017-12-05T10:22:36Z</time>
      </trkpt>
      <trkpt lat="45.97305" lon="4.84907">
        <ele>278</ele>
        <time>2017-12-05T10:22:37Z</time>
      </trkpt>
      <trkpt lat="45.97301" lon="4.84912">
        <ele>278</ele>
        <time>2017-12-05T10:22:38Z</time>
      </trkpt>
      <trkpt lat="45.97298" lon="4.84918">
        <ele>278</ele>
        <time>2017-12-05T10:22:39Z</time>
      </trkpt>
      <trkpt lat="45.97296" lon="4.84923">
        <ele>278</ele>
        <time>2017-12-05T10:22:40Z</time>
      </trkpt>
      <trkpt lat="45.97292" lon="4.84928">
        <ele>278</ele>
        <time>2017-12-05T10:22:41Z</time>
      </trkpt>
      <trkpt lat="45.97287" lon="4.84938">
        <ele>278</ele>
        <time>2017-12-05T10:22:43Z</time>
      </trkpt>
      <trkpt lat="45.97284" lon="4.84942">
        <ele>278</ele>
        <time>2017-12-05T10:22:44Z</time>
      </trkpt>
      <trkpt lat="45.97281" lon="4.84947">
        <ele>278</ele>
        <time>2017-12-05T10:22:45Z</time>
      </trkpt>
      <trkpt lat="45.97276" lon="4.84952">
        <ele>279</ele>
        <time>2017-12-05T10:22:46Z</time>
      </trkpt>
      <trkpt lat="45.97273" lon="4.84958">
        <ele>279</ele>
        <time>2017-12-05T10:22:47Z</time>
      </trkpt>
      <trkpt lat="45.9727" lon="4.84963">
        <ele>279</ele>
        <time>2017-12-05T10:22:48Z</time>
      </trkpt>
      <trkpt lat="45.97268" lon="4.8497">
        <ele>279</ele>
        <time>2017-12-05T10:22:49Z</time>
      </trkpt>
      <trkpt lat="45.97266" lon="4.84977">
        <ele>279</ele>
        <time>2017-12-05T10:22:50Z</time>
      </trkpt>
      <trkpt lat="45.97264" lon="4.84983">
        <ele>279</ele>
        <time>2017-12-05T10:22:51Z</time>
      </trkpt>
      <trkpt lat="45.97261" lon="4.84989">
        <ele>279</ele>
        <time>2017-12-05T10:22:52Z</time>
      </trkpt>
      <trkpt lat="45.97258" lon="4.84994">
        <ele>279</ele>
        <time>2017-12-05T10:22:53Z</time>
      </trkpt>
      <trkpt lat="45.97254" lon="4.85001">
        <ele>279</ele>
        <time>2017-12-05T10:22:54Z</time>
      </trkpt>
      <trkpt lat="45.97251" lon="4.85008">
        <ele>279</ele>
        <time>2017-12-05T10:22:55Z</time>
      </trkpt>
      <trkpt lat="45.97248" lon="4.85016">
        <ele>279</ele>
        <time>2017-12-05T10:22:56Z</time>
      </trkpt>
      <trkpt lat="45.97245" lon="4.85024">
        <ele>279</ele>
        <time>2017-12-05T10:22:57Z</time>
      </trkpt>
      <trkpt lat="45.97241" lon="4.8503">
        <ele>279</ele>
        <time>2017-12-05T10:22:58Z</time>
      </trkpt>
      <trkpt lat="45.97238" lon="4.85035">
        <ele>279</ele>
        <time>2017-12-05T10:22:59Z</time>
      </trkpt>
      <trkpt lat="45.97235" lon="4.85043">
        <ele>279</ele>
        <time>2017-12-05T10:23:00Z</time>
      </trkpt>
      <trkpt lat="45.97232" lon="4.85048">
        <ele>279</ele>
        <time>2017-12-05T10:23:01Z</time>
      </trkpt>
      <trkpt lat="45.97229" lon="4.85054">
        <ele>279</ele>
        <time>2017-12-05T10:23:02Z</time>
      </trkpt>
      <trkpt lat="45.97225" lon="4.85065">
        <ele>279</ele>
        <time>2017-12-05T10:23:04Z</time>
      </trkpt>
      <trkpt lat="45.97223" lon="4.85071">
        <ele>278</ele>
        <time>2017-12-05T10:23:05Z</time>
      </trkpt>
      <trkpt lat="45.97221" lon="4.85076">
        <ele>278</ele>
        <time>2017-12-05T10:23:06Z</time>
      </trkpt>
      <trkpt lat="45.97218" lon="4.85083">
        <ele>278</ele>
        <time>2017-12-05T10:23:07Z</time>
      </trkpt>
      <trkpt lat="45.97215" lon="4.85089">
        <ele>278</ele>
        <time>2017-12-05T10:23:08Z</time>
      </trkpt>
      <trkpt lat="45.97213" lon="4.85095">
        <ele>278</ele>
        <time>2017-12-05T10:23:09Z</time>
      </trkpt>
      <trkpt lat="45.9721" lon="4.85102">
        <ele>278</ele>
        <time>2017-12-05T10:23:10Z</time>
      </trkpt>
      <trkpt lat="45.97206" lon="4.85108">
        <ele>278</ele>
        <time>2017-12-05T10:23:11Z</time>
      </trkpt>
      <trkpt lat="45.97203" lon="4.85115">
        <ele>278</ele>
        <time>2017-12-05T10:23:12Z</time>
      </trkpt>
      <trkpt lat="45.972" lon="4.85122">
        <ele>278</ele>
        <time>2017-12-05T10:23:13Z</time>
      </trkpt>
      <trkpt lat="45.97196" lon="4.85129">
        <ele>278</ele>
        <time>2017-12-05T10:23:14Z</time>
      </trkpt>
      <trkpt lat="45.97194" lon="4.85134">
        <ele>278</ele>
        <time>2017-12-05T10:23:15Z</time>
      </trkpt>
      <trkpt lat="45.97191" lon="4.85141">
        <ele>278</ele>
        <time>2017-12-05T10:23:16Z</time>
      </trkpt>
      <trkpt lat="45.97188" lon="4.85145">
        <ele>278</ele>
        <time>2017-12-05T10:23:17Z</time>
      </trkpt>
      <trkpt lat="45.97183" lon="4.85156">
        <ele>278</ele>
        <time>2017-12-05T10:23:19Z</time>
      </trkpt>
      <trkpt lat="45.97181" lon="4.85162">
        <ele>278</ele>
        <time>2017-12-05T10:23:20Z</time>
      </trkpt>
      <trkpt lat="45.97178" lon="4.85168">
        <ele>278</ele>
        <time>2017-12-05T10:23:21Z</time>
      </trkpt>
      <trkpt lat="45.97174" lon="4.85174">
        <ele>278</ele>
        <time>2017-12-05T10:23:22Z</time>
      </trkpt>
      <trkpt lat="45.97172" lon="4.85179">
        <ele>278</ele>
        <time>2017-12-05T10:23:23Z</time>
      </trkpt>
      <trkpt lat="45.9717" lon="4.85185">
        <ele>278</ele>
        <time>2017-12-05T10:23:24Z</time>
      </trkpt>
      <trkpt lat="45.97166" lon="4.8519">
        <ele>279</ele>
        <time>2017-12-05T10:23:25Z</time>
      </trkpt>
      <trkpt lat="45.97163" lon="4.85196">
        <ele>279</ele>
        <time>2017-12-05T10:23:26Z</time>
      </trkpt>
      <trkpt lat="45.9716" lon="4.85202">
        <ele>279</ele>
        <time>2017-12-05T10:23:27Z</time>
      </trkpt>
      <trkpt lat="45.97157" lon="4.85209">
        <ele>279</ele>
        <time>2017-12-05T10:23:28Z</time>
      </trkpt>
      <trkpt lat="45.97155" lon="4.85215">
        <ele>279</ele>
        <time>2017-12-05T10:23:29Z</time>
      </trkpt>
      <trkpt lat="45.97152" lon="4.85221">
        <ele>279</ele>
        <time>2017-12-05T10:23:30Z</time>
      </trkpt>
      <trkpt lat="45.97149" lon="4.85228">
        <ele>279</ele>
        <time>2017-12-05T10:23:31Z</time>
      </trkpt>
      <trkpt lat="45.97146" lon="4.85235">
        <ele>279</ele>
        <time>2017-12-05T10:23:32Z</time>
      </trkpt>
      <trkpt lat="45.97143" lon="4.85241">
        <ele>279</ele>
        <time>2017-12-05T10:23:33Z</time>
      </trkpt>
      <trkpt lat="45.9714" lon="4.85248">
        <ele>279</ele>
        <time>2017-12-05T10:23:34Z</time>
      </trkpt>
      <trkpt lat="45.97137" lon="4.85254">
        <ele>279</ele>
        <time>2017-12-05T10:23:35Z</time>
      </trkpt>
      <trkpt lat="45.97134" lon="4.8526">
        <ele>279</ele>
        <time>2017-12-05T10:23:36Z</time>
      </trkpt>
      <trkpt lat="45.97131" lon="4.85265">
        <ele>279</ele>
        <time>2017-12-05T10:23:37Z</time>
      </trkpt>
      <trkpt lat="45.97128" lon="4.85271">
        <ele>279</ele>
        <time>2017-12-05T10:23:38Z</time>
      </trkpt>
      <trkpt lat="45.97126" lon="4.85277">
        <ele>279</ele>
        <time>2017-12-05T10:23:39Z</time>
      </trkpt>
      <trkpt lat="45.97123" lon="4.85283">
        <ele>280</ele>
        <time>2017-12-05T10:23:40Z</time>
      </trkpt>
      <trkpt lat="45.97122" lon="4.85288">
        <ele>280</ele>
        <time>2017-12-05T10:23:41Z</time>
      </trkpt>
      <trkpt lat="45.97119" lon="4.85295">
        <ele>280</ele>
        <time>2017-12-05T10:23:42Z</time>
      </trkpt>
      <trkpt lat="45.97115" lon="4.853">
        <ele>280</ele>
        <time>2017-12-05T10:23:43Z</time>
      </trkpt>
      <trkpt lat="45.97112" lon="4.85307">
        <ele>280</ele>
        <time>2017-12-05T10:23:44Z</time>
      </trkpt>
      <trkpt lat="45.9711" lon="4.85312">
        <ele>280</ele>
        <time>2017-12-05T10:23:45Z</time>
      </trkpt>
      <trkpt lat="45.97106" lon="4.85318">
        <ele>280</ele>
        <time>2017-12-05T10:23:46Z</time>
      </trkpt>
      <trkpt lat="45.97105" lon="4.85325">
        <ele>280</ele>
        <time>2017-12-05T10:23:47Z</time>
      </trkpt>
      <trkpt lat="45.97101" lon="4.85332">
        <ele>280</ele>
        <time>2017-12-05T10:23:48Z</time>
      </trkpt>
      <trkpt lat="45.97099" lon="4.85338">
        <ele>280</ele>
        <time>2017-12-05T10:23:49Z</time>
      </trkpt>
      <trkpt lat="45.97097" lon="4.85345">
        <ele>280</ele>
        <time>2017-12-05T10:23:50Z</time>
      </trkpt>
      <trkpt lat="45.97095" lon="4.85351">
        <ele>280</ele>
        <time>2017-12-05T10:23:51Z</time>
      </trkpt>
      <trkpt lat="45.97093" lon="4.85358">
        <ele>280</ele>
        <time>2017-12-05T10:23:52Z</time>
      </trkpt>
      <trkpt lat="45.9709" lon="4.85365">
        <ele>280</ele>
        <time>2017-12-05T10:23:53Z</time>
      </trkpt>
      <trkpt lat="45.97087" lon="4.8537">
        <ele>280</ele>
        <time>2017-12-05T10:23:54Z</time>
      </trkpt>
      <trkpt lat="45.97084" lon="4.85377">
        <ele>280</ele>
        <time>2017-12-05T10:23:55Z</time>
      </trkpt>
      <trkpt lat="45.97082" lon="4.85383">
        <ele>281</ele>
        <time>2017-12-05T10:23:56Z</time>
      </trkpt>
      <trkpt lat="45.9708" lon="4.85389">
        <ele>281</ele>
        <time>2017-12-05T10:23:57Z</time>
      </trkpt>
      <trkpt lat="45.97078" lon="4.85396">
        <ele>281</ele>
        <time>2017-12-05T10:23:58Z</time>
      </trkpt>
      <trkpt lat="45.97076" lon="4.85403">
        <ele>281</ele>
        <time>2017-12-05T10:23:59Z</time>
      </trkpt>
      <trkpt lat="45.97075" lon="4.85409">
        <ele>281</ele>
        <time>2017-12-05T10:24:00Z</time>
      </trkpt>
      <trkpt lat="45.97072" lon="4.85415">
        <ele>281</ele>
        <time>2017-12-05T10:24:01Z</time>
      </trkpt>
      <trkpt lat="45.9707" lon="4.85421">
        <ele>281</ele>
        <time>2017-12-05T10:24:02Z</time>
      </trkpt>
      <trkpt lat="45.97069" lon="4.85429">
        <ele>281</ele>
        <time>2017-12-05T10:24:03Z</time>
      </trkpt>
      <trkpt lat="45.97067" lon="4.85436">
        <ele>281</ele>
        <time>2017-12-05T10:24:04Z</time>
      </trkpt>
      <trkpt lat="45.97065" lon="4.85442">
        <ele>281</ele>
        <time>2017-12-05T10:24:05Z</time>
      </trkpt>
      <trkpt lat="45.97063" lon="4.85448">
        <ele>281</ele>
        <time>2017-12-05T10:24:06Z</time>
      </trkpt>
      <trkpt lat="45.97061" lon="4.85454">
        <ele>281</ele>
        <time>2017-12-05T10:24:07Z</time>
      </trkpt>
      <trkpt lat="45.97059" lon="4.8546">
        <ele>281</ele>
        <time>2017-12-05T10:24:08Z</time>
      </trkpt>
      <trkpt lat="45.97057" lon="4.85466">
        <ele>281</ele>
        <time>2017-12-05T10:24:09Z</time>
      </trkpt>
      <trkpt lat="45.97055" lon="4.85473">
        <ele>281</ele>
        <time>2017-12-05T10:24:10Z</time>
      </trkpt>
      <trkpt lat="45.97053" lon="4.85479">
        <ele>281</ele>
        <time>2017-12-05T10:24:11Z</time>
      </trkpt>
      <trkpt lat="45.97051" lon="4.85485">
        <ele>281</ele>
        <time>2017-12-05T10:24:12Z</time>
      </trkpt>
      <trkpt lat="45.97048" lon="4.85491">
        <ele>281</ele>
        <time>2017-12-05T10:24:13Z</time>
      </trkpt>
      <trkpt lat="45.97046" lon="4.85498">
        <ele>281</ele>
        <time>2017-12-05T10:24:14Z</time>
      </trkpt>
      <trkpt lat="45.97043" lon="4.85504">
        <ele>282</ele>
        <time>2017-12-05T10:24:15Z</time>
      </trkpt>
      <trkpt lat="45.97041" lon="4.8551">
        <ele>282</ele>
        <time>2017-12-05T10:24:16Z</time>
      </trkpt>
      <trkpt lat="45.97038" lon="4.85518">
        <ele>282</ele>
        <time>2017-12-05T10:24:17Z</time>
      </trkpt>
      <trkpt lat="45.97036" lon="4.85525">
        <ele>282</ele>
        <time>2017-12-05T10:24:18Z</time>
      </trkpt>
      <trkpt lat="45.97033" lon="4.85532">
        <ele>282</ele>
        <time>2017-12-05T10:24:19Z</time>
      </trkpt>
      <trkpt lat="45.97031" lon="4.85538">
        <ele>283</ele>
        <time>2017-12-05T10:24:20Z</time>
      </trkpt>
      <trkpt lat="45.97029" lon="4.85545">
        <ele>283</ele>
        <time>2017-12-05T10:24:21Z</time>
      </trkpt>
      <trkpt lat="45.97027" lon="4.85552">
        <ele>283</ele>
        <time>2017-12-05T10:24:22Z</time>
      </trkpt>
      <trkpt lat="45.97025" lon="4.8556">
        <ele>283</ele>
        <time>2017-12-05T10:24:23Z</time>
      </trkpt>
      <trkpt lat="45.97023" lon="4.85568">
        <ele>283</ele>
        <time>2017-12-05T10:24:24Z</time>
      </trkpt>
      <trkpt lat="45.9702" lon="4.85576">
        <ele>283</ele>
        <time>2017-12-05T10:24:25Z</time>
      </trkpt>
      <trkpt lat="45.97019" lon="4.85584">
        <ele>284</ele>
        <time>2017-12-05T10:24:26Z</time>
      </trkpt>
      <trkpt lat="45.97016" lon="4.85591">
        <ele>284</ele>
        <time>2017-12-05T10:24:27Z</time>
      </trkpt>
      <trkpt lat="45.97014" lon="4.85598">
        <ele>284</ele>
        <time>2017-12-05T10:24:28Z</time>
      </trkpt>
      <trkpt lat="45.97013" lon="4.85606">
        <ele>284</ele>
        <time>2017-12-05T10:24:29Z</time>
      </trkpt>
      <trkpt lat="45.97012" lon="4.85613">
        <ele>284</ele>
        <time>2017-12-05T10:24:30Z</time>
      </trkpt>
      <trkpt lat="45.9701" lon="4.85621">
        <ele>284</ele>
        <time>2017-12-05T10:24:31Z</time>
      </trkpt>
      <trkpt lat="45.97008" lon="4.85629">
        <ele>284</ele>
        <time>2017-12-05T10:24:32Z</time>
      </trkpt>
      <trkpt lat="45.97006" lon="4.85637">
        <ele>284</ele>
        <time>2017-12-05T10:24:33Z</time>
      </trkpt>
      <trkpt lat="45.97005" lon="4.85643">
        <ele>284</ele>
        <time>2017-12-05T10:24:34Z</time>
      </trkpt>
      <trkpt lat="45.97002" lon="4.85651">
        <ele>285</ele>
        <time>2017-12-05T10:24:35Z</time>
      </trkpt>
      <trkpt lat="45.97" lon="4.85658">
        <ele>285</ele>
        <time>2017-12-05T10:24:36Z</time>
      </trkpt>
      <trkpt lat="45.96999" lon="4.85665">
        <ele>286</ele>
        <time>2017-12-05T10:24:37Z</time>
      </trkpt>
      <trkpt lat="45.96997" lon="4.85673">
        <ele>286</ele>
        <time>2017-12-05T10:24:38Z</time>
      </trkpt>
      <trkpt lat="45.96995" lon="4.85681">
        <ele>286</ele>
        <time>2017-12-05T10:24:39Z</time>
      </trkpt>
      <trkpt lat="45.96994" lon="4.85689">
        <ele>285</ele>
        <time>2017-12-05T10:24:40Z</time>
      </trkpt>
      <trkpt lat="45.96992" lon="4.85697">
        <ele>285</ele>
        <time>2017-12-05T10:24:41Z</time>
      </trkpt>
      <trkpt lat="45.96989" lon="4.85705">
        <ele>285</ele>
        <time>2017-12-05T10:24:42Z</time>
      </trkpt>
      <trkpt lat="45.96987" lon="4.85713">
        <ele>285</ele>
        <time>2017-12-05T10:24:43Z</time>
      </trkpt>
      <trkpt lat="45.96985" lon="4.85721">
        <ele>285</ele>
        <time>2017-12-05T10:24:44Z</time>
      </trkpt>
      <trkpt lat="45.96983" lon="4.85728">
        <ele>285</ele>
        <time>2017-12-05T10:24:45Z</time>
      </trkpt>
      <trkpt lat="45.96982" lon="4.85735">
        <ele>285</ele>
        <time>2017-12-05T10:24:46Z</time>
      </trkpt>
      <trkpt lat="45.9698" lon="4.85742">
        <ele>285</ele>
        <time>2017-12-05T10:24:47Z</time>
      </trkpt>
      <trkpt lat="45.96978" lon="4.85749">
        <ele>285</ele>
        <time>2017-12-05T10:24:48Z</time>
      </trkpt>
      <trkpt lat="45.96976" lon="4.85756">
        <ele>285</ele>
        <time>2017-12-05T10:24:49Z</time>
      </trkpt>
      <trkpt lat="45.96974" lon="4.85762">
        <ele>285</ele>
        <time>2017-12-05T10:24:50Z</time>
      </trkpt>
      <trkpt lat="45.96973" lon="4.85769">
        <ele>285</ele>
        <time>2017-12-05T10:24:51Z</time>
      </trkpt>
      <trkpt lat="45.96971" lon="4.85776">
        <ele>285</ele>
        <time>2017-12-05T10:24:52Z</time>
      </trkpt>
      <trkpt lat="45.96969" lon="4.85781">
        <ele>285</ele>
        <time>2017-12-05T10:24:53Z</time>
      </trkpt>
      <trkpt lat="45.96966" lon="4.85788">
        <ele>285</ele>
        <time>2017-12-05T10:24:54Z</time>
      </trkpt>
      <trkpt lat="45.96965" lon="4.85795">
        <ele>285</ele>
        <time>2017-12-05T10:24:55Z</time>
      </trkpt>
      <trkpt lat="45.96963" lon="4.85803">
        <ele>285</ele>
        <time>2017-12-05T10:24:56Z</time>
      </trkpt>
      <trkpt lat="45.9696" lon="4.8581">
        <ele>285</ele>
        <time>2017-12-05T10:24:57Z</time>
      </trkpt>
      <trkpt lat="45.96958" lon="4.85817">
        <ele>285</ele>
        <time>2017-12-05T10:24:58Z</time>
      </trkpt>
      <trkpt lat="45.96956" lon="4.85824">
        <ele>285</ele>
        <time>2017-12-05T10:24:59Z</time>
      </trkpt>
      <trkpt lat="45.96955" lon="4.85832">
        <ele>285</ele>
        <time>2017-12-05T10:25:00Z</time>
      </trkpt>
      <trkpt lat="45.96953" lon="4.85838">
        <ele>285</ele>
        <time>2017-12-05T10:25:01Z</time>
      </trkpt>
      <trkpt lat="45.96951" lon="4.85844">
        <ele>285</ele>
        <time>2017-12-05T10:25:02Z</time>
      </trkpt>
      <trkpt lat="45.9695" lon="4.85851">
        <ele>285</ele>
        <time>2017-12-05T10:25:03Z</time>
      </trkpt>
      <trkpt lat="45.96948" lon="4.85856">
        <ele>285</ele>
        <time>2017-12-05T10:25:04Z</time>
      </trkpt>
      <trkpt lat="45.96946" lon="4.85862">
        <ele>285</ele>
        <time>2017-12-05T10:25:05Z</time>
      </trkpt>
      <trkpt lat="45.96944" lon="4.85869">
        <ele>285</ele>
        <time>2017-12-05T10:25:06Z</time>
      </trkpt>
      <trkpt lat="45.96943" lon="4.8588">
        <ele>285</ele>
        <time>2017-12-05T10:25:08Z</time>
      </trkpt>
      <trkpt lat="45.96941" lon="4.85886">
        <ele>285</ele>
        <time>2017-12-05T10:25:09Z</time>
      </trkpt>
      <trkpt lat="45.9694" lon="4.85893">
        <ele>285</ele>
        <time>2017-12-05T10:25:10Z</time>
      </trkpt>
      <trkpt lat="45.96938" lon="4.85899">
        <ele>285</ele>
        <time>2017-12-05T10:25:11Z</time>
      </trkpt>
      <trkpt lat="45.96936" lon="4.85905">
        <ele>286</ele>
        <time>2017-12-05T10:25:12Z</time>
      </trkpt>
      <trkpt lat="45.96935" lon="4.85912">
        <ele>286</ele>
        <time>2017-12-05T10:25:13Z</time>
      </trkpt>
      <trkpt lat="45.96933" lon="4.85918">
        <ele>286</ele>
        <time>2017-12-05T10:25:14Z</time>
      </trkpt>
      <trkpt lat="45.96932" lon="4.85925">
        <ele>286</ele>
        <time>2017-12-05T10:25:15Z</time>
      </trkpt>
      <trkpt lat="45.96929" lon="4.85932">
        <ele>286</ele>
        <time>2017-12-05T10:25:16Z</time>
      </trkpt>
      <trkpt lat="45.96928" lon="4.85939">
        <ele>286</ele>
        <time>2017-12-05T10:25:17Z</time>
      </trkpt>
      <trkpt lat="45.96925" lon="4.85951">
        <ele>287</ele>
        <time>2017-12-05T10:25:19Z</time>
      </trkpt>
      <trkpt lat="45.96923" lon="4.85956">
        <ele>287</ele>
        <time>2017-12-05T10:25:20Z</time>
      </trkpt>
      <trkpt lat="45.96922" lon="4.85964">
        <ele>287</ele>
        <time>2017-12-05T10:25:21Z</time>
      </trkpt>
      <trkpt lat="45.9692" lon="4.85971">
        <ele>287</ele>
        <time>2017-12-05T10:25:22Z</time>
      </trkpt>
      <trkpt lat="45.96919" lon="4.85977">
        <ele>287</ele>
        <time>2017-12-05T10:25:23Z</time>
      </trkpt>
      <trkpt lat="45.96917" lon="4.85983">
        <ele>287</ele>
        <time>2017-12-05T10:25:24Z</time>
      </trkpt>
      <trkpt lat="45.96914" lon="4.85996">
        <ele>288</ele>
        <time>2017-12-05T10:25:26Z</time>
      </trkpt>
      <trkpt lat="45.96913" lon="4.86002">
        <ele>288</ele>
        <time>2017-12-05T10:25:27Z</time>
      </trkpt>
      <trkpt lat="45.96911" lon="4.86014">
        <ele>289</ele>
        <time>2017-12-05T10:25:29Z</time>
      </trkpt>
      <trkpt lat="45.96909" lon="4.86021">
        <ele>289</ele>
        <time>2017-12-05T10:25:30Z</time>
      </trkpt>
      <trkpt lat="45.96907" lon="4.86028">
        <ele>289</ele>
        <time>2017-12-05T10:25:31Z</time>
      </trkpt>
      <trkpt lat="45.96906" lon="4.86035">
        <ele>289</ele>
        <time>2017-12-05T10:25:32Z</time>
      </trkpt>
      <trkpt lat="45.96906" lon="4.86042">
        <ele>289</ele>
        <time>2017-12-05T10:25:33Z</time>
      </trkpt>
      <trkpt lat="45.96905" lon="4.86048">
        <ele>289</ele>
        <time>2017-12-05T10:25:34Z</time>
      </trkpt>
      <trkpt lat="45.96904" lon="4.8606">
        <ele>288</ele>
        <time>2017-12-05T10:25:36Z</time>
      </trkpt>
      <trkpt lat="45.96903" lon="4.86067">
        <ele>288</ele>
        <time>2017-12-05T10:25:37Z</time>
      </trkpt>
      <trkpt lat="45.96902" lon="4.86079">
        <ele>288</ele>
        <time>2017-12-05T10:25:39Z</time>
      </trkpt>
      <trkpt lat="45.96901" lon="4.86086">
        <ele>288</ele>
        <time>2017-12-05T10:25:40Z</time>
      </trkpt>
      <trkpt lat="45.969" lon="4.86093">
        <ele>288</ele>
        <time>2017-12-05T10:25:41Z</time>
      </trkpt>
      <trkpt lat="45.969" lon="4.86099">
        <ele>288</ele>
        <time>2017-12-05T10:25:42Z</time>
      </trkpt>
      <trkpt lat="45.96899" lon="4.86106">
        <ele>289</ele>
        <time>2017-12-05T10:25:43Z</time>
      </trkpt>
      <trkpt lat="45.96898" lon="4.86114">
        <ele>289</ele>
        <time>2017-12-05T10:25:44Z</time>
      </trkpt>
      <trkpt lat="45.96898" lon="4.86121">
        <ele>289</ele>
        <time>2017-12-05T10:25:45Z</time>
      </trkpt>
      <trkpt lat="45.96897" lon="4.86128">
        <ele>289</ele>
        <time>2017-12-05T10:25:46Z</time>
      </trkpt>
      <trkpt lat="45.96896" lon="4.86134">
        <ele>289</ele>
        <time>2017-12-05T10:25:47Z</time>
      </trkpt>
      <trkpt lat="45.96895" lon="4.86142">
        <ele>289</ele>
        <time>2017-12-05T10:25:48Z</time>
      </trkpt>
      <trkpt lat="45.96894" lon="4.8615">
        <ele>289</ele>
        <time>2017-12-05T10:25:49Z</time>
      </trkpt>
      <trkpt lat="45.96893" lon="4.86157">
        <ele>289</ele>
        <time>2017-12-05T10:25:50Z</time>
      </trkpt>
      <trkpt lat="45.96892" lon="4.86164">
        <ele>289</ele>
        <time>2017-12-05T10:25:51Z</time>
      </trkpt>
      <trkpt lat="45.96892" lon="4.86171">
        <ele>289</ele>
        <time>2017-12-05T10:25:52Z</time>
      </trkpt>
      <trkpt lat="45.96891" lon="4.8618">
        <ele>289</ele>
        <time>2017-12-05T10:25:53Z</time>
      </trkpt>
      <trkpt lat="45.9689" lon="4.86186">
        <ele>289</ele>
        <time>2017-12-05T10:25:54Z</time>
      </trkpt>
      <trkpt lat="45.96888" lon="4.86194">
        <ele>289</ele>
        <time>2017-12-05T10:25:55Z</time>
      </trkpt>
      <trkpt lat="45.96887" lon="4.86201">
        <ele>289</ele>
        <time>2017-12-05T10:25:56Z</time>
      </trkpt>
      <trkpt lat="45.96886" lon="4.86209">
        <ele>289</ele>
        <time>2017-12-05T10:25:57Z</time>
      </trkpt>
      <trkpt lat="45.96885" lon="4.86217">
        <ele>289</ele>
        <time>2017-12-05T10:25:58Z</time>
      </trkpt>
      <trkpt lat="45.96883" lon="4.86224">
        <ele>289</ele>
        <time>2017-12-05T10:25:59Z</time>
      </trkpt>
      <trkpt lat="45.96882" lon="4.86231">
        <ele>289</ele>
        <time>2017-12-05T10:26:00Z</time>
      </trkpt>
      <trkpt lat="45.96882" lon="4.8624">
        <ele>289</ele>
        <time>2017-12-05T10:26:01Z</time>
      </trkpt>
      <trkpt lat="45.96882" lon="4.86247">
        <ele>288</ele>
        <time>2017-12-05T10:26:02Z</time>
      </trkpt>
      <trkpt lat="45.96881" lon="4.86254">
        <ele>288</ele>
        <time>2017-12-05T10:26:03Z</time>
      </trkpt>
      <trkpt lat="45.9688" lon="4.86261">
        <ele>288</ele>
        <time>2017-12-05T10:26:04Z</time>
      </trkpt>
      <trkpt lat="45.96879" lon="4.86272">
        <ele>289</ele>
        <time>2017-12-05T10:26:06Z</time>
      </trkpt>
      <trkpt lat="45.96878" lon="4.86279">
        <ele>289</ele>
        <time>2017-12-05T10:26:07Z</time>
      </trkpt>
      <trkpt lat="45.96876" lon="4.86292">
        <ele>289</ele>
        <time>2017-12-05T10:26:09Z</time>
      </trkpt>
      <trkpt lat="45.96875" lon="4.86298">
        <ele>289</ele>
        <time>2017-12-05T10:26:10Z</time>
      </trkpt>
      <trkpt lat="45.96874" lon="4.86305">
        <ele>289</ele>
        <time>2017-12-05T10:26:11Z</time>
      </trkpt>
      <trkpt lat="45.96873" lon="4.86312">
        <ele>289</ele>
        <time>2017-12-05T10:26:12Z</time>
      </trkpt>
      <trkpt lat="45.96872" lon="4.86319">
        <ele>289</ele>
        <time>2017-12-05T10:26:13Z</time>
      </trkpt>
      <trkpt lat="45.9687" lon="4.86327">
        <ele>289</ele>
        <time>2017-12-05T10:26:14Z</time>
      </trkpt>
      <trkpt lat="45.9687" lon="4.86334">
        <ele>290</ele>
        <time>2017-12-05T10:26:15Z</time>
      </trkpt>
      <trkpt lat="45.9687" lon="4.86341">
        <ele>290</ele>
        <time>2017-12-05T10:26:16Z</time>
      </trkpt>
      <trkpt lat="45.96868" lon="4.86348">
        <ele>290</ele>
        <time>2017-12-05T10:26:17Z</time>
      </trkpt>
      <trkpt lat="45.96867" lon="4.86356">
        <ele>290</ele>
        <time>2017-12-05T10:26:18Z</time>
      </trkpt>
      <trkpt lat="45.96866" lon="4.86363">
        <ele>290</ele>
        <time>2017-12-05T10:26:19Z</time>
      </trkpt>
      <trkpt lat="45.96865" lon="4.8637">
        <ele>290</ele>
        <time>2017-12-05T10:26:20Z</time>
      </trkpt>
      <trkpt lat="45.96863" lon="4.86377">
        <ele>290</ele>
        <time>2017-12-05T10:26:21Z</time>
      </trkpt>
      <trkpt lat="45.96863" lon="4.86384">
        <ele>290</ele>
        <time>2017-12-05T10:26:22Z</time>
      </trkpt>
      <trkpt lat="45.96862" lon="4.86391">
        <ele>290</ele>
        <time>2017-12-05T10:26:23Z</time>
      </trkpt>
      <trkpt lat="45.96861" lon="4.86397">
        <ele>290</ele>
        <time>2017-12-05T10:26:24Z</time>
      </trkpt>
      <trkpt lat="45.9686" lon="4.86404">
        <ele>290</ele>
        <time>2017-12-05T10:26:25Z</time>
      </trkpt>
      <trkpt lat="45.9686" lon="4.8641">
        <ele>290</ele>
        <time>2017-12-05T10:26:26Z</time>
      </trkpt>
      <trkpt lat="45.96859" lon="4.86417">
        <ele>290</ele>
        <time>2017-12-05T10:26:27Z</time>
      </trkpt>
      <trkpt lat="45.96858" lon="4.86426">
        <ele>290</ele>
        <time>2017-12-05T10:26:28Z</time>
      </trkpt>
      <trkpt lat="45.96856" lon="4.86433">
        <ele>290</ele>
        <time>2017-12-05T10:26:29Z</time>
      </trkpt>
      <trkpt lat="45.96855" lon="4.8644">
        <ele>290</ele>
        <time>2017-12-05T10:26:30Z</time>
      </trkpt>
      <trkpt lat="45.96852" lon="4.86452">
        <ele>289</ele>
        <time>2017-12-05T10:26:32Z</time>
      </trkpt>
      <trkpt lat="45.9685" lon="4.86458">
        <ele>289</ele>
        <time>2017-12-05T10:26:33Z</time>
      </trkpt>
      <trkpt lat="45.96847" lon="4.86469">
        <ele>289</ele>
        <time>2017-12-05T10:26:35Z</time>
      </trkpt>
      <trkpt lat="45.96846" lon="4.86475">
        <ele>289</ele>
        <time>2017-12-05T10:26:36Z</time>
      </trkpt>
      <trkpt lat="45.96843" lon="4.86479">
        <ele>289</ele>
        <time>2017-12-05T10:26:37Z</time>
      </trkpt>
      <trkpt lat="45.9684" lon="4.86486">
        <ele>289</ele>
        <time>2017-12-05T10:26:38Z</time>
      </trkpt>
      <trkpt lat="45.96838" lon="4.86493">
        <ele>289</ele>
        <time>2017-12-05T10:26:39Z</time>
      </trkpt>
      <trkpt lat="45.96835" lon="4.86499">
        <ele>289</ele>
        <time>2017-12-05T10:26:40Z</time>
      </trkpt>
      <trkpt lat="45.96833" lon="4.86506">
        <ele>289</ele>
        <time>2017-12-05T10:26:41Z</time>
      </trkpt>
      <trkpt lat="45.96829" lon="4.86513">
        <ele>289</ele>
        <time>2017-12-05T10:26:42Z</time>
      </trkpt>
      <trkpt lat="45.96826" lon="4.86519">
        <ele>289</ele>
        <time>2017-12-05T10:26:43Z</time>
      </trkpt>
      <trkpt lat="45.96822" lon="4.86525">
        <ele>289</ele>
        <time>2017-12-05T10:26:44Z</time>
      </trkpt>
      <trkpt lat="45.96819" lon="4.86532">
        <ele>290</ele>
        <time>2017-12-05T10:26:45Z</time>
      </trkpt>
      <trkpt lat="45.96815" lon="4.86537">
        <ele>290</ele>
        <time>2017-12-05T10:26:46Z</time>
      </trkpt>
      <trkpt lat="45.96812" lon="4.86543">
        <ele>290</ele>
        <time>2017-12-05T10:26:47Z</time>
      </trkpt>
      <trkpt lat="45.96808" lon="4.8655">
        <ele>290</ele>
        <time>2017-12-05T10:26:48Z</time>
      </trkpt>
      <trkpt lat="45.96806" lon="4.86555">
        <ele>290</ele>
        <time>2017-12-05T10:26:49Z</time>
      </trkpt>
      <trkpt lat="45.96802" lon="4.8656">
        <ele>290</ele>
        <time>2017-12-05T10:26:50Z</time>
      </trkpt>
      <trkpt lat="45.96799" lon="4.86567">
        <ele>290</ele>
        <time>2017-12-05T10:26:51Z</time>
      </trkpt>
      <trkpt lat="45.96795" lon="4.86572">
        <ele>290</ele>
        <time>2017-12-05T10:26:52Z</time>
      </trkpt>
      <trkpt lat="45.96792" lon="4.86578">
        <ele>290</ele>
        <time>2017-12-05T10:26:53Z</time>
      </trkpt>
      <trkpt lat="45.96789" lon="4.86585">
        <ele>289</ele>
        <time>2017-12-05T10:26:54Z</time>
      </trkpt>
      <trkpt lat="45.96785" lon="4.86591">
        <ele>289</ele>
        <time>2017-12-05T10:26:55Z</time>
      </trkpt>
      <trkpt lat="45.96781" lon="4.86597">
        <ele>289</ele>
        <time>2017-12-05T10:26:56Z</time>
      </trkpt>
      <trkpt lat="45.96777" lon="4.86603">
        <ele>289</ele>
        <time>2017-12-05T10:26:57Z</time>
      </trkpt>
      <trkpt lat="45.96773" lon="4.86609">
        <ele>289</ele>
        <time>2017-12-05T10:26:58Z</time>
      </trkpt>
      <trkpt lat="45.96769" lon="4.86616">
        <ele>289</ele>
        <time>2017-12-05T10:26:59Z</time>
      </trkpt>
      <trkpt lat="45.96765" lon="4.86622">
        <ele>289</ele>
        <time>2017-12-05T10:27:00Z</time>
      </trkpt>
      <trkpt lat="45.96762" lon="4.86629">
        <ele>289</ele>
        <time>2017-12-05T10:27:01Z</time>
      </trkpt>
      <trkpt lat="45.96758" lon="4.86635">
        <ele>290</ele>
        <time>2017-12-05T10:27:02Z</time>
      </trkpt>
      <trkpt lat="45.96755" lon="4.86641">
        <ele>290</ele>
        <time>2017-12-05T10:27:03Z</time>
      </trkpt>
      <trkpt lat="45.96752" lon="4.86647">
        <ele>290</ele>
        <time>2017-12-05T10:27:04Z</time>
      </trkpt>
      <trkpt lat="45.96748" lon="4.86653">
        <ele>290</ele>
        <time>2017-12-05T10:27:05Z</time>
      </trkpt>
      <trkpt lat="45.96745" lon="4.86658">
        <ele>290</ele>
        <time>2017-12-05T10:27:06Z</time>
      </trkpt>
      <trkpt lat="45.96741" lon="4.86664">
        <ele>290</ele>
        <time>2017-12-05T10:27:07Z</time>
      </trkpt>
      <trkpt lat="45.96736" lon="4.8667">
        <ele>290</ele>
        <time>2017-12-05T10:27:08Z</time>
      </trkpt>
      <trkpt lat="45.96733" lon="4.86676">
        <ele>290</ele>
        <time>2017-12-05T10:27:09Z</time>
      </trkpt>
      <trkpt lat="45.96729" lon="4.86682">
        <ele>289</ele>
        <time>2017-12-05T10:27:10Z</time>
      </trkpt>
      <trkpt lat="45.96726" lon="4.86687">
        <ele>289</ele>
        <time>2017-12-05T10:27:11Z</time>
      </trkpt>
      <trkpt lat="45.96722" lon="4.86693">
        <ele>289</ele>
        <time>2017-12-05T10:27:12Z</time>
      </trkpt>
      <trkpt lat="45.96719" lon="4.86699">
        <ele>289</ele>
        <time>2017-12-05T10:27:13Z</time>
      </trkpt>
      <trkpt lat="45.96716" lon="4.86704">
        <ele>289</ele>
        <time>2017-12-05T10:27:14Z</time>
      </trkpt>
      <trkpt lat="45.96712" lon="4.8671">
        <ele>289</ele>
        <time>2017-12-05T10:27:15Z</time>
      </trkpt>
      <trkpt lat="45.96708" lon="4.86716">
        <ele>289</ele>
        <time>2017-12-05T10:27:16Z</time>
      </trkpt>
      <trkpt lat="45.96705" lon="4.86722">
        <ele>289</ele>
        <time>2017-12-05T10:27:17Z</time>
      </trkpt>
      <trkpt lat="45.96701" lon="4.86729">
        <ele>289</ele>
        <time>2017-12-05T10:27:18Z</time>
      </trkpt>
      <trkpt lat="45.96697" lon="4.86734">
        <ele>289</ele>
        <time>2017-12-05T10:27:19Z</time>
      </trkpt>
      <trkpt lat="45.96694" lon="4.8674">
        <ele>289</ele>
        <time>2017-12-05T10:27:20Z</time>
      </trkpt>
      <trkpt lat="45.9669" lon="4.86746">
        <ele>289</ele>
        <time>2017-12-05T10:27:21Z</time>
      </trkpt>
      <trkpt lat="45.96687" lon="4.86753">
        <ele>289</ele>
        <time>2017-12-05T10:27:22Z</time>
      </trkpt>
      <trkpt lat="45.96683" lon="4.8676">
        <ele>289</ele>
        <time>2017-12-05T10:27:23Z</time>
      </trkpt>
      <trkpt lat="45.96679" lon="4.86766">
        <ele>289</ele>
        <time>2017-12-05T10:27:24Z</time>
      </trkpt>
      <trkpt lat="45.96675" lon="4.86773">
        <ele>289</ele>
        <time>2017-12-05T10:27:25Z</time>
      </trkpt>
      <trkpt lat="45.96671" lon="4.86779">
        <ele>289</ele>
        <time>2017-12-05T10:27:26Z</time>
      </trkpt>
      <trkpt lat="45.96668" lon="4.86786">
        <ele>289</ele>
        <time>2017-12-05T10:27:27Z</time>
      </trkpt>
      <trkpt lat="45.96665" lon="4.86792">
        <ele>288</ele>
        <time>2017-12-05T10:27:28Z</time>
      </trkpt>
      <trkpt lat="45.96661" lon="4.86797">
        <ele>288</ele>
        <time>2017-12-05T10:27:29Z</time>
      </trkpt>
      <trkpt lat="45.96657" lon="4.86805">
        <ele>288</ele>
        <time>2017-12-05T10:27:30Z</time>
      </trkpt>
      <trkpt lat="45.96654" lon="4.86811">
        <ele>288</ele>
        <time>2017-12-05T10:27:31Z</time>
      </trkpt>
      <trkpt lat="45.9665" lon="4.86817">
        <ele>288</ele>
        <time>2017-12-05T10:27:32Z</time>
      </trkpt>
      <trkpt lat="45.96646" lon="4.86822">
        <ele>288</ele>
        <time>2017-12-05T10:27:33Z</time>
      </trkpt>
      <trkpt lat="45.96642" lon="4.86827">
        <ele>288</ele>
        <time>2017-12-05T10:27:34Z</time>
      </trkpt>
      <trkpt lat="45.96637" lon="4.86832">
        <ele>288</ele>
        <time>2017-12-05T10:27:35Z</time>
      </trkpt>
      <trkpt lat="45.96635" lon="4.86837">
        <ele>287</ele>
        <time>2017-12-05T10:27:36Z</time>
      </trkpt>
      <trkpt lat="45.9663" lon="4.86847">
        <ele>287</ele>
        <time>2017-12-05T10:27:38Z</time>
      </trkpt>
      <trkpt lat="45.96626" lon="4.86853">
        <ele>287</ele>
        <time>2017-12-05T10:27:39Z</time>
      </trkpt>
      <trkpt lat="45.96623" lon="4.86858">
        <ele>287</ele>
        <time>2017-12-05T10:27:40Z</time>
      </trkpt>
      <trkpt lat="45.9662" lon="4.86864">
        <ele>287</ele>
        <time>2017-12-05T10:27:41Z</time>
      </trkpt>
      <trkpt lat="45.96616" lon="4.86868">
        <ele>287</ele>
        <time>2017-12-05T10:27:42Z</time>
      </trkpt>
      <trkpt lat="45.96613" lon="4.86873">
        <ele>287</ele>
        <time>2017-12-05T10:27:43Z</time>
      </trkpt>
      <trkpt lat="45.9661" lon="4.86878">
        <ele>287</ele>
        <time>2017-12-05T10:27:44Z</time>
      </trkpt>
      <trkpt lat="45.96606" lon="4.86885">
        <ele>287</ele>
        <time>2017-12-05T10:27:45Z</time>
      </trkpt>
      <trkpt lat="45.96602" lon="4.86892">
        <ele>286</ele>
        <time>2017-12-05T10:27:46Z</time>
      </trkpt>
      <trkpt lat="45.96599" lon="4.86896">
        <ele>286</ele>
        <time>2017-12-05T10:27:47Z</time>
      </trkpt>
      <trkpt lat="45.96596" lon="4.86902">
        <ele>286</ele>
        <time>2017-12-05T10:27:48Z</time>
      </trkpt>
      <trkpt lat="45.96591" lon="4.86907">
        <ele>286</ele>
        <time>2017-12-05T10:27:49Z</time>
      </trkpt>
      <trkpt lat="45.96587" lon="4.86913">
        <ele>285</ele>
        <time>2017-12-05T10:27:50Z</time>
      </trkpt>
      <trkpt lat="45.96584" lon="4.86919">
        <ele>285</ele>
        <time>2017-12-05T10:27:51Z</time>
      </trkpt>
      <trkpt lat="45.9658" lon="4.86927">
        <ele>284</ele>
        <time>2017-12-05T10:27:52Z</time>
      </trkpt>
      <trkpt lat="45.96576" lon="4.86933">
        <ele>284</ele>
        <time>2017-12-05T10:27:53Z</time>
      </trkpt>
      <trkpt lat="45.96572" lon="4.86941">
        <ele>284</ele>
        <time>2017-12-05T10:27:54Z</time>
      </trkpt>
      <trkpt lat="45.96569" lon="4.86947">
        <ele>284</ele>
        <time>2017-12-05T10:27:55Z</time>
      </trkpt>
      <trkpt lat="45.96565" lon="4.86955">
        <ele>284</ele>
        <time>2017-12-05T10:27:56Z</time>
      </trkpt>
      <trkpt lat="45.96561" lon="4.86961">
        <ele>283</ele>
        <time>2017-12-05T10:27:57Z</time>
      </trkpt>
      <trkpt lat="45.96556" lon="4.86967">
        <ele>283</ele>
        <time>2017-12-05T10:27:58Z</time>
      </trkpt>
      <trkpt lat="45.96552" lon="4.86972">
        <ele>283</ele>
        <time>2017-12-05T10:27:59Z</time>
      </trkpt>
      <trkpt lat="45.96547" lon="4.86979">
        <ele>283</ele>
        <time>2017-12-05T10:28:01Z</time>
      </trkpt>
      <trkpt lat="45.96545" lon="4.86984">
        <ele>283</ele>
        <time>2017-12-05T10:28:02Z</time>
      </trkpt>
      <trkpt lat="45.96541" lon="4.86992">
        <ele>283</ele>
        <time>2017-12-05T10:28:04Z</time>
      </trkpt>
      <trkpt lat="45.9654" lon="4.86996">
        <ele>283</ele>
        <time>2017-12-05T10:28:05Z</time>
      </trkpt>
      <trkpt lat="45.9654" lon="4.87009">
        <ele>283</ele>
        <time>2017-12-05T10:28:08Z</time>
      </trkpt>
      <trkpt lat="45.9654" lon="4.87013">
        <ele>283</ele>
        <time>2017-12-05T10:28:09Z</time>
      </trkpt>
      <trkpt lat="45.96545" lon="4.87023">
        <ele>283</ele>
        <time>2017-12-05T10:28:13Z</time>
      </trkpt>
      <trkpt lat="45.96546" lon="4.87024">
        <ele>283</ele>
        <time>2017-12-05T10:28:14Z</time>
      </trkpt>
      <trkpt lat="45.96554" lon="4.87027">
        <ele>283</ele>
        <time>2017-12-05T10:38:35Z</time>
      </trkpt>
      <trkpt lat="45.96555" lon="4.87029">
        <ele>283</ele>
        <time>2017-12-05T10:38:36Z</time>
      </trkpt>
      <trkpt lat="45.96559" lon="4.87039">
        <ele>283</ele>
        <time>2017-12-05T10:38:41Z</time>
      </trkpt>
      <trkpt lat="45.9656" lon="4.87042">
        <ele>283</ele>
        <time>2017-12-05T10:38:42Z</time>
      </trkpt>
      <trkpt lat="45.9656" lon="4.87051">
        <ele>283</ele>
        <time>2017-12-05T10:38:45Z</time>
      </trkpt>
      <trkpt lat="45.9656" lon="4.87055">
        <ele>283</ele>
        <time>2017-12-05T10:38:46Z</time>
      </trkpt>
      <trkpt lat="45.9656" lon="4.87065">
        <ele>283</ele>
        <time>2017-12-05T10:38:49Z</time>
      </trkpt>
      <trkpt lat="45.96559" lon="4.87068">
        <ele>283</ele>
        <time>2017-12-05T10:38:50Z</time>
      </trkpt>
      <trkpt lat="45.96551" lon="4.87073">
        <ele>283</ele>
        <time>2017-12-05T10:38:54Z</time>
      </trkpt>
      <trkpt lat="45.96549" lon="4.87073">
        <ele>283</ele>
        <time>2017-12-05T10:38:55Z</time>
      </trkpt>
      <trkpt lat="45.96541" lon="4.87067">
        <ele>283</ele>
        <time>2017-12-05T10:39:00Z</time>
      </trkpt>
      <trkpt lat="45.9654" lon="4.87064">
        <ele>283</ele>
        <time>2017-12-05T10:39:01Z</time>
      </trkpt>
      <trkpt lat="45.96535" lon="4.87055">
        <ele>283</ele>
        <time>2017-12-05T10:39:04Z</time>
      </trkpt>
      <trkpt lat="45.96533" lon="4.87053">
        <ele>283</ele>
        <time>2017-12-05T10:39:05Z</time>
      </trkpt>
      <trkpt lat="45.96527" lon="4.87045">
        <ele>283</ele>
        <time>2017-12-05T10:39:08Z</time>
      </trkpt>
      <trkpt lat="45.96525" lon="4.87042">
        <ele>283</ele>
        <time>2017-12-05T10:39:09Z</time>
      </trkpt>
      <trkpt lat="45.96521" lon="4.87034">
        <ele>283</ele>
        <time>2017-12-05T10:39:13Z</time>
      </trkpt>
      <trkpt lat="45.96519" lon="4.87032">
        <ele>283</ele>
        <time>2017-12-05T10:39:14Z</time>
      </trkpt>
      <trkpt lat="45.96512" lon="4.87033">
        <ele>282</ele>
        <time>2017-12-05T10:39:16Z</time>
      </trkpt>
      <trkpt lat="45.96509" lon="4.87036">
        <ele>282</ele>
        <time>2017-12-05T10:39:17Z</time>
      </trkpt>
      <trkpt lat="45.96504" lon="4.87044">
        <ele>282</ele>
        <time>2017-12-05T10:39:18Z</time>
      </trkpt>
      <trkpt lat="45.965" lon="4.8705">
        <ele>281</ele>
        <time>2017-12-05T10:39:19Z</time>
      </trkpt>
      <trkpt lat="45.96495" lon="4.87056">
        <ele>281</ele>
        <time>2017-12-05T10:39:20Z</time>
      </trkpt>
      <trkpt lat="45.96492" lon="4.87062">
        <ele>282</ele>
        <time>2017-12-05T10:39:21Z</time>
      </trkpt>
      <trkpt lat="45.96487" lon="4.87065">
        <ele>282</ele>
        <time>2017-12-05T10:39:22Z</time>
      </trkpt>
      <trkpt lat="45.96483" lon="4.87071">
        <ele>282</ele>
        <time>2017-12-05T10:39:23Z</time>
      </trkpt>
      <trkpt lat="45.96479" lon="4.87076">
        <ele>282</ele>
        <time>2017-12-05T10:39:24Z</time>
      </trkpt>
      <trkpt lat="45.96475" lon="4.87081">
        <ele>282</ele>
        <time>2017-12-05T10:39:25Z</time>
      </trkpt>
      <trkpt lat="45.96472" lon="4.87088">
        <ele>282</ele>
        <time>2017-12-05T10:39:26Z</time>
      </trkpt>
      <trkpt lat="45.96467" lon="4.87093">
        <ele>282</ele>
        <time>2017-12-05T10:39:27Z</time>
      </trkpt>
      <trkpt lat="45.96463" lon="4.87098">
        <ele>282</ele>
        <time>2017-12-05T10:39:28Z</time>
      </trkpt>
      <trkpt lat="45.96459" lon="4.87103">
        <ele>282</ele>
        <time>2017-12-05T10:39:29Z</time>
      </trkpt>
      <trkpt lat="45.96456" lon="4.87107">
        <ele>281</ele>
        <time>2017-12-05T10:39:30Z</time>
      </trkpt>
      <trkpt lat="45.96452" lon="4.87112">
        <ele>281</ele>
        <time>2017-12-05T10:39:31Z</time>
      </trkpt>
      <trkpt lat="45.96444" lon="4.87119">
        <ele>281</ele>
        <time>2017-12-05T10:39:33Z</time>
      </trkpt>
      <trkpt lat="45.9644" lon="4.87123">
        <ele>281</ele>
        <time>2017-12-05T10:39:34Z</time>
      </trkpt>
      <trkpt lat="45.96437" lon="4.87127">
        <ele>281</ele>
        <time>2017-12-05T10:39:35Z</time>
      </trkpt>
      <trkpt lat="45.96434" lon="4.87132">
        <ele>281</ele>
        <time>2017-12-05T10:39:36Z</time>
      </trkpt>
      <trkpt lat="45.9643" lon="4.87138">
        <ele>281</ele>
        <time>2017-12-05T10:39:37Z</time>
      </trkpt>
      <trkpt lat="45.96426" lon="4.87143">
        <ele>281</ele>
        <time>2017-12-05T10:39:38Z</time>
      </trkpt>
      <trkpt lat="45.96421" lon="4.87148">
        <ele>281</ele>
        <time>2017-12-05T10:39:39Z</time>
      </trkpt>
      <trkpt lat="45.96418" lon="4.87154">
        <ele>281</ele>
        <time>2017-12-05T10:39:40Z</time>
      </trkpt>
      <trkpt lat="45.96414" lon="4.87159">
        <ele>281</ele>
        <time>2017-12-05T10:39:41Z</time>
      </trkpt>
      <trkpt lat="45.96408" lon="4.87166">
        <ele>281</ele>
        <time>2017-12-05T10:39:42Z</time>
      </trkpt>
      <trkpt lat="45.96404" lon="4.87171">
        <ele>281</ele>
        <time>2017-12-05T10:39:43Z</time>
      </trkpt>
      <trkpt lat="45.964" lon="4.87177">
        <ele>282</ele>
        <time>2017-12-05T10:39:44Z</time>
      </trkpt>
      <trkpt lat="45.96396" lon="4.87183">
        <ele>282</ele>
        <time>2017-12-05T10:39:45Z</time>
      </trkpt>
      <trkpt lat="45.96391" lon="4.87188">
        <ele>282</ele>
        <time>2017-12-05T10:39:46Z</time>
      </trkpt>
      <trkpt lat="45.96387" lon="4.87195">
        <ele>282</ele>
        <time>2017-12-05T10:39:47Z</time>
      </trkpt>
      <trkpt lat="45.96383" lon="4.872">
        <ele>282</ele>
        <time>2017-12-05T10:39:48Z</time>
      </trkpt>
      <trkpt lat="45.96379" lon="4.87207">
        <ele>282</ele>
        <time>2017-12-05T10:39:49Z</time>
      </trkpt>
      <trkpt lat="45.96374" lon="4.87212">
        <ele>282</ele>
        <time>2017-12-05T10:39:50Z</time>
      </trkpt>
      <trkpt lat="45.9637" lon="4.87218">
        <ele>282</ele>
        <time>2017-12-05T10:39:51Z</time>
      </trkpt>
      <trkpt lat="45.96366" lon="4.87224">
        <ele>282</ele>
        <time>2017-12-05T10:39:52Z</time>
      </trkpt>
      <trkpt lat="45.96361" lon="4.87231">
        <ele>282</ele>
        <time>2017-12-05T10:39:53Z</time>
      </trkpt>
      <trkpt lat="45.96356" lon="4.87236">
        <ele>282</ele>
        <time>2017-12-05T10:39:54Z</time>
      </trkpt>
      <trkpt lat="45.96351" lon="4.87243">
        <ele>282</ele>
        <time>2017-12-05T10:39:55Z</time>
      </trkpt>
      <trkpt lat="45.96346" lon="4.87248">
        <ele>283</ele>
        <time>2017-12-05T10:39:56Z</time>
      </trkpt>
      <trkpt lat="45.96342" lon="4.87254">
        <ele>283</ele>
        <time>2017-12-05T10:39:57Z</time>
      </trkpt>
      <trkpt lat="45.96337" lon="4.87261">
        <ele>283</ele>
        <time>2017-12-05T10:39:58Z</time>
      </trkpt>
      <trkpt lat="45.96333" lon="4.87268">
        <ele>283</ele>
        <time>2017-12-05T10:39:59Z</time>
      </trkpt>
      <trkpt lat="45.96328" lon="4.87274">
        <ele>283</ele>
        <time>2017-12-05T10:40:00Z</time>
      </trkpt>
      <trkpt lat="45.96324" lon="4.8728">
        <ele>283</ele>
        <time>2017-12-05T10:40:01Z</time>
      </trkpt>
      <trkpt lat="45.9632" lon="4.87286">
        <ele>283</ele>
        <time>2017-12-05T10:40:02Z</time>
      </trkpt>
      <trkpt lat="45.96315" lon="4.87292">
        <ele>283</ele>
        <time>2017-12-05T10:40:03Z</time>
      </trkpt>
      <trkpt lat="45.9631" lon="4.87298">
        <ele>283</ele>
        <time>2017-12-05T10:40:04Z</time>
      </trkpt>
      <trkpt lat="45.96305" lon="4.87304">
        <ele>283</ele>
        <time>2017-12-05T10:40:05Z</time>
      </trkpt>
      <trkpt lat="45.96301" lon="4.87309">
        <ele>283</ele>
        <time>2017-12-05T10:40:06Z</time>
      </trkpt>
      <trkpt lat="45.96296" lon="4.87314">
        <ele>283</ele>
        <time>2017-12-05T10:40:07Z</time>
      </trkpt>
      <trkpt lat="45.96291" lon="4.8732">
        <ele>283</ele>
        <time>2017-12-05T10:40:08Z</time>
      </trkpt>
      <trkpt lat="45.96287" lon="4.87326">
        <ele>283</ele>
        <time>2017-12-05T10:40:09Z</time>
      </trkpt>
      <trkpt lat="45.96283" lon="4.87332">
        <ele>283</ele>
        <time>2017-12-05T10:40:10Z</time>
      </trkpt>
      <trkpt lat="45.96279" lon="4.87337">
        <ele>284</ele>
        <time>2017-12-05T10:40:11Z</time>
      </trkpt>
      <trkpt lat="45.96275" lon="4.87342">
        <ele>283</ele>
        <time>2017-12-05T10:40:12Z</time>
      </trkpt>
      <trkpt lat="45.96271" lon="4.87346">
        <ele>283</ele>
        <time>2017-12-05T10:40:13Z</time>
      </trkpt>
      <trkpt lat="45.96267" lon="4.87351">
        <ele>283</ele>
        <time>2017-12-05T10:40:14Z</time>
      </trkpt>
      <trkpt lat="45.96262" lon="4.87356">
        <ele>283</ele>
        <time>2017-12-05T10:40:15Z</time>
      </trkpt>
      <trkpt lat="45.96259" lon="4.87362">
        <ele>283</ele>
        <time>2017-12-05T10:40:16Z</time>
      </trkpt>
      <trkpt lat="45.96255" lon="4.87368">
        <ele>283</ele>
        <time>2017-12-05T10:40:17Z</time>
      </trkpt>
      <trkpt lat="45.96251" lon="4.87372">
        <ele>283</ele>
        <time>2017-12-05T10:40:18Z</time>
      </trkpt>
      <trkpt lat="45.96246" lon="4.87376">
        <ele>283</ele>
        <time>2017-12-05T10:40:19Z</time>
      </trkpt>
      <trkpt lat="45.96242" lon="4.87382">
        <ele>283</ele>
        <time>2017-12-05T10:40:20Z</time>
      </trkpt>
      <trkpt lat="45.96237" lon="4.87388">
        <ele>283</ele>
        <time>2017-12-05T10:40:21Z</time>
      </trkpt>
      <trkpt lat="45.96234" lon="4.87393">
        <ele>283</ele>
        <time>2017-12-05T10:40:22Z</time>
      </trkpt>
      <trkpt lat="45.9623" lon="4.87397">
        <ele>283</ele>
        <time>2017-12-05T10:40:23Z</time>
      </trkpt>
      <trkpt lat="45.96226" lon="4.87401">
        <ele>283</ele>
        <time>2017-12-05T10:40:24Z</time>
      </trkpt>
      <trkpt lat="45.96223" lon="4.87405">
        <ele>283</ele>
        <time>2017-12-05T10:40:25Z</time>
      </trkpt>
      <trkpt lat="45.96219" lon="4.8741">
        <ele>283</ele>
        <time>2017-12-05T10:40:26Z</time>
      </trkpt>
      <trkpt lat="45.96215" lon="4.87416">
        <ele>283</ele>
        <time>2017-12-05T10:40:27Z</time>
      </trkpt>
      <trkpt lat="45.96211" lon="4.87421">
        <ele>284</ele>
        <time>2017-12-05T10:40:28Z</time>
      </trkpt>
      <trkpt lat="45.96206" lon="4.87426">
        <ele>284</ele>
        <time>2017-12-05T10:40:29Z</time>
      </trkpt>
      <trkpt lat="45.96201" lon="4.8743">
        <ele>284</ele>
        <time>2017-12-05T10:40:30Z</time>
      </trkpt>
      <trkpt lat="45.96197" lon="4.87435">
        <ele>284</ele>
        <time>2017-12-05T10:40:31Z</time>
      </trkpt>
      <trkpt lat="45.96193" lon="4.8744">
        <ele>284</ele>
        <time>2017-12-05T10:40:32Z</time>
      </trkpt>
      <trkpt lat="45.96188" lon="4.87444">
        <ele>284</ele>
        <time>2017-12-05T10:40:33Z</time>
      </trkpt>
      <trkpt lat="45.96184" lon="4.8745">
        <ele>284</ele>
        <time>2017-12-05T10:40:34Z</time>
      </trkpt>
      <trkpt lat="45.96181" lon="4.87455">
        <ele>284</ele>
        <time>2017-12-05T10:40:35Z</time>
      </trkpt>
      <trkpt lat="45.96177" lon="4.87461">
        <ele>284</ele>
        <time>2017-12-05T10:40:36Z</time>
      </trkpt>
      <trkpt lat="45.96172" lon="4.87466">
        <ele>284</ele>
        <time>2017-12-05T10:40:37Z</time>
      </trkpt>
      <trkpt lat="45.96168" lon="4.87471">
        <ele>284</ele>
        <time>2017-12-05T10:40:38Z</time>
      </trkpt>
      <trkpt lat="45.96163" lon="4.87476">
        <ele>285</ele>
        <time>2017-12-05T10:40:39Z</time>
      </trkpt>
      <trkpt lat="45.96159" lon="4.87481">
        <ele>285</ele>
        <time>2017-12-05T10:40:40Z</time>
      </trkpt>
      <trkpt lat="45.96154" lon="4.87484">
        <ele>285</ele>
        <time>2017-12-05T10:40:41Z</time>
      </trkpt>
      <trkpt lat="45.9615" lon="4.87489">
        <ele>285</ele>
        <time>2017-12-05T10:40:42Z</time>
      </trkpt>
      <trkpt lat="45.96146" lon="4.87494">
        <ele>285</ele>
        <time>2017-12-05T10:40:43Z</time>
      </trkpt>
      <trkpt lat="45.96141" lon="4.87499">
        <ele>285</ele>
        <time>2017-12-05T10:40:44Z</time>
      </trkpt>
      <trkpt lat="45.96137" lon="4.87503">
        <ele>286</ele>
        <time>2017-12-05T10:40:45Z</time>
      </trkpt>
      <trkpt lat="45.96132" lon="4.87507">
        <ele>286</ele>
        <time>2017-12-05T10:40:46Z</time>
      </trkpt>
      <trkpt lat="45.96129" lon="4.87513">
        <ele>286</ele>
        <time>2017-12-05T10:40:47Z</time>
      </trkpt>
      <trkpt lat="45.96124" lon="4.87518">
        <ele>286</ele>
        <time>2017-12-05T10:40:48Z</time>
      </trkpt>
      <trkpt lat="45.9612" lon="4.87522">
        <ele>286</ele>
        <time>2017-12-05T10:40:49Z</time>
      </trkpt>
      <trkpt lat="45.96115" lon="4.87527">
        <ele>287</ele>
        <time>2017-12-05T10:40:50Z</time>
      </trkpt>
      <trkpt lat="45.96112" lon="4.87531">
        <ele>287</ele>
        <time>2017-12-05T10:40:51Z</time>
      </trkpt>
      <trkpt lat="45.96107" lon="4.87537">
        <ele>287</ele>
        <time>2017-12-05T10:40:52Z</time>
      </trkpt>
      <trkpt lat="45.96102" lon="4.87542">
        <ele>287</ele>
        <time>2017-12-05T10:40:53Z</time>
      </trkpt>
      <trkpt lat="45.96098" lon="4.87545">
        <ele>287</ele>
        <time>2017-12-05T10:40:54Z</time>
      </trkpt>
      <trkpt lat="45.96095" lon="4.87549">
        <ele>287</ele>
        <time>2017-12-05T10:40:55Z</time>
      </trkpt>
      <trkpt lat="45.9609" lon="4.87553">
        <ele>287</ele>
        <time>2017-12-05T10:40:56Z</time>
      </trkpt>
      <trkpt lat="45.96086" lon="4.87559">
        <ele>287</ele>
        <time>2017-12-05T10:40:57Z</time>
      </trkpt>
      <trkpt lat="45.96082" lon="4.87565">
        <ele>288</ele>
        <time>2017-12-05T10:40:58Z</time>
      </trkpt>
      <trkpt lat="45.96078" lon="4.8757">
        <ele>288</ele>
        <time>2017-12-05T10:40:59Z</time>
      </trkpt>
      <trkpt lat="45.96074" lon="4.87573">
        <ele>288</ele>
        <time>2017-12-05T10:41:00Z</time>
      </trkpt>
      <trkpt lat="45.9607" lon="4.87577">
        <ele>288</ele>
        <time>2017-12-05T10:41:01Z</time>
      </trkpt>
      <trkpt lat="45.96066" lon="4.87583">
        <ele>288</ele>
        <time>2017-12-05T10:41:02Z</time>
      </trkpt>
      <trkpt lat="45.9606" lon="4.87588">
        <ele>288</ele>
        <time>2017-12-05T10:41:03Z</time>
      </trkpt>
      <trkpt lat="45.96057" lon="4.87592">
        <ele>288</ele>
        <time>2017-12-05T10:41:04Z</time>
      </trkpt>
      <trkpt lat="45.96054" lon="4.87596">
        <ele>288</ele>
        <time>2017-12-05T10:41:05Z</time>
      </trkpt>
      <trkpt lat="45.9605" lon="4.876">
        <ele>289</ele>
        <time>2017-12-05T10:41:06Z</time>
      </trkpt>
      <trkpt lat="45.96044" lon="4.87609">
        <ele>289</ele>
        <time>2017-12-05T10:41:08Z</time>
      </trkpt>
      <trkpt lat="45.9604" lon="4.87613">
        <ele>289</ele>
        <time>2017-12-05T10:41:09Z</time>
      </trkpt>
      <trkpt lat="45.96036" lon="4.87618">
        <ele>289</ele>
        <time>2017-12-05T10:41:10Z</time>
      </trkpt>
      <trkpt lat="45.96032" lon="4.87624">
        <ele>289</ele>
        <time>2017-12-05T10:41:11Z</time>
      </trkpt>
      <trkpt lat="45.96025" lon="4.87631">
        <ele>289</ele>
        <time>2017-12-05T10:41:13Z</time>
      </trkpt>
      <trkpt lat="45.96021" lon="4.87635">
        <ele>289</ele>
        <time>2017-12-05T10:41:14Z</time>
      </trkpt>
      <trkpt lat="45.96018" lon="4.87639">
        <ele>289</ele>
        <time>2017-12-05T10:41:15Z</time>
      </trkpt>
      <trkpt lat="45.96014" lon="4.87642">
        <ele>289</ele>
        <time>2017-12-05T10:41:16Z</time>
      </trkpt>
      <trkpt lat="45.9601" lon="4.87645">
        <ele>289</ele>
        <time>2017-12-05T10:41:17Z</time>
      </trkpt>
      <trkpt lat="45.96006" lon="4.8765">
        <ele>289</ele>
        <time>2017-12-05T10:41:18Z</time>
      </trkpt>
      <trkpt lat="45.96002" lon="4.87655">
        <ele>290</ele>
        <time>2017-12-05T10:41:19Z</time>
      </trkpt>
      <trkpt lat="45.95998" lon="4.87659">
        <ele>290</ele>
        <time>2017-12-05T10:41:20Z</time>
      </trkpt>
      <trkpt lat="45.95994" lon="4.87663">
        <ele>290</ele>
        <time>2017-12-05T10:41:21Z</time>
      </trkpt>
      <trkpt lat="45.95991" lon="4.87668">
        <ele>290</ele>
        <time>2017-12-05T10:41:22Z</time>
      </trkpt>
      <trkpt lat="45.95988" lon="4.87672">
        <ele>289</ele>
        <time>2017-12-05T10:41:23Z</time>
      </trkpt>
      <trkpt lat="45.95981" lon="4.87677">
        <ele>289</ele>
        <time>2017-12-05T10:41:24Z</time>
      </trkpt>
      <trkpt lat="45.95977" lon="4.87682">
        <ele>289</ele>
        <time>2017-12-05T10:41:25Z</time>
      </trkpt>
      <trkpt lat="45.95972" lon="4.87687">
        <ele>289</ele>
        <time>2017-12-05T10:41:26Z</time>
      </trkpt>
      <trkpt lat="45.95966" lon="4.87696">
        <ele>289</ele>
        <time>2017-12-05T10:41:28Z</time>
      </trkpt>
      <trkpt lat="45.95962" lon="4.877">
        <ele>289</ele>
        <time>2017-12-05T10:41:29Z</time>
      </trkpt>
      <trkpt lat="45.95959" lon="4.87703">
        <ele>289</ele>
        <time>2017-12-05T10:41:30Z</time>
      </trkpt>
      <trkpt lat="45.95955" lon="4.87708">
        <ele>289</ele>
        <time>2017-12-05T10:41:31Z</time>
      </trkpt>
      <trkpt lat="45.95953" lon="4.87714">
        <ele>289</ele>
        <time>2017-12-05T10:41:32Z</time>
      </trkpt>
      <trkpt lat="45.95949" lon="4.87719">
        <ele>289</ele>
        <time>2017-12-05T10:41:33Z</time>
      </trkpt>
      <trkpt lat="45.95946" lon="4.87724">
        <ele>289</ele>
        <time>2017-12-05T10:41:34Z</time>
      </trkpt>
      <trkpt lat="45.95942" lon="4.8773">
        <ele>289</ele>
        <time>2017-12-05T10:41:35Z</time>
      </trkpt>
      <trkpt lat="45.95939" lon="4.87735">
        <ele>288</ele>
        <time>2017-12-05T10:41:36Z</time>
      </trkpt>
      <trkpt lat="45.95935" lon="4.87741">
        <ele>288</ele>
        <time>2017-12-05T10:41:37Z</time>
      </trkpt>
      <trkpt lat="45.95932" lon="4.87745">
        <ele>288</ele>
        <time>2017-12-05T10:41:38Z</time>
      </trkpt>
      <trkpt lat="45.95928" lon="4.8775">
        <ele>288</ele>
        <time>2017-12-05T10:41:39Z</time>
      </trkpt>
      <trkpt lat="45.95925" lon="4.87755">
        <ele>288</ele>
        <time>2017-12-05T10:41:40Z</time>
      </trkpt>
      <trkpt lat="45.95922" lon="4.8776">
        <ele>288</ele>
        <time>2017-12-05T10:41:41Z</time>
      </trkpt>
      <trkpt lat="45.95918" lon="4.87764">
        <ele>288</ele>
        <time>2017-12-05T10:41:42Z</time>
      </trkpt>
      <trkpt lat="45.95915" lon="4.87769">
        <ele>288</ele>
        <time>2017-12-05T10:41:43Z</time>
      </trkpt>
      <trkpt lat="45.95911" lon="4.87774">
        <ele>288</ele>
        <time>2017-12-05T10:41:44Z</time>
      </trkpt>
      <trkpt lat="45.95908" lon="4.8778">
        <ele>288</ele>
        <time>2017-12-05T10:41:45Z</time>
      </trkpt>
      <trkpt lat="45.95904" lon="4.87787">
        <ele>288</ele>
        <time>2017-12-05T10:41:46Z</time>
      </trkpt>
      <trkpt lat="45.95901" lon="4.87792">
        <ele>288</ele>
        <time>2017-12-05T10:41:47Z</time>
      </trkpt>
      <trkpt lat="45.95896" lon="4.87801">
        <ele>288</ele>
        <time>2017-12-05T10:41:48Z</time>
      </trkpt>
      <trkpt lat="45.95892" lon="4.87807">
        <ele>288</ele>
        <time>2017-12-05T10:41:49Z</time>
      </trkpt>
      <trkpt lat="45.95888" lon="4.87812">
        <ele>288</ele>
        <time>2017-12-05T10:41:50Z</time>
      </trkpt>
      <trkpt lat="45.95884" lon="4.87818">
        <ele>288</ele>
        <time>2017-12-05T10:41:51Z</time>
      </trkpt>
      <trkpt lat="45.9588" lon="4.87823">
        <ele>288</ele>
        <time>2017-12-05T10:41:52Z</time>
      </trkpt>
      <trkpt lat="45.95876" lon="4.87827">
        <ele>288</ele>
        <time>2017-12-05T10:41:53Z</time>
      </trkpt>
      <trkpt lat="45.95871" lon="4.8783">
        <ele>288</ele>
        <time>2017-12-05T10:41:54Z</time>
      </trkpt>
      <trkpt lat="45.95867" lon="4.87833">
        <ele>288</ele>
        <time>2017-12-05T10:41:55Z</time>
      </trkpt>
      <trkpt lat="45.95859" lon="4.87838">
        <ele>289</ele>
        <time>2017-12-05T10:41:57Z</time>
      </trkpt>
      <trkpt lat="45.95855" lon="4.87839">
        <ele>289</ele>
        <time>2017-12-05T10:41:58Z</time>
      </trkpt>
      <trkpt lat="45.95847" lon="4.87841">
        <ele>288</ele>
        <time>2017-12-05T10:42:00Z</time>
      </trkpt>
      <trkpt lat="45.95842" lon="4.8784">
        <ele>288</ele>
        <time>2017-12-05T10:42:01Z</time>
      </trkpt>
      <trkpt lat="45.95837" lon="4.8784">
        <ele>288</ele>
        <time>2017-12-05T10:42:02Z</time>
      </trkpt>
      <trkpt lat="45.95833" lon="4.87842">
        <ele>288</ele>
        <time>2017-12-05T10:42:03Z</time>
      </trkpt>
      <trkpt lat="45.95828" lon="4.87845">
        <ele>287</ele>
        <time>2017-12-05T10:42:04Z</time>
      </trkpt>
      <trkpt lat="45.95824" lon="4.8785">
        <ele>287</ele>
        <time>2017-12-05T10:42:05Z</time>
      </trkpt>
      <trkpt lat="45.95819" lon="4.87855">
        <ele>287</ele>
        <time>2017-12-05T10:42:06Z</time>
      </trkpt>
      <trkpt lat="45.95815" lon="4.87859">
        <ele>287</ele>
        <time>2017-12-05T10:42:07Z</time>
      </trkpt>
      <trkpt lat="45.9581" lon="4.87865">
        <ele>287</ele>
        <time>2017-12-05T10:42:08Z</time>
      </trkpt>
      <trkpt lat="45.95806" lon="4.8787">
        <ele>287</ele>
        <time>2017-12-05T10:42:09Z</time>
      </trkpt>
      <trkpt lat="45.958" lon="4.87876">
        <ele>286</ele>
        <time>2017-12-05T10:42:10Z</time>
      </trkpt>
      <trkpt lat="45.95796" lon="4.87881">
        <ele>286</ele>
        <time>2017-12-05T10:42:11Z</time>
      </trkpt>
      <trkpt lat="45.9579" lon="4.87885">
        <ele>286</ele>
        <time>2017-12-05T10:42:12Z</time>
      </trkpt>
      <trkpt lat="45.95786" lon="4.87888">
        <ele>286</ele>
        <time>2017-12-05T10:42:13Z</time>
      </trkpt>
      <trkpt lat="45.95781" lon="4.87892">
        <ele>286</ele>
        <time>2017-12-05T10:42:14Z</time>
      </trkpt>
      <trkpt lat="45.95775" lon="4.87895">
        <ele>286</ele>
        <time>2017-12-05T10:42:15Z</time>
      </trkpt>
      <trkpt lat="45.9577" lon="4.87899">
        <ele>286</ele>
        <time>2017-12-05T10:42:16Z</time>
      </trkpt>
      <trkpt lat="45.95764" lon="4.87902">
        <ele>286</ele>
        <time>2017-12-05T10:42:17Z</time>
      </trkpt>
      <trkpt lat="45.95758" lon="4.87906">
        <ele>285</ele>
        <time>2017-12-05T10:42:18Z</time>
      </trkpt>
      <trkpt lat="45.95752" lon="4.8791">
        <ele>285</ele>
        <time>2017-12-05T10:42:19Z</time>
      </trkpt>
      <trkpt lat="45.95746" lon="4.87915">
        <ele>284</ele>
        <time>2017-12-05T10:42:20Z</time>
      </trkpt>
      <trkpt lat="45.9574" lon="4.8792">
        <ele>284</ele>
        <time>2017-12-05T10:42:21Z</time>
      </trkpt>
      <trkpt lat="45.95734" lon="4.87925">
        <ele>284</ele>
        <time>2017-12-05T10:42:22Z</time>
      </trkpt>
      <trkpt lat="45.95728" lon="4.8793">
        <ele>283</ele>
        <time>2017-12-05T10:42:23Z</time>
      </trkpt>
      <trkpt lat="45.95722" lon="4.87936">
        <ele>283</ele>
        <time>2017-12-05T10:42:24Z</time>
      </trkpt>
      <trkpt lat="45.95716" lon="4.87941">
        <ele>283</ele>
        <time>2017-12-05T10:42:25Z</time>
      </trkpt>
      <trkpt lat="45.9571" lon="4.87947">
        <ele>283</ele>
        <time>2017-12-05T10:42:26Z</time>
      </trkpt>
      <trkpt lat="45.95704" lon="4.87953">
        <ele>283</ele>
        <time>2017-12-05T10:42:27Z</time>
      </trkpt>
      <trkpt lat="45.95697" lon="4.8796">
        <ele>282</ele>
        <time>2017-12-05T10:42:28Z</time>
      </trkpt>
      <trkpt lat="45.95691" lon="4.87966">
        <ele>282</ele>
        <time>2017-12-05T10:42:29Z</time>
      </trkpt>
      <trkpt lat="45.95684" lon="4.87973">
        <ele>282</ele>
        <time>2017-12-05T10:42:30Z</time>
      </trkpt>
      <trkpt lat="45.95677" lon="4.8798">
        <ele>282</ele>
        <time>2017-12-05T10:42:31Z</time>
      </trkpt>
      <trkpt lat="45.95671" lon="4.87986">
        <ele>282</ele>
        <time>2017-12-05T10:42:32Z</time>
      </trkpt>
      <trkpt lat="45.95665" lon="4.87992">
        <ele>280</ele>
        <time>2017-12-05T10:42:33Z</time>
      </trkpt>
      <trkpt lat="45.95658" lon="4.87998">
        <ele>280</ele>
        <time>2017-12-05T10:42:34Z</time>
      </trkpt>
      <trkpt lat="45.95651" lon="4.88005">
        <ele>280</ele>
        <time>2017-12-05T10:42:35Z</time>
      </trkpt>
      <trkpt lat="45.95645" lon="4.88011">
        <ele>279</ele>
        <time>2017-12-05T10:42:36Z</time>
      </trkpt>
      <trkpt lat="45.95638" lon="4.88018">
        <ele>279</ele>
        <time>2017-12-05T10:42:37Z</time>
      </trkpt>
      <trkpt lat="45.9563" lon="4.88025">
        <ele>279</ele>
        <time>2017-12-05T10:42:38Z</time>
      </trkpt>
      <trkpt lat="45.95623" lon="4.88033">
        <ele>278</ele>
        <time>2017-12-05T10:42:39Z</time>
      </trkpt>
      <trkpt lat="45.95616" lon="4.88041">
        <ele>278</ele>
        <time>2017-12-05T10:42:40Z</time>
      </trkpt>
      <trkpt lat="45.95609" lon="4.88047">
        <ele>278</ele>
        <time>2017-12-05T10:42:41Z</time>
      </trkpt>
      <trkpt lat="45.95602" lon="4.88053">
        <ele>278</ele>
        <time>2017-12-05T10:42:42Z</time>
      </trkpt>
      <trkpt lat="45.95595" lon="4.88059">
        <ele>278</ele>
        <time>2017-12-05T10:42:43Z</time>
      </trkpt>
      <trkpt lat="45.95588" lon="4.88064">
        <ele>278</ele>
        <time>2017-12-05T10:42:44Z</time>
      </trkpt>
      <trkpt lat="45.95581" lon="4.8807">
        <ele>277</ele>
        <time>2017-12-05T10:42:45Z</time>
      </trkpt>
      <trkpt lat="45.95574" lon="4.88074">
        <ele>277</ele>
        <time>2017-12-05T10:42:46Z</time>
      </trkpt>
      <trkpt lat="45.95566" lon="4.88079">
        <ele>276</ele>
        <time>2017-12-05T10:42:47Z</time>
      </trkpt>
      <trkpt lat="45.95559" lon="4.88083">
        <ele>276</ele>
        <time>2017-12-05T10:42:48Z</time>
      </trkpt>
      <trkpt lat="45.95553" lon="4.88087">
        <ele>277</ele>
        <time>2017-12-05T10:42:49Z</time>
      </trkpt>
      <trkpt lat="45.95545" lon="4.88089">
        <ele>277</ele>
        <time>2017-12-05T10:42:50Z</time>
      </trkpt>
      <trkpt lat="45.95539" lon="4.88092">
        <ele>277</ele>
        <time>2017-12-05T10:42:51Z</time>
      </trkpt>
      <trkpt lat="45.95532" lon="4.88095">
        <ele>277</ele>
        <time>2017-12-05T10:42:52Z</time>
      </trkpt>
      <trkpt lat="45.95525" lon="4.88099">
        <ele>277</ele>
        <time>2017-12-05T10:42:53Z</time>
      </trkpt>
      <trkpt lat="45.95518" lon="4.88103">
        <ele>276</ele>
        <time>2017-12-05T10:42:54Z</time>
      </trkpt>
      <trkpt lat="45.95512" lon="4.88106">
        <ele>276</ele>
        <time>2017-12-05T10:42:55Z</time>
      </trkpt>
      <trkpt lat="45.95505" lon="4.8811">
        <ele>276</ele>
        <time>2017-12-05T10:42:56Z</time>
      </trkpt>
      <trkpt lat="45.95498" lon="4.88113">
        <ele>276</ele>
        <time>2017-12-05T10:42:57Z</time>
      </trkpt>
      <trkpt lat="45.9549" lon="4.88117">
        <ele>276</ele>
        <time>2017-12-05T10:42:58Z</time>
      </trkpt>
      <trkpt lat="45.95484" lon="4.88119">
        <ele>276</ele>
        <time>2017-12-05T10:42:59Z</time>
      </trkpt>
      <trkpt lat="45.95477" lon="4.88122">
        <ele>276</ele>
        <time>2017-12-05T10:43:00Z</time>
      </trkpt>
      <trkpt lat="45.95472" lon="4.88125">
        <ele>276</ele>
        <time>2017-12-05T10:43:01Z</time>
      </trkpt>
      <trkpt lat="45.95465" lon="4.88128">
        <ele>276</ele>
        <time>2017-12-05T10:43:02Z</time>
      </trkpt>
      <trkpt lat="45.95458" lon="4.8813">
        <ele>276</ele>
        <time>2017-12-05T10:43:03Z</time>
      </trkpt>
      <trkpt lat="45.95452" lon="4.88133">
        <ele>276</ele>
        <time>2017-12-05T10:43:04Z</time>
      </trkpt>
      <trkpt lat="45.95446" lon="4.88137">
        <ele>276</ele>
        <time>2017-12-05T10:43:05Z</time>
      </trkpt>
      <trkpt lat="45.9544" lon="4.8814">
        <ele>276</ele>
        <time>2017-12-05T10:43:06Z</time>
      </trkpt>
      <trkpt lat="45.95432" lon="4.88143">
        <ele>276</ele>
        <time>2017-12-05T10:43:07Z</time>
      </trkpt>
      <trkpt lat="45.95424" lon="4.88146">
        <ele>276</ele>
        <time>2017-12-05T10:43:08Z</time>
      </trkpt>
      <trkpt lat="45.95418" lon="4.88149">
        <ele>276</ele>
        <time>2017-12-05T10:43:09Z</time>
      </trkpt>
      <trkpt lat="45.95411" lon="4.88152">
        <ele>276</ele>
        <time>2017-12-05T10:43:10Z</time>
      </trkpt>
      <trkpt lat="45.95405" lon="4.88155">
        <ele>276</ele>
        <time>2017-12-05T10:43:11Z</time>
      </trkpt>
      <trkpt lat="45.95398" lon="4.88156">
        <ele>276</ele>
        <time>2017-12-05T10:43:12Z</time>
      </trkpt>
      <trkpt lat="45.95391" lon="4.88158">
        <ele>276</ele>
        <time>2017-12-05T10:43:13Z</time>
      </trkpt>
      <trkpt lat="45.95385" lon="4.88159">
        <ele>276</ele>
        <time>2017-12-05T10:43:14Z</time>
      </trkpt>
      <trkpt lat="45.95379" lon="4.8816">
        <ele>276</ele>
        <time>2017-12-05T10:43:15Z</time>
      </trkpt>
      <trkpt lat="45.95374" lon="4.88163">
        <ele>276</ele>
        <time>2017-12-05T10:43:16Z</time>
      </trkpt>
      <trkpt lat="45.95369" lon="4.88165">
        <ele>276</ele>
        <time>2017-12-05T10:43:17Z</time>
      </trkpt>
      <trkpt lat="45.95362" lon="4.88167">
        <ele>278</ele>
        <time>2017-12-05T10:43:18Z</time>
      </trkpt>
      <trkpt lat="45.95355" lon="4.88168">
        <ele>278</ele>
        <time>2017-12-05T10:43:19Z</time>
      </trkpt>
      <trkpt lat="45.9535" lon="4.88168">
        <ele>278</ele>
        <time>2017-12-05T10:43:20Z</time>
      </trkpt>
      <trkpt lat="45.95343" lon="4.88168">
        <ele>278</ele>
        <time>2017-12-05T10:43:21Z</time>
      </trkpt>
      <trkpt lat="45.95337" lon="4.88168">
        <ele>278</ele>
        <time>2017-12-05T10:43:22Z</time>
      </trkpt>
      <trkpt lat="45.95331" lon="4.88168">
        <ele>278</ele>
        <time>2017-12-05T10:43:23Z</time>
      </trkpt>
      <trkpt lat="45.95325" lon="4.88167">
        <ele>279</ele>
        <time>2017-12-05T10:43:24Z</time>
      </trkpt>
      <trkpt lat="45.95319" lon="4.88166">
        <ele>278</ele>
        <time>2017-12-05T10:43:25Z</time>
      </trkpt>
      <trkpt lat="45.95313" lon="4.88166">
        <ele>278</ele>
        <time>2017-12-05T10:43:26Z</time>
      </trkpt>
      <trkpt lat="45.95307" lon="4.88165">
        <ele>278</ele>
        <time>2017-12-05T10:43:27Z</time>
      </trkpt>
      <trkpt lat="45.953" lon="4.88165">
        <ele>278</ele>
        <time>2017-12-05T10:43:28Z</time>
      </trkpt>
      <trkpt lat="45.95294" lon="4.88163">
        <ele>279</ele>
        <time>2017-12-05T10:43:29Z</time>
      </trkpt>
      <trkpt lat="45.95288" lon="4.88163">
        <ele>279</ele>
        <time>2017-12-05T10:43:30Z</time>
      </trkpt>
      <trkpt lat="45.95282" lon="4.88163">
        <ele>279</ele>
        <time>2017-12-05T10:43:31Z</time>
      </trkpt>
      <trkpt lat="45.95276" lon="4.88163">
        <ele>279</ele>
        <time>2017-12-05T10:43:32Z</time>
      </trkpt>
      <trkpt lat="45.95271" lon="4.88164">
        <ele>279</ele>
        <time>2017-12-05T10:43:33Z</time>
      </trkpt>
      <trkpt lat="45.95266" lon="4.88163">
        <ele>280</ele>
        <time>2017-12-05T10:43:34Z</time>
      </trkpt>
      <trkpt lat="45.95261" lon="4.88163">
        <ele>280</ele>
        <time>2017-12-05T10:43:35Z</time>
      </trkpt>
      <trkpt lat="45.95254" lon="4.88163">
        <ele>280</ele>
        <time>2017-12-05T10:43:36Z</time>
      </trkpt>
      <trkpt lat="45.9525" lon="4.88163">
        <ele>281</ele>
        <time>2017-12-05T10:43:37Z</time>
      </trkpt>
      <trkpt lat="45.95245" lon="4.88162">
        <ele>281</ele>
        <time>2017-12-05T10:43:38Z</time>
      </trkpt>
      <trkpt lat="45.95236" lon="4.88162">
        <ele>281</ele>
        <time>2017-12-05T10:43:40Z</time>
      </trkpt>
      <trkpt lat="45.95232" lon="4.88162">
        <ele>282</ele>
        <time>2017-12-05T10:43:41Z</time>
      </trkpt>
      <trkpt lat="45.95224" lon="4.88163">
        <ele>282</ele>
        <time>2017-12-05T10:43:43Z</time>
      </trkpt>
      <trkpt lat="45.9522" lon="4.88163">
        <ele>282</ele>
        <time>2017-12-05T10:43:44Z</time>
      </trkpt>
      <trkpt lat="45.95212" lon="4.88164">
        <ele>282</ele>
        <time>2017-12-05T10:43:46Z</time>
      </trkpt>
      <trkpt lat="45.95209" lon="4.88165">
        <ele>282</ele>
        <time>2017-12-05T10:43:47Z</time>
      </trkpt>
      <trkpt lat="45.95201" lon="4.88166">
        <ele>282</ele>
        <time>2017-12-05T10:43:49Z</time>
      </trkpt>
      <trkpt lat="45.95198" lon="4.88167">
        <ele>285</ele>
        <time>2017-12-05T10:43:50Z</time>
      </trkpt>
      <trkpt lat="45.9519" lon="4.88168">
        <ele>285</ele>
        <time>2017-12-05T10:43:53Z</time>
      </trkpt>
      <trkpt lat="45.95188" lon="4.88168">
        <ele>285</ele>
        <time>2017-12-05T10:43:54Z</time>
      </trkpt>
      <trkpt lat="45.95181" lon="4.88171">
        <ele>285</ele>
        <time>2017-12-05T10:43:57Z</time>
      </trkpt>
      <trkpt lat="45.95178" lon="4.88172">
        <ele>285</ele>
        <time>2017-12-05T10:43:58Z</time>
      </trkpt>
      <trkpt lat="45.95171" lon="4.8818">
        <ele>285</ele>
        <time>2017-12-05T10:44:02Z</time>
      </trkpt>
      <trkpt lat="45.95171" lon="4.88184">
        <ele>285</ele>
        <time>2017-12-05T10:44:03Z</time>
      </trkpt>
      <trkpt lat="45.95172" lon="4.88196">
        <ele>285</ele>
        <time>2017-12-05T10:44:07Z</time>
      </trkpt>
      <trkpt lat="45.95173" lon="4.88198">
        <ele>286</ele>
        <time>2017-12-05T10:44:08Z</time>
      </trkpt>
      <trkpt lat="45.95173" lon="4.88208">
        <ele>286</ele>
        <time>2017-12-05T10:44:11Z</time>
      </trkpt>
      <trkpt lat="45.95173" lon="4.88211">
        <ele>286</ele>
        <time>2017-12-05T10:44:12Z</time>
      </trkpt>
      <trkpt lat="45.95174" lon="4.88223">
        <ele>286</ele>
        <time>2017-12-05T10:44:16Z</time>
      </trkpt>
      <trkpt lat="45.95174" lon="4.88226">
        <ele>287</ele>
        <time>2017-12-05T10:44:17Z</time>
      </trkpt>
      <trkpt lat="45.95174" lon="4.88238">
        <ele>287</ele>
        <time>2017-12-05T10:44:32Z</time>
      </trkpt>
      <trkpt lat="45.95175" lon="4.88239">
        <ele>287</ele>
        <time>2017-12-05T10:44:33Z</time>
      </trkpt>
      <trkpt lat="45.95181" lon="4.88246">
        <ele>287</ele>
        <time>2017-12-05T10:44:39Z</time>
      </trkpt>
      <trkpt lat="45.95182" lon="4.88249">
        <ele>287</ele>
        <time>2017-12-05T10:44:40Z</time>
      </trkpt>
      <trkpt lat="45.95183" lon="4.88262">
        <ele>289</ele>
        <time>2017-12-05T10:44:44Z</time>
      </trkpt>
      <trkpt lat="45.95183" lon="4.88264">
        <ele>289</ele>
        <time>2017-12-05T10:44:45Z</time>
      </trkpt>
      <trkpt lat="45.95187" lon="4.88275">
        <ele>289</ele>
        <time>2017-12-05T10:44:50Z</time>
      </trkpt>
      <trkpt lat="45.95187" lon="4.88277">
        <ele>289</ele>
        <time>2017-12-05T10:44:51Z</time>
      </trkpt>
      <trkpt lat="45.95185" lon="4.88289">
        <ele>290</ele>
        <time>2017-12-05T10:44:56Z</time>
      </trkpt>
      <trkpt lat="45.95185" lon="4.88291">
        <ele>290</ele>
        <time>2017-12-05T10:44:57Z</time>
      </trkpt>
      <trkpt lat="45.95185" lon="4.88304">
        <ele>290</ele>
        <time>2017-12-05T10:45:01Z</time>
      </trkpt>
      <trkpt lat="45.95184" lon="4.88306">
        <ele>290</ele>
        <time>2017-12-05T10:45:02Z</time>
      </trkpt>
      <trkpt lat="45.95182" lon="4.88317">
        <ele>290</ele>
        <time>2017-12-05T10:45:07Z</time>
      </trkpt>
      <trkpt lat="45.95181" lon="4.88319">
        <ele>290</ele>
        <time>2017-12-05T10:45:08Z</time>
      </trkpt>
      <trkpt lat="45.95179" lon="4.88329">
        <ele>291</ele>
        <time>2017-12-05T10:45:12Z</time>
      </trkpt>
      <trkpt lat="45.95179" lon="4.88332">
        <ele>291</ele>
        <time>2017-12-05T10:45:13Z</time>
      </trkpt>
      <trkpt lat="45.95178" lon="4.88344">
        <ele>292</ele>
        <time>2017-12-05T10:45:17Z</time>
      </trkpt>
      <trkpt lat="45.95178" lon="4.88347">
        <ele>292</ele>
        <time>2017-12-05T10:45:18Z</time>
      </trkpt>
      <trkpt lat="45.95179" lon="4.88355">
        <ele>292</ele>
        <time>2017-12-05T10:45:20Z</time>
      </trkpt>
      <trkpt lat="45.95179" lon="4.8836">
        <ele>292</ele>
        <time>2017-12-05T10:45:21Z</time>
      </trkpt>
      <trkpt lat="45.95181" lon="4.88372">
        <ele>292</ele>
        <time>2017-12-05T10:45:24Z</time>
      </trkpt>
      <trkpt lat="45.95181" lon="4.88374">
        <ele>292</ele>
        <time>2017-12-05T10:45:25Z</time>
      </trkpt>
      <trkpt lat="45.95184" lon="4.88382">
        <ele>292</ele>
        <time>2017-12-05T10:45:27Z</time>
      </trkpt>
      <trkpt lat="45.95186" lon="4.88385">
        <ele>292</ele>
        <time>2017-12-05T10:45:28Z</time>
      </trkpt>
      <trkpt lat="45.95191" lon="4.88391">
        <ele>292</ele>
        <time>2017-12-05T10:45:30Z</time>
      </trkpt>
      <trkpt lat="45.95194" lon="4.88394">
        <ele>292</ele>
        <time>2017-12-05T10:45:31Z</time>
      </trkpt>
      <trkpt lat="45.952" lon="4.884">
        <ele>292</ele>
        <time>2017-12-05T10:45:33Z</time>
      </trkpt>
      <trkpt lat="45.95203" lon="4.88402">
        <ele>292</ele>
        <time>2017-12-05T10:45:34Z</time>
      </trkpt>
      <trkpt lat="45.95211" lon="4.88405">
        <ele>292</ele>
        <time>2017-12-05T10:45:37Z</time>
      </trkpt>
      <trkpt lat="45.95214" lon="4.88404">
        <ele>292</ele>
        <time>2017-12-05T10:45:38Z</time>
      </trkpt>
      <trkpt lat="45.95217" lon="4.88398">
        <ele>291</ele>
        <time>2017-12-05T10:45:40Z</time>
      </trkpt>
      <trkpt lat="45.95219" lon="4.88393">
        <ele>291</ele>
        <time>2017-12-05T10:45:41Z</time>
      </trkpt>
      <trkpt lat="45.9522" lon="4.88382">
        <ele>291</ele>
        <time>2017-12-05T10:45:43Z</time>
      </trkpt>
      <trkpt lat="45.9522" lon="4.88377">
        <ele>291</ele>
        <time>2017-12-05T10:45:44Z</time>
      </trkpt>
      <trkpt lat="45.95221" lon="4.88367">
        <ele>291</ele>
        <time>2017-12-05T10:45:46Z</time>
      </trkpt>
      <trkpt lat="45.95221" lon="4.88363">
        <ele>291</ele>
        <time>2017-12-05T10:45:47Z</time>
      </trkpt>
      <trkpt lat="45.9522" lon="4.88354">
        <ele>291</ele>
        <time>2017-12-05T10:45:49Z</time>
      </trkpt>
      <trkpt lat="45.9522" lon="4.88349">
        <ele>291</ele>
        <time>2017-12-05T10:45:50Z</time>
      </trkpt>
      <trkpt lat="45.95217" lon="4.88339">
        <ele>291</ele>
        <time>2017-12-05T10:45:52Z</time>
      </trkpt>
      <trkpt lat="45.95216" lon="4.88334">
        <ele>291</ele>
        <time>2017-12-05T10:45:53Z</time>
      </trkpt>
      <trkpt lat="45.95214" lon="4.88324">
        <ele>290</ele>
        <time>2017-12-05T10:45:55Z</time>
      </trkpt>
      <trkpt lat="45.95212" lon="4.88319">
        <ele>290</ele>
        <time>2017-12-05T10:45:56Z</time>
      </trkpt>
      <trkpt lat="45.95209" lon="4.8831">
        <ele>290</ele>
        <time>2017-12-05T10:45:58Z</time>
      </trkpt>
      <trkpt lat="45.95208" lon="4.88307">
        <ele>290</ele>
        <time>2017-12-05T10:45:59Z</time>
      </trkpt>
      <trkpt lat="45.95204" lon="4.88299">
        <ele>289</ele>
        <time>2017-12-05T10:46:01Z</time>
      </trkpt>
      <trkpt lat="45.95203" lon="4.88295">
        <ele>289</ele>
        <time>2017-12-05T10:46:02Z</time>
      </trkpt>
      <trkpt lat="45.95201" lon="4.88292">
        <ele>289</ele>
        <time>2017-12-05T10:46:03Z</time>
      </trkpt>
      <trkpt lat="45.95197" lon="4.88284">
        <ele>289</ele>
        <time>2017-12-05T10:46:04Z</time>
      </trkpt>
      <trkpt lat="45.95193" lon="4.8828">
        <ele>289</ele>
        <time>2017-12-05T10:46:05Z</time>
      </trkpt>
      <trkpt lat="45.95191" lon="4.88275">
        <ele>289</ele>
        <time>2017-12-05T10:46:06Z</time>
      </trkpt>
      <trkpt lat="45.95187" lon="4.88266">
        <ele>289</ele>
        <time>2017-12-05T10:46:08Z</time>
      </trkpt>
      <trkpt lat="45.95185" lon="4.88262">
        <ele>289</ele>
        <time>2017-12-05T10:46:09Z</time>
      </trkpt>
      <trkpt lat="45.95182" lon="4.88254">
        <ele>289</ele>
        <time>2017-12-05T10:46:11Z</time>
      </trkpt>
      <trkpt lat="45.9518" lon="4.8825">
        <ele>289</ele>
        <time>2017-12-05T10:46:12Z</time>
      </trkpt>
      <trkpt lat="45.95172" lon="4.88246">
        <ele>288</ele>
        <time>2017-12-05T10:46:14Z</time>
      </trkpt>
      <trkpt lat="45.95169" lon="4.88245">
        <ele>288</ele>
        <time>2017-12-05T10:46:15Z</time>
      </trkpt>
      <trkpt lat="45.95161" lon="4.88243">
        <ele>288</ele>
        <time>2017-12-05T10:46:17Z</time>
      </trkpt>
      <trkpt lat="45.95157" lon="4.88242">
        <ele>288</ele>
        <time>2017-12-05T10:46:18Z</time>
      </trkpt>
      <trkpt lat="45.95153" lon="4.8824">
        <ele>288</ele>
        <time>2017-12-05T10:46:19Z</time>
      </trkpt>
      <trkpt lat="45.95147" lon="4.8824">
        <ele>288</ele>
        <time>2017-12-05T10:46:20Z</time>
      </trkpt>
      <trkpt lat="45.95139" lon="4.88239">
        <ele>287</ele>
        <time>2017-12-05T10:46:22Z</time>
      </trkpt>
      <trkpt lat="45.95136" lon="4.88237">
        <ele>287</ele>
        <time>2017-12-05T10:46:23Z</time>
      </trkpt>
      <trkpt lat="45.95132" lon="4.88236">
        <ele>287</ele>
        <time>2017-12-05T10:46:24Z</time>
      </trkpt>
      <trkpt lat="45.95127" lon="4.88236">
        <ele>287</ele>
        <time>2017-12-05T10:46:25Z</time>
      </trkpt>
      <trkpt lat="45.95119" lon="4.88233">
        <ele>287</ele>
        <time>2017-12-05T10:46:27Z</time>
      </trkpt>
      <trkpt lat="45.95118" lon="4.8823">
        <ele>287</ele>
        <time>2017-12-05T10:46:28Z</time>
      </trkpt>
      <trkpt lat="45.95116" lon="4.88218">
        <ele>287</ele>
        <time>2017-12-05T10:46:31Z</time>
      </trkpt>
      <trkpt lat="45.95118" lon="4.88214">
        <ele>287</ele>
        <time>2017-12-05T10:46:32Z</time>
      </trkpt>
      <trkpt lat="45.95122" lon="4.88206">
        <ele>287</ele>
        <time>2017-12-05T10:46:34Z</time>
      </trkpt>
      <trkpt lat="45.95125" lon="4.88202">
        <ele>287</ele>
        <time>2017-12-05T10:46:35Z</time>
      </trkpt>
      <trkpt lat="45.95132" lon="4.88194">
        <ele>287</ele>
        <time>2017-12-05T10:46:37Z</time>
      </trkpt>
      <trkpt lat="45.95135" lon="4.8819">
        <ele>286</ele>
        <time>2017-12-05T10:46:38Z</time>
      </trkpt>
      <trkpt lat="45.95143" lon="4.88185">
        <ele>286</ele>
        <time>2017-12-05T10:46:40Z</time>
      </trkpt>
      <trkpt lat="45.95147" lon="4.88183">
        <ele>286</ele>
        <time>2017-12-05T10:46:41Z</time>
      </trkpt>
      <trkpt lat="45.95156" lon="4.8818">
        <ele>286</ele>
        <time>2017-12-05T10:46:43Z</time>
      </trkpt>
      <trkpt lat="45.9516" lon="4.88178">
        <ele>286</ele>
        <time>2017-12-05T10:46:44Z</time>
      </trkpt>
      <trkpt lat="45.95166" lon="4.8817">
        <ele>285</ele>
        <time>2017-12-05T10:46:46Z</time>
      </trkpt>
      <trkpt lat="45.95168" lon="4.88165">
        <ele>285</ele>
        <time>2017-12-05T10:46:47Z</time>
      </trkpt>
      <trkpt lat="45.95167" lon="4.88155">
        <ele>284</ele>
        <time>2017-12-05T10:46:49Z</time>
      </trkpt>
      <trkpt lat="45.95167" lon="4.8815">
        <ele>283</ele>
        <time>2017-12-05T10:46:50Z</time>
      </trkpt>
      <trkpt lat="45.9517" lon="4.8814">
        <ele>283</ele>
        <time>2017-12-05T10:46:52Z</time>
      </trkpt>
      <trkpt lat="45.95171" lon="4.88135">
        <ele>283</ele>
        <time>2017-12-05T10:46:53Z</time>
      </trkpt>
      <trkpt lat="45.95174" lon="4.88129">
        <ele>282</ele>
        <time>2017-12-05T10:46:54Z</time>
      </trkpt>
      <trkpt lat="45.95177" lon="4.88122">
        <ele>282</ele>
        <time>2017-12-05T10:46:55Z</time>
      </trkpt>
      <trkpt lat="45.95178" lon="4.88116">
        <ele>282</ele>
        <time>2017-12-05T10:46:56Z</time>
      </trkpt>
      <trkpt lat="45.95181" lon="4.88107">
        <ele>282</ele>
        <time>2017-12-05T10:46:57Z</time>
      </trkpt>
      <trkpt lat="45.95184" lon="4.88095">
        <ele>282</ele>
        <time>2017-12-05T10:46:59Z</time>
      </trkpt>
      <trkpt lat="45.95185" lon="4.88088">
        <ele>282</ele>
        <time>2017-12-05T10:47:00Z</time>
      </trkpt>
      <trkpt lat="45.95187" lon="4.8808">
        <ele>281</ele>
        <time>2017-12-05T10:47:01Z</time>
      </trkpt>
      <trkpt lat="45.95189" lon="4.88073">
        <ele>281</ele>
        <time>2017-12-05T10:47:02Z</time>
      </trkpt>
      <trkpt lat="45.95191" lon="4.88065">
        <ele>281</ele>
        <time>2017-12-05T10:47:03Z</time>
      </trkpt>
      <trkpt lat="45.95193" lon="4.88057">
        <ele>281</ele>
        <time>2017-12-05T10:47:04Z</time>
      </trkpt>
      <trkpt lat="45.95195" lon="4.88049">
        <ele>281</ele>
        <time>2017-12-05T10:47:05Z</time>
      </trkpt>
      <trkpt lat="45.95198" lon="4.88042">
        <ele>281</ele>
        <time>2017-12-05T10:47:06Z</time>
      </trkpt>
      <trkpt lat="45.95201" lon="4.88036">
        <ele>281</ele>
        <time>2017-12-05T10:47:07Z</time>
      </trkpt>
      <trkpt lat="45.95204" lon="4.88031">
        <ele>281</ele>
        <time>2017-12-05T10:47:08Z</time>
      </trkpt>
      <trkpt lat="45.95208" lon="4.88025">
        <ele>281</ele>
        <time>2017-12-05T10:47:09Z</time>
      </trkpt>
      <trkpt lat="45.95212" lon="4.8802">
        <ele>281</ele>
        <time>2017-12-05T10:47:10Z</time>
      </trkpt>
      <trkpt lat="45.95216" lon="4.88016">
        <ele>281</ele>
        <time>2017-12-05T10:47:11Z</time>
      </trkpt>
      <trkpt lat="45.9522" lon="4.8801">
        <ele>281</ele>
        <time>2017-12-05T10:47:12Z</time>
      </trkpt>
      <trkpt lat="45.95223" lon="4.88004">
        <ele>281</ele>
        <time>2017-12-05T10:47:13Z</time>
      </trkpt>
      <trkpt lat="45.95227" lon="4.87997">
        <ele>281</ele>
        <time>2017-12-05T10:47:14Z</time>
      </trkpt>
      <trkpt lat="45.95231" lon="4.87991">
        <ele>281</ele>
        <time>2017-12-05T10:47:15Z</time>
      </trkpt>
      <trkpt lat="45.95236" lon="4.87986">
        <ele>281</ele>
        <time>2017-12-05T10:47:16Z</time>
      </trkpt>
      <trkpt lat="45.9524" lon="4.87981">
        <ele>281</ele>
        <time>2017-12-05T10:47:17Z</time>
      </trkpt>
      <trkpt lat="45.95244" lon="4.87975">
        <ele>282</ele>
        <time>2017-12-05T10:47:18Z</time>
      </trkpt>
      <trkpt lat="45.95247" lon="4.87971">
        <ele>282</ele>
        <time>2017-12-05T10:47:19Z</time>
      </trkpt>
      <trkpt lat="45.9525" lon="4.87965">
        <ele>282</ele>
        <time>2017-12-05T10:47:20Z</time>
      </trkpt>
      <trkpt lat="45.95253" lon="4.87959">
        <ele>280</ele>
        <time>2017-12-05T10:47:21Z</time>
      </trkpt>
      <trkpt lat="45.95256" lon="4.87951">
        <ele>280</ele>
        <time>2017-12-05T10:47:22Z</time>
      </trkpt>
      <trkpt lat="45.95258" lon="4.87945">
        <ele>280</ele>
        <time>2017-12-05T10:47:23Z</time>
      </trkpt>
      <trkpt lat="45.9526" lon="4.87938">
        <ele>280</ele>
        <time>2017-12-05T10:47:24Z</time>
      </trkpt>
      <trkpt lat="45.9526" lon="4.87932">
        <ele>281</ele>
        <time>2017-12-05T10:47:25Z</time>
      </trkpt>
      <trkpt lat="45.95261" lon="4.87924">
        <ele>281</ele>
        <time>2017-12-05T10:47:26Z</time>
      </trkpt>
      <trkpt lat="45.95262" lon="4.87915">
        <ele>282</ele>
        <time>2017-12-05T10:47:27Z</time>
      </trkpt>
      <trkpt lat="45.95263" lon="4.87908">
        <ele>281</ele>
        <time>2017-12-05T10:47:28Z</time>
      </trkpt>
      <trkpt lat="45.95262" lon="4.879">
        <ele>281</ele>
        <time>2017-12-05T10:47:29Z</time>
      </trkpt>
      <trkpt lat="45.95261" lon="4.87893">
        <ele>281</ele>
        <time>2017-12-05T10:47:30Z</time>
      </trkpt>
      <trkpt lat="45.9526" lon="4.87887">
        <ele>281</ele>
        <time>2017-12-05T10:47:31Z</time>
      </trkpt>
      <trkpt lat="45.95258" lon="4.8788">
        <ele>281</ele>
        <time>2017-12-05T10:47:32Z</time>
      </trkpt>
      <trkpt lat="45.95256" lon="4.87873">
        <ele>281</ele>
        <time>2017-12-05T10:47:33Z</time>
      </trkpt>
      <trkpt lat="45.95254" lon="4.87866">
        <ele>281</ele>
        <time>2017-12-05T10:47:34Z</time>
      </trkpt>
      <trkpt lat="45.95253" lon="4.87858">
        <ele>281</ele>
        <time>2017-12-05T10:47:35Z</time>
      </trkpt>
      <trkpt lat="45.95252" lon="4.87851">
        <ele>281</ele>
        <time>2017-12-05T10:47:36Z</time>
      </trkpt>
      <trkpt lat="45.95251" lon="4.87843">
        <ele>281</ele>
        <time>2017-12-05T10:47:37Z</time>
      </trkpt>
      <trkpt lat="45.95249" lon="4.87835">
        <ele>282</ele>
        <time>2017-12-05T10:47:38Z</time>
      </trkpt>
      <trkpt lat="45.95248" lon="4.87827">
        <ele>282</ele>
        <time>2017-12-05T10:47:39Z</time>
      </trkpt>
      <trkpt lat="45.95247" lon="4.87819">
        <ele>282</ele>
        <time>2017-12-05T10:47:40Z</time>
      </trkpt>
      <trkpt lat="45.95247" lon="4.8781">
        <ele>282</ele>
        <time>2017-12-05T10:47:41Z</time>
      </trkpt>
      <trkpt lat="45.95245" lon="4.87801">
        <ele>282</ele>
        <time>2017-12-05T10:47:42Z</time>
      </trkpt>
      <trkpt lat="45.95244" lon="4.87791">
        <ele>282</ele>
        <time>2017-12-05T10:47:43Z</time>
      </trkpt>
      <trkpt lat="45.95242" lon="4.87783">
        <ele>282</ele>
        <time>2017-12-05T10:47:44Z</time>
      </trkpt>
      <trkpt lat="45.95241" lon="4.87774">
        <ele>282</ele>
        <time>2017-12-05T10:47:45Z</time>
      </trkpt>
      <trkpt lat="45.95239" lon="4.87765">
        <ele>281</ele>
        <time>2017-12-05T10:47:46Z</time>
      </trkpt>
      <trkpt lat="45.95237" lon="4.87757">
        <ele>281</ele>
        <time>2017-12-05T10:47:47Z</time>
      </trkpt>
      <trkpt lat="45.95236" lon="4.87749">
        <ele>280</ele>
        <time>2017-12-05T10:47:48Z</time>
      </trkpt>
      <trkpt lat="45.95234" lon="4.87739">
        <ele>280</ele>
        <time>2017-12-05T10:47:49Z</time>
      </trkpt>
      <trkpt lat="45.95232" lon="4.8773">
        <ele>280</ele>
        <time>2017-12-05T10:47:50Z</time>
      </trkpt>
      <trkpt lat="45.9523" lon="4.87722">
        <ele>279</ele>
        <time>2017-12-05T10:47:51Z</time>
      </trkpt>
      <trkpt lat="45.95228" lon="4.87712">
        <ele>279</ele>
        <time>2017-12-05T10:47:52Z</time>
      </trkpt>
      <trkpt lat="45.95226" lon="4.87708">
        <ele>279</ele>
        <time>2017-12-05T10:47:53Z</time>
      </trkpt>
      <trkpt lat="45.95224" lon="4.87699">
        <ele>279</ele>
        <time>2017-12-05T10:47:54Z</time>
      </trkpt>
      <trkpt lat="45.95224" lon="4.87691">
        <ele>279</ele>
        <time>2017-12-05T10:47:55Z</time>
      </trkpt>
      <trkpt lat="45.95222" lon="4.87681">
        <ele>278</ele>
        <time>2017-12-05T10:47:56Z</time>
      </trkpt>
      <trkpt lat="45.95219" lon="4.87671">
        <ele>278</ele>
        <time>2017-12-05T10:47:57Z</time>
      </trkpt>
      <trkpt lat="45.95218" lon="4.87662">
        <ele>276</ele>
        <time>2017-12-05T10:47:58Z</time>
      </trkpt>
      <trkpt lat="45.95217" lon="4.87652">
        <ele>276</ele>
        <time>2017-12-05T10:47:59Z</time>
      </trkpt>
      <trkpt lat="45.95216" lon="4.87641">
        <ele>276</ele>
        <time>2017-12-05T10:48:00Z</time>
      </trkpt>
      <trkpt lat="45.95214" lon="4.8763">
        <ele>276</ele>
        <time>2017-12-05T10:48:01Z</time>
      </trkpt>
      <trkpt lat="45.95213" lon="4.87618">
        <ele>276</ele>
        <time>2017-12-05T10:48:02Z</time>
      </trkpt>
      <trkpt lat="45.95213" lon="4.87607">
        <ele>276</ele>
        <time>2017-12-05T10:48:03Z</time>
      </trkpt>
      <trkpt lat="45.95212" lon="4.87595">
        <ele>276</ele>
        <time>2017-12-05T10:48:04Z</time>
      </trkpt>
      <trkpt lat="45.95211" lon="4.87581">
        <ele>274</ele>
        <time>2017-12-05T10:48:05Z</time>
      </trkpt>
      <trkpt lat="45.95209" lon="4.87569">
        <ele>274</ele>
        <time>2017-12-05T10:48:06Z</time>
      </trkpt>
      <trkpt lat="45.95209" lon="4.87557">
        <ele>274</ele>
        <time>2017-12-05T10:48:07Z</time>
      </trkpt>
      <trkpt lat="45.95207" lon="4.87545">
        <ele>274</ele>
        <time>2017-12-05T10:48:08Z</time>
      </trkpt>
      <trkpt lat="45.95204" lon="4.87534">
        <ele>274</ele>
        <time>2017-12-05T10:48:09Z</time>
      </trkpt>
      <trkpt lat="45.95202" lon="4.87523">
        <ele>274</ele>
        <time>2017-12-05T10:48:10Z</time>
      </trkpt>
      <trkpt lat="45.95199" lon="4.87511">
        <ele>273</ele>
        <time>2017-12-05T10:48:11Z</time>
      </trkpt>
      <trkpt lat="45.95196" lon="4.87501">
        <ele>273</ele>
        <time>2017-12-05T10:48:12Z</time>
      </trkpt>
      <trkpt lat="45.95195" lon="4.87491">
        <ele>272</ele>
        <time>2017-12-05T10:48:13Z</time>
      </trkpt>
      <trkpt lat="45.95193" lon="4.8748">
        <ele>272</ele>
        <time>2017-12-05T10:48:14Z</time>
      </trkpt>
      <trkpt lat="45.95192" lon="4.87468">
        <ele>272</ele>
        <time>2017-12-05T10:48:15Z</time>
      </trkpt>
      <trkpt lat="45.9519" lon="4.87457">
        <ele>272</ele>
        <time>2017-12-05T10:48:16Z</time>
      </trkpt>
      <trkpt lat="45.95188" lon="4.87444">
        <ele>272</ele>
        <time>2017-12-05T10:48:17Z</time>
      </trkpt>
      <trkpt lat="45.95185" lon="4.87434">
        <ele>271</ele>
        <time>2017-12-05T10:48:18Z</time>
      </trkpt>
      <trkpt lat="45.95183" lon="4.87425">
        <ele>271</ele>
        <time>2017-12-05T10:48:19Z</time>
      </trkpt>
      <trkpt lat="45.95181" lon="4.87416">
        <ele>271</ele>
        <time>2017-12-05T10:48:20Z</time>
      </trkpt>
      <trkpt lat="45.95178" lon="4.87408">
        <ele>271</ele>
        <time>2017-12-05T10:48:21Z</time>
      </trkpt>
      <trkpt lat="45.95176" lon="4.87401">
        <ele>271</ele>
        <time>2017-12-05T10:48:22Z</time>
      </trkpt>
      <trkpt lat="45.95174" lon="4.87393">
        <ele>271</ele>
        <time>2017-12-05T10:48:23Z</time>
      </trkpt>
      <trkpt lat="45.95172" lon="4.87385">
        <ele>271</ele>
        <time>2017-12-05T10:48:24Z</time>
      </trkpt>
      <trkpt lat="45.9517" lon="4.87378">
        <ele>271</ele>
        <time>2017-12-05T10:48:25Z</time>
      </trkpt>
      <trkpt lat="45.95168" lon="4.87369">
        <ele>271</ele>
        <time>2017-12-05T10:48:26Z</time>
      </trkpt>
      <trkpt lat="45.95166" lon="4.87361">
        <ele>272</ele>
        <time>2017-12-05T10:48:27Z</time>
      </trkpt>
      <trkpt lat="45.95164" lon="4.87352">
        <ele>272</ele>
        <time>2017-12-05T10:48:28Z</time>
      </trkpt>
      <trkpt lat="45.95161" lon="4.87343">
        <ele>272</ele>
        <time>2017-12-05T10:48:29Z</time>
      </trkpt>
      <trkpt lat="45.9516" lon="4.87333">
        <ele>272</ele>
        <time>2017-12-05T10:48:30Z</time>
      </trkpt>
      <trkpt lat="45.95158" lon="4.87322">
        <ele>273</ele>
        <time>2017-12-05T10:48:31Z</time>
      </trkpt>
      <trkpt lat="45.95156" lon="4.87313">
        <ele>273</ele>
        <time>2017-12-05T10:48:32Z</time>
      </trkpt>
      <trkpt lat="45.95153" lon="4.87303">
        <ele>274</ele>
        <time>2017-12-05T10:48:33Z</time>
      </trkpt>
      <trkpt lat="45.95151" lon="4.87294">
        <ele>274</ele>
        <time>2017-12-05T10:48:34Z</time>
      </trkpt>
      <trkpt lat="45.95149" lon="4.87285">
        <ele>274</ele>
        <time>2017-12-05T10:48:35Z</time>
      </trkpt>
      <trkpt lat="45.95147" lon="4.87276">
        <ele>274</ele>
        <time>2017-12-05T10:48:36Z</time>
      </trkpt>
      <trkpt lat="45.95145" lon="4.87268">
        <ele>274</ele>
        <time>2017-12-05T10:48:37Z</time>
      </trkpt>
      <trkpt lat="45.95143" lon="4.87258">
        <ele>274</ele>
        <time>2017-12-05T10:48:38Z</time>
      </trkpt>
      <trkpt lat="45.95141" lon="4.87249">
        <ele>275</ele>
        <time>2017-12-05T10:48:39Z</time>
      </trkpt>
      <trkpt lat="45.9514" lon="4.87241">
        <ele>275</ele>
        <time>2017-12-05T10:48:40Z</time>
      </trkpt>
      <trkpt lat="45.95139" lon="4.87232">
        <ele>276</ele>
        <time>2017-12-05T10:48:41Z</time>
      </trkpt>
      <trkpt lat="45.95137" lon="4.87223">
        <ele>276</ele>
        <time>2017-12-05T10:48:42Z</time>
      </trkpt>
      <trkpt lat="45.95135" lon="4.87215">
        <ele>276</ele>
        <time>2017-12-05T10:48:43Z</time>
      </trkpt>
      <trkpt lat="45.95134" lon="4.87207">
        <ele>276</ele>
        <time>2017-12-05T10:48:44Z</time>
      </trkpt>
      <trkpt lat="45.95132" lon="4.87199">
        <ele>276</ele>
        <time>2017-12-05T10:48:45Z</time>
      </trkpt>
      <trkpt lat="45.95131" lon="4.87191">
        <ele>276</ele>
        <time>2017-12-05T10:48:46Z</time>
      </trkpt>
      <trkpt lat="45.95129" lon="4.87183">
        <ele>276</ele>
        <time>2017-12-05T10:48:47Z</time>
      </trkpt>
      <trkpt lat="45.95128" lon="4.87175">
        <ele>276</ele>
        <time>2017-12-05T10:48:48Z</time>
      </trkpt>
      <trkpt lat="45.95126" lon="4.87169">
        <ele>276</ele>
        <time>2017-12-05T10:48:49Z</time>
      </trkpt>
      <trkpt lat="45.95124" lon="4.87163">
        <ele>276</ele>
        <time>2017-12-05T10:48:50Z</time>
      </trkpt>
      <trkpt lat="45.95122" lon="4.87156">
        <ele>276</ele>
        <time>2017-12-05T10:48:51Z</time>
      </trkpt>
      <trkpt lat="45.9512" lon="4.87147">
        <ele>277</ele>
        <time>2017-12-05T10:48:52Z</time>
      </trkpt>
      <trkpt lat="45.95118" lon="4.87141">
        <ele>277</ele>
        <time>2017-12-05T10:48:53Z</time>
      </trkpt>
      <trkpt lat="45.95116" lon="4.87133">
        <ele>277</ele>
        <time>2017-12-05T10:48:54Z</time>
      </trkpt>
      <trkpt lat="45.95114" lon="4.87126">
        <ele>277</ele>
        <time>2017-12-05T10:48:55Z</time>
      </trkpt>
      <trkpt lat="45.95112" lon="4.87116">
        <ele>277</ele>
        <time>2017-12-05T10:48:56Z</time>
      </trkpt>
      <trkpt lat="45.95111" lon="4.87109">
        <ele>277</ele>
        <time>2017-12-05T10:48:57Z</time>
      </trkpt>
      <trkpt lat="45.95109" lon="4.87101">
        <ele>277</ele>
        <time>2017-12-05T10:48:58Z</time>
      </trkpt>
      <trkpt lat="45.95107" lon="4.87094">
        <ele>277</ele>
        <time>2017-12-05T10:48:59Z</time>
      </trkpt>
      <trkpt lat="45.95106" lon="4.87088">
        <ele>277</ele>
        <time>2017-12-05T10:49:00Z</time>
      </trkpt>
      <trkpt lat="45.95104" lon="4.87082">
        <ele>277</ele>
        <time>2017-12-05T10:49:01Z</time>
      </trkpt>
      <trkpt lat="45.95101" lon="4.87071">
        <ele>277</ele>
        <time>2017-12-05T10:49:03Z</time>
      </trkpt>
      <trkpt lat="45.95099" lon="4.87065">
        <ele>277</ele>
        <time>2017-12-05T10:49:04Z</time>
      </trkpt>
      <trkpt lat="45.95096" lon="4.87059">
        <ele>277</ele>
        <time>2017-12-05T10:49:05Z</time>
      </trkpt>
      <trkpt lat="45.95092" lon="4.87052">
        <ele>277</ele>
        <time>2017-12-05T10:49:06Z</time>
      </trkpt>
      <trkpt lat="45.95089" lon="4.87046">
        <ele>277</ele>
        <time>2017-12-05T10:49:07Z</time>
      </trkpt>
      <trkpt lat="45.95086" lon="4.87041">
        <ele>277</ele>
        <time>2017-12-05T10:49:08Z</time>
      </trkpt>
      <trkpt lat="45.95082" lon="4.87036">
        <ele>277</ele>
        <time>2017-12-05T10:49:09Z</time>
      </trkpt>
      <trkpt lat="45.95079" lon="4.8703">
        <ele>277</ele>
        <time>2017-12-05T10:49:10Z</time>
      </trkpt>
      <trkpt lat="45.95075" lon="4.87025">
        <ele>277</ele>
        <time>2017-12-05T10:49:11Z</time>
      </trkpt>
      <trkpt lat="45.95072" lon="4.87019">
        <ele>277</ele>
        <time>2017-12-05T10:49:12Z</time>
      </trkpt>
      <trkpt lat="45.95069" lon="4.87013">
        <ele>277</ele>
        <time>2017-12-05T10:49:13Z</time>
      </trkpt>
      <trkpt lat="45.95064" lon="4.87006">
        <ele>277</ele>
        <time>2017-12-05T10:49:14Z</time>
      </trkpt>
      <trkpt lat="45.95061" lon="4.87">
        <ele>276</ele>
        <time>2017-12-05T10:49:15Z</time>
      </trkpt>
      <trkpt lat="45.95058" lon="4.86991">
        <ele>276</ele>
        <time>2017-12-05T10:49:16Z</time>
      </trkpt>
      <trkpt lat="45.95055" lon="4.86984">
        <ele>276</ele>
        <time>2017-12-05T10:49:17Z</time>
      </trkpt>
      <trkpt lat="45.95053" lon="4.86977">
        <ele>276</ele>
        <time>2017-12-05T10:49:18Z</time>
      </trkpt>
      <trkpt lat="45.9505" lon="4.86969">
        <ele>276</ele>
        <time>2017-12-05T10:49:19Z</time>
      </trkpt>
      <trkpt lat="45.95048" lon="4.86962">
        <ele>276</ele>
        <time>2017-12-05T10:49:20Z</time>
      </trkpt>
      <trkpt lat="45.95046" lon="4.86954">
        <ele>276</ele>
        <time>2017-12-05T10:49:21Z</time>
      </trkpt>
      <trkpt lat="45.95043" lon="4.86947">
        <ele>276</ele>
        <time>2017-12-05T10:49:22Z</time>
      </trkpt>
      <trkpt lat="45.9504" lon="4.8694">
        <ele>276</ele>
        <time>2017-12-05T10:49:23Z</time>
      </trkpt>
      <trkpt lat="45.95038" lon="4.86933">
        <ele>276</ele>
        <time>2017-12-05T10:49:24Z</time>
      </trkpt>
      <trkpt lat="45.95035" lon="4.86925">
        <ele>276</ele>
        <time>2017-12-05T10:49:25Z</time>
      </trkpt>
      <trkpt lat="45.95032" lon="4.86917">
        <ele>275</ele>
        <time>2017-12-05T10:49:26Z</time>
      </trkpt>
      <trkpt lat="45.9503" lon="4.86909">
        <ele>275</ele>
        <time>2017-12-05T10:49:27Z</time>
      </trkpt>
      <trkpt lat="45.95028" lon="4.86902">
        <ele>275</ele>
        <time>2017-12-05T10:49:28Z</time>
      </trkpt>
      <trkpt lat="45.95026" lon="4.86895">
        <ele>275</ele>
        <time>2017-12-05T10:49:29Z</time>
      </trkpt>
      <trkpt lat="45.95024" lon="4.86888">
        <ele>275</ele>
        <time>2017-12-05T10:49:30Z</time>
      </trkpt>
      <trkpt lat="45.95022" lon="4.86882">
        <ele>275</ele>
        <time>2017-12-05T10:49:31Z</time>
      </trkpt>
      <trkpt lat="45.9502" lon="4.86874">
        <ele>275</ele>
        <time>2017-12-05T10:49:32Z</time>
      </trkpt>
      <trkpt lat="45.95017" lon="4.86866">
        <ele>275</ele>
        <time>2017-12-05T10:49:33Z</time>
      </trkpt>
      <trkpt lat="45.95014" lon="4.86858">
        <ele>275</ele>
        <time>2017-12-05T10:49:34Z</time>
      </trkpt>
      <trkpt lat="45.95011" lon="4.86851">
        <ele>275</ele>
        <time>2017-12-05T10:49:35Z</time>
      </trkpt>
      <trkpt lat="45.95008" lon="4.86844">
        <ele>276</ele>
        <time>2017-12-05T10:49:36Z</time>
      </trkpt>
      <trkpt lat="45.95005" lon="4.86835">
        <ele>276</ele>
        <time>2017-12-05T10:49:37Z</time>
      </trkpt>
      <trkpt lat="45.95002" lon="4.86827">
        <ele>276</ele>
        <time>2017-12-05T10:49:38Z</time>
      </trkpt>
      <trkpt lat="45.95" lon="4.8682">
        <ele>276</ele>
        <time>2017-12-05T10:49:39Z</time>
      </trkpt>
      <trkpt lat="45.94996" lon="4.86816">
        <ele>276</ele>
        <time>2017-12-05T10:49:40Z</time>
      </trkpt>
      <trkpt lat="45.94993" lon="4.86808">
        <ele>276</ele>
        <time>2017-12-05T10:49:41Z</time>
      </trkpt>
      <trkpt lat="45.94991" lon="4.86802">
        <ele>276</ele>
        <time>2017-12-05T10:49:42Z</time>
      </trkpt>
      <trkpt lat="45.94987" lon="4.86795">
        <ele>276</ele>
        <time>2017-12-05T10:49:43Z</time>
      </trkpt>
      <trkpt lat="45.94984" lon="4.86788">
        <ele>275</ele>
        <time>2017-12-05T10:49:44Z</time>
      </trkpt>
      <trkpt lat="45.9498" lon="4.86781">
        <ele>275</ele>
        <time>2017-12-05T10:49:45Z</time>
      </trkpt>
      <trkpt lat="45.94977" lon="4.86775">
        <ele>275</ele>
        <time>2017-12-05T10:49:46Z</time>
      </trkpt>
      <trkpt lat="45.94973" lon="4.8677">
        <ele>275</ele>
        <time>2017-12-05T10:49:47Z</time>
      </trkpt>
      <trkpt lat="45.94971" lon="4.86764">
        <ele>275</ele>
        <time>2017-12-05T10:49:48Z</time>
      </trkpt>
      <trkpt lat="45.94968" lon="4.86758">
        <ele>275</ele>
        <time>2017-12-05T10:49:49Z</time>
      </trkpt>
      <trkpt lat="45.94966" lon="4.86752">
        <ele>275</ele>
        <time>2017-12-05T10:49:50Z</time>
      </trkpt>
      <trkpt lat="45.94963" lon="4.86746">
        <ele>275</ele>
        <time>2017-12-05T10:49:51Z</time>
      </trkpt>
      <trkpt lat="45.9496" lon="4.8674">
        <ele>275</ele>
        <time>2017-12-05T10:49:52Z</time>
      </trkpt>
      <trkpt lat="45.94958" lon="4.86734">
        <ele>275</ele>
        <time>2017-12-05T10:49:53Z</time>
      </trkpt>
      <trkpt lat="45.94955" lon="4.86728">
        <ele>275</ele>
        <time>2017-12-05T10:49:54Z</time>
      </trkpt>
      <trkpt lat="45.94953" lon="4.8672">
        <ele>275</ele>
        <time>2017-12-05T10:49:55Z</time>
      </trkpt>
      <trkpt lat="45.94951" lon="4.86713">
        <ele>275</ele>
        <time>2017-12-05T10:49:56Z</time>
      </trkpt>
      <trkpt lat="45.94949" lon="4.86706">
        <ele>275</ele>
        <time>2017-12-05T10:49:57Z</time>
      </trkpt>
      <trkpt lat="45.94948" lon="4.86698">
        <ele>275</ele>
        <time>2017-12-05T10:49:58Z</time>
      </trkpt>
      <trkpt lat="45.94947" lon="4.86691">
        <ele>276</ele>
        <time>2017-12-05T10:49:59Z</time>
      </trkpt>
      <trkpt lat="45.94945" lon="4.86682">
        <ele>276</ele>
        <time>2017-12-05T10:50:00Z</time>
      </trkpt>
      <trkpt lat="45.94943" lon="4.86674">
        <ele>276</ele>
        <time>2017-12-05T10:50:01Z</time>
      </trkpt>
      <trkpt lat="45.94943" lon="4.86666">
        <ele>276</ele>
        <time>2017-12-05T10:50:02Z</time>
      </trkpt>
      <trkpt lat="45.94943" lon="4.86658">
        <ele>276</ele>
        <time>2017-12-05T10:50:03Z</time>
      </trkpt>
      <trkpt lat="45.94943" lon="4.8665">
        <ele>276</ele>
        <time>2017-12-05T10:50:04Z</time>
      </trkpt>
      <trkpt lat="45.94945" lon="4.86643">
        <ele>276</ele>
        <time>2017-12-05T10:50:05Z</time>
      </trkpt>
      <trkpt lat="45.94947" lon="4.86637">
        <ele>276</ele>
        <time>2017-12-05T10:50:06Z</time>
      </trkpt>
      <trkpt lat="45.94953" lon="4.86628">
        <ele>276</ele>
        <time>2017-12-05T10:50:08Z</time>
      </trkpt>
      <trkpt lat="45.94957" lon="4.86623">
        <ele>276</ele>
        <time>2017-12-05T10:50:09Z</time>
      </trkpt>
      <trkpt lat="45.94961" lon="4.86619">
        <ele>275</ele>
        <time>2017-12-05T10:50:10Z</time>
      </trkpt>
      <trkpt lat="45.94965" lon="4.86616">
        <ele>275</ele>
        <time>2017-12-05T10:50:11Z</time>
      </trkpt>
      <trkpt lat="45.9497" lon="4.86614">
        <ele>275</ele>
        <time>2017-12-05T10:50:12Z</time>
      </trkpt>
      <trkpt lat="45.94975" lon="4.86614">
        <ele>275</ele>
        <time>2017-12-05T10:50:13Z</time>
      </trkpt>
      <trkpt lat="45.9498" lon="4.86613">
        <ele>275</ele>
        <time>2017-12-05T10:50:14Z</time>
      </trkpt>
      <trkpt lat="45.94985" lon="4.86612">
        <ele>275</ele>
        <time>2017-12-05T10:50:15Z</time>
      </trkpt>
      <trkpt lat="45.9499" lon="4.86611">
        <ele>275</ele>
        <time>2017-12-05T10:50:16Z</time>
      </trkpt>
      <trkpt lat="45.94995" lon="4.8661">
        <ele>275</ele>
        <time>2017-12-05T10:50:17Z</time>
      </trkpt>
      <trkpt lat="45.95" lon="4.86611">
        <ele>273</ele>
        <time>2017-12-05T10:50:18Z</time>
      </trkpt>
      <trkpt lat="45.95006" lon="4.86611">
        <ele>273</ele>
        <time>2017-12-05T10:50:19Z</time>
      </trkpt>
      <trkpt lat="45.9501" lon="4.86611">
        <ele>273</ele>
        <time>2017-12-05T10:50:20Z</time>
      </trkpt>
      <trkpt lat="45.95015" lon="4.8661">
        <ele>273</ele>
        <time>2017-12-05T10:50:21Z</time>
      </trkpt>
      <trkpt lat="45.9502" lon="4.86609">
        <ele>273</ele>
        <time>2017-12-05T10:50:22Z</time>
      </trkpt>
      <trkpt lat="45.95026" lon="4.86609">
        <ele>273</ele>
        <time>2017-12-05T10:50:23Z</time>
      </trkpt>
      <trkpt lat="45.95031" lon="4.86607">
        <ele>273</ele>
        <time>2017-12-05T10:50:24Z</time>
      </trkpt>
      <trkpt lat="45.95035" lon="4.86606">
        <ele>273</ele>
        <time>2017-12-05T10:50:25Z</time>
      </trkpt>
      <trkpt lat="45.95041" lon="4.86604">
        <ele>273</ele>
        <time>2017-12-05T10:50:26Z</time>
      </trkpt>
      <trkpt lat="45.95046" lon="4.86603">
        <ele>272</ele>
        <time>2017-12-05T10:50:27Z</time>
      </trkpt>
      <trkpt lat="45.95051" lon="4.86602">
        <ele>272</ele>
        <time>2017-12-05T10:50:28Z</time>
      </trkpt>
      <trkpt lat="45.95056" lon="4.86601">
        <ele>272</ele>
        <time>2017-12-05T10:50:29Z</time>
      </trkpt>
      <trkpt lat="45.95061" lon="4.86599">
        <ele>272</ele>
        <time>2017-12-05T10:50:30Z</time>
      </trkpt>
      <trkpt lat="45.95067" lon="4.86598">
        <ele>272</ele>
        <time>2017-12-05T10:50:31Z</time>
      </trkpt>
      <trkpt lat="45.95072" lon="4.86597">
        <ele>272</ele>
        <time>2017-12-05T10:50:32Z</time>
      </trkpt>
      <trkpt lat="45.95078" lon="4.86594">
        <ele>272</ele>
        <time>2017-12-05T10:50:33Z</time>
      </trkpt>
      <trkpt lat="45.95083" lon="4.86592">
        <ele>271</ele>
        <time>2017-12-05T10:50:34Z</time>
      </trkpt>
      <trkpt lat="45.95088" lon="4.86591">
        <ele>271</ele>
        <time>2017-12-05T10:50:35Z</time>
      </trkpt>
      <trkpt lat="45.95093" lon="4.8659">
        <ele>271</ele>
        <time>2017-12-05T10:50:36Z</time>
      </trkpt>
      <trkpt lat="45.95099" lon="4.8659">
        <ele>271</ele>
        <time>2017-12-05T10:50:37Z</time>
      </trkpt>
      <trkpt lat="45.95105" lon="4.86588">
        <ele>271</ele>
        <time>2017-12-05T10:50:38Z</time>
      </trkpt>
      <trkpt lat="45.95109" lon="4.86588">
        <ele>271</ele>
        <time>2017-12-05T10:50:39Z</time>
      </trkpt>
      <trkpt lat="45.95114" lon="4.86587">
        <ele>270</ele>
        <time>2017-12-05T10:50:40Z</time>
      </trkpt>
      <trkpt lat="45.95119" lon="4.86587">
        <ele>270</ele>
        <time>2017-12-05T10:50:41Z</time>
      </trkpt>
      <trkpt lat="45.95125" lon="4.86586">
        <ele>270</ele>
        <time>2017-12-05T10:50:42Z</time>
      </trkpt>
      <trkpt lat="45.9513" lon="4.86586">
        <ele>270</ele>
        <time>2017-12-05T10:50:43Z</time>
      </trkpt>
      <trkpt lat="45.95136" lon="4.86585">
        <ele>270</ele>
        <time>2017-12-05T10:50:44Z</time>
      </trkpt>
      <trkpt lat="45.95141" lon="4.86585">
        <ele>270</ele>
        <time>2017-12-05T10:50:45Z</time>
      </trkpt>
      <trkpt lat="45.95147" lon="4.86583">
        <ele>270</ele>
        <time>2017-12-05T10:50:46Z</time>
      </trkpt>
      <trkpt lat="45.95153" lon="4.86583">
        <ele>270</ele>
        <time>2017-12-05T10:50:47Z</time>
      </trkpt>
      <trkpt lat="45.95159" lon="4.86584">
        <ele>269</ele>
        <time>2017-12-05T10:50:48Z</time>
      </trkpt>
      <trkpt lat="45.95165" lon="4.86584">
        <ele>269</ele>
        <time>2017-12-05T10:50:49Z</time>
      </trkpt>
      <trkpt lat="45.95171" lon="4.86584">
        <ele>269</ele>
        <time>2017-12-05T10:50:50Z</time>
      </trkpt>
      <trkpt lat="45.95176" lon="4.86583">
        <ele>269</ele>
        <time>2017-12-05T10:50:51Z</time>
      </trkpt>
      <trkpt lat="45.95183" lon="4.86582">
        <ele>269</ele>
        <time>2017-12-05T10:50:52Z</time>
      </trkpt>
      <trkpt lat="45.95188" lon="4.86581">
        <ele>269</ele>
        <time>2017-12-05T10:50:53Z</time>
      </trkpt>
      <trkpt lat="45.95195" lon="4.86581">
        <ele>268</ele>
        <time>2017-12-05T10:50:54Z</time>
      </trkpt>
      <trkpt lat="45.95201" lon="4.86581">
        <ele>268</ele>
        <time>2017-12-05T10:50:55Z</time>
      </trkpt>
      <trkpt lat="45.95207" lon="4.86582">
        <ele>268</ele>
        <time>2017-12-05T10:50:56Z</time>
      </trkpt>
      <trkpt lat="45.95213" lon="4.86582">
        <ele>268</ele>
        <time>2017-12-05T10:50:57Z</time>
      </trkpt>
      <trkpt lat="45.9522" lon="4.86583">
        <ele>268</ele>
        <time>2017-12-05T10:50:58Z</time>
      </trkpt>
      <trkpt lat="45.95227" lon="4.86583">
        <ele>268</ele>
        <time>2017-12-05T10:50:59Z</time>
      </trkpt>
      <trkpt lat="45.95234" lon="4.86582">
        <ele>268</ele>
        <time>2017-12-05T10:51:00Z</time>
      </trkpt>
      <trkpt lat="45.9524" lon="4.86583">
        <ele>268</ele>
        <time>2017-12-05T10:51:01Z</time>
      </trkpt>
      <trkpt lat="45.95247" lon="4.86584">
        <ele>268</ele>
        <time>2017-12-05T10:51:02Z</time>
      </trkpt>
      <trkpt lat="45.95252" lon="4.86582">
        <ele>268</ele>
        <time>2017-12-05T10:51:03Z</time>
      </trkpt>
      <trkpt lat="45.9526" lon="4.8658">
        <ele>268</ele>
        <time>2017-12-05T10:51:05Z</time>
      </trkpt>
      <trkpt lat="45.95262" lon="4.86578">
        <ele>267</ele>
        <time>2017-12-05T10:51:06Z</time>
      </trkpt>
      <trkpt lat="45.95266" lon="4.86568">
        <ele>267</ele>
        <time>2017-12-05T10:51:09Z</time>
      </trkpt>
      <trkpt lat="45.95264" lon="4.86563">
        <ele>267</ele>
        <time>2017-12-05T10:51:10Z</time>
      </trkpt>
      <trkpt lat="45.9526" lon="4.86552">
        <ele>267</ele>
        <time>2017-12-05T10:51:12Z</time>
      </trkpt>
      <trkpt lat="45.95257" lon="4.86547">
        <ele>267</ele>
        <time>2017-12-05T10:51:13Z</time>
      </trkpt>
      <trkpt lat="45.95254" lon="4.86543">
        <ele>267</ele>
        <time>2017-12-05T10:51:14Z</time>
      </trkpt>
      <trkpt lat="45.9525" lon="4.86538">
        <ele>268</ele>
        <time>2017-12-05T10:51:15Z</time>
      </trkpt>
      <trkpt lat="45.95244" lon="4.86529">
        <ele>268</ele>
        <time>2017-12-05T10:51:17Z</time>
      </trkpt>
      <trkpt lat="45.95238" lon="4.86528">
        <ele>268</ele>
        <time>2017-12-05T10:51:18Z</time>
      </trkpt>
      <trkpt lat="45.95234" lon="4.86524">
        <ele>268</ele>
        <time>2017-12-05T10:51:19Z</time>
      </trkpt>
      <trkpt lat="45.95228" lon="4.86519">
        <ele>268</ele>
        <time>2017-12-05T10:51:20Z</time>
      </trkpt>
      <trkpt lat="45.95224" lon="4.86512">
        <ele>268</ele>
        <time>2017-12-05T10:51:21Z</time>
      </trkpt>
      <trkpt lat="45.9522" lon="4.86505">
        <ele>268</ele>
        <time>2017-12-05T10:51:22Z</time>
      </trkpt>
      <trkpt lat="45.95215" lon="4.865">
        <ele>268</ele>
        <time>2017-12-05T10:51:23Z</time>
      </trkpt>
      <trkpt lat="45.95211" lon="4.86495">
        <ele>268</ele>
        <time>2017-12-05T10:51:24Z</time>
      </trkpt>
      <trkpt lat="45.95206" lon="4.86489">
        <ele>268</ele>
        <time>2017-12-05T10:51:25Z</time>
      </trkpt>
      <trkpt lat="45.95202" lon="4.86484">
        <ele>268</ele>
        <time>2017-12-05T10:51:26Z</time>
      </trkpt>
      <trkpt lat="45.95198" lon="4.86479">
        <ele>268</ele>
        <time>2017-12-05T10:51:27Z</time>
      </trkpt>
      <trkpt lat="45.95194" lon="4.86473">
        <ele>268</ele>
        <time>2017-12-05T10:51:28Z</time>
      </trkpt>
      <trkpt lat="45.95191" lon="4.86465">
        <ele>268</ele>
        <time>2017-12-05T10:51:29Z</time>
      </trkpt>
      <trkpt lat="45.95187" lon="4.8646">
        <ele>268</ele>
        <time>2017-12-05T10:51:30Z</time>
      </trkpt>
      <trkpt lat="45.95182" lon="4.86456">
        <ele>268</ele>
        <time>2017-12-05T10:51:31Z</time>
      </trkpt>
      <trkpt lat="45.95177" lon="4.86451">
        <ele>268</ele>
        <time>2017-12-05T10:51:32Z</time>
      </trkpt>
      <trkpt lat="45.95173" lon="4.86447">
        <ele>268</ele>
        <time>2017-12-05T10:51:33Z</time>
      </trkpt>
      <trkpt lat="45.95169" lon="4.86441">
        <ele>267</ele>
        <time>2017-12-05T10:51:34Z</time>
      </trkpt>
      <trkpt lat="45.95164" lon="4.86437">
        <ele>268</ele>
        <time>2017-12-05T10:51:35Z</time>
      </trkpt>
      <trkpt lat="45.95161" lon="4.86432">
        <ele>268</ele>
        <time>2017-12-05T10:51:36Z</time>
      </trkpt>
      <trkpt lat="45.95156" lon="4.86427">
        <ele>268</ele>
        <time>2017-12-05T10:51:37Z</time>
      </trkpt>
      <trkpt lat="45.95152" lon="4.86423">
        <ele>268</ele>
        <time>2017-12-05T10:51:38Z</time>
      </trkpt>
      <trkpt lat="45.95148" lon="4.86416">
        <ele>268</ele>
        <time>2017-12-05T10:51:39Z</time>
      </trkpt>
      <trkpt lat="45.95145" lon="4.86411">
        <ele>268</ele>
        <time>2017-12-05T10:51:40Z</time>
      </trkpt>
      <trkpt lat="45.9514" lon="4.86407">
        <ele>268</ele>
        <time>2017-12-05T10:51:41Z</time>
      </trkpt>
      <trkpt lat="45.95137" lon="4.86401">
        <ele>268</ele>
        <time>2017-12-05T10:51:42Z</time>
      </trkpt>
      <trkpt lat="45.95133" lon="4.86397">
        <ele>268</ele>
        <time>2017-12-05T10:51:43Z</time>
      </trkpt>
      <trkpt lat="45.95131" lon="4.86392">
        <ele>268</ele>
        <time>2017-12-05T10:51:44Z</time>
      </trkpt>
      <trkpt lat="45.95127" lon="4.86387">
        <ele>268</ele>
        <time>2017-12-05T10:51:45Z</time>
      </trkpt>
      <trkpt lat="45.95122" lon="4.86382">
        <ele>269</ele>
        <time>2017-12-05T10:51:46Z</time>
      </trkpt>
      <trkpt lat="45.95118" lon="4.86376">
        <ele>269</ele>
        <time>2017-12-05T10:51:47Z</time>
      </trkpt>
      <trkpt lat="45.95113" lon="4.8637">
        <ele>269</ele>
        <time>2017-12-05T10:51:48Z</time>
      </trkpt>
      <trkpt lat="45.9511" lon="4.86366">
        <ele>269</ele>
        <time>2017-12-05T10:51:49Z</time>
      </trkpt>
      <trkpt lat="45.95106" lon="4.86359">
        <ele>269</ele>
        <time>2017-12-05T10:51:50Z</time>
      </trkpt>
      <trkpt lat="45.95101" lon="4.86354">
        <ele>269</ele>
        <time>2017-12-05T10:51:51Z</time>
      </trkpt>
      <trkpt lat="45.95097" lon="4.8635">
        <ele>269</ele>
        <time>2017-12-05T10:51:52Z</time>
      </trkpt>
      <trkpt lat="45.95093" lon="4.86346">
        <ele>269</ele>
        <time>2017-12-05T10:51:53Z</time>
      </trkpt>
      <trkpt lat="45.95089" lon="4.86342">
        <ele>269</ele>
        <time>2017-12-05T10:51:54Z</time>
      </trkpt>
      <trkpt lat="45.95085" lon="4.86337">
        <ele>269</ele>
        <time>2017-12-05T10:51:55Z</time>
      </trkpt>
      <trkpt lat="45.95081" lon="4.86331">
        <ele>269</ele>
        <time>2017-12-05T10:51:56Z</time>
      </trkpt>
      <trkpt lat="45.95077" lon="4.86327">
        <ele>270</ele>
        <time>2017-12-05T10:51:57Z</time>
      </trkpt>
      <trkpt lat="45.95073" lon="4.86323">
        <ele>270</ele>
        <time>2017-12-05T10:51:58Z</time>
      </trkpt>
      <trkpt lat="45.95068" lon="4.86317">
        <ele>270</ele>
        <time>2017-12-05T10:51:59Z</time>
      </trkpt>
      <trkpt lat="45.95064" lon="4.86313">
        <ele>270</ele>
        <time>2017-12-05T10:52:00Z</time>
      </trkpt>
      <trkpt lat="45.95059" lon="4.86308">
        <ele>271</ele>
        <time>2017-12-05T10:52:01Z</time>
      </trkpt>
      <trkpt lat="45.95054" lon="4.86303">
        <ele>271</ele>
        <time>2017-12-05T10:52:02Z</time>
      </trkpt>
      <trkpt lat="45.9505" lon="4.86297">
        <ele>271</ele>
        <time>2017-12-05T10:52:03Z</time>
      </trkpt>
      <trkpt lat="45.95047" lon="4.86293">
        <ele>271</ele>
        <time>2017-12-05T10:52:04Z</time>
      </trkpt>
      <trkpt lat="45.95042" lon="4.86288">
        <ele>271</ele>
        <time>2017-12-05T10:52:05Z</time>
      </trkpt>
      <trkpt lat="45.95038" lon="4.86283">
        <ele>271</ele>
        <time>2017-12-05T10:52:06Z</time>
      </trkpt>
      <trkpt lat="45.95035" lon="4.86278">
        <ele>271</ele>
        <time>2017-12-05T10:52:07Z</time>
      </trkpt>
      <trkpt lat="45.95032" lon="4.86273">
        <ele>271</ele>
        <time>2017-12-05T10:52:08Z</time>
      </trkpt>
      <trkpt lat="45.95028" lon="4.86268">
        <ele>271</ele>
        <time>2017-12-05T10:52:09Z</time>
      </trkpt>
      <trkpt lat="45.95024" lon="4.86264">
        <ele>271</ele>
        <time>2017-12-05T10:52:10Z</time>
      </trkpt>
      <trkpt lat="45.95017" lon="4.86257">
        <ele>271</ele>
        <time>2017-12-05T10:52:12Z</time>
      </trkpt>
      <trkpt lat="45.95013" lon="4.86252">
        <ele>272</ele>
        <time>2017-12-05T10:52:13Z</time>
      </trkpt>
      <trkpt lat="45.9501" lon="4.86248">
        <ele>272</ele>
        <time>2017-12-05T10:52:14Z</time>
      </trkpt>
      <trkpt lat="45.95006" lon="4.86244">
        <ele>272</ele>
        <time>2017-12-05T10:52:15Z</time>
      </trkpt>
      <trkpt lat="45.95002" lon="4.86238">
        <ele>272</ele>
        <time>2017-12-05T10:52:16Z</time>
      </trkpt>
      <trkpt lat="45.94999" lon="4.86233">
        <ele>272</ele>
        <time>2017-12-05T10:52:17Z</time>
      </trkpt>
      <trkpt lat="45.94995" lon="4.86227">
        <ele>272</ele>
        <time>2017-12-05T10:52:18Z</time>
      </trkpt>
      <trkpt lat="45.94992" lon="4.86222">
        <ele>272</ele>
        <time>2017-12-05T10:52:19Z</time>
      </trkpt>
      <trkpt lat="45.94987" lon="4.86217">
        <ele>272</ele>
        <time>2017-12-05T10:52:20Z</time>
      </trkpt>
      <trkpt lat="45.94984" lon="4.86213">
        <ele>272</ele>
        <time>2017-12-05T10:52:21Z</time>
      </trkpt>
      <trkpt lat="45.94981" lon="4.86208">
        <ele>272</ele>
        <time>2017-12-05T10:52:22Z</time>
      </trkpt>
      <trkpt lat="45.94977" lon="4.86204">
        <ele>272</ele>
        <time>2017-12-05T10:52:23Z</time>
      </trkpt>
      <trkpt lat="45.94973" lon="4.86199">
        <ele>272</ele>
        <time>2017-12-05T10:52:24Z</time>
      </trkpt>
      <trkpt lat="45.94969" lon="4.86194">
        <ele>272</ele>
        <time>2017-12-05T10:52:25Z</time>
      </trkpt>
      <trkpt lat="45.94963" lon="4.86185">
        <ele>272</ele>
        <time>2017-12-05T10:52:27Z</time>
      </trkpt>
      <trkpt lat="45.94959" lon="4.86181">
        <ele>272</ele>
        <time>2017-12-05T10:52:28Z</time>
      </trkpt>
      <trkpt lat="45.94955" lon="4.86177">
        <ele>273</ele>
        <time>2017-12-05T10:52:29Z</time>
      </trkpt>
      <trkpt lat="45.94951" lon="4.86171">
        <ele>273</ele>
        <time>2017-12-05T10:52:30Z</time>
      </trkpt>
      <trkpt lat="45.94947" lon="4.86167">
        <ele>273</ele>
        <time>2017-12-05T10:52:31Z</time>
      </trkpt>
      <trkpt lat="45.94943" lon="4.86161">
        <ele>273</ele>
        <time>2017-12-05T10:52:32Z</time>
      </trkpt>
      <trkpt lat="45.9494" lon="4.86157">
        <ele>273</ele>
        <time>2017-12-05T10:52:33Z</time>
      </trkpt>
      <trkpt lat="45.94935" lon="4.86152">
        <ele>273</ele>
        <time>2017-12-05T10:52:34Z</time>
      </trkpt>
      <trkpt lat="45.94932" lon="4.86146">
        <ele>273</ele>
        <time>2017-12-05T10:52:35Z</time>
      </trkpt>
      <trkpt lat="45.94928" lon="4.86141">
        <ele>273</ele>
        <time>2017-12-05T10:52:36Z</time>
      </trkpt>
      <trkpt lat="45.94925" lon="4.86135">
        <ele>273</ele>
        <time>2017-12-05T10:52:37Z</time>
      </trkpt>
      <trkpt lat="45.94921" lon="4.8613">
        <ele>273</ele>
        <time>2017-12-05T10:52:38Z</time>
      </trkpt>
      <trkpt lat="45.94918" lon="4.86125">
        <ele>273</ele>
        <time>2017-12-05T10:52:39Z</time>
      </trkpt>
      <trkpt lat="45.94915" lon="4.86119">
        <ele>274</ele>
        <time>2017-12-05T10:52:40Z</time>
      </trkpt>
      <trkpt lat="45.94913" lon="4.86113">
        <ele>274</ele>
        <time>2017-12-05T10:52:41Z</time>
      </trkpt>
      <trkpt lat="45.94909" lon="4.86107">
        <ele>274</ele>
        <time>2017-12-05T10:52:42Z</time>
      </trkpt>
      <trkpt lat="45.94906" lon="4.861">
        <ele>274</ele>
        <time>2017-12-05T10:52:43Z</time>
      </trkpt>
      <trkpt lat="45.94902" lon="4.86093">
        <ele>274</ele>
        <time>2017-12-05T10:52:44Z</time>
      </trkpt>
      <trkpt lat="45.94898" lon="4.86086">
        <ele>274</ele>
        <time>2017-12-05T10:52:45Z</time>
      </trkpt>
      <trkpt lat="45.94897" lon="4.8608">
        <ele>274</ele>
        <time>2017-12-05T10:52:46Z</time>
      </trkpt>
      <trkpt lat="45.94895" lon="4.86074">
        <ele>274</ele>
        <time>2017-12-05T10:52:47Z</time>
      </trkpt>
      <trkpt lat="45.94894" lon="4.86066">
        <ele>274</ele>
        <time>2017-12-05T10:52:48Z</time>
      </trkpt>
      <trkpt lat="45.94893" lon="4.8606">
        <ele>274</ele>
        <time>2017-12-05T10:52:49Z</time>
      </trkpt>
      <trkpt lat="45.9489" lon="4.86053">
        <ele>274</ele>
        <time>2017-12-05T10:52:50Z</time>
      </trkpt>
      <trkpt lat="45.94888" lon="4.86046">
        <ele>274</ele>
        <time>2017-12-05T10:52:51Z</time>
      </trkpt>
      <trkpt lat="45.94886" lon="4.86038">
        <ele>274</ele>
        <time>2017-12-05T10:52:52Z</time>
      </trkpt>
      <trkpt lat="45.94884" lon="4.86031">
        <ele>274</ele>
        <time>2017-12-05T10:52:53Z</time>
      </trkpt>
      <trkpt lat="45.94883" lon="4.86025">
        <ele>274</ele>
        <time>2017-12-05T10:52:54Z</time>
      </trkpt>
      <trkpt lat="45.9488" lon="4.86013">
        <ele>274</ele>
        <time>2017-12-05T10:52:56Z</time>
      </trkpt>
      <trkpt lat="45.94878" lon="4.86007">
        <ele>274</ele>
        <time>2017-12-05T10:52:57Z</time>
      </trkpt>
      <trkpt lat="45.94875" lon="4.85996">
        <ele>275</ele>
        <time>2017-12-05T10:52:59Z</time>
      </trkpt>
      <trkpt lat="45.94873" lon="4.85988">
        <ele>275</ele>
        <time>2017-12-05T10:53:00Z</time>
      </trkpt>
      <trkpt lat="45.94871" lon="4.85981">
        <ele>275</ele>
        <time>2017-12-05T10:53:01Z</time>
      </trkpt>
      <trkpt lat="45.94869" lon="4.85973">
        <ele>275</ele>
        <time>2017-12-05T10:53:02Z</time>
      </trkpt>
      <trkpt lat="45.94867" lon="4.85966">
        <ele>275</ele>
        <time>2017-12-05T10:53:03Z</time>
      </trkpt>
      <trkpt lat="45.94865" lon="4.85958">
        <ele>275</ele>
        <time>2017-12-05T10:53:04Z</time>
      </trkpt>
      <trkpt lat="45.94863" lon="4.85951">
        <ele>275</ele>
        <time>2017-12-05T10:53:05Z</time>
      </trkpt>
      <trkpt lat="45.94861" lon="4.85944">
        <ele>275</ele>
        <time>2017-12-05T10:53:06Z</time>
      </trkpt>
      <trkpt lat="45.94859" lon="4.85937">
        <ele>275</ele>
        <time>2017-12-05T10:53:07Z</time>
      </trkpt>
      <trkpt lat="45.94858" lon="4.85931">
        <ele>275</ele>
        <time>2017-12-05T10:53:08Z</time>
      </trkpt>
      <trkpt lat="45.94856" lon="4.85924">
        <ele>275</ele>
        <time>2017-12-05T10:53:09Z</time>
      </trkpt>
      <trkpt lat="45.94855" lon="4.85917">
        <ele>275</ele>
        <time>2017-12-05T10:53:10Z</time>
      </trkpt>
      <trkpt lat="45.94853" lon="4.8591">
        <ele>276</ele>
        <time>2017-12-05T10:53:11Z</time>
      </trkpt>
      <trkpt lat="45.9485" lon="4.85903">
        <ele>276</ele>
        <time>2017-12-05T10:53:12Z</time>
      </trkpt>
      <trkpt lat="45.94848" lon="4.85896">
        <ele>276</ele>
        <time>2017-12-05T10:53:13Z</time>
      </trkpt>
      <trkpt lat="45.94846" lon="4.85888">
        <ele>276</ele>
        <time>2017-12-05T10:53:14Z</time>
      </trkpt>
      <trkpt lat="45.94844" lon="4.8588">
        <ele>276</ele>
        <time>2017-12-05T10:53:15Z</time>
      </trkpt>
      <trkpt lat="45.94842" lon="4.8587">
        <ele>276</ele>
        <time>2017-12-05T10:53:16Z</time>
      </trkpt>
      <trkpt lat="45.94839" lon="4.85862">
        <ele>276</ele>
        <time>2017-12-05T10:53:17Z</time>
      </trkpt>
      <trkpt lat="45.94837" lon="4.85855">
        <ele>276</ele>
        <time>2017-12-05T10:53:18Z</time>
      </trkpt>
      <trkpt lat="45.94837" lon="4.85846">
        <ele>277</ele>
        <time>2017-12-05T10:53:19Z</time>
      </trkpt>
      <trkpt lat="45.94834" lon="4.85838">
        <ele>277</ele>
        <time>2017-12-05T10:53:20Z</time>
      </trkpt>
      <trkpt lat="45.94832" lon="4.8583">
        <ele>277</ele>
        <time>2017-12-05T10:53:21Z</time>
      </trkpt>
      <trkpt lat="45.9483" lon="4.85821">
        <ele>277</ele>
        <time>2017-12-05T10:53:22Z</time>
      </trkpt>
      <trkpt lat="45.94828" lon="4.85813">
        <ele>278</ele>
        <time>2017-12-05T10:53:23Z</time>
      </trkpt>
      <trkpt lat="45.94826" lon="4.85804">
        <ele>278</ele>
        <time>2017-12-05T10:53:24Z</time>
      </trkpt>
      <trkpt lat="45.94825" lon="4.85796">
        <ele>278</ele>
        <time>2017-12-05T10:53:25Z</time>
      </trkpt>
      <trkpt lat="45.94822" lon="4.85786">
        <ele>278</ele>
        <time>2017-12-05T10:53:26Z</time>
      </trkpt>
      <trkpt lat="45.9482" lon="4.85778">
        <ele>278</ele>
        <time>2017-12-05T10:53:27Z</time>
      </trkpt>
      <trkpt lat="45.94817" lon="4.85769">
        <ele>278</ele>
        <time>2017-12-05T10:53:28Z</time>
      </trkpt>
      <trkpt lat="45.94815" lon="4.85761">
        <ele>278</ele>
        <time>2017-12-05T10:53:29Z</time>
      </trkpt>
      <trkpt lat="45.94812" lon="4.85753">
        <ele>278</ele>
        <time>2017-12-05T10:53:30Z</time>
      </trkpt>
      <trkpt lat="45.9481" lon="4.85745">
        <ele>279</ele>
        <time>2017-12-05T10:53:31Z</time>
      </trkpt>
      <trkpt lat="45.94808" lon="4.85736">
        <ele>279</ele>
        <time>2017-12-05T10:53:32Z</time>
      </trkpt>
      <trkpt lat="45.94805" lon="4.85729">
        <ele>280</ele>
        <time>2017-12-05T10:53:33Z</time>
      </trkpt>
      <trkpt lat="45.94803" lon="4.85721">
        <ele>280</ele>
        <time>2017-12-05T10:53:34Z</time>
      </trkpt>
      <trkpt lat="45.94801" lon="4.85715">
        <ele>280</ele>
        <time>2017-12-05T10:53:35Z</time>
      </trkpt>
      <trkpt lat="45.948" lon="4.85707">
        <ele>280</ele>
        <time>2017-12-05T10:53:36Z</time>
      </trkpt>
      <trkpt lat="45.94798" lon="4.85701">
        <ele>280</ele>
        <time>2017-12-05T10:53:37Z</time>
      </trkpt>
      <trkpt lat="45.94796" lon="4.85694">
        <ele>280</ele>
        <time>2017-12-05T10:53:38Z</time>
      </trkpt>
      <trkpt lat="45.94793" lon="4.85688">
        <ele>280</ele>
        <time>2017-12-05T10:53:39Z</time>
      </trkpt>
      <trkpt lat="45.94792" lon="4.85681">
        <ele>280</ele>
        <time>2017-12-05T10:53:40Z</time>
      </trkpt>
      <trkpt lat="45.9479" lon="4.85674">
        <ele>280</ele>
        <time>2017-12-05T10:53:41Z</time>
      </trkpt>
      <trkpt lat="45.94788" lon="4.85668">
        <ele>280</ele>
        <time>2017-12-05T10:53:42Z</time>
      </trkpt>
      <trkpt lat="45.94786" lon="4.85661">
        <ele>281</ele>
        <time>2017-12-05T10:53:43Z</time>
      </trkpt>
      <trkpt lat="45.94785" lon="4.85654">
        <ele>281</ele>
        <time>2017-12-05T10:53:44Z</time>
      </trkpt>
      <trkpt lat="45.94783" lon="4.85647">
        <ele>281</ele>
        <time>2017-12-05T10:53:45Z</time>
      </trkpt>
      <trkpt lat="45.94781" lon="4.85641">
        <ele>281</ele>
        <time>2017-12-05T10:53:46Z</time>
      </trkpt>
      <trkpt lat="45.94779" lon="4.85634">
        <ele>281</ele>
        <time>2017-12-05T10:53:47Z</time>
      </trkpt>
      <trkpt lat="45.94777" lon="4.85627">
        <ele>280</ele>
        <time>2017-12-05T10:53:48Z</time>
      </trkpt>
      <trkpt lat="45.94775" lon="4.8562">
        <ele>280</ele>
        <time>2017-12-05T10:53:49Z</time>
      </trkpt>
      <trkpt lat="45.94773" lon="4.85613">
        <ele>280</ele>
        <time>2017-12-05T10:53:50Z</time>
      </trkpt>
      <trkpt lat="45.94772" lon="4.85606">
        <ele>280</ele>
        <time>2017-12-05T10:53:51Z</time>
      </trkpt>
      <trkpt lat="45.9477" lon="4.85598">
        <ele>280</ele>
        <time>2017-12-05T10:53:52Z</time>
      </trkpt>
      <trkpt lat="45.94767" lon="4.85591">
        <ele>280</ele>
        <time>2017-12-05T10:53:53Z</time>
      </trkpt>
      <trkpt lat="45.94766" lon="4.85582">
        <ele>279</ele>
        <time>2017-12-05T10:53:54Z</time>
      </trkpt>
      <trkpt lat="45.94765" lon="4.85573">
        <ele>279</ele>
        <time>2017-12-05T10:53:55Z</time>
      </trkpt>
      <trkpt lat="45.94763" lon="4.85564">
        <ele>279</ele>
        <time>2017-12-05T10:53:56Z</time>
      </trkpt>
      <trkpt lat="45.94761" lon="4.85554">
        <ele>278</ele>
        <time>2017-12-05T10:53:57Z</time>
      </trkpt>
      <trkpt lat="45.94759" lon="4.85544">
        <ele>278</ele>
        <time>2017-12-05T10:53:58Z</time>
      </trkpt>
      <trkpt lat="45.94757" lon="4.85533">
        <ele>278</ele>
        <time>2017-12-05T10:53:59Z</time>
      </trkpt>
      <trkpt lat="45.94756" lon="4.85522">
        <ele>277</ele>
        <time>2017-12-05T10:54:00Z</time>
      </trkpt>
      <trkpt lat="45.94754" lon="4.85512">
        <ele>277</ele>
        <time>2017-12-05T10:54:01Z</time>
      </trkpt>
      <trkpt lat="45.94754" lon="4.855">
        <ele>276</ele>
        <time>2017-12-05T10:54:02Z</time>
      </trkpt>
      <trkpt lat="45.94752" lon="4.85488">
        <ele>276</ele>
        <time>2017-12-05T10:54:03Z</time>
      </trkpt>
      <trkpt lat="45.94751" lon="4.85477">
        <ele>275</ele>
        <time>2017-12-05T10:54:04Z</time>
      </trkpt>
      <trkpt lat="45.94749" lon="4.85465">
        <ele>274</ele>
        <time>2017-12-05T10:54:05Z</time>
      </trkpt>
      <trkpt lat="45.94747" lon="4.85454">
        <ele>274</ele>
        <time>2017-12-05T10:54:06Z</time>
      </trkpt>
      <trkpt lat="45.94746" lon="4.85442">
        <ele>274</ele>
        <time>2017-12-05T10:54:07Z</time>
      </trkpt>
      <trkpt lat="45.94745" lon="4.8543">
        <ele>273</ele>
        <time>2017-12-05T10:54:08Z</time>
      </trkpt>
      <trkpt lat="45.94744" lon="4.85417">
        <ele>273</ele>
        <time>2017-12-05T10:54:09Z</time>
      </trkpt>
      <trkpt lat="45.94742" lon="4.85405">
        <ele>272</ele>
        <time>2017-12-05T10:54:10Z</time>
      </trkpt>
      <trkpt lat="45.94742" lon="4.85394">
        <ele>272</ele>
        <time>2017-12-05T10:54:11Z</time>
      </trkpt>
      <trkpt lat="45.94741" lon="4.85382">
        <ele>272</ele>
        <time>2017-12-05T10:54:12Z</time>
      </trkpt>
      <trkpt lat="45.9474" lon="4.85371">
        <ele>271</ele>
        <time>2017-12-05T10:54:13Z</time>
      </trkpt>
      <trkpt lat="45.94739" lon="4.85361">
        <ele>271</ele>
        <time>2017-12-05T10:54:14Z</time>
      </trkpt>
      <trkpt lat="45.94738" lon="4.8535">
        <ele>271</ele>
        <time>2017-12-05T10:54:15Z</time>
      </trkpt>
      <trkpt lat="45.94738" lon="4.85339">
        <ele>271</ele>
        <time>2017-12-05T10:54:16Z</time>
      </trkpt>
      <trkpt lat="45.94736" lon="4.85329">
        <ele>270</ele>
        <time>2017-12-05T10:54:17Z</time>
      </trkpt>
      <trkpt lat="45.94735" lon="4.85318">
        <ele>270</ele>
        <time>2017-12-05T10:54:18Z</time>
      </trkpt>
      <trkpt lat="45.94733" lon="4.85307">
        <ele>270</ele>
        <time>2017-12-05T10:54:19Z</time>
      </trkpt>
      <trkpt lat="45.94732" lon="4.85298">
        <ele>270</ele>
        <time>2017-12-05T10:54:20Z</time>
      </trkpt>
      <trkpt lat="45.94731" lon="4.85286">
        <ele>269</ele>
        <time>2017-12-05T10:54:21Z</time>
      </trkpt>
      <trkpt lat="45.9473" lon="4.85277">
        <ele>269</ele>
        <time>2017-12-05T10:54:22Z</time>
      </trkpt>
      <trkpt lat="45.94728" lon="4.85268">
        <ele>269</ele>
        <time>2017-12-05T10:54:23Z</time>
      </trkpt>
      <trkpt lat="45.94728" lon="4.8526">
        <ele>269</ele>
        <time>2017-12-05T10:54:24Z</time>
      </trkpt>
      <trkpt lat="45.94727" lon="4.8525">
        <ele>269</ele>
        <time>2017-12-05T10:54:25Z</time>
      </trkpt>
      <trkpt lat="45.94727" lon="4.85242">
        <ele>269</ele>
        <time>2017-12-05T10:54:26Z</time>
      </trkpt>
      <trkpt lat="45.94726" lon="4.85235">
        <ele>269</ele>
        <time>2017-12-05T10:54:27Z</time>
      </trkpt>
      <trkpt lat="45.94725" lon="4.85228">
        <ele>269</ele>
        <time>2017-12-05T10:54:28Z</time>
      </trkpt>
      <trkpt lat="45.94724" lon="4.8522">
        <ele>269</ele>
        <time>2017-12-05T10:54:29Z</time>
      </trkpt>
      <trkpt lat="45.94722" lon="4.85212">
        <ele>269</ele>
        <time>2017-12-05T10:54:30Z</time>
      </trkpt>
      <trkpt lat="45.94722" lon="4.85201">
        <ele>269</ele>
        <time>2017-12-05T10:54:31Z</time>
      </trkpt>
      <trkpt lat="45.94721" lon="4.85192">
        <ele>269</ele>
        <time>2017-12-05T10:54:32Z</time>
      </trkpt>
      <trkpt lat="45.9472" lon="4.85184">
        <ele>269</ele>
        <time>2017-12-05T10:54:33Z</time>
      </trkpt>
      <trkpt lat="45.94719" lon="4.85176">
        <ele>269</ele>
        <time>2017-12-05T10:54:34Z</time>
      </trkpt>
      <trkpt lat="45.94719" lon="4.85164">
        <ele>269</ele>
        <time>2017-12-05T10:54:35Z</time>
      </trkpt>
      <trkpt lat="45.94718" lon="4.85154">
        <ele>269</ele>
        <time>2017-12-05T10:54:36Z</time>
      </trkpt>
      <trkpt lat="45.94717" lon="4.85145">
        <ele>269</ele>
        <time>2017-12-05T10:54:37Z</time>
      </trkpt>
      <trkpt lat="45.94715" lon="4.85136">
        <ele>269</ele>
        <time>2017-12-05T10:54:38Z</time>
      </trkpt>
      <trkpt lat="45.94715" lon="4.85126">
        <ele>269</ele>
        <time>2017-12-05T10:54:39Z</time>
      </trkpt>
      <trkpt lat="45.94713" lon="4.85118">
        <ele>269</ele>
        <time>2017-12-05T10:54:40Z</time>
      </trkpt>
      <trkpt lat="45.94712" lon="4.85109">
        <ele>269</ele>
        <time>2017-12-05T10:54:41Z</time>
      </trkpt>
      <trkpt lat="45.94711" lon="4.85099">
        <ele>269</ele>
        <time>2017-12-05T10:54:42Z</time>
      </trkpt>
      <trkpt lat="45.9471" lon="4.85091">
        <ele>269</ele>
        <time>2017-12-05T10:54:43Z</time>
      </trkpt>
      <trkpt lat="45.94708" lon="4.85082">
        <ele>269</ele>
        <time>2017-12-05T10:54:44Z</time>
      </trkpt>
      <trkpt lat="45.94707" lon="4.85073">
        <ele>269</ele>
        <time>2017-12-05T10:54:45Z</time>
      </trkpt>
      <trkpt lat="45.94706" lon="4.85063">
        <ele>269</ele>
        <time>2017-12-05T10:54:46Z</time>
      </trkpt>
      <trkpt lat="45.94705" lon="4.85053">
        <ele>269</ele>
        <time>2017-12-05T10:54:47Z</time>
      </trkpt>
      <trkpt lat="45.94703" lon="4.85044">
        <ele>269</ele>
        <time>2017-12-05T10:54:48Z</time>
      </trkpt>
      <trkpt lat="45.94702" lon="4.85033">
        <ele>269</ele>
        <time>2017-12-05T10:54:49Z</time>
      </trkpt>
      <trkpt lat="45.94701" lon="4.85024">
        <ele>269</ele>
        <time>2017-12-05T10:54:50Z</time>
      </trkpt>
      <trkpt lat="45.94701" lon="4.85014">
        <ele>269</ele>
        <time>2017-12-05T10:54:51Z</time>
      </trkpt>
      <trkpt lat="45.947" lon="4.85006">
        <ele>269</ele>
        <time>2017-12-05T10:54:52Z</time>
      </trkpt>
      <trkpt lat="45.94699" lon="4.84997">
        <ele>269</ele>
        <time>2017-12-05T10:54:53Z</time>
      </trkpt>
      <trkpt lat="45.94699" lon="4.84989">
        <ele>269</ele>
        <time>2017-12-05T10:54:54Z</time>
      </trkpt>
      <trkpt lat="45.94698" lon="4.8498">
        <ele>269</ele>
        <time>2017-12-05T10:54:55Z</time>
      </trkpt>
      <trkpt lat="45.94697" lon="4.84972">
        <ele>269</ele>
        <time>2017-12-05T10:54:56Z</time>
      </trkpt>
      <trkpt lat="45.94696" lon="4.84963">
        <ele>269</ele>
        <time>2017-12-05T10:54:57Z</time>
      </trkpt>
      <trkpt lat="45.94695" lon="4.84954">
        <ele>269</ele>
        <time>2017-12-05T10:54:58Z</time>
      </trkpt>
      <trkpt lat="45.94693" lon="4.84942">
        <ele>269</ele>
        <time>2017-12-05T10:54:59Z</time>
      </trkpt>
      <trkpt lat="45.94692" lon="4.84932">
        <ele>269</ele>
        <time>2017-12-05T10:55:00Z</time>
      </trkpt>
      <trkpt lat="45.94691" lon="4.84923">
        <ele>269</ele>
        <time>2017-12-05T10:55:01Z</time>
      </trkpt>
      <trkpt lat="45.9469" lon="4.84915">
        <ele>269</ele>
        <time>2017-12-05T10:55:02Z</time>
      </trkpt>
      <trkpt lat="45.94689" lon="4.84904">
        <ele>268</ele>
        <time>2017-12-05T10:55:03Z</time>
      </trkpt>
      <trkpt lat="45.94689" lon="4.84893">
        <ele>268</ele>
        <time>2017-12-05T10:55:04Z</time>
      </trkpt>
      <trkpt lat="45.94689" lon="4.84882">
        <ele>268</ele>
        <time>2017-12-05T10:55:05Z</time>
      </trkpt>
      <trkpt lat="45.94688" lon="4.84872">
        <ele>268</ele>
        <time>2017-12-05T10:55:06Z</time>
      </trkpt>
      <trkpt lat="45.94688" lon="4.84861">
        <ele>268</ele>
        <time>2017-12-05T10:55:07Z</time>
      </trkpt>
      <trkpt lat="45.94686" lon="4.84852">
        <ele>268</ele>
        <time>2017-12-05T10:55:08Z</time>
      </trkpt>
      <trkpt lat="45.94685" lon="4.84844">
        <ele>268</ele>
        <time>2017-12-05T10:55:09Z</time>
      </trkpt>
      <trkpt lat="45.94685" lon="4.84836">
        <ele>268</ele>
        <time>2017-12-05T10:55:10Z</time>
      </trkpt>
      <trkpt lat="45.94684" lon="4.84827">
        <ele>268</ele>
        <time>2017-12-05T10:55:11Z</time>
      </trkpt>
      <trkpt lat="45.94683" lon="4.84817">
        <ele>268</ele>
        <time>2017-12-05T10:55:12Z</time>
      </trkpt>
      <trkpt lat="45.94682" lon="4.84808">
        <ele>268</ele>
        <time>2017-12-05T10:55:13Z</time>
      </trkpt>
      <trkpt lat="45.94681" lon="4.848">
        <ele>268</ele>
        <time>2017-12-05T10:55:14Z</time>
      </trkpt>
      <trkpt lat="45.9468" lon="4.84792">
        <ele>268</ele>
        <time>2017-12-05T10:55:15Z</time>
      </trkpt>
      <trkpt lat="45.9468" lon="4.84785">
        <ele>269</ele>
        <time>2017-12-05T10:55:16Z</time>
      </trkpt>
      <trkpt lat="45.9468" lon="4.84777">
        <ele>269</ele>
        <time>2017-12-05T10:55:17Z</time>
      </trkpt>
      <trkpt lat="45.94679" lon="4.84768">
        <ele>269</ele>
        <time>2017-12-05T10:55:18Z</time>
      </trkpt>
      <trkpt lat="45.94679" lon="4.84759">
        <ele>269</ele>
        <time>2017-12-05T10:55:19Z</time>
      </trkpt>
      <trkpt lat="45.94679" lon="4.8475">
        <ele>269</ele>
        <time>2017-12-05T10:55:20Z</time>
      </trkpt>
      <trkpt lat="45.94678" lon="4.84741">
        <ele>269</ele>
        <time>2017-12-05T10:55:21Z</time>
      </trkpt>
      <trkpt lat="45.94677" lon="4.84729">
        <ele>269</ele>
        <time>2017-12-05T10:55:22Z</time>
      </trkpt>
      <trkpt lat="45.94676" lon="4.84719">
        <ele>269</ele>
        <time>2017-12-05T10:55:23Z</time>
      </trkpt>
      <trkpt lat="45.94675" lon="4.84708">
        <ele>269</ele>
        <time>2017-12-05T10:55:24Z</time>
      </trkpt>
      <trkpt lat="45.94674" lon="4.84699">
        <ele>268</ele>
        <time>2017-12-05T10:55:25Z</time>
      </trkpt>
      <trkpt lat="45.94674" lon="4.8469">
        <ele>269</ele>
        <time>2017-12-05T10:55:26Z</time>
      </trkpt>
      <trkpt lat="45.94673" lon="4.84681">
        <ele>269</ele>
        <time>2017-12-05T10:55:27Z</time>
      </trkpt>
      <trkpt lat="45.94673" lon="4.84672">
        <ele>269</ele>
        <time>2017-12-05T10:55:28Z</time>
      </trkpt>
      <trkpt lat="45.94673" lon="4.84664">
        <ele>269</ele>
        <time>2017-12-05T10:55:29Z</time>
      </trkpt>
      <trkpt lat="45.94672" lon="4.84655">
        <ele>268</ele>
        <time>2017-12-05T10:55:30Z</time>
      </trkpt>
      <trkpt lat="45.94671" lon="4.84646">
        <ele>268</ele>
        <time>2017-12-05T10:55:31Z</time>
      </trkpt>
      <trkpt lat="45.94671" lon="4.84638">
        <ele>268</ele>
        <time>2017-12-05T10:55:32Z</time>
      </trkpt>
      <trkpt lat="45.94671" lon="4.8463">
        <ele>268</ele>
        <time>2017-12-05T10:55:33Z</time>
      </trkpt>
      <trkpt lat="45.94671" lon="4.84621">
        <ele>268</ele>
        <time>2017-12-05T10:55:34Z</time>
      </trkpt>
      <trkpt lat="45.9467" lon="4.84614">
        <ele>268</ele>
        <time>2017-12-05T10:55:35Z</time>
      </trkpt>
      <trkpt lat="45.9467" lon="4.84606">
        <ele>268</ele>
        <time>2017-12-05T10:55:36Z</time>
      </trkpt>
      <trkpt lat="45.9467" lon="4.84597">
        <ele>268</ele>
        <time>2017-12-05T10:55:37Z</time>
      </trkpt>
      <trkpt lat="45.9467" lon="4.84588">
        <ele>268</ele>
        <time>2017-12-05T10:55:38Z</time>
      </trkpt>
      <trkpt lat="45.9467" lon="4.84579">
        <ele>268</ele>
        <time>2017-12-05T10:55:39Z</time>
      </trkpt>
      <trkpt lat="45.94669" lon="4.8457">
        <ele>268</ele>
        <time>2017-12-05T10:55:40Z</time>
      </trkpt>
      <trkpt lat="45.94668" lon="4.84561">
        <ele>268</ele>
        <time>2017-12-05T10:55:41Z</time>
      </trkpt>
      <trkpt lat="45.94667" lon="4.84551">
        <ele>268</ele>
        <time>2017-12-05T10:55:42Z</time>
      </trkpt>
      <trkpt lat="45.94667" lon="4.84543">
        <ele>268</ele>
        <time>2017-12-05T10:55:43Z</time>
      </trkpt>
      <trkpt lat="45.94666" lon="4.84533">
        <ele>268</ele>
        <time>2017-12-05T10:55:44Z</time>
      </trkpt>
      <trkpt lat="45.94665" lon="4.84524">
        <ele>268</ele>
        <time>2017-12-05T10:55:45Z</time>
      </trkpt>
      <trkpt lat="45.94664" lon="4.84514">
        <ele>268</ele>
        <time>2017-12-05T10:55:46Z</time>
      </trkpt>
      <trkpt lat="45.94663" lon="4.84505">
        <ele>268</ele>
        <time>2017-12-05T10:55:47Z</time>
      </trkpt>
      <trkpt lat="45.94662" lon="4.84497">
        <ele>268</ele>
        <time>2017-12-05T10:55:48Z</time>
      </trkpt>
      <trkpt lat="45.94662" lon="4.84488">
        <ele>268</ele>
        <time>2017-12-05T10:55:49Z</time>
      </trkpt>
      <trkpt lat="45.9466" lon="4.84479">
        <ele>268</ele>
        <time>2017-12-05T10:55:50Z</time>
      </trkpt>
      <trkpt lat="45.94659" lon="4.8447">
        <ele>268</ele>
        <time>2017-12-05T10:55:51Z</time>
      </trkpt>
      <trkpt lat="45.94659" lon="4.84462">
        <ele>268</ele>
        <time>2017-12-05T10:55:52Z</time>
      </trkpt>
      <trkpt lat="45.94659" lon="4.84455">
        <ele>268</ele>
        <time>2017-12-05T10:55:53Z</time>
      </trkpt>
      <trkpt lat="45.94658" lon="4.84447">
        <ele>268</ele>
        <time>2017-12-05T10:55:54Z</time>
      </trkpt>
      <trkpt lat="45.94657" lon="4.8444">
        <ele>268</ele>
        <time>2017-12-05T10:55:55Z</time>
      </trkpt>
      <trkpt lat="45.94656" lon="4.84432">
        <ele>268</ele>
        <time>2017-12-05T10:55:56Z</time>
      </trkpt>
      <trkpt lat="45.94655" lon="4.84425">
        <ele>268</ele>
        <time>2017-12-05T10:55:57Z</time>
      </trkpt>
      <trkpt lat="45.94654" lon="4.84418">
        <ele>268</ele>
        <time>2017-12-05T10:55:58Z</time>
      </trkpt>
      <trkpt lat="45.94653" lon="4.84411">
        <ele>268</ele>
        <time>2017-12-05T10:55:59Z</time>
      </trkpt>
      <trkpt lat="45.94652" lon="4.84403">
        <ele>268</ele>
        <time>2017-12-05T10:56:00Z</time>
      </trkpt>
      <trkpt lat="45.94651" lon="4.84396">
        <ele>268</ele>
        <time>2017-12-05T10:56:01Z</time>
      </trkpt>
      <trkpt lat="45.94651" lon="4.84388">
        <ele>268</ele>
        <time>2017-12-05T10:56:02Z</time>
      </trkpt>
      <trkpt lat="45.9465" lon="4.8438">
        <ele>268</ele>
        <time>2017-12-05T10:56:03Z</time>
      </trkpt>
      <trkpt lat="45.94649" lon="4.84373">
        <ele>268</ele>
        <time>2017-12-05T10:56:04Z</time>
      </trkpt>
      <trkpt lat="45.94648" lon="4.84366">
        <ele>268</ele>
        <time>2017-12-05T10:56:05Z</time>
      </trkpt>
      <trkpt lat="45.94647" lon="4.84359">
        <ele>268</ele>
        <time>2017-12-05T10:56:06Z</time>
      </trkpt>
      <trkpt lat="45.94647" lon="4.84353">
        <ele>268</ele>
        <time>2017-12-05T10:56:07Z</time>
      </trkpt>
      <trkpt lat="45.94647" lon="4.84346">
        <ele>268</ele>
        <time>2017-12-05T10:56:08Z</time>
      </trkpt>
      <trkpt lat="45.94645" lon="4.84339">
        <ele>268</ele>
        <time>2017-12-05T10:56:09Z</time>
      </trkpt>
      <trkpt lat="45.94644" lon="4.8433">
        <ele>268</ele>
        <time>2017-12-05T10:56:10Z</time>
      </trkpt>
      <trkpt lat="45.94643" lon="4.8432">
        <ele>268</ele>
        <time>2017-12-05T10:56:11Z</time>
      </trkpt>
      <trkpt lat="45.94641" lon="4.84313">
        <ele>269</ele>
        <time>2017-12-05T10:56:12Z</time>
      </trkpt>
      <trkpt lat="45.9464" lon="4.84304">
        <ele>269</ele>
        <time>2017-12-05T10:56:13Z</time>
      </trkpt>
      <trkpt lat="45.94639" lon="4.84295">
        <ele>269</ele>
        <time>2017-12-05T10:56:14Z</time>
      </trkpt>
      <trkpt lat="45.94638" lon="4.84285">
        <ele>269</ele>
        <time>2017-12-05T10:56:15Z</time>
      </trkpt>
      <trkpt lat="45.94637" lon="4.84277">
        <ele>269</ele>
        <time>2017-12-05T10:56:16Z</time>
      </trkpt>
      <trkpt lat="45.94636" lon="4.84268">
        <ele>269</ele>
        <time>2017-12-05T10:56:17Z</time>
      </trkpt>
      <trkpt lat="45.94635" lon="4.8426">
        <ele>269</ele>
        <time>2017-12-05T10:56:18Z</time>
      </trkpt>
      <trkpt lat="45.94634" lon="4.84252">
        <ele>269</ele>
        <time>2017-12-05T10:56:19Z</time>
      </trkpt>
      <trkpt lat="45.94632" lon="4.84244">
        <ele>269</ele>
        <time>2017-12-05T10:56:20Z</time>
      </trkpt>
      <trkpt lat="45.94631" lon="4.84237">
        <ele>269</ele>
        <time>2017-12-05T10:56:21Z</time>
      </trkpt>
      <trkpt lat="45.94629" lon="4.84229">
        <ele>269</ele>
        <time>2017-12-05T10:56:22Z</time>
      </trkpt>
      <trkpt lat="45.94628" lon="4.8422">
        <ele>269</ele>
        <time>2017-12-05T10:56:23Z</time>
      </trkpt>
      <trkpt lat="45.94626" lon="4.84212">
        <ele>269</ele>
        <time>2017-12-05T10:56:24Z</time>
      </trkpt>
      <trkpt lat="45.94625" lon="4.84203">
        <ele>269</ele>
        <time>2017-12-05T10:56:25Z</time>
      </trkpt>
      <trkpt lat="45.94624" lon="4.84194">
        <ele>269</ele>
        <time>2017-12-05T10:56:26Z</time>
      </trkpt>
      <trkpt lat="45.94623" lon="4.84186">
        <ele>269</ele>
        <time>2017-12-05T10:56:27Z</time>
      </trkpt>
      <trkpt lat="45.94622" lon="4.84174">
        <ele>269</ele>
        <time>2017-12-05T10:56:28Z</time>
      </trkpt>
      <trkpt lat="45.94621" lon="4.84165">
        <ele>269</ele>
        <time>2017-12-05T10:56:29Z</time>
      </trkpt>
      <trkpt lat="45.94619" lon="4.84157">
        <ele>269</ele>
        <time>2017-12-05T10:56:30Z</time>
      </trkpt>
      <trkpt lat="45.94618" lon="4.84149">
        <ele>269</ele>
        <time>2017-12-05T10:56:31Z</time>
      </trkpt>
      <trkpt lat="45.94617" lon="4.8414">
        <ele>269</ele>
        <time>2017-12-05T10:56:32Z</time>
      </trkpt>
      <trkpt lat="45.94615" lon="4.84132">
        <ele>269</ele>
        <time>2017-12-05T10:56:33Z</time>
      </trkpt>
      <trkpt lat="45.94615" lon="4.84124">
        <ele>269</ele>
        <time>2017-12-05T10:56:34Z</time>
      </trkpt>
      <trkpt lat="45.94613" lon="4.84117">
        <ele>269</ele>
        <time>2017-12-05T10:56:35Z</time>
      </trkpt>
      <trkpt lat="45.94611" lon="4.84111">
        <ele>269</ele>
        <time>2017-12-05T10:56:36Z</time>
      </trkpt>
      <trkpt lat="45.94611" lon="4.84103">
        <ele>269</ele>
        <time>2017-12-05T10:56:37Z</time>
      </trkpt>
      <trkpt lat="45.9461" lon="4.84097">
        <ele>269</ele>
        <time>2017-12-05T10:56:38Z</time>
      </trkpt>
      <trkpt lat="45.94609" lon="4.8409">
        <ele>269</ele>
        <time>2017-12-05T10:56:39Z</time>
      </trkpt>
      <trkpt lat="45.94608" lon="4.84084">
        <ele>269</ele>
        <time>2017-12-05T10:56:40Z</time>
      </trkpt>
      <trkpt lat="45.94607" lon="4.84076">
        <ele>269</ele>
        <time>2017-12-05T10:56:41Z</time>
      </trkpt>
      <trkpt lat="45.94607" lon="4.84068">
        <ele>269</ele>
        <time>2017-12-05T10:56:42Z</time>
      </trkpt>
      <trkpt lat="45.94605" lon="4.84061">
        <ele>269</ele>
        <time>2017-12-05T10:56:43Z</time>
      </trkpt>
      <trkpt lat="45.94603" lon="4.84053">
        <ele>269</ele>
        <time>2017-12-05T10:56:44Z</time>
      </trkpt>
      <trkpt lat="45.94602" lon="4.84043">
        <ele>269</ele>
        <time>2017-12-05T10:56:45Z</time>
      </trkpt>
      <trkpt lat="45.94601" lon="4.84035">
        <ele>269</ele>
        <time>2017-12-05T10:56:46Z</time>
      </trkpt>
      <trkpt lat="45.94599" lon="4.84028">
        <ele>269</ele>
        <time>2017-12-05T10:56:47Z</time>
      </trkpt>
      <trkpt lat="45.94598" lon="4.84021">
        <ele>269</ele>
        <time>2017-12-05T10:56:48Z</time>
      </trkpt>
      <trkpt lat="45.94598" lon="4.84014">
        <ele>269</ele>
        <time>2017-12-05T10:56:49Z</time>
      </trkpt>
      <trkpt lat="45.94596" lon="4.84007">
        <ele>269</ele>
        <time>2017-12-05T10:56:50Z</time>
      </trkpt>
      <trkpt lat="45.94595" lon="4.83998">
        <ele>269</ele>
        <time>2017-12-05T10:56:51Z</time>
      </trkpt>
      <trkpt lat="45.94594" lon="4.83991">
        <ele>269</ele>
        <time>2017-12-05T10:56:52Z</time>
      </trkpt>
      <trkpt lat="45.94593" lon="4.83981">
        <ele>268</ele>
        <time>2017-12-05T10:56:53Z</time>
      </trkpt>
      <trkpt lat="45.94592" lon="4.83974">
        <ele>268</ele>
        <time>2017-12-05T10:56:54Z</time>
      </trkpt>
      <trkpt lat="45.9459" lon="4.83967">
        <ele>268</ele>
        <time>2017-12-05T10:56:55Z</time>
      </trkpt>
      <trkpt lat="45.94589" lon="4.83959">
        <ele>268</ele>
        <time>2017-12-05T10:56:56Z</time>
      </trkpt>
      <trkpt lat="45.94587" lon="4.83951">
        <ele>268</ele>
        <time>2017-12-05T10:56:57Z</time>
      </trkpt>
      <trkpt lat="45.94587" lon="4.83943">
        <ele>268</ele>
        <time>2017-12-05T10:56:58Z</time>
      </trkpt>
      <trkpt lat="45.94586" lon="4.83933">
        <ele>268</ele>
        <time>2017-12-05T10:56:59Z</time>
      </trkpt>
      <trkpt lat="45.94584" lon="4.83925">
        <ele>268</ele>
        <time>2017-12-05T10:57:00Z</time>
      </trkpt>
      <trkpt lat="45.94582" lon="4.83916">
        <ele>268</ele>
        <time>2017-12-05T10:57:01Z</time>
      </trkpt>
      <trkpt lat="45.94581" lon="4.83907">
        <ele>268</ele>
        <time>2017-12-05T10:57:02Z</time>
      </trkpt>
      <trkpt lat="45.94579" lon="4.83897">
        <ele>268</ele>
        <time>2017-12-05T10:57:03Z</time>
      </trkpt>
      <trkpt lat="45.94577" lon="4.83888">
        <ele>267</ele>
        <time>2017-12-05T10:57:04Z</time>
      </trkpt>
      <trkpt lat="45.94576" lon="4.83878">
        <ele>267</ele>
        <time>2017-12-05T10:57:05Z</time>
      </trkpt>
      <trkpt lat="45.94574" lon="4.83867">
        <ele>267</ele>
        <time>2017-12-05T10:57:06Z</time>
      </trkpt>
      <trkpt lat="45.94572" lon="4.83857">
        <ele>266</ele>
        <time>2017-12-05T10:57:07Z</time>
      </trkpt>
      <trkpt lat="45.94571" lon="4.83847">
        <ele>266</ele>
        <time>2017-12-05T10:57:08Z</time>
      </trkpt>
      <trkpt lat="45.94569" lon="4.83836">
        <ele>266</ele>
        <time>2017-12-05T10:57:09Z</time>
      </trkpt>
      <trkpt lat="45.94567" lon="4.83825">
        <ele>265</ele>
        <time>2017-12-05T10:57:10Z</time>
      </trkpt>
      <trkpt lat="45.94566" lon="4.83815">
        <ele>264</ele>
        <time>2017-12-05T10:57:11Z</time>
      </trkpt>
      <trkpt lat="45.94564" lon="4.83804">
        <ele>264</ele>
        <time>2017-12-05T10:57:12Z</time>
      </trkpt>
      <trkpt lat="45.94563" lon="4.83793">
        <ele>264</ele>
        <time>2017-12-05T10:57:13Z</time>
      </trkpt>
      <trkpt lat="45.94561" lon="4.83783">
        <ele>264</ele>
        <time>2017-12-05T10:57:14Z</time>
      </trkpt>
      <trkpt lat="45.94559" lon="4.83773">
        <ele>263</ele>
        <time>2017-12-05T10:57:15Z</time>
      </trkpt>
      <trkpt lat="45.94559" lon="4.83763">
        <ele>263</ele>
        <time>2017-12-05T10:57:16Z</time>
      </trkpt>
      <trkpt lat="45.94557" lon="4.83753">
        <ele>263</ele>
        <time>2017-12-05T10:57:17Z</time>
      </trkpt>
      <trkpt lat="45.94555" lon="4.83744">
        <ele>262</ele>
        <time>2017-12-05T10:57:18Z</time>
      </trkpt>
      <trkpt lat="45.94554" lon="4.83734">
        <ele>262</ele>
        <time>2017-12-05T10:57:19Z</time>
      </trkpt>
      <trkpt lat="45.94552" lon="4.83725">
        <ele>262</ele>
        <time>2017-12-05T10:57:20Z</time>
      </trkpt>
      <trkpt lat="45.94552" lon="4.83716">
        <ele>262</ele>
        <time>2017-12-05T10:57:21Z</time>
      </trkpt>
      <trkpt lat="45.94551" lon="4.83707">
        <ele>262</ele>
        <time>2017-12-05T10:57:22Z</time>
      </trkpt>
      <trkpt lat="45.9455" lon="4.83698">
        <ele>262</ele>
        <time>2017-12-05T10:57:23Z</time>
      </trkpt>
      <trkpt lat="45.94548" lon="4.83688">
        <ele>262</ele>
        <time>2017-12-05T10:57:24Z</time>
      </trkpt>
      <trkpt lat="45.94547" lon="4.83678">
        <ele>262</ele>
        <time>2017-12-05T10:57:25Z</time>
      </trkpt>
      <trkpt lat="45.94545" lon="4.83669">
        <ele>262</ele>
        <time>2017-12-05T10:57:26Z</time>
      </trkpt>
      <trkpt lat="45.94543" lon="4.83659">
        <ele>261</ele>
        <time>2017-12-05T10:57:27Z</time>
      </trkpt>
      <trkpt lat="45.94541" lon="4.8365">
        <ele>261</ele>
        <time>2017-12-05T10:57:28Z</time>
      </trkpt>
      <trkpt lat="45.9454" lon="4.8364">
        <ele>261</ele>
        <time>2017-12-05T10:57:29Z</time>
      </trkpt>
      <trkpt lat="45.94539" lon="4.83631">
        <ele>261</ele>
        <time>2017-12-05T10:57:30Z</time>
      </trkpt>
      <trkpt lat="45.94538" lon="4.83622">
        <ele>261</ele>
        <time>2017-12-05T10:57:31Z</time>
      </trkpt>
      <trkpt lat="45.94537" lon="4.83614">
        <ele>261</ele>
        <time>2017-12-05T10:57:32Z</time>
      </trkpt>
      <trkpt lat="45.94535" lon="4.83606">
        <ele>261</ele>
        <time>2017-12-05T10:57:33Z</time>
      </trkpt>
      <trkpt lat="45.94533" lon="4.83597">
        <ele>261</ele>
        <time>2017-12-05T10:57:34Z</time>
      </trkpt>
      <trkpt lat="45.94531" lon="4.83589">
        <ele>261</ele>
        <time>2017-12-05T10:57:35Z</time>
      </trkpt>
      <trkpt lat="45.9453" lon="4.83581">
        <ele>261</ele>
        <time>2017-12-05T10:57:36Z</time>
      </trkpt>
      <trkpt lat="45.94528" lon="4.83575">
        <ele>261</ele>
        <time>2017-12-05T10:57:37Z</time>
      </trkpt>
      <trkpt lat="45.94525" lon="4.83567">
        <ele>261</ele>
        <time>2017-12-05T10:57:38Z</time>
      </trkpt>
      <trkpt lat="45.94522" lon="4.8356">
        <ele>261</ele>
        <time>2017-12-05T10:57:39Z</time>
      </trkpt>
      <trkpt lat="45.94519" lon="4.83553">
        <ele>261</ele>
        <time>2017-12-05T10:57:40Z</time>
      </trkpt>
      <trkpt lat="45.94514" lon="4.83546">
        <ele>261</ele>
        <time>2017-12-05T10:57:41Z</time>
      </trkpt>
      <trkpt lat="45.9451" lon="4.83538">
        <ele>262</ele>
        <time>2017-12-05T10:57:42Z</time>
      </trkpt>
      <trkpt lat="45.94505" lon="4.83532">
        <ele>262</ele>
        <time>2017-12-05T10:57:43Z</time>
      </trkpt>
      <trkpt lat="45.94502" lon="4.83525">
        <ele>262</ele>
        <time>2017-12-05T10:57:44Z</time>
      </trkpt>
      <trkpt lat="45.94498" lon="4.83518">
        <ele>262</ele>
        <time>2017-12-05T10:57:45Z</time>
      </trkpt>
      <trkpt lat="45.94495" lon="4.83513">
        <ele>262</ele>
        <time>2017-12-05T10:57:46Z</time>
      </trkpt>
      <trkpt lat="45.94491" lon="4.83507">
        <ele>262</ele>
        <time>2017-12-05T10:57:47Z</time>
      </trkpt>
      <trkpt lat="45.94487" lon="4.83501">
        <ele>262</ele>
        <time>2017-12-05T10:57:48Z</time>
      </trkpt>
      <trkpt lat="45.94484" lon="4.83496">
        <ele>263</ele>
        <time>2017-12-05T10:57:49Z</time>
      </trkpt>
      <trkpt lat="45.9448" lon="4.8349">
        <ele>263</ele>
        <time>2017-12-05T10:57:50Z</time>
      </trkpt>
      <trkpt lat="45.94477" lon="4.83485">
        <ele>263</ele>
        <time>2017-12-05T10:57:51Z</time>
      </trkpt>
      <trkpt lat="45.94473" lon="4.8348">
        <ele>263</ele>
        <time>2017-12-05T10:57:52Z</time>
      </trkpt>
      <trkpt lat="45.9447" lon="4.83475">
        <ele>263</ele>
        <time>2017-12-05T10:57:53Z</time>
      </trkpt>
      <trkpt lat="45.94467" lon="4.83469">
        <ele>263</ele>
        <time>2017-12-05T10:57:54Z</time>
      </trkpt>
      <trkpt lat="45.94463" lon="4.83462">
        <ele>263</ele>
        <time>2017-12-05T10:57:55Z</time>
      </trkpt>
      <trkpt lat="45.94461" lon="4.83456">
        <ele>263</ele>
        <time>2017-12-05T10:57:56Z</time>
      </trkpt>
      <trkpt lat="45.94457" lon="4.83447">
        <ele>263</ele>
        <time>2017-12-05T10:57:57Z</time>
      </trkpt>
      <trkpt lat="45.94454" lon="4.83441">
        <ele>263</ele>
        <time>2017-12-05T10:57:58Z</time>
      </trkpt>
      <trkpt lat="45.9445" lon="4.83435">
        <ele>263</ele>
        <time>2017-12-05T10:57:59Z</time>
      </trkpt>
      <trkpt lat="45.94447" lon="4.8343">
        <ele>263</ele>
        <time>2017-12-05T10:58:00Z</time>
      </trkpt>
      <trkpt lat="45.94445" lon="4.83424">
        <ele>264</ele>
        <time>2017-12-05T10:58:01Z</time>
      </trkpt>
      <trkpt lat="45.94442" lon="4.83419">
        <ele>264</ele>
        <time>2017-12-05T10:58:02Z</time>
      </trkpt>
      <trkpt lat="45.94439" lon="4.83414">
        <ele>264</ele>
        <time>2017-12-05T10:58:03Z</time>
      </trkpt>
      <trkpt lat="45.94436" lon="4.83409">
        <ele>264</ele>
        <time>2017-12-05T10:58:04Z</time>
      </trkpt>
      <trkpt lat="45.94433" lon="4.83403">
        <ele>264</ele>
        <time>2017-12-05T10:58:05Z</time>
      </trkpt>
      <trkpt lat="45.9443" lon="4.83397">
        <ele>264</ele>
        <time>2017-12-05T10:58:06Z</time>
      </trkpt>
      <trkpt lat="45.94427" lon="4.83392">
        <ele>264</ele>
        <time>2017-12-05T10:58:07Z</time>
      </trkpt>
      <trkpt lat="45.94425" lon="4.83386">
        <ele>264</ele>
        <time>2017-12-05T10:58:08Z</time>
      </trkpt>
      <trkpt lat="45.94422" lon="4.83379">
        <ele>264</ele>
        <time>2017-12-05T10:58:09Z</time>
      </trkpt>
      <trkpt lat="45.94419" lon="4.83373">
        <ele>264</ele>
        <time>2017-12-05T10:58:10Z</time>
      </trkpt>
      <trkpt lat="45.94415" lon="4.83367">
        <ele>264</ele>
        <time>2017-12-05T10:58:11Z</time>
      </trkpt>
      <trkpt lat="45.94412" lon="4.83359">
        <ele>264</ele>
        <time>2017-12-05T10:58:12Z</time>
      </trkpt>
      <trkpt lat="45.94409" lon="4.83353">
        <ele>263</ele>
        <time>2017-12-05T10:58:13Z</time>
      </trkpt>
      <trkpt lat="45.94406" lon="4.83346">
        <ele>263</ele>
        <time>2017-12-05T10:58:14Z</time>
      </trkpt>
      <trkpt lat="45.94403" lon="4.83339">
        <ele>263</ele>
        <time>2017-12-05T10:58:15Z</time>
      </trkpt>
      <trkpt lat="45.944" lon="4.83331">
        <ele>264</ele>
        <time>2017-12-05T10:58:16Z</time>
      </trkpt>
      <trkpt lat="45.94396" lon="4.83323">
        <ele>264</ele>
        <time>2017-12-05T10:58:17Z</time>
      </trkpt>
      <trkpt lat="45.94393" lon="4.83315">
        <ele>264</ele>
        <time>2017-12-05T10:58:18Z</time>
      </trkpt>
      <trkpt lat="45.94391" lon="4.83307">
        <ele>264</ele>
        <time>2017-12-05T10:58:19Z</time>
      </trkpt>
      <trkpt lat="45.94389" lon="4.83301">
        <ele>264</ele>
        <time>2017-12-05T10:58:20Z</time>
      </trkpt>
      <trkpt lat="45.94386" lon="4.83295">
        <ele>264</ele>
        <time>2017-12-05T10:58:21Z</time>
      </trkpt>
      <trkpt lat="45.94384" lon="4.83288">
        <ele>264</ele>
        <time>2017-12-05T10:58:22Z</time>
      </trkpt>
      <trkpt lat="45.94382" lon="4.83281">
        <ele>264</ele>
        <time>2017-12-05T10:58:23Z</time>
      </trkpt>
      <trkpt lat="45.94379" lon="4.83275">
        <ele>264</ele>
        <time>2017-12-05T10:58:24Z</time>
      </trkpt>
      <trkpt lat="45.94378" lon="4.8327">
        <ele>264</ele>
        <time>2017-12-05T10:58:25Z</time>
      </trkpt>
      <trkpt lat="45.94375" lon="4.83263">
        <ele>264</ele>
        <time>2017-12-05T10:58:26Z</time>
      </trkpt>
      <trkpt lat="45.94372" lon="4.83256">
        <ele>265</ele>
        <time>2017-12-05T10:58:27Z</time>
      </trkpt>
      <trkpt lat="45.9437" lon="4.8325">
        <ele>265</ele>
        <time>2017-12-05T10:58:28Z</time>
      </trkpt>
      <trkpt lat="45.94367" lon="4.83239">
        <ele>265</ele>
        <time>2017-12-05T10:58:30Z</time>
      </trkpt>
      <trkpt lat="45.94364" lon="4.83233">
        <ele>266</ele>
        <time>2017-12-05T10:58:31Z</time>
      </trkpt>
      <trkpt lat="45.94361" lon="4.83227">
        <ele>266</ele>
        <time>2017-12-05T10:58:32Z</time>
      </trkpt>
      <trkpt lat="45.94358" lon="4.8322">
        <ele>266</ele>
        <time>2017-12-05T10:58:33Z</time>
      </trkpt>
      <trkpt lat="45.94356" lon="4.83214">
        <ele>266</ele>
        <time>2017-12-05T10:58:34Z</time>
      </trkpt>
      <trkpt lat="45.94353" lon="4.83207">
        <ele>266</ele>
        <time>2017-12-05T10:58:35Z</time>
      </trkpt>
      <trkpt lat="45.94351" lon="4.83199">
        <ele>266</ele>
        <time>2017-12-05T10:58:36Z</time>
      </trkpt>
      <trkpt lat="45.94349" lon="4.83192">
        <ele>266</ele>
        <time>2017-12-05T10:58:37Z</time>
      </trkpt>
      <trkpt lat="45.94347" lon="4.83183">
        <ele>266</ele>
        <time>2017-12-05T10:58:38Z</time>
      </trkpt>
      <trkpt lat="45.94345" lon="4.83176">
        <ele>266</ele>
        <time>2017-12-05T10:58:39Z</time>
      </trkpt>
      <trkpt lat="45.94342" lon="4.83167">
        <ele>266</ele>
        <time>2017-12-05T10:58:40Z</time>
      </trkpt>
      <trkpt lat="45.9434" lon="4.83161">
        <ele>266</ele>
        <time>2017-12-05T10:58:41Z</time>
      </trkpt>
      <trkpt lat="45.94337" lon="4.83153">
        <ele>266</ele>
        <time>2017-12-05T10:58:42Z</time>
      </trkpt>
      <trkpt lat="45.94335" lon="4.83147">
        <ele>266</ele>
        <time>2017-12-05T10:58:43Z</time>
      </trkpt>
      <trkpt lat="45.94333" lon="4.8314">
        <ele>266</ele>
        <time>2017-12-05T10:58:44Z</time>
      </trkpt>
      <trkpt lat="45.94331" lon="4.83134">
        <ele>266</ele>
        <time>2017-12-05T10:58:45Z</time>
      </trkpt>
      <trkpt lat="45.94328" lon="4.83128">
        <ele>266</ele>
        <time>2017-12-05T10:58:46Z</time>
      </trkpt>
      <trkpt lat="45.94326" lon="4.83122">
        <ele>266</ele>
        <time>2017-12-05T10:58:47Z</time>
      </trkpt>
      <trkpt lat="45.94323" lon="4.83115">
        <ele>266</ele>
        <time>2017-12-05T10:58:48Z</time>
      </trkpt>
      <trkpt lat="45.94321" lon="4.83109">
        <ele>266</ele>
        <time>2017-12-05T10:58:49Z</time>
      </trkpt>
      <trkpt lat="45.94318" lon="4.83102">
        <ele>266</ele>
        <time>2017-12-05T10:58:50Z</time>
      </trkpt>
      <trkpt lat="45.94316" lon="4.83094">
        <ele>266</ele>
        <time>2017-12-05T10:58:51Z</time>
      </trkpt>
      <trkpt lat="45.94314" lon="4.83086">
        <ele>266</ele>
        <time>2017-12-05T10:58:52Z</time>
      </trkpt>
      <trkpt lat="45.94313" lon="4.83077">
        <ele>266</ele>
        <time>2017-12-05T10:58:53Z</time>
      </trkpt>
      <trkpt lat="45.94311" lon="4.8307">
        <ele>266</ele>
        <time>2017-12-05T10:58:54Z</time>
      </trkpt>
      <trkpt lat="45.94309" lon="4.83063">
        <ele>266</ele>
        <time>2017-12-05T10:58:55Z</time>
      </trkpt>
      <trkpt lat="45.94307" lon="4.83057">
        <ele>266</ele>
        <time>2017-12-05T10:58:56Z</time>
      </trkpt>
      <trkpt lat="45.94306" lon="4.83047">
        <ele>266</ele>
        <time>2017-12-05T10:58:57Z</time>
      </trkpt>
      <trkpt lat="45.94304" lon="4.83042">
        <ele>266</ele>
        <time>2017-12-05T10:58:58Z</time>
      </trkpt>
      <trkpt lat="45.94303" lon="4.83035">
        <ele>266</ele>
        <time>2017-12-05T10:58:59Z</time>
      </trkpt>
      <trkpt lat="45.94301" lon="4.83028">
        <ele>266</ele>
        <time>2017-12-05T10:59:00Z</time>
      </trkpt>
      <trkpt lat="45.943" lon="4.83021">
        <ele>266</ele>
        <time>2017-12-05T10:59:01Z</time>
      </trkpt>
      <trkpt lat="45.943" lon="4.83015">
        <ele>266</ele>
        <time>2017-12-05T10:59:02Z</time>
      </trkpt>
      <trkpt lat="45.94298" lon="4.83008">
        <ele>266</ele>
        <time>2017-12-05T10:59:03Z</time>
      </trkpt>
      <trkpt lat="45.94297" lon="4.83">
        <ele>266</ele>
        <time>2017-12-05T10:59:04Z</time>
      </trkpt>
      <trkpt lat="45.94296" lon="4.8299">
        <ele>265</ele>
        <time>2017-12-05T10:59:05Z</time>
      </trkpt>
      <trkpt lat="45.94295" lon="4.82983">
        <ele>265</ele>
        <time>2017-12-05T10:59:06Z</time>
      </trkpt>
      <trkpt lat="45.94293" lon="4.82977">
        <ele>265</ele>
        <time>2017-12-05T10:59:07Z</time>
      </trkpt>
      <trkpt lat="45.94289" lon="4.82967">
        <ele>265</ele>
        <time>2017-12-05T10:59:09Z</time>
      </trkpt>
      <trkpt lat="45.94287" lon="4.82961">
        <ele>265</ele>
        <time>2017-12-05T10:59:10Z</time>
      </trkpt>
      <trkpt lat="45.94283" lon="4.82951">
        <ele>265</ele>
        <time>2017-12-05T10:59:12Z</time>
      </trkpt>
      <trkpt lat="45.94283" lon="4.82946">
        <ele>265</ele>
        <time>2017-12-05T10:59:13Z</time>
      </trkpt>
      <trkpt lat="45.94283" lon="4.8294">
        <ele>265</ele>
        <time>2017-12-05T10:59:14Z</time>
      </trkpt>
      <trkpt lat="45.94285" lon="4.82932">
        <ele>265</ele>
        <time>2017-12-05T10:59:15Z</time>
      </trkpt>
      <trkpt lat="45.94286" lon="4.82924">
        <ele>265</ele>
        <time>2017-12-05T10:59:16Z</time>
      </trkpt>
      <trkpt lat="45.94288" lon="4.82916">
        <ele>265</ele>
        <time>2017-12-05T10:59:17Z</time>
      </trkpt>
      <trkpt lat="45.94289" lon="4.82907">
        <ele>265</ele>
        <time>2017-12-05T10:59:18Z</time>
      </trkpt>
      <trkpt lat="45.9429" lon="4.829">
        <ele>265</ele>
        <time>2017-12-05T10:59:19Z</time>
      </trkpt>
      <trkpt lat="45.94292" lon="4.82892">
        <ele>265</ele>
        <time>2017-12-05T10:59:20Z</time>
      </trkpt>
      <trkpt lat="45.94293" lon="4.82885">
        <ele>265</ele>
        <time>2017-12-05T10:59:21Z</time>
      </trkpt>
      <trkpt lat="45.94293" lon="4.82879">
        <ele>265</ele>
        <time>2017-12-05T10:59:22Z</time>
      </trkpt>
      <trkpt lat="45.94294" lon="4.82871">
        <ele>265</ele>
        <time>2017-12-05T10:59:23Z</time>
      </trkpt>
      <trkpt lat="45.94295" lon="4.82864">
        <ele>265</ele>
        <time>2017-12-05T10:59:24Z</time>
      </trkpt>
      <trkpt lat="45.94295" lon="4.82856">
        <ele>265</ele>
        <time>2017-12-05T10:59:25Z</time>
      </trkpt>
      <trkpt lat="45.94295" lon="4.82849">
        <ele>265</ele>
        <time>2017-12-05T10:59:26Z</time>
      </trkpt>
      <trkpt lat="45.94295" lon="4.82842">
        <ele>265</ele>
        <time>2017-12-05T10:59:27Z</time>
      </trkpt>
      <trkpt lat="45.94296" lon="4.82834">
        <ele>265</ele>
        <time>2017-12-05T10:59:28Z</time>
      </trkpt>
      <trkpt lat="45.94296" lon="4.82827">
        <ele>265</ele>
        <time>2017-12-05T10:59:29Z</time>
      </trkpt>
      <trkpt lat="45.94296" lon="4.8282">
        <ele>265</ele>
        <time>2017-12-05T10:59:30Z</time>
      </trkpt>
      <trkpt lat="45.94296" lon="4.82812">
        <ele>265</ele>
        <time>2017-12-05T10:59:31Z</time>
      </trkpt>
      <trkpt lat="45.94296" lon="4.82805">
        <ele>265</ele>
        <time>2017-12-05T10:59:32Z</time>
      </trkpt>
      <trkpt lat="45.94295" lon="4.82797">
        <ele>265</ele>
        <time>2017-12-05T10:59:33Z</time>
      </trkpt>
      <trkpt lat="45.94295" lon="4.82789">
        <ele>265</ele>
        <time>2017-12-05T10:59:34Z</time>
      </trkpt>
      <trkpt lat="45.94295" lon="4.82779">
        <ele>265</ele>
        <time>2017-12-05T10:59:35Z</time>
      </trkpt>
      <trkpt lat="45.94295" lon="4.82771">
        <ele>265</ele>
        <time>2017-12-05T10:59:36Z</time>
      </trkpt>
      <trkpt lat="45.94296" lon="4.82762">
        <ele>265</ele>
        <time>2017-12-05T10:59:37Z</time>
      </trkpt>
      <trkpt lat="45.94296" lon="4.82753">
        <ele>265</ele>
        <time>2017-12-05T10:59:38Z</time>
      </trkpt>
      <trkpt lat="45.94297" lon="4.82744">
        <ele>265</ele>
        <time>2017-12-05T10:59:39Z</time>
      </trkpt>
      <trkpt lat="45.94297" lon="4.82735">
        <ele>265</ele>
        <time>2017-12-05T10:59:40Z</time>
      </trkpt>
      <trkpt lat="45.94297" lon="4.82726">
        <ele>265</ele>
        <time>2017-12-05T10:59:41Z</time>
      </trkpt>
      <trkpt lat="45.94297" lon="4.82718">
        <ele>265</ele>
        <time>2017-12-05T10:59:42Z</time>
      </trkpt>
      <trkpt lat="45.94298" lon="4.82709">
        <ele>265</ele>
        <time>2017-12-05T10:59:43Z</time>
      </trkpt>
      <trkpt lat="45.94298" lon="4.82701">
        <ele>265</ele>
        <time>2017-12-05T10:59:44Z</time>
      </trkpt>
      <trkpt lat="45.94297" lon="4.82692">
        <ele>265</ele>
        <time>2017-12-05T10:59:45Z</time>
      </trkpt>
      <trkpt lat="45.94297" lon="4.82684">
        <ele>265</ele>
        <time>2017-12-05T10:59:46Z</time>
      </trkpt>
      <trkpt lat="45.94297" lon="4.82676">
        <ele>265</ele>
        <time>2017-12-05T10:59:47Z</time>
      </trkpt>
      <trkpt lat="45.94297" lon="4.82668">
        <ele>265</ele>
        <time>2017-12-05T10:59:48Z</time>
      </trkpt>
      <trkpt lat="45.94297" lon="4.82659">
        <ele>265</ele>
        <time>2017-12-05T10:59:49Z</time>
      </trkpt>
      <trkpt lat="45.94297" lon="4.8265">
        <ele>265</ele>
        <time>2017-12-05T10:59:50Z</time>
      </trkpt>
      <trkpt lat="45.94297" lon="4.82642">
        <ele>265</ele>
        <time>2017-12-05T10:59:51Z</time>
      </trkpt>
      <trkpt lat="45.94297" lon="4.82633">
        <ele>265</ele>
        <time>2017-12-05T10:59:52Z</time>
      </trkpt>
      <trkpt lat="45.94297" lon="4.82625">
        <ele>265</ele>
        <time>2017-12-05T10:59:53Z</time>
      </trkpt>
      <trkpt lat="45.94298" lon="4.82616">
        <ele>265</ele>
        <time>2017-12-05T10:59:54Z</time>
      </trkpt>
      <trkpt lat="45.94297" lon="4.82607">
        <ele>265</ele>
        <time>2017-12-05T10:59:55Z</time>
      </trkpt>
      <trkpt lat="45.94297" lon="4.82599">
        <ele>265</ele>
        <time>2017-12-05T10:59:56Z</time>
      </trkpt>
      <trkpt lat="45.94296" lon="4.82591">
        <ele>265</ele>
        <time>2017-12-05T10:59:57Z</time>
      </trkpt>
      <trkpt lat="45.94297" lon="4.82574">
        <ele>264</ele>
        <time>2017-12-05T10:59:59Z</time>
      </trkpt>
      <trkpt lat="45.94297" lon="4.82566">
        <ele>264</ele>
        <time>2017-12-05T11:00:00Z</time>
      </trkpt>
      <trkpt lat="45.94296" lon="4.82558">
        <ele>264</ele>
        <time>2017-12-05T11:00:01Z</time>
      </trkpt>
      <trkpt lat="45.94297" lon="4.82548">
        <ele>264</ele>
        <time>2017-12-05T11:00:02Z</time>
      </trkpt>
      <trkpt lat="45.94297" lon="4.82539">
        <ele>264</ele>
        <time>2017-12-05T11:00:03Z</time>
      </trkpt>
      <trkpt lat="45.94297" lon="4.8253">
        <ele>264</ele>
        <time>2017-12-05T11:00:04Z</time>
      </trkpt>
      <trkpt lat="45.94298" lon="4.82521">
        <ele>264</ele>
        <time>2017-12-05T11:00:05Z</time>
      </trkpt>
      <trkpt lat="45.94299" lon="4.82511">
        <ele>264</ele>
        <time>2017-12-05T11:00:06Z</time>
      </trkpt>
      <trkpt lat="45.94299" lon="4.82502">
        <ele>264</ele>
        <time>2017-12-05T11:00:07Z</time>
      </trkpt>
      <trkpt lat="45.94299" lon="4.82492">
        <ele>264</ele>
        <time>2017-12-05T11:00:08Z</time>
      </trkpt>
      <trkpt lat="45.94298" lon="4.82482">
        <ele>264</ele>
        <time>2017-12-05T11:00:09Z</time>
      </trkpt>
      <trkpt lat="45.94299" lon="4.82471">
        <ele>264</ele>
        <time>2017-12-05T11:00:10Z</time>
      </trkpt>
      <trkpt lat="45.94298" lon="4.82461">
        <ele>264</ele>
        <time>2017-12-05T11:00:11Z</time>
      </trkpt>
      <trkpt lat="45.94297" lon="4.82452">
        <ele>264</ele>
        <time>2017-12-05T11:00:12Z</time>
      </trkpt>
      <trkpt lat="45.94297" lon="4.82442">
        <ele>264</ele>
        <time>2017-12-05T11:00:13Z</time>
      </trkpt>
      <trkpt lat="45.94295" lon="4.82432">
        <ele>264</ele>
        <time>2017-12-05T11:00:14Z</time>
      </trkpt>
      <trkpt lat="45.94294" lon="4.82422">
        <ele>264</ele>
        <time>2017-12-05T11:00:15Z</time>
      </trkpt>
      <trkpt lat="45.94294" lon="4.82413">
        <ele>264</ele>
        <time>2017-12-05T11:00:16Z</time>
      </trkpt>
      <trkpt lat="45.94294" lon="4.82403">
        <ele>264</ele>
        <time>2017-12-05T11:00:17Z</time>
      </trkpt>
      <trkpt lat="45.94294" lon="4.82393">
        <ele>264</ele>
        <time>2017-12-05T11:00:18Z</time>
      </trkpt>
      <trkpt lat="45.94293" lon="4.82383">
        <ele>264</ele>
        <time>2017-12-05T11:00:19Z</time>
      </trkpt>
      <trkpt lat="45.94293" lon="4.82374">
        <ele>264</ele>
        <time>2017-12-05T11:00:20Z</time>
      </trkpt>
      <trkpt lat="45.94292" lon="4.82365">
        <ele>264</ele>
        <time>2017-12-05T11:00:21Z</time>
      </trkpt>
      <trkpt lat="45.94292" lon="4.82355">
        <ele>264</ele>
        <time>2017-12-05T11:00:22Z</time>
      </trkpt>
      <trkpt lat="45.94291" lon="4.82345">
        <ele>264</ele>
        <time>2017-12-05T11:00:23Z</time>
      </trkpt>
      <trkpt lat="45.94291" lon="4.82336">
        <ele>264</ele>
        <time>2017-12-05T11:00:24Z</time>
      </trkpt>
      <trkpt lat="45.94291" lon="4.82326">
        <ele>265</ele>
        <time>2017-12-05T11:00:25Z</time>
      </trkpt>
      <trkpt lat="45.9429" lon="4.82316">
        <ele>265</ele>
        <time>2017-12-05T11:00:26Z</time>
      </trkpt>
      <trkpt lat="45.9429" lon="4.82305">
        <ele>265</ele>
        <time>2017-12-05T11:00:27Z</time>
      </trkpt>
      <trkpt lat="45.9429" lon="4.82294">
        <ele>265</ele>
        <time>2017-12-05T11:00:28Z</time>
      </trkpt>
      <trkpt lat="45.94289" lon="4.82285">
        <ele>265</ele>
        <time>2017-12-05T11:00:29Z</time>
      </trkpt>
      <trkpt lat="45.94288" lon="4.82275">
        <ele>265</ele>
        <time>2017-12-05T11:00:30Z</time>
      </trkpt>
      <trkpt lat="45.94288" lon="4.82267">
        <ele>265</ele>
        <time>2017-12-05T11:00:31Z</time>
      </trkpt>
      <trkpt lat="45.94287" lon="4.82258">
        <ele>265</ele>
        <time>2017-12-05T11:00:32Z</time>
      </trkpt>
      <trkpt lat="45.94287" lon="4.8225">
        <ele>264</ele>
        <time>2017-12-05T11:00:33Z</time>
      </trkpt>
      <trkpt lat="45.94286" lon="4.82241">
        <ele>264</ele>
        <time>2017-12-05T11:00:34Z</time>
      </trkpt>
      <trkpt lat="45.94286" lon="4.82233">
        <ele>264</ele>
        <time>2017-12-05T11:00:35Z</time>
      </trkpt>
      <trkpt lat="45.94285" lon="4.82223">
        <ele>264</ele>
        <time>2017-12-05T11:00:36Z</time>
      </trkpt>
      <trkpt lat="45.94284" lon="4.82215">
        <ele>264</ele>
        <time>2017-12-05T11:00:37Z</time>
      </trkpt>
      <trkpt lat="45.94283" lon="4.82205">
        <ele>264</ele>
        <time>2017-12-05T11:00:38Z</time>
      </trkpt>
      <trkpt lat="45.94283" lon="4.82195">
        <ele>264</ele>
        <time>2017-12-05T11:00:39Z</time>
      </trkpt>
      <trkpt lat="45.94281" lon="4.82186">
        <ele>264</ele>
        <time>2017-12-05T11:00:40Z</time>
      </trkpt>
      <trkpt lat="45.9428" lon="4.82177">
        <ele>264</ele>
        <time>2017-12-05T11:00:41Z</time>
      </trkpt>
      <trkpt lat="45.94278" lon="4.82167">
        <ele>264</ele>
        <time>2017-12-05T11:00:42Z</time>
      </trkpt>
      <trkpt lat="45.94277" lon="4.82158">
        <ele>263</ele>
        <time>2017-12-05T11:00:43Z</time>
      </trkpt>
      <trkpt lat="45.94275" lon="4.8215">
        <ele>263</ele>
        <time>2017-12-05T11:00:44Z</time>
      </trkpt>
      <trkpt lat="45.94274" lon="4.82141">
        <ele>263</ele>
        <time>2017-12-05T11:00:45Z</time>
      </trkpt>
      <trkpt lat="45.94272" lon="4.82133">
        <ele>263</ele>
        <time>2017-12-05T11:00:46Z</time>
      </trkpt>
      <trkpt lat="45.94271" lon="4.82125">
        <ele>263</ele>
        <time>2017-12-05T11:00:47Z</time>
      </trkpt>
      <trkpt lat="45.94269" lon="4.82117">
        <ele>263</ele>
        <time>2017-12-05T11:00:48Z</time>
      </trkpt>
      <trkpt lat="45.94267" lon="4.82109">
        <ele>263</ele>
        <time>2017-12-05T11:00:49Z</time>
      </trkpt>
      <trkpt lat="45.94265" lon="4.82101">
        <ele>262</ele>
        <time>2017-12-05T11:00:50Z</time>
      </trkpt>
      <trkpt lat="45.94264" lon="4.82092">
        <ele>262</ele>
        <time>2017-12-05T11:00:51Z</time>
      </trkpt>
      <trkpt lat="45.94262" lon="4.82085">
        <ele>262</ele>
        <time>2017-12-05T11:00:52Z</time>
      </trkpt>
      <trkpt lat="45.9426" lon="4.82076">
        <ele>262</ele>
        <time>2017-12-05T11:00:53Z</time>
      </trkpt>
      <trkpt lat="45.94259" lon="4.82067">
        <ele>262</ele>
        <time>2017-12-05T11:00:54Z</time>
      </trkpt>
      <trkpt lat="45.94257" lon="4.82059">
        <ele>262</ele>
        <time>2017-12-05T11:00:55Z</time>
      </trkpt>
      <trkpt lat="45.94255" lon="4.82051">
        <ele>262</ele>
        <time>2017-12-05T11:00:56Z</time>
      </trkpt>
      <trkpt lat="45.94254" lon="4.8204">
        <ele>262</ele>
        <time>2017-12-05T11:00:57Z</time>
      </trkpt>
      <trkpt lat="45.94252" lon="4.82031">
        <ele>262</ele>
        <time>2017-12-05T11:00:58Z</time>
      </trkpt>
      <trkpt lat="45.9425" lon="4.82022">
        <ele>262</ele>
        <time>2017-12-05T11:00:59Z</time>
      </trkpt>
      <trkpt lat="45.94248" lon="4.82013">
        <ele>263</ele>
        <time>2017-12-05T11:01:00Z</time>
      </trkpt>
      <trkpt lat="45.94245" lon="4.82001">
        <ele>262</ele>
        <time>2017-12-05T11:01:01Z</time>
      </trkpt>
      <trkpt lat="45.94244" lon="4.81991">
        <ele>263</ele>
        <time>2017-12-05T11:01:02Z</time>
      </trkpt>
      <trkpt lat="45.94242" lon="4.81981">
        <ele>263</ele>
        <time>2017-12-05T11:01:03Z</time>
      </trkpt>
      <trkpt lat="45.9424" lon="4.81972">
        <ele>263</ele>
        <time>2017-12-05T11:01:04Z</time>
      </trkpt>
      <trkpt lat="45.94237" lon="4.81963">
        <ele>264</ele>
        <time>2017-12-05T11:01:05Z</time>
      </trkpt>
      <trkpt lat="45.94235" lon="4.81955">
        <ele>264</ele>
        <time>2017-12-05T11:01:06Z</time>
      </trkpt>
      <trkpt lat="45.94233" lon="4.81946">
        <ele>264</ele>
        <time>2017-12-05T11:01:07Z</time>
      </trkpt>
      <trkpt lat="45.94231" lon="4.81938">
        <ele>264</ele>
        <time>2017-12-05T11:01:08Z</time>
      </trkpt>
      <trkpt lat="45.9423" lon="4.81931">
        <ele>263</ele>
        <time>2017-12-05T11:01:09Z</time>
      </trkpt>
      <trkpt lat="45.94227" lon="4.81923">
        <ele>264</ele>
        <time>2017-12-05T11:01:10Z</time>
      </trkpt>
      <trkpt lat="45.94225" lon="4.81914">
        <ele>264</ele>
        <time>2017-12-05T11:01:11Z</time>
      </trkpt>
      <trkpt lat="45.94224" lon="4.81905">
        <ele>264</ele>
        <time>2017-12-05T11:01:12Z</time>
      </trkpt>
      <trkpt lat="45.94222" lon="4.81897">
        <ele>265</ele>
        <time>2017-12-05T11:01:13Z</time>
      </trkpt>
      <trkpt lat="45.9422" lon="4.81889">
        <ele>265</ele>
        <time>2017-12-05T11:01:14Z</time>
      </trkpt>
      <trkpt lat="45.94218" lon="4.8188">
        <ele>265</ele>
        <time>2017-12-05T11:01:15Z</time>
      </trkpt>
      <trkpt lat="45.94217" lon="4.81873">
        <ele>265</ele>
        <time>2017-12-05T11:01:16Z</time>
      </trkpt>
      <trkpt lat="45.94214" lon="4.81865">
        <ele>265</ele>
        <time>2017-12-05T11:01:17Z</time>
      </trkpt>
      <trkpt lat="45.94213" lon="4.81859">
        <ele>265</ele>
        <time>2017-12-05T11:01:18Z</time>
      </trkpt>
      <trkpt lat="45.94211" lon="4.81852">
        <ele>265</ele>
        <time>2017-12-05T11:01:19Z</time>
      </trkpt>
      <trkpt lat="45.9421" lon="4.81845">
        <ele>265</ele>
        <time>2017-12-05T11:01:20Z</time>
      </trkpt>
      <trkpt lat="45.94209" lon="4.81838">
        <ele>266</ele>
        <time>2017-12-05T11:01:21Z</time>
      </trkpt>
      <trkpt lat="45.94208" lon="4.81831">
        <ele>266</ele>
        <time>2017-12-05T11:01:22Z</time>
      </trkpt>
      <trkpt lat="45.94207" lon="4.81825">
        <ele>266</ele>
        <time>2017-12-05T11:01:23Z</time>
      </trkpt>
      <trkpt lat="45.94206" lon="4.81817">
        <ele>266</ele>
        <time>2017-12-05T11:01:24Z</time>
      </trkpt>
      <trkpt lat="45.94205" lon="4.81809">
        <ele>266</ele>
        <time>2017-12-05T11:01:25Z</time>
      </trkpt>
      <trkpt lat="45.94204" lon="4.81802">
        <ele>266</ele>
        <time>2017-12-05T11:01:26Z</time>
      </trkpt>
      <trkpt lat="45.94205" lon="4.81794">
        <ele>266</ele>
        <time>2017-12-05T11:01:27Z</time>
      </trkpt>
      <trkpt lat="45.94206" lon="4.81786">
        <ele>266</ele>
        <time>2017-12-05T11:01:28Z</time>
      </trkpt>
      <trkpt lat="45.94207" lon="4.81779">
        <ele>265</ele>
        <time>2017-12-05T11:01:29Z</time>
      </trkpt>
      <trkpt lat="45.94209" lon="4.81768">
        <ele>265</ele>
        <time>2017-12-05T11:01:31Z</time>
      </trkpt>
      <trkpt lat="45.94213" lon="4.81764">
        <ele>265</ele>
        <time>2017-12-05T11:01:32Z</time>
      </trkpt>
      <trkpt lat="45.94216" lon="4.81756">
        <ele>265</ele>
        <time>2017-12-05T11:01:34Z</time>
      </trkpt>
      <trkpt lat="45.9422" lon="4.8175">
        <ele>265</ele>
        <time>2017-12-05T11:01:35Z</time>
      </trkpt>
      <trkpt lat="45.94225" lon="4.81741">
        <ele>265</ele>
        <time>2017-12-05T11:01:37Z</time>
      </trkpt>
      <trkpt lat="45.94226" lon="4.81736">
        <ele>265</ele>
        <time>2017-12-05T11:01:38Z</time>
      </trkpt>
      <trkpt lat="45.94225" lon="4.81723">
        <ele>265</ele>
        <time>2017-12-05T11:01:40Z</time>
      </trkpt>
      <trkpt lat="45.94224" lon="4.81717">
        <ele>266</ele>
        <time>2017-12-05T11:01:41Z</time>
      </trkpt>
      <trkpt lat="45.94222" lon="4.8171">
        <ele>266</ele>
        <time>2017-12-05T11:01:42Z</time>
      </trkpt>
      <trkpt lat="45.94218" lon="4.81706">
        <ele>266</ele>
        <time>2017-12-05T11:01:43Z</time>
      </trkpt>
      <trkpt lat="45.94213" lon="4.81703">
        <ele>266</ele>
        <time>2017-12-05T11:01:44Z</time>
      </trkpt>
      <trkpt lat="45.94208" lon="4.81701">
        <ele>266</ele>
        <time>2017-12-05T11:01:45Z</time>
      </trkpt>
      <trkpt lat="45.94204" lon="4.817">
        <ele>266</ele>
        <time>2017-12-05T11:01:46Z</time>
      </trkpt>
      <trkpt lat="45.94199" lon="4.81696">
        <ele>267</ele>
        <time>2017-12-05T11:01:47Z</time>
      </trkpt>
      <trkpt lat="45.94194" lon="4.81693">
        <ele>267</ele>
        <time>2017-12-05T11:01:48Z</time>
      </trkpt>
      <trkpt lat="45.94191" lon="4.81687">
        <ele>267</ele>
        <time>2017-12-05T11:01:49Z</time>
      </trkpt>
      <trkpt lat="45.94187" lon="4.81681">
        <ele>267</ele>
        <time>2017-12-05T11:01:50Z</time>
      </trkpt>
      <trkpt lat="45.94183" lon="4.81672">
        <ele>268</ele>
        <time>2017-12-05T11:01:51Z</time>
      </trkpt>
      <trkpt lat="45.9418" lon="4.81664">
        <ele>268</ele>
        <time>2017-12-05T11:01:52Z</time>
      </trkpt>
      <trkpt lat="45.94178" lon="4.81655">
        <ele>268</ele>
        <time>2017-12-05T11:01:53Z</time>
      </trkpt>
      <trkpt lat="45.94175" lon="4.81645">
        <ele>268</ele>
        <time>2017-12-05T11:01:54Z</time>
      </trkpt>
      <trkpt lat="45.94173" lon="4.81635">
        <ele>268</ele>
        <time>2017-12-05T11:01:55Z</time>
      </trkpt>
      <trkpt lat="45.9417" lon="4.81624">
        <ele>267</ele>
        <time>2017-12-05T11:01:56Z</time>
      </trkpt>
      <trkpt lat="45.94168" lon="4.81613">
        <ele>267</ele>
        <time>2017-12-05T11:01:57Z</time>
      </trkpt>
      <trkpt lat="45.94165" lon="4.81601">
        <ele>267</ele>
        <time>2017-12-05T11:01:58Z</time>
      </trkpt>
      <trkpt lat="45.94164" lon="4.81588">
        <ele>267</ele>
        <time>2017-12-05T11:01:59Z</time>
      </trkpt>
      <trkpt lat="45.94161" lon="4.81578">
        <ele>266</ele>
        <time>2017-12-05T11:02:00Z</time>
      </trkpt>
      <trkpt lat="45.94159" lon="4.81565">
        <ele>265</ele>
        <time>2017-12-05T11:02:01Z</time>
      </trkpt>
      <trkpt lat="45.94158" lon="4.81554">
        <ele>265</ele>
        <time>2017-12-05T11:02:02Z</time>
      </trkpt>
      <trkpt lat="45.94157" lon="4.81542">
        <ele>264</ele>
        <time>2017-12-05T11:02:03Z</time>
      </trkpt>
      <trkpt lat="45.94157" lon="4.81528">
        <ele>264</ele>
        <time>2017-12-05T11:02:04Z</time>
      </trkpt>
      <trkpt lat="45.94157" lon="4.81515">
        <ele>263</ele>
        <time>2017-12-05T11:02:05Z</time>
      </trkpt>
      <trkpt lat="45.94157" lon="4.81501">
        <ele>263</ele>
        <time>2017-12-05T11:02:06Z</time>
      </trkpt>
      <trkpt lat="45.94156" lon="4.81488">
        <ele>260</ele>
        <time>2017-12-05T11:02:07Z</time>
      </trkpt>
      <trkpt lat="45.94157" lon="4.81473">
        <ele>258</ele>
        <time>2017-12-05T11:02:08Z</time>
      </trkpt>
      <trkpt lat="45.9416" lon="4.81457">
        <ele>257</ele>
        <time>2017-12-05T11:02:09Z</time>
      </trkpt>
      <trkpt lat="45.94162" lon="4.81442">
        <ele>256</ele>
        <time>2017-12-05T11:02:10Z</time>
      </trkpt>
      <trkpt lat="45.94163" lon="4.81426">
        <ele>256</ele>
        <time>2017-12-05T11:02:11Z</time>
      </trkpt>
      <trkpt lat="45.94163" lon="4.81412">
        <ele>255</ele>
        <time>2017-12-05T11:02:12Z</time>
      </trkpt>
      <trkpt lat="45.94167" lon="4.81395">
        <ele>258</ele>
        <time>2017-12-05T11:02:13Z</time>
      </trkpt>
      <trkpt lat="45.94168" lon="4.81381">
        <ele>258</ele>
        <time>2017-12-05T11:02:14Z</time>
      </trkpt>
      <trkpt lat="45.9417" lon="4.81365">
        <ele>257</ele>
        <time>2017-12-05T11:02:15Z</time>
      </trkpt>
      <trkpt lat="45.94171" lon="4.81352">
        <ele>256</ele>
        <time>2017-12-05T11:02:16Z</time>
      </trkpt>
      <trkpt lat="45.94171" lon="4.81336">
        <ele>253</ele>
        <time>2017-12-05T11:02:17Z</time>
      </trkpt>
      <trkpt lat="45.94171" lon="4.8132">
        <ele>254</ele>
        <time>2017-12-05T11:02:18Z</time>
      </trkpt>
      <trkpt lat="45.94169" lon="4.81305">
        <ele>255</ele>
        <time>2017-12-05T11:02:19Z</time>
      </trkpt>
      <trkpt lat="45.94168" lon="4.8129">
        <ele>255</ele>
        <time>2017-12-05T11:02:20Z</time>
      </trkpt>
      <trkpt lat="45.94167" lon="4.81273">
        <ele>254</ele>
        <time>2017-12-05T11:02:21Z</time>
      </trkpt>
      <trkpt lat="45.94164" lon="4.81258">
        <ele>249</ele>
        <time>2017-12-05T11:02:22Z</time>
      </trkpt>
      <trkpt lat="45.94161" lon="4.81241">
        <ele>247</ele>
        <time>2017-12-05T11:02:23Z</time>
      </trkpt>
      <trkpt lat="45.94158" lon="4.81224">
        <ele>245</ele>
        <time>2017-12-05T11:02:24Z</time>
      </trkpt>
      <trkpt lat="45.94154" lon="4.81209">
        <ele>244</ele>
        <time>2017-12-05T11:02:25Z</time>
      </trkpt>
      <trkpt lat="45.94149" lon="4.81193">
        <ele>244</ele>
        <time>2017-12-05T11:02:26Z</time>
      </trkpt>
      <trkpt lat="45.94143" lon="4.81178">
        <ele>244</ele>
        <time>2017-12-05T11:02:27Z</time>
      </trkpt>
      <trkpt lat="45.94138" lon="4.81162">
        <ele>244</ele>
        <time>2017-12-05T11:02:28Z</time>
      </trkpt>
      <trkpt lat="45.9413" lon="4.81147">
        <ele>243</ele>
        <time>2017-12-05T11:02:29Z</time>
      </trkpt>
      <trkpt lat="45.94123" lon="4.81131">
        <ele>243</ele>
        <time>2017-12-05T11:02:30Z</time>
      </trkpt>
      <trkpt lat="45.94116" lon="4.81117">
        <ele>243</ele>
        <time>2017-12-05T11:02:31Z</time>
      </trkpt>
      <trkpt lat="45.94109" lon="4.81101">
        <ele>242</ele>
        <time>2017-12-05T11:02:32Z</time>
      </trkpt>
      <trkpt lat="45.94102" lon="4.81088">
        <ele>241</ele>
        <time>2017-12-05T11:02:33Z</time>
      </trkpt>
      <trkpt lat="45.94095" lon="4.81074">
        <ele>241</ele>
        <time>2017-12-05T11:02:34Z</time>
      </trkpt>
      <trkpt lat="45.94088" lon="4.81059">
        <ele>242</ele>
        <time>2017-12-05T11:02:35Z</time>
      </trkpt>
      <trkpt lat="45.94083" lon="4.81044">
        <ele>234</ele>
        <time>2017-12-05T11:02:36Z</time>
      </trkpt>
      <trkpt lat="45.94079" lon="4.81027">
        <ele>234</ele>
        <time>2017-12-05T11:02:37Z</time>
      </trkpt>
      <trkpt lat="45.94075" lon="4.81011">
        <ele>236</ele>
        <time>2017-12-05T11:02:38Z</time>
      </trkpt>
      <trkpt lat="45.94072" lon="4.80995">
        <ele>236</ele>
        <time>2017-12-05T11:02:39Z</time>
      </trkpt>
      <trkpt lat="45.9407" lon="4.80979">
        <ele>234</ele>
        <time>2017-12-05T11:02:40Z</time>
      </trkpt>
      <trkpt lat="45.94068" lon="4.80963">
        <ele>232</ele>
        <time>2017-12-05T11:02:41Z</time>
      </trkpt>
      <trkpt lat="45.94066" lon="4.80947">
        <ele>232</ele>
        <time>2017-12-05T11:02:42Z</time>
      </trkpt>
      <trkpt lat="45.94064" lon="4.80932">
        <ele>233</ele>
        <time>2017-12-05T11:02:43Z</time>
      </trkpt>
      <trkpt lat="45.94061" lon="4.80916">
        <ele>232</ele>
        <time>2017-12-05T11:02:44Z</time>
      </trkpt>
      <trkpt lat="45.94059" lon="4.80901">
        <ele>231</ele>
        <time>2017-12-05T11:02:45Z</time>
      </trkpt>
      <trkpt lat="45.94056" lon="4.80885">
        <ele>230</ele>
        <time>2017-12-05T11:02:46Z</time>
      </trkpt>
      <trkpt lat="45.94054" lon="4.80869">
        <ele>230</ele>
        <time>2017-12-05T11:02:47Z</time>
      </trkpt>
      <trkpt lat="45.94052" lon="4.80852">
        <ele>230</ele>
        <time>2017-12-05T11:02:48Z</time>
      </trkpt>
      <trkpt lat="45.9405" lon="4.80834">
        <ele>230</ele>
        <time>2017-12-05T11:02:49Z</time>
      </trkpt>
      <trkpt lat="45.94048" lon="4.80818">
        <ele>229</ele>
        <time>2017-12-05T11:02:50Z</time>
      </trkpt>
      <trkpt lat="45.94045" lon="4.80801">
        <ele>229</ele>
        <time>2017-12-05T11:02:51Z</time>
      </trkpt>
      <trkpt lat="45.94044" lon="4.80783">
        <ele>228</ele>
        <time>2017-12-05T11:02:52Z</time>
      </trkpt>
      <trkpt lat="45.94041" lon="4.80766">
        <ele>228</ele>
        <time>2017-12-05T11:02:53Z</time>
      </trkpt>
      <trkpt lat="45.94038" lon="4.80749">
        <ele>226</ele>
        <time>2017-12-05T11:02:54Z</time>
      </trkpt>
      <trkpt lat="45.94035" lon="4.80732">
        <ele>226</ele>
        <time>2017-12-05T11:02:55Z</time>
      </trkpt>
      <trkpt lat="45.94033" lon="4.80713">
        <ele>226</ele>
        <time>2017-12-05T11:02:56Z</time>
      </trkpt>
      <trkpt lat="45.94031" lon="4.80694">
        <ele>225</ele>
        <time>2017-12-05T11:02:57Z</time>
      </trkpt>
      <trkpt lat="45.94029" lon="4.80675">
        <ele>224</ele>
        <time>2017-12-05T11:02:58Z</time>
      </trkpt>
      <trkpt lat="45.94027" lon="4.80657">
        <ele>224</ele>
        <time>2017-12-05T11:02:59Z</time>
      </trkpt>
      <trkpt lat="45.94025" lon="4.80637">
        <ele>224</ele>
        <time>2017-12-05T11:03:00Z</time>
      </trkpt>
      <trkpt lat="45.94023" lon="4.80618">
        <ele>225</ele>
        <time>2017-12-05T11:03:01Z</time>
      </trkpt>
      <trkpt lat="45.94022" lon="4.80601">
        <ele>224</ele>
        <time>2017-12-05T11:03:02Z</time>
      </trkpt>
      <trkpt lat="45.9402" lon="4.80583">
        <ele>223</ele>
        <time>2017-12-05T11:03:03Z</time>
      </trkpt>
      <trkpt lat="45.94018" lon="4.80566">
        <ele>224</ele>
        <time>2017-12-05T11:03:04Z</time>
      </trkpt>
      <trkpt lat="45.94017" lon="4.80549">
        <ele>224</ele>
        <time>2017-12-05T11:03:05Z</time>
      </trkpt>
      <trkpt lat="45.94017" lon="4.80532">
        <ele>224</ele>
        <time>2017-12-05T11:03:06Z</time>
      </trkpt>
      <trkpt lat="45.94016" lon="4.80514">
        <ele>223</ele>
        <time>2017-12-05T11:03:07Z</time>
      </trkpt>
      <trkpt lat="45.94015" lon="4.80499">
        <ele>221</ele>
        <time>2017-12-05T11:03:08Z</time>
      </trkpt>
      <trkpt lat="45.94015" lon="4.80483">
        <ele>222</ele>
        <time>2017-12-05T11:03:09Z</time>
      </trkpt>
      <trkpt lat="45.94014" lon="4.80465">
        <ele>223</ele>
        <time>2017-12-05T11:03:10Z</time>
      </trkpt>
      <trkpt lat="45.94014" lon="4.80447">
        <ele>222</ele>
        <time>2017-12-05T11:03:11Z</time>
      </trkpt>
      <trkpt lat="45.94012" lon="4.80432">
        <ele>221</ele>
        <time>2017-12-05T11:03:12Z</time>
      </trkpt>
      <trkpt lat="45.94009" lon="4.80416">
        <ele>217</ele>
        <time>2017-12-05T11:03:13Z</time>
      </trkpt>
      <trkpt lat="45.94004" lon="4.80401">
        <ele>217</ele>
        <time>2017-12-05T11:03:14Z</time>
      </trkpt>
      <trkpt lat="45.94001" lon="4.80383">
        <ele>216</ele>
        <time>2017-12-05T11:03:15Z</time>
      </trkpt>
      <trkpt lat="45.93996" lon="4.80367">
        <ele>207</ele>
        <time>2017-12-05T11:03:16Z</time>
      </trkpt>
      <trkpt lat="45.93993" lon="4.80351">
        <ele>206</ele>
        <time>2017-12-05T11:03:17Z</time>
      </trkpt>
      <trkpt lat="45.93988" lon="4.80336">
        <ele>206</ele>
        <time>2017-12-05T11:03:18Z</time>
      </trkpt>
      <trkpt lat="45.93983" lon="4.80322">
        <ele>204</ele>
        <time>2017-12-05T11:03:19Z</time>
      </trkpt>
      <trkpt lat="45.93979" lon="4.80307">
        <ele>203</ele>
        <time>2017-12-05T11:03:20Z</time>
      </trkpt>
      <trkpt lat="45.93975" lon="4.80291">
        <ele>203</ele>
        <time>2017-12-05T11:03:21Z</time>
      </trkpt>
      <trkpt lat="45.93972" lon="4.80277">
        <ele>202</ele>
        <time>2017-12-05T11:03:22Z</time>
      </trkpt>
      <trkpt lat="45.93969" lon="4.80262">
        <ele>202</ele>
        <time>2017-12-05T11:03:23Z</time>
      </trkpt>
      <trkpt lat="45.93964" lon="4.80246">
        <ele>204</ele>
        <time>2017-12-05T11:03:24Z</time>
      </trkpt>
      <trkpt lat="45.93961" lon="4.80233">
        <ele>204</ele>
        <time>2017-12-05T11:03:25Z</time>
      </trkpt>
      <trkpt lat="45.93957" lon="4.80219">
        <ele>205</ele>
        <time>2017-12-05T11:03:26Z</time>
      </trkpt>
      <trkpt lat="45.93955" lon="4.80206">
        <ele>205</ele>
        <time>2017-12-05T11:03:27Z</time>
      </trkpt>
      <trkpt lat="45.93951" lon="4.80194">
        <ele>205</ele>
        <time>2017-12-05T11:03:28Z</time>
      </trkpt>
      <trkpt lat="45.93948" lon="4.80181">
        <ele>206</ele>
        <time>2017-12-05T11:03:29Z</time>
      </trkpt>
      <trkpt lat="45.93947" lon="4.80168">
        <ele>206</ele>
        <time>2017-12-05T11:03:30Z</time>
      </trkpt>
      <trkpt lat="45.93944" lon="4.80155">
        <ele>208</ele>
        <time>2017-12-05T11:03:31Z</time>
      </trkpt>
      <trkpt lat="45.93943" lon="4.80142">
        <ele>208</ele>
        <time>2017-12-05T11:03:32Z</time>
      </trkpt>
      <trkpt lat="45.93941" lon="4.80129">
        <ele>208</ele>
        <time>2017-12-05T11:03:33Z</time>
      </trkpt>
      <trkpt lat="45.9394" lon="4.80117">
        <ele>209</ele>
        <time>2017-12-05T11:03:34Z</time>
      </trkpt>
      <trkpt lat="45.9394" lon="4.80104">
        <ele>208</ele>
        <time>2017-12-05T11:03:35Z</time>
      </trkpt>
      <trkpt lat="45.9394" lon="4.80091">
        <ele>208</ele>
        <time>2017-12-05T11:03:36Z</time>
      </trkpt>
      <trkpt lat="45.9394" lon="4.8008">
        <ele>207</ele>
        <time>2017-12-05T11:03:37Z</time>
      </trkpt>
      <trkpt lat="45.93939" lon="4.80069">
        <ele>207</ele>
        <time>2017-12-05T11:03:38Z</time>
      </trkpt>
      <trkpt lat="45.9394" lon="4.80058">
        <ele>207</ele>
        <time>2017-12-05T11:03:39Z</time>
      </trkpt>
      <trkpt lat="45.9394" lon="4.80049">
        <ele>207</ele>
        <time>2017-12-05T11:03:40Z</time>
      </trkpt>
      <trkpt lat="45.93941" lon="4.8004">
        <ele>207</ele>
        <time>2017-12-05T11:03:41Z</time>
      </trkpt>
      <trkpt lat="45.93941" lon="4.80031">
        <ele>207</ele>
        <time>2017-12-05T11:03:42Z</time>
      </trkpt>
      <trkpt lat="45.93942" lon="4.80022">
        <ele>206</ele>
        <time>2017-12-05T11:03:43Z</time>
      </trkpt>
      <trkpt lat="45.93942" lon="4.80013">
        <ele>206</ele>
        <time>2017-12-05T11:03:44Z</time>
      </trkpt>
      <trkpt lat="45.93943" lon="4.80004">
        <ele>206</ele>
        <time>2017-12-05T11:03:45Z</time>
      </trkpt>
      <trkpt lat="45.93945" lon="4.79996">
        <ele>205</ele>
        <time>2017-12-05T11:03:46Z</time>
      </trkpt>
      <trkpt lat="45.93946" lon="4.79988">
        <ele>205</ele>
        <time>2017-12-05T11:03:47Z</time>
      </trkpt>
      <trkpt lat="45.93947" lon="4.7998">
        <ele>205</ele>
        <time>2017-12-05T11:03:48Z</time>
      </trkpt>
      <trkpt lat="45.93948" lon="4.79973">
        <ele>205</ele>
        <time>2017-12-05T11:03:49Z</time>
      </trkpt>
      <trkpt lat="45.93949" lon="4.79965">
        <ele>205</ele>
        <time>2017-12-05T11:03:50Z</time>
      </trkpt>
      <trkpt lat="45.9395" lon="4.79956">
        <ele>205</ele>
        <time>2017-12-05T11:03:51Z</time>
      </trkpt>
      <trkpt lat="45.93951" lon="4.79948">
        <ele>205</ele>
        <time>2017-12-05T11:03:52Z</time>
      </trkpt>
      <trkpt lat="45.93952" lon="4.7994">
        <ele>205</ele>
        <time>2017-12-05T11:03:53Z</time>
      </trkpt>
      <trkpt lat="45.93953" lon="4.79931">
        <ele>205</ele>
        <time>2017-12-05T11:03:54Z</time>
      </trkpt>
      <trkpt lat="45.93954" lon="4.79923">
        <ele>205</ele>
        <time>2017-12-05T11:03:55Z</time>
      </trkpt>
      <trkpt lat="45.93957" lon="4.79912">
        <ele>205</ele>
        <time>2017-12-05T11:03:56Z</time>
      </trkpt>
      <trkpt lat="45.93958" lon="4.79903">
        <ele>206</ele>
        <time>2017-12-05T11:03:57Z</time>
      </trkpt>
      <trkpt lat="45.93959" lon="4.79894">
        <ele>206</ele>
        <time>2017-12-05T11:03:58Z</time>
      </trkpt>
      <trkpt lat="45.9396" lon="4.79887">
        <ele>206</ele>
        <time>2017-12-05T11:03:59Z</time>
      </trkpt>
      <trkpt lat="45.93961" lon="4.7988">
        <ele>206</ele>
        <time>2017-12-05T11:04:00Z</time>
      </trkpt>
      <trkpt lat="45.93962" lon="4.79872">
        <ele>206</ele>
        <time>2017-12-05T11:04:01Z</time>
      </trkpt>
      <trkpt lat="45.93963" lon="4.79864">
        <ele>206</ele>
        <time>2017-12-05T11:04:02Z</time>
      </trkpt>
      <trkpt lat="45.93965" lon="4.79856">
        <ele>206</ele>
        <time>2017-12-05T11:04:03Z</time>
      </trkpt>
      <trkpt lat="45.93967" lon="4.79848">
        <ele>206</ele>
        <time>2017-12-05T11:04:04Z</time>
      </trkpt>
      <trkpt lat="45.93968" lon="4.7984">
        <ele>206</ele>
        <time>2017-12-05T11:04:05Z</time>
      </trkpt>
      <trkpt lat="45.9397" lon="4.79831">
        <ele>207</ele>
        <time>2017-12-05T11:04:06Z</time>
      </trkpt>
      <trkpt lat="45.93972" lon="4.79822">
        <ele>207</ele>
        <time>2017-12-05T11:04:07Z</time>
      </trkpt>
      <trkpt lat="45.93973" lon="4.79814">
        <ele>207</ele>
        <time>2017-12-05T11:04:08Z</time>
      </trkpt>
      <trkpt lat="45.93974" lon="4.79807">
        <ele>207</ele>
        <time>2017-12-05T11:04:09Z</time>
      </trkpt>
      <trkpt lat="45.93974" lon="4.79799">
        <ele>207</ele>
        <time>2017-12-05T11:04:10Z</time>
      </trkpt>
      <trkpt lat="45.93974" lon="4.79791">
        <ele>206</ele>
        <time>2017-12-05T11:04:11Z</time>
      </trkpt>
      <trkpt lat="45.93975" lon="4.79783">
        <ele>206</ele>
        <time>2017-12-05T11:04:12Z</time>
      </trkpt>
      <trkpt lat="45.93976" lon="4.79772">
        <ele>206</ele>
        <time>2017-12-05T11:04:13Z</time>
      </trkpt>
      <trkpt lat="45.93975" lon="4.79765">
        <ele>207</ele>
        <time>2017-12-05T11:04:14Z</time>
      </trkpt>
      <trkpt lat="45.93975" lon="4.79755">
        <ele>207</ele>
        <time>2017-12-05T11:04:15Z</time>
      </trkpt>
      <trkpt lat="45.93975" lon="4.79746">
        <ele>207</ele>
        <time>2017-12-05T11:04:16Z</time>
      </trkpt>
      <trkpt lat="45.93974" lon="4.79737">
        <ele>207</ele>
        <time>2017-12-05T11:04:17Z</time>
      </trkpt>
      <trkpt lat="45.93972" lon="4.7973">
        <ele>207</ele>
        <time>2017-12-05T11:04:18Z</time>
      </trkpt>
      <trkpt lat="45.93972" lon="4.79722">
        <ele>207</ele>
        <time>2017-12-05T11:04:19Z</time>
      </trkpt>
      <trkpt lat="45.93971" lon="4.79714">
        <ele>207</ele>
        <time>2017-12-05T11:04:20Z</time>
      </trkpt>
      <trkpt lat="45.9397" lon="4.79706">
        <ele>207</ele>
        <time>2017-12-05T11:04:21Z</time>
      </trkpt>
      <trkpt lat="45.93971" lon="4.79697">
        <ele>207</ele>
        <time>2017-12-05T11:04:22Z</time>
      </trkpt>
      <trkpt lat="45.9397" lon="4.79689">
        <ele>207</ele>
        <time>2017-12-05T11:04:23Z</time>
      </trkpt>
      <trkpt lat="45.93969" lon="4.79681">
        <ele>207</ele>
        <time>2017-12-05T11:04:24Z</time>
      </trkpt>
      <trkpt lat="45.93969" lon="4.79673">
        <ele>207</ele>
        <time>2017-12-05T11:04:25Z</time>
      </trkpt>
      <trkpt lat="45.93969" lon="4.79664">
        <ele>208</ele>
        <time>2017-12-05T11:04:26Z</time>
      </trkpt>
      <trkpt lat="45.93968" lon="4.79656">
        <ele>208</ele>
        <time>2017-12-05T11:04:27Z</time>
      </trkpt>
      <trkpt lat="45.93968" lon="4.79648">
        <ele>208</ele>
        <time>2017-12-05T11:04:28Z</time>
      </trkpt>
      <trkpt lat="45.93966" lon="4.7964">
        <ele>207</ele>
        <time>2017-12-05T11:04:29Z</time>
      </trkpt>
      <trkpt lat="45.93965" lon="4.79631">
        <ele>207</ele>
        <time>2017-12-05T11:04:30Z</time>
      </trkpt>
      <trkpt lat="45.93964" lon="4.79623">
        <ele>207</ele>
        <time>2017-12-05T11:04:31Z</time>
      </trkpt>
      <trkpt lat="45.93964" lon="4.79612">
        <ele>207</ele>
        <time>2017-12-05T11:04:32Z</time>
      </trkpt>
      <trkpt lat="45.93963" lon="4.79602">
        <ele>207</ele>
        <time>2017-12-05T11:04:33Z</time>
      </trkpt>
      <trkpt lat="45.93962" lon="4.79593">
        <ele>207</ele>
        <time>2017-12-05T11:04:34Z</time>
      </trkpt>
      <trkpt lat="45.93962" lon="4.79584">
        <ele>207</ele>
        <time>2017-12-05T11:04:35Z</time>
      </trkpt>
      <trkpt lat="45.9396" lon="4.79575">
        <ele>206</ele>
        <time>2017-12-05T11:04:36Z</time>
      </trkpt>
      <trkpt lat="45.93959" lon="4.79565">
        <ele>205</ele>
        <time>2017-12-05T11:04:37Z</time>
      </trkpt>
      <trkpt lat="45.93958" lon="4.79556">
        <ele>205</ele>
        <time>2017-12-05T11:04:38Z</time>
      </trkpt>
      <trkpt lat="45.93959" lon="4.79546">
        <ele>205</ele>
        <time>2017-12-05T11:04:39Z</time>
      </trkpt>
      <trkpt lat="45.93958" lon="4.79537">
        <ele>205</ele>
        <time>2017-12-05T11:04:40Z</time>
      </trkpt>
      <trkpt lat="45.93959" lon="4.79527">
        <ele>205</ele>
        <time>2017-12-05T11:04:41Z</time>
      </trkpt>
      <trkpt lat="45.93959" lon="4.79518">
        <ele>205</ele>
        <time>2017-12-05T11:04:42Z</time>
      </trkpt>
      <trkpt lat="45.9396" lon="4.79509">
        <ele>205</ele>
        <time>2017-12-05T11:04:43Z</time>
      </trkpt>
      <trkpt lat="45.93959" lon="4.79499">
        <ele>203</ele>
        <time>2017-12-05T11:04:44Z</time>
      </trkpt>
      <trkpt lat="45.93958" lon="4.79489">
        <ele>203</ele>
        <time>2017-12-05T11:04:45Z</time>
      </trkpt>
      <trkpt lat="45.93958" lon="4.79476">
        <ele>203</ele>
        <time>2017-12-05T11:04:46Z</time>
      </trkpt>
      <trkpt lat="45.93958" lon="4.79466">
        <ele>203</ele>
        <time>2017-12-05T11:04:47Z</time>
      </trkpt>
      <trkpt lat="45.93957" lon="4.79456">
        <ele>203</ele>
        <time>2017-12-05T11:04:48Z</time>
      </trkpt>
      <trkpt lat="45.93956" lon="4.79445">
        <ele>203</ele>
        <time>2017-12-05T11:04:49Z</time>
      </trkpt>
      <trkpt lat="45.93956" lon="4.79435">
        <ele>203</ele>
        <time>2017-12-05T11:04:50Z</time>
      </trkpt>
      <trkpt lat="45.93957" lon="4.79425">
        <ele>203</ele>
        <time>2017-12-05T11:04:51Z</time>
      </trkpt>
      <trkpt lat="45.93956" lon="4.79415">
        <ele>201</ele>
        <time>2017-12-05T11:04:52Z</time>
      </trkpt>
      <trkpt lat="45.93956" lon="4.79403">
        <ele>201</ele>
        <time>2017-12-05T11:04:53Z</time>
      </trkpt>
      <trkpt lat="45.93955" lon="4.79394">
        <ele>201</ele>
        <time>2017-12-05T11:04:54Z</time>
      </trkpt>
      <trkpt lat="45.93955" lon="4.79383">
        <ele>201</ele>
        <time>2017-12-05T11:04:55Z</time>
      </trkpt>
      <trkpt lat="45.93955" lon="4.79372">
        <ele>201</ele>
        <time>2017-12-05T11:04:56Z</time>
      </trkpt>
      <trkpt lat="45.93954" lon="4.79362">
        <ele>201</ele>
        <time>2017-12-05T11:04:57Z</time>
      </trkpt>
      <trkpt lat="45.93954" lon="4.7935">
        <ele>201</ele>
        <time>2017-12-05T11:04:58Z</time>
      </trkpt>
      <trkpt lat="45.93954" lon="4.79338">
        <ele>200</ele>
        <time>2017-12-05T11:04:59Z</time>
      </trkpt>
      <trkpt lat="45.93954" lon="4.79328">
        <ele>199</ele>
        <time>2017-12-05T11:05:00Z</time>
      </trkpt>
      <trkpt lat="45.93953" lon="4.79317">
        <ele>199</ele>
        <time>2017-12-05T11:05:01Z</time>
      </trkpt>
      <trkpt lat="45.93954" lon="4.79306">
        <ele>199</ele>
        <time>2017-12-05T11:05:02Z</time>
      </trkpt>
      <trkpt lat="45.93954" lon="4.79294">
        <ele>199</ele>
        <time>2017-12-05T11:05:03Z</time>
      </trkpt>
      <trkpt lat="45.93954" lon="4.79285">
        <ele>198</ele>
        <time>2017-12-05T11:05:04Z</time>
      </trkpt>
      <trkpt lat="45.93953" lon="4.79275">
        <ele>198</ele>
        <time>2017-12-05T11:05:05Z</time>
      </trkpt>
      <trkpt lat="45.93953" lon="4.79266">
        <ele>198</ele>
        <time>2017-12-05T11:05:06Z</time>
      </trkpt>
      <trkpt lat="45.93952" lon="4.79256">
        <ele>198</ele>
        <time>2017-12-05T11:05:07Z</time>
      </trkpt>
      <trkpt lat="45.93951" lon="4.79245">
        <ele>197</ele>
        <time>2017-12-05T11:05:08Z</time>
      </trkpt>
      <trkpt lat="45.93952" lon="4.79234">
        <ele>197</ele>
        <time>2017-12-05T11:05:09Z</time>
      </trkpt>
      <trkpt lat="45.93951" lon="4.79225">
        <ele>197</ele>
        <time>2017-12-05T11:05:10Z</time>
      </trkpt>
      <trkpt lat="45.93952" lon="4.79215">
        <ele>197</ele>
        <time>2017-12-05T11:05:11Z</time>
      </trkpt>
      <trkpt lat="45.93952" lon="4.79206">
        <ele>197</ele>
        <time>2017-12-05T11:05:12Z</time>
      </trkpt>
      <trkpt lat="45.93951" lon="4.79197">
        <ele>197</ele>
        <time>2017-12-05T11:05:13Z</time>
      </trkpt>
      <trkpt lat="45.9395" lon="4.7919">
        <ele>197</ele>
        <time>2017-12-05T11:05:14Z</time>
      </trkpt>
      <trkpt lat="45.93949" lon="4.7918">
        <ele>197</ele>
        <time>2017-12-05T11:05:15Z</time>
      </trkpt>
      <trkpt lat="45.9395" lon="4.79167">
        <ele>197</ele>
        <time>2017-12-05T11:05:16Z</time>
      </trkpt>
      <trkpt lat="45.9395" lon="4.79157">
        <ele>197</ele>
        <time>2017-12-05T11:05:17Z</time>
      </trkpt>
      <trkpt lat="45.93951" lon="4.79146">
        <ele>197</ele>
        <time>2017-12-05T11:05:18Z</time>
      </trkpt>
      <trkpt lat="45.93951" lon="4.79136">
        <ele>197</ele>
        <time>2017-12-05T11:05:19Z</time>
      </trkpt>
      <trkpt lat="45.93951" lon="4.79123">
        <ele>197</ele>
        <time>2017-12-05T11:05:20Z</time>
      </trkpt>
      <trkpt lat="45.93951" lon="4.79113">
        <ele>197</ele>
        <time>2017-12-05T11:05:21Z</time>
      </trkpt>
      <trkpt lat="45.9395" lon="4.79103">
        <ele>197</ele>
        <time>2017-12-05T11:05:22Z</time>
      </trkpt>
      <trkpt lat="45.93949" lon="4.79094">
        <ele>196</ele>
        <time>2017-12-05T11:05:23Z</time>
      </trkpt>
      <trkpt lat="45.93948" lon="4.79085">
        <ele>196</ele>
        <time>2017-12-05T11:05:24Z</time>
      </trkpt>
      <trkpt lat="45.93947" lon="4.79074">
        <ele>196</ele>
        <time>2017-12-05T11:05:25Z</time>
      </trkpt>
      <trkpt lat="45.93947" lon="4.79064">
        <ele>196</ele>
        <time>2017-12-05T11:05:26Z</time>
      </trkpt>
      <trkpt lat="45.93947" lon="4.79054">
        <ele>196</ele>
        <time>2017-12-05T11:05:27Z</time>
      </trkpt>
      <trkpt lat="45.93947" lon="4.79044">
        <ele>196</ele>
        <time>2017-12-05T11:05:28Z</time>
      </trkpt>
      <trkpt lat="45.93947" lon="4.79034">
        <ele>195</ele>
        <time>2017-12-05T11:05:29Z</time>
      </trkpt>
      <trkpt lat="45.93946" lon="4.79023">
        <ele>195</ele>
        <time>2017-12-05T11:05:30Z</time>
      </trkpt>
      <trkpt lat="45.93945" lon="4.79012">
        <ele>195</ele>
        <time>2017-12-05T11:05:31Z</time>
      </trkpt>
      <trkpt lat="45.93945" lon="4.79001">
        <ele>195</ele>
        <time>2017-12-05T11:05:32Z</time>
      </trkpt>
      <trkpt lat="45.93944" lon="4.7899">
        <ele>194</ele>
        <time>2017-12-05T11:05:33Z</time>
      </trkpt>
      <trkpt lat="45.93943" lon="4.7898">
        <ele>194</ele>
        <time>2017-12-05T11:05:34Z</time>
      </trkpt>
      <trkpt lat="45.93943" lon="4.78968">
        <ele>194</ele>
        <time>2017-12-05T11:05:35Z</time>
      </trkpt>
      <trkpt lat="45.93943" lon="4.78958">
        <ele>194</ele>
        <time>2017-12-05T11:05:36Z</time>
      </trkpt>
      <trkpt lat="45.93942" lon="4.78948">
        <ele>194</ele>
        <time>2017-12-05T11:05:37Z</time>
      </trkpt>
      <trkpt lat="45.93941" lon="4.78938">
        <ele>194</ele>
        <time>2017-12-05T11:05:38Z</time>
      </trkpt>
      <trkpt lat="45.93941" lon="4.78928">
        <ele>193</ele>
        <time>2017-12-05T11:05:39Z</time>
      </trkpt>
      <trkpt lat="45.93941" lon="4.78918">
        <ele>193</ele>
        <time>2017-12-05T11:05:40Z</time>
      </trkpt>
      <trkpt lat="45.9394" lon="4.78908">
        <ele>193</ele>
        <time>2017-12-05T11:05:41Z</time>
      </trkpt>
      <trkpt lat="45.9394" lon="4.78898">
        <ele>193</ele>
        <time>2017-12-05T11:05:42Z</time>
      </trkpt>
      <trkpt lat="45.93939" lon="4.78888">
        <ele>193</ele>
        <time>2017-12-05T11:05:43Z</time>
      </trkpt>
      <trkpt lat="45.93939" lon="4.78879">
        <ele>194</ele>
        <time>2017-12-05T11:05:44Z</time>
      </trkpt>
      <trkpt lat="45.93938" lon="4.7887">
        <ele>194</ele>
        <time>2017-12-05T11:05:45Z</time>
      </trkpt>
      <trkpt lat="45.93938" lon="4.7886">
        <ele>194</ele>
        <time>2017-12-05T11:05:46Z</time>
      </trkpt>
      <trkpt lat="45.93937" lon="4.7885">
        <ele>193</ele>
        <time>2017-12-05T11:05:47Z</time>
      </trkpt>
      <trkpt lat="45.93938" lon="4.78841">
        <ele>193</ele>
        <time>2017-12-05T11:05:48Z</time>
      </trkpt>
      <trkpt lat="45.93938" lon="4.78832">
        <ele>193</ele>
        <time>2017-12-05T11:05:49Z</time>
      </trkpt>
      <trkpt lat="45.93937" lon="4.78823">
        <ele>194</ele>
        <time>2017-12-05T11:05:50Z</time>
      </trkpt>
      <trkpt lat="45.93938" lon="4.78814">
        <ele>194</ele>
        <time>2017-12-05T11:05:51Z</time>
      </trkpt>
      <trkpt lat="45.93938" lon="4.78803">
        <ele>194</ele>
        <time>2017-12-05T11:05:52Z</time>
      </trkpt>
      <trkpt lat="45.93938" lon="4.78796">
        <ele>194</ele>
        <time>2017-12-05T11:05:53Z</time>
      </trkpt>
      <trkpt lat="45.93938" lon="4.78787">
        <ele>194</ele>
        <time>2017-12-05T11:05:54Z</time>
      </trkpt>
      <trkpt lat="45.93937" lon="4.7878">
        <ele>194</ele>
        <time>2017-12-05T11:05:55Z</time>
      </trkpt>
      <trkpt lat="45.93937" lon="4.78772">
        <ele>194</ele>
        <time>2017-12-05T11:05:56Z</time>
      </trkpt>
      <trkpt lat="45.93936" lon="4.78762">
        <ele>193</ele>
        <time>2017-12-05T11:05:57Z</time>
      </trkpt>
      <trkpt lat="45.93937" lon="4.78754">
        <ele>193</ele>
        <time>2017-12-05T11:05:58Z</time>
      </trkpt>
      <trkpt lat="45.93936" lon="4.78748">
        <ele>193</ele>
        <time>2017-12-05T11:05:59Z</time>
      </trkpt>
      <trkpt lat="45.93935" lon="4.7874">
        <ele>193</ele>
        <time>2017-12-05T11:06:00Z</time>
      </trkpt>
      <trkpt lat="45.93936" lon="4.78732">
        <ele>193</ele>
        <time>2017-12-05T11:06:01Z</time>
      </trkpt>
      <trkpt lat="45.93937" lon="4.78724">
        <ele>194</ele>
        <time>2017-12-05T11:06:02Z</time>
      </trkpt>
      <trkpt lat="45.93937" lon="4.78716">
        <ele>194</ele>
        <time>2017-12-05T11:06:03Z</time>
      </trkpt>
      <trkpt lat="45.93936" lon="4.78709">
        <ele>194</ele>
        <time>2017-12-05T11:06:04Z</time>
      </trkpt>
      <trkpt lat="45.93937" lon="4.78699">
        <ele>194</ele>
        <time>2017-12-05T11:06:05Z</time>
      </trkpt>
      <trkpt lat="45.93937" lon="4.78692">
        <ele>194</ele>
        <time>2017-12-05T11:06:06Z</time>
      </trkpt>
      <trkpt lat="45.93937" lon="4.78684">
        <ele>194</ele>
        <time>2017-12-05T11:06:07Z</time>
      </trkpt>
      <trkpt lat="45.93939" lon="4.78678">
        <ele>193</ele>
        <time>2017-12-05T11:06:08Z</time>
      </trkpt>
      <trkpt lat="45.93938" lon="4.78669">
        <ele>193</ele>
        <time>2017-12-05T11:06:09Z</time>
      </trkpt>
      <trkpt lat="45.93938" lon="4.78661">
        <ele>194</ele>
        <time>2017-12-05T11:06:10Z</time>
      </trkpt>
      <trkpt lat="45.93938" lon="4.78654">
        <ele>194</ele>
        <time>2017-12-05T11:06:11Z</time>
      </trkpt>
      <trkpt lat="45.93938" lon="4.78645">
        <ele>195</ele>
        <time>2017-12-05T11:06:12Z</time>
      </trkpt>
      <trkpt lat="45.93938" lon="4.78636">
        <ele>195</ele>
        <time>2017-12-05T11:06:13Z</time>
      </trkpt>
      <trkpt lat="45.93938" lon="4.78627">
        <ele>195</ele>
        <time>2017-12-05T11:06:14Z</time>
      </trkpt>
      <trkpt lat="45.93939" lon="4.78619">
        <ele>196</ele>
        <time>2017-12-05T11:06:15Z</time>
      </trkpt>
      <trkpt lat="45.93938" lon="4.78612">
        <ele>196</ele>
        <time>2017-12-05T11:06:16Z</time>
      </trkpt>
      <trkpt lat="45.93937" lon="4.78601">
        <ele>195</ele>
        <time>2017-12-05T11:06:18Z</time>
      </trkpt>
      <trkpt lat="45.93936" lon="4.78596">
        <ele>195</ele>
        <time>2017-12-05T11:06:19Z</time>
      </trkpt>
      <trkpt lat="45.93936" lon="4.78585">
        <ele>195</ele>
        <time>2017-12-05T11:06:21Z</time>
      </trkpt>
      <trkpt lat="45.93934" lon="4.78582">
        <ele>196</ele>
        <time>2017-12-05T11:06:22Z</time>
      </trkpt>
      <trkpt lat="45.93934" lon="4.7857">
        <ele>196</ele>
        <time>2017-12-05T11:06:25Z</time>
      </trkpt>
      <trkpt lat="45.93934" lon="4.78565">
        <ele>196</ele>
        <time>2017-12-05T11:06:26Z</time>
      </trkpt>
      <trkpt lat="45.93934" lon="4.78556">
        <ele>197</ele>
        <time>2017-12-05T11:06:29Z</time>
      </trkpt>
      <trkpt lat="45.93935" lon="4.78552">
        <ele>197</ele>
        <time>2017-12-05T11:06:30Z</time>
      </trkpt>
      <trkpt lat="45.93936" lon="4.78543">
        <ele>197</ele>
        <time>2017-12-05T11:06:32Z</time>
      </trkpt>
      <trkpt lat="45.93936" lon="4.78538">
        <ele>197</ele>
        <time>2017-12-05T11:06:33Z</time>
      </trkpt>
      <trkpt lat="45.93936" lon="4.78527">
        <ele>197</ele>
        <time>2017-12-05T11:06:35Z</time>
      </trkpt>
      <trkpt lat="45.93936" lon="4.78522">
        <ele>197</ele>
        <time>2017-12-05T11:06:36Z</time>
      </trkpt>
      <trkpt lat="45.93937" lon="4.7851">
        <ele>197</ele>
        <time>2017-12-05T11:06:38Z</time>
      </trkpt>
      <trkpt lat="45.93937" lon="4.78503">
        <ele>197</ele>
        <time>2017-12-05T11:06:39Z</time>
      </trkpt>
      <trkpt lat="45.93939" lon="4.78495">
        <ele>197</ele>
        <time>2017-12-05T11:06:41Z</time>
      </trkpt>
      <trkpt lat="45.93939" lon="4.7849">
        <ele>197</ele>
        <time>2017-12-05T11:06:42Z</time>
      </trkpt>
      <trkpt lat="45.93941" lon="4.78479">
        <ele>197</ele>
        <time>2017-12-05T11:06:44Z</time>
      </trkpt>
      <trkpt lat="45.93941" lon="4.78475">
        <ele>197</ele>
        <time>2017-12-05T11:06:45Z</time>
      </trkpt>
      <trkpt lat="45.93944" lon="4.78463">
        <ele>197</ele>
        <time>2017-12-05T11:06:48Z</time>
      </trkpt>
      <trkpt lat="45.93945" lon="4.78458">
        <ele>197</ele>
        <time>2017-12-05T11:06:49Z</time>
      </trkpt>
      <trkpt lat="45.93948" lon="4.7845">
        <ele>197</ele>
        <time>2017-12-05T11:06:50Z</time>
      </trkpt>
      <trkpt lat="45.93949" lon="4.78441">
        <ele>197</ele>
        <time>2017-12-05T11:06:51Z</time>
      </trkpt>
      <trkpt lat="45.9395" lon="4.78434">
        <ele>197</ele>
        <time>2017-12-05T11:06:52Z</time>
      </trkpt>
      <trkpt lat="45.93952" lon="4.78426">
        <ele>197</ele>
        <time>2017-12-05T11:06:53Z</time>
      </trkpt>
      <trkpt lat="45.93953" lon="4.78418">
        <ele>197</ele>
        <time>2017-12-05T11:06:54Z</time>
      </trkpt>
      <trkpt lat="45.93953" lon="4.7841">
        <ele>196</ele>
        <time>2017-12-05T11:06:55Z</time>
      </trkpt>
      <trkpt lat="45.93954" lon="4.78401">
        <ele>196</ele>
        <time>2017-12-05T11:06:56Z</time>
      </trkpt>
      <trkpt lat="45.93954" lon="4.78395">
        <ele>196</ele>
        <time>2017-12-05T11:06:57Z</time>
      </trkpt>
      <trkpt lat="45.93955" lon="4.78387">
        <ele>196</ele>
        <time>2017-12-05T11:06:58Z</time>
      </trkpt>
      <trkpt lat="45.93956" lon="4.78378">
        <ele>196</ele>
        <time>2017-12-05T11:06:59Z</time>
      </trkpt>
      <trkpt lat="45.93957" lon="4.78371">
        <ele>196</ele>
        <time>2017-12-05T11:07:00Z</time>
      </trkpt>
      <trkpt lat="45.93957" lon="4.78363">
        <ele>196</ele>
        <time>2017-12-05T11:07:01Z</time>
      </trkpt>
      <trkpt lat="45.93959" lon="4.78354">
        <ele>196</ele>
        <time>2017-12-05T11:07:02Z</time>
      </trkpt>
      <trkpt lat="45.93959" lon="4.78346">
        <ele>196</ele>
        <time>2017-12-05T11:07:03Z</time>
      </trkpt>
      <trkpt lat="45.9396" lon="4.78339">
        <ele>196</ele>
        <time>2017-12-05T11:07:04Z</time>
      </trkpt>
      <trkpt lat="45.9396" lon="4.78333">
        <ele>195</ele>
        <time>2017-12-05T11:07:05Z</time>
      </trkpt>
      <trkpt lat="45.93962" lon="4.78324">
        <ele>195</ele>
        <time>2017-12-05T11:07:06Z</time>
      </trkpt>
      <trkpt lat="45.93963" lon="4.78318">
        <ele>196</ele>
        <time>2017-12-05T11:07:07Z</time>
      </trkpt>
      <trkpt lat="45.93963" lon="4.78309">
        <ele>195</ele>
        <time>2017-12-05T11:07:08Z</time>
      </trkpt>
      <trkpt lat="45.93965" lon="4.78302">
        <ele>195</ele>
        <time>2017-12-05T11:07:09Z</time>
      </trkpt>
      <trkpt lat="45.93967" lon="4.78294">
        <ele>196</ele>
        <time>2017-12-05T11:07:10Z</time>
      </trkpt>
      <trkpt lat="45.93967" lon="4.78286">
        <ele>195</ele>
        <time>2017-12-05T11:07:11Z</time>
      </trkpt>
      <trkpt lat="45.93968" lon="4.78275">
        <ele>195</ele>
        <time>2017-12-05T11:07:13Z</time>
      </trkpt>
      <trkpt lat="45.93968" lon="4.78268">
        <ele>196</ele>
        <time>2017-12-05T11:07:14Z</time>
      </trkpt>
      <trkpt lat="45.93969" lon="4.78261">
        <ele>196</ele>
        <time>2017-12-05T11:07:15Z</time>
      </trkpt>
      <trkpt lat="45.93969" lon="4.78254">
        <ele>196</ele>
        <time>2017-12-05T11:07:16Z</time>
      </trkpt>
      <trkpt lat="45.9397" lon="4.78241">
        <ele>196</ele>
        <time>2017-12-05T11:07:18Z</time>
      </trkpt>
      <trkpt lat="45.93971" lon="4.78235">
        <ele>196</ele>
        <time>2017-12-05T11:07:19Z</time>
      </trkpt>
      <trkpt lat="45.93972" lon="4.78227">
        <ele>196</ele>
        <time>2017-12-05T11:07:20Z</time>
      </trkpt>
      <trkpt lat="45.93973" lon="4.78221">
        <ele>196</ele>
        <time>2017-12-05T11:07:21Z</time>
      </trkpt>
      <trkpt lat="45.93974" lon="4.7821">
        <ele>197</ele>
        <time>2017-12-05T11:07:23Z</time>
      </trkpt>
      <trkpt lat="45.93975" lon="4.78205">
        <ele>197</ele>
        <time>2017-12-05T11:07:24Z</time>
      </trkpt>
      <trkpt lat="45.93977" lon="4.78194">
        <ele>197</ele>
        <time>2017-12-05T11:07:26Z</time>
      </trkpt>
      <trkpt lat="45.93978" lon="4.78189">
        <ele>197</ele>
        <time>2017-12-05T11:07:27Z</time>
      </trkpt>
      <trkpt lat="45.93981" lon="4.78179">
        <ele>198</ele>
        <time>2017-12-05T11:07:30Z</time>
      </trkpt>
      <trkpt lat="45.93982" lon="4.78175">
        <ele>198</ele>
        <time>2017-12-05T11:07:31Z</time>
      </trkpt>
      <trkpt lat="45.93988" lon="4.78166">
        <ele>199</ele>
        <time>2017-12-05T11:07:34Z</time>
      </trkpt>
      <trkpt lat="45.9399" lon="4.78163">
        <ele>199</ele>
        <time>2017-12-05T11:07:35Z</time>
      </trkpt>
      <trkpt lat="45.93993" lon="4.78155">
        <ele>199</ele>
        <time>2017-12-05T11:07:37Z</time>
      </trkpt>
      <trkpt lat="45.93995" lon="4.7815">
        <ele>199</ele>
        <time>2017-12-05T11:07:38Z</time>
      </trkpt>
      <trkpt lat="45.93999" lon="4.78141">
        <ele>198</ele>
        <time>2017-12-05T11:07:40Z</time>
      </trkpt>
      <trkpt lat="45.94002" lon="4.78136">
        <ele>203</ele>
        <time>2017-12-05T11:07:41Z</time>
      </trkpt>
      <trkpt lat="45.94005" lon="4.78124">
        <ele>203</ele>
        <time>2017-12-05T11:07:43Z</time>
      </trkpt>
      <trkpt lat="45.94008" lon="4.78117">
        <ele>203</ele>
        <time>2017-12-05T11:07:44Z</time>
      </trkpt>
      <trkpt lat="45.94009" lon="4.7811">
        <ele>203</ele>
        <time>2017-12-05T11:07:45Z</time>
      </trkpt>
      <trkpt lat="45.94012" lon="4.78106">
        <ele>203</ele>
        <time>2017-12-05T11:07:46Z</time>
      </trkpt>
      <trkpt lat="45.94015" lon="4.78096">
        <ele>202</ele>
        <time>2017-12-05T11:07:48Z</time>
      </trkpt>
      <trkpt lat="45.94017" lon="4.7809">
        <ele>202</ele>
        <time>2017-12-05T11:07:49Z</time>
      </trkpt>
      <trkpt lat="45.94019" lon="4.78082">
        <ele>201</ele>
        <time>2017-12-05T11:07:51Z</time>
      </trkpt>
      <trkpt lat="45.9402" lon="4.78077">
        <ele>201</ele>
        <time>2017-12-05T11:07:52Z</time>
      </trkpt>
      <trkpt lat="45.94022" lon="4.78068">
        <ele>202</ele>
        <time>2017-12-05T11:07:54Z</time>
      </trkpt>
      <trkpt lat="45.94022" lon="4.78063">
        <ele>202</ele>
        <time>2017-12-05T11:07:55Z</time>
      </trkpt>
      <trkpt lat="45.94027" lon="4.78052">
        <ele>202</ele>
        <time>2017-12-05T11:07:57Z</time>
      </trkpt>
      <trkpt lat="45.94028" lon="4.78047">
        <ele>202</ele>
        <time>2017-12-05T11:07:58Z</time>
      </trkpt>
      <trkpt lat="45.9403" lon="4.78036">
        <ele>202</ele>
        <time>2017-12-05T11:08:00Z</time>
      </trkpt>
      <trkpt lat="45.9403" lon="4.7803">
        <ele>202</ele>
        <time>2017-12-05T11:08:01Z</time>
      </trkpt>
      <trkpt lat="45.94032" lon="4.78018">
        <ele>202</ele>
        <time>2017-12-05T11:08:03Z</time>
      </trkpt>
      <trkpt lat="45.94033" lon="4.78012">
        <ele>202</ele>
        <time>2017-12-05T11:08:04Z</time>
      </trkpt>
      <trkpt lat="45.94034" lon="4.78003">
        <ele>202</ele>
        <time>2017-12-05T11:08:05Z</time>
      </trkpt>
      <trkpt lat="45.94034" lon="4.77998">
        <ele>201</ele>
        <time>2017-12-05T11:08:06Z</time>
      </trkpt>
      <trkpt lat="45.94035" lon="4.77985">
        <ele>201</ele>
        <time>2017-12-05T11:08:08Z</time>
      </trkpt>
      <trkpt lat="45.94036" lon="4.77978">
        <ele>201</ele>
        <time>2017-12-05T11:08:09Z</time>
      </trkpt>
      <trkpt lat="45.94036" lon="4.7797">
        <ele>201</ele>
        <time>2017-12-05T11:08:10Z</time>
      </trkpt>
      <trkpt lat="45.94037" lon="4.77964">
        <ele>201</ele>
        <time>2017-12-05T11:08:11Z</time>
      </trkpt>
      <trkpt lat="45.94037" lon="4.77955">
        <ele>201</ele>
        <time>2017-12-05T11:08:13Z</time>
      </trkpt>
      <trkpt lat="45.94034" lon="4.77946">
        <ele>201</ele>
        <time>2017-12-05T11:08:14Z</time>
      </trkpt>
      <trkpt lat="45.94031" lon="4.7794">
        <ele>200</ele>
        <time>2017-12-05T11:08:15Z</time>
      </trkpt>
      <trkpt lat="45.94029" lon="4.77935">
        <ele>200</ele>
        <time>2017-12-05T11:08:16Z</time>
      </trkpt>
      <trkpt lat="45.94022" lon="4.77932">
        <ele>199</ele>
        <time>2017-12-05T11:08:17Z</time>
      </trkpt>
      <trkpt lat="45.94017" lon="4.77929">
        <ele>198</ele>
        <time>2017-12-05T11:08:18Z</time>
      </trkpt>
      <trkpt lat="45.94012" lon="4.77927">
        <ele>197</ele>
        <time>2017-12-05T11:08:19Z</time>
      </trkpt>
      <trkpt lat="45.94005" lon="4.77926">
        <ele>197</ele>
        <time>2017-12-05T11:08:20Z</time>
      </trkpt>
      <trkpt lat="45.93998" lon="4.77928">
        <ele>193</ele>
        <time>2017-12-05T11:08:21Z</time>
      </trkpt>
      <trkpt lat="45.93992" lon="4.77931">
        <ele>192</ele>
        <time>2017-12-05T11:08:22Z</time>
      </trkpt>
      <trkpt lat="45.93987" lon="4.77935">
        <ele>192</ele>
        <time>2017-12-05T11:08:23Z</time>
      </trkpt>
      <trkpt lat="45.9398" lon="4.7794">
        <ele>191</ele>
        <time>2017-12-05T11:08:24Z</time>
      </trkpt>
      <trkpt lat="45.93973" lon="4.77945">
        <ele>191</ele>
        <time>2017-12-05T11:08:25Z</time>
      </trkpt>
      <trkpt lat="45.93964" lon="4.77951">
        <ele>190</ele>
        <time>2017-12-05T11:08:26Z</time>
      </trkpt>
      <trkpt lat="45.93956" lon="4.77957">
        <ele>190</ele>
        <time>2017-12-05T11:08:27Z</time>
      </trkpt>
      <trkpt lat="45.93946" lon="4.77963">
        <ele>189</ele>
        <time>2017-12-05T11:08:28Z</time>
      </trkpt>
      <trkpt lat="45.93939" lon="4.77968">
        <ele>189</ele>
        <time>2017-12-05T11:08:29Z</time>
      </trkpt>
      <trkpt lat="45.93931" lon="4.77974">
        <ele>189</ele>
        <time>2017-12-05T11:08:30Z</time>
      </trkpt>
      <trkpt lat="45.93922" lon="4.77981">
        <ele>188</ele>
        <time>2017-12-05T11:08:31Z</time>
      </trkpt>
      <trkpt lat="45.93917" lon="4.77986">
        <ele>188</ele>
        <time>2017-12-05T11:08:32Z</time>
      </trkpt>
      <trkpt lat="45.9391" lon="4.77991">
        <ele>184</ele>
        <time>2017-12-05T11:08:33Z</time>
      </trkpt>
      <trkpt lat="45.93905" lon="4.77995">
        <ele>183</ele>
        <time>2017-12-05T11:08:34Z</time>
      </trkpt>
      <trkpt lat="45.93901" lon="4.78">
        <ele>183</ele>
        <time>2017-12-05T11:08:35Z</time>
      </trkpt>
      <trkpt lat="45.93897" lon="4.78003">
        <ele>185</ele>
        <time>2017-12-05T11:08:36Z</time>
      </trkpt>
      <trkpt lat="45.93893" lon="4.78007">
        <ele>184</ele>
        <time>2017-12-05T11:08:37Z</time>
      </trkpt>
      <trkpt lat="45.93885" lon="4.78013">
        <ele>184</ele>
        <time>2017-12-05T11:08:39Z</time>
      </trkpt>
      <trkpt lat="45.93882" lon="4.78012">
        <ele>184</ele>
        <time>2017-12-05T11:08:40Z</time>
      </trkpt>
      <trkpt lat="45.93876" lon="4.78011">
        <ele>183</ele>
        <time>2017-12-05T11:08:41Z</time>
      </trkpt>
      <trkpt lat="45.93871" lon="4.78007">
        <ele>183</ele>
        <time>2017-12-05T11:08:42Z</time>
      </trkpt>
      <trkpt lat="45.93867" lon="4.78002">
        <ele>183</ele>
        <time>2017-12-05T11:08:43Z</time>
      </trkpt>
      <trkpt lat="45.93863" lon="4.77999">
        <ele>179</ele>
        <time>2017-12-05T11:08:44Z</time>
      </trkpt>
      <trkpt lat="45.93858" lon="4.77996">
        <ele>179</ele>
        <time>2017-12-05T11:08:45Z</time>
      </trkpt>
      <trkpt lat="45.93854" lon="4.77992">
        <ele>179</ele>
        <time>2017-12-05T11:08:46Z</time>
      </trkpt>
      <trkpt lat="45.9385" lon="4.77987">
        <ele>179</ele>
        <time>2017-12-05T11:08:47Z</time>
      </trkpt>
      <trkpt lat="45.93846" lon="4.77983">
        <ele>178</ele>
        <time>2017-12-05T11:08:48Z</time>
      </trkpt>
      <trkpt lat="45.93841" lon="4.77977">
        <ele>178</ele>
        <time>2017-12-05T11:08:49Z</time>
      </trkpt>
      <trkpt lat="45.93837" lon="4.77972">
        <ele>178</ele>
        <time>2017-12-05T11:08:50Z</time>
      </trkpt>
      <trkpt lat="45.93833" lon="4.77967">
        <ele>171</ele>
        <time>2017-12-05T11:08:51Z</time>
      </trkpt>
      <trkpt lat="45.93828" lon="4.77961">
        <ele>171</ele>
        <time>2017-12-05T11:08:52Z</time>
      </trkpt>
      <trkpt lat="45.93824" lon="4.77955">
        <ele>170</ele>
        <time>2017-12-05T11:08:53Z</time>
      </trkpt>
      <trkpt lat="45.9382" lon="4.77947">
        <ele>169</ele>
        <time>2017-12-05T11:08:54Z</time>
      </trkpt>
      <trkpt lat="45.93815" lon="4.77941">
        <ele>169</ele>
        <time>2017-12-05T11:08:55Z</time>
      </trkpt>
      <trkpt lat="45.93811" lon="4.77936">
        <ele>169</ele>
        <time>2017-12-05T11:08:56Z</time>
      </trkpt>
      <trkpt lat="45.93807" lon="4.7793">
        <ele>168</ele>
        <time>2017-12-05T11:08:57Z</time>
      </trkpt>
      <trkpt lat="45.93802" lon="4.77923">
        <ele>168</ele>
        <time>2017-12-05T11:08:58Z</time>
      </trkpt>
      <trkpt lat="45.93797" lon="4.77918">
        <ele>168</ele>
        <time>2017-12-05T11:08:59Z</time>
      </trkpt>
      <trkpt lat="45.93792" lon="4.77913">
        <ele>166</ele>
        <time>2017-12-05T11:09:00Z</time>
      </trkpt>
      <trkpt lat="45.93789" lon="4.77907">
        <ele>166</ele>
        <time>2017-12-05T11:09:01Z</time>
      </trkpt>
      <trkpt lat="45.93784" lon="4.77902">
        <ele>166</ele>
        <time>2017-12-05T11:09:02Z</time>
      </trkpt>
      <trkpt lat="45.93781" lon="4.77894">
        <ele>166</ele>
        <time>2017-12-05T11:09:03Z</time>
      </trkpt>
      <trkpt lat="45.93776" lon="4.77888">
        <ele>166</ele>
        <time>2017-12-05T11:09:04Z</time>
      </trkpt>
      <trkpt lat="45.93771" lon="4.77883">
        <ele>166</ele>
        <time>2017-12-05T11:09:05Z</time>
      </trkpt>
      <trkpt lat="45.93767" lon="4.77878">
        <ele>166</ele>
        <time>2017-12-05T11:09:06Z</time>
      </trkpt>
      <trkpt lat="45.93762" lon="4.77872">
        <ele>166</ele>
        <time>2017-12-05T11:09:07Z</time>
      </trkpt>
      <trkpt lat="45.93758" lon="4.77867">
        <ele>166</ele>
        <time>2017-12-05T11:09:08Z</time>
      </trkpt>
      <trkpt lat="45.93753" lon="4.77861">
        <ele>166</ele>
        <time>2017-12-05T11:09:09Z</time>
      </trkpt>
      <trkpt lat="45.9375" lon="4.77857">
        <ele>167</ele>
        <time>2017-12-05T11:09:10Z</time>
      </trkpt>
      <trkpt lat="45.93746" lon="4.77852">
        <ele>167</ele>
        <time>2017-12-05T11:09:11Z</time>
      </trkpt>
      <trkpt lat="45.93741" lon="4.77847">
        <ele>167</ele>
        <time>2017-12-05T11:09:12Z</time>
      </trkpt>
      <trkpt lat="45.93737" lon="4.77842">
        <ele>167</ele>
        <time>2017-12-05T11:09:13Z</time>
      </trkpt>
      <trkpt lat="45.93733" lon="4.77836">
        <ele>167</ele>
        <time>2017-12-05T11:09:14Z</time>
      </trkpt>
      <trkpt lat="45.93729" lon="4.77831">
        <ele>168</ele>
        <time>2017-12-05T11:09:15Z</time>
      </trkpt>
      <trkpt lat="45.93725" lon="4.77824">
        <ele>168</ele>
        <time>2017-12-05T11:09:16Z</time>
      </trkpt>
      <trkpt lat="45.9372" lon="4.77818">
        <ele>169</ele>
        <time>2017-12-05T11:09:17Z</time>
      </trkpt>
      <trkpt lat="45.93715" lon="4.77812">
        <ele>169</ele>
        <time>2017-12-05T11:09:18Z</time>
      </trkpt>
      <trkpt lat="45.9371" lon="4.77806">
        <ele>169</ele>
        <time>2017-12-05T11:09:19Z</time>
      </trkpt>
      <trkpt lat="45.93704" lon="4.77801">
        <ele>169</ele>
        <time>2017-12-05T11:09:20Z</time>
      </trkpt>
      <trkpt lat="45.937" lon="4.77795">
        <ele>169</ele>
        <time>2017-12-05T11:09:21Z</time>
      </trkpt>
      <trkpt lat="45.93695" lon="4.77789">
        <ele>169</ele>
        <time>2017-12-05T11:09:22Z</time>
      </trkpt>
      <trkpt lat="45.93691" lon="4.7778">
        <ele>170</ele>
        <time>2017-12-05T11:09:23Z</time>
      </trkpt>
      <trkpt lat="45.93686" lon="4.77774">
        <ele>170</ele>
        <time>2017-12-05T11:09:24Z</time>
      </trkpt>
      <trkpt lat="45.93682" lon="4.77767">
        <ele>170</ele>
        <time>2017-12-05T11:09:25Z</time>
      </trkpt>
      <trkpt lat="45.93677" lon="4.7776">
        <ele>170</ele>
        <time>2017-12-05T11:09:26Z</time>
      </trkpt>
      <trkpt lat="45.93671" lon="4.77753">
        <ele>171</ele>
        <time>2017-12-05T11:09:27Z</time>
      </trkpt>
      <trkpt lat="45.93667" lon="4.77744">
        <ele>171</ele>
        <time>2017-12-05T11:09:28Z</time>
      </trkpt>
      <trkpt lat="45.93662" lon="4.77736">
        <ele>170</ele>
        <time>2017-12-05T11:09:29Z</time>
      </trkpt>
      <trkpt lat="45.93656" lon="4.77728">
        <ele>170</ele>
        <time>2017-12-05T11:09:30Z</time>
      </trkpt>
      <trkpt lat="45.93653" lon="4.7772">
        <ele>170</ele>
        <time>2017-12-05T11:09:31Z</time>
      </trkpt>
      <trkpt lat="45.93648" lon="4.77711">
        <ele>170</ele>
        <time>2017-12-05T11:09:32Z</time>
      </trkpt>
      <trkpt lat="45.93642" lon="4.77702">
        <ele>170</ele>
        <time>2017-12-05T11:09:33Z</time>
      </trkpt>
      <trkpt lat="45.93637" lon="4.77694">
        <ele>169</ele>
        <time>2017-12-05T11:09:34Z</time>
      </trkpt>
      <trkpt lat="45.93633" lon="4.77684">
        <ele>169</ele>
        <time>2017-12-05T11:09:35Z</time>
      </trkpt>
      <trkpt lat="45.93628" lon="4.77675">
        <ele>169</ele>
        <time>2017-12-05T11:09:36Z</time>
      </trkpt>
      <trkpt lat="45.93624" lon="4.77667">
        <ele>169</ele>
        <time>2017-12-05T11:09:37Z</time>
      </trkpt>
      <trkpt lat="45.93619" lon="4.77656">
        <ele>169</ele>
        <time>2017-12-05T11:09:38Z</time>
      </trkpt>
      <trkpt lat="45.93616" lon="4.77647">
        <ele>169</ele>
        <time>2017-12-05T11:09:39Z</time>
      </trkpt>
      <trkpt lat="45.93612" lon="4.77639">
        <ele>169</ele>
        <time>2017-12-05T11:09:40Z</time>
      </trkpt>
      <trkpt lat="45.93608" lon="4.77631">
        <ele>169</ele>
        <time>2017-12-05T11:09:41Z</time>
      </trkpt>
      <trkpt lat="45.93606" lon="4.77623">
        <ele>170</ele>
        <time>2017-12-05T11:09:42Z</time>
      </trkpt>
      <trkpt lat="45.93603" lon="4.77615">
        <ele>170</ele>
        <time>2017-12-05T11:09:43Z</time>
      </trkpt>
      <trkpt lat="45.936" lon="4.77607">
        <ele>170</ele>
        <time>2017-12-05T11:09:44Z</time>
      </trkpt>
      <trkpt lat="45.93598" lon="4.77599">
        <ele>170</ele>
        <time>2017-12-05T11:09:45Z</time>
      </trkpt>
      <trkpt lat="45.93595" lon="4.7759">
        <ele>170</ele>
        <time>2017-12-05T11:09:46Z</time>
      </trkpt>
      <trkpt lat="45.93592" lon="4.77582">
        <ele>170</ele>
        <time>2017-12-05T11:09:47Z</time>
      </trkpt>
      <trkpt lat="45.9359" lon="4.77573">
        <ele>170</ele>
        <time>2017-12-05T11:09:48Z</time>
      </trkpt>
      <trkpt lat="45.93586" lon="4.77565">
        <ele>170</ele>
        <time>2017-12-05T11:09:49Z</time>
      </trkpt>
      <trkpt lat="45.93584" lon="4.77556">
        <ele>170</ele>
        <time>2017-12-05T11:09:50Z</time>
      </trkpt>
      <trkpt lat="45.93581" lon="4.77547">
        <ele>169</ele>
        <time>2017-12-05T11:09:51Z</time>
      </trkpt>
      <trkpt lat="45.93578" lon="4.77538">
        <ele>169</ele>
        <time>2017-12-05T11:09:52Z</time>
      </trkpt>
      <trkpt lat="45.93576" lon="4.77529">
        <ele>169</ele>
        <time>2017-12-05T11:09:53Z</time>
      </trkpt>
      <trkpt lat="45.93573" lon="4.7752">
        <ele>169</ele>
        <time>2017-12-05T11:09:54Z</time>
      </trkpt>
      <trkpt lat="45.93571" lon="4.7751">
        <ele>169</ele>
        <time>2017-12-05T11:09:55Z</time>
      </trkpt>
      <trkpt lat="45.93569" lon="4.77502">
        <ele>169</ele>
        <time>2017-12-05T11:09:56Z</time>
      </trkpt>
      <trkpt lat="45.93568" lon="4.77493">
        <ele>169</ele>
        <time>2017-12-05T11:09:57Z</time>
      </trkpt>
      <trkpt lat="45.93566" lon="4.77485">
        <ele>169</ele>
        <time>2017-12-05T11:09:58Z</time>
      </trkpt>
      <trkpt lat="45.93563" lon="4.77477">
        <ele>169</ele>
        <time>2017-12-05T11:09:59Z</time>
      </trkpt>
      <trkpt lat="45.93562" lon="4.77469">
        <ele>169</ele>
        <time>2017-12-05T11:10:00Z</time>
      </trkpt>
      <trkpt lat="45.9356" lon="4.77461">
        <ele>169</ele>
        <time>2017-12-05T11:10:01Z</time>
      </trkpt>
      <trkpt lat="45.93559" lon="4.77455">
        <ele>169</ele>
        <time>2017-12-05T11:10:02Z</time>
      </trkpt>
      <trkpt lat="45.93558" lon="4.77448">
        <ele>169</ele>
        <time>2017-12-05T11:10:03Z</time>
      </trkpt>
      <trkpt lat="45.93557" lon="4.77439">
        <ele>169</ele>
        <time>2017-12-05T11:10:04Z</time>
      </trkpt>
      <trkpt lat="45.93555" lon="4.77432">
        <ele>170</ele>
        <time>2017-12-05T11:10:05Z</time>
      </trkpt>
      <trkpt lat="45.93554" lon="4.77424">
        <ele>170</ele>
        <time>2017-12-05T11:10:06Z</time>
      </trkpt>
      <trkpt lat="45.93551" lon="4.77417">
        <ele>170</ele>
        <time>2017-12-05T11:10:07Z</time>
      </trkpt>
      <trkpt lat="45.93549" lon="4.77408">
        <ele>170</ele>
        <time>2017-12-05T11:10:08Z</time>
      </trkpt>
      <trkpt lat="45.93547" lon="4.77399">
        <ele>170</ele>
        <time>2017-12-05T11:10:09Z</time>
      </trkpt>
      <trkpt lat="45.93546" lon="4.77391">
        <ele>170</ele>
        <time>2017-12-05T11:10:10Z</time>
      </trkpt>
      <trkpt lat="45.93544" lon="4.77382">
        <ele>170</ele>
        <time>2017-12-05T11:10:11Z</time>
      </trkpt>
      <trkpt lat="45.93543" lon="4.77371">
        <ele>170</ele>
        <time>2017-12-05T11:10:12Z</time>
      </trkpt>
      <trkpt lat="45.93541" lon="4.77363">
        <ele>170</ele>
        <time>2017-12-05T11:10:13Z</time>
      </trkpt>
      <trkpt lat="45.93538" lon="4.77354">
        <ele>170</ele>
        <time>2017-12-05T11:10:14Z</time>
      </trkpt>
      <trkpt lat="45.93537" lon="4.77345">
        <ele>170</ele>
        <time>2017-12-05T11:10:15Z</time>
      </trkpt>
      <trkpt lat="45.93535" lon="4.77338">
        <ele>170</ele>
        <time>2017-12-05T11:10:16Z</time>
      </trkpt>
      <trkpt lat="45.93534" lon="4.77329">
        <ele>170</ele>
        <time>2017-12-05T11:10:17Z</time>
      </trkpt>
      <trkpt lat="45.93532" lon="4.77322">
        <ele>170</ele>
        <time>2017-12-05T11:10:18Z</time>
      </trkpt>
      <trkpt lat="45.9353" lon="4.77315">
        <ele>170</ele>
        <time>2017-12-05T11:10:19Z</time>
      </trkpt>
      <trkpt lat="45.93528" lon="4.77308">
        <ele>170</ele>
        <time>2017-12-05T11:10:20Z</time>
      </trkpt>
      <trkpt lat="45.93526" lon="4.77302">
        <ele>170</ele>
        <time>2017-12-05T11:10:21Z</time>
      </trkpt>
      <trkpt lat="45.93524" lon="4.77295">
        <ele>170</ele>
        <time>2017-12-05T11:10:22Z</time>
      </trkpt>
      <trkpt lat="45.93523" lon="4.77287">
        <ele>170</ele>
        <time>2017-12-05T11:10:23Z</time>
      </trkpt>
      <trkpt lat="45.93522" lon="4.7728">
        <ele>170</ele>
        <time>2017-12-05T11:10:24Z</time>
      </trkpt>
      <trkpt lat="45.9352" lon="4.77273">
        <ele>170</ele>
        <time>2017-12-05T11:10:25Z</time>
      </trkpt>
      <trkpt lat="45.93518" lon="4.77265">
        <ele>170</ele>
        <time>2017-12-05T11:10:26Z</time>
      </trkpt>
      <trkpt lat="45.93517" lon="4.77257">
        <ele>170</ele>
        <time>2017-12-05T11:10:27Z</time>
      </trkpt>
      <trkpt lat="45.93514" lon="4.77249">
        <ele>169</ele>
        <time>2017-12-05T11:10:28Z</time>
      </trkpt>
      <trkpt lat="45.93512" lon="4.7724">
        <ele>169</ele>
        <time>2017-12-05T11:10:29Z</time>
      </trkpt>
      <trkpt lat="45.93509" lon="4.77232">
        <ele>169</ele>
        <time>2017-12-05T11:10:30Z</time>
      </trkpt>
      <trkpt lat="45.93507" lon="4.77225">
        <ele>169</ele>
        <time>2017-12-05T11:10:31Z</time>
      </trkpt>
      <trkpt lat="45.93505" lon="4.77216">
        <ele>169</ele>
        <time>2017-12-05T11:10:32Z</time>
      </trkpt>
      <trkpt lat="45.93503" lon="4.77209">
        <ele>169</ele>
        <time>2017-12-05T11:10:33Z</time>
      </trkpt>
      <trkpt lat="45.93501" lon="4.77201">
        <ele>169</ele>
        <time>2017-12-05T11:10:34Z</time>
      </trkpt>
      <trkpt lat="45.935" lon="4.77194">
        <ele>169</ele>
        <time>2017-12-05T11:10:35Z</time>
      </trkpt>
      <trkpt lat="45.93499" lon="4.77187">
        <ele>169</ele>
        <time>2017-12-05T11:10:36Z</time>
      </trkpt>
      <trkpt lat="45.93497" lon="4.7718">
        <ele>169</ele>
        <time>2017-12-05T11:10:37Z</time>
      </trkpt>
      <trkpt lat="45.93496" lon="4.77172">
        <ele>169</ele>
        <time>2017-12-05T11:10:38Z</time>
      </trkpt>
      <trkpt lat="45.93495" lon="4.77166">
        <ele>169</ele>
        <time>2017-12-05T11:10:39Z</time>
      </trkpt>
      <trkpt lat="45.93493" lon="4.77159">
        <ele>169</ele>
        <time>2017-12-05T11:10:40Z</time>
      </trkpt>
      <trkpt lat="45.93492" lon="4.77151">
        <ele>169</ele>
        <time>2017-12-05T11:10:41Z</time>
      </trkpt>
      <trkpt lat="45.9349" lon="4.77143">
        <ele>169</ele>
        <time>2017-12-05T11:10:42Z</time>
      </trkpt>
      <trkpt lat="45.93489" lon="4.77136">
        <ele>169</ele>
        <time>2017-12-05T11:10:43Z</time>
      </trkpt>
      <trkpt lat="45.93487" lon="4.77128">
        <ele>169</ele>
        <time>2017-12-05T11:10:44Z</time>
      </trkpt>
      <trkpt lat="45.93485" lon="4.7712">
        <ele>169</ele>
        <time>2017-12-05T11:10:45Z</time>
      </trkpt>
      <trkpt lat="45.93485" lon="4.77111">
        <ele>169</ele>
        <time>2017-12-05T11:10:46Z</time>
      </trkpt>
      <trkpt lat="45.93483" lon="4.77103">
        <ele>169</ele>
        <time>2017-12-05T11:10:47Z</time>
      </trkpt>
      <trkpt lat="45.93481" lon="4.77094">
        <ele>169</ele>
        <time>2017-12-05T11:10:48Z</time>
      </trkpt>
      <trkpt lat="45.9348" lon="4.77086">
        <ele>169</ele>
        <time>2017-12-05T11:10:49Z</time>
      </trkpt>
      <trkpt lat="45.93479" lon="4.77079">
        <ele>170</ele>
        <time>2017-12-05T11:10:50Z</time>
      </trkpt>
      <trkpt lat="45.93478" lon="4.77071">
        <ele>170</ele>
        <time>2017-12-05T11:10:51Z</time>
      </trkpt>
      <trkpt lat="45.93477" lon="4.77065">
        <ele>170</ele>
        <time>2017-12-05T11:10:52Z</time>
      </trkpt>
      <trkpt lat="45.93475" lon="4.77057">
        <ele>170</ele>
        <time>2017-12-05T11:10:53Z</time>
      </trkpt>
      <trkpt lat="45.93474" lon="4.77049">
        <ele>170</ele>
        <time>2017-12-05T11:10:54Z</time>
      </trkpt>
      <trkpt lat="45.93473" lon="4.77042">
        <ele>170</ele>
        <time>2017-12-05T11:10:55Z</time>
      </trkpt>
      <trkpt lat="45.93472" lon="4.77032">
        <ele>170</ele>
        <time>2017-12-05T11:10:56Z</time>
      </trkpt>
      <trkpt lat="45.93471" lon="4.77024">
        <ele>170</ele>
        <time>2017-12-05T11:10:57Z</time>
      </trkpt>
      <trkpt lat="45.9347" lon="4.77015">
        <ele>170</ele>
        <time>2017-12-05T11:10:58Z</time>
      </trkpt>
      <trkpt lat="45.93468" lon="4.77007">
        <ele>170</ele>
        <time>2017-12-05T11:10:59Z</time>
      </trkpt>
      <trkpt lat="45.93467" lon="4.76999">
        <ele>170</ele>
        <time>2017-12-05T11:11:00Z</time>
      </trkpt>
      <trkpt lat="45.93465" lon="4.7699">
        <ele>170</ele>
        <time>2017-12-05T11:11:01Z</time>
      </trkpt>
      <trkpt lat="45.93463" lon="4.76982">
        <ele>170</ele>
        <time>2017-12-05T11:11:02Z</time>
      </trkpt>
      <trkpt lat="45.93462" lon="4.76973">
        <ele>170</ele>
        <time>2017-12-05T11:11:03Z</time>
      </trkpt>
      <trkpt lat="45.9346" lon="4.76966">
        <ele>170</ele>
        <time>2017-12-05T11:11:04Z</time>
      </trkpt>
      <trkpt lat="45.93459" lon="4.76958">
        <ele>170</ele>
        <time>2017-12-05T11:11:05Z</time>
      </trkpt>
      <trkpt lat="45.93457" lon="4.7695">
        <ele>170</ele>
        <time>2017-12-05T11:11:06Z</time>
      </trkpt>
      <trkpt lat="45.93456" lon="4.76942">
        <ele>170</ele>
        <time>2017-12-05T11:11:07Z</time>
      </trkpt>
      <trkpt lat="45.93455" lon="4.76935">
        <ele>170</ele>
        <time>2017-12-05T11:11:08Z</time>
      </trkpt>
      <trkpt lat="45.93453" lon="4.76928">
        <ele>170</ele>
        <time>2017-12-05T11:11:09Z</time>
      </trkpt>
      <trkpt lat="45.93452" lon="4.76921">
        <ele>170</ele>
        <time>2017-12-05T11:11:10Z</time>
      </trkpt>
      <trkpt lat="45.93449" lon="4.76909">
        <ele>170</ele>
        <time>2017-12-05T11:11:12Z</time>
      </trkpt>
      <trkpt lat="45.93447" lon="4.76903">
        <ele>170</ele>
        <time>2017-12-05T11:11:13Z</time>
      </trkpt>
      <trkpt lat="45.93445" lon="4.76896">
        <ele>170</ele>
        <time>2017-12-05T11:11:14Z</time>
      </trkpt>
      <trkpt lat="45.93443" lon="4.76889">
        <ele>170</ele>
        <time>2017-12-05T11:11:15Z</time>
      </trkpt>
      <trkpt lat="45.93441" lon="4.7688">
        <ele>170</ele>
        <time>2017-12-05T11:11:16Z</time>
      </trkpt>
      <trkpt lat="45.93438" lon="4.76873">
        <ele>171</ele>
        <time>2017-12-05T11:11:17Z</time>
      </trkpt>
      <trkpt lat="45.93435" lon="4.76866">
        <ele>171</ele>
        <time>2017-12-05T11:11:18Z</time>
      </trkpt>
      <trkpt lat="45.93432" lon="4.76858">
        <ele>171</ele>
        <time>2017-12-05T11:11:19Z</time>
      </trkpt>
      <trkpt lat="45.93429" lon="4.76851">
        <ele>171</ele>
        <time>2017-12-05T11:11:20Z</time>
      </trkpt>
      <trkpt lat="45.93426" lon="4.76843">
        <ele>171</ele>
        <time>2017-12-05T11:11:21Z</time>
      </trkpt>
      <trkpt lat="45.93423" lon="4.76837">
        <ele>172</ele>
        <time>2017-12-05T11:11:22Z</time>
      </trkpt>
      <trkpt lat="45.9342" lon="4.76831">
        <ele>172</ele>
        <time>2017-12-05T11:11:23Z</time>
      </trkpt>
      <trkpt lat="45.93417" lon="4.76823">
        <ele>172</ele>
        <time>2017-12-05T11:11:24Z</time>
      </trkpt>
      <trkpt lat="45.93413" lon="4.76818">
        <ele>172</ele>
        <time>2017-12-05T11:11:25Z</time>
      </trkpt>
      <trkpt lat="45.9341" lon="4.76813">
        <ele>172</ele>
        <time>2017-12-05T11:11:26Z</time>
      </trkpt>
      <trkpt lat="45.93406" lon="4.76808">
        <ele>172</ele>
        <time>2017-12-05T11:11:27Z</time>
      </trkpt>
      <trkpt lat="45.93402" lon="4.76802">
        <ele>172</ele>
        <time>2017-12-05T11:11:28Z</time>
      </trkpt>
      <trkpt lat="45.93398" lon="4.76796">
        <ele>172</ele>
        <time>2017-12-05T11:11:29Z</time>
      </trkpt>
      <trkpt lat="45.93392" lon="4.76791">
        <ele>172</ele>
        <time>2017-12-05T11:11:30Z</time>
      </trkpt>
      <trkpt lat="45.93388" lon="4.76785">
        <ele>172</ele>
        <time>2017-12-05T11:11:31Z</time>
      </trkpt>
      <trkpt lat="45.93384" lon="4.7678">
        <ele>172</ele>
        <time>2017-12-05T11:11:32Z</time>
      </trkpt>
      <trkpt lat="45.9338" lon="4.76775">
        <ele>172</ele>
        <time>2017-12-05T11:11:33Z</time>
      </trkpt>
      <trkpt lat="45.93374" lon="4.7677">
        <ele>172</ele>
        <time>2017-12-05T11:11:34Z</time>
      </trkpt>
      <trkpt lat="45.9337" lon="4.76764">
        <ele>172</ele>
        <time>2017-12-05T11:11:35Z</time>
      </trkpt>
      <trkpt lat="45.93366" lon="4.76758">
        <ele>172</ele>
        <time>2017-12-05T11:11:36Z</time>
      </trkpt>
      <trkpt lat="45.93362" lon="4.76754">
        <ele>172</ele>
        <time>2017-12-05T11:11:37Z</time>
      </trkpt>
      <trkpt lat="45.93358" lon="4.76749">
        <ele>172</ele>
        <time>2017-12-05T11:11:38Z</time>
      </trkpt>
      <trkpt lat="45.93353" lon="4.76746">
        <ele>172</ele>
        <time>2017-12-05T11:11:39Z</time>
      </trkpt>
      <trkpt lat="45.9335" lon="4.76741">
        <ele>172</ele>
        <time>2017-12-05T11:11:40Z</time>
      </trkpt>
      <trkpt lat="45.93345" lon="4.76738">
        <ele>172</ele>
        <time>2017-12-05T11:11:41Z</time>
      </trkpt>
      <trkpt lat="45.93341" lon="4.76733">
        <ele>172</ele>
        <time>2017-12-05T11:11:42Z</time>
      </trkpt>
      <trkpt lat="45.93337" lon="4.7673">
        <ele>172</ele>
        <time>2017-12-05T11:11:43Z</time>
      </trkpt>
      <trkpt lat="45.9333" lon="4.76724">
        <ele>172</ele>
        <time>2017-12-05T11:11:45Z</time>
      </trkpt>
      <trkpt lat="45.93326" lon="4.76718">
        <ele>172</ele>
        <time>2017-12-05T11:11:46Z</time>
      </trkpt>
      <trkpt lat="45.93322" lon="4.76714">
        <ele>172</ele>
        <time>2017-12-05T11:11:47Z</time>
      </trkpt>
      <trkpt lat="45.93317" lon="4.7671">
        <ele>172</ele>
        <time>2017-12-05T11:11:48Z</time>
      </trkpt>
      <trkpt lat="45.93312" lon="4.76705">
        <ele>172</ele>
        <time>2017-12-05T11:11:49Z</time>
      </trkpt>
      <trkpt lat="45.93307" lon="4.76701">
        <ele>172</ele>
        <time>2017-12-05T11:11:50Z</time>
      </trkpt>
      <trkpt lat="45.93302" lon="4.76696">
        <ele>172</ele>
        <time>2017-12-05T11:11:51Z</time>
      </trkpt>
      <trkpt lat="45.93297" lon="4.76692">
        <ele>172</ele>
        <time>2017-12-05T11:11:52Z</time>
      </trkpt>
      <trkpt lat="45.93293" lon="4.76687">
        <ele>172</ele>
        <time>2017-12-05T11:11:53Z</time>
      </trkpt>
      <trkpt lat="45.93287" lon="4.76682">
        <ele>172</ele>
        <time>2017-12-05T11:11:54Z</time>
      </trkpt>
      <trkpt lat="45.93282" lon="4.76677">
        <ele>172</ele>
        <time>2017-12-05T11:11:55Z</time>
      </trkpt>
      <trkpt lat="45.93278" lon="4.76672">
        <ele>172</ele>
        <time>2017-12-05T11:11:56Z</time>
      </trkpt>
      <trkpt lat="45.93273" lon="4.76668">
        <ele>172</ele>
        <time>2017-12-05T11:11:57Z</time>
      </trkpt>
      <trkpt lat="45.93269" lon="4.76664">
        <ele>171</ele>
        <time>2017-12-05T11:11:58Z</time>
      </trkpt>
      <trkpt lat="45.93264" lon="4.7666">
        <ele>171</ele>
        <time>2017-12-05T11:11:59Z</time>
      </trkpt>
      <trkpt lat="45.9326" lon="4.76657">
        <ele>171</ele>
        <time>2017-12-05T11:12:00Z</time>
      </trkpt>
      <trkpt lat="45.93256" lon="4.76652">
        <ele>171</ele>
        <time>2017-12-05T11:12:01Z</time>
      </trkpt>
      <trkpt lat="45.93252" lon="4.76649">
        <ele>171</ele>
        <time>2017-12-05T11:12:02Z</time>
      </trkpt>
      <trkpt lat="45.93245" lon="4.76643">
        <ele>171</ele>
        <time>2017-12-05T11:12:04Z</time>
      </trkpt>
      <trkpt lat="45.9324" lon="4.76638">
        <ele>171</ele>
        <time>2017-12-05T11:12:05Z</time>
      </trkpt>
      <trkpt lat="45.93235" lon="4.76635">
        <ele>171</ele>
        <time>2017-12-05T11:12:06Z</time>
      </trkpt>
      <trkpt lat="45.93232" lon="4.76629">
        <ele>170</ele>
        <time>2017-12-05T11:12:07Z</time>
      </trkpt>
      <trkpt lat="45.93228" lon="4.76625">
        <ele>170</ele>
        <time>2017-12-05T11:12:08Z</time>
      </trkpt>
      <trkpt lat="45.93222" lon="4.76621">
        <ele>170</ele>
        <time>2017-12-05T11:12:09Z</time>
      </trkpt>
      <trkpt lat="45.93217" lon="4.76617">
        <ele>170</ele>
        <time>2017-12-05T11:12:10Z</time>
      </trkpt>
      <trkpt lat="45.93212" lon="4.76613">
        <ele>170</ele>
        <time>2017-12-05T11:12:11Z</time>
      </trkpt>
      <trkpt lat="45.93207" lon="4.76608">
        <ele>170</ele>
        <time>2017-12-05T11:12:12Z</time>
      </trkpt>
      <trkpt lat="45.93202" lon="4.76602">
        <ele>170</ele>
        <time>2017-12-05T11:12:13Z</time>
      </trkpt>
      <trkpt lat="45.93198" lon="4.76598">
        <ele>170</ele>
        <time>2017-12-05T11:12:14Z</time>
      </trkpt>
      <trkpt lat="45.93192" lon="4.76593">
        <ele>170</ele>
        <time>2017-12-05T11:12:15Z</time>
      </trkpt>
      <trkpt lat="45.93188" lon="4.76589">
        <ele>170</ele>
        <time>2017-12-05T11:12:16Z</time>
      </trkpt>
      <trkpt lat="45.93184" lon="4.76584">
        <ele>171</ele>
        <time>2017-12-05T11:12:17Z</time>
      </trkpt>
      <trkpt lat="45.93177" lon="4.76576">
        <ele>170</ele>
        <time>2017-12-05T11:12:19Z</time>
      </trkpt>
      <trkpt lat="45.93174" lon="4.76571">
        <ele>170</ele>
        <time>2017-12-05T11:12:20Z</time>
      </trkpt>
      <trkpt lat="45.93167" lon="4.76563">
        <ele>170</ele>
        <time>2017-12-05T11:12:22Z</time>
      </trkpt>
      <trkpt lat="45.93163" lon="4.7656">
        <ele>170</ele>
        <time>2017-12-05T11:12:23Z</time>
      </trkpt>
      <trkpt lat="45.93158" lon="4.76556">
        <ele>170</ele>
        <time>2017-12-05T11:12:24Z</time>
      </trkpt>
      <trkpt lat="45.93154" lon="4.76552">
        <ele>170</ele>
        <time>2017-12-05T11:12:25Z</time>
      </trkpt>
      <trkpt lat="45.9315" lon="4.76548">
        <ele>170</ele>
        <time>2017-12-05T11:12:26Z</time>
      </trkpt>
      <trkpt lat="45.93146" lon="4.76544">
        <ele>170</ele>
        <time>2017-12-05T11:12:27Z</time>
      </trkpt>
      <trkpt lat="45.93142" lon="4.76541">
        <ele>170</ele>
        <time>2017-12-05T11:12:28Z</time>
      </trkpt>
      <trkpt lat="45.93137" lon="4.76537">
        <ele>170</ele>
        <time>2017-12-05T11:12:29Z</time>
      </trkpt>
      <trkpt lat="45.93132" lon="4.76533">
        <ele>170</ele>
        <time>2017-12-05T11:12:30Z</time>
      </trkpt>
      <trkpt lat="45.93129" lon="4.76529">
        <ele>170</ele>
        <time>2017-12-05T11:12:31Z</time>
      </trkpt>
      <trkpt lat="45.93124" lon="4.76524">
        <ele>170</ele>
        <time>2017-12-05T11:12:32Z</time>
      </trkpt>
      <trkpt lat="45.93121" lon="4.7652">
        <ele>170</ele>
        <time>2017-12-05T11:12:33Z</time>
      </trkpt>
      <trkpt lat="45.93116" lon="4.76516">
        <ele>170</ele>
        <time>2017-12-05T11:12:34Z</time>
      </trkpt>
      <trkpt lat="45.93111" lon="4.76513">
        <ele>170</ele>
        <time>2017-12-05T11:12:35Z</time>
      </trkpt>
      <trkpt lat="45.93106" lon="4.76508">
        <ele>170</ele>
        <time>2017-12-05T11:12:36Z</time>
      </trkpt>
      <trkpt lat="45.93101" lon="4.76506">
        <ele>170</ele>
        <time>2017-12-05T11:12:37Z</time>
      </trkpt>
      <trkpt lat="45.93096" lon="4.76503">
        <ele>170</ele>
        <time>2017-12-05T11:12:38Z</time>
      </trkpt>
      <trkpt lat="45.93091" lon="4.76498">
        <ele>170</ele>
        <time>2017-12-05T11:12:39Z</time>
      </trkpt>
      <trkpt lat="45.93086" lon="4.76492">
        <ele>170</ele>
        <time>2017-12-05T11:12:40Z</time>
      </trkpt>
      <trkpt lat="45.93081" lon="4.76484">
        <ele>170</ele>
        <time>2017-12-05T11:12:41Z</time>
      </trkpt>
      <trkpt lat="45.93076" lon="4.76479">
        <ele>169</ele>
        <time>2017-12-05T11:12:42Z</time>
      </trkpt>
      <trkpt lat="45.9307" lon="4.76474">
        <ele>169</ele>
        <time>2017-12-05T11:12:43Z</time>
      </trkpt>
      <trkpt lat="45.93066" lon="4.76467">
        <ele>169</ele>
        <time>2017-12-05T11:12:44Z</time>
      </trkpt>
      <trkpt lat="45.93061" lon="4.76462">
        <ele>169</ele>
        <time>2017-12-05T11:12:45Z</time>
      </trkpt>
      <trkpt lat="45.93056" lon="4.76457">
        <ele>169</ele>
        <time>2017-12-05T11:12:46Z</time>
      </trkpt>
      <trkpt lat="45.93052" lon="4.76455">
        <ele>169</ele>
        <time>2017-12-05T11:12:47Z</time>
      </trkpt>
      <trkpt lat="45.93047" lon="4.76451">
        <ele>169</ele>
        <time>2017-12-05T11:12:48Z</time>
      </trkpt>
      <trkpt lat="45.93043" lon="4.76446">
        <ele>169</ele>
        <time>2017-12-05T11:12:49Z</time>
      </trkpt>
      <trkpt lat="45.93038" lon="4.76442">
        <ele>169</ele>
        <time>2017-12-05T11:12:50Z</time>
      </trkpt>
      <trkpt lat="45.93034" lon="4.76438">
        <ele>169</ele>
        <time>2017-12-05T11:12:51Z</time>
      </trkpt>
      <trkpt lat="45.93031" lon="4.76435">
        <ele>169</ele>
        <time>2017-12-05T11:12:52Z</time>
      </trkpt>
      <trkpt lat="45.93026" lon="4.76431">
        <ele>169</ele>
        <time>2017-12-05T11:12:53Z</time>
      </trkpt>
      <trkpt lat="45.93022" lon="4.76427">
        <ele>169</ele>
        <time>2017-12-05T11:12:54Z</time>
      </trkpt>
      <trkpt lat="45.93018" lon="4.76423">
        <ele>169</ele>
        <time>2017-12-05T11:12:55Z</time>
      </trkpt>
      <trkpt lat="45.93014" lon="4.7642">
        <ele>169</ele>
        <time>2017-12-05T11:12:56Z</time>
      </trkpt>
      <trkpt lat="45.93011" lon="4.76413">
        <ele>169</ele>
        <time>2017-12-05T11:12:57Z</time>
      </trkpt>
      <trkpt lat="45.93007" lon="4.76409">
        <ele>169</ele>
        <time>2017-12-05T11:12:58Z</time>
      </trkpt>
      <trkpt lat="45.93002" lon="4.76402">
        <ele>169</ele>
        <time>2017-12-05T11:12:59Z</time>
      </trkpt>
      <trkpt lat="45.92998" lon="4.76397">
        <ele>169</ele>
        <time>2017-12-05T11:13:00Z</time>
      </trkpt>
      <trkpt lat="45.92994" lon="4.76391">
        <ele>169</ele>
        <time>2017-12-05T11:13:01Z</time>
      </trkpt>
      <trkpt lat="45.92988" lon="4.76388">
        <ele>169</ele>
        <time>2017-12-05T11:13:02Z</time>
      </trkpt>
      <trkpt lat="45.92984" lon="4.76384">
        <ele>169</ele>
        <time>2017-12-05T11:13:03Z</time>
      </trkpt>
      <trkpt lat="45.9298" lon="4.76381">
        <ele>169</ele>
        <time>2017-12-05T11:13:04Z</time>
      </trkpt>
      <trkpt lat="45.92976" lon="4.76376">
        <ele>169</ele>
        <time>2017-12-05T11:13:05Z</time>
      </trkpt>
      <trkpt lat="45.92972" lon="4.76373">
        <ele>169</ele>
        <time>2017-12-05T11:13:06Z</time>
      </trkpt>
      <trkpt lat="45.92967" lon="4.76368">
        <ele>169</ele>
        <time>2017-12-05T11:13:07Z</time>
      </trkpt>
      <trkpt lat="45.92963" lon="4.76364">
        <ele>169</ele>
        <time>2017-12-05T11:13:08Z</time>
      </trkpt>
      <trkpt lat="45.92959" lon="4.76362">
        <ele>169</ele>
        <time>2017-12-05T11:13:09Z</time>
      </trkpt>
      <trkpt lat="45.92955" lon="4.76358">
        <ele>169</ele>
        <time>2017-12-05T11:13:10Z</time>
      </trkpt>
      <trkpt lat="45.92952" lon="4.76351">
        <ele>169</ele>
        <time>2017-12-05T11:13:11Z</time>
      </trkpt>
      <trkpt lat="45.92945" lon="4.76348">
        <ele>169</ele>
        <time>2017-12-05T11:13:12Z</time>
      </trkpt>
      <trkpt lat="45.92939" lon="4.7634">
        <ele>169</ele>
        <time>2017-12-05T11:13:13Z</time>
      </trkpt>
      <trkpt lat="45.92935" lon="4.76335">
        <ele>169</ele>
        <time>2017-12-05T11:13:14Z</time>
      </trkpt>
      <trkpt lat="45.92929" lon="4.7633">
        <ele>169</ele>
        <time>2017-12-05T11:13:15Z</time>
      </trkpt>
      <trkpt lat="45.92925" lon="4.76325">
        <ele>169</ele>
        <time>2017-12-05T11:13:16Z</time>
      </trkpt>
      <trkpt lat="45.92919" lon="4.7632">
        <ele>169</ele>
        <time>2017-12-05T11:13:17Z</time>
      </trkpt>
      <trkpt lat="45.92916" lon="4.76316">
        <ele>169</ele>
        <time>2017-12-05T11:13:18Z</time>
      </trkpt>
      <trkpt lat="45.9291" lon="4.76311">
        <ele>169</ele>
        <time>2017-12-05T11:13:19Z</time>
      </trkpt>
      <trkpt lat="45.92906" lon="4.76306">
        <ele>169</ele>
        <time>2017-12-05T11:13:20Z</time>
      </trkpt>
      <trkpt lat="45.92901" lon="4.76301">
        <ele>169</ele>
        <time>2017-12-05T11:13:21Z</time>
      </trkpt>
      <trkpt lat="45.92897" lon="4.76298">
        <ele>169</ele>
        <time>2017-12-05T11:13:22Z</time>
      </trkpt>
      <trkpt lat="45.92892" lon="4.76293">
        <ele>169</ele>
        <time>2017-12-05T11:13:23Z</time>
      </trkpt>
      <trkpt lat="45.92886" lon="4.76287">
        <ele>169</ele>
        <time>2017-12-05T11:13:24Z</time>
      </trkpt>
      <trkpt lat="45.92881" lon="4.76282">
        <ele>169</ele>
        <time>2017-12-05T11:13:25Z</time>
      </trkpt>
      <trkpt lat="45.92876" lon="4.76278">
        <ele>169</ele>
        <time>2017-12-05T11:13:26Z</time>
      </trkpt>
      <trkpt lat="45.92872" lon="4.76273">
        <ele>169</ele>
        <time>2017-12-05T11:13:27Z</time>
      </trkpt>
      <trkpt lat="45.92866" lon="4.76266">
        <ele>169</ele>
        <time>2017-12-05T11:13:29Z</time>
      </trkpt>
      <trkpt lat="45.92862" lon="4.76261">
        <ele>169</ele>
        <time>2017-12-05T11:13:30Z</time>
      </trkpt>
      <trkpt lat="45.92858" lon="4.76257">
        <ele>169</ele>
        <time>2017-12-05T11:13:31Z</time>
      </trkpt>
      <trkpt lat="45.92854" lon="4.76253">
        <ele>169</ele>
        <time>2017-12-05T11:13:32Z</time>
      </trkpt>
      <trkpt lat="45.92851" lon="4.76248">
        <ele>169</ele>
        <time>2017-12-05T11:13:33Z</time>
      </trkpt>
      <trkpt lat="45.92847" lon="4.76244">
        <ele>169</ele>
        <time>2017-12-05T11:13:34Z</time>
      </trkpt>
      <trkpt lat="45.92839" lon="4.76238">
        <ele>169</ele>
        <time>2017-12-05T11:13:36Z</time>
      </trkpt>
      <trkpt lat="45.92834" lon="4.76236">
        <ele>169</ele>
        <time>2017-12-05T11:13:37Z</time>
      </trkpt>
      <trkpt lat="45.92829" lon="4.76229">
        <ele>168</ele>
        <time>2017-12-05T11:13:38Z</time>
      </trkpt>
      <trkpt lat="45.92823" lon="4.76225">
        <ele>168</ele>
        <time>2017-12-05T11:13:39Z</time>
      </trkpt>
      <trkpt lat="45.92818" lon="4.7622">
        <ele>168</ele>
        <time>2017-12-05T11:13:40Z</time>
      </trkpt>
      <trkpt lat="45.92812" lon="4.76212">
        <ele>168</ele>
        <time>2017-12-05T11:13:41Z</time>
      </trkpt>
      <trkpt lat="45.92808" lon="4.76207">
        <ele>168</ele>
        <time>2017-12-05T11:13:42Z</time>
      </trkpt>
      <trkpt lat="45.92804" lon="4.76203">
        <ele>168</ele>
        <time>2017-12-05T11:13:43Z</time>
      </trkpt>
      <trkpt lat="45.92799" lon="4.76199">
        <ele>168</ele>
        <time>2017-12-05T11:13:44Z</time>
      </trkpt>
      <trkpt lat="45.92795" lon="4.76195">
        <ele>168</ele>
        <time>2017-12-05T11:13:45Z</time>
      </trkpt>
      <trkpt lat="45.92787" lon="4.76188">
        <ele>168</ele>
        <time>2017-12-05T11:13:47Z</time>
      </trkpt>
      <trkpt lat="45.92782" lon="4.76184">
        <ele>168</ele>
        <time>2017-12-05T11:13:48Z</time>
      </trkpt>
      <trkpt lat="45.92777" lon="4.76181">
        <ele>167</ele>
        <time>2017-12-05T11:13:49Z</time>
      </trkpt>
      <trkpt lat="45.92772" lon="4.76178">
        <ele>167</ele>
        <time>2017-12-05T11:13:50Z</time>
      </trkpt>
      <trkpt lat="45.92768" lon="4.76173">
        <ele>167</ele>
        <time>2017-12-05T11:13:51Z</time>
      </trkpt>
      <trkpt lat="45.92762" lon="4.76169">
        <ele>167</ele>
        <time>2017-12-05T11:13:52Z</time>
      </trkpt>
      <trkpt lat="45.92757" lon="4.76164">
        <ele>167</ele>
        <time>2017-12-05T11:13:53Z</time>
      </trkpt>
      <trkpt lat="45.92752" lon="4.7616">
        <ele>167</ele>
        <time>2017-12-05T11:13:54Z</time>
      </trkpt>
      <trkpt lat="45.92746" lon="4.76154">
        <ele>168</ele>
        <time>2017-12-05T11:13:55Z</time>
      </trkpt>
      <trkpt lat="45.92742" lon="4.76149">
        <ele>168</ele>
        <time>2017-12-05T11:13:56Z</time>
      </trkpt>
      <trkpt lat="45.92737" lon="4.76145">
        <ele>168</ele>
        <time>2017-12-05T11:13:57Z</time>
      </trkpt>
      <trkpt lat="45.92733" lon="4.76142">
        <ele>168</ele>
        <time>2017-12-05T11:13:58Z</time>
      </trkpt>
      <trkpt lat="45.92729" lon="4.76138">
        <ele>168</ele>
        <time>2017-12-05T11:13:59Z</time>
      </trkpt>
      <trkpt lat="45.92724" lon="4.76135">
        <ele>168</ele>
        <time>2017-12-05T11:14:00Z</time>
      </trkpt>
      <trkpt lat="45.92719" lon="4.76131">
        <ele>168</ele>
        <time>2017-12-05T11:14:01Z</time>
      </trkpt>
      <trkpt lat="45.92715" lon="4.76127">
        <ele>168</ele>
        <time>2017-12-05T11:14:02Z</time>
      </trkpt>
      <trkpt lat="45.9271" lon="4.76124">
        <ele>168</ele>
        <time>2017-12-05T11:14:03Z</time>
      </trkpt>
      <trkpt lat="45.92703" lon="4.76121">
        <ele>169</ele>
        <time>2017-12-05T11:14:04Z</time>
      </trkpt>
      <trkpt lat="45.92698" lon="4.76117">
        <ele>169</ele>
        <time>2017-12-05T11:14:05Z</time>
      </trkpt>
      <trkpt lat="45.92693" lon="4.76114">
        <ele>169</ele>
        <time>2017-12-05T11:14:06Z</time>
      </trkpt>
      <trkpt lat="45.92688" lon="4.7611">
        <ele>169</ele>
        <time>2017-12-05T11:14:07Z</time>
      </trkpt>
      <trkpt lat="45.92684" lon="4.76106">
        <ele>169</ele>
        <time>2017-12-05T11:14:08Z</time>
      </trkpt>
      <trkpt lat="45.9268" lon="4.76102">
        <ele>169</ele>
        <time>2017-12-05T11:14:09Z</time>
      </trkpt>
      <trkpt lat="45.92674" lon="4.76099">
        <ele>169</ele>
        <time>2017-12-05T11:14:10Z</time>
      </trkpt>
      <trkpt lat="45.9267" lon="4.76095">
        <ele>169</ele>
        <time>2017-12-05T11:14:11Z</time>
      </trkpt>
      <trkpt lat="45.92666" lon="4.76093">
        <ele>170</ele>
        <time>2017-12-05T11:14:12Z</time>
      </trkpt>
      <trkpt lat="45.92661" lon="4.76089">
        <ele>170</ele>
        <time>2017-12-05T11:14:13Z</time>
      </trkpt>
      <trkpt lat="45.92656" lon="4.76084">
        <ele>170</ele>
        <time>2017-12-05T11:14:14Z</time>
      </trkpt>
      <trkpt lat="45.92653" lon="4.76079">
        <ele>170</ele>
        <time>2017-12-05T11:14:15Z</time>
      </trkpt>
      <trkpt lat="45.92648" lon="4.76077">
        <ele>170</ele>
        <time>2017-12-05T11:14:16Z</time>
      </trkpt>
      <trkpt lat="45.92645" lon="4.76074">
        <ele>170</ele>
        <time>2017-12-05T11:14:17Z</time>
      </trkpt>
      <trkpt lat="45.9264" lon="4.76071">
        <ele>170</ele>
        <time>2017-12-05T11:14:18Z</time>
      </trkpt>
      <trkpt lat="45.92636" lon="4.76068">
        <ele>170</ele>
        <time>2017-12-05T11:14:19Z</time>
      </trkpt>
      <trkpt lat="45.92631" lon="4.76065">
        <ele>170</ele>
        <time>2017-12-05T11:14:20Z</time>
      </trkpt>
      <trkpt lat="45.92627" lon="4.7606">
        <ele>170</ele>
        <time>2017-12-05T11:14:21Z</time>
      </trkpt>
      <trkpt lat="45.92623" lon="4.76057">
        <ele>171</ele>
        <time>2017-12-05T11:14:22Z</time>
      </trkpt>
      <trkpt lat="45.92619" lon="4.76053">
        <ele>171</ele>
        <time>2017-12-05T11:14:23Z</time>
      </trkpt>
      <trkpt lat="45.92615" lon="4.7605">
        <ele>171</ele>
        <time>2017-12-05T11:14:24Z</time>
      </trkpt>
      <trkpt lat="45.92611" lon="4.76047">
        <ele>171</ele>
        <time>2017-12-05T11:14:25Z</time>
      </trkpt>
      <trkpt lat="45.92606" lon="4.76044">
        <ele>171</ele>
        <time>2017-12-05T11:14:26Z</time>
      </trkpt>
      <trkpt lat="45.92602" lon="4.76041">
        <ele>171</ele>
        <time>2017-12-05T11:14:27Z</time>
      </trkpt>
      <trkpt lat="45.92598" lon="4.76038">
        <ele>171</ele>
        <time>2017-12-05T11:14:28Z</time>
      </trkpt>
      <trkpt lat="45.92592" lon="4.76035">
        <ele>171</ele>
        <time>2017-12-05T11:14:29Z</time>
      </trkpt>
      <trkpt lat="45.92588" lon="4.76032">
        <ele>171</ele>
        <time>2017-12-05T11:14:30Z</time>
      </trkpt>
      <trkpt lat="45.92584" lon="4.76028">
        <ele>171</ele>
        <time>2017-12-05T11:14:31Z</time>
      </trkpt>
      <trkpt lat="45.92578" lon="4.76026">
        <ele>172</ele>
        <time>2017-12-05T11:14:32Z</time>
      </trkpt>
      <trkpt lat="45.92573" lon="4.76023">
        <ele>172</ele>
        <time>2017-12-05T11:14:33Z</time>
      </trkpt>
      <trkpt lat="45.92569" lon="4.76019">
        <ele>172</ele>
        <time>2017-12-05T11:14:34Z</time>
      </trkpt>
      <trkpt lat="45.92565" lon="4.76016">
        <ele>172</ele>
        <time>2017-12-05T11:14:35Z</time>
      </trkpt>
      <trkpt lat="45.9256" lon="4.76013">
        <ele>172</ele>
        <time>2017-12-05T11:14:36Z</time>
      </trkpt>
      <trkpt lat="45.92555" lon="4.7601">
        <ele>172</ele>
        <time>2017-12-05T11:14:37Z</time>
      </trkpt>
      <trkpt lat="45.9255" lon="4.76007">
        <ele>172</ele>
        <time>2017-12-05T11:14:38Z</time>
      </trkpt>
      <trkpt lat="45.92545" lon="4.76004">
        <ele>172</ele>
        <time>2017-12-05T11:14:39Z</time>
      </trkpt>
      <trkpt lat="45.9254" lon="4.76001">
        <ele>172</ele>
        <time>2017-12-05T11:14:40Z</time>
      </trkpt>
      <trkpt lat="45.92536" lon="4.75997">
        <ele>172</ele>
        <time>2017-12-05T11:14:41Z</time>
      </trkpt>
      <trkpt lat="45.92531" lon="4.75994">
        <ele>172</ele>
        <time>2017-12-05T11:14:42Z</time>
      </trkpt>
      <trkpt lat="45.92527" lon="4.75991">
        <ele>172</ele>
        <time>2017-12-05T11:14:43Z</time>
      </trkpt>
      <trkpt lat="45.92522" lon="4.75988">
        <ele>172</ele>
        <time>2017-12-05T11:14:44Z</time>
      </trkpt>
      <trkpt lat="45.92517" lon="4.75985">
        <ele>172</ele>
        <time>2017-12-05T11:14:45Z</time>
      </trkpt>
      <trkpt lat="45.92512" lon="4.75981">
        <ele>172</ele>
        <time>2017-12-05T11:14:46Z</time>
      </trkpt>
      <trkpt lat="45.92508" lon="4.75978">
        <ele>172</ele>
        <time>2017-12-05T11:14:47Z</time>
      </trkpt>
      <trkpt lat="45.92504" lon="4.75974">
        <ele>172</ele>
        <time>2017-12-05T11:14:48Z</time>
      </trkpt>
      <trkpt lat="45.92498" lon="4.75971">
        <ele>172</ele>
        <time>2017-12-05T11:14:49Z</time>
      </trkpt>
      <trkpt lat="45.92495" lon="4.75968">
        <ele>172</ele>
        <time>2017-12-05T11:14:50Z</time>
      </trkpt>
      <trkpt lat="45.9249" lon="4.75966">
        <ele>172</ele>
        <time>2017-12-05T11:14:51Z</time>
      </trkpt>
      <trkpt lat="45.92485" lon="4.75962">
        <ele>172</ele>
        <time>2017-12-05T11:14:52Z</time>
      </trkpt>
      <trkpt lat="45.9248" lon="4.75959">
        <ele>172</ele>
        <time>2017-12-05T11:14:53Z</time>
      </trkpt>
      <trkpt lat="45.92476" lon="4.75955">
        <ele>172</ele>
        <time>2017-12-05T11:14:54Z</time>
      </trkpt>
      <trkpt lat="45.92471" lon="4.75952">
        <ele>172</ele>
        <time>2017-12-05T11:14:55Z</time>
      </trkpt>
      <trkpt lat="45.92465" lon="4.75948">
        <ele>172</ele>
        <time>2017-12-05T11:14:56Z</time>
      </trkpt>
      <trkpt lat="45.92461" lon="4.75944">
        <ele>172</ele>
        <time>2017-12-05T11:14:57Z</time>
      </trkpt>
      <trkpt lat="45.92456" lon="4.75942">
        <ele>172</ele>
        <time>2017-12-05T11:14:58Z</time>
      </trkpt>
      <trkpt lat="45.92451" lon="4.75939">
        <ele>172</ele>
        <time>2017-12-05T11:14:59Z</time>
      </trkpt>
      <trkpt lat="45.92446" lon="4.75936">
        <ele>172</ele>
        <time>2017-12-05T11:15:00Z</time>
      </trkpt>
      <trkpt lat="45.9244" lon="4.75932">
        <ele>172</ele>
        <time>2017-12-05T11:15:01Z</time>
      </trkpt>
      <trkpt lat="45.92435" lon="4.75929">
        <ele>172</ele>
        <time>2017-12-05T11:15:02Z</time>
      </trkpt>
      <trkpt lat="45.9243" lon="4.75925">
        <ele>172</ele>
        <time>2017-12-05T11:15:03Z</time>
      </trkpt>
      <trkpt lat="45.92424" lon="4.75921">
        <ele>172</ele>
        <time>2017-12-05T11:15:04Z</time>
      </trkpt>
      <trkpt lat="45.92419" lon="4.75917">
        <ele>172</ele>
        <time>2017-12-05T11:15:05Z</time>
      </trkpt>
      <trkpt lat="45.92413" lon="4.75914">
        <ele>172</ele>
        <time>2017-12-05T11:15:06Z</time>
      </trkpt>
      <trkpt lat="45.92408" lon="4.75911">
        <ele>172</ele>
        <time>2017-12-05T11:15:07Z</time>
      </trkpt>
      <trkpt lat="45.92402" lon="4.75906">
        <ele>173</ele>
        <time>2017-12-05T11:15:08Z</time>
      </trkpt>
      <trkpt lat="45.92396" lon="4.75902">
        <ele>173</ele>
        <time>2017-12-05T11:15:09Z</time>
      </trkpt>
      <trkpt lat="45.9239" lon="4.75898">
        <ele>173</ele>
        <time>2017-12-05T11:15:10Z</time>
      </trkpt>
      <trkpt lat="45.92384" lon="4.75894">
        <ele>173</ele>
        <time>2017-12-05T11:15:11Z</time>
      </trkpt>
      <trkpt lat="45.92379" lon="4.75889">
        <ele>173</ele>
        <time>2017-12-05T11:15:12Z</time>
      </trkpt>
      <trkpt lat="45.92374" lon="4.75885">
        <ele>173</ele>
        <time>2017-12-05T11:15:13Z</time>
      </trkpt>
      <trkpt lat="45.92369" lon="4.75882">
        <ele>173</ele>
        <time>2017-12-05T11:15:14Z</time>
      </trkpt>
      <trkpt lat="45.92364" lon="4.75879">
        <ele>173</ele>
        <time>2017-12-05T11:15:15Z</time>
      </trkpt>
      <trkpt lat="45.92359" lon="4.75876">
        <ele>173</ele>
        <time>2017-12-05T11:15:16Z</time>
      </trkpt>
      <trkpt lat="45.92353" lon="4.7587">
        <ele>173</ele>
        <time>2017-12-05T11:15:17Z</time>
      </trkpt>
      <trkpt lat="45.92349" lon="4.75867">
        <ele>173</ele>
        <time>2017-12-05T11:15:18Z</time>
      </trkpt>
      <trkpt lat="45.92344" lon="4.75864">
        <ele>173</ele>
        <time>2017-12-05T11:15:19Z</time>
      </trkpt>
      <trkpt lat="45.92339" lon="4.7586">
        <ele>173</ele>
        <time>2017-12-05T11:15:20Z</time>
      </trkpt>
      <trkpt lat="45.92334" lon="4.75858">
        <ele>173</ele>
        <time>2017-12-05T11:15:21Z</time>
      </trkpt>
      <trkpt lat="45.92328" lon="4.75855">
        <ele>174</ele>
        <time>2017-12-05T11:15:22Z</time>
      </trkpt>
      <trkpt lat="45.92323" lon="4.75852">
        <ele>174</ele>
        <time>2017-12-05T11:15:23Z</time>
      </trkpt>
      <trkpt lat="45.92317" lon="4.75848">
        <ele>174</ele>
        <time>2017-12-05T11:15:24Z</time>
      </trkpt>
      <trkpt lat="45.92313" lon="4.75844">
        <ele>174</ele>
        <time>2017-12-05T11:15:25Z</time>
      </trkpt>
      <trkpt lat="45.92307" lon="4.7584">
        <ele>173</ele>
        <time>2017-12-05T11:15:26Z</time>
      </trkpt>
      <trkpt lat="45.92304" lon="4.75836">
        <ele>173</ele>
        <time>2017-12-05T11:15:27Z</time>
      </trkpt>
      <trkpt lat="45.92299" lon="4.75832">
        <ele>174</ele>
        <time>2017-12-05T11:15:28Z</time>
      </trkpt>
      <trkpt lat="45.92294" lon="4.75829">
        <ele>174</ele>
        <time>2017-12-05T11:15:29Z</time>
      </trkpt>
      <trkpt lat="45.9229" lon="4.75827">
        <ele>174</ele>
        <time>2017-12-05T11:15:30Z</time>
      </trkpt>
      <trkpt lat="45.92284" lon="4.75824">
        <ele>174</ele>
        <time>2017-12-05T11:15:31Z</time>
      </trkpt>
      <trkpt lat="45.92279" lon="4.7582">
        <ele>174</ele>
        <time>2017-12-05T11:15:32Z</time>
      </trkpt>
      <trkpt lat="45.92274" lon="4.75815">
        <ele>174</ele>
        <time>2017-12-05T11:15:33Z</time>
      </trkpt>
      <trkpt lat="45.92271" lon="4.75809">
        <ele>174</ele>
        <time>2017-12-05T11:15:34Z</time>
      </trkpt>
      <trkpt lat="45.92267" lon="4.75802">
        <ele>174</ele>
        <time>2017-12-05T11:15:35Z</time>
      </trkpt>
      <trkpt lat="45.92264" lon="4.75796">
        <ele>174</ele>
        <time>2017-12-05T11:15:36Z</time>
      </trkpt>
      <trkpt lat="45.92262" lon="4.75789">
        <ele>174</ele>
        <time>2017-12-05T11:15:37Z</time>
      </trkpt>
      <trkpt lat="45.9226" lon="4.75782">
        <ele>174</ele>
        <time>2017-12-05T11:15:38Z</time>
      </trkpt>
      <trkpt lat="45.92258" lon="4.75775">
        <ele>174</ele>
        <time>2017-12-05T11:15:39Z</time>
      </trkpt>
      <trkpt lat="45.92256" lon="4.75768">
        <ele>174</ele>
        <time>2017-12-05T11:15:40Z</time>
      </trkpt>
      <trkpt lat="45.92255" lon="4.7576">
        <ele>174</ele>
        <time>2017-12-05T11:15:41Z</time>
      </trkpt>
      <trkpt lat="45.92253" lon="4.75752">
        <ele>174</ele>
        <time>2017-12-05T11:15:42Z</time>
      </trkpt>
      <trkpt lat="45.92252" lon="4.75745">
        <ele>174</ele>
        <time>2017-12-05T11:15:43Z</time>
      </trkpt>
      <trkpt lat="45.92251" lon="4.75738">
        <ele>174</ele>
        <time>2017-12-05T11:15:44Z</time>
      </trkpt>
      <trkpt lat="45.92249" lon="4.75731">
        <ele>174</ele>
        <time>2017-12-05T11:15:45Z</time>
      </trkpt>
      <trkpt lat="45.92247" lon="4.75724">
        <ele>174</ele>
        <time>2017-12-05T11:15:46Z</time>
      </trkpt>
      <trkpt lat="45.92246" lon="4.75718">
        <ele>174</ele>
        <time>2017-12-05T11:15:47Z</time>
      </trkpt>
      <trkpt lat="45.92243" lon="4.75711">
        <ele>174</ele>
        <time>2017-12-05T11:15:48Z</time>
      </trkpt>
      <trkpt lat="45.9224" lon="4.75704">
        <ele>174</ele>
        <time>2017-12-05T11:15:49Z</time>
      </trkpt>
      <trkpt lat="45.92236" lon="4.757">
        <ele>174</ele>
        <time>2017-12-05T11:15:50Z</time>
      </trkpt>
      <trkpt lat="45.92232" lon="4.75694">
        <ele>174</ele>
        <time>2017-12-05T11:15:51Z</time>
      </trkpt>
      <trkpt lat="45.92228" lon="4.75688">
        <ele>174</ele>
        <time>2017-12-05T11:15:52Z</time>
      </trkpt>
      <trkpt lat="45.92223" lon="4.75684">
        <ele>174</ele>
        <time>2017-12-05T11:15:53Z</time>
      </trkpt>
      <trkpt lat="45.92219" lon="4.75678">
        <ele>174</ele>
        <time>2017-12-05T11:15:54Z</time>
      </trkpt>
      <trkpt lat="45.92214" lon="4.75674">
        <ele>174</ele>
        <time>2017-12-05T11:15:55Z</time>
      </trkpt>
      <trkpt lat="45.92209" lon="4.75669">
        <ele>174</ele>
        <time>2017-12-05T11:15:56Z</time>
      </trkpt>
      <trkpt lat="45.92205" lon="4.75665">
        <ele>174</ele>
        <time>2017-12-05T11:15:57Z</time>
      </trkpt>
      <trkpt lat="45.922" lon="4.75661">
        <ele>174</ele>
        <time>2017-12-05T11:15:58Z</time>
      </trkpt>
      <trkpt lat="45.92196" lon="4.75656">
        <ele>174</ele>
        <time>2017-12-05T11:15:59Z</time>
      </trkpt>
      <trkpt lat="45.92191" lon="4.75652">
        <ele>174</ele>
        <time>2017-12-05T11:16:00Z</time>
      </trkpt>
      <trkpt lat="45.92187" lon="4.75649">
        <ele>174</ele>
        <time>2017-12-05T11:16:01Z</time>
      </trkpt>
      <trkpt lat="45.92183" lon="4.75645">
        <ele>174</ele>
        <time>2017-12-05T11:16:02Z</time>
      </trkpt>
      <trkpt lat="45.92178" lon="4.7564">
        <ele>174</ele>
        <time>2017-12-05T11:16:03Z</time>
      </trkpt>
      <trkpt lat="45.92173" lon="4.75636">
        <ele>174</ele>
        <time>2017-12-05T11:16:04Z</time>
      </trkpt>
      <trkpt lat="45.92169" lon="4.75631">
        <ele>174</ele>
        <time>2017-12-05T11:16:05Z</time>
      </trkpt>
      <trkpt lat="45.92164" lon="4.75626">
        <ele>174</ele>
        <time>2017-12-05T11:16:06Z</time>
      </trkpt>
      <trkpt lat="45.9216" lon="4.75622">
        <ele>174</ele>
        <time>2017-12-05T11:16:07Z</time>
      </trkpt>
      <trkpt lat="45.92156" lon="4.75618">
        <ele>174</ele>
        <time>2017-12-05T11:16:08Z</time>
      </trkpt>
      <trkpt lat="45.92152" lon="4.75614">
        <ele>174</ele>
        <time>2017-12-05T11:16:09Z</time>
      </trkpt>
      <trkpt lat="45.92147" lon="4.7561">
        <ele>174</ele>
        <time>2017-12-05T11:16:10Z</time>
      </trkpt>
      <trkpt lat="45.9214" lon="4.75602">
        <ele>174</ele>
        <time>2017-12-05T11:16:12Z</time>
      </trkpt>
      <trkpt lat="45.92136" lon="4.75598">
        <ele>174</ele>
        <time>2017-12-05T11:16:13Z</time>
      </trkpt>
      <trkpt lat="45.92129" lon="4.7559">
        <ele>174</ele>
        <time>2017-12-05T11:16:15Z</time>
      </trkpt>
      <trkpt lat="45.92125" lon="4.75582">
        <ele>174</ele>
        <time>2017-12-05T11:16:16Z</time>
      </trkpt>
      <trkpt lat="45.9212" lon="4.75574">
        <ele>174</ele>
        <time>2017-12-05T11:16:18Z</time>
      </trkpt>
      <trkpt lat="45.92119" lon="4.75569">
        <ele>174</ele>
        <time>2017-12-05T11:16:19Z</time>
      </trkpt>
      <trkpt lat="45.92119" lon="4.75556">
        <ele>174</ele>
        <time>2017-12-05T11:16:21Z</time>
      </trkpt>
      <trkpt lat="45.92121" lon="4.75552">
        <ele>174</ele>
        <time>2017-12-05T11:16:22Z</time>
      </trkpt>
      <trkpt lat="45.92123" lon="4.75548">
        <ele>174</ele>
        <time>2017-12-05T11:16:23Z</time>
      </trkpt>
      <trkpt lat="45.92126" lon="4.7554">
        <ele>174</ele>
        <time>2017-12-05T11:16:24Z</time>
      </trkpt>
      <trkpt lat="45.92129" lon="4.75536">
        <ele>174</ele>
        <time>2017-12-05T11:16:25Z</time>
      </trkpt>
      <trkpt lat="45.92131" lon="4.75529">
        <ele>174</ele>
        <time>2017-12-05T11:16:26Z</time>
      </trkpt>
      <trkpt lat="45.92134" lon="4.75524">
        <ele>174</ele>
        <time>2017-12-05T11:16:27Z</time>
      </trkpt>
      <trkpt lat="45.92138" lon="4.75519">
        <ele>174</ele>
        <time>2017-12-05T11:16:28Z</time>
      </trkpt>
      <trkpt lat="45.9214" lon="4.75514">
        <ele>174</ele>
        <time>2017-12-05T11:16:29Z</time>
      </trkpt>
      <trkpt lat="45.92143" lon="4.75508">
        <ele>175</ele>
        <time>2017-12-05T11:16:30Z</time>
      </trkpt>
      <trkpt lat="45.92146" lon="4.75502">
        <ele>175</ele>
        <time>2017-12-05T11:16:31Z</time>
      </trkpt>
      <trkpt lat="45.92149" lon="4.75496">
        <ele>175</ele>
        <time>2017-12-05T11:16:32Z</time>
      </trkpt>
      <trkpt lat="45.92152" lon="4.7549">
        <ele>175</ele>
        <time>2017-12-05T11:16:33Z</time>
      </trkpt>
      <trkpt lat="45.92155" lon="4.75484">
        <ele>176</ele>
        <time>2017-12-05T11:16:34Z</time>
      </trkpt>
      <trkpt lat="45.92157" lon="4.75477">
        <ele>176</ele>
        <time>2017-12-05T11:16:35Z</time>
      </trkpt>
      <trkpt lat="45.92159" lon="4.7547">
        <ele>176</ele>
        <time>2017-12-05T11:16:36Z</time>
      </trkpt>
      <trkpt lat="45.92162" lon="4.75464">
        <ele>176</ele>
        <time>2017-12-05T11:16:37Z</time>
      </trkpt>
      <trkpt lat="45.92164" lon="4.75456">
        <ele>176</ele>
        <time>2017-12-05T11:16:38Z</time>
      </trkpt>
      <trkpt lat="45.92167" lon="4.7545">
        <ele>176</ele>
        <time>2017-12-05T11:16:39Z</time>
      </trkpt>
      <trkpt lat="45.9217" lon="4.75443">
        <ele>176</ele>
        <time>2017-12-05T11:16:40Z</time>
      </trkpt>
      <trkpt lat="45.92172" lon="4.75436">
        <ele>177</ele>
        <time>2017-12-05T11:16:41Z</time>
      </trkpt>
      <trkpt lat="45.92176" lon="4.7543">
        <ele>177</ele>
        <time>2017-12-05T11:16:42Z</time>
      </trkpt>
      <trkpt lat="45.92179" lon="4.75421">
        <ele>177</ele>
        <time>2017-12-05T11:16:43Z</time>
      </trkpt>
      <trkpt lat="45.92182" lon="4.75413">
        <ele>177</ele>
        <time>2017-12-05T11:16:44Z</time>
      </trkpt>
      <trkpt lat="45.92185" lon="4.75406">
        <ele>177</ele>
        <time>2017-12-05T11:16:45Z</time>
      </trkpt>
      <trkpt lat="45.92188" lon="4.75397">
        <ele>177</ele>
        <time>2017-12-05T11:16:46Z</time>
      </trkpt>
      <trkpt lat="45.92192" lon="4.75388">
        <ele>177</ele>
        <time>2017-12-05T11:16:47Z</time>
      </trkpt>
      <trkpt lat="45.92193" lon="4.75382">
        <ele>177</ele>
        <time>2017-12-05T11:16:48Z</time>
      </trkpt>
      <trkpt lat="45.92196" lon="4.75376">
        <ele>177</ele>
        <time>2017-12-05T11:16:49Z</time>
      </trkpt>
      <trkpt lat="45.92198" lon="4.75371">
        <ele>177</ele>
        <time>2017-12-05T11:16:50Z</time>
      </trkpt>
      <trkpt lat="45.92202" lon="4.7536">
        <ele>177</ele>
        <time>2017-12-05T11:16:52Z</time>
      </trkpt>
      <trkpt lat="45.92203" lon="4.75353">
        <ele>177</ele>
        <time>2017-12-05T11:16:53Z</time>
      </trkpt>
      <trkpt lat="45.92205" lon="4.75347">
        <ele>177</ele>
        <time>2017-12-05T11:16:54Z</time>
      </trkpt>
      <trkpt lat="45.92207" lon="4.75339">
        <ele>177</ele>
        <time>2017-12-05T11:16:55Z</time>
      </trkpt>
      <trkpt lat="45.92208" lon="4.75332">
        <ele>176</ele>
        <time>2017-12-05T11:16:56Z</time>
      </trkpt>
      <trkpt lat="45.9221" lon="4.75324">
        <ele>176</ele>
        <time>2017-12-05T11:16:57Z</time>
      </trkpt>
      <trkpt lat="45.92211" lon="4.75316">
        <ele>176</ele>
        <time>2017-12-05T11:16:58Z</time>
      </trkpt>
      <trkpt lat="45.92212" lon="4.75308">
        <ele>176</ele>
        <time>2017-12-05T11:16:59Z</time>
      </trkpt>
      <trkpt lat="45.92212" lon="4.75301">
        <ele>176</ele>
        <time>2017-12-05T11:17:00Z</time>
      </trkpt>
      <trkpt lat="45.92212" lon="4.75293">
        <ele>176</ele>
        <time>2017-12-05T11:17:01Z</time>
      </trkpt>
      <trkpt lat="45.92212" lon="4.75285">
        <ele>176</ele>
        <time>2017-12-05T11:17:02Z</time>
      </trkpt>
      <trkpt lat="45.92213" lon="4.75276">
        <ele>176</ele>
        <time>2017-12-05T11:17:03Z</time>
      </trkpt>
      <trkpt lat="45.92214" lon="4.75267">
        <ele>176</ele>
        <time>2017-12-05T11:17:04Z</time>
      </trkpt>
      <trkpt lat="45.92214" lon="4.75259">
        <ele>175</ele>
        <time>2017-12-05T11:17:05Z</time>
      </trkpt>
      <trkpt lat="45.92215" lon="4.75251">
        <ele>175</ele>
        <time>2017-12-05T11:17:06Z</time>
      </trkpt>
      <trkpt lat="45.92215" lon="4.75243">
        <ele>175</ele>
        <time>2017-12-05T11:17:07Z</time>
      </trkpt>
      <trkpt lat="45.92217" lon="4.75235">
        <ele>175</ele>
        <time>2017-12-05T11:17:08Z</time>
      </trkpt>
      <trkpt lat="45.92218" lon="4.75227">
        <ele>175</ele>
        <time>2017-12-05T11:17:09Z</time>
      </trkpt>
      <trkpt lat="45.92219" lon="4.75219">
        <ele>175</ele>
        <time>2017-12-05T11:17:10Z</time>
      </trkpt>
      <trkpt lat="45.9222" lon="4.75212">
        <ele>175</ele>
        <time>2017-12-05T11:17:11Z</time>
      </trkpt>
      <trkpt lat="45.92221" lon="4.75204">
        <ele>175</ele>
        <time>2017-12-05T11:17:12Z</time>
      </trkpt>
      <trkpt lat="45.92222" lon="4.75195">
        <ele>175</ele>
        <time>2017-12-05T11:17:13Z</time>
      </trkpt>
      <trkpt lat="45.92224" lon="4.75187">
        <ele>175</ele>
        <time>2017-12-05T11:17:14Z</time>
      </trkpt>
      <trkpt lat="45.92227" lon="4.75179">
        <ele>175</ele>
        <time>2017-12-05T11:17:15Z</time>
      </trkpt>
      <trkpt lat="45.9223" lon="4.75171">
        <ele>175</ele>
        <time>2017-12-05T11:17:16Z</time>
      </trkpt>
      <trkpt lat="45.92233" lon="4.75163">
        <ele>174</ele>
        <time>2017-12-05T11:17:17Z</time>
      </trkpt>
      <trkpt lat="45.92237" lon="4.75156">
        <ele>174</ele>
        <time>2017-12-05T11:17:18Z</time>
      </trkpt>
      <trkpt lat="45.9224" lon="4.75148">
        <ele>174</ele>
        <time>2017-12-05T11:17:19Z</time>
      </trkpt>
      <trkpt lat="45.92244" lon="4.75141">
        <ele>174</ele>
        <time>2017-12-05T11:17:20Z</time>
      </trkpt>
      <trkpt lat="45.92248" lon="4.75134">
        <ele>174</ele>
        <time>2017-12-05T11:17:21Z</time>
      </trkpt>
      <trkpt lat="45.92252" lon="4.75129">
        <ele>174</ele>
        <time>2017-12-05T11:17:22Z</time>
      </trkpt>
      <trkpt lat="45.92257" lon="4.75124">
        <ele>174</ele>
        <time>2017-12-05T11:17:23Z</time>
      </trkpt>
      <trkpt lat="45.92261" lon="4.75119">
        <ele>174</ele>
        <time>2017-12-05T11:17:24Z</time>
      </trkpt>
      <trkpt lat="45.92265" lon="4.75115">
        <ele>174</ele>
        <time>2017-12-05T11:17:25Z</time>
      </trkpt>
      <trkpt lat="45.92268" lon="4.7511">
        <ele>174</ele>
        <time>2017-12-05T11:17:26Z</time>
      </trkpt>
      <trkpt lat="45.92273" lon="4.75107">
        <ele>174</ele>
        <time>2017-12-05T11:17:27Z</time>
      </trkpt>
      <trkpt lat="45.92277" lon="4.75103">
        <ele>173</ele>
        <time>2017-12-05T11:17:28Z</time>
      </trkpt>
      <trkpt lat="45.92281" lon="4.75098">
        <ele>173</ele>
        <time>2017-12-05T11:17:29Z</time>
      </trkpt>
      <trkpt lat="45.92285" lon="4.75093">
        <ele>173</ele>
        <time>2017-12-05T11:17:30Z</time>
      </trkpt>
      <trkpt lat="45.92289" lon="4.75087">
        <ele>173</ele>
        <time>2017-12-05T11:17:31Z</time>
      </trkpt>
      <trkpt lat="45.92294" lon="4.75082">
        <ele>172</ele>
        <time>2017-12-05T11:17:32Z</time>
      </trkpt>
      <trkpt lat="45.92299" lon="4.75077">
        <ele>172</ele>
        <time>2017-12-05T11:17:33Z</time>
      </trkpt>
      <trkpt lat="45.92303" lon="4.75071">
        <ele>172</ele>
        <time>2017-12-05T11:17:34Z</time>
      </trkpt>
      <trkpt lat="45.92307" lon="4.75065">
        <ele>172</ele>
        <time>2017-12-05T11:17:35Z</time>
      </trkpt>
      <trkpt lat="45.92313" lon="4.75059">
        <ele>172</ele>
        <time>2017-12-05T11:17:36Z</time>
      </trkpt>
      <trkpt lat="45.92317" lon="4.75052">
        <ele>172</ele>
        <time>2017-12-05T11:17:37Z</time>
      </trkpt>
      <trkpt lat="45.92321" lon="4.75045">
        <ele>172</ele>
        <time>2017-12-05T11:17:38Z</time>
      </trkpt>
      <trkpt lat="45.92324" lon="4.75038">
        <ele>171</ele>
        <time>2017-12-05T11:17:39Z</time>
      </trkpt>
      <trkpt lat="45.92329" lon="4.75032">
        <ele>171</ele>
        <time>2017-12-05T11:17:40Z</time>
      </trkpt>
      <trkpt lat="45.92332" lon="4.75026">
        <ele>171</ele>
        <time>2017-12-05T11:17:41Z</time>
      </trkpt>
      <trkpt lat="45.92335" lon="4.7502">
        <ele>170</ele>
        <time>2017-12-05T11:17:42Z</time>
      </trkpt>
      <trkpt lat="45.92337" lon="4.75013">
        <ele>170</ele>
        <time>2017-12-05T11:17:43Z</time>
      </trkpt>
      <trkpt lat="45.92339" lon="4.75006">
        <ele>170</ele>
        <time>2017-12-05T11:17:44Z</time>
      </trkpt>
      <trkpt lat="45.92343" lon="4.75">
        <ele>170</ele>
        <time>2017-12-05T11:17:45Z</time>
      </trkpt>
      <trkpt lat="45.92345" lon="4.74995">
        <ele>170</ele>
        <time>2017-12-05T11:17:46Z</time>
      </trkpt>
      <trkpt lat="45.92348" lon="4.74988">
        <ele>170</ele>
        <time>2017-12-05T11:17:47Z</time>
      </trkpt>
      <trkpt lat="45.92352" lon="4.74981">
        <ele>170</ele>
        <time>2017-12-05T11:17:48Z</time>
      </trkpt>
      <trkpt lat="45.92355" lon="4.74974">
        <ele>170</ele>
        <time>2017-12-05T11:17:49Z</time>
      </trkpt>
      <trkpt lat="45.92358" lon="4.74966">
        <ele>170</ele>
        <time>2017-12-05T11:17:50Z</time>
      </trkpt>
      <trkpt lat="45.92361" lon="4.74958">
        <ele>170</ele>
        <time>2017-12-05T11:17:51Z</time>
      </trkpt>
      <trkpt lat="45.92363" lon="4.7495">
        <ele>170</ele>
        <time>2017-12-05T11:17:52Z</time>
      </trkpt>
      <trkpt lat="45.92366" lon="4.74943">
        <ele>170</ele>
        <time>2017-12-05T11:17:53Z</time>
      </trkpt>
      <trkpt lat="45.92369" lon="4.74935">
        <ele>170</ele>
        <time>2017-12-05T11:17:54Z</time>
      </trkpt>
      <trkpt lat="45.92372" lon="4.74929">
        <ele>170</ele>
        <time>2017-12-05T11:17:55Z</time>
      </trkpt>
      <trkpt lat="45.92375" lon="4.74922">
        <ele>170</ele>
        <time>2017-12-05T11:17:56Z</time>
      </trkpt>
      <trkpt lat="45.92378" lon="4.74913">
        <ele>171</ele>
        <time>2017-12-05T11:17:57Z</time>
      </trkpt>
      <trkpt lat="45.9238" lon="4.74907">
        <ele>171</ele>
        <time>2017-12-05T11:17:58Z</time>
      </trkpt>
      <trkpt lat="45.92383" lon="4.749">
        <ele>171</ele>
        <time>2017-12-05T11:17:59Z</time>
      </trkpt>
      <trkpt lat="45.92386" lon="4.74893">
        <ele>171</ele>
        <time>2017-12-05T11:18:00Z</time>
      </trkpt>
      <trkpt lat="45.92388" lon="4.74886">
        <ele>171</ele>
        <time>2017-12-05T11:18:01Z</time>
      </trkpt>
      <trkpt lat="45.92391" lon="4.74878">
        <ele>171</ele>
        <time>2017-12-05T11:18:02Z</time>
      </trkpt>
      <trkpt lat="45.92393" lon="4.74872">
        <ele>171</ele>
        <time>2017-12-05T11:18:03Z</time>
      </trkpt>
      <trkpt lat="45.92395" lon="4.74866">
        <ele>171</ele>
        <time>2017-12-05T11:18:04Z</time>
      </trkpt>
      <trkpt lat="45.92398" lon="4.74859">
        <ele>171</ele>
        <time>2017-12-05T11:18:05Z</time>
      </trkpt>
      <trkpt lat="45.924" lon="4.74853">
        <ele>171</ele>
        <time>2017-12-05T11:18:06Z</time>
      </trkpt>
      <trkpt lat="45.92402" lon="4.74846">
        <ele>171</ele>
        <time>2017-12-05T11:18:07Z</time>
      </trkpt>
      <trkpt lat="45.92404" lon="4.74839">
        <ele>171</ele>
        <time>2017-12-05T11:18:08Z</time>
      </trkpt>
      <trkpt lat="45.92406" lon="4.74832">
        <ele>171</ele>
        <time>2017-12-05T11:18:09Z</time>
      </trkpt>
      <trkpt lat="45.92408" lon="4.74823">
        <ele>171</ele>
        <time>2017-12-05T11:18:10Z</time>
      </trkpt>
      <trkpt lat="45.9241" lon="4.74815">
        <ele>171</ele>
        <time>2017-12-05T11:18:11Z</time>
      </trkpt>
      <trkpt lat="45.92412" lon="4.74807">
        <ele>171</ele>
        <time>2017-12-05T11:18:12Z</time>
      </trkpt>
      <trkpt lat="45.92413" lon="4.74799">
        <ele>171</ele>
        <time>2017-12-05T11:18:13Z</time>
      </trkpt>
      <trkpt lat="45.92415" lon="4.74788">
        <ele>171</ele>
        <time>2017-12-05T11:18:14Z</time>
      </trkpt>
      <trkpt lat="45.92417" lon="4.74779">
        <ele>171</ele>
        <time>2017-12-05T11:18:15Z</time>
      </trkpt>
      <trkpt lat="45.92422" lon="4.74769">
        <ele>171</ele>
        <time>2017-12-05T11:18:16Z</time>
      </trkpt>
      <trkpt lat="45.92423" lon="4.74762">
        <ele>171</ele>
        <time>2017-12-05T11:18:17Z</time>
      </trkpt>
      <trkpt lat="45.92426" lon="4.74754">
        <ele>171</ele>
        <time>2017-12-05T11:18:18Z</time>
      </trkpt>
      <trkpt lat="45.92428" lon="4.74746">
        <ele>172</ele>
        <time>2017-12-05T11:18:19Z</time>
      </trkpt>
      <trkpt lat="45.9243" lon="4.74739">
        <ele>171</ele>
        <time>2017-12-05T11:18:20Z</time>
      </trkpt>
      <trkpt lat="45.92432" lon="4.74732">
        <ele>171</ele>
        <time>2017-12-05T11:18:21Z</time>
      </trkpt>
      <trkpt lat="45.92434" lon="4.74725">
        <ele>171</ele>
        <time>2017-12-05T11:18:22Z</time>
      </trkpt>
      <trkpt lat="45.92436" lon="4.74719">
        <ele>171</ele>
        <time>2017-12-05T11:18:23Z</time>
      </trkpt>
      <trkpt lat="45.92438" lon="4.74713">
        <ele>171</ele>
        <time>2017-12-05T11:18:24Z</time>
      </trkpt>
      <trkpt lat="45.92441" lon="4.74707">
        <ele>171</ele>
        <time>2017-12-05T11:18:25Z</time>
      </trkpt>
      <trkpt lat="45.92444" lon="4.747">
        <ele>171</ele>
        <time>2017-12-05T11:18:26Z</time>
      </trkpt>
      <trkpt lat="45.92446" lon="4.74694">
        <ele>171</ele>
        <time>2017-12-05T11:18:27Z</time>
      </trkpt>
      <trkpt lat="45.92449" lon="4.74689">
        <ele>171</ele>
        <time>2017-12-05T11:18:28Z</time>
      </trkpt>
      <trkpt lat="45.92452" lon="4.74683">
        <ele>171</ele>
        <time>2017-12-05T11:18:29Z</time>
      </trkpt>
      <trkpt lat="45.92454" lon="4.74678">
        <ele>171</ele>
        <time>2017-12-05T11:18:30Z</time>
      </trkpt>
      <trkpt lat="45.92457" lon="4.74672">
        <ele>171</ele>
        <time>2017-12-05T11:18:31Z</time>
      </trkpt>
      <trkpt lat="45.9246" lon="4.74666">
        <ele>171</ele>
        <time>2017-12-05T11:18:32Z</time>
      </trkpt>
      <trkpt lat="45.92463" lon="4.74659">
        <ele>171</ele>
        <time>2017-12-05T11:18:33Z</time>
      </trkpt>
      <trkpt lat="45.92466" lon="4.74653">
        <ele>171</ele>
        <time>2017-12-05T11:18:34Z</time>
      </trkpt>
      <trkpt lat="45.92469" lon="4.74649">
        <ele>171</ele>
        <time>2017-12-05T11:18:35Z</time>
      </trkpt>
      <trkpt lat="45.92472" lon="4.74644">
        <ele>171</ele>
        <time>2017-12-05T11:18:36Z</time>
      </trkpt>
      <trkpt lat="45.92476" lon="4.74638">
        <ele>171</ele>
        <time>2017-12-05T11:18:37Z</time>
      </trkpt>
      <trkpt lat="45.92481" lon="4.74631">
        <ele>171</ele>
        <time>2017-12-05T11:18:38Z</time>
      </trkpt>
      <trkpt lat="45.92484" lon="4.74626">
        <ele>171</ele>
        <time>2017-12-05T11:18:39Z</time>
      </trkpt>
      <trkpt lat="45.92488" lon="4.74622">
        <ele>171</ele>
        <time>2017-12-05T11:18:40Z</time>
      </trkpt>
      <trkpt lat="45.92491" lon="4.74616">
        <ele>171</ele>
        <time>2017-12-05T11:18:41Z</time>
      </trkpt>
      <trkpt lat="45.92496" lon="4.74611">
        <ele>171</ele>
        <time>2017-12-05T11:18:42Z</time>
      </trkpt>
      <trkpt lat="45.92499" lon="4.74606">
        <ele>171</ele>
        <time>2017-12-05T11:18:43Z</time>
      </trkpt>
      <trkpt lat="45.92502" lon="4.74602">
        <ele>171</ele>
        <time>2017-12-05T11:18:44Z</time>
      </trkpt>
      <trkpt lat="45.92505" lon="4.74597">
        <ele>171</ele>
        <time>2017-12-05T11:18:45Z</time>
      </trkpt>
      <trkpt lat="45.92512" lon="4.74588">
        <ele>171</ele>
        <time>2017-12-05T11:18:47Z</time>
      </trkpt>
      <trkpt lat="45.92516" lon="4.74583">
        <ele>171</ele>
        <time>2017-12-05T11:18:48Z</time>
      </trkpt>
      <trkpt lat="45.92521" lon="4.74578">
        <ele>171</ele>
        <time>2017-12-05T11:18:49Z</time>
      </trkpt>
      <trkpt lat="45.92525" lon="4.74573">
        <ele>171</ele>
        <time>2017-12-05T11:18:50Z</time>
      </trkpt>
      <trkpt lat="45.92529" lon="4.74568">
        <ele>171</ele>
        <time>2017-12-05T11:18:51Z</time>
      </trkpt>
      <trkpt lat="45.92532" lon="4.74564">
        <ele>171</ele>
        <time>2017-12-05T11:18:52Z</time>
      </trkpt>
      <trkpt lat="45.92536" lon="4.74559">
        <ele>171</ele>
        <time>2017-12-05T11:18:53Z</time>
      </trkpt>
      <trkpt lat="45.9254" lon="4.74554">
        <ele>171</ele>
        <time>2017-12-05T11:18:54Z</time>
      </trkpt>
      <trkpt lat="45.92543" lon="4.74548">
        <ele>170</ele>
        <time>2017-12-05T11:18:55Z</time>
      </trkpt>
      <trkpt lat="45.92547" lon="4.74542">
        <ele>170</ele>
        <time>2017-12-05T11:18:56Z</time>
      </trkpt>
      <trkpt lat="45.9255" lon="4.74535">
        <ele>170</ele>
        <time>2017-12-05T11:18:57Z</time>
      </trkpt>
      <trkpt lat="45.92553" lon="4.74529">
        <ele>170</ele>
        <time>2017-12-05T11:18:58Z</time>
      </trkpt>
      <trkpt lat="45.92557" lon="4.74523">
        <ele>170</ele>
        <time>2017-12-05T11:18:59Z</time>
      </trkpt>
      <trkpt lat="45.9256" lon="4.74516">
        <ele>170</ele>
        <time>2017-12-05T11:19:00Z</time>
      </trkpt>
      <trkpt lat="45.92564" lon="4.7451">
        <ele>170</ele>
        <time>2017-12-05T11:19:01Z</time>
      </trkpt>
      <trkpt lat="45.92567" lon="4.74504">
        <ele>170</ele>
        <time>2017-12-05T11:19:02Z</time>
      </trkpt>
      <trkpt lat="45.9257" lon="4.74499">
        <ele>170</ele>
        <time>2017-12-05T11:19:03Z</time>
      </trkpt>
      <trkpt lat="45.92573" lon="4.74493">
        <ele>170</ele>
        <time>2017-12-05T11:19:04Z</time>
      </trkpt>
      <trkpt lat="45.92576" lon="4.74488">
        <ele>170</ele>
        <time>2017-12-05T11:19:05Z</time>
      </trkpt>
      <trkpt lat="45.92579" lon="4.74483">
        <ele>170</ele>
        <time>2017-12-05T11:19:06Z</time>
      </trkpt>
      <trkpt lat="45.92582" lon="4.74477">
        <ele>170</ele>
        <time>2017-12-05T11:19:07Z</time>
      </trkpt>
      <trkpt lat="45.92586" lon="4.74471">
        <ele>170</ele>
        <time>2017-12-05T11:19:08Z</time>
      </trkpt>
      <trkpt lat="45.92589" lon="4.74465">
        <ele>170</ele>
        <time>2017-12-05T11:19:09Z</time>
      </trkpt>
      <trkpt lat="45.92592" lon="4.74459">
        <ele>170</ele>
        <time>2017-12-05T11:19:10Z</time>
      </trkpt>
      <trkpt lat="45.92596" lon="4.74453">
        <ele>170</ele>
        <time>2017-12-05T11:19:11Z</time>
      </trkpt>
      <trkpt lat="45.92599" lon="4.74446">
        <ele>170</ele>
        <time>2017-12-05T11:19:12Z</time>
      </trkpt>
      <trkpt lat="45.92603" lon="4.7444">
        <ele>170</ele>
        <time>2017-12-05T11:19:13Z</time>
      </trkpt>
      <trkpt lat="45.92606" lon="4.74434">
        <ele>170</ele>
        <time>2017-12-05T11:19:14Z</time>
      </trkpt>
      <trkpt lat="45.92611" lon="4.74428">
        <ele>170</ele>
        <time>2017-12-05T11:19:15Z</time>
      </trkpt>
      <trkpt lat="45.92613" lon="4.74423">
        <ele>170</ele>
        <time>2017-12-05T11:19:16Z</time>
      </trkpt>
      <trkpt lat="45.92617" lon="4.74417">
        <ele>170</ele>
        <time>2017-12-05T11:19:17Z</time>
      </trkpt>
      <trkpt lat="45.9262" lon="4.74411">
        <ele>170</ele>
        <time>2017-12-05T11:19:18Z</time>
      </trkpt>
      <trkpt lat="45.92623" lon="4.74404">
        <ele>170</ele>
        <time>2017-12-05T11:19:19Z</time>
      </trkpt>
      <trkpt lat="45.92627" lon="4.74397">
        <ele>170</ele>
        <time>2017-12-05T11:19:20Z</time>
      </trkpt>
      <trkpt lat="45.92631" lon="4.74391">
        <ele>170</ele>
        <time>2017-12-05T11:19:21Z</time>
      </trkpt>
      <trkpt lat="45.92634" lon="4.74385">
        <ele>170</ele>
        <time>2017-12-05T11:19:22Z</time>
      </trkpt>
      <trkpt lat="45.92638" lon="4.74379">
        <ele>170</ele>
        <time>2017-12-05T11:19:23Z</time>
      </trkpt>
      <trkpt lat="45.92642" lon="4.74373">
        <ele>171</ele>
        <time>2017-12-05T11:19:24Z</time>
      </trkpt>
      <trkpt lat="45.92645" lon="4.74368">
        <ele>171</ele>
        <time>2017-12-05T11:19:25Z</time>
      </trkpt>
      <trkpt lat="45.92648" lon="4.74362">
        <ele>171</ele>
        <time>2017-12-05T11:19:26Z</time>
      </trkpt>
      <trkpt lat="45.92652" lon="4.74355">
        <ele>171</ele>
        <time>2017-12-05T11:19:27Z</time>
      </trkpt>
      <trkpt lat="45.92655" lon="4.74348">
        <ele>171</ele>
        <time>2017-12-05T11:19:28Z</time>
      </trkpt>
      <trkpt lat="45.92659" lon="4.74342">
        <ele>171</ele>
        <time>2017-12-05T11:19:29Z</time>
      </trkpt>
      <trkpt lat="45.92662" lon="4.74335">
        <ele>171</ele>
        <time>2017-12-05T11:19:30Z</time>
      </trkpt>
      <trkpt lat="45.92665" lon="4.7433">
        <ele>171</ele>
        <time>2017-12-05T11:19:31Z</time>
      </trkpt>
      <trkpt lat="45.92669" lon="4.74323">
        <ele>171</ele>
        <time>2017-12-05T11:19:32Z</time>
      </trkpt>
      <trkpt lat="45.92672" lon="4.74317">
        <ele>171</ele>
        <time>2017-12-05T11:19:33Z</time>
      </trkpt>
      <trkpt lat="45.92675" lon="4.74312">
        <ele>171</ele>
        <time>2017-12-05T11:19:34Z</time>
      </trkpt>
      <trkpt lat="45.92679" lon="4.74307">
        <ele>171</ele>
        <time>2017-12-05T11:19:35Z</time>
      </trkpt>
      <trkpt lat="45.92682" lon="4.74301">
        <ele>171</ele>
        <time>2017-12-05T11:19:36Z</time>
      </trkpt>
      <trkpt lat="45.92685" lon="4.74295">
        <ele>171</ele>
        <time>2017-12-05T11:19:37Z</time>
      </trkpt>
      <trkpt lat="45.92689" lon="4.74289">
        <ele>171</ele>
        <time>2017-12-05T11:19:38Z</time>
      </trkpt>
      <trkpt lat="45.92692" lon="4.74283">
        <ele>171</ele>
        <time>2017-12-05T11:19:39Z</time>
      </trkpt>
      <trkpt lat="45.92695" lon="4.74276">
        <ele>171</ele>
        <time>2017-12-05T11:19:40Z</time>
      </trkpt>
      <trkpt lat="45.92699" lon="4.74269">
        <ele>171</ele>
        <time>2017-12-05T11:19:41Z</time>
      </trkpt>
      <trkpt lat="45.92704" lon="4.74264">
        <ele>171</ele>
        <time>2017-12-05T11:19:42Z</time>
      </trkpt>
      <trkpt lat="45.92708" lon="4.74258">
        <ele>171</ele>
        <time>2017-12-05T11:19:43Z</time>
      </trkpt>
      <trkpt lat="45.92711" lon="4.74252">
        <ele>171</ele>
        <time>2017-12-05T11:19:44Z</time>
      </trkpt>
      <trkpt lat="45.92715" lon="4.74246">
        <ele>171</ele>
        <time>2017-12-05T11:19:45Z</time>
      </trkpt>
      <trkpt lat="45.92719" lon="4.7424">
        <ele>171</ele>
        <time>2017-12-05T11:19:46Z</time>
      </trkpt>
      <trkpt lat="45.92722" lon="4.74235">
        <ele>171</ele>
        <time>2017-12-05T11:19:47Z</time>
      </trkpt>
      <trkpt lat="45.92725" lon="4.7423">
        <ele>171</ele>
        <time>2017-12-05T11:19:48Z</time>
      </trkpt>
      <trkpt lat="45.92729" lon="4.74224">
        <ele>171</ele>
        <time>2017-12-05T11:19:49Z</time>
      </trkpt>
      <trkpt lat="45.92732" lon="4.74218">
        <ele>171</ele>
        <time>2017-12-05T11:19:50Z</time>
      </trkpt>
      <trkpt lat="45.92736" lon="4.74214">
        <ele>171</ele>
        <time>2017-12-05T11:19:51Z</time>
      </trkpt>
      <trkpt lat="45.92739" lon="4.74209">
        <ele>171</ele>
        <time>2017-12-05T11:19:52Z</time>
      </trkpt>
      <trkpt lat="45.92743" lon="4.74203">
        <ele>171</ele>
        <time>2017-12-05T11:19:53Z</time>
      </trkpt>
      <trkpt lat="45.92747" lon="4.74198">
        <ele>171</ele>
        <time>2017-12-05T11:19:54Z</time>
      </trkpt>
      <trkpt lat="45.92751" lon="4.74193">
        <ele>172</ele>
        <time>2017-12-05T11:19:55Z</time>
      </trkpt>
      <trkpt lat="45.92754" lon="4.74188">
        <ele>172</ele>
        <time>2017-12-05T11:19:56Z</time>
      </trkpt>
      <trkpt lat="45.92758" lon="4.74183">
        <ele>172</ele>
        <time>2017-12-05T11:19:57Z</time>
      </trkpt>
      <trkpt lat="45.92761" lon="4.74179">
        <ele>172</ele>
        <time>2017-12-05T11:19:58Z</time>
      </trkpt>
      <trkpt lat="45.92765" lon="4.74174">
        <ele>172</ele>
        <time>2017-12-05T11:19:59Z</time>
      </trkpt>
      <trkpt lat="45.9277" lon="4.7417">
        <ele>172</ele>
        <time>2017-12-05T11:20:00Z</time>
      </trkpt>
      <trkpt lat="45.92774" lon="4.74165">
        <ele>172</ele>
        <time>2017-12-05T11:20:01Z</time>
      </trkpt>
      <trkpt lat="45.92778" lon="4.74159">
        <ele>172</ele>
        <time>2017-12-05T11:20:02Z</time>
      </trkpt>
      <trkpt lat="45.92783" lon="4.74154">
        <ele>172</ele>
        <time>2017-12-05T11:20:03Z</time>
      </trkpt>
      <trkpt lat="45.92787" lon="4.74149">
        <ele>172</ele>
        <time>2017-12-05T11:20:04Z</time>
      </trkpt>
      <trkpt lat="45.92792" lon="4.74143">
        <ele>172</ele>
        <time>2017-12-05T11:20:05Z</time>
      </trkpt>
      <trkpt lat="45.92796" lon="4.7414">
        <ele>172</ele>
        <time>2017-12-05T11:20:06Z</time>
      </trkpt>
      <trkpt lat="45.92801" lon="4.74134">
        <ele>172</ele>
        <time>2017-12-05T11:20:07Z</time>
      </trkpt>
      <trkpt lat="45.92806" lon="4.74129">
        <ele>172</ele>
        <time>2017-12-05T11:20:08Z</time>
      </trkpt>
      <trkpt lat="45.92811" lon="4.74124">
        <ele>172</ele>
        <time>2017-12-05T11:20:09Z</time>
      </trkpt>
      <trkpt lat="45.92816" lon="4.74118">
        <ele>172</ele>
        <time>2017-12-05T11:20:10Z</time>
      </trkpt>
      <trkpt lat="45.92821" lon="4.74114">
        <ele>172</ele>
        <time>2017-12-05T11:20:11Z</time>
      </trkpt>
      <trkpt lat="45.92825" lon="4.74109">
        <ele>171</ele>
        <time>2017-12-05T11:20:12Z</time>
      </trkpt>
      <trkpt lat="45.92831" lon="4.74103">
        <ele>171</ele>
        <time>2017-12-05T11:20:13Z</time>
      </trkpt>
      <trkpt lat="45.92836" lon="4.74098">
        <ele>171</ele>
        <time>2017-12-05T11:20:14Z</time>
      </trkpt>
      <trkpt lat="45.9284" lon="4.74093">
        <ele>171</ele>
        <time>2017-12-05T11:20:15Z</time>
      </trkpt>
      <trkpt lat="45.92844" lon="4.74088">
        <ele>171</ele>
        <time>2017-12-05T11:20:16Z</time>
      </trkpt>
      <trkpt lat="45.92848" lon="4.74083">
        <ele>172</ele>
        <time>2017-12-05T11:20:17Z</time>
      </trkpt>
      <trkpt lat="45.92852" lon="4.74078">
        <ele>172</ele>
        <time>2017-12-05T11:20:18Z</time>
      </trkpt>
      <trkpt lat="45.92857" lon="4.74072">
        <ele>172</ele>
        <time>2017-12-05T11:20:19Z</time>
      </trkpt>
      <trkpt lat="45.92861" lon="4.74066">
        <ele>172</ele>
        <time>2017-12-05T11:20:20Z</time>
      </trkpt>
      <trkpt lat="45.92865" lon="4.74061">
        <ele>172</ele>
        <time>2017-12-05T11:20:21Z</time>
      </trkpt>
      <trkpt lat="45.92869" lon="4.74056">
        <ele>172</ele>
        <time>2017-12-05T11:20:22Z</time>
      </trkpt>
      <trkpt lat="45.92874" lon="4.7405">
        <ele>172</ele>
        <time>2017-12-05T11:20:23Z</time>
      </trkpt>
      <trkpt lat="45.92879" lon="4.74047">
        <ele>172</ele>
        <time>2017-12-05T11:20:24Z</time>
      </trkpt>
      <trkpt lat="45.92883" lon="4.74046">
        <ele>172</ele>
        <time>2017-12-05T11:20:25Z</time>
      </trkpt>
      <trkpt lat="45.92888" lon="4.74045">
        <ele>172</ele>
        <time>2017-12-05T11:20:26Z</time>
      </trkpt>
      <trkpt lat="45.92893" lon="4.74046">
        <ele>172</ele>
        <time>2017-12-05T11:20:27Z</time>
      </trkpt>
      <trkpt lat="45.92898" lon="4.74046">
        <ele>172</ele>
        <time>2017-12-05T11:20:28Z</time>
      </trkpt>
      <trkpt lat="45.92902" lon="4.74045">
        <ele>172</ele>
        <time>2017-12-05T11:20:29Z</time>
      </trkpt>
      <trkpt lat="45.92908" lon="4.74042">
        <ele>172</ele>
        <time>2017-12-05T11:20:30Z</time>
      </trkpt>
      <trkpt lat="45.92911" lon="4.74038">
        <ele>172</ele>
        <time>2017-12-05T11:20:31Z</time>
      </trkpt>
      <trkpt lat="45.92915" lon="4.74033">
        <ele>172</ele>
        <time>2017-12-05T11:20:32Z</time>
      </trkpt>
      <trkpt lat="45.92917" lon="4.74027">
        <ele>172</ele>
        <time>2017-12-05T11:20:33Z</time>
      </trkpt>
      <trkpt lat="45.92918" lon="4.7402">
        <ele>172</ele>
        <time>2017-12-05T11:20:34Z</time>
      </trkpt>
      <trkpt lat="45.92919" lon="4.74011">
        <ele>172</ele>
        <time>2017-12-05T11:20:35Z</time>
      </trkpt>
      <trkpt lat="45.92917" lon="4.74003">
        <ele>172</ele>
        <time>2017-12-05T11:20:36Z</time>
      </trkpt>
      <trkpt lat="45.92913" lon="4.73996">
        <ele>172</ele>
        <time>2017-12-05T11:20:37Z</time>
      </trkpt>
      <trkpt lat="45.92909" lon="4.73991">
        <ele>172</ele>
        <time>2017-12-05T11:20:38Z</time>
      </trkpt>
      <trkpt lat="45.92904" lon="4.73987">
        <ele>172</ele>
        <time>2017-12-05T11:20:39Z</time>
      </trkpt>
      <trkpt lat="45.929" lon="4.73982">
        <ele>172</ele>
        <time>2017-12-05T11:20:40Z</time>
      </trkpt>
      <trkpt lat="45.92896" lon="4.73976">
        <ele>172</ele>
        <time>2017-12-05T11:20:41Z</time>
      </trkpt>
      <trkpt lat="45.92892" lon="4.73969">
        <ele>172</ele>
        <time>2017-12-05T11:20:42Z</time>
      </trkpt>
      <trkpt lat="45.9289" lon="4.73961">
        <ele>172</ele>
        <time>2017-12-05T11:20:43Z</time>
      </trkpt>
      <trkpt lat="45.92888" lon="4.73953">
        <ele>172</ele>
        <time>2017-12-05T11:20:44Z</time>
      </trkpt>
      <trkpt lat="45.92887" lon="4.73944">
        <ele>172</ele>
        <time>2017-12-05T11:20:45Z</time>
      </trkpt>
      <trkpt lat="45.92886" lon="4.73935">
        <ele>172</ele>
        <time>2017-12-05T11:20:46Z</time>
      </trkpt>
      <trkpt lat="45.92885" lon="4.73926">
        <ele>172</ele>
        <time>2017-12-05T11:20:47Z</time>
      </trkpt>
      <trkpt lat="45.92885" lon="4.73917">
        <ele>172</ele>
        <time>2017-12-05T11:20:48Z</time>
      </trkpt>
      <trkpt lat="45.92884" lon="4.73908">
        <ele>173</ele>
        <time>2017-12-05T11:20:49Z</time>
      </trkpt>
      <trkpt lat="45.92882" lon="4.73899">
        <ele>173</ele>
        <time>2017-12-05T11:20:50Z</time>
      </trkpt>
      <trkpt lat="45.92881" lon="4.73889">
        <ele>173</ele>
        <time>2017-12-05T11:20:51Z</time>
      </trkpt>
      <trkpt lat="45.9288" lon="4.7388">
        <ele>173</ele>
        <time>2017-12-05T11:20:52Z</time>
      </trkpt>
      <trkpt lat="45.92878" lon="4.73873">
        <ele>173</ele>
        <time>2017-12-05T11:20:53Z</time>
      </trkpt>
      <trkpt lat="45.92877" lon="4.73865">
        <ele>173</ele>
        <time>2017-12-05T11:20:54Z</time>
      </trkpt>
      <trkpt lat="45.92875" lon="4.73857">
        <ele>173</ele>
        <time>2017-12-05T11:20:55Z</time>
      </trkpt>
      <trkpt lat="45.92872" lon="4.7385">
        <ele>173</ele>
        <time>2017-12-05T11:20:56Z</time>
      </trkpt>
      <trkpt lat="45.92871" lon="4.73839">
        <ele>173</ele>
        <time>2017-12-05T11:20:57Z</time>
      </trkpt>
      <trkpt lat="45.92868" lon="4.73833">
        <ele>173</ele>
        <time>2017-12-05T11:20:58Z</time>
      </trkpt>
      <trkpt lat="45.92866" lon="4.73826">
        <ele>173</ele>
        <time>2017-12-05T11:20:59Z</time>
      </trkpt>
      <trkpt lat="45.92864" lon="4.7382">
        <ele>173</ele>
        <time>2017-12-05T11:21:00Z</time>
      </trkpt>
      <trkpt lat="45.92861" lon="4.73812">
        <ele>173</ele>
        <time>2017-12-05T11:21:01Z</time>
      </trkpt>
      <trkpt lat="45.92858" lon="4.73805">
        <ele>173</ele>
        <time>2017-12-05T11:21:02Z</time>
      </trkpt>
      <trkpt lat="45.92856" lon="4.73799">
        <ele>173</ele>
        <time>2017-12-05T11:21:03Z</time>
      </trkpt>
      <trkpt lat="45.92853" lon="4.73793">
        <ele>173</ele>
        <time>2017-12-05T11:21:04Z</time>
      </trkpt>
      <trkpt lat="45.92848" lon="4.73787">
        <ele>173</ele>
        <time>2017-12-05T11:21:05Z</time>
      </trkpt>
      <trkpt lat="45.92843" lon="4.73782">
        <ele>173</ele>
        <time>2017-12-05T11:21:06Z</time>
      </trkpt>
      <trkpt lat="45.92836" lon="4.73778">
        <ele>172</ele>
        <time>2017-12-05T11:21:07Z</time>
      </trkpt>
      <trkpt lat="45.9283" lon="4.73776">
        <ele>173</ele>
        <time>2017-12-05T11:21:08Z</time>
      </trkpt>
      <trkpt lat="45.92826" lon="4.73773">
        <ele>173</ele>
        <time>2017-12-05T11:21:09Z</time>
      </trkpt>
      <trkpt lat="45.92822" lon="4.73769">
        <ele>173</ele>
        <time>2017-12-05T11:21:10Z</time>
      </trkpt>
      <trkpt lat="45.92814" lon="4.73765">
        <ele>173</ele>
        <time>2017-12-05T11:21:12Z</time>
      </trkpt>
      <trkpt lat="45.92811" lon="4.73763">
        <ele>173</ele>
        <time>2017-12-05T11:21:13Z</time>
      </trkpt>
      <trkpt lat="45.92803" lon="4.73759">
        <ele>173</ele>
        <time>2017-12-05T11:21:17Z</time>
      </trkpt>
      <trkpt lat="45.92801" lon="4.73758">
        <ele>173</ele>
        <time>2017-12-05T11:21:18Z</time>
      </trkpt>
      <trkpt lat="45.92794" lon="4.73755">
        <ele>173</ele>
        <time>2017-12-05T11:21:21Z</time>
      </trkpt>
      <trkpt lat="45.92792" lon="4.73754">
        <ele>173</ele>
        <time>2017-12-05T11:21:22Z</time>
      </trkpt>
      <trkpt lat="45.92785" lon="4.73746">
        <ele>172</ele>
        <time>2017-12-05T11:21:27Z</time>
      </trkpt>
      <trkpt lat="45.92785" lon="4.73743">
        <ele>172</ele>
        <time>2017-12-05T11:21:28Z</time>
      </trkpt>
      <trkpt lat="45.92789" lon="4.73754">
        <ele>173</ele>
        <time>2017-12-05T11:22:12Z</time>
      </trkpt>
      <trkpt lat="45.92789" lon="4.73756">
        <ele>173</ele>
        <time>2017-12-05T11:22:13Z</time>
      </trkpt>
      <trkpt lat="45.92787" lon="4.73757">
        <ele>173</ele>
        <time>2017-12-05T11:22:26Z</time>
      </trkpt>
      <trkpt lat="45.92787" lon="4.73757">
        <ele>173</ele>
        <time>2017-12-05T11:22:27Z</time>
      </trkpt>
      <trkpt lat="45.92787" lon="4.73758">
        <ele>173</ele>
        <time>2017-12-05T11:22:31Z</time>
      </trkpt>
      <trkpt lat="45.92787" lon="4.73758">
        <ele>173</ele>
        <time>2017-12-05T11:22:32Z</time>
      </trkpt>
      <trkpt lat="45.92788" lon="4.73746">
        <ele>172</ele>
        <time>2017-12-05T11:23:20Z</time>
      </trkpt>
      <trkpt lat="45.92788" lon="4.73745">
        <ele>172</ele>
        <time>2017-12-05T11:23:21Z</time>
      </trkpt>
      <trkpt lat="45.92786" lon="4.73735">
        <ele>172</ele>
        <time>2017-12-05T11:24:22Z</time>
      </trkpt>
      <trkpt lat="45.92784" lon="4.73733">
        <ele>172</ele>
        <time>2017-12-05T11:24:23Z</time>
      </trkpt>
      <trkpt lat="45.92776" lon="4.73732">
        <ele>172</ele>
        <time>2017-12-05T11:24:27Z</time>
      </trkpt>
      <trkpt lat="45.92774" lon="4.73732">
        <ele>172</ele>
        <time>2017-12-05T11:24:28Z</time>
      </trkpt>
      <trkpt lat="45.92767" lon="4.7373">
        <ele>172</ele>
        <time>2017-12-05T11:24:31Z</time>
      </trkpt>
      <trkpt lat="45.92765" lon="4.73728">
        <ele>172</ele>
        <time>2017-12-05T11:24:32Z</time>
      </trkpt>
      <trkpt lat="45.92758" lon="4.73723">
        <ele>172</ele>
        <time>2017-12-05T11:24:35Z</time>
      </trkpt>
      <trkpt lat="45.92754" lon="4.73723">
        <ele>172</ele>
        <time>2017-12-05T11:24:36Z</time>
      </trkpt>
      <trkpt lat="45.92746" lon="4.73721">
        <ele>173</ele>
        <time>2017-12-05T11:24:38Z</time>
      </trkpt>
      <trkpt lat="45.92742" lon="4.73721">
        <ele>173</ele>
        <time>2017-12-05T11:24:39Z</time>
      </trkpt>
      <trkpt lat="45.92734" lon="4.7372">
        <ele>173</ele>
        <time>2017-12-05T11:24:41Z</time>
      </trkpt>
      <trkpt lat="45.9273" lon="4.7372">
        <ele>173</ele>
        <time>2017-12-05T11:24:42Z</time>
      </trkpt>
      <trkpt lat="45.92725" lon="4.7372">
        <ele>173</ele>
        <time>2017-12-05T11:24:43Z</time>
      </trkpt>
      <trkpt lat="45.92719" lon="4.73718">
        <ele>173</ele>
        <time>2017-12-05T11:24:44Z</time>
      </trkpt>
      <trkpt lat="45.92714" lon="4.73717">
        <ele>173</ele>
        <time>2017-12-05T11:24:45Z</time>
      </trkpt>
      <trkpt lat="45.92708" lon="4.73717">
        <ele>173</ele>
        <time>2017-12-05T11:24:46Z</time>
      </trkpt>
      <trkpt lat="45.92702" lon="4.73715">
        <ele>173</ele>
        <time>2017-12-05T11:24:47Z</time>
      </trkpt>
      <trkpt lat="45.92697" lon="4.73714">
        <ele>173</ele>
        <time>2017-12-05T11:24:48Z</time>
      </trkpt>
      <trkpt lat="45.92691" lon="4.73712">
        <ele>173</ele>
        <time>2017-12-05T11:24:49Z</time>
      </trkpt>
      <trkpt lat="45.92686" lon="4.7371">
        <ele>173</ele>
        <time>2017-12-05T11:24:50Z</time>
      </trkpt>
      <trkpt lat="45.92681" lon="4.73708">
        <ele>173</ele>
        <time>2017-12-05T11:24:51Z</time>
      </trkpt>
      <trkpt lat="45.92677" lon="4.73705">
        <ele>173</ele>
        <time>2017-12-05T11:24:52Z</time>
      </trkpt>
      <trkpt lat="45.92672" lon="4.73704">
        <ele>174</ele>
        <time>2017-12-05T11:24:53Z</time>
      </trkpt>
      <trkpt lat="45.92668" lon="4.73701">
        <ele>174</ele>
        <time>2017-12-05T11:24:54Z</time>
      </trkpt>
      <trkpt lat="45.92664" lon="4.73698">
        <ele>173</ele>
        <time>2017-12-05T11:24:55Z</time>
      </trkpt>
      <trkpt lat="45.9266" lon="4.73695">
        <ele>173</ele>
        <time>2017-12-05T11:24:56Z</time>
      </trkpt>
      <trkpt lat="45.92655" lon="4.7369">
        <ele>173</ele>
        <time>2017-12-05T11:24:57Z</time>
      </trkpt>
      <trkpt lat="45.9265" lon="4.73685">
        <ele>173</ele>
        <time>2017-12-05T11:24:58Z</time>
      </trkpt>
      <trkpt lat="45.92647" lon="4.73679">
        <ele>173</ele>
        <time>2017-12-05T11:24:59Z</time>
      </trkpt>
      <trkpt lat="45.92643" lon="4.73672">
        <ele>173</ele>
        <time>2017-12-05T11:25:00Z</time>
      </trkpt>
      <trkpt lat="45.9264" lon="4.73665">
        <ele>173</ele>
        <time>2017-12-05T11:25:01Z</time>
      </trkpt>
      <trkpt lat="45.92638" lon="4.73658">
        <ele>173</ele>
        <time>2017-12-05T11:25:02Z</time>
      </trkpt>
      <trkpt lat="45.92636" lon="4.73651">
        <ele>173</ele>
        <time>2017-12-05T11:25:03Z</time>
      </trkpt>
      <trkpt lat="45.92632" lon="4.73645">
        <ele>173</ele>
        <time>2017-12-05T11:25:04Z</time>
      </trkpt>
      <trkpt lat="45.92629" lon="4.73639">
        <ele>173</ele>
        <time>2017-12-05T11:25:05Z</time>
      </trkpt>
      <trkpt lat="45.92625" lon="4.73633">
        <ele>173</ele>
        <time>2017-12-05T11:25:06Z</time>
      </trkpt>
      <trkpt lat="45.92621" lon="4.73629">
        <ele>173</ele>
        <time>2017-12-05T11:25:07Z</time>
      </trkpt>
      <trkpt lat="45.92617" lon="4.73625">
        <ele>173</ele>
        <time>2017-12-05T11:25:08Z</time>
      </trkpt>
      <trkpt lat="45.92612" lon="4.73622">
        <ele>173</ele>
        <time>2017-12-05T11:25:09Z</time>
      </trkpt>
      <trkpt lat="45.92607" lon="4.73621">
        <ele>173</ele>
        <time>2017-12-05T11:25:10Z</time>
      </trkpt>
      <trkpt lat="45.92602" lon="4.7362">
        <ele>173</ele>
        <time>2017-12-05T11:25:11Z</time>
      </trkpt>
      <trkpt lat="45.92597" lon="4.7362">
        <ele>173</ele>
        <time>2017-12-05T11:25:12Z</time>
      </trkpt>
      <trkpt lat="45.92591" lon="4.7362">
        <ele>173</ele>
        <time>2017-12-05T11:25:13Z</time>
      </trkpt>
      <trkpt lat="45.92585" lon="4.73622">
        <ele>173</ele>
        <time>2017-12-05T11:25:14Z</time>
      </trkpt>
      <trkpt lat="45.92579" lon="4.73623">
        <ele>173</ele>
        <time>2017-12-05T11:25:15Z</time>
      </trkpt>
      <trkpt lat="45.92573" lon="4.73625">
        <ele>173</ele>
        <time>2017-12-05T11:25:16Z</time>
      </trkpt>
      <trkpt lat="45.92568" lon="4.73625">
        <ele>173</ele>
        <time>2017-12-05T11:25:17Z</time>
      </trkpt>
      <trkpt lat="45.92564" lon="4.73628">
        <ele>173</ele>
        <time>2017-12-05T11:25:18Z</time>
      </trkpt>
      <trkpt lat="45.92558" lon="4.7363">
        <ele>173</ele>
        <time>2017-12-05T11:25:19Z</time>
      </trkpt>
      <trkpt lat="45.92553" lon="4.73631">
        <ele>173</ele>
        <time>2017-12-05T11:25:20Z</time>
      </trkpt>
      <trkpt lat="45.92548" lon="4.73633">
        <ele>173</ele>
        <time>2017-12-05T11:25:21Z</time>
      </trkpt>
      <trkpt lat="45.92543" lon="4.73635">
        <ele>173</ele>
        <time>2017-12-05T11:25:22Z</time>
      </trkpt>
      <trkpt lat="45.92538" lon="4.73637">
        <ele>173</ele>
        <time>2017-12-05T11:25:23Z</time>
      </trkpt>
      <trkpt lat="45.92532" lon="4.73637">
        <ele>173</ele>
        <time>2017-12-05T11:25:24Z</time>
      </trkpt>
      <trkpt lat="45.92527" lon="4.73637">
        <ele>173</ele>
        <time>2017-12-05T11:25:25Z</time>
      </trkpt>
      <trkpt lat="45.92522" lon="4.73638">
        <ele>173</ele>
        <time>2017-12-05T11:25:26Z</time>
      </trkpt>
      <trkpt lat="45.92513" lon="4.7364">
        <ele>174</ele>
        <time>2017-12-05T11:25:28Z</time>
      </trkpt>
      <trkpt lat="45.92509" lon="4.7364">
        <ele>174</ele>
        <time>2017-12-05T11:25:29Z</time>
      </trkpt>
      <trkpt lat="45.92501" lon="4.73641">
        <ele>174</ele>
        <time>2017-12-05T11:25:31Z</time>
      </trkpt>
      <trkpt lat="45.92497" lon="4.73641">
        <ele>174</ele>
        <time>2017-12-05T11:25:32Z</time>
      </trkpt>
      <trkpt lat="45.92489" lon="4.73641">
        <ele>174</ele>
        <time>2017-12-05T11:25:34Z</time>
      </trkpt>
      <trkpt lat="45.92485" lon="4.73642">
        <ele>174</ele>
        <time>2017-12-05T11:25:35Z</time>
      </trkpt>
      <trkpt lat="45.92479" lon="4.73648">
        <ele>174</ele>
        <time>2017-12-05T11:25:37Z</time>
      </trkpt>
      <trkpt lat="45.92476" lon="4.73652">
        <ele>174</ele>
        <time>2017-12-05T11:25:38Z</time>
      </trkpt>
      <trkpt lat="45.92472" lon="4.73663">
        <ele>174</ele>
        <time>2017-12-05T11:25:40Z</time>
      </trkpt>
      <trkpt lat="45.92472" lon="4.73669">
        <ele>174</ele>
        <time>2017-12-05T11:25:41Z</time>
      </trkpt>
      <trkpt lat="45.92472" lon="4.73682">
        <ele>174</ele>
        <time>2017-12-05T11:25:43Z</time>
      </trkpt>
      <trkpt lat="45.92472" lon="4.73688">
        <ele>174</ele>
        <time>2017-12-05T11:25:44Z</time>
      </trkpt>
      <trkpt lat="45.92471" lon="4.73699">
        <ele>174</ele>
        <time>2017-12-05T11:25:46Z</time>
      </trkpt>
      <trkpt lat="45.92471" lon="4.73704">
        <ele>174</ele>
        <time>2017-12-05T11:25:47Z</time>
      </trkpt>
      <trkpt lat="45.92465" lon="4.73713">
        <ele>174</ele>
        <time>2017-12-05T11:26:01Z</time>
      </trkpt>
      <trkpt lat="45.92464" lon="4.73713">
        <ele>174</ele>
        <time>2017-12-05T11:26:02Z</time>
      </trkpt>
      <trkpt lat="45.9246" lon="4.73711">
        <ele>174</ele>
        <time>2017-12-05T11:26:38.447Z</time>
      </trkpt>
    </trkseg>
  </trk>
</gpx>